<?xml version="1.0" encoding="UTF-8" standalone="no" ?>
<gpx xmlns="http://www.topografix.com/GPX/1/1" xmlns:xsi="http://www.w3.org/2001/XMLSchema-instance" xsi:schemaLocation="http://www.topografix.com/GPX/1/1 http://www.topografix.com/GPX/1/1/gpx.xsd" version="1.1" creator="VisuGPX - https://www.visugpx.com">
  <metadata>
    <name>Villard a St Niz ebn boucle</name>
    <desc><![CDATA[Balade sur e plateau de St Niz, descentes ludiques]]></desc>
  </metadata>
  <trk>
    <name><![CDATA[Villard a St Niz ebn boucle_1]]></name>
    <trkseg>
      <trkpt lat="45.07381" lon="5.56055">
        <ele>1033.5</ele>
      </trkpt>
      <trkpt lat="45.07399" lon="5.56162">
        <ele>1034</ele>
      </trkpt>
      <trkpt lat="45.07399" lon="5.56242">
        <ele>1033.6</ele>
      </trkpt>
      <trkpt lat="45.07393" lon="5.56354">
        <ele>1033</ele>
      </trkpt>
      <trkpt lat="45.07372" lon="5.56373">
        <ele>1032.9</ele>
      </trkpt>
      <trkpt lat="45.07333" lon="5.56378">
        <ele>1035.1</ele>
      </trkpt>
      <trkpt lat="45.07289" lon="5.56411">
        <ele>1034</ele>
      </trkpt>
      <trkpt lat="45.07294" lon="5.56426">
        <ele>1033</ele>
      </trkpt>
      <trkpt lat="45.07313" lon="5.56421">
        <ele>1031.6</ele>
      </trkpt>
      <trkpt lat="45.07339" lon="5.5643">
        <ele>1032.5</ele>
        <time>2018-04-18T07:29:38Z</time>
      </trkpt>
      <trkpt lat="45.07369" lon="5.56441">
        <ele>1030</ele>
        <time>2018-04-18T07:29:47Z</time>
      </trkpt>
      <trkpt lat="45.07396" lon="5.56456">
        <ele>1029.5</ele>
        <time>2018-04-18T07:29:55Z</time>
      </trkpt>
      <trkpt lat="45.07419" lon="5.56467">
        <ele>1027.3</ele>
        <time>2018-04-18T07:30:01Z</time>
      </trkpt>
      <trkpt lat="45.07441" lon="5.56488">
        <ele>1024.2</ele>
        <time>2018-04-18T07:30:08Z</time>
      </trkpt>
      <trkpt lat="45.07453" lon="5.56517">
        <ele>1020.4</ele>
        <time>2018-04-18T07:30:14Z</time>
      </trkpt>
      <trkpt lat="45.07457" lon="5.56529">
        <ele>1018.9</ele>
        <time>2018-04-18T07:30:16Z</time>
      </trkpt>
      <trkpt lat="45.07476" lon="5.56565">
        <ele>1014.5</ele>
        <time>2018-04-18T07:30:21Z</time>
      </trkpt>
      <trkpt lat="45.07486" lon="5.5658">
        <ele>1014.1</ele>
        <time>2018-04-18T07:30:23Z</time>
      </trkpt>
      <trkpt lat="45.075" lon="5.566">
        <ele>1014.8</ele>
        <time>2018-04-18T07:30:26Z</time>
      </trkpt>
      <trkpt lat="45.07526" lon="5.56627">
        <ele>1016.6</ele>
        <time>2018-04-18T07:30:33Z</time>
      </trkpt>
      <trkpt lat="45.07537" lon="5.5664">
        <ele>1018.1</ele>
        <time>2018-04-18T07:30:40Z</time>
      </trkpt>
      <trkpt lat="45.07552" lon="5.56645">
        <ele>1020.1</ele>
        <time>2018-04-18T07:30:49Z</time>
      </trkpt>
      <trkpt lat="45.07563" lon="5.56645">
        <ele>1021.3</ele>
        <time>2018-04-18T07:30:57Z</time>
      </trkpt>
      <trkpt lat="45.07575" lon="5.56643">
        <ele>1022.7</ele>
        <time>2018-04-18T07:31:06Z</time>
      </trkpt>
      <trkpt lat="45.07588" lon="5.56641">
        <ele>1024</ele>
        <time>2018-04-18T07:31:15Z</time>
      </trkpt>
      <trkpt lat="45.07598" lon="5.56638">
        <ele>1025.3</ele>
        <time>2018-04-18T07:31:23Z</time>
      </trkpt>
      <trkpt lat="45.07608" lon="5.56637">
        <ele>1026.6</ele>
        <time>2018-04-18T07:31:31Z</time>
      </trkpt>
      <trkpt lat="45.07618" lon="5.56632">
        <ele>1027.4</ele>
        <time>2018-04-18T07:31:38Z</time>
      </trkpt>
      <trkpt lat="45.0762" lon="5.56632">
        <ele>1027.8</ele>
        <time>2018-04-18T07:31:40Z</time>
      </trkpt>
      <trkpt lat="45.07629" lon="5.56628">
        <ele>1028.9</ele>
        <time>2018-04-18T07:31:47Z</time>
      </trkpt>
      <trkpt lat="45.07638" lon="5.56624">
        <ele>1029.9</ele>
        <time>2018-04-18T07:31:54Z</time>
      </trkpt>
      <trkpt lat="45.07649" lon="5.56619">
        <ele>1030.8</ele>
        <time>2018-04-18T07:32:02Z</time>
      </trkpt>
      <trkpt lat="45.07661" lon="5.56614">
        <ele>1031.3</ele>
        <time>2018-04-18T07:32:09Z</time>
      </trkpt>
      <trkpt lat="45.07675" lon="5.56605">
        <ele>1031.7</ele>
        <time>2018-04-18T07:32:17Z</time>
      </trkpt>
      <trkpt lat="45.07696" lon="5.56583">
        <ele>1032.3</ele>
        <time>2018-04-18T07:32:27Z</time>
      </trkpt>
      <trkpt lat="45.07705" lon="5.56557">
        <ele>1030.8</ele>
        <time>2018-04-18T07:32:36Z</time>
      </trkpt>
      <trkpt lat="45.07707" lon="5.56549">
        <ele>1030.3</ele>
        <time>2018-04-18T07:32:43Z</time>
      </trkpt>
      <trkpt lat="45.07707" lon="5.56547">
        <ele>1030</ele>
        <time>2018-04-18T07:33:01Z</time>
      </trkpt>
      <trkpt lat="45.07706" lon="5.56548">
        <ele>1030</ele>
        <time>2018-04-18T07:33:20Z</time>
      </trkpt>
      <trkpt lat="45.07703" lon="5.56552">
        <ele>1030</ele>
        <time>2018-04-18T07:33:42Z</time>
      </trkpt>
      <trkpt lat="45.07705" lon="5.56547">
        <ele>1029.7</ele>
        <time>2018-04-18T07:34:04Z</time>
      </trkpt>
      <trkpt lat="45.07707" lon="5.56542">
        <ele>1029.5</ele>
        <time>2018-04-18T07:34:30Z</time>
      </trkpt>
      <trkpt lat="45.07708" lon="5.56537">
        <ele>1029.2</ele>
        <time>2018-04-18T07:34:36Z</time>
      </trkpt>
      <trkpt lat="45.07714" lon="5.56522">
        <ele>1028.8</ele>
        <time>2018-04-18T07:34:42Z</time>
      </trkpt>
      <trkpt lat="45.07726" lon="5.56512">
        <ele>1030.7</ele>
        <time>2018-04-18T07:34:49Z</time>
      </trkpt>
      <trkpt lat="45.0774" lon="5.56518">
        <ele>1032.4</ele>
        <time>2018-04-18T07:34:56Z</time>
      </trkpt>
      <trkpt lat="45.07751" lon="5.56522">
        <ele>1033.7</ele>
        <time>2018-04-18T07:35:02Z</time>
      </trkpt>
      <trkpt lat="45.07759" lon="5.56501">
        <ele>1033.8</ele>
        <time>2018-04-18T07:35:08Z</time>
      </trkpt>
      <trkpt lat="45.07763" lon="5.56491">
        <ele>1033.9</ele>
        <time>2018-04-18T07:35:10Z</time>
      </trkpt>
      <trkpt lat="45.07779" lon="5.56445">
        <ele>1034</ele>
        <time>2018-04-18T07:35:18Z</time>
      </trkpt>
      <trkpt lat="45.07796" lon="5.56399">
        <ele>1034.1</ele>
        <time>2018-04-18T07:35:27Z</time>
      </trkpt>
      <trkpt lat="45.07808" lon="5.56346">
        <ele>1032.6</ele>
        <time>2018-04-18T07:35:37Z</time>
      </trkpt>
      <trkpt lat="45.07826" lon="5.56281">
        <ele>1031.6</ele>
        <time>2018-04-18T07:35:49Z</time>
      </trkpt>
      <trkpt lat="45.07851" lon="5.5622">
        <ele>1032.1</ele>
        <time>2018-04-18T07:36:01Z</time>
      </trkpt>
      <trkpt lat="45.07877" lon="5.56156">
        <ele>1030.9</ele>
        <time>2018-04-18T07:36:14Z</time>
      </trkpt>
      <trkpt lat="45.07896" lon="5.56108">
        <ele>1030.1</ele>
        <time>2018-04-18T07:36:24Z</time>
      </trkpt>
      <trkpt lat="45.07918" lon="5.56053">
        <ele>1028</ele>
        <time>2018-04-18T07:36:34Z</time>
      </trkpt>
      <trkpt lat="45.07947" lon="5.55988">
        <ele>1026.7</ele>
        <time>2018-04-18T07:36:47Z</time>
      </trkpt>
      <trkpt lat="45.07953" lon="5.55975">
        <ele>1026.3</ele>
        <time>2018-04-18T07:36:50Z</time>
      </trkpt>
      <trkpt lat="45.07964" lon="5.55976">
        <ele>1026.3</ele>
        <time>2018-04-18T07:36:54Z</time>
      </trkpt>
      <trkpt lat="45.07966" lon="5.55979">
        <ele>1026.4</ele>
        <time>2018-04-18T07:36:55Z</time>
      </trkpt>
      <trkpt lat="45.07988" lon="5.56021">
        <ele>1027.5</ele>
        <time>2018-04-18T07:37:06Z</time>
      </trkpt>
      <trkpt lat="45.08009" lon="5.56058">
        <ele>1027.1</ele>
        <time>2018-04-18T07:37:15Z</time>
      </trkpt>
      <trkpt lat="45.08031" lon="5.56089">
        <ele>1027</ele>
        <time>2018-04-18T07:37:24Z</time>
      </trkpt>
      <trkpt lat="45.08054" lon="5.56105">
        <ele>1026.2</ele>
        <time>2018-04-18T07:37:33Z</time>
      </trkpt>
      <trkpt lat="45.08074" lon="5.56122">
        <ele>1025.5</ele>
        <time>2018-04-18T07:37:40Z</time>
      </trkpt>
      <trkpt lat="45.08102" lon="5.56143">
        <ele>1024.1</ele>
        <time>2018-04-18T07:37:46Z</time>
      </trkpt>
      <trkpt lat="45.08144" lon="5.56174">
        <ele>1022.9</ele>
        <time>2018-04-18T07:37:55Z</time>
      </trkpt>
      <trkpt lat="45.08154" lon="5.56183">
        <ele>1022.5</ele>
        <time>2018-04-18T07:37:58Z</time>
      </trkpt>
      <trkpt lat="45.08181" lon="5.56218">
        <ele>1021.2</ele>
        <time>2018-04-18T07:38:07Z</time>
      </trkpt>
      <trkpt lat="45.0819" lon="5.56262">
        <ele>1019.6</ele>
        <time>2018-04-18T07:38:12Z</time>
      </trkpt>
      <trkpt lat="45.08193" lon="5.563">
        <ele>1018.2</ele>
        <time>2018-04-18T07:38:15Z</time>
      </trkpt>
      <trkpt lat="45.08198" lon="5.5634">
        <ele>1018</ele>
        <time>2018-04-18T07:38:18Z</time>
      </trkpt>
      <trkpt lat="45.082" lon="5.56353">
        <ele>1018</ele>
        <time>2018-04-18T07:38:19Z</time>
      </trkpt>
      <trkpt lat="45.08203" lon="5.56402">
        <ele>1018.9</ele>
        <time>2018-04-18T07:38:24Z</time>
      </trkpt>
      <trkpt lat="45.08203" lon="5.56409">
        <ele>1019.1</ele>
        <time>2018-04-18T07:38:25Z</time>
      </trkpt>
      <trkpt lat="45.08197" lon="5.5644">
        <ele>1019.1</ele>
        <time>2018-04-18T07:38:32Z</time>
      </trkpt>
      <trkpt lat="45.08189" lon="5.56476">
        <ele>1021</ele>
        <time>2018-04-18T07:38:41Z</time>
      </trkpt>
      <trkpt lat="45.08191" lon="5.56507">
        <ele>1022.2</ele>
        <time>2018-04-18T07:38:50Z</time>
      </trkpt>
      <trkpt lat="45.082" lon="5.56529">
        <ele>1023.3</ele>
        <time>2018-04-18T07:38:58Z</time>
      </trkpt>
      <trkpt lat="45.08213" lon="5.56551">
        <ele>1023.4</ele>
        <time>2018-04-18T07:39:09Z</time>
      </trkpt>
      <trkpt lat="45.08221" lon="5.56563">
        <ele>1023.2</ele>
        <time>2018-04-18T07:39:16Z</time>
      </trkpt>
      <trkpt lat="45.08231" lon="5.56576">
        <ele>1022.8</ele>
        <time>2018-04-18T07:39:22Z</time>
      </trkpt>
      <trkpt lat="45.0824" lon="5.56604">
        <ele>1022.5</ele>
        <time>2018-04-18T07:39:27Z</time>
      </trkpt>
      <trkpt lat="45.08252" lon="5.5664">
        <ele>1021.1</ele>
        <time>2018-04-18T07:39:31Z</time>
      </trkpt>
      <trkpt lat="45.08276" lon="5.56691">
        <ele>1021.3</ele>
        <time>2018-04-18T07:39:38Z</time>
      </trkpt>
      <trkpt lat="45.08305" lon="5.56726">
        <ele>1022.4</ele>
        <time>2018-04-18T07:39:47Z</time>
      </trkpt>
      <trkpt lat="45.08313" lon="5.56748">
        <ele>1023.4</ele>
        <time>2018-04-18T07:39:54Z</time>
      </trkpt>
      <trkpt lat="45.08316" lon="5.56771">
        <ele>1024.9</ele>
        <time>2018-04-18T07:40:02Z</time>
      </trkpt>
      <trkpt lat="45.08321" lon="5.56785">
        <ele>1025.9</ele>
        <time>2018-04-18T07:40:09Z</time>
      </trkpt>
      <trkpt lat="45.08323" lon="5.56788">
        <ele>1026.1</ele>
        <time>2018-04-18T07:40:11Z</time>
      </trkpt>
      <trkpt lat="45.08331" lon="5.568">
        <ele>1027</ele>
        <time>2018-04-18T07:40:20Z</time>
      </trkpt>
      <trkpt lat="45.08339" lon="5.56808">
        <ele>1027.2</ele>
        <time>2018-04-18T07:40:28Z</time>
      </trkpt>
      <trkpt lat="45.08348" lon="5.56813">
        <ele>1027.1</ele>
        <time>2018-04-18T07:40:35Z</time>
      </trkpt>
      <trkpt lat="45.08357" lon="5.56815">
        <ele>1026.8</ele>
        <time>2018-04-18T07:40:43Z</time>
      </trkpt>
      <trkpt lat="45.08366" lon="5.56812">
        <ele>1026.4</ele>
        <time>2018-04-18T07:40:51Z</time>
      </trkpt>
      <trkpt lat="45.08367" lon="5.56812">
        <ele>1026.4</ele>
        <time>2018-04-18T07:40:52Z</time>
      </trkpt>
      <trkpt lat="45.08379" lon="5.56812">
        <ele>1026.2</ele>
        <time>2018-04-18T07:41:01Z</time>
      </trkpt>
      <trkpt lat="45.0839" lon="5.56809">
        <ele>1026</ele>
        <time>2018-04-18T07:41:08Z</time>
      </trkpt>
      <trkpt lat="45.08407" lon="5.56809">
        <ele>1025.4</ele>
        <time>2018-04-18T07:41:16Z</time>
      </trkpt>
      <trkpt lat="45.08423" lon="5.56815">
        <ele>1024.9</ele>
        <time>2018-04-18T07:41:22Z</time>
      </trkpt>
      <trkpt lat="45.08438" lon="5.56834">
        <ele>1024.4</ele>
        <time>2018-04-18T07:41:29Z</time>
      </trkpt>
      <trkpt lat="45.08443" lon="5.56846">
        <ele>1024.2</ele>
        <time>2018-04-18T07:41:35Z</time>
      </trkpt>
      <trkpt lat="45.08449" lon="5.56864">
        <ele>1023.9</ele>
        <time>2018-04-18T07:41:38Z</time>
      </trkpt>
      <trkpt lat="45.0846" lon="5.56907">
        <ele>1023.1</ele>
        <time>2018-04-18T07:41:42Z</time>
      </trkpt>
      <trkpt lat="45.08485" lon="5.56958">
        <ele>1023</ele>
        <time>2018-04-18T07:41:47Z</time>
      </trkpt>
      <trkpt lat="45.08527" lon="5.57007">
        <ele>1021.8</ele>
        <time>2018-04-18T07:41:54Z</time>
      </trkpt>
      <trkpt lat="45.08561" lon="5.57018">
        <ele>1020.9</ele>
        <time>2018-04-18T07:42:00Z</time>
      </trkpt>
      <trkpt lat="45.08586" lon="5.57021">
        <ele>1021</ele>
        <time>2018-04-18T07:42:06Z</time>
      </trkpt>
      <trkpt lat="45.08621" lon="5.57021">
        <ele>1021.2</ele>
        <time>2018-04-18T07:42:15Z</time>
      </trkpt>
      <trkpt lat="45.08643" lon="5.57009">
        <ele>1021.6</ele>
        <time>2018-04-18T07:42:22Z</time>
      </trkpt>
      <trkpt lat="45.08658" lon="5.56998">
        <ele>1022.3</ele>
        <time>2018-04-18T07:42:29Z</time>
      </trkpt>
      <trkpt lat="45.08671" lon="5.56981">
        <ele>1022.7</ele>
        <time>2018-04-18T07:42:37Z</time>
      </trkpt>
      <trkpt lat="45.08684" lon="5.56961">
        <ele>1022.8</ele>
        <time>2018-04-18T07:42:46Z</time>
      </trkpt>
      <trkpt lat="45.08696" lon="5.56941">
        <ele>1023</ele>
        <time>2018-04-18T07:42:55Z</time>
      </trkpt>
      <trkpt lat="45.08705" lon="5.56927">
        <ele>1023.8</ele>
        <time>2018-04-18T07:43:02Z</time>
      </trkpt>
      <trkpt lat="45.08711" lon="5.56928">
        <ele>1024.3</ele>
        <time>2018-04-18T07:43:06Z</time>
      </trkpt>
      <trkpt lat="45.08715" lon="5.56958">
        <ele>1025.1</ele>
        <time>2018-04-18T07:43:17Z</time>
      </trkpt>
      <trkpt lat="45.08723" lon="5.5697">
        <ele>1026</ele>
        <time>2018-04-18T07:43:23Z</time>
      </trkpt>
      <trkpt lat="45.08742" lon="5.5698">
        <ele>1027.4</ele>
        <time>2018-04-18T07:43:31Z</time>
      </trkpt>
      <trkpt lat="45.08768" lon="5.56995">
        <ele>1029.1</ele>
        <time>2018-04-18T07:43:41Z</time>
      </trkpt>
      <trkpt lat="45.08791" lon="5.57005">
        <ele>1030.7</ele>
        <time>2018-04-18T07:43:50Z</time>
      </trkpt>
      <trkpt lat="45.08812" lon="5.57025">
        <ele>1032.1</ele>
        <time>2018-04-18T07:43:59Z</time>
      </trkpt>
      <trkpt lat="45.08833" lon="5.57052">
        <ele>1032.9</ele>
        <time>2018-04-18T07:44:08Z</time>
      </trkpt>
      <trkpt lat="45.08853" lon="5.57084">
        <ele>1033.7</ele>
        <time>2018-04-18T07:44:17Z</time>
      </trkpt>
      <trkpt lat="45.08867" lon="5.57107">
        <ele>1034.1</ele>
        <time>2018-04-18T07:44:21Z</time>
      </trkpt>
      <trkpt lat="45.08882" lon="5.57122">
        <ele>1034.6</ele>
        <time>2018-04-18T07:44:24Z</time>
      </trkpt>
      <trkpt lat="45.08895" lon="5.57123">
        <ele>1034.6</ele>
        <time>2018-04-18T07:44:26Z</time>
      </trkpt>
      <trkpt lat="45.08906" lon="5.57123">
        <ele>1034.6</ele>
        <time>2018-04-18T07:44:28Z</time>
      </trkpt>
      <trkpt lat="45.08932" lon="5.57125">
        <ele>1034.3</ele>
        <time>2018-04-18T07:44:33Z</time>
      </trkpt>
      <trkpt lat="45.08959" lon="5.57131">
        <ele>1033.5</ele>
        <time>2018-04-18T07:44:40Z</time>
      </trkpt>
      <trkpt lat="45.08979" lon="5.57139">
        <ele>1033.4</ele>
        <time>2018-04-18T07:44:47Z</time>
      </trkpt>
      <trkpt lat="45.09001" lon="5.57157">
        <ele>1033.9</ele>
        <time>2018-04-18T07:44:56Z</time>
      </trkpt>
      <trkpt lat="45.09026" lon="5.57181">
        <ele>1033.9</ele>
        <time>2018-04-18T07:45:06Z</time>
      </trkpt>
      <trkpt lat="45.09052" lon="5.57213">
        <ele>1034.2</ele>
        <time>2018-04-18T07:45:16Z</time>
      </trkpt>
      <trkpt lat="45.09071" lon="5.57222">
        <ele>1033.7</ele>
        <time>2018-04-18T07:45:22Z</time>
      </trkpt>
      <trkpt lat="45.09075" lon="5.57222">
        <ele>1033.5</ele>
        <time>2018-04-18T07:45:23Z</time>
      </trkpt>
      <trkpt lat="45.09109" lon="5.57238">
        <ele>1032</ele>
        <time>2018-04-18T07:45:32Z</time>
      </trkpt>
      <trkpt lat="45.09137" lon="5.57265">
        <ele>1029.6</ele>
        <time>2018-04-18T07:45:40Z</time>
      </trkpt>
      <trkpt lat="45.09159" lon="5.57288">
        <ele>1027.8</ele>
        <time>2018-04-18T07:45:45Z</time>
      </trkpt>
      <trkpt lat="45.09164" lon="5.57294">
        <ele>1027.4</ele>
        <time>2018-04-18T07:45:46Z</time>
      </trkpt>
      <trkpt lat="45.09205" lon="5.57317">
        <ele>1024.2</ele>
        <time>2018-04-18T07:45:52Z</time>
      </trkpt>
      <trkpt lat="45.09237" lon="5.57339">
        <ele>1020.3</ele>
        <time>2018-04-18T07:45:56Z</time>
      </trkpt>
      <trkpt lat="45.09259" lon="5.57353">
        <ele>1017.4</ele>
        <time>2018-04-18T07:45:59Z</time>
      </trkpt>
      <trkpt lat="45.09284" lon="5.57349">
        <ele>1015.2</ele>
        <time>2018-04-18T07:46:03Z</time>
      </trkpt>
      <trkpt lat="45.09315" lon="5.57318">
        <ele>1014.7</ele>
        <time>2018-04-18T07:46:09Z</time>
      </trkpt>
      <trkpt lat="45.09346" lon="5.57295">
        <ele>1013.2</ele>
        <time>2018-04-18T07:46:15Z</time>
      </trkpt>
      <trkpt lat="45.09378" lon="5.57264">
        <ele>1012.5</ele>
        <time>2018-04-18T07:46:22Z</time>
      </trkpt>
      <trkpt lat="45.09408" lon="5.57229">
        <ele>1012.9</ele>
        <time>2018-04-18T07:46:30Z</time>
      </trkpt>
      <trkpt lat="45.09411" lon="5.57225">
        <ele>1012.9</ele>
        <time>2018-04-18T07:46:31Z</time>
      </trkpt>
      <trkpt lat="45.09429" lon="5.57222">
        <ele>1011.9</ele>
        <time>2018-04-18T07:46:35Z</time>
      </trkpt>
      <trkpt lat="45.09468" lon="5.57254">
        <ele>1009.2</ele>
        <time>2018-04-18T07:46:45Z</time>
      </trkpt>
      <trkpt lat="45.09489" lon="5.57262">
        <ele>1008.5</ele>
        <time>2018-04-18T07:46:50Z</time>
      </trkpt>
      <trkpt lat="45.09493" lon="5.57264">
        <ele>1008.3</ele>
        <time>2018-04-18T07:46:51Z</time>
      </trkpt>
      <trkpt lat="45.09537" lon="5.57297">
        <ele>1008</ele>
        <time>2018-04-18T07:47:02Z</time>
      </trkpt>
      <trkpt lat="45.0957" lon="5.5732">
        <ele>1009.5</ele>
        <time>2018-04-18T07:47:10Z</time>
      </trkpt>
      <trkpt lat="45.09592" lon="5.57326">
        <ele>1009.7</ele>
        <time>2018-04-18T07:47:15Z</time>
      </trkpt>
      <trkpt lat="45.09612" lon="5.5735">
        <ele>1010.7</ele>
        <time>2018-04-18T07:47:22Z</time>
      </trkpt>
      <trkpt lat="45.09631" lon="5.57366">
        <ele>1011</ele>
        <time>2018-04-18T07:47:29Z</time>
      </trkpt>
      <trkpt lat="45.09668" lon="5.57366">
        <ele>1009.8</ele>
        <time>2018-04-18T07:47:39Z</time>
      </trkpt>
      <trkpt lat="45.0971" lon="5.57362">
        <ele>1007.9</ele>
        <time>2018-04-18T07:47:51Z</time>
      </trkpt>
      <trkpt lat="45.09733" lon="5.57357">
        <ele>1006.8</ele>
        <time>2018-04-18T07:47:58Z</time>
      </trkpt>
      <trkpt lat="45.09742" lon="5.57326">
        <ele>1005.3</ele>
        <time>2018-04-18T07:48:04Z</time>
      </trkpt>
      <trkpt lat="45.09745" lon="5.57308">
        <ele>1004.6</ele>
        <time>2018-04-18T07:48:07Z</time>
      </trkpt>
      <trkpt lat="45.09761" lon="5.57304">
        <ele>1004.1</ele>
        <time>2018-04-18T07:48:12Z</time>
      </trkpt>
      <trkpt lat="45.09771" lon="5.5731">
        <ele>1004.1</ele>
        <time>2018-04-18T07:48:15Z</time>
      </trkpt>
      <trkpt lat="45.09801" lon="5.57319">
        <ele>1003.8</ele>
        <time>2018-04-18T07:48:24Z</time>
      </trkpt>
      <trkpt lat="45.09832" lon="5.57325">
        <ele>1003.9</ele>
        <time>2018-04-18T07:48:32Z</time>
      </trkpt>
      <trkpt lat="45.0986" lon="5.57333">
        <ele>1004.4</ele>
        <time>2018-04-18T07:48:39Z</time>
      </trkpt>
      <trkpt lat="45.09888" lon="5.57343">
        <ele>1005.5</ele>
        <time>2018-04-18T07:48:46Z</time>
      </trkpt>
      <trkpt lat="45.09923" lon="5.57347">
        <ele>1006.1</ele>
        <time>2018-04-18T07:48:56Z</time>
      </trkpt>
      <trkpt lat="45.09926" lon="5.57347">
        <ele>1006.2</ele>
        <time>2018-04-18T07:48:57Z</time>
      </trkpt>
      <trkpt lat="45.0995" lon="5.57356">
        <ele>1007</ele>
        <time>2018-04-18T07:49:06Z</time>
      </trkpt>
      <trkpt lat="45.09968" lon="5.57366">
        <ele>1007</ele>
        <time>2018-04-18T07:49:13Z</time>
      </trkpt>
      <trkpt lat="45.09995" lon="5.57372">
        <ele>1006.7</ele>
        <time>2018-04-18T07:49:22Z</time>
      </trkpt>
      <trkpt lat="45.10019" lon="5.57373">
        <ele>1006</ele>
        <time>2018-04-18T07:49:30Z</time>
      </trkpt>
      <trkpt lat="45.10024" lon="5.57353">
        <ele>1005.2</ele>
        <time>2018-04-18T07:49:36Z</time>
      </trkpt>
      <trkpt lat="45.10024" lon="5.57349">
        <ele>1005</ele>
        <time>2018-04-18T07:49:37Z</time>
      </trkpt>
      <trkpt lat="45.10022" lon="5.57309">
        <ele>1004.1</ele>
        <time>2018-04-18T07:49:46Z</time>
      </trkpt>
      <trkpt lat="45.10022" lon="5.57294">
        <ele>1003.9</ele>
        <time>2018-04-18T07:49:49Z</time>
      </trkpt>
      <trkpt lat="45.10034" lon="5.57219">
        <ele>1002.8</ele>
        <time>2018-04-18T07:50:02Z</time>
      </trkpt>
      <trkpt lat="45.10046" lon="5.57149">
        <ele>1003</ele>
        <time>2018-04-18T07:50:14Z</time>
      </trkpt>
      <trkpt lat="45.10053" lon="5.57098">
        <ele>1003</ele>
        <time>2018-04-18T07:50:23Z</time>
      </trkpt>
      <trkpt lat="45.10059" lon="5.57052">
        <ele>1003</ele>
        <time>2018-04-18T07:50:31Z</time>
      </trkpt>
      <trkpt lat="45.10063" lon="5.5701">
        <ele>1003.2</ele>
        <time>2018-04-18T07:50:39Z</time>
      </trkpt>
      <trkpt lat="45.1007" lon="5.56971">
        <ele>1002.6</ele>
        <time>2018-04-18T07:50:47Z</time>
      </trkpt>
      <trkpt lat="45.10077" lon="5.56922">
        <ele>1002.7</ele>
        <time>2018-04-18T07:50:55Z</time>
      </trkpt>
      <trkpt lat="45.10082" lon="5.56867">
        <ele>1002.2</ele>
        <time>2018-04-18T07:51:04Z</time>
      </trkpt>
      <trkpt lat="45.10091" lon="5.56808">
        <ele>1001.1</ele>
        <time>2018-04-18T07:51:15Z</time>
      </trkpt>
      <trkpt lat="45.10099" lon="5.56748">
        <ele>999.7</ele>
        <time>2018-04-18T07:51:24Z</time>
      </trkpt>
      <trkpt lat="45.10101" lon="5.56674">
        <ele>997.3</ele>
        <time>2018-04-18T07:51:33Z</time>
      </trkpt>
      <trkpt lat="45.10102" lon="5.56606">
        <ele>994.2</ele>
        <time>2018-04-18T07:51:41Z</time>
      </trkpt>
      <trkpt lat="45.10103" lon="5.56579">
        <ele>992.7</ele>
        <time>2018-04-18T07:51:44Z</time>
      </trkpt>
      <trkpt lat="45.10117" lon="5.56517">
        <ele>992</ele>
        <time>2018-04-18T07:51:52Z</time>
      </trkpt>
      <trkpt lat="45.1012" lon="5.56503">
        <ele>991.6</ele>
        <time>2018-04-18T07:51:54Z</time>
      </trkpt>
      <trkpt lat="45.10121" lon="5.5649">
        <ele>991.1</ele>
        <time>2018-04-18T07:51:56Z</time>
      </trkpt>
      <trkpt lat="45.10121" lon="5.56477">
        <ele>990.6</ele>
        <time>2018-04-18T07:51:58Z</time>
      </trkpt>
      <trkpt lat="45.10111" lon="5.56414">
        <ele>988.9</ele>
        <time>2018-04-18T07:52:08Z</time>
      </trkpt>
      <trkpt lat="45.10101" lon="5.56378">
        <ele>987.4</ele>
        <time>2018-04-18T07:52:13Z</time>
      </trkpt>
      <trkpt lat="45.10097" lon="5.56327">
        <ele>987</ele>
        <time>2018-04-18T07:52:20Z</time>
      </trkpt>
      <trkpt lat="45.10097" lon="5.56322">
        <ele>986.8</ele>
        <time>2018-04-18T07:52:21Z</time>
      </trkpt>
      <trkpt lat="45.10109" lon="5.5632">
        <ele>986.7</ele>
        <time>2018-04-18T07:52:25Z</time>
      </trkpt>
      <trkpt lat="45.10114" lon="5.56325">
        <ele>986.9</ele>
        <time>2018-04-18T07:52:27Z</time>
      </trkpt>
      <trkpt lat="45.10143" lon="5.56351">
        <ele>987.9</ele>
        <time>2018-04-18T07:52:37Z</time>
      </trkpt>
      <trkpt lat="45.10181" lon="5.56385">
        <ele>990</ele>
        <time>2018-04-18T07:52:50Z</time>
      </trkpt>
      <trkpt lat="45.10208" lon="5.56409">
        <ele>990.9</ele>
        <time>2018-04-18T07:52:59Z</time>
      </trkpt>
      <trkpt lat="45.10237" lon="5.56435">
        <ele>991.4</ele>
        <time>2018-04-18T07:53:08Z</time>
      </trkpt>
      <trkpt lat="45.10261" lon="5.56456">
        <ele>991.3</ele>
        <time>2018-04-18T07:53:15Z</time>
      </trkpt>
      <trkpt lat="45.10298" lon="5.56489">
        <ele>990.2</ele>
        <time>2018-04-18T07:53:25Z</time>
      </trkpt>
      <trkpt lat="45.1033" lon="5.56517">
        <ele>989.2</ele>
        <time>2018-04-18T07:53:33Z</time>
      </trkpt>
      <trkpt lat="45.10373" lon="5.56556">
        <ele>989</ele>
        <time>2018-04-18T07:53:43Z</time>
      </trkpt>
      <trkpt lat="45.10411" lon="5.56591">
        <ele>989.4</ele>
        <time>2018-04-18T07:53:53Z</time>
      </trkpt>
      <trkpt lat="45.10433" lon="5.56609">
        <ele>989.6</ele>
        <time>2018-04-18T07:53:59Z</time>
      </trkpt>
      <trkpt lat="45.1044" lon="5.56615">
        <ele>989.5</ele>
        <time>2018-04-18T07:54:01Z</time>
      </trkpt>
      <trkpt lat="45.10454" lon="5.56629">
        <ele>989.9</ele>
        <time>2018-04-18T07:54:05Z</time>
      </trkpt>
      <trkpt lat="45.10486" lon="5.56664">
        <ele>990.1</ele>
        <time>2018-04-18T07:54:14Z</time>
      </trkpt>
      <trkpt lat="45.10516" lon="5.56698">
        <ele>990.6</ele>
        <time>2018-04-18T07:54:23Z</time>
      </trkpt>
      <trkpt lat="45.10545" lon="5.56732">
        <ele>990.4</ele>
        <time>2018-04-18T07:54:32Z</time>
      </trkpt>
      <trkpt lat="45.10569" lon="5.5676">
        <ele>989.8</ele>
        <time>2018-04-18T07:54:39Z</time>
      </trkpt>
      <trkpt lat="45.10582" lon="5.56775">
        <ele>989.1</ele>
        <time>2018-04-18T07:54:43Z</time>
      </trkpt>
      <trkpt lat="45.10621" lon="5.56818">
        <ele>989.3</ele>
        <time>2018-04-18T07:54:54Z</time>
      </trkpt>
      <trkpt lat="45.10658" lon="5.5686">
        <ele>990</ele>
        <time>2018-04-18T07:55:05Z</time>
      </trkpt>
      <trkpt lat="45.10695" lon="5.56903">
        <ele>991</ele>
        <time>2018-04-18T07:55:16Z</time>
      </trkpt>
      <trkpt lat="45.10731" lon="5.56943">
        <ele>991</ele>
        <time>2018-04-18T07:55:27Z</time>
      </trkpt>
      <trkpt lat="45.10772" lon="5.56987">
        <ele>990.8</ele>
        <time>2018-04-18T07:55:39Z</time>
      </trkpt>
      <trkpt lat="45.10808" lon="5.57028">
        <ele>991.2</ele>
        <time>2018-04-18T07:55:50Z</time>
      </trkpt>
      <trkpt lat="45.10837" lon="5.57061">
        <ele>991.4</ele>
        <time>2018-04-18T07:55:59Z</time>
      </trkpt>
      <trkpt lat="45.10869" lon="5.57102">
        <ele>991.7</ele>
        <time>2018-04-18T07:56:10Z</time>
      </trkpt>
      <trkpt lat="45.10872" lon="5.57105">
        <ele>991.7</ele>
        <time>2018-04-18T07:56:11Z</time>
      </trkpt>
      <trkpt lat="45.10904" lon="5.57141">
        <ele>991.7</ele>
        <time>2018-04-18T07:56:21Z</time>
      </trkpt>
      <trkpt lat="45.10921" lon="5.57162">
        <ele>991.9</ele>
        <time>2018-04-18T07:56:27Z</time>
      </trkpt>
      <trkpt lat="45.10958" lon="5.57205">
        <ele>992</ele>
        <time>2018-04-18T07:56:38Z</time>
      </trkpt>
      <trkpt lat="45.10988" lon="5.5724">
        <ele>992</ele>
        <time>2018-04-18T07:56:47Z</time>
      </trkpt>
      <trkpt lat="45.11017" lon="5.57274">
        <ele>992</ele>
        <time>2018-04-18T07:56:56Z</time>
      </trkpt>
      <trkpt lat="45.11044" lon="5.57304">
        <ele>992.2</ele>
        <time>2018-04-18T07:57:05Z</time>
      </trkpt>
      <trkpt lat="45.1106" lon="5.57322">
        <ele>992.8</ele>
        <time>2018-04-18T07:57:11Z</time>
      </trkpt>
      <trkpt lat="45.1109" lon="5.57357">
        <ele>993</ele>
        <time>2018-04-18T07:57:21Z</time>
      </trkpt>
      <trkpt lat="45.11113" lon="5.57381">
        <ele>993</ele>
        <time>2018-04-18T07:57:28Z</time>
      </trkpt>
      <trkpt lat="45.11144" lon="5.5741">
        <ele>993</ele>
        <time>2018-04-18T07:57:37Z</time>
      </trkpt>
      <trkpt lat="45.11187" lon="5.5744">
        <ele>993</ele>
        <time>2018-04-18T07:57:48Z</time>
      </trkpt>
      <trkpt lat="45.11229" lon="5.57469">
        <ele>993.1</ele>
        <time>2018-04-18T07:57:59Z</time>
      </trkpt>
      <trkpt lat="45.11271" lon="5.57499">
        <ele>994</ele>
        <time>2018-04-18T07:58:10Z</time>
      </trkpt>
      <trkpt lat="45.11309" lon="5.57525">
        <ele>994</ele>
        <time>2018-04-18T07:58:20Z</time>
      </trkpt>
      <trkpt lat="45.11359" lon="5.5756">
        <ele>994</ele>
        <time>2018-04-18T07:58:33Z</time>
      </trkpt>
      <trkpt lat="45.11403" lon="5.5759">
        <ele>994</ele>
        <time>2018-04-18T07:58:44Z</time>
      </trkpt>
      <trkpt lat="45.11438" lon="5.57614">
        <ele>994</ele>
        <time>2018-04-18T07:58:53Z</time>
      </trkpt>
      <trkpt lat="45.11481" lon="5.57644">
        <ele>994.6</ele>
        <time>2018-04-18T07:59:04Z</time>
      </trkpt>
      <trkpt lat="45.11524" lon="5.57674">
        <ele>995.5</ele>
        <time>2018-04-18T07:59:15Z</time>
      </trkpt>
      <trkpt lat="45.11563" lon="5.57701">
        <ele>996</ele>
        <time>2018-04-18T07:59:25Z</time>
      </trkpt>
      <trkpt lat="45.11616" lon="5.57739">
        <ele>996</ele>
        <time>2018-04-18T07:59:39Z</time>
      </trkpt>
      <trkpt lat="45.11658" lon="5.57769">
        <ele>996</ele>
        <time>2018-04-18T07:59:50Z</time>
      </trkpt>
      <trkpt lat="45.11705" lon="5.57802">
        <ele>997.5</ele>
        <time>2018-04-18T08:00:02Z</time>
      </trkpt>
      <trkpt lat="45.11744" lon="5.57828">
        <ele>999.8</ele>
        <time>2018-04-18T08:00:12Z</time>
      </trkpt>
      <trkpt lat="45.11786" lon="5.57857">
        <ele>1001.1</ele>
        <time>2018-04-18T08:00:23Z</time>
      </trkpt>
      <trkpt lat="45.11825" lon="5.57884">
        <ele>1001.4</ele>
        <time>2018-04-18T08:00:33Z</time>
      </trkpt>
      <trkpt lat="45.11871" lon="5.57915">
        <ele>1001.7</ele>
        <time>2018-04-18T08:00:45Z</time>
      </trkpt>
      <trkpt lat="45.11908" lon="5.57941">
        <ele>1001.5</ele>
        <time>2018-04-18T08:00:55Z</time>
      </trkpt>
      <trkpt lat="45.11946" lon="5.57967">
        <ele>1002</ele>
        <time>2018-04-18T08:01:05Z</time>
      </trkpt>
      <trkpt lat="45.11976" lon="5.5799">
        <ele>1001.9</ele>
        <time>2018-04-18T08:01:13Z</time>
      </trkpt>
      <trkpt lat="45.1202" lon="5.58014">
        <ele>1002.1</ele>
        <time>2018-04-18T08:01:24Z</time>
      </trkpt>
      <trkpt lat="45.12057" lon="5.58032">
        <ele>1001.4</ele>
        <time>2018-04-18T08:01:34Z</time>
      </trkpt>
      <trkpt lat="45.121" lon="5.58047">
        <ele>1001.9</ele>
        <time>2018-04-18T08:01:45Z</time>
      </trkpt>
      <trkpt lat="45.12137" lon="5.5806">
        <ele>1001.5</ele>
        <time>2018-04-18T08:01:55Z</time>
      </trkpt>
      <trkpt lat="45.12178" lon="5.58073">
        <ele>1001.5</ele>
        <time>2018-04-18T08:02:06Z</time>
      </trkpt>
      <trkpt lat="45.12224" lon="5.58089">
        <ele>1001.4</ele>
        <time>2018-04-18T08:02:18Z</time>
      </trkpt>
      <trkpt lat="45.12261" lon="5.58101">
        <ele>1001.9</ele>
        <time>2018-04-18T08:02:28Z</time>
      </trkpt>
      <trkpt lat="45.12299" lon="5.58114">
        <ele>1001.5</ele>
        <time>2018-04-18T08:02:38Z</time>
      </trkpt>
      <trkpt lat="45.12346" lon="5.58129">
        <ele>1001.4</ele>
        <time>2018-04-18T08:02:50Z</time>
      </trkpt>
      <trkpt lat="45.12391" lon="5.58145">
        <ele>1002.5</ele>
        <time>2018-04-18T08:03:01Z</time>
      </trkpt>
      <trkpt lat="45.12434" lon="5.5816">
        <ele>1003</ele>
        <time>2018-04-18T08:03:12Z</time>
      </trkpt>
      <trkpt lat="45.12474" lon="5.58173">
        <ele>1004</ele>
        <time>2018-04-18T08:03:23Z</time>
      </trkpt>
      <trkpt lat="45.1251" lon="5.58183">
        <ele>1004.9</ele>
        <time>2018-04-18T08:03:32Z</time>
      </trkpt>
      <trkpt lat="45.12548" lon="5.58199">
        <ele>1005.4</ele>
        <time>2018-04-18T08:03:42Z</time>
      </trkpt>
      <trkpt lat="45.12587" lon="5.58211">
        <ele>1005.9</ele>
        <time>2018-04-18T08:03:52Z</time>
      </trkpt>
      <trkpt lat="45.12621" lon="5.58223">
        <ele>1006.1</ele>
        <time>2018-04-18T08:04:01Z</time>
      </trkpt>
      <trkpt lat="45.12655" lon="5.58234">
        <ele>1006.9</ele>
        <time>2018-04-18T08:04:10Z</time>
      </trkpt>
      <trkpt lat="45.12701" lon="5.58249">
        <ele>1007</ele>
        <time>2018-04-18T08:04:21Z</time>
      </trkpt>
      <trkpt lat="45.12748" lon="5.58263">
        <ele>1007.7</ele>
        <time>2018-04-18T08:04:32Z</time>
      </trkpt>
      <trkpt lat="45.12786" lon="5.58276">
        <ele>1007.7</ele>
        <time>2018-04-18T08:04:41Z</time>
      </trkpt>
      <trkpt lat="45.12823" lon="5.58287">
        <ele>1006.7</ele>
        <time>2018-04-18T08:04:50Z</time>
      </trkpt>
      <trkpt lat="45.1285" lon="5.58293">
        <ele>1006.7</ele>
        <time>2018-04-18T08:04:57Z</time>
      </trkpt>
      <trkpt lat="45.12892" lon="5.58298">
        <ele>1006.9</ele>
        <time>2018-04-18T08:05:07Z</time>
      </trkpt>
      <trkpt lat="45.12913" lon="5.583">
        <ele>1007.1</ele>
        <time>2018-04-18T08:05:12Z</time>
      </trkpt>
      <trkpt lat="45.12942" lon="5.58316">
        <ele>1008.2</ele>
        <time>2018-04-18T08:05:20Z</time>
      </trkpt>
      <trkpt lat="45.1296" lon="5.58331">
        <ele>1008.6</ele>
        <time>2018-04-18T08:05:27Z</time>
      </trkpt>
      <trkpt lat="45.12969" lon="5.58339">
        <ele>1008.6</ele>
        <time>2018-04-18T08:05:31Z</time>
      </trkpt>
      <trkpt lat="45.12971" lon="5.58352">
        <ele>1009</ele>
        <time>2018-04-18T08:05:36Z</time>
      </trkpt>
      <trkpt lat="45.1296" lon="5.58388">
        <ele>1010.5</ele>
        <time>2018-04-18T08:05:45Z</time>
      </trkpt>
      <trkpt lat="45.12951" lon="5.58429">
        <ele>1010.9</ele>
        <time>2018-04-18T08:05:54Z</time>
      </trkpt>
      <trkpt lat="45.12941" lon="5.5846">
        <ele>1011.1</ele>
        <time>2018-04-18T08:06:02Z</time>
      </trkpt>
      <trkpt lat="45.12929" lon="5.58497">
        <ele>1011.6</ele>
        <time>2018-04-18T08:06:10Z</time>
      </trkpt>
      <trkpt lat="45.12917" lon="5.58538">
        <ele>1012.6</ele>
        <time>2018-04-18T08:06:19Z</time>
      </trkpt>
      <trkpt lat="45.12906" lon="5.58577">
        <ele>1013</ele>
        <time>2018-04-18T08:06:28Z</time>
      </trkpt>
      <trkpt lat="45.12898" lon="5.58602">
        <ele>1013</ele>
        <time>2018-04-18T08:06:34Z</time>
      </trkpt>
      <trkpt lat="45.12889" lon="5.58635">
        <ele>1014</ele>
        <time>2018-04-18T08:06:41Z</time>
      </trkpt>
      <trkpt lat="45.12879" lon="5.58675">
        <ele>1014.6</ele>
        <time>2018-04-18T08:06:50Z</time>
      </trkpt>
      <trkpt lat="45.12867" lon="5.58706">
        <ele>1015.6</ele>
        <time>2018-04-18T08:06:57Z</time>
      </trkpt>
      <trkpt lat="45.12859" lon="5.5874">
        <ele>1016</ele>
        <time>2018-04-18T08:07:04Z</time>
      </trkpt>
      <trkpt lat="45.12845" lon="5.58787">
        <ele>1015.6</ele>
        <time>2018-04-18T08:07:14Z</time>
      </trkpt>
      <trkpt lat="45.12738" lon="5.59277">
        <ele>1023.7</ele>
      </trkpt>
      <trkpt lat="45.12643" lon="5.59647">
        <ele>1032.9</ele>
      </trkpt>
      <trkpt lat="45.12653" lon="5.59875">
        <ele>1040.9</ele>
      </trkpt>
      <trkpt lat="45.12724" lon="5.59903">
        <ele>1038</ele>
      </trkpt>
      <trkpt lat="45.1269" lon="5.59974">
        <ele>1042</ele>
      </trkpt>
      <trkpt lat="45.12833" lon="5.60084">
        <ele>1062.2</ele>
      </trkpt>
      <trkpt lat="45.12971" lon="5.6011">
        <ele>1067.6</ele>
      </trkpt>
      <trkpt lat="45.13157" lon="5.60334">
        <ele>1090.9</ele>
      </trkpt>
      <trkpt lat="45.13235" lon="5.60405">
        <ele>1089.7</ele>
      </trkpt>
      <trkpt lat="45.13263" lon="5.60553">
        <ele>1101</ele>
      </trkpt>
      <trkpt lat="45.13354" lon="5.60609">
        <ele>1099.5</ele>
      </trkpt>
      <trkpt lat="45.13424" lon="5.60579">
        <ele>1094</ele>
      </trkpt>
      <trkpt lat="45.13462" lon="5.60607">
        <ele>1099.9</ele>
      </trkpt>
      <trkpt lat="45.13458" lon="5.6073">
        <ele>1130.2</ele>
      </trkpt>
      <trkpt lat="45.1346" lon="5.60752">
        <ele>1136.8</ele>
      </trkpt>
      <trkpt lat="45.13489" lon="5.60765">
        <ele>1142.6</ele>
      </trkpt>
      <trkpt lat="45.1353" lon="5.60748">
        <ele>1145</ele>
      </trkpt>
      <trkpt lat="45.13556" lon="5.60767">
        <ele>1159.2</ele>
      </trkpt>
      <trkpt lat="45.1358" lon="5.6075">
        <ele>1160.1</ele>
      </trkpt>
      <trkpt lat="45.13613" lon="5.60762">
        <ele>1169.4</ele>
      </trkpt>
      <trkpt lat="45.13721" lon="5.60776">
        <ele>1190.3</ele>
      </trkpt>
      <trkpt lat="45.13755" lon="5.60786">
        <ele>1197.7</ele>
      </trkpt>
      <trkpt lat="45.13836" lon="5.60826">
        <ele>1216.5</ele>
      </trkpt>
      <trkpt lat="45.13935" lon="5.60918">
        <ele>1234.1</ele>
      </trkpt>
      <trkpt lat="45.14028" lon="5.61091">
        <ele>1270.5</ele>
      </trkpt>
      <trkpt lat="45.1404" lon="5.61148">
        <ele>1277.8</ele>
      </trkpt>
      <trkpt lat="45.1404" lon="5.61177">
        <ele>1282.7</ele>
      </trkpt>
      <trkpt lat="45.14065" lon="5.61297">
        <ele>1279.5</ele>
      </trkpt>
      <trkpt lat="45.14022" lon="5.61524">
        <ele>1268.9</ele>
      </trkpt>
      <trkpt lat="45.13937" lon="5.61662">
        <ele>1292.8</ele>
      </trkpt>
      <trkpt lat="45.1394" lon="5.6176">
        <ele>1276.4</ele>
      </trkpt>
      <trkpt lat="45.14028" lon="5.6203">
        <ele>1271.3</ele>
      </trkpt>
      <trkpt lat="45.14059" lon="5.62099">
        <ele>1267.8</ele>
      </trkpt>
      <trkpt lat="45.14109" lon="5.62137">
        <ele>1254.6</ele>
      </trkpt>
      <trkpt lat="45.14139" lon="5.62227">
        <ele>1265.1</ele>
      </trkpt>
      <trkpt lat="45.14169" lon="5.62277">
        <ele>1264.7</ele>
      </trkpt>
      <trkpt lat="45.1431" lon="5.62436">
        <ele>1263.4</ele>
      </trkpt>
      <trkpt lat="45.14551" lon="5.62495">
        <ele>1252</ele>
      </trkpt>
      <trkpt lat="45.14599" lon="5.62544">
        <ele>1264.6</ele>
      </trkpt>
      <trkpt lat="45.14847" lon="5.6258">
        <ele>1277.7</ele>
      </trkpt>
      <trkpt lat="45.14918" lon="5.62553">
        <ele>1276.1</ele>
      </trkpt>
      <trkpt lat="45.14974" lon="5.62615">
        <ele>1294.2</ele>
      </trkpt>
      <trkpt lat="45.15006" lon="5.62622">
        <ele>1296.1</ele>
      </trkpt>
      <trkpt lat="45.15072" lon="5.62596">
        <ele>1288.3</ele>
      </trkpt>
      <trkpt lat="45.15134" lon="5.62599">
        <ele>1291.3</ele>
      </trkpt>
      <trkpt lat="45.15157" lon="5.6258">
        <ele>1289.2</ele>
      </trkpt>
      <trkpt lat="45.15245" lon="5.62606">
        <ele>1297.4</ele>
      </trkpt>
      <trkpt lat="45.1535" lon="5.62685">
        <ele>1296.1</ele>
      </trkpt>
      <trkpt lat="45.15376" lon="5.62773">
        <ele>1309.4</ele>
      </trkpt>
      <trkpt lat="45.15448" lon="5.62774">
        <ele>1307.3</ele>
      </trkpt>
      <trkpt lat="45.15489" lon="5.62749">
        <ele>1280.4000244141</ele>
        <time>2021-04-10T14:10:09.000Z</time>
      </trkpt>
      <trkpt lat="45.155" lon="5.627">
        <ele>1277.5999755859</ele>
        <time>2021-04-10T14:10:26.000Z</time>
      </trkpt>
      <trkpt lat="45.15502" lon="5.62673">
        <ele>1276</ele>
        <time>2021-04-10T14:10:29.000Z</time>
      </trkpt>
      <trkpt lat="45.15506" lon="5.62656">
        <ele>1274.5999755859</ele>
        <time>2021-04-10T14:10:31.000Z</time>
      </trkpt>
      <trkpt lat="45.15516" lon="5.62632">
        <ele>1273.1999511719</ele>
        <time>2021-04-10T14:10:34.000Z</time>
      </trkpt>
      <trkpt lat="45.15525" lon="5.62609">
        <ele>1272</ele>
        <time>2021-04-10T14:10:37.000Z</time>
      </trkpt>
      <trkpt lat="45.15532" lon="5.62594">
        <ele>1270.4000244141</ele>
        <time>2021-04-10T14:10:39.000Z</time>
      </trkpt>
      <trkpt lat="45.1554" lon="5.62575">
        <ele>1269</ele>
        <time>2021-04-10T14:10:41.000Z</time>
      </trkpt>
      <trkpt lat="45.1555" lon="5.62556">
        <ele>1267.1999511719</ele>
        <time>2021-04-10T14:10:43.000Z</time>
      </trkpt>
      <trkpt lat="45.15555" lon="5.62548">
        <ele>1266.5999755859</ele>
        <time>2021-04-10T14:10:44.000Z</time>
      </trkpt>
      <trkpt lat="45.15562" lon="5.62539">
        <ele>1265.8000488281</ele>
        <time>2021-04-10T14:10:45.000Z</time>
      </trkpt>
      <trkpt lat="45.15576" lon="5.6252">
        <ele>1264.1999511719</ele>
        <time>2021-04-10T14:10:47.000Z</time>
      </trkpt>
      <trkpt lat="45.15582" lon="5.62509">
        <ele>1263</ele>
        <time>2021-04-10T14:10:48.000Z</time>
      </trkpt>
      <trkpt lat="45.15587" lon="5.62496">
        <ele>1261.8000488281</ele>
        <time>2021-04-10T14:10:49.000Z</time>
      </trkpt>
      <trkpt lat="45.15596" lon="5.62475">
        <ele>1260</ele>
        <time>2021-04-10T14:10:51.000Z</time>
      </trkpt>
      <trkpt lat="45.15606" lon="5.62446">
        <ele>1258.5999755859</ele>
        <time>2021-04-10T14:10:53.000Z</time>
      </trkpt>
      <trkpt lat="45.15617" lon="5.6242">
        <ele>1257</ele>
        <time>2021-04-10T14:10:55.000Z</time>
      </trkpt>
      <trkpt lat="45.15631" lon="5.62394">
        <ele>1254.5999755859</ele>
        <time>2021-04-10T14:10:57.000Z</time>
      </trkpt>
      <trkpt lat="45.15637" lon="5.62382">
        <ele>1253</ele>
        <time>2021-04-10T14:10:58.000Z</time>
      </trkpt>
      <trkpt lat="45.15645" lon="5.6237">
        <ele>1251.8000488281</ele>
        <time>2021-04-10T14:10:59.000Z</time>
      </trkpt>
      <trkpt lat="45.15659" lon="5.62348">
        <ele>1250</ele>
        <time>2021-04-10T14:11:01.000Z</time>
      </trkpt>
      <trkpt lat="45.15673" lon="5.62328">
        <ele>1248.4000244141</ele>
        <time>2021-04-10T14:11:03.000Z</time>
      </trkpt>
      <trkpt lat="45.15686" lon="5.62314">
        <ele>1248</ele>
        <time>2021-04-10T14:11:05.000Z</time>
      </trkpt>
      <trkpt lat="45.15705" lon="5.62305">
        <ele>1249.4000244141</ele>
        <time>2021-04-10T14:11:10.000Z</time>
      </trkpt>
      <trkpt lat="45.15713" lon="5.62302">
        <ele>1250.1999511719</ele>
        <time>2021-04-10T14:11:13.000Z</time>
      </trkpt>
      <trkpt lat="45.15722" lon="5.62299">
        <ele>1251.1999511719</ele>
        <time>2021-04-10T14:11:16.000Z</time>
      </trkpt>
      <trkpt lat="45.15737" lon="5.62298">
        <ele>1252.1999511719</ele>
        <time>2021-04-10T14:11:22.000Z</time>
      </trkpt>
      <trkpt lat="45.15752" lon="5.62299">
        <ele>1253.1999511719</ele>
        <time>2021-04-10T14:11:27.000Z</time>
      </trkpt>
      <trkpt lat="45.15774" lon="5.62303">
        <ele>1254</ele>
        <time>2021-04-10T14:11:34.000Z</time>
      </trkpt>
      <trkpt lat="45.15826" lon="5.62311">
        <ele>1254.8000488281</ele>
        <time>2021-04-10T14:11:49.000Z</time>
      </trkpt>
      <trkpt lat="45.1587" lon="5.62306">
        <ele>1255.4000244141</ele>
        <time>2021-04-10T14:12:17.000Z</time>
      </trkpt>
      <trkpt lat="45.15866" lon="5.62305">
        <ele>1255.5999755859</ele>
        <time>2021-04-10T14:12:20.000Z</time>
      </trkpt>
      <trkpt lat="45.15866" lon="5.62305">
        <ele>1255.5999755859</ele>
        <time>2021-04-10T14:12:21.000Z</time>
      </trkpt>
      <trkpt lat="45.15862" lon="5.62304">
        <ele>1253.8000488281</ele>
        <time>2021-04-10T14:14:18.000Z</time>
      </trkpt>
      <trkpt lat="45.15862" lon="5.623">
        <ele>1252.4000244141</ele>
        <time>2021-04-10T14:14:22.000Z</time>
      </trkpt>
      <trkpt lat="45.15864" lon="5.62294">
        <ele>1251.1999511719</ele>
        <time>2021-04-10T14:14:26.000Z</time>
      </trkpt>
      <trkpt lat="45.15866" lon="5.6229">
        <ele>1250.1999511719</ele>
        <time>2021-04-10T14:14:30.000Z</time>
      </trkpt>
      <trkpt lat="45.15867" lon="5.62286">
        <ele>1249</ele>
        <time>2021-04-10T14:14:33.000Z</time>
      </trkpt>
      <trkpt lat="45.15867" lon="5.62284">
        <ele>1247.5999755859</ele>
        <time>2021-04-10T14:14:36.000Z</time>
      </trkpt>
      <trkpt lat="45.15865" lon="5.6228">
        <ele>1246.5999755859</ele>
        <time>2021-04-10T14:14:42.000Z</time>
      </trkpt>
      <trkpt lat="45.15862" lon="5.62277">
        <ele>1245.4000244141</ele>
        <time>2021-04-10T14:14:48.000Z</time>
      </trkpt>
      <trkpt lat="45.15853" lon="5.6227">
        <ele>1244.1999511719</ele>
        <time>2021-04-10T14:15:12.000Z</time>
      </trkpt>
      <trkpt lat="45.15851" lon="5.62267">
        <ele>1243</ele>
        <time>2021-04-10T14:15:14.000Z</time>
      </trkpt>
      <trkpt lat="45.1585" lon="5.62264">
        <ele>1241.5999755859</ele>
        <time>2021-04-10T14:15:16.000Z</time>
      </trkpt>
      <trkpt lat="45.1585" lon="5.62262">
        <ele>1240.4000244141</ele>
        <time>2021-04-10T14:15:18.000Z</time>
      </trkpt>
      <trkpt lat="45.15855" lon="5.62251">
        <ele>1239.1999511719</ele>
        <time>2021-04-10T14:15:30.000Z</time>
      </trkpt>
      <trkpt lat="45.15858" lon="5.62248">
        <ele>1239.1999511719</ele>
        <time>2021-04-10T14:15:33.000Z</time>
      </trkpt>
      <trkpt lat="45.15867" lon="5.62241">
        <ele>1238</ele>
        <time>2021-04-10T14:15:37.000Z</time>
      </trkpt>
      <trkpt lat="45.1587" lon="5.62238">
        <ele>1237</ele>
        <time>2021-04-10T14:15:40.000Z</time>
      </trkpt>
      <trkpt lat="45.15871" lon="5.62237">
        <ele>1236.8000488281</ele>
        <time>2021-04-10T14:15:41.000Z</time>
      </trkpt>
      <trkpt lat="45.15875" lon="5.62232">
        <ele>1235</ele>
        <time>2021-04-10T14:15:45.000Z</time>
      </trkpt>
      <trkpt lat="45.15874" lon="5.62228">
        <ele>1233.8000488281</ele>
        <time>2021-04-10T14:15:49.000Z</time>
      </trkpt>
      <trkpt lat="45.15871" lon="5.62226">
        <ele>1232.4000244141</ele>
        <time>2021-04-10T14:15:52.000Z</time>
      </trkpt>
      <trkpt lat="45.15872" lon="5.62224">
        <ele>1231.4000244141</ele>
        <time>2021-04-10T14:15:54.000Z</time>
      </trkpt>
      <trkpt lat="45.15872" lon="5.62223">
        <ele>1231</ele>
        <time>2021-04-10T14:15:55.000Z</time>
      </trkpt>
      <trkpt lat="45.15873" lon="5.62222">
        <ele>1230.5999755859</ele>
        <time>2021-04-10T14:15:56.000Z</time>
      </trkpt>
      <trkpt lat="45.15875" lon="5.62219">
        <ele>1229.8000488281</ele>
        <time>2021-04-10T14:15:59.000Z</time>
      </trkpt>
      <trkpt lat="45.15879" lon="5.62214">
        <ele>1229</ele>
        <time>2021-04-10T14:16:21.000Z</time>
      </trkpt>
      <trkpt lat="45.1588" lon="5.62211">
        <ele>1228.1999511719</ele>
        <time>2021-04-10T14:16:23.000Z</time>
      </trkpt>
      <trkpt lat="45.15882" lon="5.62208">
        <ele>1226.8000488281</ele>
        <time>2021-04-10T14:16:26.000Z</time>
      </trkpt>
      <trkpt lat="45.15886" lon="5.62203">
        <ele>1225.8000488281</ele>
        <time>2021-04-10T14:16:28.000Z</time>
      </trkpt>
      <trkpt lat="45.15889" lon="5.62195">
        <ele>1224.1999511719</ele>
        <time>2021-04-10T14:16:30.000Z</time>
      </trkpt>
      <trkpt lat="45.1589" lon="5.62192">
        <ele>1223.1999511719</ele>
        <time>2021-04-10T14:16:31.000Z</time>
      </trkpt>
      <trkpt lat="45.1589" lon="5.6219">
        <ele>1222</ele>
        <time>2021-04-10T14:16:32.000Z</time>
      </trkpt>
      <trkpt lat="45.1589" lon="5.62188">
        <ele>1221</ele>
        <time>2021-04-10T14:16:34.000Z</time>
      </trkpt>
      <trkpt lat="45.15887" lon="5.62183">
        <ele>1219.5999755859</ele>
        <time>2021-04-10T14:16:37.000Z</time>
      </trkpt>
      <trkpt lat="45.15888" lon="5.62181">
        <ele>1218.5999755859</ele>
        <time>2021-04-10T14:16:39.000Z</time>
      </trkpt>
      <trkpt lat="45.15893" lon="5.62177">
        <ele>1217.1999511719</ele>
        <time>2021-04-10T14:16:42.000Z</time>
      </trkpt>
      <trkpt lat="45.15893" lon="5.62177">
        <ele>1216.5999755859</ele>
        <time>2021-04-10T14:16:43.000Z</time>
      </trkpt>
      <trkpt lat="45.15901" lon="5.62174">
        <ele>1216</ele>
        <time>2021-04-10T14:16:46.000Z</time>
      </trkpt>
      <trkpt lat="45.15902" lon="5.62169">
        <ele>1214.5999755859</ele>
        <time>2021-04-10T14:16:50.000Z</time>
      </trkpt>
      <trkpt lat="45.159" lon="5.62163">
        <ele>1213.1999511719</ele>
        <time>2021-04-10T14:16:52.000Z</time>
      </trkpt>
      <trkpt lat="45.15904" lon="5.62153">
        <ele>1211.4000244141</ele>
        <time>2021-04-10T14:16:54.000Z</time>
      </trkpt>
      <trkpt lat="45.15904" lon="5.62153">
        <ele>1210</ele>
        <time>2021-04-10T14:16:55.000Z</time>
      </trkpt>
      <trkpt lat="45.15907" lon="5.62146">
        <ele>1208.5999755859</ele>
        <time>2021-04-10T14:16:57.000Z</time>
      </trkpt>
      <trkpt lat="45.15906" lon="5.6214">
        <ele>1207.4000244141</ele>
        <time>2021-04-10T14:17:00.000Z</time>
      </trkpt>
      <trkpt lat="45.15907" lon="5.62135">
        <ele>1206.5999755859</ele>
        <time>2021-04-10T14:17:02.000Z</time>
      </trkpt>
      <trkpt lat="45.15909" lon="5.62134">
        <ele>1206.4000244141</ele>
        <time>2021-04-10T14:17:03.000Z</time>
      </trkpt>
      <trkpt lat="45.15914" lon="5.62128">
        <ele>1205</ele>
        <time>2021-04-10T14:17:06.000Z</time>
      </trkpt>
      <trkpt lat="45.1592" lon="5.62121">
        <ele>1203</ele>
        <time>2021-04-10T14:17:08.000Z</time>
      </trkpt>
      <trkpt lat="45.15925" lon="5.62119">
        <ele>1201.4000244141</ele>
        <time>2021-04-10T14:17:10.000Z</time>
      </trkpt>
      <trkpt lat="45.15927" lon="5.62117">
        <ele>1200.8000488281</ele>
        <time>2021-04-10T14:17:11.000Z</time>
      </trkpt>
      <trkpt lat="45.15928" lon="5.62114">
        <ele>1200.4000244141</ele>
        <time>2021-04-10T14:17:12.000Z</time>
      </trkpt>
      <trkpt lat="45.1593" lon="5.62112">
        <ele>1199.4000244141</ele>
        <time>2021-04-10T14:17:13.000Z</time>
      </trkpt>
      <trkpt lat="45.15933" lon="5.62111">
        <ele>1197.8000488281</ele>
        <time>2021-04-10T14:17:15.000Z</time>
      </trkpt>
      <trkpt lat="45.15935" lon="5.6211">
        <ele>1196.8000488281</ele>
        <time>2021-04-10T14:17:17.000Z</time>
      </trkpt>
      <trkpt lat="45.15936" lon="5.62109">
        <ele>1196</ele>
        <time>2021-04-10T14:17:18.000Z</time>
      </trkpt>
      <trkpt lat="45.15939" lon="5.62105">
        <ele>1194.8000488281</ele>
        <time>2021-04-10T14:17:19.000Z</time>
      </trkpt>
      <trkpt lat="45.15942" lon="5.62105">
        <ele>1192.5999755859</ele>
        <time>2021-04-10T14:17:21.000Z</time>
      </trkpt>
      <trkpt lat="45.15946" lon="5.62107">
        <ele>1191.5999755859</ele>
        <time>2021-04-10T14:17:23.000Z</time>
      </trkpt>
      <trkpt lat="45.15951" lon="5.6211">
        <ele>1190.4000244141</ele>
        <time>2021-04-10T14:17:26.000Z</time>
      </trkpt>
      <trkpt lat="45.15957" lon="5.62108">
        <ele>1189.8000488281</ele>
        <time>2021-04-10T14:17:28.000Z</time>
      </trkpt>
      <trkpt lat="45.1596" lon="5.62106">
        <ele>1189.1999511719</ele>
        <time>2021-04-10T14:17:29.000Z</time>
      </trkpt>
      <trkpt lat="45.15962" lon="5.62102">
        <ele>1187.5999755859</ele>
        <time>2021-04-10T14:17:31.000Z</time>
      </trkpt>
      <trkpt lat="45.15963" lon="5.62101">
        <ele>1187.1999511719</ele>
        <time>2021-04-10T14:17:32.000Z</time>
      </trkpt>
      <trkpt lat="45.15966" lon="5.62093">
        <ele>1186.5999755859</ele>
        <time>2021-04-10T14:17:35.000Z</time>
      </trkpt>
      <trkpt lat="45.15966" lon="5.62092">
        <ele>1186.4000244141</ele>
        <time>2021-04-10T14:17:36.000Z</time>
      </trkpt>
      <trkpt lat="45.15968" lon="5.62093">
        <ele>1185.4000244141</ele>
        <time>2021-04-10T14:17:38.000Z</time>
      </trkpt>
      <trkpt lat="45.15969" lon="5.62093">
        <ele>1184.5999755859</ele>
        <time>2021-04-10T14:17:39.000Z</time>
      </trkpt>
      <trkpt lat="45.15971" lon="5.6209">
        <ele>1183.4000244141</ele>
        <time>2021-04-10T14:17:42.000Z</time>
      </trkpt>
      <trkpt lat="45.15976" lon="5.62082">
        <ele>1182</ele>
        <time>2021-04-10T14:17:45.000Z</time>
      </trkpt>
      <trkpt lat="45.15978" lon="5.62078">
        <ele>1181</ele>
        <time>2021-04-10T14:17:46.000Z</time>
      </trkpt>
      <trkpt lat="45.1598" lon="5.62075">
        <ele>1179.1999511719</ele>
        <time>2021-04-10T14:17:47.000Z</time>
      </trkpt>
      <trkpt lat="45.15981" lon="5.62072">
        <ele>1178</ele>
        <time>2021-04-10T14:17:48.000Z</time>
      </trkpt>
      <trkpt lat="45.15981" lon="5.6207">
        <ele>1177</ele>
        <time>2021-04-10T14:17:49.000Z</time>
      </trkpt>
      <trkpt lat="45.15981" lon="5.62068">
        <ele>1176.4000244141</ele>
        <time>2021-04-10T14:17:50.000Z</time>
      </trkpt>
      <trkpt lat="45.15984" lon="5.62063">
        <ele>1175</ele>
        <time>2021-04-10T14:18:34.000Z</time>
      </trkpt>
      <trkpt lat="45.15986" lon="5.62063">
        <ele>1174.5999755859</ele>
        <time>2021-04-10T14:18:35.000Z</time>
      </trkpt>
      <trkpt lat="45.1599" lon="5.62062">
        <ele>1173.5999755859</ele>
        <time>2021-04-10T14:18:37.000Z</time>
      </trkpt>
      <trkpt lat="45.15993" lon="5.62061">
        <ele>1172.4000244141</ele>
        <time>2021-04-10T14:18:39.000Z</time>
      </trkpt>
      <trkpt lat="45.15995" lon="5.62062">
        <ele>1171.8000488281</ele>
        <time>2021-04-10T14:18:40.000Z</time>
      </trkpt>
      <trkpt lat="45.15998" lon="5.62063">
        <ele>1171.4000244141</ele>
        <time>2021-04-10T14:18:41.000Z</time>
      </trkpt>
      <trkpt lat="45.16002" lon="5.62068">
        <ele>1170.1999511719</ele>
        <time>2021-04-10T14:18:44.000Z</time>
      </trkpt>
      <trkpt lat="45.16005" lon="5.62072">
        <ele>1169.8000488281</ele>
        <time>2021-04-10T14:18:48.000Z</time>
      </trkpt>
      <trkpt lat="45.16011" lon="5.62083">
        <ele>1169.5999755859</ele>
        <time>2021-04-10T14:18:52.000Z</time>
      </trkpt>
      <trkpt lat="45.16011" lon="5.62089">
        <ele>1171.1999511719</ele>
        <time>2021-04-10T14:18:56.000Z</time>
      </trkpt>
      <trkpt lat="45.16012" lon="5.62093">
        <ele>1172.4000244141</ele>
        <time>2021-04-10T14:18:59.000Z</time>
      </trkpt>
      <trkpt lat="45.16015" lon="5.62099">
        <ele>1173.4000244141</ele>
        <time>2021-04-10T14:19:05.000Z</time>
      </trkpt>
      <trkpt lat="45.16023" lon="5.62116">
        <ele>1173.1999511719</ele>
        <time>2021-04-10T14:19:17.000Z</time>
      </trkpt>
      <trkpt lat="45.16024" lon="5.62128">
        <ele>1174.4000244141</ele>
        <time>2021-04-10T14:19:25.000Z</time>
      </trkpt>
      <trkpt lat="45.16024" lon="5.62143">
        <ele>1175.4000244141</ele>
        <time>2021-04-10T14:19:34.000Z</time>
      </trkpt>
      <trkpt lat="45.16028" lon="5.62158">
        <ele>1174.4000244141</ele>
        <time>2021-04-10T14:19:44.000Z</time>
      </trkpt>
      <trkpt lat="45.16035" lon="5.62169">
        <ele>1173.4000244141</ele>
        <time>2021-04-10T14:20:30.000Z</time>
      </trkpt>
      <trkpt lat="45.16037" lon="5.62177">
        <ele>1172.1999511719</ele>
        <time>2021-04-10T14:20:34.000Z</time>
      </trkpt>
      <trkpt lat="45.16039" lon="5.62189">
        <ele>1171.8000488281</ele>
        <time>2021-04-10T14:20:40.000Z</time>
      </trkpt>
      <trkpt lat="45.16044" lon="5.62198">
        <ele>1173.1999511719</ele>
        <time>2021-04-10T14:20:47.000Z</time>
      </trkpt>
      <trkpt lat="45.16051" lon="5.62205">
        <ele>1172.5999755859</ele>
        <time>2021-04-10T14:20:51.000Z</time>
      </trkpt>
      <trkpt lat="45.16047" lon="5.62175">
        <ele>1189.8</ele>
      </trkpt>
      <trkpt lat="45.16041" lon="5.62161">
        <ele>1189.4</ele>
      </trkpt>
      <trkpt lat="45.16041" lon="5.62137">
        <ele>1186.7</ele>
      </trkpt>
      <trkpt lat="45.16033" lon="5.62115">
        <ele>1186.6</ele>
      </trkpt>
      <trkpt lat="45.16033" lon="5.6209">
        <ele>1183.6</ele>
      </trkpt>
      <trkpt lat="45.16001" lon="5.6205">
        <ele>1187.2</ele>
      </trkpt>
      <trkpt lat="45.15998" lon="5.62031">
        <ele>1184.6</ele>
      </trkpt>
      <trkpt lat="45.1599" lon="5.62024">
        <ele>1185.1</ele>
      </trkpt>
      <trkpt lat="45.15995" lon="5.61999">
        <ele>1179.9</ele>
      </trkpt>
      <trkpt lat="45.16001" lon="5.61951">
        <ele>1175.4</ele>
      </trkpt>
      <trkpt lat="45.16004" lon="5.61912">
        <ele>1171.6</ele>
      </trkpt>
      <trkpt lat="45.16034" lon="5.61889">
        <ele>1164.5</ele>
      </trkpt>
      <trkpt lat="45.16053" lon="5.61876">
        <ele>1161.6</ele>
      </trkpt>
      <trkpt lat="45.16066" lon="5.61811">
        <ele>1157.6</ele>
      </trkpt>
      <trkpt lat="45.16079" lon="5.61808">
        <ele>1171.6</ele>
        <time>2021-04-23T10:09:07.000Z</time>
      </trkpt>
      <trkpt lat="45.16082" lon="5.61804">
        <ele>1171.6</ele>
        <time>2021-04-23T10:09:08.000Z</time>
      </trkpt>
      <trkpt lat="45.16086" lon="5.61803">
        <ele>1171</ele>
        <time>2021-04-23T10:09:09.000Z</time>
      </trkpt>
      <trkpt lat="45.1609" lon="5.61802">
        <ele>1170.6</ele>
        <time>2021-04-23T10:09:10.000Z</time>
      </trkpt>
      <trkpt lat="45.16093" lon="5.61803">
        <ele>1170.2</ele>
        <time>2021-04-23T10:09:11.000Z</time>
      </trkpt>
      <trkpt lat="45.16096" lon="5.61805">
        <ele>1170.2</ele>
        <time>2021-04-23T10:09:12.000Z</time>
      </trkpt>
      <trkpt lat="45.16101" lon="5.61806">
        <ele>1171</ele>
        <time>2021-04-23T10:09:13.000Z</time>
      </trkpt>
      <trkpt lat="45.16103" lon="5.61807">
        <ele>1171.4</ele>
        <time>2021-04-23T10:09:14.000Z</time>
      </trkpt>
      <trkpt lat="45.16106" lon="5.61807">
        <ele>1171.6</ele>
        <time>2021-04-23T10:09:15.000Z</time>
      </trkpt>
      <trkpt lat="45.16108" lon="5.61807">
        <ele>1171.8</ele>
        <time>2021-04-23T10:09:16.000Z</time>
      </trkpt>
      <trkpt lat="45.1611" lon="5.61808">
        <ele>1172</ele>
        <time>2021-04-23T10:09:17.000Z</time>
      </trkpt>
      <trkpt lat="45.16112" lon="5.61809">
        <ele>1172.2</ele>
        <time>2021-04-23T10:09:18.000Z</time>
      </trkpt>
      <trkpt lat="45.16125" lon="5.61812">
        <ele>1172.4</ele>
        <time>2021-04-23T10:09:23.000Z</time>
      </trkpt>
      <trkpt lat="45.16151" lon="5.61816">
        <ele>1172.2</ele>
        <time>2021-04-23T10:09:31.000Z</time>
      </trkpt>
      <trkpt lat="45.16179" lon="5.61818">
        <ele>1172.2</ele>
        <time>2021-04-23T10:09:39.000Z</time>
      </trkpt>
      <trkpt lat="45.16195" lon="5.6182">
        <ele>1172.2</ele>
        <time>2021-04-23T10:09:44.000Z</time>
      </trkpt>
      <trkpt lat="45.16203" lon="5.6182">
        <ele>1171.8</ele>
        <time>2021-04-23T10:09:46.000Z</time>
      </trkpt>
      <trkpt lat="45.16206" lon="5.6182">
        <ele>1171.8</ele>
        <time>2021-04-23T10:09:47.000Z</time>
      </trkpt>
      <trkpt lat="45.16208" lon="5.6182">
        <ele>1171.8</ele>
        <time>2021-04-23T10:09:48.000Z</time>
      </trkpt>
      <trkpt lat="45.16211" lon="5.61821">
        <ele>1171.8</ele>
        <time>2021-04-23T10:09:49.000Z</time>
      </trkpt>
      <trkpt lat="45.16214" lon="5.61822">
        <ele>1171.2</ele>
        <time>2021-04-23T10:09:50.000Z</time>
      </trkpt>
      <trkpt lat="45.16218" lon="5.61823">
        <ele>1171</ele>
        <time>2021-04-23T10:09:51.000Z</time>
      </trkpt>
      <trkpt lat="45.16221" lon="5.61824">
        <ele>1171</ele>
        <time>2021-04-23T10:09:52.000Z</time>
      </trkpt>
      <trkpt lat="45.16224" lon="5.61824">
        <ele>1170.8</ele>
        <time>2021-04-23T10:09:53.000Z</time>
      </trkpt>
      <trkpt lat="45.16227" lon="5.61824">
        <ele>1170.8</ele>
        <time>2021-04-23T10:09:54.000Z</time>
      </trkpt>
      <trkpt lat="45.16234" lon="5.61823">
        <ele>1171.4</ele>
        <time>2021-04-23T10:09:56.000Z</time>
      </trkpt>
      <trkpt lat="45.16244" lon="5.61821">
        <ele>1171.4</ele>
        <time>2021-04-23T10:10:00.000Z</time>
      </trkpt>
      <trkpt lat="45.16247" lon="5.6182">
        <ele>1171.4</ele>
        <time>2021-04-23T10:10:01.000Z</time>
      </trkpt>
      <trkpt lat="45.1625" lon="5.61819">
        <ele>1171.4</ele>
        <time>2021-04-23T10:10:02.000Z</time>
      </trkpt>
      <trkpt lat="45.16253" lon="5.61818">
        <ele>1171.4</ele>
        <time>2021-04-23T10:10:03.000Z</time>
      </trkpt>
      <trkpt lat="45.16255" lon="5.61818">
        <ele>1171.4</ele>
        <time>2021-04-23T10:10:04.000Z</time>
      </trkpt>
      <trkpt lat="45.16258" lon="5.61818">
        <ele>1171.4</ele>
        <time>2021-04-23T10:10:05.000Z</time>
      </trkpt>
      <trkpt lat="45.16261" lon="5.61818">
        <ele>1171.4</ele>
        <time>2021-04-23T10:10:06.000Z</time>
      </trkpt>
      <trkpt lat="45.16264" lon="5.61817">
        <ele>1171.2</ele>
        <time>2021-04-23T10:10:07.000Z</time>
      </trkpt>
      <trkpt lat="45.16267" lon="5.61817">
        <ele>1171</ele>
        <time>2021-04-23T10:10:08.000Z</time>
      </trkpt>
      <trkpt lat="45.1627" lon="5.61817">
        <ele>1170.6</ele>
        <time>2021-04-23T10:10:09.000Z</time>
      </trkpt>
      <trkpt lat="45.16276" lon="5.61815">
        <ele>1170.4</ele>
        <time>2021-04-23T10:10:11.000Z</time>
      </trkpt>
      <trkpt lat="45.16279" lon="5.61814">
        <ele>1170.2</ele>
        <time>2021-04-23T10:10:12.000Z</time>
      </trkpt>
      <trkpt lat="45.16292" lon="5.61815">
        <ele>1169.8</ele>
        <time>2021-04-23T10:10:16.000Z</time>
      </trkpt>
      <trkpt lat="45.16295" lon="5.61815">
        <ele>1169.8</ele>
        <time>2021-04-23T10:10:17.000Z</time>
      </trkpt>
      <trkpt lat="45.16297" lon="5.61816">
        <ele>1169.6</ele>
        <time>2021-04-23T10:10:18.000Z</time>
      </trkpt>
      <trkpt lat="45.16299" lon="5.61816">
        <ele>1169.6</ele>
        <time>2021-04-23T10:10:19.000Z</time>
      </trkpt>
      <trkpt lat="45.163" lon="5.61816">
        <ele>1169.6</ele>
        <time>2021-04-23T10:10:20.000Z</time>
      </trkpt>
      <trkpt lat="45.16302" lon="5.61816">
        <ele>1169.6</ele>
        <time>2021-04-23T10:10:21.000Z</time>
      </trkpt>
      <trkpt lat="45.16303" lon="5.61815">
        <ele>1169.4</ele>
        <time>2021-04-23T10:10:22.000Z</time>
      </trkpt>
      <trkpt lat="45.16305" lon="5.61814">
        <ele>1169.4</ele>
        <time>2021-04-23T10:10:23.000Z</time>
      </trkpt>
      <trkpt lat="45.16305" lon="5.61813">
        <ele>1169.2</ele>
        <time>2021-04-23T10:10:24.000Z</time>
      </trkpt>
      <trkpt lat="45.16305" lon="5.61813">
        <ele>1169</ele>
        <time>2021-04-23T10:10:25.000Z</time>
      </trkpt>
      <trkpt lat="45.16305" lon="5.61813">
        <ele>1168.8</ele>
        <time>2021-04-23T10:10:27.000Z</time>
      </trkpt>
      <trkpt lat="45.16305" lon="5.61813">
        <ele>1168.6</ele>
        <time>2021-04-23T10:10:28.000Z</time>
      </trkpt>
      <trkpt lat="45.16305" lon="5.61813">
        <ele>1168.6</ele>
        <time>2021-04-23T10:10:31.000Z</time>
      </trkpt>
      <trkpt lat="45.16305" lon="5.61813">
        <ele>1168.4</ele>
        <time>2021-04-23T10:10:36.000Z</time>
      </trkpt>
      <trkpt lat="45.16305" lon="5.61813">
        <ele>1168.2</ele>
        <time>2021-04-23T10:10:41.000Z</time>
      </trkpt>
      <trkpt lat="45.16305" lon="5.61813">
        <ele>1168.2</ele>
        <time>2021-04-23T10:10:44.000Z</time>
      </trkpt>
      <trkpt lat="45.16306" lon="5.61813">
        <ele>1168</ele>
        <time>2021-04-23T10:10:47.000Z</time>
      </trkpt>
      <trkpt lat="45.16308" lon="5.61811">
        <ele>1167.8</ele>
        <time>2021-04-23T10:10:48.000Z</time>
      </trkpt>
      <trkpt lat="45.16311" lon="5.61808">
        <ele>1167.8</ele>
        <time>2021-04-23T10:10:49.000Z</time>
      </trkpt>
      <trkpt lat="45.1632" lon="5.61798">
        <ele>1166.4</ele>
        <time>2021-04-23T10:10:52.000Z</time>
      </trkpt>
      <trkpt lat="45.16329" lon="5.61788">
        <ele>1164.4</ele>
        <time>2021-04-23T10:10:54.000Z</time>
      </trkpt>
      <trkpt lat="45.16337" lon="5.61782">
        <ele>1163.2</ele>
        <time>2021-04-23T10:10:56.000Z</time>
      </trkpt>
      <trkpt lat="45.16341" lon="5.61783">
        <ele>1162.8</ele>
        <time>2021-04-23T10:10:57.000Z</time>
      </trkpt>
      <trkpt lat="45.16343" lon="5.61786">
        <ele>1162.4</ele>
        <time>2021-04-23T10:10:58.000Z</time>
      </trkpt>
      <trkpt lat="45.16347" lon="5.61788">
        <ele>1161.2</ele>
        <time>2021-04-23T10:10:59.000Z</time>
      </trkpt>
      <trkpt lat="45.1635" lon="5.6179">
        <ele>1160.2</ele>
        <time>2021-04-23T10:11:00.000Z</time>
      </trkpt>
      <trkpt lat="45.16353" lon="5.61791">
        <ele>1159.8</ele>
        <time>2021-04-23T10:11:01.000Z</time>
      </trkpt>
      <trkpt lat="45.16355" lon="5.61792">
        <ele>1159.6</ele>
        <time>2021-04-23T10:11:02.000Z</time>
      </trkpt>
      <trkpt lat="45.16357" lon="5.61793">
        <ele>1159.4</ele>
        <time>2021-04-23T10:11:03.000Z</time>
      </trkpt>
      <trkpt lat="45.16357" lon="5.61793">
        <ele>1159.2</ele>
        <time>2021-04-23T10:11:04.000Z</time>
      </trkpt>
      <trkpt lat="45.16357" lon="5.61793">
        <ele>1158.8</ele>
        <time>2021-04-23T10:11:06.000Z</time>
      </trkpt>
      <trkpt lat="45.16359" lon="5.61793">
        <ele>1158.8</ele>
        <time>2021-04-23T10:11:07.000Z</time>
      </trkpt>
      <trkpt lat="45.16362" lon="5.61794">
        <ele>1158.8</ele>
        <time>2021-04-23T10:11:08.000Z</time>
      </trkpt>
      <trkpt lat="45.16367" lon="5.61793">
        <ele>1157.8</ele>
        <time>2021-04-23T10:11:10.000Z</time>
      </trkpt>
      <trkpt lat="45.16369" lon="5.61792">
        <ele>1157.4</ele>
        <time>2021-04-23T10:11:11.000Z</time>
      </trkpt>
      <trkpt lat="45.16372" lon="5.61791">
        <ele>1157.2</ele>
        <time>2021-04-23T10:11:12.000Z</time>
      </trkpt>
      <trkpt lat="45.16374" lon="5.6179">
        <ele>1157</ele>
        <time>2021-04-23T10:11:13.000Z</time>
      </trkpt>
      <trkpt lat="45.16376" lon="5.6179">
        <ele>1156.8</ele>
        <time>2021-04-23T10:11:14.000Z</time>
      </trkpt>
      <trkpt lat="45.16378" lon="5.61788">
        <ele>1156.6</ele>
        <time>2021-04-23T10:11:15.000Z</time>
      </trkpt>
      <trkpt lat="45.16383" lon="5.61788">
        <ele>1156.2</ele>
        <time>2021-04-23T10:11:17.000Z</time>
      </trkpt>
      <trkpt lat="45.16386" lon="5.61791">
        <ele>1156.2</ele>
        <time>2021-04-23T10:11:18.000Z</time>
      </trkpt>
      <trkpt lat="45.16391" lon="5.61797">
        <ele>1155.4</ele>
        <time>2021-04-23T10:11:20.000Z</time>
      </trkpt>
      <trkpt lat="45.16392" lon="5.61799">
        <ele>1154.6</ele>
        <time>2021-04-23T10:11:21.000Z</time>
      </trkpt>
      <trkpt lat="45.16394" lon="5.618">
        <ele>1153.8</ele>
        <time>2021-04-23T10:11:22.000Z</time>
      </trkpt>
      <trkpt lat="45.16397" lon="5.618">
        <ele>1153.2</ele>
        <time>2021-04-23T10:11:23.000Z</time>
      </trkpt>
      <trkpt lat="45.16399" lon="5.61801">
        <ele>1152.8</ele>
        <time>2021-04-23T10:11:24.000Z</time>
      </trkpt>
      <trkpt lat="45.16401" lon="5.61802">
        <ele>1152.4</ele>
        <time>2021-04-23T10:11:25.000Z</time>
      </trkpt>
      <trkpt lat="45.16403" lon="5.61811">
        <ele>1151</ele>
        <time>2021-04-23T10:11:27.000Z</time>
      </trkpt>
      <trkpt lat="45.16404" lon="5.61816">
        <ele>1150.6</ele>
        <time>2021-04-23T10:11:28.000Z</time>
      </trkpt>
      <trkpt lat="45.16406" lon="5.61819">
        <ele>1149.4</ele>
        <time>2021-04-23T10:11:29.000Z</time>
      </trkpt>
      <trkpt lat="45.16409" lon="5.61819">
        <ele>1148.6</ele>
        <time>2021-04-23T10:11:30.000Z</time>
      </trkpt>
      <trkpt lat="45.16409" lon="5.61819">
        <ele>1148</ele>
        <time>2021-04-23T10:11:31.000Z</time>
      </trkpt>
      <trkpt lat="45.1641" lon="5.61819">
        <ele>1147.4</ele>
        <time>2021-04-23T10:11:32.000Z</time>
      </trkpt>
      <trkpt lat="45.16411" lon="5.61819">
        <ele>1147.2</ele>
        <time>2021-04-23T10:11:33.000Z</time>
      </trkpt>
      <trkpt lat="45.16412" lon="5.61819">
        <ele>1147</ele>
        <time>2021-04-23T10:11:34.000Z</time>
      </trkpt>
      <trkpt lat="45.16413" lon="5.61817">
        <ele>1146.8</ele>
        <time>2021-04-23T10:11:35.000Z</time>
      </trkpt>
      <trkpt lat="45.16414" lon="5.61816">
        <ele>1146.2</ele>
        <time>2021-04-23T10:11:36.000Z</time>
      </trkpt>
      <trkpt lat="45.16415" lon="5.61816">
        <ele>1145.8</ele>
        <time>2021-04-23T10:11:37.000Z</time>
      </trkpt>
      <trkpt lat="45.16416" lon="5.61818">
        <ele>1145.4</ele>
        <time>2021-04-23T10:11:38.000Z</time>
      </trkpt>
      <trkpt lat="45.16419" lon="5.61822">
        <ele>1144.4</ele>
        <time>2021-04-23T10:11:40.000Z</time>
      </trkpt>
      <trkpt lat="45.16419" lon="5.61822">
        <ele>1144.2</ele>
        <time>2021-04-23T10:11:41.000Z</time>
      </trkpt>
      <trkpt lat="45.16422" lon="5.61819">
        <ele>1143</ele>
        <time>2021-04-23T10:11:44.000Z</time>
      </trkpt>
      <trkpt lat="45.16424" lon="5.61818">
        <ele>1142.6</ele>
        <time>2021-04-23T10:11:45.000Z</time>
      </trkpt>
      <trkpt lat="45.16426" lon="5.61818">
        <ele>1142.2</ele>
        <time>2021-04-23T10:11:46.000Z</time>
      </trkpt>
      <trkpt lat="45.16428" lon="5.61822">
        <ele>1141.4</ele>
        <time>2021-04-23T10:11:48.000Z</time>
      </trkpt>
      <trkpt lat="45.16428" lon="5.61824">
        <ele>1140.4</ele>
        <time>2021-04-23T10:11:49.000Z</time>
      </trkpt>
      <trkpt lat="45.16429" lon="5.61825">
        <ele>1139.6</ele>
        <time>2021-04-23T10:11:50.000Z</time>
      </trkpt>
      <trkpt lat="45.16431" lon="5.61824">
        <ele>1138.8</ele>
        <time>2021-04-23T10:11:51.000Z</time>
      </trkpt>
      <trkpt lat="45.16432" lon="5.61826">
        <ele>1138</ele>
        <time>2021-04-23T10:11:52.000Z</time>
      </trkpt>
      <trkpt lat="45.16434" lon="5.61827">
        <ele>1137.4</ele>
        <time>2021-04-23T10:11:53.000Z</time>
      </trkpt>
      <trkpt lat="45.16434" lon="5.6183">
        <ele>1136.8</ele>
        <time>2021-04-23T10:11:54.000Z</time>
      </trkpt>
      <trkpt lat="45.16433" lon="5.61832">
        <ele>1136.4</ele>
        <time>2021-04-23T10:11:55.000Z</time>
      </trkpt>
      <trkpt lat="45.16433" lon="5.61836">
        <ele>1136.2</ele>
        <time>2021-04-23T10:11:56.000Z</time>
      </trkpt>
      <trkpt lat="45.16432" lon="5.61839">
        <ele>1135.8</ele>
        <time>2021-04-23T10:11:57.000Z</time>
      </trkpt>
      <trkpt lat="45.16431" lon="5.61842">
        <ele>1134.6</ele>
        <time>2021-04-23T10:11:58.000Z</time>
      </trkpt>
      <trkpt lat="45.16429" lon="5.61846">
        <ele>1133.8</ele>
        <time>2021-04-23T10:11:59.000Z</time>
      </trkpt>
      <trkpt lat="45.16427" lon="5.61849">
        <ele>1133.2</ele>
        <time>2021-04-23T10:12:00.000Z</time>
      </trkpt>
      <trkpt lat="45.16426" lon="5.61853">
        <ele>1132.4</ele>
        <time>2021-04-23T10:12:01.000Z</time>
      </trkpt>
      <trkpt lat="45.16424" lon="5.61856">
        <ele>1131.6</ele>
        <time>2021-04-23T10:12:02.000Z</time>
      </trkpt>
      <trkpt lat="45.16422" lon="5.61859">
        <ele>1131</ele>
        <time>2021-04-23T10:12:03.000Z</time>
      </trkpt>
      <trkpt lat="45.16419" lon="5.61862">
        <ele>1130.4</ele>
        <time>2021-04-23T10:12:04.000Z</time>
      </trkpt>
      <trkpt lat="45.16413" lon="5.61871">
        <ele>1129.2</ele>
        <time>2021-04-23T10:12:06.000Z</time>
      </trkpt>
      <trkpt lat="45.16412" lon="5.61875">
        <ele>1129</ele>
        <time>2021-04-23T10:12:07.000Z</time>
      </trkpt>
      <trkpt lat="45.16409" lon="5.61879">
        <ele>1128.2</ele>
        <time>2021-04-23T10:12:08.000Z</time>
      </trkpt>
      <trkpt lat="45.16407" lon="5.61884">
        <ele>1127.4</ele>
        <time>2021-04-23T10:12:09.000Z</time>
      </trkpt>
      <trkpt lat="45.16406" lon="5.61887">
        <ele>1126.4</ele>
        <time>2021-04-23T10:12:10.000Z</time>
      </trkpt>
      <trkpt lat="45.16405" lon="5.61892">
        <ele>1125.6</ele>
        <time>2021-04-23T10:12:11.000Z</time>
      </trkpt>
      <trkpt lat="45.16405" lon="5.61897">
        <ele>1125</ele>
        <time>2021-04-23T10:12:12.000Z</time>
      </trkpt>
      <trkpt lat="45.16405" lon="5.61903">
        <ele>1123.6</ele>
        <time>2021-04-23T10:12:13.000Z</time>
      </trkpt>
      <trkpt lat="45.16402" lon="5.61912">
        <ele>1122.2</ele>
        <time>2021-04-23T10:12:15.000Z</time>
      </trkpt>
      <trkpt lat="45.16401" lon="5.61916">
        <ele>1121.4</ele>
        <time>2021-04-23T10:12:16.000Z</time>
      </trkpt>
      <trkpt lat="45.164" lon="5.6192">
        <ele>1120.6</ele>
        <time>2021-04-23T10:12:17.000Z</time>
      </trkpt>
      <trkpt lat="45.164" lon="5.61925">
        <ele>1120.2</ele>
        <time>2021-04-23T10:12:18.000Z</time>
      </trkpt>
      <trkpt lat="45.164" lon="5.6193">
        <ele>1119.2</ele>
        <time>2021-04-23T10:12:19.000Z</time>
      </trkpt>
      <trkpt lat="45.164" lon="5.61935">
        <ele>1118.6</ele>
        <time>2021-04-23T10:12:20.000Z</time>
      </trkpt>
      <trkpt lat="45.164" lon="5.61942">
        <ele>1118.2</ele>
        <time>2021-04-23T10:12:21.000Z</time>
      </trkpt>
      <trkpt lat="45.16397" lon="5.61955">
        <ele>1117.4</ele>
        <time>2021-04-23T10:12:23.000Z</time>
      </trkpt>
      <trkpt lat="45.16393" lon="5.6196">
        <ele>1116.6</ele>
        <time>2021-04-23T10:12:24.000Z</time>
      </trkpt>
      <trkpt lat="45.16386" lon="5.61967">
        <ele>1115.4</ele>
        <time>2021-04-23T10:12:26.000Z</time>
      </trkpt>
      <trkpt lat="45.16384" lon="5.61971">
        <ele>1115.2</ele>
        <time>2021-04-23T10:12:27.000Z</time>
      </trkpt>
      <trkpt lat="45.16384" lon="5.61974">
        <ele>1114.6</ele>
        <time>2021-04-23T10:12:28.000Z</time>
      </trkpt>
      <trkpt lat="45.16383" lon="5.61976">
        <ele>1113.8</ele>
        <time>2021-04-23T10:12:29.000Z</time>
      </trkpt>
      <trkpt lat="45.16383" lon="5.61979">
        <ele>1113</ele>
        <time>2021-04-23T10:12:30.000Z</time>
      </trkpt>
      <trkpt lat="45.16383" lon="5.61982">
        <ele>1112.4</ele>
        <time>2021-04-23T10:12:31.000Z</time>
      </trkpt>
      <trkpt lat="45.16382" lon="5.61985">
        <ele>1112.2</ele>
        <time>2021-04-23T10:12:32.000Z</time>
      </trkpt>
      <trkpt lat="45.16381" lon="5.61988">
        <ele>1112.2</ele>
        <time>2021-04-23T10:12:33.000Z</time>
      </trkpt>
      <trkpt lat="45.16381" lon="5.61996">
        <ele>1112.4</ele>
        <time>2021-04-23T10:12:36.000Z</time>
      </trkpt>
      <trkpt lat="45.16381" lon="5.61997">
        <ele>1112.4</ele>
        <time>2021-04-23T10:12:37.000Z</time>
      </trkpt>
      <trkpt lat="45.16382" lon="5.61997">
        <ele>1112.4</ele>
        <time>2021-04-23T10:12:38.000Z</time>
      </trkpt>
      <trkpt lat="45.16382" lon="5.61996">
        <ele>1112.4</ele>
        <time>2021-04-23T10:12:39.000Z</time>
      </trkpt>
      <trkpt lat="45.16383" lon="5.61995">
        <ele>1112.4</ele>
        <time>2021-04-23T10:12:40.000Z</time>
      </trkpt>
      <trkpt lat="45.16389" lon="5.61983">
        <ele>1112.8</ele>
        <time>2021-04-23T10:12:45.000Z</time>
      </trkpt>
      <trkpt lat="45.16396" lon="5.61979">
        <ele>1113.8</ele>
        <time>2021-04-23T10:12:49.000Z</time>
      </trkpt>
      <trkpt lat="45.16397" lon="5.61978">
        <ele>1114.2</ele>
        <time>2021-04-23T10:12:50.000Z</time>
      </trkpt>
      <trkpt lat="45.16398" lon="5.61977">
        <ele>1114.8</ele>
        <time>2021-04-23T10:12:51.000Z</time>
      </trkpt>
      <trkpt lat="45.16399" lon="5.61977">
        <ele>1115.2</ele>
        <time>2021-04-23T10:12:52.000Z</time>
      </trkpt>
      <trkpt lat="45.16399" lon="5.61977">
        <ele>1115.2</ele>
        <time>2021-04-23T10:12:53.000Z</time>
      </trkpt>
      <trkpt lat="45.16399" lon="5.61977">
        <ele>1115.4</ele>
        <time>2021-04-23T10:12:55.000Z</time>
      </trkpt>
      <trkpt lat="45.16401" lon="5.61975">
        <ele>1115.8</ele>
        <time>2021-04-23T10:12:57.000Z</time>
      </trkpt>
      <trkpt lat="45.1641" lon="5.61972">
        <ele>1116.2</ele>
        <time>2021-04-23T10:13:01.000Z</time>
      </trkpt>
      <trkpt lat="45.16413" lon="5.61974">
        <ele>1116.4</ele>
        <time>2021-04-23T10:13:02.000Z</time>
      </trkpt>
      <trkpt lat="45.16415" lon="5.61974">
        <ele>1117</ele>
        <time>2021-04-23T10:13:03.000Z</time>
      </trkpt>
      <trkpt lat="45.16418" lon="5.61974">
        <ele>1117.4</ele>
        <time>2021-04-23T10:13:04.000Z</time>
      </trkpt>
      <trkpt lat="45.16419" lon="5.61972">
        <ele>1117.8</ele>
        <time>2021-04-23T10:13:05.000Z</time>
      </trkpt>
      <trkpt lat="45.16422" lon="5.61971">
        <ele>1118.4</ele>
        <time>2021-04-23T10:13:06.000Z</time>
      </trkpt>
      <trkpt lat="45.16424" lon="5.61969">
        <ele>1118.6</ele>
        <time>2021-04-23T10:13:07.000Z</time>
      </trkpt>
      <trkpt lat="45.16426" lon="5.61968">
        <ele>1118.8</ele>
        <time>2021-04-23T10:13:08.000Z</time>
      </trkpt>
      <trkpt lat="45.16429" lon="5.61969">
        <ele>1119.2</ele>
        <time>2021-04-23T10:13:09.000Z</time>
      </trkpt>
      <trkpt lat="45.16431" lon="5.6197">
        <ele>1119.4</ele>
        <time>2021-04-23T10:13:10.000Z</time>
      </trkpt>
      <trkpt lat="45.16433" lon="5.61969">
        <ele>1119.6</ele>
        <time>2021-04-23T10:13:11.000Z</time>
      </trkpt>
      <trkpt lat="45.16435" lon="5.61969">
        <ele>1119.8</ele>
        <time>2021-04-23T10:13:12.000Z</time>
      </trkpt>
      <trkpt lat="45.16436" lon="5.61968">
        <ele>1120</ele>
        <time>2021-04-23T10:13:13.000Z</time>
      </trkpt>
      <trkpt lat="45.16438" lon="5.61967">
        <ele>1120.2</ele>
        <time>2021-04-23T10:13:14.000Z</time>
      </trkpt>
      <trkpt lat="45.1644" lon="5.61966">
        <ele>1120.2</ele>
        <time>2021-04-23T10:13:15.000Z</time>
      </trkpt>
      <trkpt lat="45.16442" lon="5.61965">
        <ele>1120.2</ele>
        <time>2021-04-23T10:13:16.000Z</time>
      </trkpt>
      <trkpt lat="45.16444" lon="5.61965">
        <ele>1120.4</ele>
        <time>2021-04-23T10:13:17.000Z</time>
      </trkpt>
      <trkpt lat="45.16446" lon="5.61964">
        <ele>1120.2</ele>
        <time>2021-04-23T10:13:18.000Z</time>
      </trkpt>
      <trkpt lat="45.16448" lon="5.61962">
        <ele>1120.2</ele>
        <time>2021-04-23T10:13:19.000Z</time>
      </trkpt>
      <trkpt lat="45.16451" lon="5.6196">
        <ele>1120.2</ele>
        <time>2021-04-23T10:13:20.000Z</time>
      </trkpt>
      <trkpt lat="45.16453" lon="5.61959">
        <ele>1120.2</ele>
        <time>2021-04-23T10:13:21.000Z</time>
      </trkpt>
      <trkpt lat="45.16455" lon="5.61958">
        <ele>1120.2</ele>
        <time>2021-04-23T10:13:22.000Z</time>
      </trkpt>
      <trkpt lat="45.16457" lon="5.61959">
        <ele>1120.2</ele>
        <time>2021-04-23T10:13:23.000Z</time>
      </trkpt>
      <trkpt lat="45.16459" lon="5.61959">
        <ele>1120.2</ele>
        <time>2021-04-23T10:13:24.000Z</time>
      </trkpt>
      <trkpt lat="45.16461" lon="5.61959">
        <ele>1120.4</ele>
        <time>2021-04-23T10:13:25.000Z</time>
      </trkpt>
      <trkpt lat="45.16463" lon="5.6196">
        <ele>1120.4</ele>
        <time>2021-04-23T10:13:26.000Z</time>
      </trkpt>
      <trkpt lat="45.16464" lon="5.61962">
        <ele>1120.6</ele>
        <time>2021-04-23T10:13:27.000Z</time>
      </trkpt>
      <trkpt lat="45.16466" lon="5.61963">
        <ele>1120.6</ele>
        <time>2021-04-23T10:13:28.000Z</time>
      </trkpt>
      <trkpt lat="45.16468" lon="5.61962">
        <ele>1120.6</ele>
        <time>2021-04-23T10:13:29.000Z</time>
      </trkpt>
      <trkpt lat="45.16471" lon="5.61963">
        <ele>1120.8</ele>
        <time>2021-04-23T10:13:30.000Z</time>
      </trkpt>
      <trkpt lat="45.16473" lon="5.61962">
        <ele>1121</ele>
        <time>2021-04-23T10:13:31.000Z</time>
      </trkpt>
      <trkpt lat="45.16474" lon="5.61962">
        <ele>1121.4</ele>
        <time>2021-04-23T10:13:32.000Z</time>
      </trkpt>
      <trkpt lat="45.16476" lon="5.61963">
        <ele>1121.6</ele>
        <time>2021-04-23T10:13:33.000Z</time>
      </trkpt>
      <trkpt lat="45.16478" lon="5.61965">
        <ele>1121.8</ele>
        <time>2021-04-23T10:13:34.000Z</time>
      </trkpt>
      <trkpt lat="45.16479" lon="5.61964">
        <ele>1121.8</ele>
        <time>2021-04-23T10:13:35.000Z</time>
      </trkpt>
      <trkpt lat="45.16482" lon="5.61964">
        <ele>1122</ele>
        <time>2021-04-23T10:13:36.000Z</time>
      </trkpt>
      <trkpt lat="45.16483" lon="5.61964">
        <ele>1122</ele>
        <time>2021-04-23T10:13:37.000Z</time>
      </trkpt>
      <trkpt lat="45.16485" lon="5.61965">
        <ele>1122.2</ele>
        <time>2021-04-23T10:13:38.000Z</time>
      </trkpt>
      <trkpt lat="45.16487" lon="5.61966">
        <ele>1122.2</ele>
        <time>2021-04-23T10:13:39.000Z</time>
      </trkpt>
      <trkpt lat="45.1649" lon="5.61967">
        <ele>1122.4</ele>
        <time>2021-04-23T10:13:40.000Z</time>
      </trkpt>
      <trkpt lat="45.16492" lon="5.61967">
        <ele>1122.6</ele>
        <time>2021-04-23T10:13:41.000Z</time>
      </trkpt>
      <trkpt lat="45.16493" lon="5.61968">
        <ele>1123.4</ele>
        <time>2021-04-23T10:13:42.000Z</time>
      </trkpt>
      <trkpt lat="45.16495" lon="5.61969">
        <ele>1123.8</ele>
        <time>2021-04-23T10:13:43.000Z</time>
      </trkpt>
      <trkpt lat="45.16495" lon="5.61971">
        <ele>1124</ele>
        <time>2021-04-23T10:13:44.000Z</time>
      </trkpt>
      <trkpt lat="45.16496" lon="5.61973">
        <ele>1124</ele>
        <time>2021-04-23T10:13:45.000Z</time>
      </trkpt>
      <trkpt lat="45.16497" lon="5.61974">
        <ele>1123.8</ele>
        <time>2021-04-23T10:13:46.000Z</time>
      </trkpt>
      <trkpt lat="45.16499" lon="5.61976">
        <ele>1123.6</ele>
        <time>2021-04-23T10:13:47.000Z</time>
      </trkpt>
      <trkpt lat="45.16501" lon="5.61977">
        <ele>1122.8</ele>
        <time>2021-04-23T10:13:48.000Z</time>
      </trkpt>
      <trkpt lat="45.16503" lon="5.61979">
        <ele>1122.4</ele>
        <time>2021-04-23T10:13:49.000Z</time>
      </trkpt>
      <trkpt lat="45.16504" lon="5.6198">
        <ele>1122.2</ele>
        <time>2021-04-23T10:13:50.000Z</time>
      </trkpt>
      <trkpt lat="45.16506" lon="5.61982">
        <ele>1122.2</ele>
        <time>2021-04-23T10:13:51.000Z</time>
      </trkpt>
      <trkpt lat="45.16508" lon="5.61983">
        <ele>1122.2</ele>
        <time>2021-04-23T10:13:52.000Z</time>
      </trkpt>
      <trkpt lat="45.16509" lon="5.61984">
        <ele>1122.4</ele>
        <time>2021-04-23T10:13:53.000Z</time>
      </trkpt>
      <trkpt lat="45.16511" lon="5.61984">
        <ele>1122.8</ele>
        <time>2021-04-23T10:13:54.000Z</time>
      </trkpt>
      <trkpt lat="45.16512" lon="5.61985">
        <ele>1123</ele>
        <time>2021-04-23T10:13:55.000Z</time>
      </trkpt>
      <trkpt lat="45.16515" lon="5.61986">
        <ele>1123.6</ele>
        <time>2021-04-23T10:13:57.000Z</time>
      </trkpt>
      <trkpt lat="45.16518" lon="5.61985">
        <ele>1123.8</ele>
        <time>2021-04-23T10:13:58.000Z</time>
      </trkpt>
      <trkpt lat="45.16519" lon="5.61985">
        <ele>1123.8</ele>
        <time>2021-04-23T10:13:59.000Z</time>
      </trkpt>
      <trkpt lat="45.16521" lon="5.61985">
        <ele>1124</ele>
        <time>2021-04-23T10:14:00.000Z</time>
      </trkpt>
      <trkpt lat="45.1653" lon="5.61986">
        <ele>1124.8</ele>
        <time>2021-04-23T10:14:05.000Z</time>
      </trkpt>
      <trkpt lat="45.16531" lon="5.61986">
        <ele>1124.8</ele>
        <time>2021-04-23T10:14:06.000Z</time>
      </trkpt>
      <trkpt lat="45.16533" lon="5.61987">
        <ele>1125</ele>
        <time>2021-04-23T10:14:07.000Z</time>
      </trkpt>
      <trkpt lat="45.16535" lon="5.61989">
        <ele>1125.2</ele>
        <time>2021-04-23T10:14:08.000Z</time>
      </trkpt>
      <trkpt lat="45.16537" lon="5.61989">
        <ele>1125.4</ele>
        <time>2021-04-23T10:14:09.000Z</time>
      </trkpt>
      <trkpt lat="45.16539" lon="5.61989">
        <ele>1125.4</ele>
        <time>2021-04-23T10:14:10.000Z</time>
      </trkpt>
      <trkpt lat="45.16539" lon="5.61989">
        <ele>1125.6</ele>
        <time>2021-04-23T10:14:11.000Z</time>
      </trkpt>
      <trkpt lat="45.16539" lon="5.61989">
        <ele>1125.4</ele>
        <time>2021-04-23T10:14:12.000Z</time>
      </trkpt>
      <trkpt lat="45.1654" lon="5.61988">
        <ele>1125.4</ele>
        <time>2021-04-23T10:14:13.000Z</time>
      </trkpt>
      <trkpt lat="45.16541" lon="5.61987">
        <ele>1125.4</ele>
        <time>2021-04-23T10:14:14.000Z</time>
      </trkpt>
      <trkpt lat="45.16543" lon="5.61986">
        <ele>1124.8</ele>
        <time>2021-04-23T10:14:15.000Z</time>
      </trkpt>
      <trkpt lat="45.16545" lon="5.61985">
        <ele>1124.4</ele>
        <time>2021-04-23T10:14:16.000Z</time>
      </trkpt>
      <trkpt lat="45.16548" lon="5.61983">
        <ele>1123.8</ele>
        <time>2021-04-23T10:14:17.000Z</time>
      </trkpt>
      <trkpt lat="45.16552" lon="5.61982">
        <ele>1123.4</ele>
        <time>2021-04-23T10:14:18.000Z</time>
      </trkpt>
      <trkpt lat="45.16555" lon="5.6198">
        <ele>1123</ele>
        <time>2021-04-23T10:14:19.000Z</time>
      </trkpt>
      <trkpt lat="45.16557" lon="5.61979">
        <ele>1123</ele>
        <time>2021-04-23T10:14:20.000Z</time>
      </trkpt>
      <trkpt lat="45.16559" lon="5.61979">
        <ele>1122.6</ele>
        <time>2021-04-23T10:14:21.000Z</time>
      </trkpt>
      <trkpt lat="45.16561" lon="5.61978">
        <ele>1122.8</ele>
        <time>2021-04-23T10:14:22.000Z</time>
      </trkpt>
      <trkpt lat="45.16563" lon="5.61977">
        <ele>1122.8</ele>
        <time>2021-04-23T10:14:24.000Z</time>
      </trkpt>
      <trkpt lat="45.16565" lon="5.61976">
        <ele>1122.8</ele>
        <time>2021-04-23T10:14:26.000Z</time>
      </trkpt>
      <trkpt lat="45.16566" lon="5.61974">
        <ele>1122.8</ele>
        <time>2021-04-23T10:14:27.000Z</time>
      </trkpt>
      <trkpt lat="45.16569" lon="5.61969">
        <ele>1122.8</ele>
        <time>2021-04-23T10:14:30.000Z</time>
      </trkpt>
      <trkpt lat="45.16571" lon="5.61969">
        <ele>1122.8</ele>
        <time>2021-04-23T10:14:31.000Z</time>
      </trkpt>
      <trkpt lat="45.16573" lon="5.61968">
        <ele>1122.8</ele>
        <time>2021-04-23T10:14:32.000Z</time>
      </trkpt>
      <trkpt lat="45.16574" lon="5.61967">
        <ele>1123</ele>
        <time>2021-04-23T10:14:33.000Z</time>
      </trkpt>
      <trkpt lat="45.16575" lon="5.61966">
        <ele>1123</ele>
        <time>2021-04-23T10:14:34.000Z</time>
      </trkpt>
      <trkpt lat="45.16575" lon="5.61966">
        <ele>1123</ele>
        <time>2021-04-23T10:14:35.000Z</time>
      </trkpt>
      <trkpt lat="45.16576" lon="5.61967">
        <ele>1123.2</ele>
        <time>2021-04-23T10:14:36.000Z</time>
      </trkpt>
      <trkpt lat="45.16577" lon="5.61967">
        <ele>1123.4</ele>
        <time>2021-04-23T10:14:37.000Z</time>
      </trkpt>
      <trkpt lat="45.16577" lon="5.61967">
        <ele>1123.6</ele>
        <time>2021-04-23T10:14:39.000Z</time>
      </trkpt>
      <trkpt lat="45.16577" lon="5.61967">
        <ele>1123.6</ele>
        <time>2021-04-23T10:14:43.000Z</time>
      </trkpt>
      <trkpt lat="45.16581" lon="5.61965">
        <ele>1123.4</ele>
        <time>2021-04-23T10:14:47.000Z</time>
      </trkpt>
      <trkpt lat="45.16583" lon="5.61964">
        <ele>1123.4</ele>
        <time>2021-04-23T10:14:48.000Z</time>
      </trkpt>
      <trkpt lat="45.16583" lon="5.61964">
        <ele>1123.6</ele>
        <time>2021-04-23T10:14:49.000Z</time>
      </trkpt>
      <trkpt lat="45.16583" lon="5.61964">
        <ele>1124.2</ele>
        <time>2021-04-23T10:14:52.000Z</time>
      </trkpt>
      <trkpt lat="45.16583" lon="5.61964">
        <ele>1124.4</ele>
        <time>2021-04-23T10:14:53.000Z</time>
      </trkpt>
      <trkpt lat="45.16585" lon="5.61961">
        <ele>1124.6</ele>
        <time>2021-04-23T10:14:55.000Z</time>
      </trkpt>
      <trkpt lat="45.16588" lon="5.61956">
        <ele>1124.8</ele>
        <time>2021-04-23T10:14:57.000Z</time>
      </trkpt>
      <trkpt lat="45.16589" lon="5.61955">
        <ele>1125</ele>
        <time>2021-04-23T10:14:58.000Z</time>
      </trkpt>
      <trkpt lat="45.16589" lon="5.61955">
        <ele>1125</ele>
        <time>2021-04-23T10:14:59.000Z</time>
      </trkpt>
      <trkpt lat="45.1659" lon="5.61955">
        <ele>1125</ele>
        <time>2021-04-23T10:15:00.000Z</time>
      </trkpt>
      <trkpt lat="45.1659" lon="5.61954">
        <ele>1125</ele>
        <time>2021-04-23T10:15:01.000Z</time>
      </trkpt>
      <trkpt lat="45.16591" lon="5.61953">
        <ele>1125</ele>
        <time>2021-04-23T10:15:02.000Z</time>
      </trkpt>
      <trkpt lat="45.16591" lon="5.61951">
        <ele>1125.4</ele>
        <time>2021-04-23T10:15:05.000Z</time>
      </trkpt>
      <trkpt lat="45.16591" lon="5.61951">
        <ele>1125.4</ele>
        <time>2021-04-23T10:15:07.000Z</time>
      </trkpt>
      <trkpt lat="45.16592" lon="5.6195">
        <ele>1125.4</ele>
        <time>2021-04-23T10:15:08.000Z</time>
      </trkpt>
      <trkpt lat="45.16595" lon="5.61945">
        <ele>1125.4</ele>
        <time>2021-04-23T10:15:10.000Z</time>
      </trkpt>
      <trkpt lat="45.16598" lon="5.6194">
        <ele>1125.6</ele>
        <time>2021-04-23T10:15:12.000Z</time>
      </trkpt>
      <trkpt lat="45.16599" lon="5.61937">
        <ele>1125.8</ele>
        <time>2021-04-23T10:15:13.000Z</time>
      </trkpt>
      <trkpt lat="45.166" lon="5.61934">
        <ele>1125.8</ele>
        <time>2021-04-23T10:15:14.000Z</time>
      </trkpt>
      <trkpt lat="45.16602" lon="5.61927">
        <ele>1126</ele>
        <time>2021-04-23T10:15:17.000Z</time>
      </trkpt>
      <trkpt lat="45.16603" lon="5.61925">
        <ele>1126</ele>
        <time>2021-04-23T10:15:18.000Z</time>
      </trkpt>
      <trkpt lat="45.16606" lon="5.61923">
        <ele>1126.4</ele>
        <time>2021-04-23T10:15:20.000Z</time>
      </trkpt>
      <trkpt lat="45.16607" lon="5.61922">
        <ele>1126.6</ele>
        <time>2021-04-23T10:15:21.000Z</time>
      </trkpt>
      <trkpt lat="45.16609" lon="5.61923">
        <ele>1127</ele>
        <time>2021-04-23T10:15:23.000Z</time>
      </trkpt>
      <trkpt lat="45.1661" lon="5.61924">
        <ele>1127</ele>
        <time>2021-04-23T10:15:24.000Z</time>
      </trkpt>
      <trkpt lat="45.16611" lon="5.61924">
        <ele>1127</ele>
        <time>2021-04-23T10:15:25.000Z</time>
      </trkpt>
      <trkpt lat="45.16613" lon="5.61924">
        <ele>1127.2</ele>
        <time>2021-04-23T10:15:26.000Z</time>
      </trkpt>
      <trkpt lat="45.16615" lon="5.61925">
        <ele>1127.2</ele>
        <time>2021-04-23T10:15:27.000Z</time>
      </trkpt>
      <trkpt lat="45.16616" lon="5.61926">
        <ele>1127.4</ele>
        <time>2021-04-23T10:15:28.000Z</time>
      </trkpt>
      <trkpt lat="45.16622" lon="5.61929">
        <ele>1127.6</ele>
        <time>2021-04-23T10:15:31.000Z</time>
      </trkpt>
      <trkpt lat="45.16624" lon="5.6193">
        <ele>1127.6</ele>
        <time>2021-04-23T10:15:32.000Z</time>
      </trkpt>
      <trkpt lat="45.16629" lon="5.61932">
        <ele>1127.6</ele>
        <time>2021-04-23T10:15:35.000Z</time>
      </trkpt>
      <trkpt lat="45.16631" lon="5.61933">
        <ele>1127.6</ele>
        <time>2021-04-23T10:15:36.000Z</time>
      </trkpt>
      <trkpt lat="45.16633" lon="5.61935">
        <ele>1127.6</ele>
        <time>2021-04-23T10:15:37.000Z</time>
      </trkpt>
      <trkpt lat="45.16634" lon="5.61938">
        <ele>1127.8</ele>
        <time>2021-04-23T10:15:38.000Z</time>
      </trkpt>
      <trkpt lat="45.16634" lon="5.61942">
        <ele>1128</ele>
        <time>2021-04-23T10:15:39.000Z</time>
      </trkpt>
      <trkpt lat="45.16635" lon="5.61945">
        <ele>1128</ele>
        <time>2021-04-23T10:15:40.000Z</time>
      </trkpt>
      <trkpt lat="45.16635" lon="5.61947">
        <ele>1128.4</ele>
        <time>2021-04-23T10:15:41.000Z</time>
      </trkpt>
      <trkpt lat="45.16635" lon="5.61948">
        <ele>1128.6</ele>
        <time>2021-04-23T10:15:42.000Z</time>
      </trkpt>
      <trkpt lat="45.16635" lon="5.61949">
        <ele>1129</ele>
        <time>2021-04-23T10:15:43.000Z</time>
      </trkpt>
      <trkpt lat="45.16635" lon="5.61949">
        <ele>1129.2</ele>
        <time>2021-04-23T10:15:44.000Z</time>
      </trkpt>
      <trkpt lat="45.16635" lon="5.61949">
        <ele>1129.2</ele>
        <time>2021-04-23T10:15:45.000Z</time>
      </trkpt>
      <trkpt lat="45.16635" lon="5.61949">
        <ele>1129.2</ele>
        <time>2021-04-23T10:15:49.000Z</time>
      </trkpt>
      <trkpt lat="45.16635" lon="5.61949">
        <ele>1129.2</ele>
        <time>2021-04-23T10:15:51.000Z</time>
      </trkpt>
      <trkpt lat="45.16635" lon="5.61949">
        <ele>1129.2</ele>
        <time>2021-04-23T10:15:54.000Z</time>
      </trkpt>
      <trkpt lat="45.16635" lon="5.61949">
        <ele>1129</ele>
        <time>2021-04-23T10:15:57.000Z</time>
      </trkpt>
      <trkpt lat="45.16635" lon="5.61949">
        <ele>1129</ele>
        <time>2021-04-23T10:16:01.000Z</time>
      </trkpt>
      <trkpt lat="45.16636" lon="5.61949">
        <ele>1128.8</ele>
        <time>2021-04-23T10:16:05.000Z</time>
      </trkpt>
      <trkpt lat="45.16638" lon="5.6195">
        <ele>1128.8</ele>
        <time>2021-04-23T10:16:06.000Z</time>
      </trkpt>
      <trkpt lat="45.16645" lon="5.61952">
        <ele>1128.2</ele>
        <time>2021-04-23T10:16:09.000Z</time>
      </trkpt>
      <trkpt lat="45.16648" lon="5.61953">
        <ele>1127.6</ele>
        <time>2021-04-23T10:16:10.000Z</time>
      </trkpt>
      <trkpt lat="45.16655" lon="5.61957">
        <ele>1126.2</ele>
        <time>2021-04-23T10:16:12.000Z</time>
      </trkpt>
      <trkpt lat="45.1666" lon="5.61961">
        <ele>1125</ele>
        <time>2021-04-23T10:16:13.000Z</time>
      </trkpt>
      <trkpt lat="45.16671" lon="5.6197">
        <ele>1124.2</ele>
        <time>2021-04-23T10:16:15.000Z</time>
      </trkpt>
      <trkpt lat="45.16675" lon="5.61974">
        <ele>1124</ele>
        <time>2021-04-23T10:16:16.000Z</time>
      </trkpt>
      <trkpt lat="45.16677" lon="5.61979">
        <ele>1123.8</ele>
        <time>2021-04-23T10:16:17.000Z</time>
      </trkpt>
      <trkpt lat="45.16679" lon="5.61984">
        <ele>1123.8</ele>
        <time>2021-04-23T10:16:18.000Z</time>
      </trkpt>
      <trkpt lat="45.16681" lon="5.61989">
        <ele>1124</ele>
        <time>2021-04-23T10:16:19.000Z</time>
      </trkpt>
      <trkpt lat="45.16682" lon="5.61995">
        <ele>1124</ele>
        <time>2021-04-23T10:16:20.000Z</time>
      </trkpt>
      <trkpt lat="45.16683" lon="5.62001">
        <ele>1124.4</ele>
        <time>2021-04-23T10:16:21.000Z</time>
      </trkpt>
      <trkpt lat="45.16684" lon="5.62006">
        <ele>1124.8</ele>
        <time>2021-04-23T10:16:22.000Z</time>
      </trkpt>
      <trkpt lat="45.16686" lon="5.6201">
        <ele>1125.4</ele>
        <time>2021-04-23T10:16:23.000Z</time>
      </trkpt>
      <trkpt lat="45.16687" lon="5.62014">
        <ele>1126</ele>
        <time>2021-04-23T10:16:24.000Z</time>
      </trkpt>
      <trkpt lat="45.16689" lon="5.62016">
        <ele>1126.6</ele>
        <time>2021-04-23T10:16:25.000Z</time>
      </trkpt>
      <trkpt lat="45.1669" lon="5.62018">
        <ele>1126.8</ele>
        <time>2021-04-23T10:16:26.000Z</time>
      </trkpt>
      <trkpt lat="45.16691" lon="5.6202">
        <ele>1127</ele>
        <time>2021-04-23T10:16:27.000Z</time>
      </trkpt>
      <trkpt lat="45.16691" lon="5.62022">
        <ele>1127.2</ele>
        <time>2021-04-23T10:16:28.000Z</time>
      </trkpt>
      <trkpt lat="45.16692" lon="5.62024">
        <ele>1127.2</ele>
        <time>2021-04-23T10:16:29.000Z</time>
      </trkpt>
      <trkpt lat="45.16693" lon="5.62025">
        <ele>1127.4</ele>
        <time>2021-04-23T10:16:30.000Z</time>
      </trkpt>
      <trkpt lat="45.16695" lon="5.62026">
        <ele>1127.4</ele>
        <time>2021-04-23T10:16:31.000Z</time>
      </trkpt>
      <trkpt lat="45.16698" lon="5.62028">
        <ele>1127.6</ele>
        <time>2021-04-23T10:16:32.000Z</time>
      </trkpt>
      <trkpt lat="45.167" lon="5.62032">
        <ele>1127.8</ele>
        <time>2021-04-23T10:16:33.000Z</time>
      </trkpt>
      <trkpt lat="45.16704" lon="5.62039">
        <ele>1128</ele>
        <time>2021-04-23T10:16:35.000Z</time>
      </trkpt>
      <trkpt lat="45.16706" lon="5.6204">
        <ele>1128</ele>
        <time>2021-04-23T10:16:36.000Z</time>
      </trkpt>
      <trkpt lat="45.16707" lon="5.62042">
        <ele>1128.2</ele>
        <time>2021-04-23T10:16:37.000Z</time>
      </trkpt>
      <trkpt lat="45.16709" lon="5.62043">
        <ele>1128.4</ele>
        <time>2021-04-23T10:16:38.000Z</time>
      </trkpt>
      <trkpt lat="45.1671" lon="5.62045">
        <ele>1128.6</ele>
        <time>2021-04-23T10:16:39.000Z</time>
      </trkpt>
      <trkpt lat="45.16712" lon="5.62045">
        <ele>1128.8</ele>
        <time>2021-04-23T10:16:40.000Z</time>
      </trkpt>
      <trkpt lat="45.16713" lon="5.62045">
        <ele>1129</ele>
        <time>2021-04-23T10:16:41.000Z</time>
      </trkpt>
      <trkpt lat="45.16714" lon="5.62045">
        <ele>1129.2</ele>
        <time>2021-04-23T10:16:42.000Z</time>
      </trkpt>
      <trkpt lat="45.16715" lon="5.62044">
        <ele>1129.4</ele>
        <time>2021-04-23T10:16:43.000Z</time>
      </trkpt>
      <trkpt lat="45.16716" lon="5.62044">
        <ele>1129.6</ele>
        <time>2021-04-23T10:16:44.000Z</time>
      </trkpt>
      <trkpt lat="45.16717" lon="5.62043">
        <ele>1129.6</ele>
        <time>2021-04-23T10:16:45.000Z</time>
      </trkpt>
      <trkpt lat="45.16718" lon="5.62041">
        <ele>1129.8</ele>
        <time>2021-04-23T10:16:46.000Z</time>
      </trkpt>
      <trkpt lat="45.16719" lon="5.6204">
        <ele>1130.2</ele>
        <time>2021-04-23T10:16:47.000Z</time>
      </trkpt>
      <trkpt lat="45.16721" lon="5.62038">
        <ele>1130.4</ele>
        <time>2021-04-23T10:16:48.000Z</time>
      </trkpt>
      <trkpt lat="45.16723" lon="5.62037">
        <ele>1130.8</ele>
        <time>2021-04-23T10:16:49.000Z</time>
      </trkpt>
      <trkpt lat="45.16724" lon="5.62037">
        <ele>1131.4</ele>
        <time>2021-04-23T10:16:50.000Z</time>
      </trkpt>
      <trkpt lat="45.16726" lon="5.62036">
        <ele>1131.6</ele>
        <time>2021-04-23T10:16:51.000Z</time>
      </trkpt>
      <trkpt lat="45.16726" lon="5.62035">
        <ele>1131.8</ele>
        <time>2021-04-23T10:16:52.000Z</time>
      </trkpt>
      <trkpt lat="45.16727" lon="5.62034">
        <ele>1132.6</ele>
        <time>2021-04-23T10:16:53.000Z</time>
      </trkpt>
      <trkpt lat="45.16728" lon="5.62032">
        <ele>1133.6</ele>
        <time>2021-04-23T10:16:54.000Z</time>
      </trkpt>
      <trkpt lat="45.16729" lon="5.62031">
        <ele>1134</ele>
        <time>2021-04-23T10:16:55.000Z</time>
      </trkpt>
      <trkpt lat="45.1673" lon="5.62029">
        <ele>1134.2</ele>
        <time>2021-04-23T10:16:56.000Z</time>
      </trkpt>
      <trkpt lat="45.1673" lon="5.62028">
        <ele>1134.6</ele>
        <time>2021-04-23T10:16:57.000Z</time>
      </trkpt>
      <trkpt lat="45.16731" lon="5.62026">
        <ele>1134.8</ele>
        <time>2021-04-23T10:16:58.000Z</time>
      </trkpt>
      <trkpt lat="45.16731" lon="5.62023">
        <ele>1135.2</ele>
        <time>2021-04-23T10:16:59.000Z</time>
      </trkpt>
      <trkpt lat="45.16732" lon="5.62022">
        <ele>1135.4</ele>
        <time>2021-04-23T10:17:00.000Z</time>
      </trkpt>
      <trkpt lat="45.16732" lon="5.6202">
        <ele>1135.6</ele>
        <time>2021-04-23T10:17:01.000Z</time>
      </trkpt>
      <trkpt lat="45.16733" lon="5.62018">
        <ele>1135.8</ele>
        <time>2021-04-23T10:17:02.000Z</time>
      </trkpt>
      <trkpt lat="45.16733" lon="5.62016">
        <ele>1136.2</ele>
        <time>2021-04-23T10:17:03.000Z</time>
      </trkpt>
      <trkpt lat="45.16734" lon="5.62015">
        <ele>1136.6</ele>
        <time>2021-04-23T10:17:04.000Z</time>
      </trkpt>
      <trkpt lat="45.16734" lon="5.62015">
        <ele>1136.8</ele>
        <time>2021-04-23T10:17:05.000Z</time>
      </trkpt>
      <trkpt lat="45.16735" lon="5.62014">
        <ele>1136.8</ele>
        <time>2021-04-23T10:17:06.000Z</time>
      </trkpt>
      <trkpt lat="45.16736" lon="5.62013">
        <ele>1137</ele>
        <time>2021-04-23T10:17:07.000Z</time>
      </trkpt>
      <trkpt lat="45.16736" lon="5.62011">
        <ele>1137.2</ele>
        <time>2021-04-23T10:17:08.000Z</time>
      </trkpt>
      <trkpt lat="45.16736" lon="5.6201">
        <ele>1137.2</ele>
        <time>2021-04-23T10:17:09.000Z</time>
      </trkpt>
      <trkpt lat="45.16737" lon="5.62008">
        <ele>1137.2</ele>
        <time>2021-04-23T10:17:10.000Z</time>
      </trkpt>
      <trkpt lat="45.16736" lon="5.62007">
        <ele>1137.4</ele>
        <time>2021-04-23T10:17:11.000Z</time>
      </trkpt>
      <trkpt lat="45.16736" lon="5.62004">
        <ele>1137.4</ele>
        <time>2021-04-23T10:17:12.000Z</time>
      </trkpt>
      <trkpt lat="45.16736" lon="5.62001">
        <ele>1137.4</ele>
        <time>2021-04-23T10:17:13.000Z</time>
      </trkpt>
      <trkpt lat="45.16735" lon="5.61999">
        <ele>1137.4</ele>
        <time>2021-04-23T10:17:14.000Z</time>
      </trkpt>
      <trkpt lat="45.16735" lon="5.61997">
        <ele>1137.4</ele>
        <time>2021-04-23T10:17:15.000Z</time>
      </trkpt>
      <trkpt lat="45.16734" lon="5.61995">
        <ele>1137.4</ele>
        <time>2021-04-23T10:17:16.000Z</time>
      </trkpt>
      <trkpt lat="45.16735" lon="5.61993">
        <ele>1137.6</ele>
        <time>2021-04-23T10:17:17.000Z</time>
      </trkpt>
      <trkpt lat="45.16735" lon="5.6199">
        <ele>1137.6</ele>
        <time>2021-04-23T10:17:18.000Z</time>
      </trkpt>
      <trkpt lat="45.16735" lon="5.61987">
        <ele>1137.8</ele>
        <time>2021-04-23T10:17:19.000Z</time>
      </trkpt>
      <trkpt lat="45.16736" lon="5.61985">
        <ele>1137.8</ele>
        <time>2021-04-23T10:17:20.000Z</time>
      </trkpt>
      <trkpt lat="45.16736" lon="5.61983">
        <ele>1138</ele>
        <time>2021-04-23T10:17:21.000Z</time>
      </trkpt>
      <trkpt lat="45.16737" lon="5.61981">
        <ele>1138.2</ele>
        <time>2021-04-23T10:17:22.000Z</time>
      </trkpt>
      <trkpt lat="45.16738" lon="5.61979">
        <ele>1138.2</ele>
        <time>2021-04-23T10:17:23.000Z</time>
      </trkpt>
      <trkpt lat="45.16738" lon="5.61976">
        <ele>1138.4</ele>
        <time>2021-04-23T10:17:24.000Z</time>
      </trkpt>
      <trkpt lat="45.1674" lon="5.61974">
        <ele>1138.6</ele>
        <time>2021-04-23T10:17:25.000Z</time>
      </trkpt>
      <trkpt lat="45.16741" lon="5.61973">
        <ele>1138.6</ele>
        <time>2021-04-23T10:17:26.000Z</time>
      </trkpt>
      <trkpt lat="45.16742" lon="5.61972">
        <ele>1139.2</ele>
        <time>2021-04-23T10:17:27.000Z</time>
      </trkpt>
      <trkpt lat="45.16744" lon="5.61973">
        <ele>1139.4</ele>
        <time>2021-04-23T10:17:28.000Z</time>
      </trkpt>
      <trkpt lat="45.16745" lon="5.61974">
        <ele>1140</ele>
        <time>2021-04-23T10:17:29.000Z</time>
      </trkpt>
      <trkpt lat="45.16745" lon="5.61975">
        <ele>1140.2</ele>
        <time>2021-04-23T10:17:30.000Z</time>
      </trkpt>
      <trkpt lat="45.16746" lon="5.61977">
        <ele>1140.4</ele>
        <time>2021-04-23T10:17:31.000Z</time>
      </trkpt>
      <trkpt lat="45.16748" lon="5.61978">
        <ele>1140.6</ele>
        <time>2021-04-23T10:17:32.000Z</time>
      </trkpt>
      <trkpt lat="45.16749" lon="5.61979">
        <ele>1140.6</ele>
        <time>2021-04-23T10:17:33.000Z</time>
      </trkpt>
      <trkpt lat="45.16751" lon="5.6198">
        <ele>1140.8</ele>
        <time>2021-04-23T10:17:34.000Z</time>
      </trkpt>
      <trkpt lat="45.16752" lon="5.61982">
        <ele>1141</ele>
        <time>2021-04-23T10:17:35.000Z</time>
      </trkpt>
      <trkpt lat="45.16753" lon="5.61984">
        <ele>1141</ele>
        <time>2021-04-23T10:17:36.000Z</time>
      </trkpt>
      <trkpt lat="45.16754" lon="5.61985">
        <ele>1141.2</ele>
        <time>2021-04-23T10:17:37.000Z</time>
      </trkpt>
      <trkpt lat="45.16755" lon="5.61987">
        <ele>1141.4</ele>
        <time>2021-04-23T10:17:38.000Z</time>
      </trkpt>
      <trkpt lat="45.16756" lon="5.61989">
        <ele>1141.4</ele>
        <time>2021-04-23T10:17:39.000Z</time>
      </trkpt>
      <trkpt lat="45.16757" lon="5.6199">
        <ele>1141.6</ele>
        <time>2021-04-23T10:17:40.000Z</time>
      </trkpt>
      <trkpt lat="45.16759" lon="5.61991">
        <ele>1141.8</ele>
        <time>2021-04-23T10:17:41.000Z</time>
      </trkpt>
      <trkpt lat="45.1676" lon="5.61992">
        <ele>1142</ele>
        <time>2021-04-23T10:17:42.000Z</time>
      </trkpt>
      <trkpt lat="45.16762" lon="5.61993">
        <ele>1142</ele>
        <time>2021-04-23T10:17:43.000Z</time>
      </trkpt>
      <trkpt lat="45.16763" lon="5.61993">
        <ele>1142.2</ele>
        <time>2021-04-23T10:17:44.000Z</time>
      </trkpt>
      <trkpt lat="45.16765" lon="5.61994">
        <ele>1142.4</ele>
        <time>2021-04-23T10:17:45.000Z</time>
      </trkpt>
      <trkpt lat="45.16767" lon="5.61995">
        <ele>1142.6</ele>
        <time>2021-04-23T10:17:46.000Z</time>
      </trkpt>
      <trkpt lat="45.16769" lon="5.61995">
        <ele>1142.8</ele>
        <time>2021-04-23T10:17:47.000Z</time>
      </trkpt>
      <trkpt lat="45.16771" lon="5.61995">
        <ele>1142.8</ele>
        <time>2021-04-23T10:17:48.000Z</time>
      </trkpt>
      <trkpt lat="45.16773" lon="5.61996">
        <ele>1143</ele>
        <time>2021-04-23T10:17:49.000Z</time>
      </trkpt>
      <trkpt lat="45.16774" lon="5.61996">
        <ele>1143.2</ele>
        <time>2021-04-23T10:17:50.000Z</time>
      </trkpt>
      <trkpt lat="45.16776" lon="5.61997">
        <ele>1143.4</ele>
        <time>2021-04-23T10:17:51.000Z</time>
      </trkpt>
      <trkpt lat="45.16777" lon="5.61998">
        <ele>1143.6</ele>
        <time>2021-04-23T10:17:52.000Z</time>
      </trkpt>
      <trkpt lat="45.16779" lon="5.61999">
        <ele>1143.6</ele>
        <time>2021-04-23T10:17:53.000Z</time>
      </trkpt>
      <trkpt lat="45.16781" lon="5.61999">
        <ele>1143.6</ele>
        <time>2021-04-23T10:17:54.000Z</time>
      </trkpt>
      <trkpt lat="45.16782" lon="5.61999">
        <ele>1144</ele>
        <time>2021-04-23T10:17:55.000Z</time>
      </trkpt>
      <trkpt lat="45.16784" lon="5.61999">
        <ele>1144</ele>
        <time>2021-04-23T10:17:56.000Z</time>
      </trkpt>
      <trkpt lat="45.16785" lon="5.61997">
        <ele>1144.2</ele>
        <time>2021-04-23T10:17:57.000Z</time>
      </trkpt>
      <trkpt lat="45.16786" lon="5.61996">
        <ele>1144.4</ele>
        <time>2021-04-23T10:17:58.000Z</time>
      </trkpt>
      <trkpt lat="45.16787" lon="5.61995">
        <ele>1144.8</ele>
        <time>2021-04-23T10:17:59.000Z</time>
      </trkpt>
      <trkpt lat="45.16789" lon="5.61994">
        <ele>1145</ele>
        <time>2021-04-23T10:18:00.000Z</time>
      </trkpt>
      <trkpt lat="45.1679" lon="5.61992">
        <ele>1145.2</ele>
        <time>2021-04-23T10:18:01.000Z</time>
      </trkpt>
      <trkpt lat="45.16792" lon="5.61991">
        <ele>1145.4</ele>
        <time>2021-04-23T10:18:02.000Z</time>
      </trkpt>
      <trkpt lat="45.16793" lon="5.6199">
        <ele>1145.6</ele>
        <time>2021-04-23T10:18:03.000Z</time>
      </trkpt>
      <trkpt lat="45.16795" lon="5.6199">
        <ele>1145.8</ele>
        <time>2021-04-23T10:18:04.000Z</time>
      </trkpt>
      <trkpt lat="45.16797" lon="5.6199">
        <ele>1146</ele>
        <time>2021-04-23T10:18:05.000Z</time>
      </trkpt>
      <trkpt lat="45.16798" lon="5.61989">
        <ele>1146.2</ele>
        <time>2021-04-23T10:18:06.000Z</time>
      </trkpt>
      <trkpt lat="45.168" lon="5.6199">
        <ele>1146.4</ele>
        <time>2021-04-23T10:18:07.000Z</time>
      </trkpt>
      <trkpt lat="45.16801" lon="5.61991">
        <ele>1146.4</ele>
        <time>2021-04-23T10:18:08.000Z</time>
      </trkpt>
      <trkpt lat="45.16802" lon="5.61992">
        <ele>1146.6</ele>
        <time>2021-04-23T10:18:09.000Z</time>
      </trkpt>
      <trkpt lat="45.16804" lon="5.61993">
        <ele>1146.8</ele>
        <time>2021-04-23T10:18:10.000Z</time>
      </trkpt>
      <trkpt lat="45.16806" lon="5.61995">
        <ele>1146.8</ele>
        <time>2021-04-23T10:18:11.000Z</time>
      </trkpt>
      <trkpt lat="45.16808" lon="5.61996">
        <ele>1146.8</ele>
        <time>2021-04-23T10:18:12.000Z</time>
      </trkpt>
      <trkpt lat="45.16809" lon="5.61998">
        <ele>1146.8</ele>
        <time>2021-04-23T10:18:13.000Z</time>
      </trkpt>
      <trkpt lat="45.16811" lon="5.61999">
        <ele>1146.8</ele>
        <time>2021-04-23T10:18:14.000Z</time>
      </trkpt>
      <trkpt lat="45.16813" lon="5.62001">
        <ele>1147</ele>
        <time>2021-04-23T10:18:15.000Z</time>
      </trkpt>
      <trkpt lat="45.16815" lon="5.62002">
        <ele>1147</ele>
        <time>2021-04-23T10:18:16.000Z</time>
      </trkpt>
      <trkpt lat="45.16817" lon="5.62003">
        <ele>1147</ele>
        <time>2021-04-23T10:18:17.000Z</time>
      </trkpt>
      <trkpt lat="45.16819" lon="5.62003">
        <ele>1147</ele>
        <time>2021-04-23T10:18:18.000Z</time>
      </trkpt>
      <trkpt lat="45.16821" lon="5.62004">
        <ele>1147</ele>
        <time>2021-04-23T10:18:19.000Z</time>
      </trkpt>
      <trkpt lat="45.16823" lon="5.62006">
        <ele>1147</ele>
        <time>2021-04-23T10:18:20.000Z</time>
      </trkpt>
      <trkpt lat="45.16825" lon="5.62007">
        <ele>1147</ele>
        <time>2021-04-23T10:18:21.000Z</time>
      </trkpt>
      <trkpt lat="45.16826" lon="5.62008">
        <ele>1147.2</ele>
        <time>2021-04-23T10:18:22.000Z</time>
      </trkpt>
      <trkpt lat="45.16828" lon="5.62009">
        <ele>1147.2</ele>
        <time>2021-04-23T10:18:23.000Z</time>
      </trkpt>
      <trkpt lat="45.16829" lon="5.62011">
        <ele>1147.2</ele>
        <time>2021-04-23T10:18:24.000Z</time>
      </trkpt>
      <trkpt lat="45.16831" lon="5.62014">
        <ele>1147.2</ele>
        <time>2021-04-23T10:18:25.000Z</time>
      </trkpt>
      <trkpt lat="45.16833" lon="5.62017">
        <ele>1147</ele>
        <time>2021-04-23T10:18:26.000Z</time>
      </trkpt>
      <trkpt lat="45.16844" lon="5.62031">
        <ele>1146.8</ele>
        <time>2021-04-23T10:18:32.000Z</time>
      </trkpt>
      <trkpt lat="45.16853" lon="5.62038">
        <ele>1146.8</ele>
        <time>2021-04-23T10:18:36.000Z</time>
      </trkpt>
      <trkpt lat="45.16856" lon="5.6204">
        <ele>1146.6</ele>
        <time>2021-04-23T10:18:37.000Z</time>
      </trkpt>
      <trkpt lat="45.16861" lon="5.62043">
        <ele>1146.4</ele>
        <time>2021-04-23T10:18:39.000Z</time>
      </trkpt>
      <trkpt lat="45.16866" lon="5.62045">
        <ele>1146</ele>
        <time>2021-04-23T10:18:41.000Z</time>
      </trkpt>
      <trkpt lat="45.16879" lon="5.62053">
        <ele>1145.4</ele>
        <time>2021-04-23T10:18:45.000Z</time>
      </trkpt>
      <trkpt lat="45.16882" lon="5.62055">
        <ele>1145.2</ele>
        <time>2021-04-23T10:18:46.000Z</time>
      </trkpt>
      <trkpt lat="45.1689" lon="5.62061">
        <ele>1145</ele>
        <time>2021-04-23T10:18:48.000Z</time>
      </trkpt>
      <trkpt lat="45.16902" lon="5.62068">
        <ele>1144.2</ele>
        <time>2021-04-23T10:18:51.000Z</time>
      </trkpt>
      <trkpt lat="45.16914" lon="5.62075">
        <ele>1143.4</ele>
        <time>2021-04-23T10:18:54.000Z</time>
      </trkpt>
      <trkpt lat="45.16918" lon="5.62079">
        <ele>1143</ele>
        <time>2021-04-23T10:18:55.000Z</time>
      </trkpt>
      <trkpt lat="45.16927" lon="5.62086">
        <ele>1141.8</ele>
        <time>2021-04-23T10:18:57.000Z</time>
      </trkpt>
      <trkpt lat="45.16932" lon="5.62089">
        <ele>1141.2</ele>
        <time>2021-04-23T10:18:58.000Z</time>
      </trkpt>
      <trkpt lat="45.16939" lon="5.62092">
        <ele>1140.6</ele>
        <time>2021-04-23T10:18:59.000Z</time>
      </trkpt>
      <trkpt lat="45.16951" lon="5.62098">
        <ele>1138.6</ele>
        <time>2021-04-23T10:19:01.000Z</time>
      </trkpt>
      <trkpt lat="45.16957" lon="5.62102">
        <ele>1137.2</ele>
        <time>2021-04-23T10:19:02.000Z</time>
      </trkpt>
      <trkpt lat="45.16966" lon="5.62108">
        <ele>1135.6</ele>
        <time>2021-04-23T10:19:03.000Z</time>
      </trkpt>
      <trkpt lat="45.16975" lon="5.62113">
        <ele>1134.4</ele>
        <time>2021-04-23T10:19:04.000Z</time>
      </trkpt>
      <trkpt lat="45.16996" lon="5.62127">
        <ele>1133.2</ele>
        <time>2021-04-23T10:19:07.000Z</time>
      </trkpt>
      <trkpt lat="45.17001" lon="5.62131">
        <ele>1133.6</ele>
        <time>2021-04-23T10:19:08.000Z</time>
      </trkpt>
      <trkpt lat="45.17004" lon="5.62134">
        <ele>1135.4</ele>
        <time>2021-04-23T10:19:09.000Z</time>
      </trkpt>
      <trkpt lat="45.17007" lon="5.62135">
        <ele>1136.6</ele>
        <time>2021-04-23T10:19:10.000Z</time>
      </trkpt>
      <trkpt lat="45.17009" lon="5.62135">
        <ele>1137.8</ele>
        <time>2021-04-23T10:19:11.000Z</time>
      </trkpt>
      <trkpt lat="45.17011" lon="5.62135">
        <ele>1139</ele>
        <time>2021-04-23T10:19:12.000Z</time>
      </trkpt>
      <trkpt lat="45.17013" lon="5.62136">
        <ele>1139.6</ele>
        <time>2021-04-23T10:19:13.000Z</time>
      </trkpt>
      <trkpt lat="45.17015" lon="5.62137">
        <ele>1140.2</ele>
        <time>2021-04-23T10:19:14.000Z</time>
      </trkpt>
      <trkpt lat="45.17019" lon="5.62139">
        <ele>1141.4</ele>
        <time>2021-04-23T10:19:16.000Z</time>
      </trkpt>
      <trkpt lat="45.17021" lon="5.62139">
        <ele>1141.8</ele>
        <time>2021-04-23T10:19:17.000Z</time>
      </trkpt>
      <trkpt lat="45.17023" lon="5.6214">
        <ele>1142</ele>
        <time>2021-04-23T10:19:18.000Z</time>
      </trkpt>
      <trkpt lat="45.17033" lon="5.62142">
        <ele>1142.6</ele>
        <time>2021-04-23T10:19:22.000Z</time>
      </trkpt>
      <trkpt lat="45.17037" lon="5.62144">
        <ele>1143</ele>
        <time>2021-04-23T10:19:24.000Z</time>
      </trkpt>
      <trkpt lat="45.17038" lon="5.62144">
        <ele>1143.2</ele>
        <time>2021-04-23T10:19:25.000Z</time>
      </trkpt>
      <trkpt lat="45.17041" lon="5.62145">
        <ele>1143.4</ele>
        <time>2021-04-23T10:19:26.000Z</time>
      </trkpt>
      <trkpt lat="45.17044" lon="5.62145">
        <ele>1143.8</ele>
        <time>2021-04-23T10:19:27.000Z</time>
      </trkpt>
      <trkpt lat="45.17045" lon="5.62146">
        <ele>1144</ele>
        <time>2021-04-23T10:19:28.000Z</time>
      </trkpt>
      <trkpt lat="45.17047" lon="5.62146">
        <ele>1144</ele>
        <time>2021-04-23T10:19:29.000Z</time>
      </trkpt>
      <trkpt lat="45.17049" lon="5.62147">
        <ele>1144.2</ele>
        <time>2021-04-23T10:19:30.000Z</time>
      </trkpt>
      <trkpt lat="45.17052" lon="5.62148">
        <ele>1144.6</ele>
        <time>2021-04-23T10:19:31.000Z</time>
      </trkpt>
      <trkpt lat="45.17054" lon="5.62149">
        <ele>1144.8</ele>
        <time>2021-04-23T10:19:32.000Z</time>
      </trkpt>
      <trkpt lat="45.17056" lon="5.62149">
        <ele>1145</ele>
        <time>2021-04-23T10:19:33.000Z</time>
      </trkpt>
      <trkpt lat="45.17057" lon="5.6215">
        <ele>1145.4</ele>
        <time>2021-04-23T10:19:34.000Z</time>
      </trkpt>
      <trkpt lat="45.17059" lon="5.6215">
        <ele>1145.6</ele>
        <time>2021-04-23T10:19:35.000Z</time>
      </trkpt>
      <trkpt lat="45.17061" lon="5.62151">
        <ele>1145.8</ele>
        <time>2021-04-23T10:19:36.000Z</time>
      </trkpt>
      <trkpt lat="45.17063" lon="5.62152">
        <ele>1145.8</ele>
        <time>2021-04-23T10:19:37.000Z</time>
      </trkpt>
      <trkpt lat="45.17065" lon="5.62153">
        <ele>1146</ele>
        <time>2021-04-23T10:19:38.000Z</time>
      </trkpt>
      <trkpt lat="45.17066" lon="5.62154">
        <ele>1146.2</ele>
        <time>2021-04-23T10:19:39.000Z</time>
      </trkpt>
      <trkpt lat="45.17068" lon="5.62155">
        <ele>1146.4</ele>
        <time>2021-04-23T10:19:40.000Z</time>
      </trkpt>
      <trkpt lat="45.17069" lon="5.62156">
        <ele>1146.4</ele>
        <time>2021-04-23T10:19:41.000Z</time>
      </trkpt>
      <trkpt lat="45.17071" lon="5.62157">
        <ele>1146.6</ele>
        <time>2021-04-23T10:19:42.000Z</time>
      </trkpt>
      <trkpt lat="45.17073" lon="5.62158">
        <ele>1146.8</ele>
        <time>2021-04-23T10:19:43.000Z</time>
      </trkpt>
      <trkpt lat="45.17075" lon="5.62158">
        <ele>1147</ele>
        <time>2021-04-23T10:19:44.000Z</time>
      </trkpt>
      <trkpt lat="45.17076" lon="5.62157">
        <ele>1147</ele>
        <time>2021-04-23T10:19:45.000Z</time>
      </trkpt>
      <trkpt lat="45.17077" lon="5.62157">
        <ele>1147</ele>
        <time>2021-04-23T10:19:46.000Z</time>
      </trkpt>
      <trkpt lat="45.17078" lon="5.62155">
        <ele>1147.2</ele>
        <time>2021-04-23T10:19:47.000Z</time>
      </trkpt>
      <trkpt lat="45.1708" lon="5.62152">
        <ele>1147.2</ele>
        <time>2021-04-23T10:19:48.000Z</time>
      </trkpt>
      <trkpt lat="45.17082" lon="5.6215">
        <ele>1147</ele>
        <time>2021-04-23T10:19:49.000Z</time>
      </trkpt>
      <trkpt lat="45.17083" lon="5.62148">
        <ele>1147</ele>
        <time>2021-04-23T10:19:50.000Z</time>
      </trkpt>
      <trkpt lat="45.17085" lon="5.62145">
        <ele>1146.8</ele>
        <time>2021-04-23T10:19:51.000Z</time>
      </trkpt>
      <trkpt lat="45.17087" lon="5.62144">
        <ele>1146.8</ele>
        <time>2021-04-23T10:19:52.000Z</time>
      </trkpt>
      <trkpt lat="45.17089" lon="5.62142">
        <ele>1146.8</ele>
        <time>2021-04-23T10:19:53.000Z</time>
      </trkpt>
      <trkpt lat="45.17091" lon="5.6214">
        <ele>1146.8</ele>
        <time>2021-04-23T10:19:54.000Z</time>
      </trkpt>
      <trkpt lat="45.17093" lon="5.62139">
        <ele>1146.8</ele>
        <time>2021-04-23T10:19:55.000Z</time>
      </trkpt>
      <trkpt lat="45.17097" lon="5.62138">
        <ele>1146.8</ele>
        <time>2021-04-23T10:19:56.000Z</time>
      </trkpt>
      <trkpt lat="45.171" lon="5.62137">
        <ele>1146.8</ele>
        <time>2021-04-23T10:19:57.000Z</time>
      </trkpt>
      <trkpt lat="45.17103" lon="5.62136">
        <ele>1146.8</ele>
        <time>2021-04-23T10:19:58.000Z</time>
      </trkpt>
      <trkpt lat="45.17106" lon="5.62136">
        <ele>1146.8</ele>
        <time>2021-04-23T10:19:59.000Z</time>
      </trkpt>
      <trkpt lat="45.17108" lon="5.62136">
        <ele>1146.8</ele>
        <time>2021-04-23T10:20:00.000Z</time>
      </trkpt>
      <trkpt lat="45.1711" lon="5.62135">
        <ele>1146.8</ele>
        <time>2021-04-23T10:20:01.000Z</time>
      </trkpt>
      <trkpt lat="45.1712" lon="5.62135">
        <ele>1146.6</ele>
        <time>2021-04-23T10:20:05.000Z</time>
      </trkpt>
      <trkpt lat="45.17133" lon="5.62139">
        <ele>1146.2</ele>
        <time>2021-04-23T10:20:09.000Z</time>
      </trkpt>
      <trkpt lat="45.17137" lon="5.62139">
        <ele>1146</ele>
        <time>2021-04-23T10:20:10.000Z</time>
      </trkpt>
      <trkpt lat="45.17141" lon="5.62139">
        <ele>1145.8</ele>
        <time>2021-04-23T10:20:11.000Z</time>
      </trkpt>
      <trkpt lat="45.17156" lon="5.62148">
        <ele>1145.4</ele>
        <time>2021-04-23T10:20:15.000Z</time>
      </trkpt>
      <trkpt lat="45.17158" lon="5.6215">
        <ele>1145.2</ele>
        <time>2021-04-23T10:20:16.000Z</time>
      </trkpt>
      <trkpt lat="45.17161" lon="5.62153">
        <ele>1145.2</ele>
        <time>2021-04-23T10:20:17.000Z</time>
      </trkpt>
      <trkpt lat="45.17163" lon="5.62156">
        <ele>1145.2</ele>
        <time>2021-04-23T10:20:18.000Z</time>
      </trkpt>
      <trkpt lat="45.17166" lon="5.62158">
        <ele>1145</ele>
        <time>2021-04-23T10:20:19.000Z</time>
      </trkpt>
      <trkpt lat="45.17169" lon="5.6216">
        <ele>1145</ele>
        <time>2021-04-23T10:20:20.000Z</time>
      </trkpt>
      <trkpt lat="45.17174" lon="5.62164">
        <ele>1144.8</ele>
        <time>2021-04-23T10:20:21.000Z</time>
      </trkpt>
      <trkpt lat="45.17184" lon="5.62175">
        <ele>1144.4</ele>
        <time>2021-04-23T10:20:24.000Z</time>
      </trkpt>
      <trkpt lat="45.17187" lon="5.6218">
        <ele>1144.2</ele>
        <time>2021-04-23T10:20:25.000Z</time>
      </trkpt>
      <trkpt lat="45.17189" lon="5.62184">
        <ele>1144</ele>
        <time>2021-04-23T10:20:26.000Z</time>
      </trkpt>
      <trkpt lat="45.1719" lon="5.62188">
        <ele>1144</ele>
        <time>2021-04-23T10:20:27.000Z</time>
      </trkpt>
      <trkpt lat="45.17192" lon="5.62192">
        <ele>1143.8</ele>
        <time>2021-04-23T10:20:28.000Z</time>
      </trkpt>
      <trkpt lat="45.17193" lon="5.62196">
        <ele>1144</ele>
        <time>2021-04-23T10:20:29.000Z</time>
      </trkpt>
      <trkpt lat="45.17195" lon="5.62202">
        <ele>1143.8</ele>
        <time>2021-04-23T10:20:30.000Z</time>
      </trkpt>
      <trkpt lat="45.17197" lon="5.62211">
        <ele>1143.8</ele>
        <time>2021-04-23T10:20:32.000Z</time>
      </trkpt>
      <trkpt lat="45.17198" lon="5.62215">
        <ele>1143.4</ele>
        <time>2021-04-23T10:20:33.000Z</time>
      </trkpt>
      <trkpt lat="45.172" lon="5.62221">
        <ele>1143.2</ele>
        <time>2021-04-23T10:20:34.000Z</time>
      </trkpt>
      <trkpt lat="45.17203" lon="5.62228">
        <ele>1142.4</ele>
        <time>2021-04-23T10:20:35.000Z</time>
      </trkpt>
      <trkpt lat="45.17207" lon="5.62235">
        <ele>1141</ele>
        <time>2021-04-23T10:20:36.000Z</time>
      </trkpt>
      <trkpt lat="45.17214" lon="5.62241">
        <ele>1140</ele>
        <time>2021-04-23T10:20:37.000Z</time>
      </trkpt>
      <trkpt lat="45.1722" lon="5.62245">
        <ele>1139.4</ele>
        <time>2021-04-23T10:20:38.000Z</time>
      </trkpt>
      <trkpt lat="45.17224" lon="5.62247">
        <ele>1139.2</ele>
        <time>2021-04-23T10:20:39.000Z</time>
      </trkpt>
      <trkpt lat="45.1723" lon="5.62251">
        <ele>1138.8</ele>
        <time>2021-04-23T10:20:40.000Z</time>
      </trkpt>
      <trkpt lat="45.17234" lon="5.62253">
        <ele>1138.8</ele>
        <time>2021-04-23T10:20:41.000Z</time>
      </trkpt>
      <trkpt lat="45.17239" lon="5.62256">
        <ele>1138.8</ele>
        <time>2021-04-23T10:20:42.000Z</time>
      </trkpt>
      <trkpt lat="45.17256" lon="5.62262">
        <ele>1138.4</ele>
        <time>2021-04-23T10:20:45.000Z</time>
      </trkpt>
      <trkpt lat="45.17265" lon="5.62266">
        <ele>1138.6</ele>
        <time>2021-04-23T10:20:47.000Z</time>
      </trkpt>
      <trkpt lat="45.17269" lon="5.62268">
        <ele>1138.8</ele>
        <time>2021-04-23T10:20:48.000Z</time>
      </trkpt>
      <trkpt lat="45.17272" lon="5.6227">
        <ele>1138.8</ele>
        <time>2021-04-23T10:20:49.000Z</time>
      </trkpt>
      <trkpt lat="45.17275" lon="5.62272">
        <ele>1139.2</ele>
        <time>2021-04-23T10:20:50.000Z</time>
      </trkpt>
      <trkpt lat="45.17278" lon="5.62275">
        <ele>1139.8</ele>
        <time>2021-04-23T10:20:51.000Z</time>
      </trkpt>
      <trkpt lat="45.17279" lon="5.62279">
        <ele>1140</ele>
        <time>2021-04-23T10:20:52.000Z</time>
      </trkpt>
      <trkpt lat="45.17281" lon="5.62282">
        <ele>1140.2</ele>
        <time>2021-04-23T10:20:53.000Z</time>
      </trkpt>
      <trkpt lat="45.17284" lon="5.62284">
        <ele>1140.4</ele>
        <time>2021-04-23T10:20:54.000Z</time>
      </trkpt>
      <trkpt lat="45.17286" lon="5.62286">
        <ele>1141.2</ele>
        <time>2021-04-23T10:20:55.000Z</time>
      </trkpt>
      <trkpt lat="45.17288" lon="5.62288">
        <ele>1141.8</ele>
        <time>2021-04-23T10:20:56.000Z</time>
      </trkpt>
      <trkpt lat="45.17289" lon="5.62291">
        <ele>1142</ele>
        <time>2021-04-23T10:20:57.000Z</time>
      </trkpt>
      <trkpt lat="45.17292" lon="5.62292">
        <ele>1142.4</ele>
        <time>2021-04-23T10:20:58.000Z</time>
      </trkpt>
      <trkpt lat="45.17293" lon="5.62292">
        <ele>1142.6</ele>
        <time>2021-04-23T10:20:59.000Z</time>
      </trkpt>
      <trkpt lat="45.17297" lon="5.6229">
        <ele>1143</ele>
        <time>2021-04-23T10:21:01.000Z</time>
      </trkpt>
      <trkpt lat="45.17299" lon="5.6229">
        <ele>1143.2</ele>
        <time>2021-04-23T10:21:02.000Z</time>
      </trkpt>
      <trkpt lat="45.17301" lon="5.62289">
        <ele>1143.4</ele>
        <time>2021-04-23T10:21:03.000Z</time>
      </trkpt>
      <trkpt lat="45.17303" lon="5.62288">
        <ele>1143.6</ele>
        <time>2021-04-23T10:21:04.000Z</time>
      </trkpt>
      <trkpt lat="45.17305" lon="5.62288">
        <ele>1143.8</ele>
        <time>2021-04-23T10:21:05.000Z</time>
      </trkpt>
      <trkpt lat="45.17306" lon="5.6229">
        <ele>1144</ele>
        <time>2021-04-23T10:21:06.000Z</time>
      </trkpt>
      <trkpt lat="45.17307" lon="5.62291">
        <ele>1144</ele>
        <time>2021-04-23T10:21:07.000Z</time>
      </trkpt>
      <trkpt lat="45.17307" lon="5.62291">
        <ele>1144</ele>
        <time>2021-04-23T10:21:08.000Z</time>
      </trkpt>
      <trkpt lat="45.17308" lon="5.62291">
        <ele>1144</ele>
        <time>2021-04-23T10:21:09.000Z</time>
      </trkpt>
      <trkpt lat="45.17308" lon="5.6229">
        <ele>1144</ele>
        <time>2021-04-23T10:21:10.000Z</time>
      </trkpt>
      <trkpt lat="45.17308" lon="5.62291">
        <ele>1144</ele>
        <time>2021-04-23T10:21:11.000Z</time>
      </trkpt>
      <trkpt lat="45.17309" lon="5.6229">
        <ele>1144</ele>
        <time>2021-04-23T10:21:12.000Z</time>
      </trkpt>
      <trkpt lat="45.17309" lon="5.62291">
        <ele>1144.2</ele>
        <time>2021-04-23T10:21:13.000Z</time>
      </trkpt>
      <trkpt lat="45.17309" lon="5.62291">
        <ele>1144.2</ele>
        <time>2021-04-23T10:21:14.000Z</time>
      </trkpt>
      <trkpt lat="45.17309" lon="5.62291">
        <ele>1144.2</ele>
        <time>2021-04-23T10:21:15.000Z</time>
      </trkpt>
      <trkpt lat="45.1731" lon="5.6229">
        <ele>1144.4</ele>
        <time>2021-04-23T10:21:16.000Z</time>
      </trkpt>
      <trkpt lat="45.17311" lon="5.6229">
        <ele>1144.4</ele>
        <time>2021-04-23T10:21:17.000Z</time>
      </trkpt>
      <trkpt lat="45.17311" lon="5.62289">
        <ele>1144.4</ele>
        <time>2021-04-23T10:21:18.000Z</time>
      </trkpt>
      <trkpt lat="45.17311" lon="5.62289">
        <ele>1144.4</ele>
        <time>2021-04-23T10:21:19.000Z</time>
      </trkpt>
      <trkpt lat="45.17312" lon="5.62288">
        <ele>1144.4</ele>
        <time>2021-04-23T10:21:20.000Z</time>
      </trkpt>
      <trkpt lat="45.17313" lon="5.62288">
        <ele>1144.4</ele>
        <time>2021-04-23T10:21:21.000Z</time>
      </trkpt>
      <trkpt lat="45.17313" lon="5.62287">
        <ele>1144.4</ele>
        <time>2021-04-23T10:21:23.000Z</time>
      </trkpt>
      <trkpt lat="45.17313" lon="5.62286">
        <ele>1144.4</ele>
        <time>2021-04-23T10:21:24.000Z</time>
      </trkpt>
      <trkpt lat="45.17314" lon="5.62286">
        <ele>1144.4</ele>
        <time>2021-04-23T10:21:25.000Z</time>
      </trkpt>
      <trkpt lat="45.17314" lon="5.62284">
        <ele>1144.4</ele>
        <time>2021-04-23T10:21:27.000Z</time>
      </trkpt>
      <trkpt lat="45.17314" lon="5.62284">
        <ele>1144.4</ele>
        <time>2021-04-23T10:21:28.000Z</time>
      </trkpt>
      <trkpt lat="45.17314" lon="5.62284">
        <ele>1144.6</ele>
        <time>2021-04-23T10:21:29.000Z</time>
      </trkpt>
      <trkpt lat="45.17317" lon="5.62281">
        <ele>1144.8</ele>
        <time>2021-04-23T10:21:33.000Z</time>
      </trkpt>
      <trkpt lat="45.17318" lon="5.62279">
        <ele>1144.8</ele>
        <time>2021-04-23T10:21:34.000Z</time>
      </trkpt>
      <trkpt lat="45.17323" lon="5.62273">
        <ele>1145.8</ele>
        <time>2021-04-23T10:21:37.000Z</time>
      </trkpt>
      <trkpt lat="45.17324" lon="5.62271">
        <ele>1146</ele>
        <time>2021-04-23T10:21:38.000Z</time>
      </trkpt>
      <trkpt lat="45.17325" lon="5.62271">
        <ele>1146.2</ele>
        <time>2021-04-23T10:21:39.000Z</time>
      </trkpt>
      <trkpt lat="45.17326" lon="5.6227">
        <ele>1146.4</ele>
        <time>2021-04-23T10:21:40.000Z</time>
      </trkpt>
      <trkpt lat="45.17328" lon="5.62269">
        <ele>1146.6</ele>
        <time>2021-04-23T10:21:42.000Z</time>
      </trkpt>
      <trkpt lat="45.17329" lon="5.62268">
        <ele>1146.6</ele>
        <time>2021-04-23T10:21:43.000Z</time>
      </trkpt>
      <trkpt lat="45.17331" lon="5.62266">
        <ele>1146.8</ele>
        <time>2021-04-23T10:21:44.000Z</time>
      </trkpt>
      <trkpt lat="45.17332" lon="5.62264">
        <ele>1147</ele>
        <time>2021-04-23T10:21:45.000Z</time>
      </trkpt>
      <trkpt lat="45.17332" lon="5.62262">
        <ele>1147</ele>
        <time>2021-04-23T10:21:46.000Z</time>
      </trkpt>
      <trkpt lat="45.17332" lon="5.6226">
        <ele>1147.2</ele>
        <time>2021-04-23T10:21:47.000Z</time>
      </trkpt>
      <trkpt lat="45.17332" lon="5.6226">
        <ele>1147.2</ele>
        <time>2021-04-23T10:21:48.000Z</time>
      </trkpt>
      <trkpt lat="45.17332" lon="5.62259">
        <ele>1147.4</ele>
        <time>2021-04-23T10:21:49.000Z</time>
      </trkpt>
      <trkpt lat="45.17335" lon="5.62257">
        <ele>1147.4</ele>
        <time>2021-04-23T10:21:50.000Z</time>
      </trkpt>
      <trkpt lat="45.17337" lon="5.62255">
        <ele>1147.4</ele>
        <time>2021-04-23T10:21:51.000Z</time>
      </trkpt>
      <trkpt lat="45.17339" lon="5.62254">
        <ele>1147.4</ele>
        <time>2021-04-23T10:21:52.000Z</time>
      </trkpt>
      <trkpt lat="45.17341" lon="5.62253">
        <ele>1147.4</ele>
        <time>2021-04-23T10:21:53.000Z</time>
      </trkpt>
      <trkpt lat="45.17341" lon="5.62252">
        <ele>1147.4</ele>
        <time>2021-04-23T10:21:54.000Z</time>
      </trkpt>
      <trkpt lat="45.17343" lon="5.62251">
        <ele>1147.4</ele>
        <time>2021-04-23T10:21:55.000Z</time>
      </trkpt>
      <trkpt lat="45.17344" lon="5.6225">
        <ele>1147.4</ele>
        <time>2021-04-23T10:21:56.000Z</time>
      </trkpt>
      <trkpt lat="45.17347" lon="5.62249">
        <ele>1147.4</ele>
        <time>2021-04-23T10:21:57.000Z</time>
      </trkpt>
      <trkpt lat="45.17349" lon="5.62247">
        <ele>1147.4</ele>
        <time>2021-04-23T10:21:58.000Z</time>
      </trkpt>
      <trkpt lat="45.1735" lon="5.62245">
        <ele>1147.4</ele>
        <time>2021-04-23T10:21:59.000Z</time>
      </trkpt>
      <trkpt lat="45.1735" lon="5.62244">
        <ele>1147.4</ele>
        <time>2021-04-23T10:22:00.000Z</time>
      </trkpt>
      <trkpt lat="45.17352" lon="5.62242">
        <ele>1147.4</ele>
        <time>2021-04-23T10:22:01.000Z</time>
      </trkpt>
      <trkpt lat="45.17354" lon="5.62242">
        <ele>1147.4</ele>
        <time>2021-04-23T10:22:02.000Z</time>
      </trkpt>
      <trkpt lat="45.17355" lon="5.62241">
        <ele>1147.4</ele>
        <time>2021-04-23T10:22:03.000Z</time>
      </trkpt>
      <trkpt lat="45.17357" lon="5.6224">
        <ele>1147.4</ele>
        <time>2021-04-23T10:22:04.000Z</time>
      </trkpt>
      <trkpt lat="45.17358" lon="5.62238">
        <ele>1147.4</ele>
        <time>2021-04-23T10:22:05.000Z</time>
      </trkpt>
      <trkpt lat="45.17359" lon="5.62237">
        <ele>1147.2</ele>
        <time>2021-04-23T10:22:06.000Z</time>
      </trkpt>
      <trkpt lat="45.17369" lon="5.6223">
        <ele>1147</ele>
        <time>2021-04-23T10:22:11.000Z</time>
      </trkpt>
      <trkpt lat="45.1737" lon="5.62232">
        <ele>1147</ele>
        <time>2021-04-23T10:22:12.000Z</time>
      </trkpt>
      <trkpt lat="45.17373" lon="5.62234">
        <ele>1146.6</ele>
        <time>2021-04-23T10:22:14.000Z</time>
      </trkpt>
      <trkpt lat="45.17375" lon="5.62234">
        <ele>1146.2</ele>
        <time>2021-04-23T10:22:15.000Z</time>
      </trkpt>
      <trkpt lat="45.17378" lon="5.62231">
        <ele>1145.8</ele>
        <time>2021-04-23T10:22:17.000Z</time>
      </trkpt>
      <trkpt lat="45.17379" lon="5.62234">
        <ele>1145.8</ele>
        <time>2021-04-23T10:22:18.000Z</time>
      </trkpt>
      <trkpt lat="45.17381" lon="5.62235">
        <ele>1145.4</ele>
        <time>2021-04-23T10:22:19.000Z</time>
      </trkpt>
      <trkpt lat="45.17383" lon="5.62235">
        <ele>1145.2</ele>
        <time>2021-04-23T10:22:20.000Z</time>
      </trkpt>
      <trkpt lat="45.17386" lon="5.62235">
        <ele>1145</ele>
        <time>2021-04-23T10:22:21.000Z</time>
      </trkpt>
      <trkpt lat="45.17388" lon="5.62235">
        <ele>1144.6</ele>
        <time>2021-04-23T10:22:22.000Z</time>
      </trkpt>
      <trkpt lat="45.17389" lon="5.62235">
        <ele>1144.4</ele>
        <time>2021-04-23T10:22:23.000Z</time>
      </trkpt>
      <trkpt lat="45.1739" lon="5.62234">
        <ele>1144.2</ele>
        <time>2021-04-23T10:22:24.000Z</time>
      </trkpt>
      <trkpt lat="45.17391" lon="5.62233">
        <ele>1144.2</ele>
        <time>2021-04-23T10:22:25.000Z</time>
      </trkpt>
      <trkpt lat="45.17392" lon="5.62231">
        <ele>1144.2</ele>
        <time>2021-04-23T10:22:26.000Z</time>
      </trkpt>
      <trkpt lat="45.17394" lon="5.6223">
        <ele>1144.4</ele>
        <time>2021-04-23T10:22:27.000Z</time>
      </trkpt>
      <trkpt lat="45.17397" lon="5.62225">
        <ele>1145</ele>
        <time>2021-04-23T10:22:30.000Z</time>
      </trkpt>
      <trkpt lat="45.17399" lon="5.62223">
        <ele>1145</ele>
        <time>2021-04-23T10:22:31.000Z</time>
      </trkpt>
      <trkpt lat="45.17399" lon="5.62222">
        <ele>1145</ele>
        <time>2021-04-23T10:22:32.000Z</time>
      </trkpt>
      <trkpt lat="45.174" lon="5.6222">
        <ele>1145</ele>
        <time>2021-04-23T10:22:33.000Z</time>
      </trkpt>
      <trkpt lat="45.17401" lon="5.62218">
        <ele>1145.2</ele>
        <time>2021-04-23T10:22:34.000Z</time>
      </trkpt>
      <trkpt lat="45.17402" lon="5.62215">
        <ele>1145.2</ele>
        <time>2021-04-23T10:22:35.000Z</time>
      </trkpt>
      <trkpt lat="45.17403" lon="5.62213">
        <ele>1145.4</ele>
        <time>2021-04-23T10:22:36.000Z</time>
      </trkpt>
      <trkpt lat="45.17404" lon="5.62211">
        <ele>1145.8</ele>
        <time>2021-04-23T10:22:37.000Z</time>
      </trkpt>
      <trkpt lat="45.17405" lon="5.62209">
        <ele>1146.2</ele>
        <time>2021-04-23T10:22:38.000Z</time>
      </trkpt>
      <trkpt lat="45.17406" lon="5.62208">
        <ele>1146.4</ele>
        <time>2021-04-23T10:22:39.000Z</time>
      </trkpt>
      <trkpt lat="45.17406" lon="5.62207">
        <ele>1146.8</ele>
        <time>2021-04-23T10:22:40.000Z</time>
      </trkpt>
      <trkpt lat="45.17406" lon="5.62207">
        <ele>1147</ele>
        <time>2021-04-23T10:22:41.000Z</time>
      </trkpt>
      <trkpt lat="45.17406" lon="5.62207">
        <ele>1147.2</ele>
        <time>2021-04-23T10:22:43.000Z</time>
      </trkpt>
      <trkpt lat="45.17407" lon="5.62205">
        <ele>1147.4</ele>
        <time>2021-04-23T10:22:46.000Z</time>
      </trkpt>
      <trkpt lat="45.17408" lon="5.62203">
        <ele>1147.2</ele>
        <time>2021-04-23T10:22:48.000Z</time>
      </trkpt>
      <trkpt lat="45.17408" lon="5.62203">
        <ele>1147.2</ele>
        <time>2021-04-23T10:22:51.000Z</time>
      </trkpt>
      <trkpt lat="45.17408" lon="5.62203">
        <ele>1147.2</ele>
        <time>2021-04-23T10:22:55.000Z</time>
      </trkpt>
      <trkpt lat="45.17409" lon="5.62202">
        <ele>1147.4</ele>
        <time>2021-04-23T10:22:58.000Z</time>
      </trkpt>
      <trkpt lat="45.17411" lon="5.62199">
        <ele>1147.6</ele>
        <time>2021-04-23T10:23:00.000Z</time>
      </trkpt>
      <trkpt lat="45.17414" lon="5.62194">
        <ele>1147.8</ele>
        <time>2021-04-23T10:23:02.000Z</time>
      </trkpt>
      <trkpt lat="45.17421" lon="5.62184">
        <ele>1147.8</ele>
        <time>2021-04-23T10:23:06.000Z</time>
      </trkpt>
      <trkpt lat="45.17422" lon="5.62181">
        <ele>1147.6</ele>
        <time>2021-04-23T10:23:07.000Z</time>
      </trkpt>
      <trkpt lat="45.17423" lon="5.6218">
        <ele>1147.6</ele>
        <time>2021-04-23T10:23:08.000Z</time>
      </trkpt>
      <trkpt lat="45.17424" lon="5.62175">
        <ele>1147</ele>
        <time>2021-04-23T10:23:21.000Z</time>
      </trkpt>
      <trkpt lat="45.17425" lon="5.62173">
        <ele>1147</ele>
        <time>2021-04-23T10:23:22.000Z</time>
      </trkpt>
      <trkpt lat="45.17425" lon="5.62172">
        <ele>1147</ele>
        <time>2021-04-23T10:23:24.000Z</time>
      </trkpt>
      <trkpt lat="45.17427" lon="5.62173">
        <ele>1147</ele>
        <time>2021-04-23T10:23:27.000Z</time>
      </trkpt>
      <trkpt lat="45.1743" lon="5.62178">
        <ele>1146.2</ele>
        <time>2021-04-23T10:23:30.000Z</time>
      </trkpt>
      <trkpt lat="45.17431" lon="5.62179">
        <ele>1145.8</ele>
        <time>2021-04-23T10:23:31.000Z</time>
      </trkpt>
      <trkpt lat="45.17431" lon="5.62179">
        <ele>1145.4</ele>
        <time>2021-04-23T10:23:32.000Z</time>
      </trkpt>
      <trkpt lat="45.17432" lon="5.62179">
        <ele>1145.4</ele>
        <time>2021-04-23T10:23:33.000Z</time>
      </trkpt>
      <trkpt lat="45.17433" lon="5.6218">
        <ele>1145.2</ele>
        <time>2021-04-23T10:23:34.000Z</time>
      </trkpt>
      <trkpt lat="45.17434" lon="5.62181">
        <ele>1144.8</ele>
        <time>2021-04-23T10:23:35.000Z</time>
      </trkpt>
      <trkpt lat="45.17435" lon="5.62182">
        <ele>1144.4</ele>
        <time>2021-04-23T10:23:36.000Z</time>
      </trkpt>
      <trkpt lat="45.17436" lon="5.62184">
        <ele>1144.2</ele>
        <time>2021-04-23T10:23:37.000Z</time>
      </trkpt>
      <trkpt lat="45.17436" lon="5.62186">
        <ele>1143.8</ele>
        <time>2021-04-23T10:23:38.000Z</time>
      </trkpt>
      <trkpt lat="45.17435" lon="5.62188">
        <ele>1143.4</ele>
        <time>2021-04-23T10:23:39.000Z</time>
      </trkpt>
      <trkpt lat="45.17435" lon="5.6219">
        <ele>1142.8</ele>
        <time>2021-04-23T10:23:40.000Z</time>
      </trkpt>
      <trkpt lat="45.17435" lon="5.62192">
        <ele>1142.4</ele>
        <time>2021-04-23T10:23:41.000Z</time>
      </trkpt>
      <trkpt lat="45.17435" lon="5.62195">
        <ele>1141.2</ele>
        <time>2021-04-23T10:23:42.000Z</time>
      </trkpt>
      <trkpt lat="45.17435" lon="5.62197">
        <ele>1140.4</ele>
        <time>2021-04-23T10:23:43.000Z</time>
      </trkpt>
      <trkpt lat="45.17435" lon="5.62199">
        <ele>1140</ele>
        <time>2021-04-23T10:23:44.000Z</time>
      </trkpt>
      <trkpt lat="45.17435" lon="5.62199">
        <ele>1139.8</ele>
        <time>2021-04-23T10:23:45.000Z</time>
      </trkpt>
      <trkpt lat="45.17435" lon="5.62199">
        <ele>1139.6</ele>
        <time>2021-04-23T10:23:46.000Z</time>
      </trkpt>
      <trkpt lat="45.17434" lon="5.62199">
        <ele>1139.4</ele>
        <time>2021-04-23T10:23:48.000Z</time>
      </trkpt>
      <trkpt lat="45.1744" lon="5.62199">
        <ele>1139.2</ele>
        <time>2021-04-23T10:23:54.000Z</time>
      </trkpt>
      <trkpt lat="45.17446" lon="5.62196">
        <ele>1138.8</ele>
        <time>2021-04-23T10:23:56.000Z</time>
      </trkpt>
      <trkpt lat="45.17453" lon="5.62195">
        <ele>1138.2</ele>
        <time>2021-04-23T10:23:59.000Z</time>
      </trkpt>
      <trkpt lat="45.17455" lon="5.62196">
        <ele>1137.6</ele>
        <time>2021-04-23T10:24:00.000Z</time>
      </trkpt>
      <trkpt lat="45.1746" lon="5.62196">
        <ele>1136.8</ele>
        <time>2021-04-23T10:24:01.000Z</time>
      </trkpt>
      <trkpt lat="45.17463" lon="5.62196">
        <ele>1135.8</ele>
        <time>2021-04-23T10:24:02.000Z</time>
      </trkpt>
      <trkpt lat="45.17466" lon="5.62199">
        <ele>1135</ele>
        <time>2021-04-23T10:24:03.000Z</time>
      </trkpt>
      <trkpt lat="45.17467" lon="5.62201">
        <ele>1134.4</ele>
        <time>2021-04-23T10:24:04.000Z</time>
      </trkpt>
      <trkpt lat="45.17468" lon="5.62204">
        <ele>1133.2</ele>
        <time>2021-04-23T10:24:05.000Z</time>
      </trkpt>
      <trkpt lat="45.17466" lon="5.62212">
        <ele>1132</ele>
        <time>2021-04-23T10:24:07.000Z</time>
      </trkpt>
      <trkpt lat="45.17465" lon="5.62214">
        <ele>1131.8</ele>
        <time>2021-04-23T10:24:08.000Z</time>
      </trkpt>
      <trkpt lat="45.17465" lon="5.62214">
        <ele>1131.6</ele>
        <time>2021-04-23T10:24:09.000Z</time>
      </trkpt>
      <trkpt lat="45.17465" lon="5.62214">
        <ele>1131.4</ele>
        <time>2021-04-23T10:24:12.000Z</time>
      </trkpt>
      <trkpt lat="45.17465" lon="5.62214">
        <ele>1131.2</ele>
        <time>2021-04-23T10:24:14.000Z</time>
      </trkpt>
      <trkpt lat="45.17465" lon="5.62214">
        <ele>1131.2</ele>
        <time>2021-04-23T10:24:17.000Z</time>
      </trkpt>
      <trkpt lat="45.17465" lon="5.62215">
        <ele>1131</ele>
        <time>2021-04-23T10:24:19.000Z</time>
      </trkpt>
      <trkpt lat="45.17464" lon="5.62217">
        <ele>1130.8</ele>
        <time>2021-04-23T10:24:22.000Z</time>
      </trkpt>
      <trkpt lat="45.17464" lon="5.62218">
        <ele>1130.4</ele>
        <time>2021-04-23T10:24:23.000Z</time>
      </trkpt>
      <trkpt lat="45.17464" lon="5.62219">
        <ele>1130</ele>
        <time>2021-04-23T10:24:24.000Z</time>
      </trkpt>
      <trkpt lat="45.17464" lon="5.6222">
        <ele>1129.8</ele>
        <time>2021-04-23T10:24:25.000Z</time>
      </trkpt>
      <trkpt lat="45.17464" lon="5.6222">
        <ele>1128.6</ele>
        <time>2021-04-23T10:24:28.000Z</time>
      </trkpt>
      <trkpt lat="45.17464" lon="5.62221">
        <ele>1127.4</ele>
        <time>2021-04-23T10:24:35.000Z</time>
      </trkpt>
      <trkpt lat="45.17464" lon="5.62221">
        <ele>1126.8</ele>
        <time>2021-04-23T10:24:40.000Z</time>
      </trkpt>
      <trkpt lat="45.17464" lon="5.62221">
        <ele>1126.4</ele>
        <time>2021-04-23T10:24:42.000Z</time>
      </trkpt>
      <trkpt lat="45.17464" lon="5.62223">
        <ele>1125.4</ele>
        <time>2021-04-23T10:24:50.000Z</time>
      </trkpt>
      <trkpt lat="45.17464" lon="5.62224">
        <ele>1124</ele>
        <time>2021-04-23T10:24:54.000Z</time>
      </trkpt>
      <trkpt lat="45.17464" lon="5.62227">
        <ele>1123.2</ele>
        <time>2021-04-23T10:24:55.000Z</time>
      </trkpt>
      <trkpt lat="45.17464" lon="5.62231">
        <ele>1122.2</ele>
        <time>2021-04-23T10:24:56.000Z</time>
      </trkpt>
      <trkpt lat="45.17464" lon="5.62236">
        <ele>1121</ele>
        <time>2021-04-23T10:24:57.000Z</time>
      </trkpt>
      <trkpt lat="45.17465" lon="5.62241">
        <ele>1119.8</ele>
        <time>2021-04-23T10:24:58.000Z</time>
      </trkpt>
      <trkpt lat="45.17465" lon="5.62247">
        <ele>1118</ele>
        <time>2021-04-23T10:25:00.000Z</time>
      </trkpt>
      <trkpt lat="45.17465" lon="5.62249">
        <ele>1117.4</ele>
        <time>2021-04-23T10:25:01.000Z</time>
      </trkpt>
      <trkpt lat="45.17465" lon="5.62252">
        <ele>1116.6</ele>
        <time>2021-04-23T10:25:02.000Z</time>
      </trkpt>
      <trkpt lat="45.17466" lon="5.62257">
        <ele>1116.2</ele>
        <time>2021-04-23T10:25:03.000Z</time>
      </trkpt>
      <trkpt lat="45.17466" lon="5.62262">
        <ele>1114.8</ele>
        <time>2021-04-23T10:25:04.000Z</time>
      </trkpt>
      <trkpt lat="45.17466" lon="5.62269">
        <ele>1113.4</ele>
        <time>2021-04-23T10:25:06.000Z</time>
      </trkpt>
      <trkpt lat="45.17466" lon="5.62273">
        <ele>1111.8</ele>
        <time>2021-04-23T10:25:07.000Z</time>
      </trkpt>
      <trkpt lat="45.17465" lon="5.62278">
        <ele>1110.4</ele>
        <time>2021-04-23T10:25:09.000Z</time>
      </trkpt>
      <trkpt lat="45.17464" lon="5.62279">
        <ele>1110</ele>
        <time>2021-04-23T10:25:10.000Z</time>
      </trkpt>
      <trkpt lat="45.17464" lon="5.62279">
        <ele>1109.6</ele>
        <time>2021-04-23T10:25:13.000Z</time>
      </trkpt>
      <trkpt lat="45.17464" lon="5.62281">
        <ele>1109.2</ele>
        <time>2021-04-23T10:25:15.000Z</time>
      </trkpt>
      <trkpt lat="45.17465" lon="5.62284">
        <ele>1109</ele>
        <time>2021-04-23T10:25:18.000Z</time>
      </trkpt>
      <trkpt lat="45.17467" lon="5.62286">
        <ele>1107.6</ele>
        <time>2021-04-23T10:25:21.000Z</time>
      </trkpt>
      <trkpt lat="45.17467" lon="5.62286">
        <ele>1107.2</ele>
        <time>2021-04-23T10:25:22.000Z</time>
      </trkpt>
      <trkpt lat="45.17467" lon="5.62294">
        <ele>1106.6</ele>
        <time>2021-04-23T10:25:24.000Z</time>
      </trkpt>
      <trkpt lat="45.17467" lon="5.62299">
        <ele>1106.6</ele>
        <time>2021-04-23T10:25:25.000Z</time>
      </trkpt>
      <trkpt lat="45.17465" lon="5.62311">
        <ele>1106.6</ele>
        <time>2021-04-23T10:25:27.000Z</time>
      </trkpt>
      <trkpt lat="45.17464" lon="5.62321">
        <ele>1107</ele>
        <time>2021-04-23T10:25:29.000Z</time>
      </trkpt>
      <trkpt lat="45.17463" lon="5.62323">
        <ele>1107.2</ele>
        <time>2021-04-23T10:25:30.000Z</time>
      </trkpt>
      <trkpt lat="45.17462" lon="5.62325">
        <ele>1107.6</ele>
        <time>2021-04-23T10:25:31.000Z</time>
      </trkpt>
      <trkpt lat="45.17461" lon="5.62327">
        <ele>1108</ele>
        <time>2021-04-23T10:25:32.000Z</time>
      </trkpt>
      <trkpt lat="45.1746" lon="5.62329">
        <ele>1108.2</ele>
        <time>2021-04-23T10:25:33.000Z</time>
      </trkpt>
      <trkpt lat="45.17458" lon="5.62331">
        <ele>1108.6</ele>
        <time>2021-04-23T10:25:34.000Z</time>
      </trkpt>
      <trkpt lat="45.17457" lon="5.62336">
        <ele>1108.6</ele>
        <time>2021-04-23T10:25:35.000Z</time>
      </trkpt>
      <trkpt lat="45.17456" lon="5.62339">
        <ele>1108.8</ele>
        <time>2021-04-23T10:25:36.000Z</time>
      </trkpt>
      <trkpt lat="45.17454" lon="5.62341">
        <ele>1109.2</ele>
        <time>2021-04-23T10:25:37.000Z</time>
      </trkpt>
      <trkpt lat="45.17452" lon="5.62342">
        <ele>1109.4</ele>
        <time>2021-04-23T10:25:38.000Z</time>
      </trkpt>
      <trkpt lat="45.1745" lon="5.62344">
        <ele>1109.6</ele>
        <time>2021-04-23T10:25:39.000Z</time>
      </trkpt>
      <trkpt lat="45.17448" lon="5.62346">
        <ele>1110</ele>
        <time>2021-04-23T10:25:40.000Z</time>
      </trkpt>
      <trkpt lat="45.17445" lon="5.62347">
        <ele>1110.2</ele>
        <time>2021-04-23T10:25:41.000Z</time>
      </trkpt>
      <trkpt lat="45.17444" lon="5.62349">
        <ele>1110.4</ele>
        <time>2021-04-23T10:25:42.000Z</time>
      </trkpt>
      <trkpt lat="45.17443" lon="5.6235">
        <ele>1110.4</ele>
        <time>2021-04-23T10:25:43.000Z</time>
      </trkpt>
      <trkpt lat="45.17441" lon="5.62351">
        <ele>1110.6</ele>
        <time>2021-04-23T10:25:44.000Z</time>
      </trkpt>
      <trkpt lat="45.1744" lon="5.62355">
        <ele>1110.8</ele>
        <time>2021-04-23T10:25:45.000Z</time>
      </trkpt>
      <trkpt lat="45.1744" lon="5.62358">
        <ele>1111.4</ele>
        <time>2021-04-23T10:25:46.000Z</time>
      </trkpt>
      <trkpt lat="45.17439" lon="5.62361">
        <ele>1111.6</ele>
        <time>2021-04-23T10:25:47.000Z</time>
      </trkpt>
      <trkpt lat="45.17438" lon="5.62363">
        <ele>1111.8</ele>
        <time>2021-04-23T10:25:48.000Z</time>
      </trkpt>
      <trkpt lat="45.17437" lon="5.62364">
        <ele>1112</ele>
        <time>2021-04-23T10:25:49.000Z</time>
      </trkpt>
      <trkpt lat="45.17436" lon="5.62366">
        <ele>1112.2</ele>
        <time>2021-04-23T10:25:50.000Z</time>
      </trkpt>
      <trkpt lat="45.17436" lon="5.62367">
        <ele>1112.4</ele>
        <time>2021-04-23T10:25:51.000Z</time>
      </trkpt>
      <trkpt lat="45.17437" lon="5.62368">
        <ele>1112.6</ele>
        <time>2021-04-23T10:25:52.000Z</time>
      </trkpt>
      <trkpt lat="45.17439" lon="5.62366">
        <ele>1113</ele>
        <time>2021-04-23T10:25:55.000Z</time>
      </trkpt>
      <trkpt lat="45.1744" lon="5.62364">
        <ele>1113</ele>
        <time>2021-04-23T10:25:56.000Z</time>
      </trkpt>
      <trkpt lat="45.17442" lon="5.62364">
        <ele>1113</ele>
        <time>2021-04-23T10:25:57.000Z</time>
      </trkpt>
      <trkpt lat="45.17444" lon="5.62363">
        <ele>1113</ele>
        <time>2021-04-23T10:25:58.000Z</time>
      </trkpt>
      <trkpt lat="45.17446" lon="5.62361">
        <ele>1113.2</ele>
        <time>2021-04-23T10:25:59.000Z</time>
      </trkpt>
      <trkpt lat="45.17448" lon="5.6236">
        <ele>1113.2</ele>
        <time>2021-04-23T10:26:00.000Z</time>
      </trkpt>
      <trkpt lat="45.17451" lon="5.62358">
        <ele>1113.2</ele>
        <time>2021-04-23T10:26:01.000Z</time>
      </trkpt>
      <trkpt lat="45.17454" lon="5.62357">
        <ele>1113.2</ele>
        <time>2021-04-23T10:26:02.000Z</time>
      </trkpt>
      <trkpt lat="45.17456" lon="5.62355">
        <ele>1113.2</ele>
        <time>2021-04-23T10:26:03.000Z</time>
      </trkpt>
      <trkpt lat="45.17458" lon="5.62354">
        <ele>1113.2</ele>
        <time>2021-04-23T10:26:04.000Z</time>
      </trkpt>
      <trkpt lat="45.1746" lon="5.62353">
        <ele>1113.2</ele>
        <time>2021-04-23T10:26:05.000Z</time>
      </trkpt>
      <trkpt lat="45.17461" lon="5.62352">
        <ele>1113.2</ele>
        <time>2021-04-23T10:26:06.000Z</time>
      </trkpt>
      <trkpt lat="45.17463" lon="5.6235">
        <ele>1113.2</ele>
        <time>2021-04-23T10:26:07.000Z</time>
      </trkpt>
      <trkpt lat="45.17465" lon="5.62349">
        <ele>1113.2</ele>
        <time>2021-04-23T10:26:08.000Z</time>
      </trkpt>
      <trkpt lat="45.17466" lon="5.62347">
        <ele>1113.4</ele>
        <time>2021-04-23T10:26:09.000Z</time>
      </trkpt>
      <trkpt lat="45.17468" lon="5.62346">
        <ele>1113.4</ele>
        <time>2021-04-23T10:26:10.000Z</time>
      </trkpt>
      <trkpt lat="45.1747" lon="5.62345">
        <ele>1113.6</ele>
        <time>2021-04-23T10:26:11.000Z</time>
      </trkpt>
      <trkpt lat="45.17472" lon="5.62343">
        <ele>1113.6</ele>
        <time>2021-04-23T10:26:12.000Z</time>
      </trkpt>
      <trkpt lat="45.1748" lon="5.62335">
        <ele>1114.4</ele>
        <time>2021-04-23T10:26:16.000Z</time>
      </trkpt>
      <trkpt lat="45.17482" lon="5.62333">
        <ele>1114.6</ele>
        <time>2021-04-23T10:26:17.000Z</time>
      </trkpt>
      <trkpt lat="45.17484" lon="5.62332">
        <ele>1114.8</ele>
        <time>2021-04-23T10:26:18.000Z</time>
      </trkpt>
      <trkpt lat="45.17485" lon="5.62331">
        <ele>1114.8</ele>
        <time>2021-04-23T10:26:19.000Z</time>
      </trkpt>
      <trkpt lat="45.17487" lon="5.62329">
        <ele>1115</ele>
        <time>2021-04-23T10:26:20.000Z</time>
      </trkpt>
      <trkpt lat="45.17488" lon="5.62327">
        <ele>1115.2</ele>
        <time>2021-04-23T10:26:21.000Z</time>
      </trkpt>
      <trkpt lat="45.1749" lon="5.62325">
        <ele>1115.4</ele>
        <time>2021-04-23T10:26:22.000Z</time>
      </trkpt>
      <trkpt lat="45.17492" lon="5.62325">
        <ele>1115.8</ele>
        <time>2021-04-23T10:26:23.000Z</time>
      </trkpt>
      <trkpt lat="45.17494" lon="5.62323">
        <ele>1116</ele>
        <time>2021-04-23T10:26:24.000Z</time>
      </trkpt>
      <trkpt lat="45.17496" lon="5.62321">
        <ele>1116.2</ele>
        <time>2021-04-23T10:26:25.000Z</time>
      </trkpt>
      <trkpt lat="45.17498" lon="5.62319">
        <ele>1116.4</ele>
        <time>2021-04-23T10:26:26.000Z</time>
      </trkpt>
      <trkpt lat="45.175" lon="5.62317">
        <ele>1116.4</ele>
        <time>2021-04-23T10:26:27.000Z</time>
      </trkpt>
      <trkpt lat="45.17502" lon="5.62316">
        <ele>1116.6</ele>
        <time>2021-04-23T10:26:28.000Z</time>
      </trkpt>
      <trkpt lat="45.17503" lon="5.62316">
        <ele>1117</ele>
        <time>2021-04-23T10:26:29.000Z</time>
      </trkpt>
      <trkpt lat="45.17504" lon="5.62316">
        <ele>1117.2</ele>
        <time>2021-04-23T10:26:30.000Z</time>
      </trkpt>
      <trkpt lat="45.17506" lon="5.62316">
        <ele>1117.4</ele>
        <time>2021-04-23T10:26:31.000Z</time>
      </trkpt>
      <trkpt lat="45.17508" lon="5.62316">
        <ele>1117.8</ele>
        <time>2021-04-23T10:26:32.000Z</time>
      </trkpt>
      <trkpt lat="45.17509" lon="5.62316">
        <ele>1118</ele>
        <time>2021-04-23T10:26:33.000Z</time>
      </trkpt>
      <trkpt lat="45.1751" lon="5.62316">
        <ele>1118.2</ele>
        <time>2021-04-23T10:26:34.000Z</time>
      </trkpt>
      <trkpt lat="45.17511" lon="5.62316">
        <ele>1118.4</ele>
        <time>2021-04-23T10:26:35.000Z</time>
      </trkpt>
      <trkpt lat="45.17513" lon="5.62316">
        <ele>1118.8</ele>
        <time>2021-04-23T10:26:36.000Z</time>
      </trkpt>
      <trkpt lat="45.17514" lon="5.62316">
        <ele>1119</ele>
        <time>2021-04-23T10:26:37.000Z</time>
      </trkpt>
      <trkpt lat="45.17516" lon="5.62316">
        <ele>1119.4</ele>
        <time>2021-04-23T10:26:38.000Z</time>
      </trkpt>
      <trkpt lat="45.17517" lon="5.62315">
        <ele>1119.6</ele>
        <time>2021-04-23T10:26:39.000Z</time>
      </trkpt>
      <trkpt lat="45.17518" lon="5.62315">
        <ele>1119.8</ele>
        <time>2021-04-23T10:26:40.000Z</time>
      </trkpt>
      <trkpt lat="45.17519" lon="5.62315">
        <ele>1120.2</ele>
        <time>2021-04-23T10:26:41.000Z</time>
      </trkpt>
      <trkpt lat="45.17521" lon="5.62314">
        <ele>1120.4</ele>
        <time>2021-04-23T10:26:42.000Z</time>
      </trkpt>
      <trkpt lat="45.17522" lon="5.62313">
        <ele>1120.6</ele>
        <time>2021-04-23T10:26:43.000Z</time>
      </trkpt>
      <trkpt lat="45.17524" lon="5.62313">
        <ele>1120.8</ele>
        <time>2021-04-23T10:26:44.000Z</time>
      </trkpt>
      <trkpt lat="45.17525" lon="5.62313">
        <ele>1121</ele>
        <time>2021-04-23T10:26:45.000Z</time>
      </trkpt>
      <trkpt lat="45.17527" lon="5.62313">
        <ele>1121.2</ele>
        <time>2021-04-23T10:26:46.000Z</time>
      </trkpt>
      <trkpt lat="45.17528" lon="5.62312">
        <ele>1121.4</ele>
        <time>2021-04-23T10:26:47.000Z</time>
      </trkpt>
      <trkpt lat="45.1753" lon="5.62311">
        <ele>1121.6</ele>
        <time>2021-04-23T10:26:48.000Z</time>
      </trkpt>
      <trkpt lat="45.17531" lon="5.62311">
        <ele>1121.8</ele>
        <time>2021-04-23T10:26:49.000Z</time>
      </trkpt>
      <trkpt lat="45.17533" lon="5.62312">
        <ele>1122.2</ele>
        <time>2021-04-23T10:26:50.000Z</time>
      </trkpt>
      <trkpt lat="45.17535" lon="5.62312">
        <ele>1122.4</ele>
        <time>2021-04-23T10:26:51.000Z</time>
      </trkpt>
      <trkpt lat="45.17537" lon="5.62311">
        <ele>1122.6</ele>
        <time>2021-04-23T10:26:52.000Z</time>
      </trkpt>
      <trkpt lat="45.17539" lon="5.62311">
        <ele>1122.8</ele>
        <time>2021-04-23T10:26:53.000Z</time>
      </trkpt>
      <trkpt lat="45.17541" lon="5.6231">
        <ele>1123.2</ele>
        <time>2021-04-23T10:26:54.000Z</time>
      </trkpt>
      <trkpt lat="45.17542" lon="5.62311">
        <ele>1123.4</ele>
        <time>2021-04-23T10:26:55.000Z</time>
      </trkpt>
      <trkpt lat="45.17544" lon="5.62311">
        <ele>1123.6</ele>
        <time>2021-04-23T10:26:56.000Z</time>
      </trkpt>
      <trkpt lat="45.17545" lon="5.62311">
        <ele>1123.6</ele>
        <time>2021-04-23T10:26:57.000Z</time>
      </trkpt>
      <trkpt lat="45.17546" lon="5.62311">
        <ele>1123.8</ele>
        <time>2021-04-23T10:26:58.000Z</time>
      </trkpt>
      <trkpt lat="45.17548" lon="5.62311">
        <ele>1124</ele>
        <time>2021-04-23T10:26:59.000Z</time>
      </trkpt>
      <trkpt lat="45.17549" lon="5.6231">
        <ele>1124.2</ele>
        <time>2021-04-23T10:27:00.000Z</time>
      </trkpt>
      <trkpt lat="45.17551" lon="5.6231">
        <ele>1124.6</ele>
        <time>2021-04-23T10:27:01.000Z</time>
      </trkpt>
      <trkpt lat="45.17552" lon="5.62311">
        <ele>1124.8</ele>
        <time>2021-04-23T10:27:02.000Z</time>
      </trkpt>
      <trkpt lat="45.17553" lon="5.62314">
        <ele>1124.8</ele>
        <time>2021-04-23T10:27:03.000Z</time>
      </trkpt>
      <trkpt lat="45.17553" lon="5.62317">
        <ele>1125.2</ele>
        <time>2021-04-23T10:27:04.000Z</time>
      </trkpt>
      <trkpt lat="45.17552" lon="5.62319">
        <ele>1125.4</ele>
        <time>2021-04-23T10:27:05.000Z</time>
      </trkpt>
      <trkpt lat="45.1755" lon="5.6232">
        <ele>1125.6</ele>
        <time>2021-04-23T10:27:06.000Z</time>
      </trkpt>
      <trkpt lat="45.17549" lon="5.62321">
        <ele>1125.8</ele>
        <time>2021-04-23T10:27:07.000Z</time>
      </trkpt>
      <trkpt lat="45.17548" lon="5.62322">
        <ele>1126</ele>
        <time>2021-04-23T10:27:08.000Z</time>
      </trkpt>
      <trkpt lat="45.17546" lon="5.62324">
        <ele>1126.2</ele>
        <time>2021-04-23T10:27:09.000Z</time>
      </trkpt>
      <trkpt lat="45.17545" lon="5.62325">
        <ele>1126.4</ele>
        <time>2021-04-23T10:27:10.000Z</time>
      </trkpt>
      <trkpt lat="45.17544" lon="5.62326">
        <ele>1126.4</ele>
        <time>2021-04-23T10:27:11.000Z</time>
      </trkpt>
      <trkpt lat="45.17543" lon="5.62328">
        <ele>1126.8</ele>
        <time>2021-04-23T10:27:12.000Z</time>
      </trkpt>
      <trkpt lat="45.17541" lon="5.62329">
        <ele>1127.2</ele>
        <time>2021-04-23T10:27:13.000Z</time>
      </trkpt>
      <trkpt lat="45.1754" lon="5.6233">
        <ele>1127.6</ele>
        <time>2021-04-23T10:27:14.000Z</time>
      </trkpt>
      <trkpt lat="45.17539" lon="5.62332">
        <ele>1128</ele>
        <time>2021-04-23T10:27:15.000Z</time>
      </trkpt>
      <trkpt lat="45.17537" lon="5.62334">
        <ele>1128</ele>
        <time>2021-04-23T10:27:16.000Z</time>
      </trkpt>
      <trkpt lat="45.17536" lon="5.62336">
        <ele>1128.4</ele>
        <time>2021-04-23T10:27:17.000Z</time>
      </trkpt>
      <trkpt lat="45.17535" lon="5.62337">
        <ele>1128.6</ele>
        <time>2021-04-23T10:27:18.000Z</time>
      </trkpt>
      <trkpt lat="45.17535" lon="5.62339">
        <ele>1129</ele>
        <time>2021-04-23T10:27:19.000Z</time>
      </trkpt>
      <trkpt lat="45.17534" lon="5.6234">
        <ele>1129.2</ele>
        <time>2021-04-23T10:27:20.000Z</time>
      </trkpt>
      <trkpt lat="45.17533" lon="5.62342">
        <ele>1129.4</ele>
        <time>2021-04-23T10:27:21.000Z</time>
      </trkpt>
      <trkpt lat="45.17532" lon="5.62344">
        <ele>1129.6</ele>
        <time>2021-04-23T10:27:22.000Z</time>
      </trkpt>
      <trkpt lat="45.17532" lon="5.62345">
        <ele>1130</ele>
        <time>2021-04-23T10:27:23.000Z</time>
      </trkpt>
      <trkpt lat="45.17531" lon="5.62347">
        <ele>1130</ele>
        <time>2021-04-23T10:27:24.000Z</time>
      </trkpt>
      <trkpt lat="45.17529" lon="5.62348">
        <ele>1130.2</ele>
        <time>2021-04-23T10:27:25.000Z</time>
      </trkpt>
      <trkpt lat="45.17528" lon="5.62349">
        <ele>1130.2</ele>
        <time>2021-04-23T10:27:26.000Z</time>
      </trkpt>
      <trkpt lat="45.17527" lon="5.6235">
        <ele>1130.2</ele>
        <time>2021-04-23T10:27:27.000Z</time>
      </trkpt>
      <trkpt lat="45.17526" lon="5.62352">
        <ele>1130.2</ele>
        <time>2021-04-23T10:27:28.000Z</time>
      </trkpt>
      <trkpt lat="45.17525" lon="5.62354">
        <ele>1130.2</ele>
        <time>2021-04-23T10:27:29.000Z</time>
      </trkpt>
      <trkpt lat="45.17523" lon="5.62356">
        <ele>1130.2</ele>
        <time>2021-04-23T10:27:30.000Z</time>
      </trkpt>
      <trkpt lat="45.17522" lon="5.62359">
        <ele>1130.2</ele>
        <time>2021-04-23T10:27:31.000Z</time>
      </trkpt>
      <trkpt lat="45.17522" lon="5.62361">
        <ele>1130.2</ele>
        <time>2021-04-23T10:27:32.000Z</time>
      </trkpt>
      <trkpt lat="45.17523" lon="5.62363">
        <ele>1130.4</ele>
        <time>2021-04-23T10:27:33.000Z</time>
      </trkpt>
      <trkpt lat="45.17523" lon="5.62365">
        <ele>1130.6</ele>
        <time>2021-04-23T10:27:34.000Z</time>
      </trkpt>
      <trkpt lat="45.17524" lon="5.62368">
        <ele>1130.8</ele>
        <time>2021-04-23T10:27:35.000Z</time>
      </trkpt>
      <trkpt lat="45.17524" lon="5.6237">
        <ele>1131.2</ele>
        <time>2021-04-23T10:27:36.000Z</time>
      </trkpt>
      <trkpt lat="45.17524" lon="5.62372">
        <ele>1131.6</ele>
        <time>2021-04-23T10:27:37.000Z</time>
      </trkpt>
      <trkpt lat="45.17524" lon="5.62375">
        <ele>1131.8</ele>
        <time>2021-04-23T10:27:38.000Z</time>
      </trkpt>
      <trkpt lat="45.17525" lon="5.62377">
        <ele>1132</ele>
        <time>2021-04-23T10:27:39.000Z</time>
      </trkpt>
      <trkpt lat="45.17525" lon="5.6238">
        <ele>1132.2</ele>
        <time>2021-04-23T10:27:40.000Z</time>
      </trkpt>
      <trkpt lat="45.17524" lon="5.62382">
        <ele>1132.4</ele>
        <time>2021-04-23T10:27:41.000Z</time>
      </trkpt>
      <trkpt lat="45.17524" lon="5.62385">
        <ele>1132.6</ele>
        <time>2021-04-23T10:27:42.000Z</time>
      </trkpt>
      <trkpt lat="45.17523" lon="5.62387">
        <ele>1132.6</ele>
        <time>2021-04-23T10:27:43.000Z</time>
      </trkpt>
      <trkpt lat="45.17522" lon="5.6239">
        <ele>1132.6</ele>
        <time>2021-04-23T10:27:44.000Z</time>
      </trkpt>
      <trkpt lat="45.17523" lon="5.62393">
        <ele>1132.6</ele>
        <time>2021-04-23T10:27:45.000Z</time>
      </trkpt>
      <trkpt lat="45.17524" lon="5.62394">
        <ele>1132.6</ele>
        <time>2021-04-23T10:27:46.000Z</time>
      </trkpt>
      <trkpt lat="45.17525" lon="5.62395">
        <ele>1132.6</ele>
        <time>2021-04-23T10:27:47.000Z</time>
      </trkpt>
      <trkpt lat="45.17526" lon="5.62395">
        <ele>1132.6</ele>
        <time>2021-04-23T10:27:48.000Z</time>
      </trkpt>
      <trkpt lat="45.17528" lon="5.62394">
        <ele>1132.8</ele>
        <time>2021-04-23T10:27:49.000Z</time>
      </trkpt>
      <trkpt lat="45.1753" lon="5.62394">
        <ele>1132.8</ele>
        <time>2021-04-23T10:27:50.000Z</time>
      </trkpt>
      <trkpt lat="45.17532" lon="5.62394">
        <ele>1132.8</ele>
        <time>2021-04-23T10:27:51.000Z</time>
      </trkpt>
      <trkpt lat="45.17534" lon="5.62394">
        <ele>1132.8</ele>
        <time>2021-04-23T10:27:52.000Z</time>
      </trkpt>
      <trkpt lat="45.17537" lon="5.62393">
        <ele>1132.8</ele>
        <time>2021-04-23T10:27:53.000Z</time>
      </trkpt>
      <trkpt lat="45.17539" lon="5.62393">
        <ele>1132.4</ele>
        <time>2021-04-23T10:27:54.000Z</time>
      </trkpt>
      <trkpt lat="45.17542" lon="5.62391">
        <ele>1132.2</ele>
        <time>2021-04-23T10:27:55.000Z</time>
      </trkpt>
      <trkpt lat="45.17545" lon="5.6239">
        <ele>1132.2</ele>
        <time>2021-04-23T10:27:56.000Z</time>
      </trkpt>
      <trkpt lat="45.17547" lon="5.62388">
        <ele>1132</ele>
        <time>2021-04-23T10:27:57.000Z</time>
      </trkpt>
      <trkpt lat="45.17549" lon="5.62387">
        <ele>1131.8</ele>
        <time>2021-04-23T10:27:58.000Z</time>
      </trkpt>
      <trkpt lat="45.1755" lon="5.62385">
        <ele>1131.8</ele>
        <time>2021-04-23T10:27:59.000Z</time>
      </trkpt>
      <trkpt lat="45.17552" lon="5.62384">
        <ele>1131.6</ele>
        <time>2021-04-23T10:28:00.000Z</time>
      </trkpt>
      <trkpt lat="45.17553" lon="5.62383">
        <ele>1131.4</ele>
        <time>2021-04-23T10:28:01.000Z</time>
      </trkpt>
      <trkpt lat="45.17557" lon="5.62381">
        <ele>1130.8</ele>
        <time>2021-04-23T10:28:03.000Z</time>
      </trkpt>
      <trkpt lat="45.17564" lon="5.62379">
        <ele>1129.8</ele>
        <time>2021-04-23T10:28:06.000Z</time>
      </trkpt>
      <trkpt lat="45.17566" lon="5.62381">
        <ele>1129.2</ele>
        <time>2021-04-23T10:28:07.000Z</time>
      </trkpt>
      <trkpt lat="45.17567" lon="5.62383">
        <ele>1129</ele>
        <time>2021-04-23T10:28:08.000Z</time>
      </trkpt>
      <trkpt lat="45.17568" lon="5.62386">
        <ele>1128.8</ele>
        <time>2021-04-23T10:28:09.000Z</time>
      </trkpt>
      <trkpt lat="45.17569" lon="5.62388">
        <ele>1128.6</ele>
        <time>2021-04-23T10:28:10.000Z</time>
      </trkpt>
      <trkpt lat="45.17571" lon="5.62391">
        <ele>1128.6</ele>
        <time>2021-04-23T10:28:11.000Z</time>
      </trkpt>
      <trkpt lat="45.17574" lon="5.62394">
        <ele>1128.2</ele>
        <time>2021-04-23T10:28:13.000Z</time>
      </trkpt>
      <trkpt lat="45.17576" lon="5.62396">
        <ele>1128.2</ele>
        <time>2021-04-23T10:28:14.000Z</time>
      </trkpt>
      <trkpt lat="45.17578" lon="5.62398">
        <ele>1128</ele>
        <time>2021-04-23T10:28:15.000Z</time>
      </trkpt>
      <trkpt lat="45.17583" lon="5.62404">
        <ele>1128.4</ele>
        <time>2021-04-23T10:28:18.000Z</time>
      </trkpt>
      <trkpt lat="45.17585" lon="5.62412">
        <ele>1129</ele>
        <time>2021-04-23T10:28:20.000Z</time>
      </trkpt>
      <trkpt lat="45.17586" lon="5.62413">
        <ele>1129</ele>
        <time>2021-04-23T10:28:21.000Z</time>
      </trkpt>
      <trkpt lat="45.17587" lon="5.62415">
        <ele>1129.2</ele>
        <time>2021-04-23T10:28:22.000Z</time>
      </trkpt>
      <trkpt lat="45.17589" lon="5.62417">
        <ele>1129.6</ele>
        <time>2021-04-23T10:28:23.000Z</time>
      </trkpt>
      <trkpt lat="45.1759" lon="5.6242">
        <ele>1130</ele>
        <time>2021-04-23T10:28:24.000Z</time>
      </trkpt>
      <trkpt lat="45.17592" lon="5.62422">
        <ele>1130.4</ele>
        <time>2021-04-23T10:28:25.000Z</time>
      </trkpt>
      <trkpt lat="45.17593" lon="5.62425">
        <ele>1130.6</ele>
        <time>2021-04-23T10:28:26.000Z</time>
      </trkpt>
      <trkpt lat="45.17594" lon="5.62429">
        <ele>1131</ele>
        <time>2021-04-23T10:28:27.000Z</time>
      </trkpt>
      <trkpt lat="45.17595" lon="5.62431">
        <ele>1131.4</ele>
        <time>2021-04-23T10:28:28.000Z</time>
      </trkpt>
      <trkpt lat="45.17597" lon="5.62435">
        <ele>1132</ele>
        <time>2021-04-23T10:28:30.000Z</time>
      </trkpt>
      <trkpt lat="45.17598" lon="5.62438">
        <ele>1132.2</ele>
        <time>2021-04-23T10:28:31.000Z</time>
      </trkpt>
      <trkpt lat="45.17599" lon="5.62441">
        <ele>1132.6</ele>
        <time>2021-04-23T10:28:32.000Z</time>
      </trkpt>
      <trkpt lat="45.176" lon="5.62442">
        <ele>1132.6</ele>
        <time>2021-04-23T10:28:33.000Z</time>
      </trkpt>
      <trkpt lat="45.176" lon="5.62442">
        <ele>1132.8</ele>
        <time>2021-04-23T10:28:34.000Z</time>
      </trkpt>
      <trkpt lat="45.176" lon="5.62444">
        <ele>1133</ele>
        <time>2021-04-23T10:28:35.000Z</time>
      </trkpt>
      <trkpt lat="45.17601" lon="5.62445">
        <ele>1133</ele>
        <time>2021-04-23T10:28:36.000Z</time>
      </trkpt>
      <trkpt lat="45.17602" lon="5.62447">
        <ele>1133</ele>
        <time>2021-04-23T10:28:37.000Z</time>
      </trkpt>
      <trkpt lat="45.17602" lon="5.6245">
        <ele>1133.2</ele>
        <time>2021-04-23T10:28:38.000Z</time>
      </trkpt>
      <trkpt lat="45.17602" lon="5.62452">
        <ele>1133.2</ele>
        <time>2021-04-23T10:28:39.000Z</time>
      </trkpt>
      <trkpt lat="45.17603" lon="5.62456">
        <ele>1133.2</ele>
        <time>2021-04-23T10:28:40.000Z</time>
      </trkpt>
      <trkpt lat="45.17604" lon="5.62459">
        <ele>1133.4</ele>
        <time>2021-04-23T10:28:41.000Z</time>
      </trkpt>
      <trkpt lat="45.17604" lon="5.6246">
        <ele>1133.4</ele>
        <time>2021-04-23T10:28:42.000Z</time>
      </trkpt>
      <trkpt lat="45.17605" lon="5.62461">
        <ele>1133.4</ele>
        <time>2021-04-23T10:28:43.000Z</time>
      </trkpt>
      <trkpt lat="45.17606" lon="5.62463">
        <ele>1133.4</ele>
        <time>2021-04-23T10:28:44.000Z</time>
      </trkpt>
      <trkpt lat="45.17607" lon="5.62465">
        <ele>1133.4</ele>
        <time>2021-04-23T10:28:45.000Z</time>
      </trkpt>
      <trkpt lat="45.17607" lon="5.62468">
        <ele>1133.4</ele>
        <time>2021-04-23T10:28:46.000Z</time>
      </trkpt>
      <trkpt lat="45.17607" lon="5.62469">
        <ele>1133.4</ele>
        <time>2021-04-23T10:28:47.000Z</time>
      </trkpt>
      <trkpt lat="45.17608" lon="5.62471">
        <ele>1133.2</ele>
        <time>2021-04-23T10:28:48.000Z</time>
      </trkpt>
      <trkpt lat="45.17609" lon="5.62473">
        <ele>1133.2</ele>
        <time>2021-04-23T10:28:49.000Z</time>
      </trkpt>
      <trkpt lat="45.1761" lon="5.62475">
        <ele>1133.4</ele>
        <time>2021-04-23T10:28:50.000Z</time>
      </trkpt>
      <trkpt lat="45.17611" lon="5.62474">
        <ele>1133.4</ele>
        <time>2021-04-23T10:28:51.000Z</time>
      </trkpt>
      <trkpt lat="45.17611" lon="5.62472">
        <ele>1133.4</ele>
        <time>2021-04-23T10:28:52.000Z</time>
      </trkpt>
      <trkpt lat="45.17613" lon="5.62468">
        <ele>1133.4</ele>
        <time>2021-04-23T10:28:53.000Z</time>
      </trkpt>
      <trkpt lat="45.17621" lon="5.62453">
        <ele>1133.4</ele>
        <time>2021-04-23T10:28:59.000Z</time>
      </trkpt>
      <trkpt lat="45.17623" lon="5.62446">
        <ele>1133.6</ele>
        <time>2021-04-23T10:29:03.000Z</time>
      </trkpt>
      <trkpt lat="45.17624" lon="5.62445">
        <ele>1133.6</ele>
        <time>2021-04-23T10:29:04.000Z</time>
      </trkpt>
      <trkpt lat="45.17625" lon="5.62443">
        <ele>1133.6</ele>
        <time>2021-04-23T10:29:05.000Z</time>
      </trkpt>
      <trkpt lat="45.17626" lon="5.6244">
        <ele>1133.8</ele>
        <time>2021-04-23T10:29:06.000Z</time>
      </trkpt>
      <trkpt lat="45.17627" lon="5.62436">
        <ele>1133.8</ele>
        <time>2021-04-23T10:29:07.000Z</time>
      </trkpt>
      <trkpt lat="45.17626" lon="5.62433">
        <ele>1133.8</ele>
        <time>2021-04-23T10:29:08.000Z</time>
      </trkpt>
      <trkpt lat="45.17628" lon="5.6243">
        <ele>1133.8</ele>
        <time>2021-04-23T10:29:09.000Z</time>
      </trkpt>
      <trkpt lat="45.17631" lon="5.62423">
        <ele>1134</ele>
        <time>2021-04-23T10:29:11.000Z</time>
      </trkpt>
      <trkpt lat="45.17632" lon="5.62421">
        <ele>1134</ele>
        <time>2021-04-23T10:29:12.000Z</time>
      </trkpt>
      <trkpt lat="45.17633" lon="5.62419">
        <ele>1134.2</ele>
        <time>2021-04-23T10:29:13.000Z</time>
      </trkpt>
      <trkpt lat="45.17634" lon="5.62417">
        <ele>1134.4</ele>
        <time>2021-04-23T10:29:14.000Z</time>
      </trkpt>
      <trkpt lat="45.17636" lon="5.62411">
        <ele>1134.6</ele>
        <time>2021-04-23T10:29:16.000Z</time>
      </trkpt>
      <trkpt lat="45.17638" lon="5.62409">
        <ele>1134.8</ele>
        <time>2021-04-23T10:29:17.000Z</time>
      </trkpt>
      <trkpt lat="45.1764" lon="5.62408">
        <ele>1135</ele>
        <time>2021-04-23T10:29:18.000Z</time>
      </trkpt>
      <trkpt lat="45.17643" lon="5.62407">
        <ele>1135.2</ele>
        <time>2021-04-23T10:29:19.000Z</time>
      </trkpt>
      <trkpt lat="45.17644" lon="5.62407">
        <ele>1135.4</ele>
        <time>2021-04-23T10:29:20.000Z</time>
      </trkpt>
      <trkpt lat="45.17646" lon="5.62406">
        <ele>1135.4</ele>
        <time>2021-04-23T10:29:21.000Z</time>
      </trkpt>
      <trkpt lat="45.17647" lon="5.62405">
        <ele>1135.6</ele>
        <time>2021-04-23T10:29:22.000Z</time>
      </trkpt>
      <trkpt lat="45.17649" lon="5.62405">
        <ele>1135.6</ele>
        <time>2021-04-23T10:29:23.000Z</time>
      </trkpt>
      <trkpt lat="45.1765" lon="5.62405">
        <ele>1135.8</ele>
        <time>2021-04-23T10:29:24.000Z</time>
      </trkpt>
      <trkpt lat="45.1765" lon="5.62405">
        <ele>1135.8</ele>
        <time>2021-04-23T10:29:25.000Z</time>
      </trkpt>
      <trkpt lat="45.1765" lon="5.62405">
        <ele>1135.8</ele>
        <time>2021-04-23T10:29:26.000Z</time>
      </trkpt>
      <trkpt lat="45.17651" lon="5.62406">
        <ele>1135.8</ele>
        <time>2021-04-23T10:29:36.000Z</time>
      </trkpt>
      <trkpt lat="45.17651" lon="5.62408">
        <ele>1135.8</ele>
        <time>2021-04-23T10:29:37.000Z</time>
      </trkpt>
      <trkpt lat="45.17651" lon="5.62409">
        <ele>1135.8</ele>
        <time>2021-04-23T10:29:38.000Z</time>
      </trkpt>
      <trkpt lat="45.1765" lon="5.62412">
        <ele>1135.8</ele>
        <time>2021-04-23T10:29:39.000Z</time>
      </trkpt>
      <trkpt lat="45.17646" lon="5.62418">
        <ele>1134.8</ele>
        <time>2021-04-23T10:29:41.000Z</time>
      </trkpt>
      <trkpt lat="45.17645" lon="5.62421">
        <ele>1134.4</ele>
        <time>2021-04-23T10:29:42.000Z</time>
      </trkpt>
      <trkpt lat="45.17644" lon="5.62424">
        <ele>1134.2</ele>
        <time>2021-04-23T10:29:43.000Z</time>
      </trkpt>
      <trkpt lat="45.17644" lon="5.62427">
        <ele>1133.8</ele>
        <time>2021-04-23T10:29:44.000Z</time>
      </trkpt>
      <trkpt lat="45.17645" lon="5.6243">
        <ele>1133.6</ele>
        <time>2021-04-23T10:29:45.000Z</time>
      </trkpt>
      <trkpt lat="45.17647" lon="5.62434">
        <ele>1133.4</ele>
        <time>2021-04-23T10:29:46.000Z</time>
      </trkpt>
      <trkpt lat="45.17649" lon="5.62442">
        <ele>1133</ele>
        <time>2021-04-23T10:29:48.000Z</time>
      </trkpt>
      <trkpt lat="45.1765" lon="5.6245">
        <ele>1132.6</ele>
        <time>2021-04-23T10:29:50.000Z</time>
      </trkpt>
      <trkpt lat="45.17651" lon="5.62455">
        <ele>1132.2</ele>
        <time>2021-04-23T10:29:51.000Z</time>
      </trkpt>
      <trkpt lat="45.17651" lon="5.62459">
        <ele>1131.6</ele>
        <time>2021-04-23T10:29:52.000Z</time>
      </trkpt>
      <trkpt lat="45.17653" lon="5.62464">
        <ele>1130.8</ele>
        <time>2021-04-23T10:29:53.000Z</time>
      </trkpt>
      <trkpt lat="45.17654" lon="5.62468">
        <ele>1130.4</ele>
        <time>2021-04-23T10:29:54.000Z</time>
      </trkpt>
      <trkpt lat="45.17655" lon="5.62472">
        <ele>1130.2</ele>
        <time>2021-04-23T10:29:55.000Z</time>
      </trkpt>
      <trkpt lat="45.17656" lon="5.6248">
        <ele>1130</ele>
        <time>2021-04-23T10:29:57.000Z</time>
      </trkpt>
      <trkpt lat="45.17658" lon="5.62484">
        <ele>1130</ele>
        <time>2021-04-23T10:29:58.000Z</time>
      </trkpt>
      <trkpt lat="45.1766" lon="5.62488">
        <ele>1129.8</ele>
        <time>2021-04-23T10:29:59.000Z</time>
      </trkpt>
      <trkpt lat="45.17662" lon="5.62491">
        <ele>1129.4</ele>
        <time>2021-04-23T10:30:00.000Z</time>
      </trkpt>
      <trkpt lat="45.17667" lon="5.62496">
        <ele>1128.4</ele>
        <time>2021-04-23T10:30:02.000Z</time>
      </trkpt>
      <trkpt lat="45.17669" lon="5.62497">
        <ele>1127.8</ele>
        <time>2021-04-23T10:30:03.000Z</time>
      </trkpt>
      <trkpt lat="45.17672" lon="5.62498">
        <ele>1127.4</ele>
        <time>2021-04-23T10:30:04.000Z</time>
      </trkpt>
      <trkpt lat="45.17674" lon="5.625">
        <ele>1126.8</ele>
        <time>2021-04-23T10:30:05.000Z</time>
      </trkpt>
      <trkpt lat="45.17676" lon="5.62504">
        <ele>1126.4</ele>
        <time>2021-04-23T10:30:06.000Z</time>
      </trkpt>
      <trkpt lat="45.1768" lon="5.62507">
        <ele>1126</ele>
        <time>2021-04-23T10:30:07.000Z</time>
      </trkpt>
      <trkpt lat="45.17684" lon="5.62513">
        <ele>1125.6</ele>
        <time>2021-04-23T10:30:08.000Z</time>
      </trkpt>
      <trkpt lat="45.17688" lon="5.62517">
        <ele>1124.2</ele>
        <time>2021-04-23T10:30:09.000Z</time>
      </trkpt>
      <trkpt lat="45.17692" lon="5.62526">
        <ele>1123.6</ele>
        <time>2021-04-23T10:30:10.000Z</time>
      </trkpt>
      <trkpt lat="45.17695" lon="5.62533">
        <ele>1123</ele>
        <time>2021-04-23T10:30:11.000Z</time>
      </trkpt>
      <trkpt lat="45.17699" lon="5.62542">
        <ele>1122</ele>
        <time>2021-04-23T10:30:12.000Z</time>
      </trkpt>
      <trkpt lat="45.177" lon="5.62549">
        <ele>1120.8</ele>
        <time>2021-04-23T10:30:13.000Z</time>
      </trkpt>
      <trkpt lat="45.177" lon="5.62555">
        <ele>1119.6</ele>
        <time>2021-04-23T10:30:14.000Z</time>
      </trkpt>
      <trkpt lat="45.177" lon="5.62559">
        <ele>1118.8</ele>
        <time>2021-04-23T10:30:15.000Z</time>
      </trkpt>
      <trkpt lat="45.17699" lon="5.62566">
        <ele>1118.4</ele>
        <time>2021-04-23T10:30:16.000Z</time>
      </trkpt>
      <trkpt lat="45.17699" lon="5.62569">
        <ele>1118.2</ele>
        <time>2021-04-23T10:30:17.000Z</time>
      </trkpt>
      <trkpt lat="45.17701" lon="5.6257">
        <ele>1117.8</ele>
        <time>2021-04-23T10:30:18.000Z</time>
      </trkpt>
      <trkpt lat="45.17703" lon="5.62572">
        <ele>1117.6</ele>
        <time>2021-04-23T10:30:19.000Z</time>
      </trkpt>
      <trkpt lat="45.17705" lon="5.62575">
        <ele>1117.2</ele>
        <time>2021-04-23T10:30:20.000Z</time>
      </trkpt>
      <trkpt lat="45.17706" lon="5.6258">
        <ele>1116.4</ele>
        <time>2021-04-23T10:30:21.000Z</time>
      </trkpt>
      <trkpt lat="45.17704" lon="5.62584">
        <ele>1114.8</ele>
        <time>2021-04-23T10:30:22.000Z</time>
      </trkpt>
      <trkpt lat="45.17699" lon="5.6259">
        <ele>1112.8</ele>
        <time>2021-04-23T10:30:24.000Z</time>
      </trkpt>
      <trkpt lat="45.17697" lon="5.62593">
        <ele>1112</ele>
        <time>2021-04-23T10:30:25.000Z</time>
      </trkpt>
      <trkpt lat="45.17698" lon="5.62596">
        <ele>1111.2</ele>
        <time>2021-04-23T10:30:26.000Z</time>
      </trkpt>
      <trkpt lat="45.177" lon="5.62597">
        <ele>1110.6</ele>
        <time>2021-04-23T10:30:27.000Z</time>
      </trkpt>
      <trkpt lat="45.17703" lon="5.62598">
        <ele>1110.2</ele>
        <time>2021-04-23T10:30:28.000Z</time>
      </trkpt>
      <trkpt lat="45.17707" lon="5.62601">
        <ele>1109.4</ele>
        <time>2021-04-23T10:30:30.000Z</time>
      </trkpt>
      <trkpt lat="45.17708" lon="5.62602">
        <ele>1109.2</ele>
        <time>2021-04-23T10:30:31.000Z</time>
      </trkpt>
      <trkpt lat="45.17707" lon="5.62606">
        <ele>1108.6</ele>
        <time>2021-04-23T10:30:32.000Z</time>
      </trkpt>
      <trkpt lat="45.17706" lon="5.62609">
        <ele>1107.8</ele>
        <time>2021-04-23T10:30:33.000Z</time>
      </trkpt>
      <trkpt lat="45.17704" lon="5.62611">
        <ele>1107.2</ele>
        <time>2021-04-23T10:30:34.000Z</time>
      </trkpt>
      <trkpt lat="45.17701" lon="5.62619">
        <ele>1106.8</ele>
        <time>2021-04-23T10:30:36.000Z</time>
      </trkpt>
      <trkpt lat="45.177" lon="5.62619">
        <ele>1106.4</ele>
        <time>2021-04-23T10:30:37.000Z</time>
      </trkpt>
      <trkpt lat="45.17701" lon="5.62618">
        <ele>1106</ele>
        <time>2021-04-23T10:30:38.000Z</time>
      </trkpt>
      <trkpt lat="45.17703" lon="5.62618">
        <ele>1106</ele>
        <time>2021-04-23T10:30:39.000Z</time>
      </trkpt>
      <trkpt lat="45.17709" lon="5.6262">
        <ele>1105.2</ele>
        <time>2021-04-23T10:30:41.000Z</time>
      </trkpt>
      <trkpt lat="45.1771" lon="5.62625">
        <ele>1104.2</ele>
        <time>2021-04-23T10:30:42.000Z</time>
      </trkpt>
      <trkpt lat="45.1771" lon="5.62631">
        <ele>1103.4</ele>
        <time>2021-04-23T10:30:44.000Z</time>
      </trkpt>
      <trkpt lat="45.1771" lon="5.62632">
        <ele>1103</ele>
        <time>2021-04-23T10:30:45.000Z</time>
      </trkpt>
      <trkpt lat="45.17712" lon="5.62632">
        <ele>1102.6</ele>
        <time>2021-04-23T10:30:46.000Z</time>
      </trkpt>
      <trkpt lat="45.17716" lon="5.62638">
        <ele>1101.4</ele>
        <time>2021-04-23T10:30:48.000Z</time>
      </trkpt>
      <trkpt lat="45.17717" lon="5.62643">
        <ele>1100.6</ele>
        <time>2021-04-23T10:30:49.000Z</time>
      </trkpt>
      <trkpt lat="45.17717" lon="5.62651">
        <ele>1098.8</ele>
        <time>2021-04-23T10:30:50.000Z</time>
      </trkpt>
      <trkpt lat="45.17718" lon="5.62657">
        <ele>1097.4</ele>
        <time>2021-04-23T10:30:51.000Z</time>
      </trkpt>
      <trkpt lat="45.1772" lon="5.62663">
        <ele>1095.8</ele>
        <time>2021-04-23T10:30:52.000Z</time>
      </trkpt>
      <trkpt lat="45.17722" lon="5.62668">
        <ele>1094.8</ele>
        <time>2021-04-23T10:30:53.000Z</time>
      </trkpt>
      <trkpt lat="45.17725" lon="5.62673">
        <ele>1094.4</ele>
        <time>2021-04-23T10:30:54.000Z</time>
      </trkpt>
      <trkpt lat="45.17727" lon="5.62678">
        <ele>1093.8</ele>
        <time>2021-04-23T10:30:55.000Z</time>
      </trkpt>
      <trkpt lat="45.17728" lon="5.62685">
        <ele>1093</ele>
        <time>2021-04-23T10:30:56.000Z</time>
      </trkpt>
      <trkpt lat="45.17728" lon="5.62691">
        <ele>1091.8</ele>
        <time>2021-04-23T10:30:57.000Z</time>
      </trkpt>
      <trkpt lat="45.17729" lon="5.62697">
        <ele>1090.8</ele>
        <time>2021-04-23T10:30:58.000Z</time>
      </trkpt>
      <trkpt lat="45.17731" lon="5.62701">
        <ele>1090</ele>
        <time>2021-04-23T10:30:59.000Z</time>
      </trkpt>
      <trkpt lat="45.17732" lon="5.62706">
        <ele>1089.2</ele>
        <time>2021-04-23T10:31:00.000Z</time>
      </trkpt>
      <trkpt lat="45.17731" lon="5.62716">
        <ele>1088.2</ele>
        <time>2021-04-23T10:31:02.000Z</time>
      </trkpt>
      <trkpt lat="45.17732" lon="5.62718">
        <ele>1088</ele>
        <time>2021-04-23T10:31:03.000Z</time>
      </trkpt>
      <trkpt lat="45.17733" lon="5.62721">
        <ele>1087.6</ele>
        <time>2021-04-23T10:31:04.000Z</time>
      </trkpt>
      <trkpt lat="45.17734" lon="5.62725">
        <ele>1086.8</ele>
        <time>2021-04-23T10:31:05.000Z</time>
      </trkpt>
      <trkpt lat="45.17735" lon="5.62729">
        <ele>1086.2</ele>
        <time>2021-04-23T10:31:06.000Z</time>
      </trkpt>
      <trkpt lat="45.17737" lon="5.62734">
        <ele>1086</ele>
        <time>2021-04-23T10:31:07.000Z</time>
      </trkpt>
      <trkpt lat="45.17738" lon="5.6274">
        <ele>1085.8</ele>
        <time>2021-04-23T10:31:08.000Z</time>
      </trkpt>
      <trkpt lat="45.17738" lon="5.62745">
        <ele>1085.4</ele>
        <time>2021-04-23T10:31:09.000Z</time>
      </trkpt>
      <trkpt lat="45.17738" lon="5.62751">
        <ele>1085.2</ele>
        <time>2021-04-23T10:31:10.000Z</time>
      </trkpt>
      <trkpt lat="45.1774" lon="5.62753">
        <ele>1085</ele>
        <time>2021-04-23T10:31:11.000Z</time>
      </trkpt>
      <trkpt lat="45.17741" lon="5.62756">
        <ele>1084.6</ele>
        <time>2021-04-23T10:31:12.000Z</time>
      </trkpt>
      <trkpt lat="45.17743" lon="5.62759">
        <ele>1084.2</ele>
        <time>2021-04-23T10:31:13.000Z</time>
      </trkpt>
      <trkpt lat="45.17745" lon="5.62762">
        <ele>1084</ele>
        <time>2021-04-23T10:31:14.000Z</time>
      </trkpt>
      <trkpt lat="45.17746" lon="5.62766">
        <ele>1083.6</ele>
        <time>2021-04-23T10:31:15.000Z</time>
      </trkpt>
      <trkpt lat="45.17747" lon="5.62769">
        <ele>1083.4</ele>
        <time>2021-04-23T10:31:16.000Z</time>
      </trkpt>
      <trkpt lat="45.17748" lon="5.62771">
        <ele>1083</ele>
        <time>2021-04-23T10:31:17.000Z</time>
      </trkpt>
      <trkpt lat="45.17749" lon="5.62774">
        <ele>1082.8</ele>
        <time>2021-04-23T10:31:18.000Z</time>
      </trkpt>
      <trkpt lat="45.17749" lon="5.62779">
        <ele>1082.6</ele>
        <time>2021-04-23T10:31:19.000Z</time>
      </trkpt>
      <trkpt lat="45.17749" lon="5.62783">
        <ele>1082.4</ele>
        <time>2021-04-23T10:31:20.000Z</time>
      </trkpt>
      <trkpt lat="45.17749" lon="5.62787">
        <ele>1082</ele>
        <time>2021-04-23T10:31:21.000Z</time>
      </trkpt>
      <trkpt lat="45.1775" lon="5.6279">
        <ele>1081.2</ele>
        <time>2021-04-23T10:31:22.000Z</time>
      </trkpt>
      <trkpt lat="45.17751" lon="5.62794">
        <ele>1080.6</ele>
        <time>2021-04-23T10:31:23.000Z</time>
      </trkpt>
      <trkpt lat="45.17753" lon="5.62797">
        <ele>1080.2</ele>
        <time>2021-04-23T10:31:24.000Z</time>
      </trkpt>
      <trkpt lat="45.17756" lon="5.628">
        <ele>1079.2</ele>
        <time>2021-04-23T10:31:25.000Z</time>
      </trkpt>
      <trkpt lat="45.17757" lon="5.62804">
        <ele>1078.8</ele>
        <time>2021-04-23T10:31:26.000Z</time>
      </trkpt>
      <trkpt lat="45.17758" lon="5.62808">
        <ele>1078.4</ele>
        <time>2021-04-23T10:31:27.000Z</time>
      </trkpt>
      <trkpt lat="45.17757" lon="5.62811">
        <ele>1078.4</ele>
        <time>2021-04-23T10:31:28.000Z</time>
      </trkpt>
      <trkpt lat="45.17756" lon="5.62813">
        <ele>1078</ele>
        <time>2021-04-23T10:31:29.000Z</time>
      </trkpt>
      <trkpt lat="45.17754" lon="5.62814">
        <ele>1077.6</ele>
        <time>2021-04-23T10:31:30.000Z</time>
      </trkpt>
      <trkpt lat="45.17749" lon="5.62819">
        <ele>1077.4</ele>
        <time>2021-04-23T10:31:32.000Z</time>
      </trkpt>
      <trkpt lat="45.17747" lon="5.62823">
        <ele>1077.8</ele>
        <time>2021-04-23T10:31:33.000Z</time>
      </trkpt>
      <trkpt lat="45.17747" lon="5.62825">
        <ele>1078</ele>
        <time>2021-04-23T10:31:34.000Z</time>
      </trkpt>
      <trkpt lat="45.17747" lon="5.62826">
        <ele>1078</ele>
        <time>2021-04-23T10:31:35.000Z</time>
      </trkpt>
      <trkpt lat="45.17746" lon="5.62827">
        <ele>1078.2</ele>
        <time>2021-04-23T10:31:36.000Z</time>
      </trkpt>
      <trkpt lat="45.17747" lon="5.62829">
        <ele>1078.2</ele>
        <time>2021-04-23T10:31:37.000Z</time>
      </trkpt>
      <trkpt lat="45.17747" lon="5.62831">
        <ele>1078.2</ele>
        <time>2021-04-23T10:31:38.000Z</time>
      </trkpt>
      <trkpt lat="45.17748" lon="5.62832">
        <ele>1078.2</ele>
        <time>2021-04-23T10:31:39.000Z</time>
      </trkpt>
      <trkpt lat="45.17748" lon="5.62836">
        <ele>1078</ele>
        <time>2021-04-23T10:31:41.000Z</time>
      </trkpt>
      <trkpt lat="45.17747" lon="5.62839">
        <ele>1077.8</ele>
        <time>2021-04-23T10:31:42.000Z</time>
      </trkpt>
      <trkpt lat="45.17746" lon="5.62841">
        <ele>1077.6</ele>
        <time>2021-04-23T10:31:43.000Z</time>
      </trkpt>
      <trkpt lat="45.17745" lon="5.62844">
        <ele>1077.4</ele>
        <time>2021-04-23T10:31:44.000Z</time>
      </trkpt>
      <trkpt lat="45.17744" lon="5.62846">
        <ele>1077.4</ele>
        <time>2021-04-23T10:31:45.000Z</time>
      </trkpt>
      <trkpt lat="45.17744" lon="5.62848">
        <ele>1077.2</ele>
        <time>2021-04-23T10:31:46.000Z</time>
      </trkpt>
      <trkpt lat="45.17743" lon="5.6285">
        <ele>1077</ele>
        <time>2021-04-23T10:31:47.000Z</time>
      </trkpt>
      <trkpt lat="45.17743" lon="5.62853">
        <ele>1076.8</ele>
        <time>2021-04-23T10:31:48.000Z</time>
      </trkpt>
      <trkpt lat="45.17741" lon="5.62861">
        <ele>1076.6</ele>
        <time>2021-04-23T10:31:51.000Z</time>
      </trkpt>
      <trkpt lat="45.1774" lon="5.62863">
        <ele>1076.4</ele>
        <time>2021-04-23T10:31:52.000Z</time>
      </trkpt>
      <trkpt lat="45.1774" lon="5.62864">
        <ele>1076.4</ele>
        <time>2021-04-23T10:31:53.000Z</time>
      </trkpt>
      <trkpt lat="45.1774" lon="5.62865">
        <ele>1076.2</ele>
        <time>2021-04-23T10:31:54.000Z</time>
      </trkpt>
      <trkpt lat="45.17741" lon="5.62866">
        <ele>1076.2</ele>
        <time>2021-04-23T10:31:55.000Z</time>
      </trkpt>
      <trkpt lat="45.17742" lon="5.62865">
        <ele>1076</ele>
        <time>2021-04-23T10:31:56.000Z</time>
      </trkpt>
      <trkpt lat="45.17743" lon="5.62865">
        <ele>1075.6</ele>
        <time>2021-04-23T10:31:57.000Z</time>
      </trkpt>
      <trkpt lat="45.17745" lon="5.62866">
        <ele>1075.2</ele>
        <time>2021-04-23T10:31:58.000Z</time>
      </trkpt>
      <trkpt lat="45.17746" lon="5.62868">
        <ele>1074.2</ele>
        <time>2021-04-23T10:31:59.000Z</time>
      </trkpt>
      <trkpt lat="45.17747" lon="5.6287">
        <ele>1073.4</ele>
        <time>2021-04-23T10:32:00.000Z</time>
      </trkpt>
      <trkpt lat="45.17749" lon="5.62872">
        <ele>1072.4</ele>
        <time>2021-04-23T10:32:01.000Z</time>
      </trkpt>
      <trkpt lat="45.17752" lon="5.62874">
        <ele>1071</ele>
        <time>2021-04-23T10:32:02.000Z</time>
      </trkpt>
      <trkpt lat="45.17754" lon="5.62878">
        <ele>1069.8</ele>
        <time>2021-04-23T10:32:03.000Z</time>
      </trkpt>
      <trkpt lat="45.17755" lon="5.62882">
        <ele>1068.8</ele>
        <time>2021-04-23T10:32:04.000Z</time>
      </trkpt>
      <trkpt lat="45.17756" lon="5.62886">
        <ele>1068.2</ele>
        <time>2021-04-23T10:32:05.000Z</time>
      </trkpt>
      <trkpt lat="45.17758" lon="5.62889">
        <ele>1067.8</ele>
        <time>2021-04-23T10:32:06.000Z</time>
      </trkpt>
      <trkpt lat="45.17758" lon="5.62893">
        <ele>1066.2</ele>
        <time>2021-04-23T10:32:07.000Z</time>
      </trkpt>
      <trkpt lat="45.17756" lon="5.62897">
        <ele>1065</ele>
        <time>2021-04-23T10:32:08.000Z</time>
      </trkpt>
      <trkpt lat="45.17756" lon="5.629">
        <ele>1063.8</ele>
        <time>2021-04-23T10:32:09.000Z</time>
      </trkpt>
      <trkpt lat="45.17754" lon="5.62904">
        <ele>1063.2</ele>
        <time>2021-04-23T10:32:10.000Z</time>
      </trkpt>
      <trkpt lat="45.17754" lon="5.62907">
        <ele>1063</ele>
        <time>2021-04-23T10:32:11.000Z</time>
      </trkpt>
      <trkpt lat="45.17753" lon="5.62909">
        <ele>1062.4</ele>
        <time>2021-04-23T10:32:12.000Z</time>
      </trkpt>
      <trkpt lat="45.17753" lon="5.6291">
        <ele>1061.8</ele>
        <time>2021-04-23T10:32:13.000Z</time>
      </trkpt>
      <trkpt lat="45.17753" lon="5.62909">
        <ele>1061.2</ele>
        <time>2021-04-23T10:32:14.000Z</time>
      </trkpt>
      <trkpt lat="45.17755" lon="5.62908">
        <ele>1060.4</ele>
        <time>2021-04-23T10:32:15.000Z</time>
      </trkpt>
      <trkpt lat="45.17757" lon="5.62907">
        <ele>1059.8</ele>
        <time>2021-04-23T10:32:16.000Z</time>
      </trkpt>
      <trkpt lat="45.17761" lon="5.62914">
        <ele>1058.6</ele>
        <time>2021-04-23T10:32:18.000Z</time>
      </trkpt>
      <trkpt lat="45.17762" lon="5.62925">
        <ele>1056.6</ele>
        <time>2021-04-23T10:32:20.000Z</time>
      </trkpt>
      <trkpt lat="45.17762" lon="5.62933">
        <ele>1055.2</ele>
        <time>2021-04-23T10:32:22.000Z</time>
      </trkpt>
      <trkpt lat="45.17762" lon="5.62935">
        <ele>1054.8</ele>
        <time>2021-04-23T10:32:23.000Z</time>
      </trkpt>
      <trkpt lat="45.17764" lon="5.62935">
        <ele>1054.2</ele>
        <time>2021-04-23T10:32:24.000Z</time>
      </trkpt>
      <trkpt lat="45.17764" lon="5.62935">
        <ele>1053.6</ele>
        <time>2021-04-23T10:32:25.000Z</time>
      </trkpt>
      <trkpt lat="45.17766" lon="5.62935">
        <ele>1052.8</ele>
        <time>2021-04-23T10:32:26.000Z</time>
      </trkpt>
      <trkpt lat="45.17766" lon="5.62937">
        <ele>1052</ele>
        <time>2021-04-23T10:32:27.000Z</time>
      </trkpt>
      <trkpt lat="45.17767" lon="5.6294">
        <ele>1051.4</ele>
        <time>2021-04-23T10:32:28.000Z</time>
      </trkpt>
      <trkpt lat="45.17768" lon="5.62943">
        <ele>1050.6</ele>
        <time>2021-04-23T10:32:29.000Z</time>
      </trkpt>
      <trkpt lat="45.17769" lon="5.62945">
        <ele>1050.2</ele>
        <time>2021-04-23T10:32:30.000Z</time>
      </trkpt>
      <trkpt lat="45.1777" lon="5.62947">
        <ele>1049.4</ele>
        <time>2021-04-23T10:32:31.000Z</time>
      </trkpt>
      <trkpt lat="45.17772" lon="5.62952">
        <ele>1047.4</ele>
        <time>2021-04-23T10:32:33.000Z</time>
      </trkpt>
      <trkpt lat="45.17773" lon="5.62954">
        <ele>1046.8</ele>
        <time>2021-04-23T10:32:34.000Z</time>
      </trkpt>
      <trkpt lat="45.17775" lon="5.62954">
        <ele>1046.6</ele>
        <time>2021-04-23T10:32:35.000Z</time>
      </trkpt>
      <trkpt lat="45.17776" lon="5.62955">
        <ele>1046.4</ele>
        <time>2021-04-23T10:32:36.000Z</time>
      </trkpt>
      <trkpt lat="45.17776" lon="5.62957">
        <ele>1046.8</ele>
        <time>2021-04-23T10:32:38.000Z</time>
      </trkpt>
      <trkpt lat="45.17775" lon="5.62958">
        <ele>1047</ele>
        <time>2021-04-23T10:32:39.000Z</time>
      </trkpt>
      <trkpt lat="45.17775" lon="5.62958">
        <ele>1047.2</ele>
        <time>2021-04-23T10:32:40.000Z</time>
      </trkpt>
      <trkpt lat="45.17775" lon="5.62958">
        <ele>1047.2</ele>
        <time>2021-04-23T10:32:41.000Z</time>
      </trkpt>
      <trkpt lat="45.17774" lon="5.62958">
        <ele>1047.4</ele>
        <time>2021-04-23T10:32:42.000Z</time>
      </trkpt>
      <trkpt lat="45.17774" lon="5.62958">
        <ele>1047.6</ele>
        <time>2021-04-23T10:32:43.000Z</time>
      </trkpt>
      <trkpt lat="45.17774" lon="5.62959">
        <ele>1047.8</ele>
        <time>2021-04-23T10:32:44.000Z</time>
      </trkpt>
      <trkpt lat="45.17774" lon="5.6296">
        <ele>1048</ele>
        <time>2021-04-23T10:32:45.000Z</time>
      </trkpt>
      <trkpt lat="45.17774" lon="5.62961">
        <ele>1048.4</ele>
        <time>2021-04-23T10:32:47.000Z</time>
      </trkpt>
      <trkpt lat="45.17774" lon="5.62962">
        <ele>1048.6</ele>
        <time>2021-04-23T10:32:48.000Z</time>
      </trkpt>
      <trkpt lat="45.17773" lon="5.62962">
        <ele>1048.8</ele>
        <time>2021-04-23T10:32:49.000Z</time>
      </trkpt>
      <trkpt lat="45.17773" lon="5.62963">
        <ele>1049</ele>
        <time>2021-04-23T10:32:50.000Z</time>
      </trkpt>
      <trkpt lat="45.17773" lon="5.62964">
        <ele>1049.2</ele>
        <time>2021-04-23T10:32:51.000Z</time>
      </trkpt>
      <trkpt lat="45.17773" lon="5.62965">
        <ele>1049.6</ele>
        <time>2021-04-23T10:32:52.000Z</time>
      </trkpt>
      <trkpt lat="45.17773" lon="5.62965">
        <ele>1049.8</ele>
        <time>2021-04-23T10:32:53.000Z</time>
      </trkpt>
      <trkpt lat="45.17773" lon="5.62966">
        <ele>1050</ele>
        <time>2021-04-23T10:32:54.000Z</time>
      </trkpt>
      <trkpt lat="45.17773" lon="5.62968">
        <ele>1050.2</ele>
        <time>2021-04-23T10:32:55.000Z</time>
      </trkpt>
      <trkpt lat="45.17773" lon="5.62969">
        <ele>1050.6</ele>
        <time>2021-04-23T10:32:56.000Z</time>
      </trkpt>
      <trkpt lat="45.17773" lon="5.6297">
        <ele>1050.8</ele>
        <time>2021-04-23T10:32:57.000Z</time>
      </trkpt>
      <trkpt lat="45.17774" lon="5.62975">
        <ele>1051.8</ele>
        <time>2021-04-23T10:33:01.000Z</time>
      </trkpt>
      <trkpt lat="45.17774" lon="5.62976">
        <ele>1051.8</ele>
        <time>2021-04-23T10:33:02.000Z</time>
      </trkpt>
      <trkpt lat="45.17775" lon="5.62979">
        <ele>1052.6</ele>
        <time>2021-04-23T10:33:05.000Z</time>
      </trkpt>
      <trkpt lat="45.17775" lon="5.6298">
        <ele>1052.8</ele>
        <time>2021-04-23T10:33:06.000Z</time>
      </trkpt>
      <trkpt lat="45.17775" lon="5.62981">
        <ele>1053</ele>
        <time>2021-04-23T10:33:07.000Z</time>
      </trkpt>
      <trkpt lat="45.17775" lon="5.62982">
        <ele>1053</ele>
        <time>2021-04-23T10:33:08.000Z</time>
      </trkpt>
      <trkpt lat="45.17775" lon="5.62984">
        <ele>1053.2</ele>
        <time>2021-04-23T10:33:09.000Z</time>
      </trkpt>
      <trkpt lat="45.17775" lon="5.62984">
        <ele>1053.4</ele>
        <time>2021-04-23T10:33:10.000Z</time>
      </trkpt>
      <trkpt lat="45.17775" lon="5.62985">
        <ele>1053.4</ele>
        <time>2021-04-23T10:33:11.000Z</time>
      </trkpt>
      <trkpt lat="45.17776" lon="5.62986">
        <ele>1053.6</ele>
        <time>2021-04-23T10:33:12.000Z</time>
      </trkpt>
      <trkpt lat="45.17776" lon="5.62987">
        <ele>1053.6</ele>
        <time>2021-04-23T10:33:13.000Z</time>
      </trkpt>
      <trkpt lat="45.17776" lon="5.62988">
        <ele>1053.6</ele>
        <time>2021-04-23T10:33:14.000Z</time>
      </trkpt>
      <trkpt lat="45.17776" lon="5.62988">
        <ele>1053.8</ele>
        <time>2021-04-23T10:33:15.000Z</time>
      </trkpt>
      <trkpt lat="45.17775" lon="5.62989">
        <ele>1054</ele>
        <time>2021-04-23T10:33:16.000Z</time>
      </trkpt>
      <trkpt lat="45.17775" lon="5.6299">
        <ele>1054.2</ele>
        <time>2021-04-23T10:33:17.000Z</time>
      </trkpt>
      <trkpt lat="45.17774" lon="5.62991">
        <ele>1054.4</ele>
        <time>2021-04-23T10:33:18.000Z</time>
      </trkpt>
      <trkpt lat="45.17774" lon="5.62991">
        <ele>1054.6</ele>
        <time>2021-04-23T10:33:19.000Z</time>
      </trkpt>
      <trkpt lat="45.17774" lon="5.62991">
        <ele>1054.8</ele>
        <time>2021-04-23T10:33:20.000Z</time>
      </trkpt>
      <trkpt lat="45.17774" lon="5.62991">
        <ele>1055.2</ele>
        <time>2021-04-23T10:33:22.000Z</time>
      </trkpt>
      <trkpt lat="45.17774" lon="5.62992">
        <ele>1055.4</ele>
        <time>2021-04-23T10:33:23.000Z</time>
      </trkpt>
      <trkpt lat="45.17774" lon="5.62993">
        <ele>1055.6</ele>
        <time>2021-04-23T10:33:24.000Z</time>
      </trkpt>
      <trkpt lat="45.17774" lon="5.62993">
        <ele>1055.8</ele>
        <time>2021-04-23T10:33:26.000Z</time>
      </trkpt>
      <trkpt lat="45.17774" lon="5.62993">
        <ele>1055.8</ele>
        <time>2021-04-23T10:33:29.000Z</time>
      </trkpt>
      <trkpt lat="45.17774" lon="5.62993">
        <ele>1055.8</ele>
        <time>2021-04-23T10:33:32.000Z</time>
      </trkpt>
      <trkpt lat="45.17774" lon="5.62993">
        <ele>1055.8</ele>
        <time>2021-04-23T10:33:33.000Z</time>
      </trkpt>
      <trkpt lat="45.17774" lon="5.62994">
        <ele>1056</ele>
        <time>2021-04-23T10:33:40.000Z</time>
      </trkpt>
      <trkpt lat="45.17774" lon="5.62995">
        <ele>1056</ele>
        <time>2021-04-23T10:33:41.000Z</time>
      </trkpt>
      <trkpt lat="45.17774" lon="5.62998">
        <ele>1056</ele>
        <time>2021-04-23T10:33:42.000Z</time>
      </trkpt>
      <trkpt lat="45.1777" lon="5.6301">
        <ele>1055.4</ele>
        <time>2021-04-23T10:33:46.000Z</time>
      </trkpt>
      <trkpt lat="45.17768" lon="5.63013">
        <ele>1055.4</ele>
        <time>2021-04-23T10:33:47.000Z</time>
      </trkpt>
      <trkpt lat="45.17767" lon="5.63016">
        <ele>1055.4</ele>
        <time>2021-04-23T10:33:48.000Z</time>
      </trkpt>
      <trkpt lat="45.17764" lon="5.63022">
        <ele>1055.6</ele>
        <time>2021-04-23T10:33:50.000Z</time>
      </trkpt>
      <trkpt lat="45.17758" lon="5.63032">
        <ele>1056</ele>
        <time>2021-04-23T10:33:54.000Z</time>
      </trkpt>
      <trkpt lat="45.17758" lon="5.63035">
        <ele>1056</ele>
        <time>2021-04-23T10:33:55.000Z</time>
      </trkpt>
      <trkpt lat="45.17752" lon="5.63047">
        <ele>1056</ele>
        <time>2021-04-23T10:33:59.000Z</time>
      </trkpt>
      <trkpt lat="45.17745" lon="5.63062">
        <ele>1056</ele>
        <time>2021-04-23T10:34:04.000Z</time>
      </trkpt>
      <trkpt lat="45.17741" lon="5.63072">
        <ele>1056.2</ele>
        <time>2021-04-23T10:34:07.000Z</time>
      </trkpt>
      <trkpt lat="45.1774" lon="5.63074">
        <ele>1056.2</ele>
        <time>2021-04-23T10:34:08.000Z</time>
      </trkpt>
      <trkpt lat="45.17736" lon="5.63083">
        <ele>1056.2</ele>
        <time>2021-04-23T10:34:11.000Z</time>
      </trkpt>
      <trkpt lat="45.17735" lon="5.63086">
        <ele>1056.2</ele>
        <time>2021-04-23T10:34:12.000Z</time>
      </trkpt>
      <trkpt lat="45.17734" lon="5.63089">
        <ele>1056.4</ele>
        <time>2021-04-23T10:34:13.000Z</time>
      </trkpt>
      <trkpt lat="45.17732" lon="5.63095">
        <ele>1056.6</ele>
        <time>2021-04-23T10:34:15.000Z</time>
      </trkpt>
      <trkpt lat="45.1773" lon="5.63097">
        <ele>1056.4</ele>
        <time>2021-04-23T10:34:16.000Z</time>
      </trkpt>
      <trkpt lat="45.17729" lon="5.631">
        <ele>1056.8</ele>
        <time>2021-04-23T10:34:17.000Z</time>
      </trkpt>
      <trkpt lat="45.17728" lon="5.63102">
        <ele>1056.8</ele>
        <time>2021-04-23T10:34:18.000Z</time>
      </trkpt>
      <trkpt lat="45.17726" lon="5.63105">
        <ele>1057</ele>
        <time>2021-04-23T10:34:19.000Z</time>
      </trkpt>
      <trkpt lat="45.17723" lon="5.63113">
        <ele>1057.2</ele>
        <time>2021-04-23T10:34:22.000Z</time>
      </trkpt>
      <trkpt lat="45.17716" lon="5.63126">
        <ele>1058</ele>
        <time>2021-04-23T10:34:27.000Z</time>
      </trkpt>
      <trkpt lat="45.17715" lon="5.63129">
        <ele>1058</ele>
        <time>2021-04-23T10:34:28.000Z</time>
      </trkpt>
      <trkpt lat="45.17714" lon="5.63131">
        <ele>1058</ele>
        <time>2021-04-23T10:34:29.000Z</time>
      </trkpt>
      <trkpt lat="45.17713" lon="5.63133">
        <ele>1058</ele>
        <time>2021-04-23T10:34:30.000Z</time>
      </trkpt>
      <trkpt lat="45.17712" lon="5.63135">
        <ele>1058</ele>
        <time>2021-04-23T10:34:31.000Z</time>
      </trkpt>
      <trkpt lat="45.17712" lon="5.63136">
        <ele>1058.2</ele>
        <time>2021-04-23T10:34:32.000Z</time>
      </trkpt>
      <trkpt lat="45.17712" lon="5.63136">
        <ele>1058.2</ele>
        <time>2021-04-23T10:34:33.000Z</time>
      </trkpt>
      <trkpt lat="45.17711" lon="5.63136">
        <ele>1058.4</ele>
        <time>2021-04-23T10:34:34.000Z</time>
      </trkpt>
      <trkpt lat="45.17711" lon="5.63137">
        <ele>1058.4</ele>
        <time>2021-04-23T10:34:36.000Z</time>
      </trkpt>
      <trkpt lat="45.17711" lon="5.63137">
        <ele>1058.4</ele>
        <time>2021-04-23T10:34:38.000Z</time>
      </trkpt>
      <trkpt lat="45.17711" lon="5.63139">
        <ele>1058.4</ele>
        <time>2021-04-23T10:34:42.000Z</time>
      </trkpt>
      <trkpt lat="45.17711" lon="5.6314">
        <ele>1058.4</ele>
        <time>2021-04-23T10:34:43.000Z</time>
      </trkpt>
      <trkpt lat="45.17711" lon="5.6314">
        <ele>1058.4</ele>
        <time>2021-04-23T10:34:44.000Z</time>
      </trkpt>
      <trkpt lat="45.17712" lon="5.63142">
        <ele>1058.4</ele>
        <time>2021-04-23T10:34:48.000Z</time>
      </trkpt>
      <trkpt lat="45.17713" lon="5.63144">
        <ele>1058.4</ele>
        <time>2021-04-23T10:34:49.000Z</time>
      </trkpt>
      <trkpt lat="45.17715" lon="5.63146">
        <ele>1058</ele>
        <time>2021-04-23T10:34:50.000Z</time>
      </trkpt>
      <trkpt lat="45.17717" lon="5.63148">
        <ele>1057.8</ele>
        <time>2021-04-23T10:34:51.000Z</time>
      </trkpt>
      <trkpt lat="45.17727" lon="5.63154">
        <ele>1057.2</ele>
        <time>2021-04-23T10:34:55.000Z</time>
      </trkpt>
      <trkpt lat="45.17735" lon="5.63156">
        <ele>1057</ele>
        <time>2021-04-23T10:34:58.000Z</time>
      </trkpt>
      <trkpt lat="45.17738" lon="5.63157">
        <ele>1057</ele>
        <time>2021-04-23T10:34:59.000Z</time>
      </trkpt>
      <trkpt lat="45.17741" lon="5.63157">
        <ele>1057.2</ele>
        <time>2021-04-23T10:35:00.000Z</time>
      </trkpt>
      <trkpt lat="45.17744" lon="5.63158">
        <ele>1057.2</ele>
        <time>2021-04-23T10:35:01.000Z</time>
      </trkpt>
      <trkpt lat="45.17747" lon="5.63158">
        <ele>1057.4</ele>
        <time>2021-04-23T10:35:02.000Z</time>
      </trkpt>
      <trkpt lat="45.17756" lon="5.6316">
        <ele>1058.4</ele>
        <time>2021-04-23T10:35:06.000Z</time>
      </trkpt>
      <trkpt lat="45.17758" lon="5.63161">
        <ele>1058.8</ele>
        <time>2021-04-23T10:35:07.000Z</time>
      </trkpt>
      <trkpt lat="45.1776" lon="5.63163">
        <ele>1059.4</ele>
        <time>2021-04-23T10:35:08.000Z</time>
      </trkpt>
      <trkpt lat="45.17762" lon="5.63164">
        <ele>1060</ele>
        <time>2021-04-23T10:35:09.000Z</time>
      </trkpt>
      <trkpt lat="45.17763" lon="5.63166">
        <ele>1060.2</ele>
        <time>2021-04-23T10:35:10.000Z</time>
      </trkpt>
      <trkpt lat="45.17765" lon="5.63169">
        <ele>1060.6</ele>
        <time>2021-04-23T10:35:11.000Z</time>
      </trkpt>
      <trkpt lat="45.17766" lon="5.63172">
        <ele>1061.2</ele>
        <time>2021-04-23T10:35:12.000Z</time>
      </trkpt>
      <trkpt lat="45.17767" lon="5.63174">
        <ele>1061.6</ele>
        <time>2021-04-23T10:35:13.000Z</time>
      </trkpt>
      <trkpt lat="45.17768" lon="5.63177">
        <ele>1061.8</ele>
        <time>2021-04-23T10:35:14.000Z</time>
      </trkpt>
      <trkpt lat="45.17769" lon="5.6318">
        <ele>1062.2</ele>
        <time>2021-04-23T10:35:15.000Z</time>
      </trkpt>
      <trkpt lat="45.17769" lon="5.63183">
        <ele>1062.4</ele>
        <time>2021-04-23T10:35:16.000Z</time>
      </trkpt>
      <trkpt lat="45.17769" lon="5.63187">
        <ele>1062.4</ele>
        <time>2021-04-23T10:35:17.000Z</time>
      </trkpt>
      <trkpt lat="45.17769" lon="5.6319">
        <ele>1062.4</ele>
        <time>2021-04-23T10:35:18.000Z</time>
      </trkpt>
      <trkpt lat="45.17769" lon="5.63193">
        <ele>1062.8</ele>
        <time>2021-04-23T10:35:19.000Z</time>
      </trkpt>
      <trkpt lat="45.17769" lon="5.63196">
        <ele>1062.8</ele>
        <time>2021-04-23T10:35:20.000Z</time>
      </trkpt>
      <trkpt lat="45.17769" lon="5.63199">
        <ele>1063</ele>
        <time>2021-04-23T10:35:21.000Z</time>
      </trkpt>
      <trkpt lat="45.17768" lon="5.63202">
        <ele>1063.2</ele>
        <time>2021-04-23T10:35:22.000Z</time>
      </trkpt>
      <trkpt lat="45.17768" lon="5.63205">
        <ele>1063.2</ele>
        <time>2021-04-23T10:35:23.000Z</time>
      </trkpt>
      <trkpt lat="45.17767" lon="5.63208">
        <ele>1063.6</ele>
        <time>2021-04-23T10:35:24.000Z</time>
      </trkpt>
      <trkpt lat="45.17766" lon="5.63211">
        <ele>1063.8</ele>
        <time>2021-04-23T10:35:25.000Z</time>
      </trkpt>
      <trkpt lat="45.17765" lon="5.63213">
        <ele>1064.2</ele>
        <time>2021-04-23T10:35:26.000Z</time>
      </trkpt>
      <trkpt lat="45.17765" lon="5.63216">
        <ele>1064.4</ele>
        <time>2021-04-23T10:35:27.000Z</time>
      </trkpt>
      <trkpt lat="45.17764" lon="5.63219">
        <ele>1064.6</ele>
        <time>2021-04-23T10:35:28.000Z</time>
      </trkpt>
      <trkpt lat="45.17763" lon="5.63222">
        <ele>1065</ele>
        <time>2021-04-23T10:35:29.000Z</time>
      </trkpt>
      <trkpt lat="45.17762" lon="5.63224">
        <ele>1065.2</ele>
        <time>2021-04-23T10:35:30.000Z</time>
      </trkpt>
      <trkpt lat="45.17761" lon="5.63226">
        <ele>1065.4</ele>
        <time>2021-04-23T10:35:31.000Z</time>
      </trkpt>
      <trkpt lat="45.1776" lon="5.63229">
        <ele>1066</ele>
        <time>2021-04-23T10:35:32.000Z</time>
      </trkpt>
      <trkpt lat="45.1776" lon="5.63232">
        <ele>1066.4</ele>
        <time>2021-04-23T10:35:33.000Z</time>
      </trkpt>
      <trkpt lat="45.17759" lon="5.63235">
        <ele>1066.4</ele>
        <time>2021-04-23T10:35:34.000Z</time>
      </trkpt>
      <trkpt lat="45.17758" lon="5.63237">
        <ele>1066.8</ele>
        <time>2021-04-23T10:35:35.000Z</time>
      </trkpt>
      <trkpt lat="45.17757" lon="5.63239">
        <ele>1066.8</ele>
        <time>2021-04-23T10:35:36.000Z</time>
      </trkpt>
      <trkpt lat="45.17756" lon="5.63242">
        <ele>1067</ele>
        <time>2021-04-23T10:35:37.000Z</time>
      </trkpt>
      <trkpt lat="45.17755" lon="5.63246">
        <ele>1067</ele>
        <time>2021-04-23T10:35:38.000Z</time>
      </trkpt>
      <trkpt lat="45.17754" lon="5.63248">
        <ele>1067.2</ele>
        <time>2021-04-23T10:35:39.000Z</time>
      </trkpt>
      <trkpt lat="45.17752" lon="5.63251">
        <ele>1067</ele>
        <time>2021-04-23T10:35:40.000Z</time>
      </trkpt>
      <trkpt lat="45.17752" lon="5.63253">
        <ele>1067</ele>
        <time>2021-04-23T10:35:41.000Z</time>
      </trkpt>
      <trkpt lat="45.1775" lon="5.63256">
        <ele>1067</ele>
        <time>2021-04-23T10:35:42.000Z</time>
      </trkpt>
      <trkpt lat="45.17749" lon="5.6326">
        <ele>1067</ele>
        <time>2021-04-23T10:35:43.000Z</time>
      </trkpt>
      <trkpt lat="45.17748" lon="5.63262">
        <ele>1067</ele>
        <time>2021-04-23T10:35:44.000Z</time>
      </trkpt>
      <trkpt lat="45.17746" lon="5.63266">
        <ele>1067</ele>
        <time>2021-04-23T10:35:45.000Z</time>
      </trkpt>
      <trkpt lat="45.17745" lon="5.63269">
        <ele>1067</ele>
        <time>2021-04-23T10:35:46.000Z</time>
      </trkpt>
      <trkpt lat="45.17743" lon="5.63272">
        <ele>1067</ele>
        <time>2021-04-23T10:35:47.000Z</time>
      </trkpt>
      <trkpt lat="45.17741" lon="5.63274">
        <ele>1067</ele>
        <time>2021-04-23T10:35:48.000Z</time>
      </trkpt>
      <trkpt lat="45.17739" lon="5.63277">
        <ele>1066.8</ele>
        <time>2021-04-23T10:35:49.000Z</time>
      </trkpt>
      <trkpt lat="45.17737" lon="5.6328">
        <ele>1066.6</ele>
        <time>2021-04-23T10:35:50.000Z</time>
      </trkpt>
      <trkpt lat="45.17735" lon="5.63283">
        <ele>1066.4</ele>
        <time>2021-04-23T10:35:51.000Z</time>
      </trkpt>
      <trkpt lat="45.17734" lon="5.63286">
        <ele>1066.2</ele>
        <time>2021-04-23T10:35:52.000Z</time>
      </trkpt>
      <trkpt lat="45.17733" lon="5.63289">
        <ele>1066</ele>
        <time>2021-04-23T10:35:53.000Z</time>
      </trkpt>
      <trkpt lat="45.17731" lon="5.63292">
        <ele>1066</ele>
        <time>2021-04-23T10:35:54.000Z</time>
      </trkpt>
      <trkpt lat="45.1773" lon="5.63295">
        <ele>1066</ele>
        <time>2021-04-23T10:35:55.000Z</time>
      </trkpt>
      <trkpt lat="45.17729" lon="5.63298">
        <ele>1066</ele>
        <time>2021-04-23T10:35:56.000Z</time>
      </trkpt>
      <trkpt lat="45.17728" lon="5.633">
        <ele>1066</ele>
        <time>2021-04-23T10:35:57.000Z</time>
      </trkpt>
      <trkpt lat="45.17728" lon="5.63302">
        <ele>1066</ele>
        <time>2021-04-23T10:35:58.000Z</time>
      </trkpt>
      <trkpt lat="45.17728" lon="5.63306">
        <ele>1066.2</ele>
        <time>2021-04-23T10:35:59.000Z</time>
      </trkpt>
      <trkpt lat="45.17727" lon="5.6331">
        <ele>1066.4</ele>
        <time>2021-04-23T10:36:00.000Z</time>
      </trkpt>
      <trkpt lat="45.17727" lon="5.63314">
        <ele>1066.4</ele>
        <time>2021-04-23T10:36:01.000Z</time>
      </trkpt>
      <trkpt lat="45.17726" lon="5.63318">
        <ele>1066.4</ele>
        <time>2021-04-23T10:36:02.000Z</time>
      </trkpt>
      <trkpt lat="45.17726" lon="5.63322">
        <ele>1066.6</ele>
        <time>2021-04-23T10:36:03.000Z</time>
      </trkpt>
      <trkpt lat="45.17724" lon="5.63334">
        <ele>1067.2</ele>
        <time>2021-04-23T10:36:06.000Z</time>
      </trkpt>
      <trkpt lat="45.17724" lon="5.63337">
        <ele>1067.4</ele>
        <time>2021-04-23T10:36:07.000Z</time>
      </trkpt>
      <trkpt lat="45.17724" lon="5.63341">
        <ele>1067.4</ele>
        <time>2021-04-23T10:36:08.000Z</time>
      </trkpt>
      <trkpt lat="45.17724" lon="5.63344">
        <ele>1067.8</ele>
        <time>2021-04-23T10:36:09.000Z</time>
      </trkpt>
      <trkpt lat="45.17724" lon="5.63347">
        <ele>1068</ele>
        <time>2021-04-23T10:36:10.000Z</time>
      </trkpt>
      <trkpt lat="45.17723" lon="5.63351">
        <ele>1068.4</ele>
        <time>2021-04-23T10:36:11.000Z</time>
      </trkpt>
      <trkpt lat="45.17723" lon="5.63374">
        <ele>1068.6</ele>
        <time>2021-04-23T10:36:17.000Z</time>
      </trkpt>
      <trkpt lat="45.17722" lon="5.63377">
        <ele>1068.6</ele>
        <time>2021-04-23T10:36:18.000Z</time>
      </trkpt>
      <trkpt lat="45.17721" lon="5.63397">
        <ele>1068.2</ele>
        <time>2021-04-23T10:36:23.000Z</time>
      </trkpt>
      <trkpt lat="45.1772" lon="5.63422">
        <ele>1066.6</ele>
        <time>2021-04-23T10:36:28.000Z</time>
      </trkpt>
      <trkpt lat="45.1772" lon="5.63427">
        <ele>1066</ele>
        <time>2021-04-23T10:36:29.000Z</time>
      </trkpt>
      <trkpt lat="45.17719" lon="5.63434">
        <ele>1065.4</ele>
        <time>2021-04-23T10:36:30.000Z</time>
      </trkpt>
      <trkpt lat="45.17718" lon="5.63452">
        <ele>1063.6</ele>
        <time>2021-04-23T10:36:32.000Z</time>
      </trkpt>
      <trkpt lat="45.17718" lon="5.6346">
        <ele>1062.8</ele>
        <time>2021-04-23T10:36:33.000Z</time>
      </trkpt>
      <trkpt lat="45.17717" lon="5.63469">
        <ele>1062</ele>
        <time>2021-04-23T10:36:34.000Z</time>
      </trkpt>
      <trkpt lat="45.17717" lon="5.63476">
        <ele>1061.6</ele>
        <time>2021-04-23T10:36:35.000Z</time>
      </trkpt>
      <trkpt lat="45.17717" lon="5.63497">
        <ele>1061.2</ele>
        <time>2021-04-23T10:36:37.000Z</time>
      </trkpt>
      <trkpt lat="45.17717" lon="5.63506">
        <ele>1061.2</ele>
        <time>2021-04-23T10:36:38.000Z</time>
      </trkpt>
      <trkpt lat="45.17717" lon="5.63514">
        <ele>1061.2</ele>
        <time>2021-04-23T10:36:39.000Z</time>
      </trkpt>
      <trkpt lat="45.17716" lon="5.6352">
        <ele>1061.6</ele>
        <time>2021-04-23T10:36:40.000Z</time>
      </trkpt>
      <trkpt lat="45.17716" lon="5.63526">
        <ele>1061.8</ele>
        <time>2021-04-23T10:36:41.000Z</time>
      </trkpt>
      <trkpt lat="45.17716" lon="5.63532">
        <ele>1062.2</ele>
        <time>2021-04-23T10:36:42.000Z</time>
      </trkpt>
      <trkpt lat="45.17716" lon="5.6354">
        <ele>1062.4</ele>
        <time>2021-04-23T10:36:43.000Z</time>
      </trkpt>
      <trkpt lat="45.17716" lon="5.63545">
        <ele>1063</ele>
        <time>2021-04-23T10:36:44.000Z</time>
      </trkpt>
      <trkpt lat="45.17716" lon="5.6355">
        <ele>1063.4</ele>
        <time>2021-04-23T10:36:45.000Z</time>
      </trkpt>
      <trkpt lat="45.17716" lon="5.63555">
        <ele>1063.8</ele>
        <time>2021-04-23T10:36:46.000Z</time>
      </trkpt>
      <trkpt lat="45.17716" lon="5.63559">
        <ele>1064</ele>
        <time>2021-04-23T10:36:47.000Z</time>
      </trkpt>
      <trkpt lat="45.17716" lon="5.63564">
        <ele>1064.6</ele>
        <time>2021-04-23T10:36:48.000Z</time>
      </trkpt>
      <trkpt lat="45.17717" lon="5.63568">
        <ele>1065</ele>
        <time>2021-04-23T10:36:49.000Z</time>
      </trkpt>
      <trkpt lat="45.17718" lon="5.63571">
        <ele>1065.2</ele>
        <time>2021-04-23T10:36:50.000Z</time>
      </trkpt>
      <trkpt lat="45.1772" lon="5.63574">
        <ele>1065.4</ele>
        <time>2021-04-23T10:36:51.000Z</time>
      </trkpt>
      <trkpt lat="45.17722" lon="5.63578">
        <ele>1065.6</ele>
        <time>2021-04-23T10:36:52.000Z</time>
      </trkpt>
      <trkpt lat="45.17724" lon="5.63582">
        <ele>1065.6</ele>
        <time>2021-04-23T10:36:53.000Z</time>
      </trkpt>
      <trkpt lat="45.17726" lon="5.63586">
        <ele>1065.6</ele>
        <time>2021-04-23T10:36:54.000Z</time>
      </trkpt>
      <trkpt lat="45.17728" lon="5.63592">
        <ele>1065.8</ele>
        <time>2021-04-23T10:36:56.000Z</time>
      </trkpt>
      <trkpt lat="45.1773" lon="5.63596">
        <ele>1065.8</ele>
        <time>2021-04-23T10:36:57.000Z</time>
      </trkpt>
      <trkpt lat="45.17731" lon="5.636">
        <ele>1065.8</ele>
        <time>2021-04-23T10:36:58.000Z</time>
      </trkpt>
      <trkpt lat="45.17736" lon="5.63611">
        <ele>1066.4</ele>
        <time>2021-04-23T10:37:01.000Z</time>
      </trkpt>
      <trkpt lat="45.17743" lon="5.63633">
        <ele>1058.3</ele>
      </trkpt>
      <trkpt lat="45.17768" lon="5.63628">
        <ele>1057.7</ele>
      </trkpt>
      <trkpt lat="45.17778" lon="5.63676">
        <ele>1057.8</ele>
        <time>2021-04-23T11:24:26.000Z</time>
      </trkpt>
      <trkpt lat="45.17782" lon="5.637">
        <ele>1056.2</ele>
        <time>2021-04-23T11:24:28.000Z</time>
      </trkpt>
      <trkpt lat="45.17783" lon="5.63709">
        <ele>1055</ele>
        <time>2021-04-23T11:24:29.000Z</time>
      </trkpt>
      <trkpt lat="45.17785" lon="5.63731">
        <ele>1054</ele>
        <time>2021-04-23T11:24:31.000Z</time>
      </trkpt>
      <trkpt lat="45.17786" lon="5.63741">
        <ele>1053.8</ele>
        <time>2021-04-23T11:24:32.000Z</time>
      </trkpt>
      <trkpt lat="45.17786" lon="5.63752">
        <ele>1053.6</ele>
        <time>2021-04-23T11:24:33.000Z</time>
      </trkpt>
      <trkpt lat="45.17787" lon="5.63761">
        <ele>1053.4</ele>
        <time>2021-04-23T11:24:34.000Z</time>
      </trkpt>
      <trkpt lat="45.17787" lon="5.6377">
        <ele>1052.8</ele>
        <time>2021-04-23T11:24:35.000Z</time>
      </trkpt>
      <trkpt lat="45.17789" lon="5.63777">
        <ele>1052.4</ele>
        <time>2021-04-23T11:24:36.000Z</time>
      </trkpt>
      <trkpt lat="45.17792" lon="5.63783">
        <ele>1051.8</ele>
        <time>2021-04-23T11:24:37.000Z</time>
      </trkpt>
      <trkpt lat="45.17795" lon="5.63787">
        <ele>1051.4</ele>
        <time>2021-04-23T11:24:38.000Z</time>
      </trkpt>
      <trkpt lat="45.178" lon="5.63792">
        <ele>1050</ele>
        <time>2021-04-23T11:24:39.000Z</time>
      </trkpt>
      <trkpt lat="45.17804" lon="5.63797">
        <ele>1049.2</ele>
        <time>2021-04-23T11:24:40.000Z</time>
      </trkpt>
      <trkpt lat="45.17809" lon="5.63806">
        <ele>1048.4</ele>
        <time>2021-04-23T11:24:41.000Z</time>
      </trkpt>
      <trkpt lat="45.17811" lon="5.63813">
        <ele>1048</ele>
        <time>2021-04-23T11:24:42.000Z</time>
      </trkpt>
      <trkpt lat="45.17813" lon="5.63821">
        <ele>1047.6</ele>
        <time>2021-04-23T11:24:43.000Z</time>
      </trkpt>
      <trkpt lat="45.17813" lon="5.6383">
        <ele>1047.2</ele>
        <time>2021-04-23T11:24:44.000Z</time>
      </trkpt>
      <trkpt lat="45.17818" lon="5.63862">
        <ele>1047.2</ele>
        <time>2021-04-23T11:24:48.000Z</time>
      </trkpt>
      <trkpt lat="45.17819" lon="5.63869">
        <ele>1047.6</ele>
        <time>2021-04-23T11:24:49.000Z</time>
      </trkpt>
      <trkpt lat="45.1782" lon="5.63873">
        <ele>1047.8</ele>
        <time>2021-04-23T11:24:50.000Z</time>
      </trkpt>
      <trkpt lat="45.17822" lon="5.63876">
        <ele>1048.2</ele>
        <time>2021-04-23T11:24:51.000Z</time>
      </trkpt>
      <trkpt lat="45.17825" lon="5.63878">
        <ele>1048.4</ele>
        <time>2021-04-23T11:24:52.000Z</time>
      </trkpt>
      <trkpt lat="45.1783" lon="5.63879">
        <ele>1048.6</ele>
        <time>2021-04-23T11:24:53.000Z</time>
      </trkpt>
      <trkpt lat="45.17834" lon="5.63879">
        <ele>1048.4</ele>
        <time>2021-04-23T11:24:54.000Z</time>
      </trkpt>
      <trkpt lat="45.17839" lon="5.6388">
        <ele>1048.4</ele>
        <time>2021-04-23T11:24:55.000Z</time>
      </trkpt>
      <trkpt lat="45.17847" lon="5.63886">
        <ele>1048.4</ele>
        <time>2021-04-23T11:24:57.000Z</time>
      </trkpt>
      <trkpt lat="45.1785" lon="5.63889">
        <ele>1048.6</ele>
        <time>2021-04-23T11:24:58.000Z</time>
      </trkpt>
      <trkpt lat="45.17852" lon="5.63892">
        <ele>1048.8</ele>
        <time>2021-04-23T11:24:59.000Z</time>
      </trkpt>
      <trkpt lat="45.17854" lon="5.63894">
        <ele>1048.8</ele>
        <time>2021-04-23T11:25:00.000Z</time>
      </trkpt>
      <trkpt lat="45.17856" lon="5.63895">
        <ele>1048.8</ele>
        <time>2021-04-23T11:25:01.000Z</time>
      </trkpt>
      <trkpt lat="45.17858" lon="5.63896">
        <ele>1049</ele>
        <time>2021-04-23T11:25:02.000Z</time>
      </trkpt>
      <trkpt lat="45.1786" lon="5.63897">
        <ele>1049</ele>
        <time>2021-04-23T11:25:03.000Z</time>
      </trkpt>
      <trkpt lat="45.17862" lon="5.63898">
        <ele>1049</ele>
        <time>2021-04-23T11:25:04.000Z</time>
      </trkpt>
      <trkpt lat="45.17867" lon="5.639">
        <ele>1049.2</ele>
        <time>2021-04-23T11:25:06.000Z</time>
      </trkpt>
      <trkpt lat="45.17869" lon="5.639">
        <ele>1049.2</ele>
        <time>2021-04-23T11:25:07.000Z</time>
      </trkpt>
      <trkpt lat="45.17871" lon="5.639">
        <ele>1049.2</ele>
        <time>2021-04-23T11:25:08.000Z</time>
      </trkpt>
      <trkpt lat="45.17873" lon="5.63901">
        <ele>1049.4</ele>
        <time>2021-04-23T11:25:09.000Z</time>
      </trkpt>
      <trkpt lat="45.17875" lon="5.63901">
        <ele>1049.6</ele>
        <time>2021-04-23T11:25:10.000Z</time>
      </trkpt>
      <trkpt lat="45.17879" lon="5.63902">
        <ele>1050</ele>
        <time>2021-04-23T11:25:12.000Z</time>
      </trkpt>
      <trkpt lat="45.17881" lon="5.63903">
        <ele>1050</ele>
        <time>2021-04-23T11:25:13.000Z</time>
      </trkpt>
      <trkpt lat="45.17885" lon="5.63904">
        <ele>1050.4</ele>
        <time>2021-04-23T11:25:15.000Z</time>
      </trkpt>
      <trkpt lat="45.17887" lon="5.63905">
        <ele>1050.6</ele>
        <time>2021-04-23T11:25:16.000Z</time>
      </trkpt>
      <trkpt lat="45.17888" lon="5.63906">
        <ele>1050.8</ele>
        <time>2021-04-23T11:25:17.000Z</time>
      </trkpt>
      <trkpt lat="45.1789" lon="5.63907">
        <ele>1051</ele>
        <time>2021-04-23T11:25:18.000Z</time>
      </trkpt>
      <trkpt lat="45.17891" lon="5.63907">
        <ele>1051.2</ele>
        <time>2021-04-23T11:25:19.000Z</time>
      </trkpt>
      <trkpt lat="45.17896" lon="5.63908">
        <ele>1051.6</ele>
        <time>2021-04-23T11:25:22.000Z</time>
      </trkpt>
      <trkpt lat="45.17903" lon="5.63906">
        <ele>1052.2</ele>
        <time>2021-04-23T11:25:25.000Z</time>
      </trkpt>
      <trkpt lat="45.17906" lon="5.63905">
        <ele>1052.2</ele>
        <time>2021-04-23T11:25:26.000Z</time>
      </trkpt>
      <trkpt lat="45.17908" lon="5.63904">
        <ele>1052.4</ele>
        <time>2021-04-23T11:25:27.000Z</time>
      </trkpt>
      <trkpt lat="45.1791" lon="5.63903">
        <ele>1052.4</ele>
        <time>2021-04-23T11:25:28.000Z</time>
      </trkpt>
      <trkpt lat="45.17913" lon="5.63901">
        <ele>1052.4</ele>
        <time>2021-04-23T11:25:29.000Z</time>
      </trkpt>
      <trkpt lat="45.17916" lon="5.639">
        <ele>1052.4</ele>
        <time>2021-04-23T11:25:30.000Z</time>
      </trkpt>
      <trkpt lat="45.17917" lon="5.639">
        <ele>1052.4</ele>
        <time>2021-04-23T11:25:31.000Z</time>
      </trkpt>
      <trkpt lat="45.17919" lon="5.63899">
        <ele>1052.4</ele>
        <time>2021-04-23T11:25:32.000Z</time>
      </trkpt>
      <trkpt lat="45.17922" lon="5.63898">
        <ele>1052.4</ele>
        <time>2021-04-23T11:25:33.000Z</time>
      </trkpt>
      <trkpt lat="45.17924" lon="5.63897">
        <ele>1052.4</ele>
        <time>2021-04-23T11:25:34.000Z</time>
      </trkpt>
      <trkpt lat="45.17926" lon="5.63896">
        <ele>1052.4</ele>
        <time>2021-04-23T11:25:35.000Z</time>
      </trkpt>
      <trkpt lat="45.17929" lon="5.63895">
        <ele>1052.4</ele>
        <time>2021-04-23T11:25:36.000Z</time>
      </trkpt>
      <trkpt lat="45.17931" lon="5.63894">
        <ele>1052.6</ele>
        <time>2021-04-23T11:25:37.000Z</time>
      </trkpt>
      <trkpt lat="45.17934" lon="5.63892">
        <ele>1052.4</ele>
        <time>2021-04-23T11:25:38.000Z</time>
      </trkpt>
      <trkpt lat="45.17942" lon="5.63888">
        <ele>1052.6</ele>
        <time>2021-04-23T11:25:41.000Z</time>
      </trkpt>
      <trkpt lat="45.17952" lon="5.63884">
        <ele>1052.8</ele>
        <time>2021-04-23T11:25:45.000Z</time>
      </trkpt>
      <trkpt lat="45.17954" lon="5.63883">
        <ele>1052.8</ele>
        <time>2021-04-23T11:25:46.000Z</time>
      </trkpt>
      <trkpt lat="45.17956" lon="5.63883">
        <ele>1052.8</ele>
        <time>2021-04-23T11:25:47.000Z</time>
      </trkpt>
      <trkpt lat="45.17958" lon="5.63883">
        <ele>1052.8</ele>
        <time>2021-04-23T11:25:48.000Z</time>
      </trkpt>
      <trkpt lat="45.1796" lon="5.63884">
        <ele>1052.8</ele>
        <time>2021-04-23T11:25:49.000Z</time>
      </trkpt>
      <trkpt lat="45.17961" lon="5.63885">
        <ele>1053</ele>
        <time>2021-04-23T11:25:50.000Z</time>
      </trkpt>
      <trkpt lat="45.17963" lon="5.63885">
        <ele>1053</ele>
        <time>2021-04-23T11:25:51.000Z</time>
      </trkpt>
      <trkpt lat="45.17965" lon="5.63886">
        <ele>1053.2</ele>
        <time>2021-04-23T11:25:52.000Z</time>
      </trkpt>
      <trkpt lat="45.17967" lon="5.63887">
        <ele>1053.2</ele>
        <time>2021-04-23T11:25:53.000Z</time>
      </trkpt>
      <trkpt lat="45.17969" lon="5.63886">
        <ele>1053.2</ele>
        <time>2021-04-23T11:25:54.000Z</time>
      </trkpt>
      <trkpt lat="45.17971" lon="5.63886">
        <ele>1053.4</ele>
        <time>2021-04-23T11:25:55.000Z</time>
      </trkpt>
      <trkpt lat="45.17972" lon="5.63889">
        <ele>1053.4</ele>
        <time>2021-04-23T11:25:56.000Z</time>
      </trkpt>
      <trkpt lat="45.17973" lon="5.63891">
        <ele>1053.6</ele>
        <time>2021-04-23T11:25:57.000Z</time>
      </trkpt>
      <trkpt lat="45.17973" lon="5.63893">
        <ele>1053.6</ele>
        <time>2021-04-23T11:25:58.000Z</time>
      </trkpt>
      <trkpt lat="45.17973" lon="5.63894">
        <ele>1053.8</ele>
        <time>2021-04-23T11:25:59.000Z</time>
      </trkpt>
      <trkpt lat="45.17973" lon="5.639">
        <ele>1054.2</ele>
        <time>2021-04-23T11:26:02.000Z</time>
      </trkpt>
      <trkpt lat="45.17973" lon="5.63902">
        <ele>1054.4</ele>
        <time>2021-04-23T11:26:03.000Z</time>
      </trkpt>
      <trkpt lat="45.17974" lon="5.63904">
        <ele>1054.6</ele>
        <time>2021-04-23T11:26:04.000Z</time>
      </trkpt>
      <trkpt lat="45.17975" lon="5.63906">
        <ele>1054.6</ele>
        <time>2021-04-23T11:26:05.000Z</time>
      </trkpt>
      <trkpt lat="45.17975" lon="5.63908">
        <ele>1054.8</ele>
        <time>2021-04-23T11:26:06.000Z</time>
      </trkpt>
      <trkpt lat="45.17976" lon="5.6391">
        <ele>1054.8</ele>
        <time>2021-04-23T11:26:07.000Z</time>
      </trkpt>
      <trkpt lat="45.17976" lon="5.63911">
        <ele>1055</ele>
        <time>2021-04-23T11:26:08.000Z</time>
      </trkpt>
      <trkpt lat="45.17975" lon="5.63913">
        <ele>1055</ele>
        <time>2021-04-23T11:26:09.000Z</time>
      </trkpt>
      <trkpt lat="45.17974" lon="5.63914">
        <ele>1055</ele>
        <time>2021-04-23T11:26:10.000Z</time>
      </trkpt>
      <trkpt lat="45.17974" lon="5.63916">
        <ele>1055.2</ele>
        <time>2021-04-23T11:26:11.000Z</time>
      </trkpt>
      <trkpt lat="45.17973" lon="5.63918">
        <ele>1055.4</ele>
        <time>2021-04-23T11:26:12.000Z</time>
      </trkpt>
      <trkpt lat="45.17973" lon="5.63921">
        <ele>1055.8</ele>
        <time>2021-04-23T11:26:13.000Z</time>
      </trkpt>
      <trkpt lat="45.17973" lon="5.63923">
        <ele>1056</ele>
        <time>2021-04-23T11:26:14.000Z</time>
      </trkpt>
      <trkpt lat="45.17973" lon="5.63925">
        <ele>1056</ele>
        <time>2021-04-23T11:26:15.000Z</time>
      </trkpt>
      <trkpt lat="45.17974" lon="5.63927">
        <ele>1056.2</ele>
        <time>2021-04-23T11:26:16.000Z</time>
      </trkpt>
      <trkpt lat="45.17974" lon="5.63928">
        <ele>1056.2</ele>
        <time>2021-04-23T11:26:17.000Z</time>
      </trkpt>
      <trkpt lat="45.17976" lon="5.63929">
        <ele>1056.2</ele>
        <time>2021-04-23T11:26:18.000Z</time>
      </trkpt>
      <trkpt lat="45.17978" lon="5.6393">
        <ele>1056.4</ele>
        <time>2021-04-23T11:26:19.000Z</time>
      </trkpt>
      <trkpt lat="45.17979" lon="5.63931">
        <ele>1056.6</ele>
        <time>2021-04-23T11:26:20.000Z</time>
      </trkpt>
      <trkpt lat="45.17981" lon="5.63931">
        <ele>1056.8</ele>
        <time>2021-04-23T11:26:21.000Z</time>
      </trkpt>
      <trkpt lat="45.17982" lon="5.63931">
        <ele>1057</ele>
        <time>2021-04-23T11:26:22.000Z</time>
      </trkpt>
      <trkpt lat="45.17983" lon="5.63932">
        <ele>1057</ele>
        <time>2021-04-23T11:26:23.000Z</time>
      </trkpt>
      <trkpt lat="45.17984" lon="5.63932">
        <ele>1057.4</ele>
        <time>2021-04-23T11:26:24.000Z</time>
      </trkpt>
      <trkpt lat="45.17986" lon="5.63933">
        <ele>1057.6</ele>
        <time>2021-04-23T11:26:25.000Z</time>
      </trkpt>
      <trkpt lat="45.17987" lon="5.63933">
        <ele>1057.8</ele>
        <time>2021-04-23T11:26:26.000Z</time>
      </trkpt>
      <trkpt lat="45.17989" lon="5.63934">
        <ele>1057.8</ele>
        <time>2021-04-23T11:26:27.000Z</time>
      </trkpt>
      <trkpt lat="45.17991" lon="5.63936">
        <ele>1058</ele>
        <time>2021-04-23T11:26:28.000Z</time>
      </trkpt>
      <trkpt lat="45.17993" lon="5.63936">
        <ele>1058</ele>
        <time>2021-04-23T11:26:29.000Z</time>
      </trkpt>
      <trkpt lat="45.17995" lon="5.63936">
        <ele>1058.2</ele>
        <time>2021-04-23T11:26:30.000Z</time>
      </trkpt>
      <trkpt lat="45.17997" lon="5.63937">
        <ele>1058.4</ele>
        <time>2021-04-23T11:26:31.000Z</time>
      </trkpt>
      <trkpt lat="45.17998" lon="5.63937">
        <ele>1058.6</ele>
        <time>2021-04-23T11:26:32.000Z</time>
      </trkpt>
      <trkpt lat="45.17999" lon="5.63937">
        <ele>1058.6</ele>
        <time>2021-04-23T11:26:33.000Z</time>
      </trkpt>
      <trkpt lat="45.18" lon="5.63937">
        <ele>1058.6</ele>
        <time>2021-04-23T11:26:34.000Z</time>
      </trkpt>
      <trkpt lat="45.18002" lon="5.63936">
        <ele>1058.8</ele>
        <time>2021-04-23T11:26:37.000Z</time>
      </trkpt>
      <trkpt lat="45.18002" lon="5.63936">
        <ele>1058.8</ele>
        <time>2021-04-23T11:26:38.000Z</time>
      </trkpt>
      <trkpt lat="45.18003" lon="5.63937">
        <ele>1058.8</ele>
        <time>2021-04-23T11:26:39.000Z</time>
      </trkpt>
      <trkpt lat="45.18004" lon="5.63937">
        <ele>1058.8</ele>
        <time>2021-04-23T11:26:40.000Z</time>
      </trkpt>
      <trkpt lat="45.18004" lon="5.63938">
        <ele>1058.8</ele>
        <time>2021-04-23T11:26:41.000Z</time>
      </trkpt>
      <trkpt lat="45.18003" lon="5.63939">
        <ele>1058.8</ele>
        <time>2021-04-23T11:26:42.000Z</time>
      </trkpt>
      <trkpt lat="45.18004" lon="5.6394">
        <ele>1059</ele>
        <time>2021-04-23T11:26:43.000Z</time>
      </trkpt>
      <trkpt lat="45.18004" lon="5.6394">
        <ele>1059.2</ele>
        <time>2021-04-23T11:26:45.000Z</time>
      </trkpt>
      <trkpt lat="45.18004" lon="5.6394">
        <ele>1059.2</ele>
        <time>2021-04-23T11:26:46.000Z</time>
      </trkpt>
      <trkpt lat="45.18005" lon="5.63941">
        <ele>1059.2</ele>
        <time>2021-04-23T11:26:47.000Z</time>
      </trkpt>
      <trkpt lat="45.18012" lon="5.63944">
        <ele>1059.8</ele>
        <time>2021-04-23T11:26:51.000Z</time>
      </trkpt>
      <trkpt lat="45.18013" lon="5.63946">
        <ele>1060</ele>
        <time>2021-04-23T11:26:52.000Z</time>
      </trkpt>
      <trkpt lat="45.18015" lon="5.63947">
        <ele>1060</ele>
        <time>2021-04-23T11:26:53.000Z</time>
      </trkpt>
      <trkpt lat="45.18018" lon="5.63949">
        <ele>1060.6</ele>
        <time>2021-04-23T11:26:55.000Z</time>
      </trkpt>
      <trkpt lat="45.18021" lon="5.63949">
        <ele>1060.6</ele>
        <time>2021-04-23T11:26:56.000Z</time>
      </trkpt>
      <trkpt lat="45.18023" lon="5.63948">
        <ele>1060.8</ele>
        <time>2021-04-23T11:26:57.000Z</time>
      </trkpt>
      <trkpt lat="45.18025" lon="5.63948">
        <ele>1060.8</ele>
        <time>2021-04-23T11:26:58.000Z</time>
      </trkpt>
      <trkpt lat="45.18027" lon="5.63948">
        <ele>1061</ele>
        <time>2021-04-23T11:26:59.000Z</time>
      </trkpt>
      <trkpt lat="45.18029" lon="5.63949">
        <ele>1061.4</ele>
        <time>2021-04-23T11:27:00.000Z</time>
      </trkpt>
      <trkpt lat="45.1803" lon="5.63949">
        <ele>1061.6</ele>
        <time>2021-04-23T11:27:01.000Z</time>
      </trkpt>
      <trkpt lat="45.18031" lon="5.63948">
        <ele>1061.8</ele>
        <time>2021-04-23T11:27:02.000Z</time>
      </trkpt>
      <trkpt lat="45.18032" lon="5.63947">
        <ele>1062</ele>
        <time>2021-04-23T11:27:03.000Z</time>
      </trkpt>
      <trkpt lat="45.18033" lon="5.63946">
        <ele>1062.2</ele>
        <time>2021-04-23T11:27:04.000Z</time>
      </trkpt>
      <trkpt lat="45.18034" lon="5.63945">
        <ele>1062.4</ele>
        <time>2021-04-23T11:27:05.000Z</time>
      </trkpt>
      <trkpt lat="45.18036" lon="5.63945">
        <ele>1062.6</ele>
        <time>2021-04-23T11:27:06.000Z</time>
      </trkpt>
      <trkpt lat="45.18038" lon="5.63945">
        <ele>1062.8</ele>
        <time>2021-04-23T11:27:07.000Z</time>
      </trkpt>
      <trkpt lat="45.18039" lon="5.63946">
        <ele>1063</ele>
        <time>2021-04-23T11:27:08.000Z</time>
      </trkpt>
      <trkpt lat="45.1804" lon="5.63947">
        <ele>1063.2</ele>
        <time>2021-04-23T11:27:09.000Z</time>
      </trkpt>
      <trkpt lat="45.18041" lon="5.63948">
        <ele>1063.2</ele>
        <time>2021-04-23T11:27:10.000Z</time>
      </trkpt>
      <trkpt lat="45.18042" lon="5.63949">
        <ele>1063.4</ele>
        <time>2021-04-23T11:27:11.000Z</time>
      </trkpt>
      <trkpt lat="45.18043" lon="5.63949">
        <ele>1063.4</ele>
        <time>2021-04-23T11:27:12.000Z</time>
      </trkpt>
      <trkpt lat="45.18045" lon="5.6395">
        <ele>1063.6</ele>
        <time>2021-04-23T11:27:13.000Z</time>
      </trkpt>
      <trkpt lat="45.18046" lon="5.63952">
        <ele>1063.6</ele>
        <time>2021-04-23T11:27:14.000Z</time>
      </trkpt>
      <trkpt lat="45.18046" lon="5.63954">
        <ele>1064.2</ele>
        <time>2021-04-23T11:27:15.000Z</time>
      </trkpt>
      <trkpt lat="45.18045" lon="5.63955">
        <ele>1064.6</ele>
        <time>2021-04-23T11:27:16.000Z</time>
      </trkpt>
      <trkpt lat="45.18045" lon="5.63956">
        <ele>1065</ele>
        <time>2021-04-23T11:27:17.000Z</time>
      </trkpt>
      <trkpt lat="45.18045" lon="5.63957">
        <ele>1065.2</ele>
        <time>2021-04-23T11:27:18.000Z</time>
      </trkpt>
      <trkpt lat="45.18045" lon="5.63957">
        <ele>1065.6</ele>
        <time>2021-04-23T11:27:19.000Z</time>
      </trkpt>
      <trkpt lat="45.18047" lon="5.63957">
        <ele>1065.8</ele>
        <time>2021-04-23T11:27:20.000Z</time>
      </trkpt>
      <trkpt lat="45.1805" lon="5.63958">
        <ele>1066</ele>
        <time>2021-04-23T11:27:21.000Z</time>
      </trkpt>
      <trkpt lat="45.18052" lon="5.63958">
        <ele>1066.2</ele>
        <time>2021-04-23T11:27:22.000Z</time>
      </trkpt>
      <trkpt lat="45.18053" lon="5.63958">
        <ele>1066.6</ele>
        <time>2021-04-23T11:27:23.000Z</time>
      </trkpt>
      <trkpt lat="45.18055" lon="5.63959">
        <ele>1066.6</ele>
        <time>2021-04-23T11:27:24.000Z</time>
      </trkpt>
      <trkpt lat="45.18057" lon="5.6396">
        <ele>1066.8</ele>
        <time>2021-04-23T11:27:25.000Z</time>
      </trkpt>
      <trkpt lat="45.18058" lon="5.6396">
        <ele>1066.8</ele>
        <time>2021-04-23T11:27:26.000Z</time>
      </trkpt>
      <trkpt lat="45.18059" lon="5.6396">
        <ele>1067</ele>
        <time>2021-04-23T11:27:27.000Z</time>
      </trkpt>
      <trkpt lat="45.18063" lon="5.6396">
        <ele>1067.2</ele>
        <time>2021-04-23T11:27:28.000Z</time>
      </trkpt>
      <trkpt lat="45.18065" lon="5.6396">
        <ele>1067.4</ele>
        <time>2021-04-23T11:27:29.000Z</time>
      </trkpt>
      <trkpt lat="45.18067" lon="5.6396">
        <ele>1067.6</ele>
        <time>2021-04-23T11:27:30.000Z</time>
      </trkpt>
      <trkpt lat="45.18068" lon="5.6396">
        <ele>1067.6</ele>
        <time>2021-04-23T11:27:31.000Z</time>
      </trkpt>
      <trkpt lat="45.1807" lon="5.6396">
        <ele>1067.8</ele>
        <time>2021-04-23T11:27:32.000Z</time>
      </trkpt>
      <trkpt lat="45.18072" lon="5.6396">
        <ele>1067.8</ele>
        <time>2021-04-23T11:27:33.000Z</time>
      </trkpt>
      <trkpt lat="45.18073" lon="5.6396">
        <ele>1068</ele>
        <time>2021-04-23T11:27:34.000Z</time>
      </trkpt>
      <trkpt lat="45.18075" lon="5.6396">
        <ele>1068</ele>
        <time>2021-04-23T11:27:35.000Z</time>
      </trkpt>
      <trkpt lat="45.18076" lon="5.6396">
        <ele>1068.2</ele>
        <time>2021-04-23T11:27:36.000Z</time>
      </trkpt>
      <trkpt lat="45.18076" lon="5.63961">
        <ele>1068.2</ele>
        <time>2021-04-23T11:27:37.000Z</time>
      </trkpt>
      <trkpt lat="45.18076" lon="5.63961">
        <ele>1068.4</ele>
        <time>2021-04-23T11:27:38.000Z</time>
      </trkpt>
      <trkpt lat="45.18077" lon="5.63962">
        <ele>1068.4</ele>
        <time>2021-04-23T11:27:39.000Z</time>
      </trkpt>
      <trkpt lat="45.18078" lon="5.63963">
        <ele>1068.6</ele>
        <time>2021-04-23T11:27:40.000Z</time>
      </trkpt>
      <trkpt lat="45.18079" lon="5.63965">
        <ele>1069</ele>
        <time>2021-04-23T11:27:41.000Z</time>
      </trkpt>
      <trkpt lat="45.1808" lon="5.63966">
        <ele>1069.2</ele>
        <time>2021-04-23T11:27:42.000Z</time>
      </trkpt>
      <trkpt lat="45.18081" lon="5.63967">
        <ele>1069.2</ele>
        <time>2021-04-23T11:27:43.000Z</time>
      </trkpt>
      <trkpt lat="45.18082" lon="5.63969">
        <ele>1069.4</ele>
        <time>2021-04-23T11:27:44.000Z</time>
      </trkpt>
      <trkpt lat="45.18082" lon="5.63971">
        <ele>1069.4</ele>
        <time>2021-04-23T11:27:45.000Z</time>
      </trkpt>
      <trkpt lat="45.18082" lon="5.63973">
        <ele>1069.4</ele>
        <time>2021-04-23T11:27:46.000Z</time>
      </trkpt>
      <trkpt lat="45.18082" lon="5.63975">
        <ele>1069.8</ele>
        <time>2021-04-23T11:27:47.000Z</time>
      </trkpt>
      <trkpt lat="45.18082" lon="5.63976">
        <ele>1070</ele>
        <time>2021-04-23T11:27:48.000Z</time>
      </trkpt>
      <trkpt lat="45.18082" lon="5.63978">
        <ele>1070</ele>
        <time>2021-04-23T11:27:49.000Z</time>
      </trkpt>
      <trkpt lat="45.18083" lon="5.63979">
        <ele>1069.8</ele>
        <time>2021-04-23T11:27:50.000Z</time>
      </trkpt>
      <trkpt lat="45.18084" lon="5.6398">
        <ele>1070</ele>
        <time>2021-04-23T11:27:51.000Z</time>
      </trkpt>
      <trkpt lat="45.18085" lon="5.63981">
        <ele>1070.2</ele>
        <time>2021-04-23T11:27:52.000Z</time>
      </trkpt>
      <trkpt lat="45.18087" lon="5.63981">
        <ele>1070.2</ele>
        <time>2021-04-23T11:27:53.000Z</time>
      </trkpt>
      <trkpt lat="45.18088" lon="5.63982">
        <ele>1070.6</ele>
        <time>2021-04-23T11:27:54.000Z</time>
      </trkpt>
      <trkpt lat="45.18089" lon="5.63982">
        <ele>1070.6</ele>
        <time>2021-04-23T11:27:55.000Z</time>
      </trkpt>
      <trkpt lat="45.1809" lon="5.63982">
        <ele>1070.8</ele>
        <time>2021-04-23T11:27:56.000Z</time>
      </trkpt>
      <trkpt lat="45.18091" lon="5.63981">
        <ele>1070.8</ele>
        <time>2021-04-23T11:27:57.000Z</time>
      </trkpt>
      <trkpt lat="45.18092" lon="5.6398">
        <ele>1070.8</ele>
        <time>2021-04-23T11:27:58.000Z</time>
      </trkpt>
      <trkpt lat="45.18093" lon="5.63979">
        <ele>1071</ele>
        <time>2021-04-23T11:27:59.000Z</time>
      </trkpt>
      <trkpt lat="45.18095" lon="5.63978">
        <ele>1071</ele>
        <time>2021-04-23T11:28:00.000Z</time>
      </trkpt>
      <trkpt lat="45.18097" lon="5.63978">
        <ele>1071</ele>
        <time>2021-04-23T11:28:01.000Z</time>
      </trkpt>
      <trkpt lat="45.18099" lon="5.63977">
        <ele>1071</ele>
        <time>2021-04-23T11:28:02.000Z</time>
      </trkpt>
      <trkpt lat="45.18101" lon="5.63976">
        <ele>1070.8</ele>
        <time>2021-04-23T11:28:03.000Z</time>
      </trkpt>
      <trkpt lat="45.18103" lon="5.63975">
        <ele>1070.8</ele>
        <time>2021-04-23T11:28:04.000Z</time>
      </trkpt>
      <trkpt lat="45.18105" lon="5.63974">
        <ele>1070.8</ele>
        <time>2021-04-23T11:28:05.000Z</time>
      </trkpt>
      <trkpt lat="45.18107" lon="5.63974">
        <ele>1070.6</ele>
        <time>2021-04-23T11:28:06.000Z</time>
      </trkpt>
      <trkpt lat="45.18109" lon="5.63973">
        <ele>1070.6</ele>
        <time>2021-04-23T11:28:07.000Z</time>
      </trkpt>
      <trkpt lat="45.1812" lon="5.63969">
        <ele>1070.2</ele>
        <time>2021-04-23T11:28:11.000Z</time>
      </trkpt>
      <trkpt lat="45.18128" lon="5.63969">
        <ele>1069.6</ele>
        <time>2021-04-23T11:28:13.000Z</time>
      </trkpt>
      <trkpt lat="45.18131" lon="5.63971">
        <ele>1069.6</ele>
        <time>2021-04-23T11:28:14.000Z</time>
      </trkpt>
      <trkpt lat="45.18135" lon="5.63973">
        <ele>1069.4</ele>
        <time>2021-04-23T11:28:15.000Z</time>
      </trkpt>
      <trkpt lat="45.18139" lon="5.63975">
        <ele>1069.4</ele>
        <time>2021-04-23T11:28:16.000Z</time>
      </trkpt>
      <trkpt lat="45.18142" lon="5.63979">
        <ele>1069.4</ele>
        <time>2021-04-23T11:28:17.000Z</time>
      </trkpt>
      <trkpt lat="45.18148" lon="5.63986">
        <ele>1069.2</ele>
        <time>2021-04-23T11:28:19.000Z</time>
      </trkpt>
      <trkpt lat="45.18149" lon="5.63989">
        <ele>1069.4</ele>
        <time>2021-04-23T11:28:20.000Z</time>
      </trkpt>
      <trkpt lat="45.1815" lon="5.63992">
        <ele>1069.6</ele>
        <time>2021-04-23T11:28:21.000Z</time>
      </trkpt>
      <trkpt lat="45.18151" lon="5.63995">
        <ele>1069.6</ele>
        <time>2021-04-23T11:28:22.000Z</time>
      </trkpt>
      <trkpt lat="45.18152" lon="5.63997">
        <ele>1069.8</ele>
        <time>2021-04-23T11:28:23.000Z</time>
      </trkpt>
      <trkpt lat="45.18152" lon="5.64002">
        <ele>1070.2</ele>
        <time>2021-04-23T11:28:25.000Z</time>
      </trkpt>
      <trkpt lat="45.18153" lon="5.64004">
        <ele>1070.6</ele>
        <time>2021-04-23T11:28:26.000Z</time>
      </trkpt>
      <trkpt lat="45.18152" lon="5.64006">
        <ele>1071</ele>
        <time>2021-04-23T11:28:27.000Z</time>
      </trkpt>
      <trkpt lat="45.18151" lon="5.64008">
        <ele>1071.2</ele>
        <time>2021-04-23T11:28:28.000Z</time>
      </trkpt>
      <trkpt lat="45.18151" lon="5.6401">
        <ele>1071.4</ele>
        <time>2021-04-23T11:28:29.000Z</time>
      </trkpt>
      <trkpt lat="45.1815" lon="5.64013">
        <ele>1071.6</ele>
        <time>2021-04-23T11:28:30.000Z</time>
      </trkpt>
      <trkpt lat="45.18149" lon="5.64016">
        <ele>1071.8</ele>
        <time>2021-04-23T11:28:31.000Z</time>
      </trkpt>
      <trkpt lat="45.18148" lon="5.64018">
        <ele>1072</ele>
        <time>2021-04-23T11:28:32.000Z</time>
      </trkpt>
      <trkpt lat="45.18146" lon="5.64019">
        <ele>1072.2</ele>
        <time>2021-04-23T11:28:33.000Z</time>
      </trkpt>
      <trkpt lat="45.18145" lon="5.64021">
        <ele>1072.4</ele>
        <time>2021-04-23T11:28:34.000Z</time>
      </trkpt>
      <trkpt lat="45.18145" lon="5.64023">
        <ele>1072.6</ele>
        <time>2021-04-23T11:28:35.000Z</time>
      </trkpt>
      <trkpt lat="45.18144" lon="5.64025">
        <ele>1073</ele>
        <time>2021-04-23T11:28:36.000Z</time>
      </trkpt>
      <trkpt lat="45.18145" lon="5.64027">
        <ele>1073.4</ele>
        <time>2021-04-23T11:28:37.000Z</time>
      </trkpt>
      <trkpt lat="45.18147" lon="5.64028">
        <ele>1073.8</ele>
        <time>2021-04-23T11:28:38.000Z</time>
      </trkpt>
      <trkpt lat="45.18148" lon="5.64031">
        <ele>1074</ele>
        <time>2021-04-23T11:28:39.000Z</time>
      </trkpt>
      <trkpt lat="45.1815" lon="5.64034">
        <ele>1074.2</ele>
        <time>2021-04-23T11:28:40.000Z</time>
      </trkpt>
      <trkpt lat="45.18152" lon="5.64036">
        <ele>1074.6</ele>
        <time>2021-04-23T11:28:41.000Z</time>
      </trkpt>
      <trkpt lat="45.18153" lon="5.64039">
        <ele>1074.8</ele>
        <time>2021-04-23T11:28:42.000Z</time>
      </trkpt>
      <trkpt lat="45.18153" lon="5.64041">
        <ele>1075</ele>
        <time>2021-04-23T11:28:43.000Z</time>
      </trkpt>
      <trkpt lat="45.18154" lon="5.64043">
        <ele>1075</ele>
        <time>2021-04-23T11:28:44.000Z</time>
      </trkpt>
      <trkpt lat="45.18155" lon="5.64044">
        <ele>1075.4</ele>
        <time>2021-04-23T11:28:45.000Z</time>
      </trkpt>
      <trkpt lat="45.18156" lon="5.64045">
        <ele>1075.6</ele>
        <time>2021-04-23T11:28:46.000Z</time>
      </trkpt>
      <trkpt lat="45.18157" lon="5.64046">
        <ele>1075.8</ele>
        <time>2021-04-23T11:28:47.000Z</time>
      </trkpt>
      <trkpt lat="45.18158" lon="5.64047">
        <ele>1075.8</ele>
        <time>2021-04-23T11:28:48.000Z</time>
      </trkpt>
      <trkpt lat="45.18161" lon="5.64049">
        <ele>1076</ele>
        <time>2021-04-23T11:28:49.000Z</time>
      </trkpt>
      <trkpt lat="45.18162" lon="5.64051">
        <ele>1076</ele>
        <time>2021-04-23T11:28:50.000Z</time>
      </trkpt>
      <trkpt lat="45.18163" lon="5.64053">
        <ele>1076.2</ele>
        <time>2021-04-23T11:28:51.000Z</time>
      </trkpt>
      <trkpt lat="45.18163" lon="5.64054">
        <ele>1076.4</ele>
        <time>2021-04-23T11:28:52.000Z</time>
      </trkpt>
      <trkpt lat="45.18164" lon="5.64056">
        <ele>1076.4</ele>
        <time>2021-04-23T11:28:53.000Z</time>
      </trkpt>
      <trkpt lat="45.18164" lon="5.64058">
        <ele>1076.4</ele>
        <time>2021-04-23T11:28:54.000Z</time>
      </trkpt>
      <trkpt lat="45.18166" lon="5.6406">
        <ele>1076.6</ele>
        <time>2021-04-23T11:28:55.000Z</time>
      </trkpt>
      <trkpt lat="45.18168" lon="5.64063">
        <ele>1076.4</ele>
        <time>2021-04-23T11:28:56.000Z</time>
      </trkpt>
      <trkpt lat="45.1817" lon="5.64066">
        <ele>1076</ele>
        <time>2021-04-23T11:28:57.000Z</time>
      </trkpt>
      <trkpt lat="45.18173" lon="5.6407">
        <ele>1075.6</ele>
        <time>2021-04-23T11:28:58.000Z</time>
      </trkpt>
      <trkpt lat="45.18176" lon="5.64075">
        <ele>1075.2</ele>
        <time>2021-04-23T11:28:59.000Z</time>
      </trkpt>
      <trkpt lat="45.1818" lon="5.6408">
        <ele>1074.6</ele>
        <time>2021-04-23T11:29:00.000Z</time>
      </trkpt>
      <trkpt lat="45.18184" lon="5.64085">
        <ele>1074</ele>
        <time>2021-04-23T11:29:01.000Z</time>
      </trkpt>
      <trkpt lat="45.1819" lon="5.64089">
        <ele>1073.8</ele>
        <time>2021-04-23T11:29:02.000Z</time>
      </trkpt>
      <trkpt lat="45.18194" lon="5.64092">
        <ele>1073.4</ele>
        <time>2021-04-23T11:29:03.000Z</time>
      </trkpt>
      <trkpt lat="45.18199" lon="5.64095">
        <ele>1073.2</ele>
        <time>2021-04-23T11:29:04.000Z</time>
      </trkpt>
      <trkpt lat="45.18203" lon="5.64097">
        <ele>1073.2</ele>
        <time>2021-04-23T11:29:05.000Z</time>
      </trkpt>
      <trkpt lat="45.18207" lon="5.64099">
        <ele>1073.2</ele>
        <time>2021-04-23T11:29:06.000Z</time>
      </trkpt>
      <trkpt lat="45.1821" lon="5.641">
        <ele>1073.2</ele>
        <time>2021-04-23T11:29:07.000Z</time>
      </trkpt>
      <trkpt lat="45.18214" lon="5.641">
        <ele>1073.2</ele>
        <time>2021-04-23T11:29:08.000Z</time>
      </trkpt>
      <trkpt lat="45.18218" lon="5.64098">
        <ele>1073.2</ele>
        <time>2021-04-23T11:29:09.000Z</time>
      </trkpt>
      <trkpt lat="45.18221" lon="5.64096">
        <ele>1073.4</ele>
        <time>2021-04-23T11:29:10.000Z</time>
      </trkpt>
      <trkpt lat="45.18224" lon="5.64093">
        <ele>1073.4</ele>
        <time>2021-04-23T11:29:11.000Z</time>
      </trkpt>
      <trkpt lat="45.18228" lon="5.64091">
        <ele>1073.4</ele>
        <time>2021-04-23T11:29:12.000Z</time>
      </trkpt>
      <trkpt lat="45.18233" lon="5.6409">
        <ele>1073.4</ele>
        <time>2021-04-23T11:29:13.000Z</time>
      </trkpt>
      <trkpt lat="45.18237" lon="5.64089">
        <ele>1073.4</ele>
        <time>2021-04-23T11:29:14.000Z</time>
      </trkpt>
      <trkpt lat="45.18247" lon="5.64088">
        <ele>1073.4</ele>
        <time>2021-04-23T11:29:16.000Z</time>
      </trkpt>
      <trkpt lat="45.18251" lon="5.64088">
        <ele>1073.6</ele>
        <time>2021-04-23T11:29:17.000Z</time>
      </trkpt>
      <trkpt lat="45.18254" lon="5.64089">
        <ele>1073.8</ele>
        <time>2021-04-23T11:29:18.000Z</time>
      </trkpt>
      <trkpt lat="45.18256" lon="5.64089">
        <ele>1073.6</ele>
        <time>2021-04-23T11:29:19.000Z</time>
      </trkpt>
      <trkpt lat="45.18259" lon="5.6409">
        <ele>1073.8</ele>
        <time>2021-04-23T11:29:20.000Z</time>
      </trkpt>
      <trkpt lat="45.18262" lon="5.6409">
        <ele>1073.8</ele>
        <time>2021-04-23T11:29:21.000Z</time>
      </trkpt>
      <trkpt lat="45.18282" lon="5.64095">
        <ele>1073.8</ele>
        <time>2021-04-23T11:29:26.000Z</time>
      </trkpt>
      <trkpt lat="45.18285" lon="5.64098">
        <ele>1073.8</ele>
        <time>2021-04-23T11:29:27.000Z</time>
      </trkpt>
      <trkpt lat="45.18287" lon="5.64102">
        <ele>1073.8</ele>
        <time>2021-04-23T11:29:28.000Z</time>
      </trkpt>
      <trkpt lat="45.1829" lon="5.64106">
        <ele>1073.8</ele>
        <time>2021-04-23T11:29:29.000Z</time>
      </trkpt>
      <trkpt lat="45.18299" lon="5.64116">
        <ele>1073.8</ele>
        <time>2021-04-23T11:29:32.000Z</time>
      </trkpt>
      <trkpt lat="45.18307" lon="5.64125">
        <ele>1074.2</ele>
        <time>2021-04-23T11:29:35.000Z</time>
      </trkpt>
      <trkpt lat="45.18309" lon="5.64129">
        <ele>1074.4</ele>
        <time>2021-04-23T11:29:36.000Z</time>
      </trkpt>
      <trkpt lat="45.1831" lon="5.64133">
        <ele>1074.6</ele>
        <time>2021-04-23T11:29:37.000Z</time>
      </trkpt>
      <trkpt lat="45.18312" lon="5.64137">
        <ele>1074.8</ele>
        <time>2021-04-23T11:29:38.000Z</time>
      </trkpt>
      <trkpt lat="45.18314" lon="5.64139">
        <ele>1075</ele>
        <time>2021-04-23T11:29:39.000Z</time>
      </trkpt>
      <trkpt lat="45.18316" lon="5.64142">
        <ele>1075</ele>
        <time>2021-04-23T11:29:40.000Z</time>
      </trkpt>
      <trkpt lat="45.18318" lon="5.64144">
        <ele>1075</ele>
        <time>2021-04-23T11:29:41.000Z</time>
      </trkpt>
      <trkpt lat="45.18322" lon="5.6415">
        <ele>1075.2</ele>
        <time>2021-04-23T11:29:43.000Z</time>
      </trkpt>
      <trkpt lat="45.18327" lon="5.64159">
        <ele>1075.4</ele>
        <time>2021-04-23T11:29:46.000Z</time>
      </trkpt>
      <trkpt lat="45.18328" lon="5.64162">
        <ele>1075.2</ele>
        <time>2021-04-23T11:29:47.000Z</time>
      </trkpt>
      <trkpt lat="45.18337" lon="5.64172">
        <ele>1075</ele>
        <time>2021-04-23T11:29:50.000Z</time>
      </trkpt>
      <trkpt lat="45.18343" lon="5.6418">
        <ele>1074.8</ele>
        <time>2021-04-23T11:29:52.000Z</time>
      </trkpt>
      <trkpt lat="45.18349" lon="5.64189">
        <ele>1074.8</ele>
        <time>2021-04-23T11:29:54.000Z</time>
      </trkpt>
      <trkpt lat="45.18351" lon="5.64193">
        <ele>1074.8</ele>
        <time>2021-04-23T11:29:55.000Z</time>
      </trkpt>
      <trkpt lat="45.18353" lon="5.64196">
        <ele>1074.8</ele>
        <time>2021-04-23T11:29:56.000Z</time>
      </trkpt>
      <trkpt lat="45.18355" lon="5.642">
        <ele>1075</ele>
        <time>2021-04-23T11:29:57.000Z</time>
      </trkpt>
      <trkpt lat="45.18358" lon="5.64203">
        <ele>1075</ele>
        <time>2021-04-23T11:29:58.000Z</time>
      </trkpt>
      <trkpt lat="45.18359" lon="5.64205">
        <ele>1075.4</ele>
        <time>2021-04-23T11:29:59.000Z</time>
      </trkpt>
      <trkpt lat="45.18361" lon="5.64208">
        <ele>1075.6</ele>
        <time>2021-04-23T11:30:00.000Z</time>
      </trkpt>
      <trkpt lat="45.18361" lon="5.64211">
        <ele>1075.8</ele>
        <time>2021-04-23T11:30:01.000Z</time>
      </trkpt>
      <trkpt lat="45.18362" lon="5.64214">
        <ele>1076.2</ele>
        <time>2021-04-23T11:30:02.000Z</time>
      </trkpt>
      <trkpt lat="45.18362" lon="5.64217">
        <ele>1076.4</ele>
        <time>2021-04-23T11:30:03.000Z</time>
      </trkpt>
      <trkpt lat="45.18362" lon="5.6422">
        <ele>1076.8</ele>
        <time>2021-04-23T11:30:04.000Z</time>
      </trkpt>
      <trkpt lat="45.18361" lon="5.64222">
        <ele>1076.8</ele>
        <time>2021-04-23T11:30:05.000Z</time>
      </trkpt>
      <trkpt lat="45.1836" lon="5.64224">
        <ele>1077</ele>
        <time>2021-04-23T11:30:06.000Z</time>
      </trkpt>
      <trkpt lat="45.1836" lon="5.64225">
        <ele>1077</ele>
        <time>2021-04-23T11:30:07.000Z</time>
      </trkpt>
      <trkpt lat="45.1836" lon="5.64225">
        <ele>1077</ele>
        <time>2021-04-23T11:30:08.000Z</time>
      </trkpt>
      <trkpt lat="45.1836" lon="5.64226">
        <ele>1077</ele>
        <time>2021-04-23T11:30:09.000Z</time>
      </trkpt>
      <trkpt lat="45.1836" lon="5.64227">
        <ele>1077.2</ele>
        <time>2021-04-23T11:30:10.000Z</time>
      </trkpt>
      <trkpt lat="45.1836" lon="5.64228">
        <ele>1077.4</ele>
        <time>2021-04-23T11:30:11.000Z</time>
      </trkpt>
      <trkpt lat="45.1836" lon="5.64229">
        <ele>1077.4</ele>
        <time>2021-04-23T11:30:12.000Z</time>
      </trkpt>
      <trkpt lat="45.18359" lon="5.64231">
        <ele>1077.6</ele>
        <time>2021-04-23T11:30:13.000Z</time>
      </trkpt>
      <trkpt lat="45.18359" lon="5.64233">
        <ele>1077.8</ele>
        <time>2021-04-23T11:30:14.000Z</time>
      </trkpt>
      <trkpt lat="45.1836" lon="5.64233">
        <ele>1078</ele>
        <time>2021-04-23T11:30:15.000Z</time>
      </trkpt>
      <trkpt lat="45.1836" lon="5.64233">
        <ele>1078</ele>
        <time>2021-04-23T11:30:16.000Z</time>
      </trkpt>
      <trkpt lat="45.18361" lon="5.64232">
        <ele>1078</ele>
        <time>2021-04-23T11:30:17.000Z</time>
      </trkpt>
      <trkpt lat="45.18362" lon="5.6423">
        <ele>1077.8</ele>
        <time>2021-04-23T11:30:18.000Z</time>
      </trkpt>
      <trkpt lat="45.18362" lon="5.64227">
        <ele>1077.8</ele>
        <time>2021-04-23T11:30:19.000Z</time>
      </trkpt>
      <trkpt lat="45.18362" lon="5.64222">
        <ele>1077.6</ele>
        <time>2021-04-23T11:30:20.000Z</time>
      </trkpt>
      <trkpt lat="45.18363" lon="5.64216">
        <ele>1077.2</ele>
        <time>2021-04-23T11:30:21.000Z</time>
      </trkpt>
      <trkpt lat="45.18363" lon="5.6421">
        <ele>1077.2</ele>
        <time>2021-04-23T11:30:22.000Z</time>
      </trkpt>
      <trkpt lat="45.18365" lon="5.64207">
        <ele>1077.2</ele>
        <time>2021-04-23T11:30:23.000Z</time>
      </trkpt>
      <trkpt lat="45.18367" lon="5.64206">
        <ele>1077</ele>
        <time>2021-04-23T11:30:24.000Z</time>
      </trkpt>
      <trkpt lat="45.18372" lon="5.64209">
        <ele>1077.4</ele>
        <time>2021-04-23T11:30:25.000Z</time>
      </trkpt>
      <trkpt lat="45.18373" lon="5.64209">
        <ele>1077.6</ele>
        <time>2021-04-23T11:30:26.000Z</time>
      </trkpt>
      <trkpt lat="45.18375" lon="5.64209">
        <ele>1077.8</ele>
        <time>2021-04-23T11:30:27.000Z</time>
      </trkpt>
      <trkpt lat="45.18377" lon="5.64208">
        <ele>1078</ele>
        <time>2021-04-23T11:30:28.000Z</time>
      </trkpt>
      <trkpt lat="45.18378" lon="5.64208">
        <ele>1078.2</ele>
        <time>2021-04-23T11:30:29.000Z</time>
      </trkpt>
      <trkpt lat="45.1838" lon="5.64207">
        <ele>1078.6</ele>
        <time>2021-04-23T11:30:30.000Z</time>
      </trkpt>
      <trkpt lat="45.18382" lon="5.64207">
        <ele>1078.8</ele>
        <time>2021-04-23T11:30:31.000Z</time>
      </trkpt>
      <trkpt lat="45.18385" lon="5.64207">
        <ele>1079</ele>
        <time>2021-04-23T11:30:32.000Z</time>
      </trkpt>
      <trkpt lat="45.18387" lon="5.64207">
        <ele>1079.4</ele>
        <time>2021-04-23T11:30:33.000Z</time>
      </trkpt>
      <trkpt lat="45.1839" lon="5.64205">
        <ele>1079.6</ele>
        <time>2021-04-23T11:30:35.000Z</time>
      </trkpt>
      <trkpt lat="45.18393" lon="5.64207">
        <ele>1079.8</ele>
        <time>2021-04-23T11:30:36.000Z</time>
      </trkpt>
      <trkpt lat="45.18394" lon="5.64207">
        <ele>1080.2</ele>
        <time>2021-04-23T11:30:37.000Z</time>
      </trkpt>
      <trkpt lat="45.18395" lon="5.64207">
        <ele>1080.4</ele>
        <time>2021-04-23T11:30:38.000Z</time>
      </trkpt>
      <trkpt lat="45.18398" lon="5.64207">
        <ele>1080.6</ele>
        <time>2021-04-23T11:30:39.000Z</time>
      </trkpt>
      <trkpt lat="45.184" lon="5.64207">
        <ele>1081</ele>
        <time>2021-04-23T11:30:40.000Z</time>
      </trkpt>
      <trkpt lat="45.18402" lon="5.64207">
        <ele>1081.2</ele>
        <time>2021-04-23T11:30:41.000Z</time>
      </trkpt>
      <trkpt lat="45.18404" lon="5.64207">
        <ele>1081.6</ele>
        <time>2021-04-23T11:30:42.000Z</time>
      </trkpt>
      <trkpt lat="45.18407" lon="5.64207">
        <ele>1081.8</ele>
        <time>2021-04-23T11:30:43.000Z</time>
      </trkpt>
      <trkpt lat="45.18409" lon="5.64207">
        <ele>1082.2</ele>
        <time>2021-04-23T11:30:44.000Z</time>
      </trkpt>
      <trkpt lat="45.18411" lon="5.64207">
        <ele>1082.2</ele>
        <time>2021-04-23T11:30:45.000Z</time>
      </trkpt>
      <trkpt lat="45.18413" lon="5.64207">
        <ele>1082.4</ele>
        <time>2021-04-23T11:30:46.000Z</time>
      </trkpt>
      <trkpt lat="45.18414" lon="5.64207">
        <ele>1082.6</ele>
        <time>2021-04-23T11:30:47.000Z</time>
      </trkpt>
      <trkpt lat="45.18416" lon="5.64207">
        <ele>1082.8</ele>
        <time>2021-04-23T11:30:48.000Z</time>
      </trkpt>
      <trkpt lat="45.18417" lon="5.64208">
        <ele>1083</ele>
        <time>2021-04-23T11:30:49.000Z</time>
      </trkpt>
      <trkpt lat="45.18419" lon="5.64208">
        <ele>1083.2</ele>
        <time>2021-04-23T11:30:50.000Z</time>
      </trkpt>
      <trkpt lat="45.18421" lon="5.64208">
        <ele>1083.4</ele>
        <time>2021-04-23T11:30:51.000Z</time>
      </trkpt>
      <trkpt lat="45.18423" lon="5.64208">
        <ele>1083.4</ele>
        <time>2021-04-23T11:30:52.000Z</time>
      </trkpt>
      <trkpt lat="45.18425" lon="5.64208">
        <ele>1083.6</ele>
        <time>2021-04-23T11:30:53.000Z</time>
      </trkpt>
      <trkpt lat="45.18426" lon="5.64208">
        <ele>1083.6</ele>
        <time>2021-04-23T11:30:54.000Z</time>
      </trkpt>
      <trkpt lat="45.18428" lon="5.64207">
        <ele>1083.8</ele>
        <time>2021-04-23T11:30:55.000Z</time>
      </trkpt>
      <trkpt lat="45.18429" lon="5.64207">
        <ele>1083.8</ele>
        <time>2021-04-23T11:30:56.000Z</time>
      </trkpt>
      <trkpt lat="45.18431" lon="5.64206">
        <ele>1084</ele>
        <time>2021-04-23T11:30:57.000Z</time>
      </trkpt>
      <trkpt lat="45.18432" lon="5.64205">
        <ele>1084.2</ele>
        <time>2021-04-23T11:30:58.000Z</time>
      </trkpt>
      <trkpt lat="45.18434" lon="5.64205">
        <ele>1084.2</ele>
        <time>2021-04-23T11:30:59.000Z</time>
      </trkpt>
      <trkpt lat="45.18435" lon="5.64204">
        <ele>1084.4</ele>
        <time>2021-04-23T11:31:00.000Z</time>
      </trkpt>
      <trkpt lat="45.18437" lon="5.64204">
        <ele>1084.6</ele>
        <time>2021-04-23T11:31:01.000Z</time>
      </trkpt>
      <trkpt lat="45.18439" lon="5.64204">
        <ele>1084.8</ele>
        <time>2021-04-23T11:31:02.000Z</time>
      </trkpt>
      <trkpt lat="45.1844" lon="5.64204">
        <ele>1085</ele>
        <time>2021-04-23T11:31:03.000Z</time>
      </trkpt>
      <trkpt lat="45.18441" lon="5.64204">
        <ele>1085.2</ele>
        <time>2021-04-23T11:31:04.000Z</time>
      </trkpt>
      <trkpt lat="45.18443" lon="5.64203">
        <ele>1085.4</ele>
        <time>2021-04-23T11:31:05.000Z</time>
      </trkpt>
      <trkpt lat="45.18445" lon="5.64203">
        <ele>1085.4</ele>
        <time>2021-04-23T11:31:06.000Z</time>
      </trkpt>
      <trkpt lat="45.18447" lon="5.64202">
        <ele>1085.8</ele>
        <time>2021-04-23T11:31:07.000Z</time>
      </trkpt>
      <trkpt lat="45.18449" lon="5.64201">
        <ele>1086</ele>
        <time>2021-04-23T11:31:08.000Z</time>
      </trkpt>
      <trkpt lat="45.18451" lon="5.642">
        <ele>1086.2</ele>
        <time>2021-04-23T11:31:09.000Z</time>
      </trkpt>
      <trkpt lat="45.18452" lon="5.64199">
        <ele>1086.4</ele>
        <time>2021-04-23T11:31:10.000Z</time>
      </trkpt>
      <trkpt lat="45.18454" lon="5.64198">
        <ele>1086.6</ele>
        <time>2021-04-23T11:31:11.000Z</time>
      </trkpt>
      <trkpt lat="45.18456" lon="5.64196">
        <ele>1086.8</ele>
        <time>2021-04-23T11:31:12.000Z</time>
      </trkpt>
      <trkpt lat="45.18458" lon="5.64197">
        <ele>1087</ele>
        <time>2021-04-23T11:31:13.000Z</time>
      </trkpt>
      <trkpt lat="45.18459" lon="5.64196">
        <ele>1087</ele>
        <time>2021-04-23T11:31:14.000Z</time>
      </trkpt>
      <trkpt lat="45.18461" lon="5.64197">
        <ele>1087.4</ele>
        <time>2021-04-23T11:31:15.000Z</time>
      </trkpt>
      <trkpt lat="45.18463" lon="5.64197">
        <ele>1087.6</ele>
        <time>2021-04-23T11:31:16.000Z</time>
      </trkpt>
      <trkpt lat="45.18464" lon="5.64196">
        <ele>1087.6</ele>
        <time>2021-04-23T11:31:17.000Z</time>
      </trkpt>
      <trkpt lat="45.18466" lon="5.64194">
        <ele>1088</ele>
        <time>2021-04-23T11:31:18.000Z</time>
      </trkpt>
      <trkpt lat="45.18469" lon="5.64193">
        <ele>1088.2</ele>
        <time>2021-04-23T11:31:19.000Z</time>
      </trkpt>
      <trkpt lat="45.1847" lon="5.64193">
        <ele>1088.4</ele>
        <time>2021-04-23T11:31:20.000Z</time>
      </trkpt>
      <trkpt lat="45.18472" lon="5.64192">
        <ele>1088.8</ele>
        <time>2021-04-23T11:31:21.000Z</time>
      </trkpt>
      <trkpt lat="45.18473" lon="5.64191">
        <ele>1088.8</ele>
        <time>2021-04-23T11:31:22.000Z</time>
      </trkpt>
      <trkpt lat="45.18474" lon="5.64191">
        <ele>1089</ele>
        <time>2021-04-23T11:31:23.000Z</time>
      </trkpt>
      <trkpt lat="45.18476" lon="5.64191">
        <ele>1089.2</ele>
        <time>2021-04-23T11:31:24.000Z</time>
      </trkpt>
      <trkpt lat="45.18478" lon="5.6419">
        <ele>1089.2</ele>
        <time>2021-04-23T11:31:25.000Z</time>
      </trkpt>
      <trkpt lat="45.1848" lon="5.64189">
        <ele>1089.4</ele>
        <time>2021-04-23T11:31:26.000Z</time>
      </trkpt>
      <trkpt lat="45.18482" lon="5.64188">
        <ele>1089.6</ele>
        <time>2021-04-23T11:31:27.000Z</time>
      </trkpt>
      <trkpt lat="45.18483" lon="5.64187">
        <ele>1090</ele>
        <time>2021-04-23T11:31:28.000Z</time>
      </trkpt>
      <trkpt lat="45.18484" lon="5.64186">
        <ele>1090.2</ele>
        <time>2021-04-23T11:31:29.000Z</time>
      </trkpt>
      <trkpt lat="45.18486" lon="5.64186">
        <ele>1090.4</ele>
        <time>2021-04-23T11:31:30.000Z</time>
      </trkpt>
      <trkpt lat="45.18488" lon="5.64184">
        <ele>1090.6</ele>
        <time>2021-04-23T11:31:31.000Z</time>
      </trkpt>
      <trkpt lat="45.1849" lon="5.64183">
        <ele>1090.8</ele>
        <time>2021-04-23T11:31:32.000Z</time>
      </trkpt>
      <trkpt lat="45.18493" lon="5.64182">
        <ele>1091</ele>
        <time>2021-04-23T11:31:33.000Z</time>
      </trkpt>
      <trkpt lat="45.18495" lon="5.64182">
        <ele>1091.2</ele>
        <time>2021-04-23T11:31:34.000Z</time>
      </trkpt>
      <trkpt lat="45.18496" lon="5.64181">
        <ele>1091.4</ele>
        <time>2021-04-23T11:31:35.000Z</time>
      </trkpt>
      <trkpt lat="45.18498" lon="5.6418">
        <ele>1091.6</ele>
        <time>2021-04-23T11:31:36.000Z</time>
      </trkpt>
      <trkpt lat="45.185" lon="5.64178">
        <ele>1091.8</ele>
        <time>2021-04-23T11:31:37.000Z</time>
      </trkpt>
      <trkpt lat="45.18501" lon="5.64177">
        <ele>1092</ele>
        <time>2021-04-23T11:31:38.000Z</time>
      </trkpt>
      <trkpt lat="45.18502" lon="5.64176">
        <ele>1092</ele>
        <time>2021-04-23T11:31:39.000Z</time>
      </trkpt>
      <trkpt lat="45.18503" lon="5.64176">
        <ele>1092.4</ele>
        <time>2021-04-23T11:31:40.000Z</time>
      </trkpt>
      <trkpt lat="45.18505" lon="5.64176">
        <ele>1092.4</ele>
        <time>2021-04-23T11:31:41.000Z</time>
      </trkpt>
      <trkpt lat="45.18507" lon="5.64174">
        <ele>1092.6</ele>
        <time>2021-04-23T11:31:42.000Z</time>
      </trkpt>
      <trkpt lat="45.18509" lon="5.64174">
        <ele>1092.8</ele>
        <time>2021-04-23T11:31:43.000Z</time>
      </trkpt>
      <trkpt lat="45.1851" lon="5.64173">
        <ele>1093</ele>
        <time>2021-04-23T11:31:44.000Z</time>
      </trkpt>
      <trkpt lat="45.18512" lon="5.64171">
        <ele>1093.2</ele>
        <time>2021-04-23T11:31:45.000Z</time>
      </trkpt>
      <trkpt lat="45.18514" lon="5.64171">
        <ele>1093.4</ele>
        <time>2021-04-23T11:31:46.000Z</time>
      </trkpt>
      <trkpt lat="45.18517" lon="5.64169">
        <ele>1093.4</ele>
        <time>2021-04-23T11:31:47.000Z</time>
      </trkpt>
      <trkpt lat="45.18518" lon="5.64168">
        <ele>1093.6</ele>
        <time>2021-04-23T11:31:48.000Z</time>
      </trkpt>
      <trkpt lat="45.1852" lon="5.64166">
        <ele>1093.8</ele>
        <time>2021-04-23T11:31:49.000Z</time>
      </trkpt>
      <trkpt lat="45.18521" lon="5.64165">
        <ele>1094</ele>
        <time>2021-04-23T11:31:50.000Z</time>
      </trkpt>
      <trkpt lat="45.18523" lon="5.64163">
        <ele>1094.2</ele>
        <time>2021-04-23T11:31:51.000Z</time>
      </trkpt>
      <trkpt lat="45.18525" lon="5.64161">
        <ele>1094.4</ele>
        <time>2021-04-23T11:31:52.000Z</time>
      </trkpt>
      <trkpt lat="45.18527" lon="5.6416">
        <ele>1094.4</ele>
        <time>2021-04-23T11:31:53.000Z</time>
      </trkpt>
      <trkpt lat="45.18528" lon="5.64159">
        <ele>1094.6</ele>
        <time>2021-04-23T11:31:54.000Z</time>
      </trkpt>
      <trkpt lat="45.18529" lon="5.64157">
        <ele>1094.6</ele>
        <time>2021-04-23T11:31:55.000Z</time>
      </trkpt>
      <trkpt lat="45.1853" lon="5.64154">
        <ele>1094.6</ele>
        <time>2021-04-23T11:31:56.000Z</time>
      </trkpt>
      <trkpt lat="45.1853" lon="5.64152">
        <ele>1094.6</ele>
        <time>2021-04-23T11:31:57.000Z</time>
      </trkpt>
      <trkpt lat="45.18532" lon="5.64151">
        <ele>1094.6</ele>
        <time>2021-04-23T11:31:58.000Z</time>
      </trkpt>
      <trkpt lat="45.18535" lon="5.64149">
        <ele>1094.6</ele>
        <time>2021-04-23T11:31:59.000Z</time>
      </trkpt>
      <trkpt lat="45.18536" lon="5.64146">
        <ele>1094.4</ele>
        <time>2021-04-23T11:32:00.000Z</time>
      </trkpt>
      <trkpt lat="45.18538" lon="5.64143">
        <ele>1094.4</ele>
        <time>2021-04-23T11:32:01.000Z</time>
      </trkpt>
      <trkpt lat="45.1854" lon="5.64139">
        <ele>1094.2</ele>
        <time>2021-04-23T11:32:02.000Z</time>
      </trkpt>
      <trkpt lat="45.18542" lon="5.64136">
        <ele>1094.2</ele>
        <time>2021-04-23T11:32:03.000Z</time>
      </trkpt>
      <trkpt lat="45.18543" lon="5.64133">
        <ele>1094</ele>
        <time>2021-04-23T11:32:04.000Z</time>
      </trkpt>
      <trkpt lat="45.18545" lon="5.64129">
        <ele>1093.8</ele>
        <time>2021-04-23T11:32:05.000Z</time>
      </trkpt>
      <trkpt lat="45.18548" lon="5.64127">
        <ele>1093.8</ele>
        <time>2021-04-23T11:32:06.000Z</time>
      </trkpt>
      <trkpt lat="45.18553" lon="5.64124">
        <ele>1093.6</ele>
        <time>2021-04-23T11:32:07.000Z</time>
      </trkpt>
      <trkpt lat="45.18561" lon="5.64123">
        <ele>1093.4</ele>
        <time>2021-04-23T11:32:09.000Z</time>
      </trkpt>
      <trkpt lat="45.18566" lon="5.64122">
        <ele>1093.4</ele>
        <time>2021-04-23T11:32:10.000Z</time>
      </trkpt>
      <trkpt lat="45.18576" lon="5.64119">
        <ele>1093.4</ele>
        <time>2021-04-23T11:32:13.000Z</time>
      </trkpt>
      <trkpt lat="45.18584" lon="5.64115">
        <ele>1094.4</ele>
        <time>2021-04-23T11:32:16.000Z</time>
      </trkpt>
      <trkpt lat="45.18585" lon="5.64115">
        <ele>1094.8</ele>
        <time>2021-04-23T11:32:17.000Z</time>
      </trkpt>
      <trkpt lat="45.18586" lon="5.64114">
        <ele>1095</ele>
        <time>2021-04-23T11:32:18.000Z</time>
      </trkpt>
      <trkpt lat="45.18587" lon="5.64113">
        <ele>1095</ele>
        <time>2021-04-23T11:32:19.000Z</time>
      </trkpt>
      <trkpt lat="45.18588" lon="5.64113">
        <ele>1095.2</ele>
        <time>2021-04-23T11:32:20.000Z</time>
      </trkpt>
      <trkpt lat="45.18588" lon="5.64113">
        <ele>1095.2</ele>
        <time>2021-04-23T11:32:21.000Z</time>
      </trkpt>
      <trkpt lat="45.18588" lon="5.64114">
        <ele>1095.2</ele>
        <time>2021-04-23T11:32:22.000Z</time>
      </trkpt>
      <trkpt lat="45.18587" lon="5.64114">
        <ele>1095.2</ele>
        <time>2021-04-23T11:32:23.000Z</time>
      </trkpt>
      <trkpt lat="45.18587" lon="5.64114">
        <ele>1095.4</ele>
        <time>2021-04-23T11:32:25.000Z</time>
      </trkpt>
      <trkpt lat="45.18587" lon="5.64114">
        <ele>1095.2</ele>
        <time>2021-04-23T11:32:27.000Z</time>
      </trkpt>
      <trkpt lat="45.18587" lon="5.64114">
        <ele>1095.4</ele>
        <time>2021-04-23T11:32:29.000Z</time>
      </trkpt>
      <trkpt lat="45.18587" lon="5.64114">
        <ele>1095.2</ele>
        <time>2021-04-23T11:32:33.000Z</time>
      </trkpt>
      <trkpt lat="45.18591" lon="5.64114">
        <ele>1095</ele>
        <time>2021-04-23T11:32:35.000Z</time>
      </trkpt>
      <trkpt lat="45.18594" lon="5.64114">
        <ele>1094.8</ele>
        <time>2021-04-23T11:32:36.000Z</time>
      </trkpt>
      <trkpt lat="45.18599" lon="5.64113">
        <ele>1095</ele>
        <time>2021-04-23T11:32:38.000Z</time>
      </trkpt>
      <trkpt lat="45.186" lon="5.64113">
        <ele>1095.2</ele>
        <time>2021-04-23T11:32:39.000Z</time>
      </trkpt>
      <trkpt lat="45.18601" lon="5.64112">
        <ele>1095.2</ele>
        <time>2021-04-23T11:32:40.000Z</time>
      </trkpt>
      <trkpt lat="45.18603" lon="5.64112">
        <ele>1095.2</ele>
        <time>2021-04-23T11:32:41.000Z</time>
      </trkpt>
      <trkpt lat="45.18617" lon="5.64109">
        <ele>1094.2</ele>
        <time>2021-04-23T11:32:46.000Z</time>
      </trkpt>
      <trkpt lat="45.18622" lon="5.64111">
        <ele>1093.4</ele>
        <time>2021-04-23T11:32:47.000Z</time>
      </trkpt>
      <trkpt lat="45.18627" lon="5.64115">
        <ele>1092.8</ele>
        <time>2021-04-23T11:32:48.000Z</time>
      </trkpt>
      <trkpt lat="45.18632" lon="5.64116">
        <ele>1092.4</ele>
        <time>2021-04-23T11:32:49.000Z</time>
      </trkpt>
      <trkpt lat="45.18636" lon="5.64118">
        <ele>1092</ele>
        <time>2021-04-23T11:32:50.000Z</time>
      </trkpt>
      <trkpt lat="45.18641" lon="5.64121">
        <ele>1091.6</ele>
        <time>2021-04-23T11:32:51.000Z</time>
      </trkpt>
      <trkpt lat="45.18649" lon="5.64126">
        <ele>1091.2</ele>
        <time>2021-04-23T11:32:53.000Z</time>
      </trkpt>
      <trkpt lat="45.18657" lon="5.64132">
        <ele>1091.2</ele>
        <time>2021-04-23T11:32:55.000Z</time>
      </trkpt>
      <trkpt lat="45.18665" lon="5.64139">
        <ele>1091.2</ele>
        <time>2021-04-23T11:32:57.000Z</time>
      </trkpt>
      <trkpt lat="45.18673" lon="5.64148">
        <ele>1090.8</ele>
        <time>2021-04-23T11:32:59.000Z</time>
      </trkpt>
      <trkpt lat="45.18676" lon="5.6415">
        <ele>1090.8</ele>
        <time>2021-04-23T11:33:00.000Z</time>
      </trkpt>
      <trkpt lat="45.18679" lon="5.64152">
        <ele>1091</ele>
        <time>2021-04-23T11:33:01.000Z</time>
      </trkpt>
      <trkpt lat="45.18682" lon="5.64155">
        <ele>1091.2</ele>
        <time>2021-04-23T11:33:02.000Z</time>
      </trkpt>
      <trkpt lat="45.18685" lon="5.64156">
        <ele>1091.4</ele>
        <time>2021-04-23T11:33:03.000Z</time>
      </trkpt>
      <trkpt lat="45.18687" lon="5.64158">
        <ele>1092.4</ele>
        <time>2021-04-23T11:33:04.000Z</time>
      </trkpt>
      <trkpt lat="45.18688" lon="5.64158">
        <ele>1092.8</ele>
        <time>2021-04-23T11:33:05.000Z</time>
      </trkpt>
      <trkpt lat="45.18691" lon="5.64159">
        <ele>1093.2</ele>
        <time>2021-04-23T11:33:06.000Z</time>
      </trkpt>
      <trkpt lat="45.18693" lon="5.6416">
        <ele>1093.4</ele>
        <time>2021-04-23T11:33:07.000Z</time>
      </trkpt>
      <trkpt lat="45.18697" lon="5.64163">
        <ele>1094</ele>
        <time>2021-04-23T11:33:09.000Z</time>
      </trkpt>
      <trkpt lat="45.18698" lon="5.64164">
        <ele>1094.2</ele>
        <time>2021-04-23T11:33:10.000Z</time>
      </trkpt>
      <trkpt lat="45.18699" lon="5.64165">
        <ele>1094.4</ele>
        <time>2021-04-23T11:33:11.000Z</time>
      </trkpt>
      <trkpt lat="45.18702" lon="5.64166">
        <ele>1094.6</ele>
        <time>2021-04-23T11:33:12.000Z</time>
      </trkpt>
      <trkpt lat="45.18707" lon="5.6417">
        <ele>1094.8</ele>
        <time>2021-04-23T11:33:15.000Z</time>
      </trkpt>
      <trkpt lat="45.18708" lon="5.6417">
        <ele>1095.2</ele>
        <time>2021-04-23T11:33:16.000Z</time>
      </trkpt>
      <trkpt lat="45.1871" lon="5.64171">
        <ele>1095.4</ele>
        <time>2021-04-23T11:33:17.000Z</time>
      </trkpt>
      <trkpt lat="45.18712" lon="5.64172">
        <ele>1095.6</ele>
        <time>2021-04-23T11:33:18.000Z</time>
      </trkpt>
      <trkpt lat="45.18713" lon="5.64173">
        <ele>1095.8</ele>
        <time>2021-04-23T11:33:19.000Z</time>
      </trkpt>
      <trkpt lat="45.18715" lon="5.64175">
        <ele>1096</ele>
        <time>2021-04-23T11:33:20.000Z</time>
      </trkpt>
      <trkpt lat="45.18717" lon="5.64176">
        <ele>1096.2</ele>
        <time>2021-04-23T11:33:21.000Z</time>
      </trkpt>
      <trkpt lat="45.18719" lon="5.64178">
        <ele>1096.2</ele>
        <time>2021-04-23T11:33:22.000Z</time>
      </trkpt>
      <trkpt lat="45.18722" lon="5.6418">
        <ele>1096.2</ele>
        <time>2021-04-23T11:33:23.000Z</time>
      </trkpt>
      <trkpt lat="45.18726" lon="5.64182">
        <ele>1096.2</ele>
        <time>2021-04-23T11:33:24.000Z</time>
      </trkpt>
      <trkpt lat="45.1873" lon="5.64186">
        <ele>1095.8</ele>
        <time>2021-04-23T11:33:25.000Z</time>
      </trkpt>
      <trkpt lat="45.18733" lon="5.64189">
        <ele>1095.6</ele>
        <time>2021-04-23T11:33:26.000Z</time>
      </trkpt>
      <trkpt lat="45.18735" lon="5.64192">
        <ele>1095.6</ele>
        <time>2021-04-23T11:33:27.000Z</time>
      </trkpt>
      <trkpt lat="45.18737" lon="5.64194">
        <ele>1095.8</ele>
        <time>2021-04-23T11:33:28.000Z</time>
      </trkpt>
      <trkpt lat="45.18738" lon="5.64196">
        <ele>1095.8</ele>
        <time>2021-04-23T11:33:29.000Z</time>
      </trkpt>
      <trkpt lat="45.1874" lon="5.64197">
        <ele>1095.8</ele>
        <time>2021-04-23T11:33:30.000Z</time>
      </trkpt>
      <trkpt lat="45.18741" lon="5.64199">
        <ele>1096.2</ele>
        <time>2021-04-23T11:33:31.000Z</time>
      </trkpt>
      <trkpt lat="45.18742" lon="5.642">
        <ele>1096.2</ele>
        <time>2021-04-23T11:33:32.000Z</time>
      </trkpt>
      <trkpt lat="45.18743" lon="5.64201">
        <ele>1096.4</ele>
        <time>2021-04-23T11:33:33.000Z</time>
      </trkpt>
      <trkpt lat="45.18744" lon="5.64202">
        <ele>1096.6</ele>
        <time>2021-04-23T11:33:34.000Z</time>
      </trkpt>
      <trkpt lat="45.18745" lon="5.64203">
        <ele>1096.6</ele>
        <time>2021-04-23T11:33:35.000Z</time>
      </trkpt>
      <trkpt lat="45.18746" lon="5.64204">
        <ele>1096.6</ele>
        <time>2021-04-23T11:33:36.000Z</time>
      </trkpt>
      <trkpt lat="45.18747" lon="5.64205">
        <ele>1096.6</ele>
        <time>2021-04-23T11:33:37.000Z</time>
      </trkpt>
      <trkpt lat="45.18755" lon="5.64211">
        <ele>1096.6</ele>
        <time>2021-04-23T11:33:40.000Z</time>
      </trkpt>
      <trkpt lat="45.18755" lon="5.64214">
        <ele>1096.6</ele>
        <time>2021-04-23T11:33:41.000Z</time>
      </trkpt>
      <trkpt lat="45.18755" lon="5.64216">
        <ele>1096.6</ele>
        <time>2021-04-23T11:33:42.000Z</time>
      </trkpt>
      <trkpt lat="45.18754" lon="5.64219">
        <ele>1096.8</ele>
        <time>2021-04-23T11:33:43.000Z</time>
      </trkpt>
      <trkpt lat="45.18754" lon="5.64222">
        <ele>1097.2</ele>
        <time>2021-04-23T11:33:44.000Z</time>
      </trkpt>
      <trkpt lat="45.18754" lon="5.64224">
        <ele>1097.4</ele>
        <time>2021-04-23T11:33:45.000Z</time>
      </trkpt>
      <trkpt lat="45.18754" lon="5.64227">
        <ele>1098</ele>
        <time>2021-04-23T11:33:46.000Z</time>
      </trkpt>
      <trkpt lat="45.18753" lon="5.64229">
        <ele>1098.2</ele>
        <time>2021-04-23T11:33:47.000Z</time>
      </trkpt>
      <trkpt lat="45.18752" lon="5.64235">
        <ele>1098.4</ele>
        <time>2021-04-23T11:33:49.000Z</time>
      </trkpt>
      <trkpt lat="45.18751" lon="5.64237">
        <ele>1098.4</ele>
        <time>2021-04-23T11:33:50.000Z</time>
      </trkpt>
      <trkpt lat="45.1875" lon="5.64244">
        <ele>1098.2</ele>
        <time>2021-04-23T11:33:52.000Z</time>
      </trkpt>
      <trkpt lat="45.18748" lon="5.64247">
        <ele>1098</ele>
        <time>2021-04-23T11:33:53.000Z</time>
      </trkpt>
      <trkpt lat="45.18747" lon="5.6425">
        <ele>1098</ele>
        <time>2021-04-23T11:33:54.000Z</time>
      </trkpt>
      <trkpt lat="45.18745" lon="5.64254">
        <ele>1098</ele>
        <time>2021-04-23T11:33:55.000Z</time>
      </trkpt>
      <trkpt lat="45.18744" lon="5.64257">
        <ele>1098</ele>
        <time>2021-04-23T11:33:56.000Z</time>
      </trkpt>
      <trkpt lat="45.18741" lon="5.64264">
        <ele>1098.6</ele>
        <time>2021-04-23T11:33:59.000Z</time>
      </trkpt>
      <trkpt lat="45.1874" lon="5.64267">
        <ele>1099</ele>
        <time>2021-04-23T11:34:00.000Z</time>
      </trkpt>
      <trkpt lat="45.18739" lon="5.64269">
        <ele>1099.4</ele>
        <time>2021-04-23T11:34:01.000Z</time>
      </trkpt>
      <trkpt lat="45.18739" lon="5.64271">
        <ele>1099.6</ele>
        <time>2021-04-23T11:34:02.000Z</time>
      </trkpt>
      <trkpt lat="45.18738" lon="5.64274">
        <ele>1099.8</ele>
        <time>2021-04-23T11:34:03.000Z</time>
      </trkpt>
      <trkpt lat="45.18737" lon="5.64276">
        <ele>1100</ele>
        <time>2021-04-23T11:34:04.000Z</time>
      </trkpt>
      <trkpt lat="45.18737" lon="5.64278">
        <ele>1100.2</ele>
        <time>2021-04-23T11:34:05.000Z</time>
      </trkpt>
      <trkpt lat="45.18736" lon="5.64279">
        <ele>1100.4</ele>
        <time>2021-04-23T11:34:06.000Z</time>
      </trkpt>
      <trkpt lat="45.18735" lon="5.64281">
        <ele>1100.4</ele>
        <time>2021-04-23T11:34:07.000Z</time>
      </trkpt>
      <trkpt lat="45.18735" lon="5.64284">
        <ele>1100.6</ele>
        <time>2021-04-23T11:34:08.000Z</time>
      </trkpt>
      <trkpt lat="45.18734" lon="5.64287">
        <ele>1100.6</ele>
        <time>2021-04-23T11:34:09.000Z</time>
      </trkpt>
      <trkpt lat="45.18733" lon="5.6429">
        <ele>1100.4</ele>
        <time>2021-04-23T11:34:10.000Z</time>
      </trkpt>
      <trkpt lat="45.18733" lon="5.64294">
        <ele>1100.2</ele>
        <time>2021-04-23T11:34:11.000Z</time>
      </trkpt>
      <trkpt lat="45.18732" lon="5.64297">
        <ele>1100.2</ele>
        <time>2021-04-23T11:34:12.000Z</time>
      </trkpt>
      <trkpt lat="45.18731" lon="5.64301">
        <ele>1100</ele>
        <time>2021-04-23T11:34:13.000Z</time>
      </trkpt>
      <trkpt lat="45.1873" lon="5.64304">
        <ele>1099.6</ele>
        <time>2021-04-23T11:34:14.000Z</time>
      </trkpt>
      <trkpt lat="45.18729" lon="5.64308">
        <ele>1099.4</ele>
        <time>2021-04-23T11:34:15.000Z</time>
      </trkpt>
      <trkpt lat="45.18728" lon="5.64312">
        <ele>1098.8</ele>
        <time>2021-04-23T11:34:16.000Z</time>
      </trkpt>
      <trkpt lat="45.18725" lon="5.64317">
        <ele>1098.4</ele>
        <time>2021-04-23T11:34:17.000Z</time>
      </trkpt>
      <trkpt lat="45.18722" lon="5.64321">
        <ele>1098</ele>
        <time>2021-04-23T11:34:18.000Z</time>
      </trkpt>
      <trkpt lat="45.18719" lon="5.64325">
        <ele>1097.6</ele>
        <time>2021-04-23T11:34:19.000Z</time>
      </trkpt>
      <trkpt lat="45.18718" lon="5.64328">
        <ele>1097</ele>
        <time>2021-04-23T11:34:20.000Z</time>
      </trkpt>
      <trkpt lat="45.18717" lon="5.6433">
        <ele>1096.8</ele>
        <time>2021-04-23T11:34:21.000Z</time>
      </trkpt>
      <trkpt lat="45.18717" lon="5.6433">
        <ele>1096.8</ele>
        <time>2021-04-23T11:34:22.000Z</time>
      </trkpt>
      <trkpt lat="45.18717" lon="5.6433">
        <ele>1096.8</ele>
        <time>2021-04-23T11:34:23.000Z</time>
      </trkpt>
      <trkpt lat="45.18717" lon="5.6433">
        <ele>1096.8</ele>
        <time>2021-04-23T11:34:24.000Z</time>
      </trkpt>
      <trkpt lat="45.18717" lon="5.6433">
        <ele>1097</ele>
        <time>2021-04-23T11:34:25.000Z</time>
      </trkpt>
      <trkpt lat="45.18719" lon="5.64328">
        <ele>1097</ele>
        <time>2021-04-23T11:34:27.000Z</time>
      </trkpt>
      <trkpt lat="45.18719" lon="5.64327">
        <ele>1097</ele>
        <time>2021-04-23T11:34:28.000Z</time>
      </trkpt>
      <trkpt lat="45.18719" lon="5.64326">
        <ele>1097</ele>
        <time>2021-04-23T11:34:29.000Z</time>
      </trkpt>
      <trkpt lat="45.18719" lon="5.64326">
        <ele>1097.2</ele>
        <time>2021-04-23T11:34:30.000Z</time>
      </trkpt>
      <trkpt lat="45.18721" lon="5.64325">
        <ele>1097.6</ele>
        <time>2021-04-23T11:34:36.000Z</time>
      </trkpt>
      <trkpt lat="45.18723" lon="5.64323">
        <ele>1097.8</ele>
        <time>2021-04-23T11:34:37.000Z</time>
      </trkpt>
      <trkpt lat="45.18725" lon="5.64321">
        <ele>1097.8</ele>
        <time>2021-04-23T11:34:38.000Z</time>
      </trkpt>
      <trkpt lat="45.18729" lon="5.64318">
        <ele>1098.4</ele>
        <time>2021-04-23T11:34:41.000Z</time>
      </trkpt>
      <trkpt lat="45.1873" lon="5.64317">
        <ele>1098.6</ele>
        <time>2021-04-23T11:34:42.000Z</time>
      </trkpt>
      <trkpt lat="45.18731" lon="5.64316">
        <ele>1098.6</ele>
        <time>2021-04-23T11:34:43.000Z</time>
      </trkpt>
      <trkpt lat="45.18732" lon="5.64314">
        <ele>1098.8</ele>
        <time>2021-04-23T11:34:44.000Z</time>
      </trkpt>
      <trkpt lat="45.18733" lon="5.64311">
        <ele>1098.8</ele>
        <time>2021-04-23T11:34:46.000Z</time>
      </trkpt>
      <trkpt lat="45.18734" lon="5.6431">
        <ele>1098.8</ele>
        <time>2021-04-23T11:34:47.000Z</time>
      </trkpt>
      <trkpt lat="45.18736" lon="5.64309">
        <ele>1098.8</ele>
        <time>2021-04-23T11:34:48.000Z</time>
      </trkpt>
      <trkpt lat="45.18736" lon="5.64308">
        <ele>1098.8</ele>
        <time>2021-04-23T11:34:49.000Z</time>
      </trkpt>
      <trkpt lat="45.18737" lon="5.64307">
        <ele>1098.8</ele>
        <time>2021-04-23T11:34:52.000Z</time>
      </trkpt>
      <trkpt lat="45.18737" lon="5.64307">
        <ele>1098.8</ele>
        <time>2021-04-23T11:34:53.000Z</time>
      </trkpt>
      <trkpt lat="45.18738" lon="5.64306">
        <ele>1098.6</ele>
        <time>2021-04-23T11:34:58.000Z</time>
      </trkpt>
      <trkpt lat="45.18738" lon="5.64306">
        <ele>1098.6</ele>
        <time>2021-04-23T11:34:59.000Z</time>
      </trkpt>
      <trkpt lat="45.18738" lon="5.64306">
        <ele>1098.6</ele>
        <time>2021-04-23T11:35:00.000Z</time>
      </trkpt>
      <trkpt lat="45.18738" lon="5.64306">
        <ele>1098.6</ele>
        <time>2021-04-23T11:35:01.000Z</time>
      </trkpt>
      <trkpt lat="45.18738" lon="5.64306">
        <ele>1098.8</ele>
        <time>2021-04-23T11:35:04.000Z</time>
      </trkpt>
      <trkpt lat="45.18739" lon="5.64307">
        <ele>1098.6</ele>
        <time>2021-04-23T11:35:12.000Z</time>
      </trkpt>
      <trkpt lat="45.18739" lon="5.64307">
        <ele>1098.2</ele>
        <time>2021-04-23T11:35:16.000Z</time>
      </trkpt>
      <trkpt lat="45.18743" lon="5.6431">
        <ele>1098.4</ele>
        <time>2021-04-23T11:35:19.000Z</time>
      </trkpt>
      <trkpt lat="45.18745" lon="5.64312">
        <ele>1098.4</ele>
        <time>2021-04-23T11:35:20.000Z</time>
      </trkpt>
      <trkpt lat="45.18747" lon="5.64315">
        <ele>1098.4</ele>
        <time>2021-04-23T11:35:21.000Z</time>
      </trkpt>
      <trkpt lat="45.18749" lon="5.64318">
        <ele>1098.4</ele>
        <time>2021-04-23T11:35:22.000Z</time>
      </trkpt>
      <trkpt lat="45.18754" lon="5.64322">
        <ele>1098.4</ele>
        <time>2021-04-23T11:35:24.000Z</time>
      </trkpt>
      <trkpt lat="45.18759" lon="5.64326">
        <ele>1098.6</ele>
        <time>2021-04-23T11:35:26.000Z</time>
      </trkpt>
      <trkpt lat="45.18761" lon="5.64328">
        <ele>1098.6</ele>
        <time>2021-04-23T11:35:27.000Z</time>
      </trkpt>
      <trkpt lat="45.18769" lon="5.64333">
        <ele>1099.6</ele>
        <time>2021-04-23T11:35:31.000Z</time>
      </trkpt>
      <trkpt lat="45.18771" lon="5.64333">
        <ele>1099.8</ele>
        <time>2021-04-23T11:35:32.000Z</time>
      </trkpt>
      <trkpt lat="45.18773" lon="5.64333">
        <ele>1100</ele>
        <time>2021-04-23T11:35:33.000Z</time>
      </trkpt>
      <trkpt lat="45.18775" lon="5.64333">
        <ele>1100.2</ele>
        <time>2021-04-23T11:35:34.000Z</time>
      </trkpt>
      <trkpt lat="45.18777" lon="5.64332">
        <ele>1100.6</ele>
        <time>2021-04-23T11:35:35.000Z</time>
      </trkpt>
      <trkpt lat="45.18779" lon="5.64331">
        <ele>1100.8</ele>
        <time>2021-04-23T11:35:36.000Z</time>
      </trkpt>
      <trkpt lat="45.18782" lon="5.64331">
        <ele>1101</ele>
        <time>2021-04-23T11:35:37.000Z</time>
      </trkpt>
      <trkpt lat="45.18784" lon="5.6433">
        <ele>1101.6</ele>
        <time>2021-04-23T11:35:38.000Z</time>
      </trkpt>
      <trkpt lat="45.18785" lon="5.64329">
        <ele>1102</ele>
        <time>2021-04-23T11:35:39.000Z</time>
      </trkpt>
      <trkpt lat="45.18787" lon="5.64329">
        <ele>1102.2</ele>
        <time>2021-04-23T11:35:40.000Z</time>
      </trkpt>
      <trkpt lat="45.18788" lon="5.64328">
        <ele>1102.6</ele>
        <time>2021-04-23T11:35:41.000Z</time>
      </trkpt>
      <trkpt lat="45.18789" lon="5.64327">
        <ele>1102.8</ele>
        <time>2021-04-23T11:35:42.000Z</time>
      </trkpt>
      <trkpt lat="45.18791" lon="5.64327">
        <ele>1103.2</ele>
        <time>2021-04-23T11:35:43.000Z</time>
      </trkpt>
      <trkpt lat="45.18791" lon="5.64326">
        <ele>1103.4</ele>
        <time>2021-04-23T11:35:44.000Z</time>
      </trkpt>
      <trkpt lat="45.18792" lon="5.64326">
        <ele>1103.4</ele>
        <time>2021-04-23T11:35:45.000Z</time>
      </trkpt>
      <trkpt lat="45.18792" lon="5.64326">
        <ele>1103.8</ele>
        <time>2021-04-23T11:35:46.000Z</time>
      </trkpt>
      <trkpt lat="45.18793" lon="5.64326">
        <ele>1103.8</ele>
        <time>2021-04-23T11:35:47.000Z</time>
      </trkpt>
      <trkpt lat="45.18794" lon="5.64325">
        <ele>1104</ele>
        <time>2021-04-23T11:35:48.000Z</time>
      </trkpt>
      <trkpt lat="45.18795" lon="5.64325">
        <ele>1104</ele>
        <time>2021-04-23T11:35:49.000Z</time>
      </trkpt>
      <trkpt lat="45.18796" lon="5.64324">
        <ele>1104.2</ele>
        <time>2021-04-23T11:35:50.000Z</time>
      </trkpt>
      <trkpt lat="45.18797" lon="5.64324">
        <ele>1104.4</ele>
        <time>2021-04-23T11:35:51.000Z</time>
      </trkpt>
      <trkpt lat="45.18798" lon="5.64324">
        <ele>1104.4</ele>
        <time>2021-04-23T11:35:52.000Z</time>
      </trkpt>
      <trkpt lat="45.18799" lon="5.64324">
        <ele>1104.4</ele>
        <time>2021-04-23T11:35:53.000Z</time>
      </trkpt>
      <trkpt lat="45.188" lon="5.64324">
        <ele>1104.6</ele>
        <time>2021-04-23T11:35:54.000Z</time>
      </trkpt>
      <trkpt lat="45.18802" lon="5.64323">
        <ele>1104.8</ele>
        <time>2021-04-23T11:35:55.000Z</time>
      </trkpt>
      <trkpt lat="45.18804" lon="5.64322">
        <ele>1105</ele>
        <time>2021-04-23T11:35:56.000Z</time>
      </trkpt>
      <trkpt lat="45.18806" lon="5.64321">
        <ele>1105.4</ele>
        <time>2021-04-23T11:35:57.000Z</time>
      </trkpt>
      <trkpt lat="45.18808" lon="5.64321">
        <ele>1105.8</ele>
        <time>2021-04-23T11:35:58.000Z</time>
      </trkpt>
      <trkpt lat="45.1881" lon="5.64321">
        <ele>1106.2</ele>
        <time>2021-04-23T11:35:59.000Z</time>
      </trkpt>
      <trkpt lat="45.18811" lon="5.64321">
        <ele>1106.4</ele>
        <time>2021-04-23T11:36:00.000Z</time>
      </trkpt>
      <trkpt lat="45.18813" lon="5.64322">
        <ele>1106.6</ele>
        <time>2021-04-23T11:36:01.000Z</time>
      </trkpt>
      <trkpt lat="45.18814" lon="5.64322">
        <ele>1107</ele>
        <time>2021-04-23T11:36:02.000Z</time>
      </trkpt>
      <trkpt lat="45.18816" lon="5.64323">
        <ele>1107.2</ele>
        <time>2021-04-23T11:36:03.000Z</time>
      </trkpt>
      <trkpt lat="45.18816" lon="5.64323">
        <ele>1107.4</ele>
        <time>2021-04-23T11:36:04.000Z</time>
      </trkpt>
      <trkpt lat="45.18817" lon="5.64324">
        <ele>1107.6</ele>
        <time>2021-04-23T11:36:05.000Z</time>
      </trkpt>
      <trkpt lat="45.18818" lon="5.64325">
        <ele>1107.8</ele>
        <time>2021-04-23T11:36:06.000Z</time>
      </trkpt>
      <trkpt lat="45.1882" lon="5.64325">
        <ele>1108</ele>
        <time>2021-04-23T11:36:07.000Z</time>
      </trkpt>
      <trkpt lat="45.18821" lon="5.64326">
        <ele>1108.2</ele>
        <time>2021-04-23T11:36:08.000Z</time>
      </trkpt>
      <trkpt lat="45.18822" lon="5.64327">
        <ele>1108.2</ele>
        <time>2021-04-23T11:36:09.000Z</time>
      </trkpt>
      <trkpt lat="45.18823" lon="5.64328">
        <ele>1108.4</ele>
        <time>2021-04-23T11:36:10.000Z</time>
      </trkpt>
      <trkpt lat="45.18825" lon="5.64328">
        <ele>1108.8</ele>
        <time>2021-04-23T11:36:11.000Z</time>
      </trkpt>
      <trkpt lat="45.18826" lon="5.64329">
        <ele>1109.2</ele>
        <time>2021-04-23T11:36:12.000Z</time>
      </trkpt>
      <trkpt lat="45.18828" lon="5.6433">
        <ele>1109.2</ele>
        <time>2021-04-23T11:36:13.000Z</time>
      </trkpt>
      <trkpt lat="45.18828" lon="5.64331">
        <ele>1109.8</ele>
        <time>2021-04-23T11:36:14.000Z</time>
      </trkpt>
      <trkpt lat="45.1883" lon="5.64332">
        <ele>1110.2</ele>
        <time>2021-04-23T11:36:15.000Z</time>
      </trkpt>
      <trkpt lat="45.18831" lon="5.64333">
        <ele>1110.4</ele>
        <time>2021-04-23T11:36:16.000Z</time>
      </trkpt>
      <trkpt lat="45.18832" lon="5.64335">
        <ele>1110.8</ele>
        <time>2021-04-23T11:36:17.000Z</time>
      </trkpt>
      <trkpt lat="45.18832" lon="5.64336">
        <ele>1110.8</ele>
        <time>2021-04-23T11:36:18.000Z</time>
      </trkpt>
      <trkpt lat="45.18833" lon="5.64338">
        <ele>1111</ele>
        <time>2021-04-23T11:36:19.000Z</time>
      </trkpt>
      <trkpt lat="45.18833" lon="5.64339">
        <ele>1111</ele>
        <time>2021-04-23T11:36:20.000Z</time>
      </trkpt>
      <trkpt lat="45.18834" lon="5.64342">
        <ele>1111.2</ele>
        <time>2021-04-23T11:36:21.000Z</time>
      </trkpt>
      <trkpt lat="45.18834" lon="5.64343">
        <ele>1111.4</ele>
        <time>2021-04-23T11:36:22.000Z</time>
      </trkpt>
      <trkpt lat="45.18835" lon="5.64344">
        <ele>1111.6</ele>
        <time>2021-04-23T11:36:23.000Z</time>
      </trkpt>
      <trkpt lat="45.18836" lon="5.64346">
        <ele>1111.6</ele>
        <time>2021-04-23T11:36:24.000Z</time>
      </trkpt>
      <trkpt lat="45.18837" lon="5.64347">
        <ele>1111.8</ele>
        <time>2021-04-23T11:36:25.000Z</time>
      </trkpt>
      <trkpt lat="45.18836" lon="5.64348">
        <ele>1111.8</ele>
        <time>2021-04-23T11:36:26.000Z</time>
      </trkpt>
      <trkpt lat="45.18837" lon="5.64349">
        <ele>1112</ele>
        <time>2021-04-23T11:36:27.000Z</time>
      </trkpt>
      <trkpt lat="45.18837" lon="5.6435">
        <ele>1112</ele>
        <time>2021-04-23T11:36:28.000Z</time>
      </trkpt>
      <trkpt lat="45.18837" lon="5.64352">
        <ele>1112.2</ele>
        <time>2021-04-23T11:36:29.000Z</time>
      </trkpt>
      <trkpt lat="45.18837" lon="5.64352">
        <ele>1112.2</ele>
        <time>2021-04-23T11:36:30.000Z</time>
      </trkpt>
      <trkpt lat="45.18837" lon="5.64352">
        <ele>1112.4</ele>
        <time>2021-04-23T11:36:31.000Z</time>
      </trkpt>
      <trkpt lat="45.18838" lon="5.64352">
        <ele>1112.6</ele>
        <time>2021-04-23T11:36:32.000Z</time>
      </trkpt>
      <trkpt lat="45.18838" lon="5.64353">
        <ele>1112.8</ele>
        <time>2021-04-23T11:36:33.000Z</time>
      </trkpt>
      <trkpt lat="45.18839" lon="5.64353">
        <ele>1112.8</ele>
        <time>2021-04-23T11:36:34.000Z</time>
      </trkpt>
      <trkpt lat="45.1884" lon="5.64353">
        <ele>1113</ele>
        <time>2021-04-23T11:36:35.000Z</time>
      </trkpt>
      <trkpt lat="45.18841" lon="5.64354">
        <ele>1113.2</ele>
        <time>2021-04-23T11:36:36.000Z</time>
      </trkpt>
      <trkpt lat="45.18842" lon="5.64355">
        <ele>1113.4</ele>
        <time>2021-04-23T11:36:37.000Z</time>
      </trkpt>
      <trkpt lat="45.18843" lon="5.64355">
        <ele>1113.4</ele>
        <time>2021-04-23T11:36:38.000Z</time>
      </trkpt>
      <trkpt lat="45.18845" lon="5.64356">
        <ele>1113.6</ele>
        <time>2021-04-23T11:36:39.000Z</time>
      </trkpt>
      <trkpt lat="45.18846" lon="5.64356">
        <ele>1113.8</ele>
        <time>2021-04-23T11:36:40.000Z</time>
      </trkpt>
      <trkpt lat="45.18847" lon="5.64357">
        <ele>1113.8</ele>
        <time>2021-04-23T11:36:41.000Z</time>
      </trkpt>
      <trkpt lat="45.18849" lon="5.64357">
        <ele>1114</ele>
        <time>2021-04-23T11:36:42.000Z</time>
      </trkpt>
      <trkpt lat="45.18851" lon="5.64357">
        <ele>1114.2</ele>
        <time>2021-04-23T11:36:43.000Z</time>
      </trkpt>
      <trkpt lat="45.18852" lon="5.64357">
        <ele>1114.4</ele>
        <time>2021-04-23T11:36:44.000Z</time>
      </trkpt>
      <trkpt lat="45.18853" lon="5.64357">
        <ele>1114.8</ele>
        <time>2021-04-23T11:36:45.000Z</time>
      </trkpt>
      <trkpt lat="45.18854" lon="5.64356">
        <ele>1114.8</ele>
        <time>2021-04-23T11:36:46.000Z</time>
      </trkpt>
      <trkpt lat="45.18856" lon="5.64355">
        <ele>1115.4</ele>
        <time>2021-04-23T11:36:47.000Z</time>
      </trkpt>
      <trkpt lat="45.18857" lon="5.64354">
        <ele>1115.6</ele>
        <time>2021-04-23T11:36:48.000Z</time>
      </trkpt>
      <trkpt lat="45.18859" lon="5.64354">
        <ele>1115.8</ele>
        <time>2021-04-23T11:36:49.000Z</time>
      </trkpt>
      <trkpt lat="45.1886" lon="5.64354">
        <ele>1116.2</ele>
        <time>2021-04-23T11:36:50.000Z</time>
      </trkpt>
      <trkpt lat="45.18861" lon="5.64354">
        <ele>1116.4</ele>
        <time>2021-04-23T11:36:51.000Z</time>
      </trkpt>
      <trkpt lat="45.18863" lon="5.64353">
        <ele>1116.8</ele>
        <time>2021-04-23T11:36:52.000Z</time>
      </trkpt>
      <trkpt lat="45.18863" lon="5.64353">
        <ele>1117</ele>
        <time>2021-04-23T11:36:53.000Z</time>
      </trkpt>
      <trkpt lat="45.18864" lon="5.64352">
        <ele>1117.2</ele>
        <time>2021-04-23T11:36:54.000Z</time>
      </trkpt>
      <trkpt lat="45.18865" lon="5.64352">
        <ele>1117.2</ele>
        <time>2021-04-23T11:36:55.000Z</time>
      </trkpt>
      <trkpt lat="45.18866" lon="5.64352">
        <ele>1117.4</ele>
        <time>2021-04-23T11:36:56.000Z</time>
      </trkpt>
      <trkpt lat="45.18867" lon="5.64352">
        <ele>1117.4</ele>
        <time>2021-04-23T11:36:57.000Z</time>
      </trkpt>
      <trkpt lat="45.18868" lon="5.64351">
        <ele>1117.8</ele>
        <time>2021-04-23T11:36:58.000Z</time>
      </trkpt>
      <trkpt lat="45.1887" lon="5.6435">
        <ele>1117.8</ele>
        <time>2021-04-23T11:36:59.000Z</time>
      </trkpt>
      <trkpt lat="45.18872" lon="5.6435">
        <ele>1118</ele>
        <time>2021-04-23T11:37:00.000Z</time>
      </trkpt>
      <trkpt lat="45.18873" lon="5.64349">
        <ele>1118.2</ele>
        <time>2021-04-23T11:37:01.000Z</time>
      </trkpt>
      <trkpt lat="45.18874" lon="5.64348">
        <ele>1118.6</ele>
        <time>2021-04-23T11:37:02.000Z</time>
      </trkpt>
      <trkpt lat="45.18875" lon="5.64347">
        <ele>1119</ele>
        <time>2021-04-23T11:37:03.000Z</time>
      </trkpt>
      <trkpt lat="45.18876" lon="5.64347">
        <ele>1119.2</ele>
        <time>2021-04-23T11:37:04.000Z</time>
      </trkpt>
      <trkpt lat="45.18878" lon="5.64347">
        <ele>1119.4</ele>
        <time>2021-04-23T11:37:05.000Z</time>
      </trkpt>
      <trkpt lat="45.18879" lon="5.64346">
        <ele>1119.6</ele>
        <time>2021-04-23T11:37:06.000Z</time>
      </trkpt>
      <trkpt lat="45.1888" lon="5.64346">
        <ele>1119.8</ele>
        <time>2021-04-23T11:37:07.000Z</time>
      </trkpt>
      <trkpt lat="45.18881" lon="5.64345">
        <ele>1120</ele>
        <time>2021-04-23T11:37:08.000Z</time>
      </trkpt>
      <trkpt lat="45.18882" lon="5.64345">
        <ele>1120.4</ele>
        <time>2021-04-23T11:37:09.000Z</time>
      </trkpt>
      <trkpt lat="45.18883" lon="5.64344">
        <ele>1120.6</ele>
        <time>2021-04-23T11:37:10.000Z</time>
      </trkpt>
      <trkpt lat="45.18884" lon="5.64343">
        <ele>1121.2</ele>
        <time>2021-04-23T11:37:11.000Z</time>
      </trkpt>
      <trkpt lat="45.18885" lon="5.64342">
        <ele>1121.6</ele>
        <time>2021-04-23T11:37:12.000Z</time>
      </trkpt>
      <trkpt lat="45.18887" lon="5.64342">
        <ele>1121.8</ele>
        <time>2021-04-23T11:37:13.000Z</time>
      </trkpt>
      <trkpt lat="45.18889" lon="5.64341">
        <ele>1122</ele>
        <time>2021-04-23T11:37:14.000Z</time>
      </trkpt>
      <trkpt lat="45.18891" lon="5.64341">
        <ele>1122.2</ele>
        <time>2021-04-23T11:37:15.000Z</time>
      </trkpt>
      <trkpt lat="45.18892" lon="5.64341">
        <ele>1122.6</ele>
        <time>2021-04-23T11:37:16.000Z</time>
      </trkpt>
      <trkpt lat="45.18894" lon="5.64341">
        <ele>1122.6</ele>
        <time>2021-04-23T11:37:17.000Z</time>
      </trkpt>
      <trkpt lat="45.18895" lon="5.6434">
        <ele>1123</ele>
        <time>2021-04-23T11:37:18.000Z</time>
      </trkpt>
      <trkpt lat="45.18898" lon="5.64339">
        <ele>1123.2</ele>
        <time>2021-04-23T11:37:19.000Z</time>
      </trkpt>
      <trkpt lat="45.189" lon="5.64339">
        <ele>1123.2</ele>
        <time>2021-04-23T11:37:20.000Z</time>
      </trkpt>
      <trkpt lat="45.18901" lon="5.64339">
        <ele>1123.4</ele>
        <time>2021-04-23T11:37:21.000Z</time>
      </trkpt>
      <trkpt lat="45.18902" lon="5.64338">
        <ele>1123.8</ele>
        <time>2021-04-23T11:37:22.000Z</time>
      </trkpt>
      <trkpt lat="45.18904" lon="5.64338">
        <ele>1124.2</ele>
        <time>2021-04-23T11:37:23.000Z</time>
      </trkpt>
      <trkpt lat="45.18905" lon="5.64338">
        <ele>1124.2</ele>
        <time>2021-04-23T11:37:24.000Z</time>
      </trkpt>
      <trkpt lat="45.18907" lon="5.64338">
        <ele>1124.4</ele>
        <time>2021-04-23T11:37:25.000Z</time>
      </trkpt>
      <trkpt lat="45.18909" lon="5.64339">
        <ele>1124.6</ele>
        <time>2021-04-23T11:37:26.000Z</time>
      </trkpt>
      <trkpt lat="45.18911" lon="5.6434">
        <ele>1124.6</ele>
        <time>2021-04-23T11:37:27.000Z</time>
      </trkpt>
      <trkpt lat="45.18912" lon="5.6434">
        <ele>1124.8</ele>
        <time>2021-04-23T11:37:28.000Z</time>
      </trkpt>
      <trkpt lat="45.18914" lon="5.6434">
        <ele>1124.8</ele>
        <time>2021-04-23T11:37:29.000Z</time>
      </trkpt>
      <trkpt lat="45.18916" lon="5.64342">
        <ele>1125</ele>
        <time>2021-04-23T11:37:30.000Z</time>
      </trkpt>
      <trkpt lat="45.18917" lon="5.64343">
        <ele>1125.2</ele>
        <time>2021-04-23T11:37:31.000Z</time>
      </trkpt>
      <trkpt lat="45.18919" lon="5.64345">
        <ele>1125.4</ele>
        <time>2021-04-23T11:37:32.000Z</time>
      </trkpt>
      <trkpt lat="45.1892" lon="5.64346">
        <ele>1125.4</ele>
        <time>2021-04-23T11:37:33.000Z</time>
      </trkpt>
      <trkpt lat="45.18922" lon="5.64348">
        <ele>1125.6</ele>
        <time>2021-04-23T11:37:34.000Z</time>
      </trkpt>
      <trkpt lat="45.18923" lon="5.64348">
        <ele>1125.6</ele>
        <time>2021-04-23T11:37:35.000Z</time>
      </trkpt>
      <trkpt lat="45.18925" lon="5.64349">
        <ele>1125.8</ele>
        <time>2021-04-23T11:37:36.000Z</time>
      </trkpt>
      <trkpt lat="45.18926" lon="5.6435">
        <ele>1126</ele>
        <time>2021-04-23T11:37:37.000Z</time>
      </trkpt>
      <trkpt lat="45.18927" lon="5.64351">
        <ele>1126.2</ele>
        <time>2021-04-23T11:37:38.000Z</time>
      </trkpt>
      <trkpt lat="45.18928" lon="5.64353">
        <ele>1126.4</ele>
        <time>2021-04-23T11:37:39.000Z</time>
      </trkpt>
      <trkpt lat="45.1893" lon="5.64354">
        <ele>1126.6</ele>
        <time>2021-04-23T11:37:40.000Z</time>
      </trkpt>
      <trkpt lat="45.18931" lon="5.64355">
        <ele>1126.8</ele>
        <time>2021-04-23T11:37:41.000Z</time>
      </trkpt>
      <trkpt lat="45.18932" lon="5.64356">
        <ele>1127</ele>
        <time>2021-04-23T11:37:42.000Z</time>
      </trkpt>
      <trkpt lat="45.18934" lon="5.64357">
        <ele>1127.2</ele>
        <time>2021-04-23T11:37:43.000Z</time>
      </trkpt>
      <trkpt lat="45.18936" lon="5.64358">
        <ele>1127.4</ele>
        <time>2021-04-23T11:37:44.000Z</time>
      </trkpt>
      <trkpt lat="45.18937" lon="5.64358">
        <ele>1127.6</ele>
        <time>2021-04-23T11:37:45.000Z</time>
      </trkpt>
      <trkpt lat="45.18938" lon="5.64358">
        <ele>1127.6</ele>
        <time>2021-04-23T11:37:46.000Z</time>
      </trkpt>
      <trkpt lat="45.1894" lon="5.64359">
        <ele>1127.6</ele>
        <time>2021-04-23T11:37:47.000Z</time>
      </trkpt>
      <trkpt lat="45.18941" lon="5.64359">
        <ele>1127.8</ele>
        <time>2021-04-23T11:37:48.000Z</time>
      </trkpt>
      <trkpt lat="45.18942" lon="5.64359">
        <ele>1127.8</ele>
        <time>2021-04-23T11:37:49.000Z</time>
      </trkpt>
      <trkpt lat="45.18943" lon="5.64359">
        <ele>1127.8</ele>
        <time>2021-04-23T11:37:50.000Z</time>
      </trkpt>
      <trkpt lat="45.18944" lon="5.6436">
        <ele>1127.8</ele>
        <time>2021-04-23T11:37:51.000Z</time>
      </trkpt>
      <trkpt lat="45.18946" lon="5.64362">
        <ele>1127.8</ele>
        <time>2021-04-23T11:37:52.000Z</time>
      </trkpt>
      <trkpt lat="45.18948" lon="5.64363">
        <ele>1128</ele>
        <time>2021-04-23T11:37:53.000Z</time>
      </trkpt>
      <trkpt lat="45.18949" lon="5.64364">
        <ele>1128.2</ele>
        <time>2021-04-23T11:37:54.000Z</time>
      </trkpt>
      <trkpt lat="45.18951" lon="5.64365">
        <ele>1128.6</ele>
        <time>2021-04-23T11:37:55.000Z</time>
      </trkpt>
      <trkpt lat="45.18952" lon="5.64367">
        <ele>1128.8</ele>
        <time>2021-04-23T11:37:56.000Z</time>
      </trkpt>
      <trkpt lat="45.18953" lon="5.64368">
        <ele>1129.2</ele>
        <time>2021-04-23T11:37:57.000Z</time>
      </trkpt>
      <trkpt lat="45.18954" lon="5.6437">
        <ele>1129.4</ele>
        <time>2021-04-23T11:37:58.000Z</time>
      </trkpt>
      <trkpt lat="45.18956" lon="5.64372">
        <ele>1130</ele>
        <time>2021-04-23T11:37:59.000Z</time>
      </trkpt>
      <trkpt lat="45.18957" lon="5.64374">
        <ele>1130.4</ele>
        <time>2021-04-23T11:38:00.000Z</time>
      </trkpt>
      <trkpt lat="45.18959" lon="5.64375">
        <ele>1130.8</ele>
        <time>2021-04-23T11:38:01.000Z</time>
      </trkpt>
      <trkpt lat="45.18959" lon="5.64376">
        <ele>1131.2</ele>
        <time>2021-04-23T11:38:02.000Z</time>
      </trkpt>
      <trkpt lat="45.18961" lon="5.64376">
        <ele>1131.4</ele>
        <time>2021-04-23T11:38:03.000Z</time>
      </trkpt>
      <trkpt lat="45.18962" lon="5.64376">
        <ele>1131.6</ele>
        <time>2021-04-23T11:38:04.000Z</time>
      </trkpt>
      <trkpt lat="45.18963" lon="5.64376">
        <ele>1131.6</ele>
        <time>2021-04-23T11:38:05.000Z</time>
      </trkpt>
      <trkpt lat="45.18965" lon="5.64375">
        <ele>1131.6</ele>
        <time>2021-04-23T11:38:06.000Z</time>
      </trkpt>
      <trkpt lat="45.18966" lon="5.64375">
        <ele>1131.6</ele>
        <time>2021-04-23T11:38:07.000Z</time>
      </trkpt>
      <trkpt lat="45.18967" lon="5.64374">
        <ele>1131.8</ele>
        <time>2021-04-23T11:38:08.000Z</time>
      </trkpt>
      <trkpt lat="45.18968" lon="5.64373">
        <ele>1131.8</ele>
        <time>2021-04-23T11:38:09.000Z</time>
      </trkpt>
      <trkpt lat="45.1897" lon="5.64372">
        <ele>1132</ele>
        <time>2021-04-23T11:38:10.000Z</time>
      </trkpt>
      <trkpt lat="45.18971" lon="5.64371">
        <ele>1132</ele>
        <time>2021-04-23T11:38:11.000Z</time>
      </trkpt>
      <trkpt lat="45.18972" lon="5.6437">
        <ele>1132</ele>
        <time>2021-04-23T11:38:12.000Z</time>
      </trkpt>
      <trkpt lat="45.18973" lon="5.6437">
        <ele>1132</ele>
        <time>2021-04-23T11:38:13.000Z</time>
      </trkpt>
      <trkpt lat="45.18973" lon="5.6437">
        <ele>1132</ele>
        <time>2021-04-23T11:38:15.000Z</time>
      </trkpt>
      <trkpt lat="45.18973" lon="5.6437">
        <ele>1131.8</ele>
        <time>2021-04-23T11:38:18.000Z</time>
      </trkpt>
      <trkpt lat="45.18973" lon="5.6437">
        <ele>1131.8</ele>
        <time>2021-04-23T11:38:26.000Z</time>
      </trkpt>
      <trkpt lat="45.18973" lon="5.6437">
        <ele>1131.8</ele>
        <time>2021-04-23T11:38:29.000Z</time>
      </trkpt>
      <trkpt lat="45.18974" lon="5.64369">
        <ele>1131.6</ele>
        <time>2021-04-23T11:38:30.000Z</time>
      </trkpt>
      <trkpt lat="45.18977" lon="5.64369">
        <ele>1131.4</ele>
        <time>2021-04-23T11:38:32.000Z</time>
      </trkpt>
      <trkpt lat="45.18979" lon="5.64369">
        <ele>1131</ele>
        <time>2021-04-23T11:38:33.000Z</time>
      </trkpt>
      <trkpt lat="45.18981" lon="5.64369">
        <ele>1130.2</ele>
        <time>2021-04-23T11:38:34.000Z</time>
      </trkpt>
      <trkpt lat="45.18984" lon="5.64367">
        <ele>1129.4</ele>
        <time>2021-04-23T11:38:35.000Z</time>
      </trkpt>
      <trkpt lat="45.18986" lon="5.64366">
        <ele>1128.8</ele>
        <time>2021-04-23T11:38:36.000Z</time>
      </trkpt>
      <trkpt lat="45.18989" lon="5.64363">
        <ele>1128.4</ele>
        <time>2021-04-23T11:38:37.000Z</time>
      </trkpt>
      <trkpt lat="45.18991" lon="5.64359">
        <ele>1128.2</ele>
        <time>2021-04-23T11:38:38.000Z</time>
      </trkpt>
      <trkpt lat="45.18993" lon="5.64357">
        <ele>1127.6</ele>
        <time>2021-04-23T11:38:39.000Z</time>
      </trkpt>
      <trkpt lat="45.18996" lon="5.64355">
        <ele>1127.2</ele>
        <time>2021-04-23T11:38:40.000Z</time>
      </trkpt>
      <trkpt lat="45.18998" lon="5.64354">
        <ele>1126.8</ele>
        <time>2021-04-23T11:38:41.000Z</time>
      </trkpt>
      <trkpt lat="45.19002" lon="5.64354">
        <ele>1126</ele>
        <time>2021-04-23T11:38:42.000Z</time>
      </trkpt>
      <trkpt lat="45.19006" lon="5.64356">
        <ele>1125.4</ele>
        <time>2021-04-23T11:38:43.000Z</time>
      </trkpt>
      <trkpt lat="45.19011" lon="5.64358">
        <ele>1124.6</ele>
        <time>2021-04-23T11:38:44.000Z</time>
      </trkpt>
      <trkpt lat="45.19015" lon="5.64359">
        <ele>1124.2</ele>
        <time>2021-04-23T11:38:45.000Z</time>
      </trkpt>
      <trkpt lat="45.19024" lon="5.64363">
        <ele>1123.8</ele>
        <time>2021-04-23T11:38:47.000Z</time>
      </trkpt>
      <trkpt lat="45.19027" lon="5.64362">
        <ele>1123.8</ele>
        <time>2021-04-23T11:38:48.000Z</time>
      </trkpt>
      <trkpt lat="45.19031" lon="5.64362">
        <ele>1123.6</ele>
        <time>2021-04-23T11:38:49.000Z</time>
      </trkpt>
      <trkpt lat="45.19035" lon="5.64361">
        <ele>1123.8</ele>
        <time>2021-04-23T11:38:50.000Z</time>
      </trkpt>
      <trkpt lat="45.19039" lon="5.64361">
        <ele>1124</ele>
        <time>2021-04-23T11:38:51.000Z</time>
      </trkpt>
      <trkpt lat="45.19045" lon="5.64359">
        <ele>1124.6</ele>
        <time>2021-04-23T11:38:53.000Z</time>
      </trkpt>
      <trkpt lat="45.19048" lon="5.64358">
        <ele>1124.6</ele>
        <time>2021-04-23T11:38:54.000Z</time>
      </trkpt>
      <trkpt lat="45.19052" lon="5.64359">
        <ele>1124.6</ele>
        <time>2021-04-23T11:38:55.000Z</time>
      </trkpt>
      <trkpt lat="45.19056" lon="5.64362">
        <ele>1124.4</ele>
        <time>2021-04-23T11:38:56.000Z</time>
      </trkpt>
      <trkpt lat="45.1906" lon="5.64364">
        <ele>1124.4</ele>
        <time>2021-04-23T11:38:57.000Z</time>
      </trkpt>
      <trkpt lat="45.19062" lon="5.64365">
        <ele>1124.4</ele>
        <time>2021-04-23T11:38:58.000Z</time>
      </trkpt>
      <trkpt lat="45.19065" lon="5.64365">
        <ele>1124.4</ele>
        <time>2021-04-23T11:38:59.000Z</time>
      </trkpt>
      <trkpt lat="45.19068" lon="5.64366">
        <ele>1124.8</ele>
        <time>2021-04-23T11:39:00.000Z</time>
      </trkpt>
      <trkpt lat="45.19071" lon="5.64367">
        <ele>1125</ele>
        <time>2021-04-23T11:39:01.000Z</time>
      </trkpt>
      <trkpt lat="45.19078" lon="5.64367">
        <ele>1125.4</ele>
        <time>2021-04-23T11:39:04.000Z</time>
      </trkpt>
      <trkpt lat="45.1908" lon="5.64367">
        <ele>1125.6</ele>
        <time>2021-04-23T11:39:05.000Z</time>
      </trkpt>
      <trkpt lat="45.19081" lon="5.64365">
        <ele>1125.4</ele>
        <time>2021-04-23T11:39:06.000Z</time>
      </trkpt>
      <trkpt lat="45.19085" lon="5.64362">
        <ele>1125.4</ele>
        <time>2021-04-23T11:39:07.000Z</time>
      </trkpt>
      <trkpt lat="45.19087" lon="5.64362">
        <ele>1125.4</ele>
        <time>2021-04-23T11:39:08.000Z</time>
      </trkpt>
      <trkpt lat="45.19093" lon="5.64359">
        <ele>1125.4</ele>
        <time>2021-04-23T11:39:10.000Z</time>
      </trkpt>
      <trkpt lat="45.19096" lon="5.64359">
        <ele>1125.4</ele>
        <time>2021-04-23T11:39:11.000Z</time>
      </trkpt>
      <trkpt lat="45.19099" lon="5.64359">
        <ele>1125.2</ele>
        <time>2021-04-23T11:39:12.000Z</time>
      </trkpt>
      <trkpt lat="45.19102" lon="5.64359">
        <ele>1125</ele>
        <time>2021-04-23T11:39:13.000Z</time>
      </trkpt>
      <trkpt lat="45.19105" lon="5.6436">
        <ele>1125</ele>
        <time>2021-04-23T11:39:14.000Z</time>
      </trkpt>
      <trkpt lat="45.1911" lon="5.64363">
        <ele>1124.4</ele>
        <time>2021-04-23T11:39:16.000Z</time>
      </trkpt>
      <trkpt lat="45.19114" lon="5.64365">
        <ele>1124</ele>
        <time>2021-04-23T11:39:17.000Z</time>
      </trkpt>
      <trkpt lat="45.19118" lon="5.64366">
        <ele>1123.8</ele>
        <time>2021-04-23T11:39:19.000Z</time>
      </trkpt>
      <trkpt lat="45.19121" lon="5.64365">
        <ele>1123.8</ele>
        <time>2021-04-23T11:39:20.000Z</time>
      </trkpt>
      <trkpt lat="45.19124" lon="5.64366">
        <ele>1123.4</ele>
        <time>2021-04-23T11:39:21.000Z</time>
      </trkpt>
      <trkpt lat="45.19131" lon="5.64367">
        <ele>1122.4</ele>
        <time>2021-04-23T11:39:23.000Z</time>
      </trkpt>
      <trkpt lat="45.19134" lon="5.64366">
        <ele>1122</ele>
        <time>2021-04-23T11:39:24.000Z</time>
      </trkpt>
      <trkpt lat="45.19136" lon="5.64364">
        <ele>1121.6</ele>
        <time>2021-04-23T11:39:25.000Z</time>
      </trkpt>
      <trkpt lat="45.19138" lon="5.64362">
        <ele>1121.2</ele>
        <time>2021-04-23T11:39:26.000Z</time>
      </trkpt>
      <trkpt lat="45.1914" lon="5.64361">
        <ele>1120.8</ele>
        <time>2021-04-23T11:39:27.000Z</time>
      </trkpt>
      <trkpt lat="45.19143" lon="5.64362">
        <ele>1120.4</ele>
        <time>2021-04-23T11:39:28.000Z</time>
      </trkpt>
      <trkpt lat="45.19145" lon="5.64363">
        <ele>1119.8</ele>
        <time>2021-04-23T11:39:29.000Z</time>
      </trkpt>
      <trkpt lat="45.19147" lon="5.64365">
        <ele>1119.4</ele>
        <time>2021-04-23T11:39:30.000Z</time>
      </trkpt>
      <trkpt lat="45.19149" lon="5.64365">
        <ele>1118.8</ele>
        <time>2021-04-23T11:39:31.000Z</time>
      </trkpt>
      <trkpt lat="45.19152" lon="5.64363">
        <ele>1118</ele>
        <time>2021-04-23T11:39:32.000Z</time>
      </trkpt>
      <trkpt lat="45.19153" lon="5.6436">
        <ele>1117.6</ele>
        <time>2021-04-23T11:39:33.000Z</time>
      </trkpt>
      <trkpt lat="45.19154" lon="5.64357">
        <ele>1116.8</ele>
        <time>2021-04-23T11:39:34.000Z</time>
      </trkpt>
      <trkpt lat="45.19156" lon="5.64354">
        <ele>1116.4</ele>
        <time>2021-04-23T11:39:35.000Z</time>
      </trkpt>
      <trkpt lat="45.19156" lon="5.64351">
        <ele>1116</ele>
        <time>2021-04-23T11:39:36.000Z</time>
      </trkpt>
      <trkpt lat="45.19157" lon="5.6435">
        <ele>1115.6</ele>
        <time>2021-04-23T11:39:37.000Z</time>
      </trkpt>
      <trkpt lat="45.19159" lon="5.6435">
        <ele>1115.2</ele>
        <time>2021-04-23T11:39:38.000Z</time>
      </trkpt>
      <trkpt lat="45.19162" lon="5.64352">
        <ele>1115</ele>
        <time>2021-04-23T11:39:39.000Z</time>
      </trkpt>
      <trkpt lat="45.19163" lon="5.64354">
        <ele>1114.4</ele>
        <time>2021-04-23T11:39:40.000Z</time>
      </trkpt>
      <trkpt lat="45.19164" lon="5.64357">
        <ele>1114</ele>
        <time>2021-04-23T11:39:41.000Z</time>
      </trkpt>
      <trkpt lat="45.19165" lon="5.6436">
        <ele>1113.6</ele>
        <time>2021-04-23T11:39:42.000Z</time>
      </trkpt>
      <trkpt lat="45.19166" lon="5.64363">
        <ele>1113.2</ele>
        <time>2021-04-23T11:39:43.000Z</time>
      </trkpt>
      <trkpt lat="45.19167" lon="5.64365">
        <ele>1112.4</ele>
        <time>2021-04-23T11:39:44.000Z</time>
      </trkpt>
      <trkpt lat="45.19168" lon="5.64365">
        <ele>1112</ele>
        <time>2021-04-23T11:39:45.000Z</time>
      </trkpt>
      <trkpt lat="45.19169" lon="5.64365">
        <ele>1111.2</ele>
        <time>2021-04-23T11:39:46.000Z</time>
      </trkpt>
      <trkpt lat="45.19169" lon="5.64364">
        <ele>1110.8</ele>
        <time>2021-04-23T11:39:47.000Z</time>
      </trkpt>
      <trkpt lat="45.19169" lon="5.64363">
        <ele>1110.4</ele>
        <time>2021-04-23T11:39:48.000Z</time>
      </trkpt>
      <trkpt lat="45.19169" lon="5.64363">
        <ele>1110</ele>
        <time>2021-04-23T11:39:49.000Z</time>
      </trkpt>
      <trkpt lat="45.19169" lon="5.64363">
        <ele>1109.4</ele>
        <time>2021-04-23T11:39:53.000Z</time>
      </trkpt>
      <trkpt lat="45.19169" lon="5.64363">
        <ele>1109.2</ele>
        <time>2021-04-23T11:39:54.000Z</time>
      </trkpt>
      <trkpt lat="45.19169" lon="5.64363">
        <ele>1108.8</ele>
        <time>2021-04-23T11:39:55.000Z</time>
      </trkpt>
      <trkpt lat="45.1917" lon="5.64363">
        <ele>1107.8</ele>
        <time>2021-04-23T11:40:01.000Z</time>
      </trkpt>
      <trkpt lat="45.1917" lon="5.64352">
        <ele>1107</ele>
        <time>2021-04-23T11:40:04.000Z</time>
      </trkpt>
      <trkpt lat="45.19169" lon="5.64348">
        <ele>1106.6</ele>
        <time>2021-04-23T11:40:05.000Z</time>
      </trkpt>
      <trkpt lat="45.1917" lon="5.64342">
        <ele>1106</ele>
        <time>2021-04-23T11:40:07.000Z</time>
      </trkpt>
      <trkpt lat="45.19172" lon="5.64342">
        <ele>1105.8</ele>
        <time>2021-04-23T11:40:08.000Z</time>
      </trkpt>
      <trkpt lat="45.19175" lon="5.64343">
        <ele>1105.4</ele>
        <time>2021-04-23T11:40:09.000Z</time>
      </trkpt>
      <trkpt lat="45.1918" lon="5.64347">
        <ele>1104.6</ele>
        <time>2021-04-23T11:40:11.000Z</time>
      </trkpt>
      <trkpt lat="45.19182" lon="5.64348">
        <ele>1103.8</ele>
        <time>2021-04-23T11:40:12.000Z</time>
      </trkpt>
      <trkpt lat="45.19186" lon="5.64347">
        <ele>1103.2</ele>
        <time>2021-04-23T11:40:14.000Z</time>
      </trkpt>
      <trkpt lat="45.19189" lon="5.64348">
        <ele>1102.8</ele>
        <time>2021-04-23T11:40:15.000Z</time>
      </trkpt>
      <trkpt lat="45.1919" lon="5.64349">
        <ele>1102</ele>
        <time>2021-04-23T11:40:16.000Z</time>
      </trkpt>
      <trkpt lat="45.19193" lon="5.64348">
        <ele>1101.6</ele>
        <time>2021-04-23T11:40:17.000Z</time>
      </trkpt>
      <trkpt lat="45.19194" lon="5.64346">
        <ele>1101.2</ele>
        <time>2021-04-23T11:40:18.000Z</time>
      </trkpt>
      <trkpt lat="45.19194" lon="5.64345">
        <ele>1100.8</ele>
        <time>2021-04-23T11:40:19.000Z</time>
      </trkpt>
      <trkpt lat="45.19194" lon="5.64341">
        <ele>1100.2</ele>
        <time>2021-04-23T11:40:20.000Z</time>
      </trkpt>
      <trkpt lat="45.19193" lon="5.64333">
        <ele>1099.2</ele>
        <time>2021-04-23T11:40:22.000Z</time>
      </trkpt>
      <trkpt lat="45.19193" lon="5.64329">
        <ele>1098.8</ele>
        <time>2021-04-23T11:40:23.000Z</time>
      </trkpt>
      <trkpt lat="45.19195" lon="5.64327">
        <ele>1098.2</ele>
        <time>2021-04-23T11:40:24.000Z</time>
      </trkpt>
      <trkpt lat="45.19195" lon="5.64328">
        <ele>1097.4</ele>
        <time>2021-04-23T11:40:25.000Z</time>
      </trkpt>
      <trkpt lat="45.19196" lon="5.64329">
        <ele>1097</ele>
        <time>2021-04-23T11:40:26.000Z</time>
      </trkpt>
      <trkpt lat="45.19205" lon="5.64339">
        <ele>1096.2</ele>
        <time>2021-04-23T11:40:29.000Z</time>
      </trkpt>
      <trkpt lat="45.19207" lon="5.64342">
        <ele>1096</ele>
        <time>2021-04-23T11:40:30.000Z</time>
      </trkpt>
      <trkpt lat="45.19207" lon="5.64343">
        <ele>1096</ele>
        <time>2021-04-23T11:40:31.000Z</time>
      </trkpt>
      <trkpt lat="45.19208" lon="5.64343">
        <ele>1095.8</ele>
        <time>2021-04-23T11:40:32.000Z</time>
      </trkpt>
      <trkpt lat="45.19209" lon="5.64342">
        <ele>1095.8</ele>
        <time>2021-04-23T11:40:33.000Z</time>
      </trkpt>
      <trkpt lat="45.19209" lon="5.64341">
        <ele>1095.6</ele>
        <time>2021-04-23T11:40:34.000Z</time>
      </trkpt>
      <trkpt lat="45.1921" lon="5.64335">
        <ele>1094.8</ele>
        <time>2021-04-23T11:40:36.000Z</time>
      </trkpt>
      <trkpt lat="45.19213" lon="5.64332">
        <ele>1093.8</ele>
        <time>2021-04-23T11:40:38.000Z</time>
      </trkpt>
      <trkpt lat="45.19216" lon="5.64336">
        <ele>1093</ele>
        <time>2021-04-23T11:40:40.000Z</time>
      </trkpt>
      <trkpt lat="45.19217" lon="5.64344">
        <ele>1093</ele>
        <time>2021-04-23T11:40:43.000Z</time>
      </trkpt>
      <trkpt lat="45.19216" lon="5.64348">
        <ele>1093</ele>
        <time>2021-04-23T11:40:44.000Z</time>
      </trkpt>
      <trkpt lat="45.19216" lon="5.6435">
        <ele>1093.2</ele>
        <time>2021-04-23T11:40:45.000Z</time>
      </trkpt>
      <trkpt lat="45.19219" lon="5.64358">
        <ele>1093.8</ele>
        <time>2021-04-23T11:40:48.000Z</time>
      </trkpt>
      <trkpt lat="45.19221" lon="5.64361">
        <ele>1094</ele>
        <time>2021-04-23T11:40:49.000Z</time>
      </trkpt>
      <trkpt lat="45.19224" lon="5.64365">
        <ele>1094</ele>
        <time>2021-04-23T11:40:50.000Z</time>
      </trkpt>
      <trkpt lat="45.19226" lon="5.64372">
        <ele>1094.4</ele>
        <time>2021-04-23T11:40:52.000Z</time>
      </trkpt>
      <trkpt lat="45.19226" lon="5.64374">
        <ele>1094.6</ele>
        <time>2021-04-23T11:40:53.000Z</time>
      </trkpt>
      <trkpt lat="45.19227" lon="5.64376">
        <ele>1094.8</ele>
        <time>2021-04-23T11:40:54.000Z</time>
      </trkpt>
      <trkpt lat="45.19227" lon="5.64376">
        <ele>1095</ele>
        <time>2021-04-23T11:40:55.000Z</time>
      </trkpt>
      <trkpt lat="45.19227" lon="5.64376">
        <ele>1095.2</ele>
        <time>2021-04-23T11:40:56.000Z</time>
      </trkpt>
      <trkpt lat="45.19227" lon="5.64376">
        <ele>1095.6</ele>
        <time>2021-04-23T11:41:02.000Z</time>
      </trkpt>
      <trkpt lat="45.19227" lon="5.64376">
        <ele>1095.6</ele>
        <time>2021-04-23T11:41:06.000Z</time>
      </trkpt>
      <trkpt lat="45.19227" lon="5.64376">
        <ele>1095.6</ele>
        <time>2021-04-23T11:41:09.000Z</time>
      </trkpt>
      <trkpt lat="45.19227" lon="5.64378">
        <ele>1095.6</ele>
        <time>2021-04-23T11:41:10.000Z</time>
      </trkpt>
      <trkpt lat="45.19227" lon="5.6438">
        <ele>1095.6</ele>
        <time>2021-04-23T11:41:12.000Z</time>
      </trkpt>
      <trkpt lat="45.19227" lon="5.6438">
        <ele>1095.4</ele>
        <time>2021-04-23T11:41:16.000Z</time>
      </trkpt>
      <trkpt lat="45.19227" lon="5.6438">
        <ele>1095.4</ele>
        <time>2021-04-23T11:41:18.000Z</time>
      </trkpt>
      <trkpt lat="45.19229" lon="5.6439">
        <ele>1095.6</ele>
        <time>2021-04-23T11:41:21.000Z</time>
      </trkpt>
      <trkpt lat="45.1923" lon="5.64397">
        <ele>1095.8</ele>
        <time>2021-04-23T11:41:23.000Z</time>
      </trkpt>
      <trkpt lat="45.19231" lon="5.644">
        <ele>1096</ele>
        <time>2021-04-23T11:41:24.000Z</time>
      </trkpt>
      <trkpt lat="45.19231" lon="5.64404">
        <ele>1096.2</ele>
        <time>2021-04-23T11:41:25.000Z</time>
      </trkpt>
      <trkpt lat="45.19232" lon="5.64409">
        <ele>1096.2</ele>
        <time>2021-04-23T11:41:26.000Z</time>
      </trkpt>
      <trkpt lat="45.19232" lon="5.64414">
        <ele>1096.4</ele>
        <time>2021-04-23T11:41:27.000Z</time>
      </trkpt>
      <trkpt lat="45.19232" lon="5.64417">
        <ele>1096.4</ele>
        <time>2021-04-23T11:41:28.000Z</time>
      </trkpt>
      <trkpt lat="45.19234" lon="5.6442">
        <ele>1096.8</ele>
        <time>2021-04-23T11:41:29.000Z</time>
      </trkpt>
      <trkpt lat="45.19235" lon="5.64423">
        <ele>1096.8</ele>
        <time>2021-04-23T11:41:30.000Z</time>
      </trkpt>
      <trkpt lat="45.19237" lon="5.64426">
        <ele>1097.4</ele>
        <time>2021-04-23T11:41:31.000Z</time>
      </trkpt>
      <trkpt lat="45.19238" lon="5.64428">
        <ele>1097.6</ele>
        <time>2021-04-23T11:41:32.000Z</time>
      </trkpt>
      <trkpt lat="45.19239" lon="5.6443">
        <ele>1098</ele>
        <time>2021-04-23T11:41:33.000Z</time>
      </trkpt>
      <trkpt lat="45.1924" lon="5.64432">
        <ele>1098</ele>
        <time>2021-04-23T11:41:34.000Z</time>
      </trkpt>
      <trkpt lat="45.19242" lon="5.64434">
        <ele>1098.2</ele>
        <time>2021-04-23T11:41:35.000Z</time>
      </trkpt>
      <trkpt lat="45.19244" lon="5.64436">
        <ele>1098.4</ele>
        <time>2021-04-23T11:41:36.000Z</time>
      </trkpt>
      <trkpt lat="45.19245" lon="5.64437">
        <ele>1098.8</ele>
        <time>2021-04-23T11:41:37.000Z</time>
      </trkpt>
      <trkpt lat="45.19247" lon="5.64439">
        <ele>1099</ele>
        <time>2021-04-23T11:41:38.000Z</time>
      </trkpt>
      <trkpt lat="45.19248" lon="5.64441">
        <ele>1099.4</ele>
        <time>2021-04-23T11:41:39.000Z</time>
      </trkpt>
      <trkpt lat="45.1925" lon="5.64444">
        <ele>1099.8</ele>
        <time>2021-04-23T11:41:40.000Z</time>
      </trkpt>
      <trkpt lat="45.19251" lon="5.64446">
        <ele>1100.2</ele>
        <time>2021-04-23T11:41:41.000Z</time>
      </trkpt>
      <trkpt lat="45.19252" lon="5.64447">
        <ele>1100.4</ele>
        <time>2021-04-23T11:41:42.000Z</time>
      </trkpt>
      <trkpt lat="45.19253" lon="5.64448">
        <ele>1100.6</ele>
        <time>2021-04-23T11:41:43.000Z</time>
      </trkpt>
      <trkpt lat="45.19254" lon="5.64449">
        <ele>1100.6</ele>
        <time>2021-04-23T11:41:44.000Z</time>
      </trkpt>
      <trkpt lat="45.19255" lon="5.6445">
        <ele>1100.8</ele>
        <time>2021-04-23T11:41:45.000Z</time>
      </trkpt>
      <trkpt lat="45.19256" lon="5.64451">
        <ele>1100.8</ele>
        <time>2021-04-23T11:41:46.000Z</time>
      </trkpt>
      <trkpt lat="45.19257" lon="5.64451">
        <ele>1100.8</ele>
        <time>2021-04-23T11:41:47.000Z</time>
      </trkpt>
      <trkpt lat="45.19257" lon="5.64451">
        <ele>1101</ele>
        <time>2021-04-23T11:41:48.000Z</time>
      </trkpt>
      <trkpt lat="45.19258" lon="5.64451">
        <ele>1101</ele>
        <time>2021-04-23T11:41:49.000Z</time>
      </trkpt>
      <trkpt lat="45.19261" lon="5.64451">
        <ele>1101.2</ele>
        <time>2021-04-23T11:41:50.000Z</time>
      </trkpt>
      <trkpt lat="45.19262" lon="5.64452">
        <ele>1101.4</ele>
        <time>2021-04-23T11:41:51.000Z</time>
      </trkpt>
      <trkpt lat="45.19263" lon="5.64453">
        <ele>1101.6</ele>
        <time>2021-04-23T11:41:52.000Z</time>
      </trkpt>
      <trkpt lat="45.19264" lon="5.64453">
        <ele>1101.6</ele>
        <time>2021-04-23T11:41:53.000Z</time>
      </trkpt>
      <trkpt lat="45.19266" lon="5.64453">
        <ele>1101.8</ele>
        <time>2021-04-23T11:41:54.000Z</time>
      </trkpt>
      <trkpt lat="45.19268" lon="5.64451">
        <ele>1101.8</ele>
        <time>2021-04-23T11:41:55.000Z</time>
      </trkpt>
      <trkpt lat="45.19269" lon="5.6445">
        <ele>1101.8</ele>
        <time>2021-04-23T11:41:56.000Z</time>
      </trkpt>
      <trkpt lat="45.1927" lon="5.6445">
        <ele>1101.8</ele>
        <time>2021-04-23T11:41:57.000Z</time>
      </trkpt>
      <trkpt lat="45.19271" lon="5.6445">
        <ele>1102</ele>
        <time>2021-04-23T11:41:58.000Z</time>
      </trkpt>
      <trkpt lat="45.19273" lon="5.64449">
        <ele>1102</ele>
        <time>2021-04-23T11:41:59.000Z</time>
      </trkpt>
      <trkpt lat="45.19273" lon="5.64448">
        <ele>1102.2</ele>
        <time>2021-04-23T11:42:00.000Z</time>
      </trkpt>
      <trkpt lat="45.19273" lon="5.64446">
        <ele>1102.2</ele>
        <time>2021-04-23T11:42:01.000Z</time>
      </trkpt>
      <trkpt lat="45.19273" lon="5.64444">
        <ele>1102.6</ele>
        <time>2021-04-23T11:42:02.000Z</time>
      </trkpt>
      <trkpt lat="45.19273" lon="5.64443">
        <ele>1102.8</ele>
        <time>2021-04-23T11:42:03.000Z</time>
      </trkpt>
      <trkpt lat="45.19273" lon="5.64441">
        <ele>1103</ele>
        <time>2021-04-23T11:42:04.000Z</time>
      </trkpt>
      <trkpt lat="45.19272" lon="5.64439">
        <ele>1103.2</ele>
        <time>2021-04-23T11:42:05.000Z</time>
      </trkpt>
      <trkpt lat="45.19272" lon="5.64437">
        <ele>1103.4</ele>
        <time>2021-04-23T11:42:06.000Z</time>
      </trkpt>
      <trkpt lat="45.19272" lon="5.64435">
        <ele>1103.6</ele>
        <time>2021-04-23T11:42:07.000Z</time>
      </trkpt>
      <trkpt lat="45.19272" lon="5.64433">
        <ele>1103.8</ele>
        <time>2021-04-23T11:42:08.000Z</time>
      </trkpt>
      <trkpt lat="45.19271" lon="5.6443">
        <ele>1103.8</ele>
        <time>2021-04-23T11:42:09.000Z</time>
      </trkpt>
      <trkpt lat="45.1927" lon="5.64428">
        <ele>1103.8</ele>
        <time>2021-04-23T11:42:10.000Z</time>
      </trkpt>
      <trkpt lat="45.1927" lon="5.64424">
        <ele>1104</ele>
        <time>2021-04-23T11:42:11.000Z</time>
      </trkpt>
      <trkpt lat="45.19271" lon="5.64423">
        <ele>1104</ele>
        <time>2021-04-23T11:42:12.000Z</time>
      </trkpt>
      <trkpt lat="45.19272" lon="5.6442">
        <ele>1104</ele>
        <time>2021-04-23T11:42:13.000Z</time>
      </trkpt>
      <trkpt lat="45.19271" lon="5.64418">
        <ele>1104.2</ele>
        <time>2021-04-23T11:42:14.000Z</time>
      </trkpt>
      <trkpt lat="45.1927" lon="5.64416">
        <ele>1104.2</ele>
        <time>2021-04-23T11:42:15.000Z</time>
      </trkpt>
      <trkpt lat="45.1927" lon="5.64414">
        <ele>1104.2</ele>
        <time>2021-04-23T11:42:16.000Z</time>
      </trkpt>
      <trkpt lat="45.19271" lon="5.64412">
        <ele>1104.4</ele>
        <time>2021-04-23T11:42:17.000Z</time>
      </trkpt>
      <trkpt lat="45.19273" lon="5.64409">
        <ele>1104.6</ele>
        <time>2021-04-23T11:42:18.000Z</time>
      </trkpt>
      <trkpt lat="45.19275" lon="5.64408">
        <ele>1104.8</ele>
        <time>2021-04-23T11:42:19.000Z</time>
      </trkpt>
      <trkpt lat="45.19276" lon="5.64407">
        <ele>1105</ele>
        <time>2021-04-23T11:42:20.000Z</time>
      </trkpt>
      <trkpt lat="45.19278" lon="5.64406">
        <ele>1105</ele>
        <time>2021-04-23T11:42:21.000Z</time>
      </trkpt>
      <trkpt lat="45.19279" lon="5.64406">
        <ele>1105.2</ele>
        <time>2021-04-23T11:42:22.000Z</time>
      </trkpt>
      <trkpt lat="45.19279" lon="5.64405">
        <ele>1105.2</ele>
        <time>2021-04-23T11:42:23.000Z</time>
      </trkpt>
      <trkpt lat="45.1928" lon="5.64404">
        <ele>1105.2</ele>
        <time>2021-04-23T11:42:24.000Z</time>
      </trkpt>
      <trkpt lat="45.19282" lon="5.64404">
        <ele>1105.2</ele>
        <time>2021-04-23T11:42:25.000Z</time>
      </trkpt>
      <trkpt lat="45.19283" lon="5.64404">
        <ele>1105.2</ele>
        <time>2021-04-23T11:42:26.000Z</time>
      </trkpt>
      <trkpt lat="45.19283" lon="5.64404">
        <ele>1105.2</ele>
        <time>2021-04-23T11:42:27.000Z</time>
      </trkpt>
      <trkpt lat="45.19283" lon="5.64404">
        <ele>1105.4</ele>
        <time>2021-04-23T11:42:28.000Z</time>
      </trkpt>
      <trkpt lat="45.19283" lon="5.64404">
        <ele>1105.4</ele>
        <time>2021-04-23T11:42:30.000Z</time>
      </trkpt>
      <trkpt lat="45.19283" lon="5.64404">
        <ele>1105.2</ele>
        <time>2021-04-23T11:42:32.000Z</time>
      </trkpt>
      <trkpt lat="45.19283" lon="5.64404">
        <ele>1105.2</ele>
        <time>2021-04-23T11:42:36.000Z</time>
      </trkpt>
      <trkpt lat="45.19283" lon="5.64404">
        <ele>1105.2</ele>
        <time>2021-04-23T11:42:39.000Z</time>
      </trkpt>
      <trkpt lat="45.19283" lon="5.64404">
        <ele>1105</ele>
        <time>2021-04-23T11:42:42.000Z</time>
      </trkpt>
      <trkpt lat="45.19283" lon="5.64404">
        <ele>1104.8</ele>
        <time>2021-04-23T11:42:44.000Z</time>
      </trkpt>
      <trkpt lat="45.19283" lon="5.64404">
        <ele>1104.6</ele>
        <time>2021-04-23T11:42:54.000Z</time>
      </trkpt>
      <trkpt lat="45.19284" lon="5.64405">
        <ele>1104.4</ele>
        <time>2021-04-23T11:42:57.000Z</time>
      </trkpt>
      <trkpt lat="45.19285" lon="5.64407">
        <ele>1104.4</ele>
        <time>2021-04-23T11:42:58.000Z</time>
      </trkpt>
      <trkpt lat="45.19288" lon="5.64413">
        <ele>1104</ele>
        <time>2021-04-23T11:43:00.000Z</time>
      </trkpt>
      <trkpt lat="45.1929" lon="5.64416">
        <ele>1103.4</ele>
        <time>2021-04-23T11:43:01.000Z</time>
      </trkpt>
      <trkpt lat="45.19291" lon="5.64419">
        <ele>1102.8</ele>
        <time>2021-04-23T11:43:02.000Z</time>
      </trkpt>
      <trkpt lat="45.19294" lon="5.64419">
        <ele>1102.2</ele>
        <time>2021-04-23T11:43:03.000Z</time>
      </trkpt>
      <trkpt lat="45.19296" lon="5.64417">
        <ele>1102</ele>
        <time>2021-04-23T11:43:04.000Z</time>
      </trkpt>
      <trkpt lat="45.19297" lon="5.64415">
        <ele>1101.8</ele>
        <time>2021-04-23T11:43:05.000Z</time>
      </trkpt>
      <trkpt lat="45.19299" lon="5.64414">
        <ele>1101.8</ele>
        <time>2021-04-23T11:43:06.000Z</time>
      </trkpt>
      <trkpt lat="45.19301" lon="5.64415">
        <ele>1101.8</ele>
        <time>2021-04-23T11:43:07.000Z</time>
      </trkpt>
      <trkpt lat="45.19303" lon="5.64419">
        <ele>1101.8</ele>
        <time>2021-04-23T11:43:08.000Z</time>
      </trkpt>
      <trkpt lat="45.19304" lon="5.64422">
        <ele>1101.8</ele>
        <time>2021-04-23T11:43:09.000Z</time>
      </trkpt>
      <trkpt lat="45.19304" lon="5.64424">
        <ele>1101.6</ele>
        <time>2021-04-23T11:43:10.000Z</time>
      </trkpt>
      <trkpt lat="45.19305" lon="5.64426">
        <ele>1100.4</ele>
        <time>2021-04-23T11:43:11.000Z</time>
      </trkpt>
      <trkpt lat="45.19307" lon="5.64427">
        <ele>1099.8</ele>
        <time>2021-04-23T11:43:12.000Z</time>
      </trkpt>
      <trkpt lat="45.1931" lon="5.64426">
        <ele>1099.2</ele>
        <time>2021-04-23T11:43:13.000Z</time>
      </trkpt>
      <trkpt lat="45.19316" lon="5.64426">
        <ele>1098.6</ele>
        <time>2021-04-23T11:43:15.000Z</time>
      </trkpt>
      <trkpt lat="45.19318" lon="5.64427">
        <ele>1098.4</ele>
        <time>2021-04-23T11:43:16.000Z</time>
      </trkpt>
      <trkpt lat="45.1932" lon="5.64428">
        <ele>1098</ele>
        <time>2021-04-23T11:43:17.000Z</time>
      </trkpt>
      <trkpt lat="45.19322" lon="5.64427">
        <ele>1097.8</ele>
        <time>2021-04-23T11:43:18.000Z</time>
      </trkpt>
      <trkpt lat="45.19325" lon="5.64424">
        <ele>1097.6</ele>
        <time>2021-04-23T11:43:19.000Z</time>
      </trkpt>
      <trkpt lat="45.19327" lon="5.64422">
        <ele>1097.2</ele>
        <time>2021-04-23T11:43:20.000Z</time>
      </trkpt>
      <trkpt lat="45.1933" lon="5.64422">
        <ele>1097</ele>
        <time>2021-04-23T11:43:21.000Z</time>
      </trkpt>
      <trkpt lat="45.19332" lon="5.64424">
        <ele>1096.4</ele>
        <time>2021-04-23T11:43:22.000Z</time>
      </trkpt>
      <trkpt lat="45.19334" lon="5.64426">
        <ele>1096</ele>
        <time>2021-04-23T11:43:23.000Z</time>
      </trkpt>
      <trkpt lat="45.19336" lon="5.64426">
        <ele>1095.6</ele>
        <time>2021-04-23T11:43:24.000Z</time>
      </trkpt>
      <trkpt lat="45.1934" lon="5.64427">
        <ele>1095.4</ele>
        <time>2021-04-23T11:43:25.000Z</time>
      </trkpt>
      <trkpt lat="45.19344" lon="5.64431">
        <ele>1095.2</ele>
        <time>2021-04-23T11:43:26.000Z</time>
      </trkpt>
      <trkpt lat="45.19349" lon="5.64434">
        <ele>1094.6</ele>
        <time>2021-04-23T11:43:27.000Z</time>
      </trkpt>
      <trkpt lat="45.19351" lon="5.64437">
        <ele>1094.4</ele>
        <time>2021-04-23T11:43:28.000Z</time>
      </trkpt>
      <trkpt lat="45.19353" lon="5.64439">
        <ele>1094.2</ele>
        <time>2021-04-23T11:43:29.000Z</time>
      </trkpt>
      <trkpt lat="45.19355" lon="5.64442">
        <ele>1094.2</ele>
        <time>2021-04-23T11:43:30.000Z</time>
      </trkpt>
      <trkpt lat="45.19359" lon="5.64444">
        <ele>1094</ele>
        <time>2021-04-23T11:43:31.000Z</time>
      </trkpt>
      <trkpt lat="45.19363" lon="5.64448">
        <ele>1093.2</ele>
        <time>2021-04-23T11:43:33.000Z</time>
      </trkpt>
      <trkpt lat="45.19364" lon="5.64448">
        <ele>1093</ele>
        <time>2021-04-23T11:43:34.000Z</time>
      </trkpt>
      <trkpt lat="45.19366" lon="5.64447">
        <ele>1092.6</ele>
        <time>2021-04-23T11:43:35.000Z</time>
      </trkpt>
      <trkpt lat="45.19368" lon="5.64445">
        <ele>1092.2</ele>
        <time>2021-04-23T11:43:36.000Z</time>
      </trkpt>
      <trkpt lat="45.1937" lon="5.64444">
        <ele>1091.8</ele>
        <time>2021-04-23T11:43:37.000Z</time>
      </trkpt>
      <trkpt lat="45.19375" lon="5.64448">
        <ele>1091</ele>
        <time>2021-04-23T11:43:39.000Z</time>
      </trkpt>
      <trkpt lat="45.19377" lon="5.64454">
        <ele>1090.2</ele>
        <time>2021-04-23T11:43:41.000Z</time>
      </trkpt>
      <trkpt lat="45.19377" lon="5.64457">
        <ele>1089.6</ele>
        <time>2021-04-23T11:43:42.000Z</time>
      </trkpt>
      <trkpt lat="45.19377" lon="5.64461">
        <ele>1089</ele>
        <time>2021-04-23T11:43:43.000Z</time>
      </trkpt>
      <trkpt lat="45.19377" lon="5.64464">
        <ele>1088.2</ele>
        <time>2021-04-23T11:43:44.000Z</time>
      </trkpt>
      <trkpt lat="45.19377" lon="5.64469">
        <ele>1087</ele>
        <time>2021-04-23T11:43:45.000Z</time>
      </trkpt>
      <trkpt lat="45.19376" lon="5.64479">
        <ele>1086</ele>
        <time>2021-04-23T11:43:47.000Z</time>
      </trkpt>
      <trkpt lat="45.19376" lon="5.64482">
        <ele>1085.8</ele>
        <time>2021-04-23T11:43:48.000Z</time>
      </trkpt>
      <trkpt lat="45.19377" lon="5.64484">
        <ele>1085.4</ele>
        <time>2021-04-23T11:43:49.000Z</time>
      </trkpt>
      <trkpt lat="45.19379" lon="5.64485">
        <ele>1085</ele>
        <time>2021-04-23T11:43:50.000Z</time>
      </trkpt>
      <trkpt lat="45.19382" lon="5.64483">
        <ele>1084.6</ele>
        <time>2021-04-23T11:43:51.000Z</time>
      </trkpt>
      <trkpt lat="45.19385" lon="5.64481">
        <ele>1084</ele>
        <time>2021-04-23T11:43:52.000Z</time>
      </trkpt>
      <trkpt lat="45.19387" lon="5.64479">
        <ele>1083.4</ele>
        <time>2021-04-23T11:43:53.000Z</time>
      </trkpt>
      <trkpt lat="45.1939" lon="5.64478">
        <ele>1082.8</ele>
        <time>2021-04-23T11:43:54.000Z</time>
      </trkpt>
      <trkpt lat="45.19394" lon="5.64477">
        <ele>1082.4</ele>
        <time>2021-04-23T11:43:55.000Z</time>
      </trkpt>
      <trkpt lat="45.19396" lon="5.64476">
        <ele>1082.2</ele>
        <time>2021-04-23T11:43:56.000Z</time>
      </trkpt>
      <trkpt lat="45.19398" lon="5.64476">
        <ele>1081.8</ele>
        <time>2021-04-23T11:43:57.000Z</time>
      </trkpt>
      <trkpt lat="45.19399" lon="5.64476">
        <ele>1081.6</ele>
        <time>2021-04-23T11:43:58.000Z</time>
      </trkpt>
      <trkpt lat="45.19401" lon="5.64475">
        <ele>1080.8</ele>
        <time>2021-04-23T11:43:59.000Z</time>
      </trkpt>
      <trkpt lat="45.19403" lon="5.64476">
        <ele>1079.8</ele>
        <time>2021-04-23T11:44:00.000Z</time>
      </trkpt>
      <trkpt lat="45.19405" lon="5.64476">
        <ele>1079.2</ele>
        <time>2021-04-23T11:44:01.000Z</time>
      </trkpt>
      <trkpt lat="45.19405" lon="5.64476">
        <ele>1078.8</ele>
        <time>2021-04-23T11:44:02.000Z</time>
      </trkpt>
      <trkpt lat="45.19405" lon="5.64475">
        <ele>1078.6</ele>
        <time>2021-04-23T11:44:03.000Z</time>
      </trkpt>
      <trkpt lat="45.19405" lon="5.64474">
        <ele>1077.8</ele>
        <time>2021-04-23T11:44:04.000Z</time>
      </trkpt>
      <trkpt lat="45.19404" lon="5.64473">
        <ele>1077</ele>
        <time>2021-04-23T11:44:05.000Z</time>
      </trkpt>
      <trkpt lat="45.19404" lon="5.64471">
        <ele>1076.4</ele>
        <time>2021-04-23T11:44:06.000Z</time>
      </trkpt>
      <trkpt lat="45.19405" lon="5.6447">
        <ele>1076.2</ele>
        <time>2021-04-23T11:44:07.000Z</time>
      </trkpt>
      <trkpt lat="45.19407" lon="5.6447">
        <ele>1075.4</ele>
        <time>2021-04-23T11:44:08.000Z</time>
      </trkpt>
      <trkpt lat="45.19411" lon="5.64469">
        <ele>1074.6</ele>
        <time>2021-04-23T11:44:09.000Z</time>
      </trkpt>
      <trkpt lat="45.19413" lon="5.64469">
        <ele>1074</ele>
        <time>2021-04-23T11:44:10.000Z</time>
      </trkpt>
      <trkpt lat="45.19413" lon="5.64469">
        <ele>1073.6</ele>
        <time>2021-04-23T11:44:11.000Z</time>
      </trkpt>
      <trkpt lat="45.19413" lon="5.64468">
        <ele>1072.8</ele>
        <time>2021-04-23T11:44:12.000Z</time>
      </trkpt>
      <trkpt lat="45.19413" lon="5.64465">
        <ele>1072</ele>
        <time>2021-04-23T11:44:13.000Z</time>
      </trkpt>
      <trkpt lat="45.19413" lon="5.64463">
        <ele>1071.6</ele>
        <time>2021-04-23T11:44:14.000Z</time>
      </trkpt>
      <trkpt lat="45.19418" lon="5.6446">
        <ele>1070.2</ele>
        <time>2021-04-23T11:44:16.000Z</time>
      </trkpt>
      <trkpt lat="45.19424" lon="5.6446">
        <ele>1068.8</ele>
        <time>2021-04-23T11:44:18.000Z</time>
      </trkpt>
      <trkpt lat="45.19428" lon="5.64459">
        <ele>1067.8</ele>
        <time>2021-04-23T11:44:19.000Z</time>
      </trkpt>
      <trkpt lat="45.19433" lon="5.64458">
        <ele>1066.4</ele>
        <time>2021-04-23T11:44:20.000Z</time>
      </trkpt>
      <trkpt lat="45.19435" lon="5.6446">
        <ele>1065.8</ele>
        <time>2021-04-23T11:44:21.000Z</time>
      </trkpt>
      <trkpt lat="45.19437" lon="5.6446">
        <ele>1065</ele>
        <time>2021-04-23T11:44:22.000Z</time>
      </trkpt>
      <trkpt lat="45.19438" lon="5.64456">
        <ele>1063.8</ele>
        <time>2021-04-23T11:44:24.000Z</time>
      </trkpt>
      <trkpt lat="45.19438" lon="5.64452">
        <ele>1063.2</ele>
        <time>2021-04-23T11:44:25.000Z</time>
      </trkpt>
      <trkpt lat="45.19439" lon="5.6445">
        <ele>1062.8</ele>
        <time>2021-04-23T11:44:26.000Z</time>
      </trkpt>
      <trkpt lat="45.19442" lon="5.64449">
        <ele>1062.2</ele>
        <time>2021-04-23T11:44:27.000Z</time>
      </trkpt>
      <trkpt lat="45.19446" lon="5.6445">
        <ele>1061.8</ele>
        <time>2021-04-23T11:44:28.000Z</time>
      </trkpt>
      <trkpt lat="45.19449" lon="5.64449">
        <ele>1061.6</ele>
        <time>2021-04-23T11:44:29.000Z</time>
      </trkpt>
      <trkpt lat="45.1945" lon="5.64445">
        <ele>1060.4</ele>
        <time>2021-04-23T11:44:30.000Z</time>
      </trkpt>
      <trkpt lat="45.19449" lon="5.64443">
        <ele>1059.6</ele>
        <time>2021-04-23T11:44:31.000Z</time>
      </trkpt>
      <trkpt lat="45.19447" lon="5.6444">
        <ele>1058.8</ele>
        <time>2021-04-23T11:44:32.000Z</time>
      </trkpt>
      <trkpt lat="45.19445" lon="5.64434">
        <ele>1057.8</ele>
        <time>2021-04-23T11:44:33.000Z</time>
      </trkpt>
      <trkpt lat="45.19443" lon="5.6443">
        <ele>1057</ele>
        <time>2021-04-23T11:44:34.000Z</time>
      </trkpt>
      <trkpt lat="45.19443" lon="5.64428">
        <ele>1055.8</ele>
        <time>2021-04-23T11:44:35.000Z</time>
      </trkpt>
      <trkpt lat="45.19445" lon="5.64426">
        <ele>1055</ele>
        <time>2021-04-23T11:44:36.000Z</time>
      </trkpt>
      <trkpt lat="45.19448" lon="5.64425">
        <ele>1054.2</ele>
        <time>2021-04-23T11:44:37.000Z</time>
      </trkpt>
      <trkpt lat="45.19452" lon="5.64426">
        <ele>1053.4</ele>
        <time>2021-04-23T11:44:38.000Z</time>
      </trkpt>
      <trkpt lat="45.19454" lon="5.64427">
        <ele>1052</ele>
        <time>2021-04-23T11:44:39.000Z</time>
      </trkpt>
      <trkpt lat="45.19455" lon="5.64428">
        <ele>1051.2</ele>
        <time>2021-04-23T11:44:40.000Z</time>
      </trkpt>
      <trkpt lat="45.19456" lon="5.64428">
        <ele>1050.8</ele>
        <time>2021-04-23T11:44:41.000Z</time>
      </trkpt>
      <trkpt lat="45.19458" lon="5.64427">
        <ele>1050.4</ele>
        <time>2021-04-23T11:44:42.000Z</time>
      </trkpt>
      <trkpt lat="45.19458" lon="5.64424">
        <ele>1049.8</ele>
        <time>2021-04-23T11:44:43.000Z</time>
      </trkpt>
      <trkpt lat="45.19457" lon="5.64421">
        <ele>1049.2</ele>
        <time>2021-04-23T11:44:44.000Z</time>
      </trkpt>
      <trkpt lat="45.19457" lon="5.64417">
        <ele>1047.8</ele>
        <time>2021-04-23T11:44:45.000Z</time>
      </trkpt>
      <trkpt lat="45.19456" lon="5.64413">
        <ele>1047</ele>
        <time>2021-04-23T11:44:46.000Z</time>
      </trkpt>
      <trkpt lat="45.19458" lon="5.64409">
        <ele>1046</ele>
        <time>2021-04-23T11:44:47.000Z</time>
      </trkpt>
      <trkpt lat="45.1946" lon="5.64406">
        <ele>1045</ele>
        <time>2021-04-23T11:44:48.000Z</time>
      </trkpt>
      <trkpt lat="45.19462" lon="5.64407">
        <ele>1044.2</ele>
        <time>2021-04-23T11:44:49.000Z</time>
      </trkpt>
      <trkpt lat="45.19465" lon="5.64408">
        <ele>1043.8</ele>
        <time>2021-04-23T11:44:50.000Z</time>
      </trkpt>
      <trkpt lat="45.19465" lon="5.64408">
        <ele>1043</ele>
        <time>2021-04-23T11:44:51.000Z</time>
      </trkpt>
      <trkpt lat="45.19467" lon="5.64406">
        <ele>1042.6</ele>
        <time>2021-04-23T11:44:52.000Z</time>
      </trkpt>
      <trkpt lat="45.19469" lon="5.64405">
        <ele>1042</ele>
        <time>2021-04-23T11:44:53.000Z</time>
      </trkpt>
      <trkpt lat="45.1947" lon="5.64403">
        <ele>1041.8</ele>
        <time>2021-04-23T11:44:54.000Z</time>
      </trkpt>
      <trkpt lat="45.19471" lon="5.64401">
        <ele>1040.2</ele>
        <time>2021-04-23T11:44:55.000Z</time>
      </trkpt>
      <trkpt lat="45.19467" lon="5.64395">
        <ele>1038.2</ele>
        <time>2021-04-23T11:44:57.000Z</time>
      </trkpt>
      <trkpt lat="45.19467" lon="5.64389">
        <ele>1037.4</ele>
        <time>2021-04-23T11:44:59.000Z</time>
      </trkpt>
      <trkpt lat="45.19468" lon="5.64389">
        <ele>1037.2</ele>
        <time>2021-04-23T11:45:00.000Z</time>
      </trkpt>
      <trkpt lat="45.19469" lon="5.64389">
        <ele>1037</ele>
        <time>2021-04-23T11:45:01.000Z</time>
      </trkpt>
      <trkpt lat="45.19471" lon="5.64391">
        <ele>1036.8</ele>
        <time>2021-04-23T11:45:02.000Z</time>
      </trkpt>
      <trkpt lat="45.19476" lon="5.64395">
        <ele>1035.6</ele>
        <time>2021-04-23T11:45:04.000Z</time>
      </trkpt>
      <trkpt lat="45.19478" lon="5.64398">
        <ele>1034.8</ele>
        <time>2021-04-23T11:45:05.000Z</time>
      </trkpt>
      <trkpt lat="45.1948" lon="5.644">
        <ele>1034.4</ele>
        <time>2021-04-23T11:45:06.000Z</time>
      </trkpt>
      <trkpt lat="45.19481" lon="5.644">
        <ele>1034.2</ele>
        <time>2021-04-23T11:45:07.000Z</time>
      </trkpt>
      <trkpt lat="45.19482" lon="5.64399">
        <ele>1033.8</ele>
        <time>2021-04-23T11:45:08.000Z</time>
      </trkpt>
      <trkpt lat="45.19483" lon="5.64397">
        <ele>1033.2</ele>
        <time>2021-04-23T11:45:09.000Z</time>
      </trkpt>
      <trkpt lat="45.19485" lon="5.64391">
        <ele>1032</ele>
        <time>2021-04-23T11:45:11.000Z</time>
      </trkpt>
      <trkpt lat="45.19486" lon="5.64389">
        <ele>1031.4</ele>
        <time>2021-04-23T11:45:12.000Z</time>
      </trkpt>
      <trkpt lat="45.19489" lon="5.64389">
        <ele>1030.8</ele>
        <time>2021-04-23T11:45:13.000Z</time>
      </trkpt>
      <trkpt lat="45.19497" lon="5.64392">
        <ele>1029</ele>
        <time>2021-04-23T11:45:15.000Z</time>
      </trkpt>
      <trkpt lat="45.19501" lon="5.64395">
        <ele>1027.8</ele>
        <time>2021-04-23T11:45:16.000Z</time>
      </trkpt>
      <trkpt lat="45.19505" lon="5.64399">
        <ele>1026.4</ele>
        <time>2021-04-23T11:45:17.000Z</time>
      </trkpt>
      <trkpt lat="45.19509" lon="5.64403">
        <ele>1024.4</ele>
        <time>2021-04-23T11:45:18.000Z</time>
      </trkpt>
      <trkpt lat="45.19513" lon="5.64406">
        <ele>1023.4</ele>
        <time>2021-04-23T11:45:19.000Z</time>
      </trkpt>
      <trkpt lat="45.19518" lon="5.64409">
        <ele>1022.4</ele>
        <time>2021-04-23T11:45:20.000Z</time>
      </trkpt>
      <trkpt lat="45.19521" lon="5.64412">
        <ele>1021.6</ele>
        <time>2021-04-23T11:45:21.000Z</time>
      </trkpt>
      <trkpt lat="45.19526" lon="5.64416">
        <ele>1021</ele>
        <time>2021-04-23T11:45:22.000Z</time>
      </trkpt>
      <trkpt lat="45.19528" lon="5.6442">
        <ele>1020.2</ele>
        <time>2021-04-23T11:45:23.000Z</time>
      </trkpt>
      <trkpt lat="45.1953" lon="5.64425">
        <ele>1019.2</ele>
        <time>2021-04-23T11:45:24.000Z</time>
      </trkpt>
      <trkpt lat="45.19533" lon="5.64428">
        <ele>1018.6</ele>
        <time>2021-04-23T11:45:25.000Z</time>
      </trkpt>
      <trkpt lat="45.19535" lon="5.64429">
        <ele>1018.4</ele>
        <time>2021-04-23T11:45:26.000Z</time>
      </trkpt>
      <trkpt lat="45.19535" lon="5.6443">
        <ele>1018</ele>
        <time>2021-04-23T11:45:27.000Z</time>
      </trkpt>
      <trkpt lat="45.19536" lon="5.64428">
        <ele>1017.6</ele>
        <time>2021-04-23T11:45:28.000Z</time>
      </trkpt>
      <trkpt lat="45.19536" lon="5.64426">
        <ele>1017</ele>
        <time>2021-04-23T11:45:29.000Z</time>
      </trkpt>
      <trkpt lat="45.19535" lon="5.64422">
        <ele>1016.6</ele>
        <time>2021-04-23T11:45:30.000Z</time>
      </trkpt>
      <trkpt lat="45.19536" lon="5.64412">
        <ele>1015.8</ele>
        <time>2021-04-23T11:45:32.000Z</time>
      </trkpt>
      <trkpt lat="45.19536" lon="5.64403">
        <ele>1014.8</ele>
        <time>2021-04-23T11:45:34.000Z</time>
      </trkpt>
      <trkpt lat="45.19536" lon="5.64398">
        <ele>1014.4</ele>
        <time>2021-04-23T11:45:35.000Z</time>
      </trkpt>
      <trkpt lat="45.19539" lon="5.64394">
        <ele>1014</ele>
        <time>2021-04-23T11:45:36.000Z</time>
      </trkpt>
      <trkpt lat="45.1954" lon="5.64393">
        <ele>1013.2</ele>
        <time>2021-04-23T11:45:37.000Z</time>
      </trkpt>
      <trkpt lat="45.19543" lon="5.64394">
        <ele>1012.8</ele>
        <time>2021-04-23T11:45:38.000Z</time>
      </trkpt>
      <trkpt lat="45.19546" lon="5.64397">
        <ele>1012.2</ele>
        <time>2021-04-23T11:45:39.000Z</time>
      </trkpt>
      <trkpt lat="45.19552" lon="5.64403">
        <ele>1010.8</ele>
        <time>2021-04-23T11:45:41.000Z</time>
      </trkpt>
      <trkpt lat="45.19554" lon="5.64404">
        <ele>1010.6</ele>
        <time>2021-04-23T11:45:42.000Z</time>
      </trkpt>
      <trkpt lat="45.19555" lon="5.64403">
        <ele>1010.4</ele>
        <time>2021-04-23T11:45:43.000Z</time>
      </trkpt>
      <trkpt lat="45.19555" lon="5.64399">
        <ele>1010.2</ele>
        <time>2021-04-23T11:45:44.000Z</time>
      </trkpt>
      <trkpt lat="45.19555" lon="5.64396">
        <ele>1009.8</ele>
        <time>2021-04-23T11:45:45.000Z</time>
      </trkpt>
      <trkpt lat="45.19555" lon="5.64392">
        <ele>1009.2</ele>
        <time>2021-04-23T11:45:47.000Z</time>
      </trkpt>
      <trkpt lat="45.19553" lon="5.64383">
        <ele>1008.6</ele>
        <time>2021-04-23T11:45:49.000Z</time>
      </trkpt>
      <trkpt lat="45.19552" lon="5.64377">
        <ele>1007.8</ele>
        <time>2021-04-23T11:45:50.000Z</time>
      </trkpt>
      <trkpt lat="45.19552" lon="5.64374">
        <ele>1007.4</ele>
        <time>2021-04-23T11:45:51.000Z</time>
      </trkpt>
      <trkpt lat="45.19555" lon="5.64373">
        <ele>1007</ele>
        <time>2021-04-23T11:45:52.000Z</time>
      </trkpt>
      <trkpt lat="45.19556" lon="5.64372">
        <ele>1006.6</ele>
        <time>2021-04-23T11:45:53.000Z</time>
      </trkpt>
      <trkpt lat="45.19557" lon="5.64371">
        <ele>1005.8</ele>
        <time>2021-04-23T11:45:54.000Z</time>
      </trkpt>
      <trkpt lat="45.19559" lon="5.64369">
        <ele>1005</ele>
        <time>2021-04-23T11:45:55.000Z</time>
      </trkpt>
      <trkpt lat="45.19559" lon="5.64366">
        <ele>1004</ele>
        <time>2021-04-23T11:45:56.000Z</time>
      </trkpt>
      <trkpt lat="45.1956" lon="5.64355">
        <ele>1002.4</ele>
        <time>2021-04-23T11:45:58.000Z</time>
      </trkpt>
      <trkpt lat="45.19559" lon="5.6435">
        <ele>1001.6</ele>
        <time>2021-04-23T11:45:59.000Z</time>
      </trkpt>
      <trkpt lat="45.19559" lon="5.64347">
        <ele>1000.8</ele>
        <time>2021-04-23T11:46:00.000Z</time>
      </trkpt>
      <trkpt lat="45.1956" lon="5.6434">
        <ele>1000.4</ele>
        <time>2021-04-23T11:46:02.000Z</time>
      </trkpt>
      <trkpt lat="45.19562" lon="5.64338">
        <ele>1000.2</ele>
        <time>2021-04-23T11:46:03.000Z</time>
      </trkpt>
      <trkpt lat="45.19564" lon="5.64338">
        <ele>999.8</ele>
        <time>2021-04-23T11:46:04.000Z</time>
      </trkpt>
      <trkpt lat="45.19565" lon="5.64338">
        <ele>999.4</ele>
        <time>2021-04-23T11:46:05.000Z</time>
      </trkpt>
      <trkpt lat="45.19567" lon="5.64338">
        <ele>998.6</ele>
        <time>2021-04-23T11:46:06.000Z</time>
      </trkpt>
      <trkpt lat="45.19569" lon="5.64338">
        <ele>997.6</ele>
        <time>2021-04-23T11:46:07.000Z</time>
      </trkpt>
      <trkpt lat="45.19573" lon="5.64339">
        <ele>996.8</ele>
        <time>2021-04-23T11:46:08.000Z</time>
      </trkpt>
      <trkpt lat="45.19574" lon="5.6434">
        <ele>996.2</ele>
        <time>2021-04-23T11:46:09.000Z</time>
      </trkpt>
      <trkpt lat="45.19575" lon="5.6434">
        <ele>995.6</ele>
        <time>2021-04-23T11:46:10.000Z</time>
      </trkpt>
      <trkpt lat="45.19576" lon="5.6434">
        <ele>995.4</ele>
        <time>2021-04-23T11:46:11.000Z</time>
      </trkpt>
      <trkpt lat="45.19577" lon="5.6434">
        <ele>995</ele>
        <time>2021-04-23T11:46:14.000Z</time>
      </trkpt>
      <trkpt lat="45.19578" lon="5.6434">
        <ele>994.6</ele>
        <time>2021-04-23T11:46:17.000Z</time>
      </trkpt>
      <trkpt lat="45.19578" lon="5.6434">
        <ele>994</ele>
        <time>2021-04-23T11:46:25.000Z</time>
      </trkpt>
      <trkpt lat="45.19579" lon="5.6434">
        <ele>993.6</ele>
        <time>2021-04-23T11:46:28.000Z</time>
      </trkpt>
      <trkpt lat="45.1958" lon="5.64341">
        <ele>993.4</ele>
        <time>2021-04-23T11:46:30.000Z</time>
      </trkpt>
      <trkpt lat="45.19581" lon="5.64341">
        <ele>992.6</ele>
        <time>2021-04-23T11:46:31.000Z</time>
      </trkpt>
      <trkpt lat="45.196" lon="5.64341">
        <ele>990.6</ele>
        <time>2021-04-23T11:46:34.000Z</time>
      </trkpt>
      <trkpt lat="45.19606" lon="5.6434">
        <ele>990.2</ele>
        <time>2021-04-23T11:46:35.000Z</time>
      </trkpt>
      <trkpt lat="45.19611" lon="5.64338">
        <ele>989.8</ele>
        <time>2021-04-23T11:46:36.000Z</time>
      </trkpt>
      <trkpt lat="45.19615" lon="5.64337">
        <ele>989.8</ele>
        <time>2021-04-23T11:46:37.000Z</time>
      </trkpt>
      <trkpt lat="45.19619" lon="5.64336">
        <ele>990</ele>
        <time>2021-04-23T11:46:38.000Z</time>
      </trkpt>
      <trkpt lat="45.1962" lon="5.64336">
        <ele>990.2</ele>
        <time>2021-04-23T11:46:39.000Z</time>
      </trkpt>
      <trkpt lat="45.1962" lon="5.64336">
        <ele>990.8</ele>
        <time>2021-04-23T11:46:42.000Z</time>
      </trkpt>
      <trkpt lat="45.19621" lon="5.64336">
        <ele>990.8</ele>
        <time>2021-04-23T11:46:43.000Z</time>
      </trkpt>
      <trkpt lat="45.19621" lon="5.64336">
        <ele>991.2</ele>
        <time>2021-04-23T11:46:48.000Z</time>
      </trkpt>
      <trkpt lat="45.19621" lon="5.64335">
        <ele>991.4</ele>
        <time>2021-04-23T11:46:49.000Z</time>
      </trkpt>
      <trkpt lat="45.19621" lon="5.64335">
        <ele>991.4</ele>
        <time>2021-04-23T11:46:53.000Z</time>
      </trkpt>
      <trkpt lat="45.19621" lon="5.64335">
        <ele>991.4</ele>
        <time>2021-04-23T11:46:55.000Z</time>
      </trkpt>
      <trkpt lat="45.19621" lon="5.64335">
        <ele>991.4</ele>
        <time>2021-04-23T11:46:56.000Z</time>
      </trkpt>
      <trkpt lat="45.19621" lon="5.64334">
        <ele>991.4</ele>
        <time>2021-04-23T11:46:57.000Z</time>
      </trkpt>
      <trkpt lat="45.19621" lon="5.64333">
        <ele>991.4</ele>
        <time>2021-04-23T11:46:59.000Z</time>
      </trkpt>
      <trkpt lat="45.19622" lon="5.64332">
        <ele>991.6</ele>
        <time>2021-04-23T11:47:00.000Z</time>
      </trkpt>
      <trkpt lat="45.19622" lon="5.64329">
        <ele>991.8</ele>
        <time>2021-04-23T11:47:02.000Z</time>
      </trkpt>
      <trkpt lat="45.19622" lon="5.64329">
        <ele>992</ele>
        <time>2021-04-23T11:47:03.000Z</time>
      </trkpt>
      <trkpt lat="45.19622" lon="5.64329">
        <ele>992.2</ele>
        <time>2021-04-23T11:47:05.000Z</time>
      </trkpt>
      <trkpt lat="45.19622" lon="5.64329">
        <ele>992.2</ele>
        <time>2021-04-23T11:47:06.000Z</time>
      </trkpt>
      <trkpt lat="45.19622" lon="5.64329">
        <ele>992.2</ele>
        <time>2021-04-23T11:47:08.000Z</time>
      </trkpt>
      <trkpt lat="45.19622" lon="5.64328">
        <ele>992.4</ele>
        <time>2021-04-23T11:47:10.000Z</time>
      </trkpt>
      <trkpt lat="45.19617" lon="5.64325">
        <ele>992.6</ele>
        <time>2021-04-23T11:47:12.000Z</time>
      </trkpt>
      <trkpt lat="45.19615" lon="5.64321">
        <ele>992.6</ele>
        <time>2021-04-23T11:47:14.000Z</time>
      </trkpt>
      <trkpt lat="45.19614" lon="5.64319">
        <ele>993</ele>
        <time>2021-04-23T11:47:15.000Z</time>
      </trkpt>
      <trkpt lat="45.19614" lon="5.64317">
        <ele>993.2</ele>
        <time>2021-04-23T11:47:16.000Z</time>
      </trkpt>
      <trkpt lat="45.19613" lon="5.64315">
        <ele>993.4</ele>
        <time>2021-04-23T11:47:17.000Z</time>
      </trkpt>
      <trkpt lat="45.19612" lon="5.64311">
        <ele>993.4</ele>
        <time>2021-04-23T11:47:19.000Z</time>
      </trkpt>
      <trkpt lat="45.19608" lon="5.64303">
        <ele>994</ele>
        <time>2021-04-23T11:47:22.000Z</time>
      </trkpt>
      <trkpt lat="45.19607" lon="5.64301">
        <ele>994</ele>
        <time>2021-04-23T11:47:23.000Z</time>
      </trkpt>
      <trkpt lat="45.19602" lon="5.64293">
        <ele>994.2</ele>
        <time>2021-04-23T11:47:26.000Z</time>
      </trkpt>
      <trkpt lat="45.19602" lon="5.64289">
        <ele>994.2</ele>
        <time>2021-04-23T11:47:27.000Z</time>
      </trkpt>
      <trkpt lat="45.19601" lon="5.64286">
        <ele>994.2</ele>
        <time>2021-04-23T11:47:28.000Z</time>
      </trkpt>
      <trkpt lat="45.19598" lon="5.64285">
        <ele>994.2</ele>
        <time>2021-04-23T11:47:29.000Z</time>
      </trkpt>
      <trkpt lat="45.19596" lon="5.64281">
        <ele>994.4</ele>
        <time>2021-04-23T11:47:30.000Z</time>
      </trkpt>
      <trkpt lat="45.19595" lon="5.64276">
        <ele>994.4</ele>
        <time>2021-04-23T11:47:32.000Z</time>
      </trkpt>
      <trkpt lat="45.19594" lon="5.64273">
        <ele>994.4</ele>
        <time>2021-04-23T11:47:33.000Z</time>
      </trkpt>
      <trkpt lat="45.19596" lon="5.64268">
        <ele>994.4</ele>
        <time>2021-04-23T11:47:35.000Z</time>
      </trkpt>
      <trkpt lat="45.19599" lon="5.64249">
        <ele>993.6</ele>
        <time>2021-04-23T11:47:40.000Z</time>
      </trkpt>
      <trkpt lat="45.19601" lon="5.64246">
        <ele>992.6</ele>
        <time>2021-04-23T11:47:41.000Z</time>
      </trkpt>
      <trkpt lat="45.19603" lon="5.64242">
        <ele>991.4</ele>
        <time>2021-04-23T11:47:42.000Z</time>
      </trkpt>
      <trkpt lat="45.19605" lon="5.64238">
        <ele>990.4</ele>
        <time>2021-04-23T11:47:43.000Z</time>
      </trkpt>
      <trkpt lat="45.19608" lon="5.64235">
        <ele>989.8</ele>
        <time>2021-04-23T11:47:44.000Z</time>
      </trkpt>
      <trkpt lat="45.1961" lon="5.6423">
        <ele>988.8</ele>
        <time>2021-04-23T11:47:45.000Z</time>
      </trkpt>
      <trkpt lat="45.19613" lon="5.64224">
        <ele>987</ele>
        <time>2021-04-23T11:47:47.000Z</time>
      </trkpt>
      <trkpt lat="45.19614" lon="5.64219">
        <ele>985.6</ele>
        <time>2021-04-23T11:47:49.000Z</time>
      </trkpt>
      <trkpt lat="45.19615" lon="5.64214">
        <ele>985.2</ele>
        <time>2021-04-23T11:47:50.000Z</time>
      </trkpt>
      <trkpt lat="45.19617" lon="5.64211">
        <ele>984.8</ele>
        <time>2021-04-23T11:47:51.000Z</time>
      </trkpt>
      <trkpt lat="45.19617" lon="5.6421">
        <ele>984.6</ele>
        <time>2021-04-23T11:47:52.000Z</time>
      </trkpt>
      <trkpt lat="45.19618" lon="5.6421">
        <ele>984.2</ele>
        <time>2021-04-23T11:47:53.000Z</time>
      </trkpt>
      <trkpt lat="45.19618" lon="5.64211">
        <ele>983.6</ele>
        <time>2021-04-23T11:47:54.000Z</time>
      </trkpt>
      <trkpt lat="45.19618" lon="5.64212">
        <ele>983.2</ele>
        <time>2021-04-23T11:47:55.000Z</time>
      </trkpt>
      <trkpt lat="45.19618" lon="5.64213">
        <ele>982.8</ele>
        <time>2021-04-23T11:47:56.000Z</time>
      </trkpt>
      <trkpt lat="45.19618" lon="5.64217">
        <ele>982</ele>
        <time>2021-04-23T11:47:57.000Z</time>
      </trkpt>
      <trkpt lat="45.19619" lon="5.64222">
        <ele>981.4</ele>
        <time>2021-04-23T11:47:58.000Z</time>
      </trkpt>
      <trkpt lat="45.1962" lon="5.64226">
        <ele>981</ele>
        <time>2021-04-23T11:47:59.000Z</time>
      </trkpt>
      <trkpt lat="45.1962" lon="5.64229">
        <ele>980.6</ele>
        <time>2021-04-23T11:48:00.000Z</time>
      </trkpt>
      <trkpt lat="45.1962" lon="5.64232">
        <ele>980</ele>
        <time>2021-04-23T11:48:01.000Z</time>
      </trkpt>
      <trkpt lat="45.19619" lon="5.64234">
        <ele>979.6</ele>
        <time>2021-04-23T11:48:02.000Z</time>
      </trkpt>
      <trkpt lat="45.19619" lon="5.64234">
        <ele>979.4</ele>
        <time>2021-04-23T11:48:03.000Z</time>
      </trkpt>
      <trkpt lat="45.1962" lon="5.64234">
        <ele>978.2</ele>
        <time>2021-04-23T11:48:07.000Z</time>
      </trkpt>
      <trkpt lat="45.19625" lon="5.64221">
        <ele>977.2</ele>
        <time>2021-04-23T11:48:10.000Z</time>
      </trkpt>
      <trkpt lat="45.19626" lon="5.64217">
        <ele>977</ele>
        <time>2021-04-23T11:48:11.000Z</time>
      </trkpt>
      <trkpt lat="45.19628" lon="5.64213">
        <ele>976.4</ele>
        <time>2021-04-23T11:48:12.000Z</time>
      </trkpt>
      <trkpt lat="45.19628" lon="5.64211">
        <ele>976</ele>
        <time>2021-04-23T11:48:13.000Z</time>
      </trkpt>
      <trkpt lat="45.1963" lon="5.64209">
        <ele>975.8</ele>
        <time>2021-04-23T11:48:14.000Z</time>
      </trkpt>
      <trkpt lat="45.19631" lon="5.64209">
        <ele>975.6</ele>
        <time>2021-04-23T11:48:15.000Z</time>
      </trkpt>
      <trkpt lat="45.19633" lon="5.6421">
        <ele>975.2</ele>
        <time>2021-04-23T11:48:16.000Z</time>
      </trkpt>
      <trkpt lat="45.19633" lon="5.64211">
        <ele>974.8</ele>
        <time>2021-04-23T11:48:17.000Z</time>
      </trkpt>
      <trkpt lat="45.19635" lon="5.64214">
        <ele>974</ele>
        <time>2021-04-23T11:48:19.000Z</time>
      </trkpt>
      <trkpt lat="45.19636" lon="5.64215">
        <ele>973.6</ele>
        <time>2021-04-23T11:48:20.000Z</time>
      </trkpt>
      <trkpt lat="45.19637" lon="5.64215">
        <ele>973</ele>
        <time>2021-04-23T11:48:21.000Z</time>
      </trkpt>
      <trkpt lat="45.19637" lon="5.64215">
        <ele>972.6</ele>
        <time>2021-04-23T11:48:22.000Z</time>
      </trkpt>
      <trkpt lat="45.19638" lon="5.64213">
        <ele>972.4</ele>
        <time>2021-04-23T11:48:23.000Z</time>
      </trkpt>
      <trkpt lat="45.19639" lon="5.64212">
        <ele>972.2</ele>
        <time>2021-04-23T11:48:24.000Z</time>
      </trkpt>
      <trkpt lat="45.1964" lon="5.64211">
        <ele>971.8</ele>
        <time>2021-04-23T11:48:25.000Z</time>
      </trkpt>
      <trkpt lat="45.19641" lon="5.64211">
        <ele>971.6</ele>
        <time>2021-04-23T11:48:26.000Z</time>
      </trkpt>
      <trkpt lat="45.19642" lon="5.64211">
        <ele>971.2</ele>
        <time>2021-04-23T11:48:27.000Z</time>
      </trkpt>
      <trkpt lat="45.19643" lon="5.64213">
        <ele>970.6</ele>
        <time>2021-04-23T11:48:29.000Z</time>
      </trkpt>
      <trkpt lat="45.19643" lon="5.64216">
        <ele>970</ele>
        <time>2021-04-23T11:48:30.000Z</time>
      </trkpt>
      <trkpt lat="45.19644" lon="5.64216">
        <ele>969.4</ele>
        <time>2021-04-23T11:48:31.000Z</time>
      </trkpt>
      <trkpt lat="45.19644" lon="5.64216">
        <ele>969</ele>
        <time>2021-04-23T11:48:32.000Z</time>
      </trkpt>
      <trkpt lat="45.19644" lon="5.64216">
        <ele>968.8</ele>
        <time>2021-04-23T11:48:33.000Z</time>
      </trkpt>
      <trkpt lat="45.19644" lon="5.64217">
        <ele>968.4</ele>
        <time>2021-04-23T11:48:36.000Z</time>
      </trkpt>
      <trkpt lat="45.19645" lon="5.64218">
        <ele>967.8</ele>
        <time>2021-04-23T11:48:41.000Z</time>
      </trkpt>
      <trkpt lat="45.19645" lon="5.64218">
        <ele>967.6</ele>
        <time>2021-04-23T11:48:42.000Z</time>
      </trkpt>
      <trkpt lat="45.19646" lon="5.64219">
        <ele>967.4</ele>
        <time>2021-04-23T11:48:43.000Z</time>
      </trkpt>
      <trkpt lat="45.19647" lon="5.64219">
        <ele>967.4</ele>
        <time>2021-04-23T11:48:44.000Z</time>
      </trkpt>
      <trkpt lat="45.19648" lon="5.64219">
        <ele>966.8</ele>
        <time>2021-04-23T11:48:45.000Z</time>
      </trkpt>
      <trkpt lat="45.19648" lon="5.64219">
        <ele>966.2</ele>
        <time>2021-04-23T11:48:46.000Z</time>
      </trkpt>
      <trkpt lat="45.19648" lon="5.64218">
        <ele>965.4</ele>
        <time>2021-04-23T11:48:48.000Z</time>
      </trkpt>
      <trkpt lat="45.19648" lon="5.64217">
        <ele>965.2</ele>
        <time>2021-04-23T11:48:49.000Z</time>
      </trkpt>
      <trkpt lat="45.19648" lon="5.64217">
        <ele>964.8</ele>
        <time>2021-04-23T11:48:51.000Z</time>
      </trkpt>
      <trkpt lat="45.1965" lon="5.64216">
        <ele>964.6</ele>
        <time>2021-04-23T11:48:53.000Z</time>
      </trkpt>
      <trkpt lat="45.19651" lon="5.64214">
        <ele>964.4</ele>
        <time>2021-04-23T11:48:54.000Z</time>
      </trkpt>
      <trkpt lat="45.19653" lon="5.64212">
        <ele>963.8</ele>
        <time>2021-04-23T11:48:55.000Z</time>
      </trkpt>
      <trkpt lat="45.19654" lon="5.64211">
        <ele>963.4</ele>
        <time>2021-04-23T11:48:56.000Z</time>
      </trkpt>
      <trkpt lat="45.19655" lon="5.64211">
        <ele>963.2</ele>
        <time>2021-04-23T11:48:57.000Z</time>
      </trkpt>
      <trkpt lat="45.19656" lon="5.64213">
        <ele>962.8</ele>
        <time>2021-04-23T11:48:58.000Z</time>
      </trkpt>
      <trkpt lat="45.19656" lon="5.64215">
        <ele>962.4</ele>
        <time>2021-04-23T11:48:59.000Z</time>
      </trkpt>
      <trkpt lat="45.19655" lon="5.64218">
        <ele>961.8</ele>
        <time>2021-04-23T11:49:00.000Z</time>
      </trkpt>
      <trkpt lat="45.19655" lon="5.6422">
        <ele>961.2</ele>
        <time>2021-04-23T11:49:01.000Z</time>
      </trkpt>
      <trkpt lat="45.19657" lon="5.64224">
        <ele>960</ele>
        <time>2021-04-23T11:49:03.000Z</time>
      </trkpt>
      <trkpt lat="45.19657" lon="5.64225">
        <ele>959.4</ele>
        <time>2021-04-23T11:49:04.000Z</time>
      </trkpt>
      <trkpt lat="45.19658" lon="5.64227">
        <ele>958.8</ele>
        <time>2021-04-23T11:49:05.000Z</time>
      </trkpt>
      <trkpt lat="45.19658" lon="5.64227">
        <ele>958.6</ele>
        <time>2021-04-23T11:49:06.000Z</time>
      </trkpt>
      <trkpt lat="45.19659" lon="5.64227">
        <ele>958</ele>
        <time>2021-04-23T11:49:07.000Z</time>
      </trkpt>
      <trkpt lat="45.1966" lon="5.64225">
        <ele>957.4</ele>
        <time>2021-04-23T11:49:08.000Z</time>
      </trkpt>
      <trkpt lat="45.19662" lon="5.64223">
        <ele>957</ele>
        <time>2021-04-23T11:49:09.000Z</time>
      </trkpt>
      <trkpt lat="45.19663" lon="5.64221">
        <ele>956.6</ele>
        <time>2021-04-23T11:49:10.000Z</time>
      </trkpt>
      <trkpt lat="45.19664" lon="5.6422">
        <ele>956.4</ele>
        <time>2021-04-23T11:49:11.000Z</time>
      </trkpt>
      <trkpt lat="45.19664" lon="5.6422">
        <ele>956</ele>
        <time>2021-04-23T11:49:12.000Z</time>
      </trkpt>
      <trkpt lat="45.19665" lon="5.64221">
        <ele>955.4</ele>
        <time>2021-04-23T11:49:13.000Z</time>
      </trkpt>
      <trkpt lat="45.19665" lon="5.64223">
        <ele>955</ele>
        <time>2021-04-23T11:49:14.000Z</time>
      </trkpt>
      <trkpt lat="45.19664" lon="5.64226">
        <ele>953.4</ele>
        <time>2021-04-23T11:49:17.000Z</time>
      </trkpt>
      <trkpt lat="45.19666" lon="5.64223">
        <ele>953</ele>
        <time>2021-04-23T11:49:18.000Z</time>
      </trkpt>
      <trkpt lat="45.19666" lon="5.64218">
        <ele>952.8</ele>
        <time>2021-04-23T11:49:19.000Z</time>
      </trkpt>
      <trkpt lat="45.19668" lon="5.64213">
        <ele>952</ele>
        <time>2021-04-23T11:49:20.000Z</time>
      </trkpt>
      <trkpt lat="45.19669" lon="5.64209">
        <ele>951.6</ele>
        <time>2021-04-23T11:49:21.000Z</time>
      </trkpt>
      <trkpt lat="45.19669" lon="5.64201">
        <ele>951.2</ele>
        <time>2021-04-23T11:49:23.000Z</time>
      </trkpt>
      <trkpt lat="45.19671" lon="5.64198">
        <ele>951</ele>
        <time>2021-04-23T11:49:24.000Z</time>
      </trkpt>
      <trkpt lat="45.19672" lon="5.64194">
        <ele>950.8</ele>
        <time>2021-04-23T11:49:25.000Z</time>
      </trkpt>
      <trkpt lat="45.19676" lon="5.64186">
        <ele>949.6</ele>
        <time>2021-04-23T11:49:27.000Z</time>
      </trkpt>
      <trkpt lat="45.19679" lon="5.64181">
        <ele>948.6</ele>
        <time>2021-04-23T11:49:29.000Z</time>
      </trkpt>
      <trkpt lat="45.19679" lon="5.64181">
        <ele>948.2</ele>
        <time>2021-04-23T11:49:30.000Z</time>
      </trkpt>
      <trkpt lat="45.19679" lon="5.64181">
        <ele>948.2</ele>
        <time>2021-04-23T11:49:31.000Z</time>
      </trkpt>
      <trkpt lat="45.19678" lon="5.6418">
        <ele>948.2</ele>
        <time>2021-04-23T11:49:32.000Z</time>
      </trkpt>
      <trkpt lat="45.19677" lon="5.64179">
        <ele>948.2</ele>
        <time>2021-04-23T11:49:33.000Z</time>
      </trkpt>
      <trkpt lat="45.19673" lon="5.64172">
        <ele>948</ele>
        <time>2021-04-23T11:49:36.000Z</time>
      </trkpt>
      <trkpt lat="45.19675" lon="5.64168">
        <ele>947.8</ele>
        <time>2021-04-23T11:49:37.000Z</time>
      </trkpt>
      <trkpt lat="45.19677" lon="5.64164">
        <ele>947.2</ele>
        <time>2021-04-23T11:49:38.000Z</time>
      </trkpt>
      <trkpt lat="45.19681" lon="5.64161">
        <ele>946.8</ele>
        <time>2021-04-23T11:49:39.000Z</time>
      </trkpt>
      <trkpt lat="45.19681" lon="5.6416">
        <ele>946.6</ele>
        <time>2021-04-23T11:49:40.000Z</time>
      </trkpt>
      <trkpt lat="45.19682" lon="5.6416">
        <ele>946.4</ele>
        <time>2021-04-23T11:49:41.000Z</time>
      </trkpt>
      <trkpt lat="45.19682" lon="5.64161">
        <ele>946.4</ele>
        <time>2021-04-23T11:49:42.000Z</time>
      </trkpt>
      <trkpt lat="45.19682" lon="5.64161">
        <ele>946</ele>
        <time>2021-04-23T11:49:43.000Z</time>
      </trkpt>
      <trkpt lat="45.19683" lon="5.64165">
        <ele>945.4</ele>
        <time>2021-04-23T11:49:45.000Z</time>
      </trkpt>
      <trkpt lat="45.19683" lon="5.64168">
        <ele>944.8</ele>
        <time>2021-04-23T11:49:46.000Z</time>
      </trkpt>
      <trkpt lat="45.19683" lon="5.64178">
        <ele>943.4</ele>
        <time>2021-04-23T11:49:48.000Z</time>
      </trkpt>
      <trkpt lat="45.19685" lon="5.64181">
        <ele>943</ele>
        <time>2021-04-23T11:49:49.000Z</time>
      </trkpt>
      <trkpt lat="45.19686" lon="5.64184">
        <ele>942.6</ele>
        <time>2021-04-23T11:49:50.000Z</time>
      </trkpt>
      <trkpt lat="45.19687" lon="5.64185">
        <ele>941.6</ele>
        <time>2021-04-23T11:49:51.000Z</time>
      </trkpt>
      <trkpt lat="45.19687" lon="5.64186">
        <ele>941</ele>
        <time>2021-04-23T11:49:52.000Z</time>
      </trkpt>
      <trkpt lat="45.19688" lon="5.64185">
        <ele>940.8</ele>
        <time>2021-04-23T11:49:53.000Z</time>
      </trkpt>
      <trkpt lat="45.19689" lon="5.64184">
        <ele>940</ele>
        <time>2021-04-23T11:49:54.000Z</time>
      </trkpt>
      <trkpt lat="45.19692" lon="5.64179">
        <ele>938.4</ele>
        <time>2021-04-23T11:49:57.000Z</time>
      </trkpt>
      <trkpt lat="45.19694" lon="5.64179">
        <ele>938</ele>
        <time>2021-04-23T11:49:58.000Z</time>
      </trkpt>
      <trkpt lat="45.19697" lon="5.64178">
        <ele>937.2</ele>
        <time>2021-04-23T11:49:59.000Z</time>
      </trkpt>
      <trkpt lat="45.197" lon="5.64178">
        <ele>936.8</ele>
        <time>2021-04-23T11:50:00.000Z</time>
      </trkpt>
      <trkpt lat="45.19701" lon="5.64178">
        <ele>936.2</ele>
        <time>2021-04-23T11:50:01.000Z</time>
      </trkpt>
      <trkpt lat="45.19703" lon="5.64178">
        <ele>935.8</ele>
        <time>2021-04-23T11:50:02.000Z</time>
      </trkpt>
      <trkpt lat="45.19704" lon="5.64177">
        <ele>934.6</ele>
        <time>2021-04-23T11:50:03.000Z</time>
      </trkpt>
      <trkpt lat="45.19706" lon="5.64175">
        <ele>933.2</ele>
        <time>2021-04-23T11:50:04.000Z</time>
      </trkpt>
      <trkpt lat="45.19709" lon="5.64172">
        <ele>932.6</ele>
        <time>2021-04-23T11:50:05.000Z</time>
      </trkpt>
      <trkpt lat="45.19712" lon="5.6417">
        <ele>932</ele>
        <time>2021-04-23T11:50:06.000Z</time>
      </trkpt>
      <trkpt lat="45.19713" lon="5.6417">
        <ele>931.6</ele>
        <time>2021-04-23T11:50:07.000Z</time>
      </trkpt>
      <trkpt lat="45.19712" lon="5.64172">
        <ele>931</ele>
        <time>2021-04-23T11:50:08.000Z</time>
      </trkpt>
      <trkpt lat="45.19712" lon="5.64175">
        <ele>930.8</ele>
        <time>2021-04-23T11:50:09.000Z</time>
      </trkpt>
      <trkpt lat="45.19712" lon="5.64179">
        <ele>930.2</ele>
        <time>2021-04-23T11:50:10.000Z</time>
      </trkpt>
      <trkpt lat="45.19713" lon="5.6418">
        <ele>929.6</ele>
        <time>2021-04-23T11:50:11.000Z</time>
      </trkpt>
      <trkpt lat="45.19716" lon="5.64178">
        <ele>929.2</ele>
        <time>2021-04-23T11:50:12.000Z</time>
      </trkpt>
      <trkpt lat="45.19717" lon="5.64175">
        <ele>928.4</ele>
        <time>2021-04-23T11:50:13.000Z</time>
      </trkpt>
      <trkpt lat="45.19721" lon="5.64172">
        <ele>927.6</ele>
        <time>2021-04-23T11:50:15.000Z</time>
      </trkpt>
      <trkpt lat="45.19722" lon="5.64172">
        <ele>926.8</ele>
        <time>2021-04-23T11:50:16.000Z</time>
      </trkpt>
      <trkpt lat="45.19727" lon="5.64178">
        <ele>925.2</ele>
        <time>2021-04-23T11:50:18.000Z</time>
      </trkpt>
      <trkpt lat="45.1973" lon="5.64187">
        <ele>922.6</ele>
        <time>2021-04-23T11:50:20.000Z</time>
      </trkpt>
      <trkpt lat="45.19731" lon="5.64194">
        <ele>921.4</ele>
        <time>2021-04-23T11:50:21.000Z</time>
      </trkpt>
      <trkpt lat="45.19731" lon="5.64199">
        <ele>920.8</ele>
        <time>2021-04-23T11:50:22.000Z</time>
      </trkpt>
      <trkpt lat="45.19734" lon="5.64204">
        <ele>920.4</ele>
        <time>2021-04-23T11:50:23.000Z</time>
      </trkpt>
      <trkpt lat="45.19735" lon="5.64209">
        <ele>920.2</ele>
        <time>2021-04-23T11:50:24.000Z</time>
      </trkpt>
      <trkpt lat="45.19738" lon="5.64215">
        <ele>920</ele>
        <time>2021-04-23T11:50:25.000Z</time>
      </trkpt>
      <trkpt lat="45.19739" lon="5.64221">
        <ele>920</ele>
        <time>2021-04-23T11:50:26.000Z</time>
      </trkpt>
      <trkpt lat="45.19738" lon="5.64223">
        <ele>920</ele>
        <time>2021-04-23T11:50:27.000Z</time>
      </trkpt>
      <trkpt lat="45.19734" lon="5.64233">
        <ele>919.8</ele>
        <time>2021-04-23T11:50:30.000Z</time>
      </trkpt>
      <trkpt lat="45.19735" lon="5.64236">
        <ele>919.8</ele>
        <time>2021-04-23T11:50:31.000Z</time>
      </trkpt>
      <trkpt lat="45.19735" lon="5.64237">
        <ele>919.6</ele>
        <time>2021-04-23T11:50:32.000Z</time>
      </trkpt>
      <trkpt lat="45.19736" lon="5.64234">
        <ele>919.2</ele>
        <time>2021-04-23T11:50:33.000Z</time>
      </trkpt>
      <trkpt lat="45.19737" lon="5.64229">
        <ele>919</ele>
        <time>2021-04-23T11:50:34.000Z</time>
      </trkpt>
      <trkpt lat="45.19739" lon="5.64216">
        <ele>918.2</ele>
        <time>2021-04-23T11:50:37.000Z</time>
      </trkpt>
      <trkpt lat="45.19739" lon="5.64212">
        <ele>918</ele>
        <time>2021-04-23T11:50:38.000Z</time>
      </trkpt>
      <trkpt lat="45.1974" lon="5.6421">
        <ele>917.8</ele>
        <time>2021-04-23T11:50:39.000Z</time>
      </trkpt>
      <trkpt lat="45.19742" lon="5.64209">
        <ele>917.2</ele>
        <time>2021-04-23T11:50:40.000Z</time>
      </trkpt>
      <trkpt lat="45.19746" lon="5.64209">
        <ele>916.6</ele>
        <time>2021-04-23T11:50:41.000Z</time>
      </trkpt>
      <trkpt lat="45.19752" lon="5.64212">
        <ele>915.2</ele>
        <time>2021-04-23T11:50:43.000Z</time>
      </trkpt>
      <trkpt lat="45.19756" lon="5.64212">
        <ele>914</ele>
        <time>2021-04-23T11:50:45.000Z</time>
      </trkpt>
      <trkpt lat="45.19758" lon="5.64212">
        <ele>913.6</ele>
        <time>2021-04-23T11:50:46.000Z</time>
      </trkpt>
      <trkpt lat="45.1976" lon="5.64214">
        <ele>912.6</ele>
        <time>2021-04-23T11:50:47.000Z</time>
      </trkpt>
      <trkpt lat="45.19761" lon="5.64217">
        <ele>912</ele>
        <time>2021-04-23T11:50:48.000Z</time>
      </trkpt>
      <trkpt lat="45.19761" lon="5.64221">
        <ele>911.6</ele>
        <time>2021-04-23T11:50:49.000Z</time>
      </trkpt>
      <trkpt lat="45.1976" lon="5.64225">
        <ele>910</ele>
        <time>2021-04-23T11:50:51.000Z</time>
      </trkpt>
      <trkpt lat="45.19762" lon="5.64224">
        <ele>909.2</ele>
        <time>2021-04-23T11:50:52.000Z</time>
      </trkpt>
      <trkpt lat="45.19763" lon="5.64223">
        <ele>908.4</ele>
        <time>2021-04-23T11:50:53.000Z</time>
      </trkpt>
      <trkpt lat="45.19764" lon="5.64222">
        <ele>908</ele>
        <time>2021-04-23T11:50:54.000Z</time>
      </trkpt>
      <trkpt lat="45.19765" lon="5.6422">
        <ele>907.4</ele>
        <time>2021-04-23T11:50:55.000Z</time>
      </trkpt>
      <trkpt lat="45.19766" lon="5.64218">
        <ele>907</ele>
        <time>2021-04-23T11:50:56.000Z</time>
      </trkpt>
      <trkpt lat="45.19766" lon="5.64218">
        <ele>906.8</ele>
        <time>2021-04-23T11:50:57.000Z</time>
      </trkpt>
      <trkpt lat="45.1977" lon="5.64218">
        <ele>906.4</ele>
        <time>2021-04-23T11:50:58.000Z</time>
      </trkpt>
      <trkpt lat="45.19771" lon="5.64218">
        <ele>906</ele>
        <time>2021-04-23T11:50:59.000Z</time>
      </trkpt>
      <trkpt lat="45.19771" lon="5.64218">
        <ele>905.4</ele>
        <time>2021-04-23T11:51:00.000Z</time>
      </trkpt>
      <trkpt lat="45.19771" lon="5.6422">
        <ele>905</ele>
        <time>2021-04-23T11:51:01.000Z</time>
      </trkpt>
      <trkpt lat="45.19771" lon="5.64222">
        <ele>904.4</ele>
        <time>2021-04-23T11:51:02.000Z</time>
      </trkpt>
      <trkpt lat="45.19774" lon="5.64224">
        <ele>903.6</ele>
        <time>2021-04-23T11:51:03.000Z</time>
      </trkpt>
      <trkpt lat="45.19775" lon="5.64225">
        <ele>903.2</ele>
        <time>2021-04-23T11:51:04.000Z</time>
      </trkpt>
      <trkpt lat="45.19777" lon="5.64224">
        <ele>902.8</ele>
        <time>2021-04-23T11:51:05.000Z</time>
      </trkpt>
      <trkpt lat="45.19779" lon="5.64221">
        <ele>902.4</ele>
        <time>2021-04-23T11:51:06.000Z</time>
      </trkpt>
      <trkpt lat="45.19779" lon="5.64216">
        <ele>902</ele>
        <time>2021-04-23T11:51:07.000Z</time>
      </trkpt>
      <trkpt lat="45.1978" lon="5.64209">
        <ele>901.4</ele>
        <time>2021-04-23T11:51:09.000Z</time>
      </trkpt>
      <trkpt lat="45.19782" lon="5.6421">
        <ele>901.4</ele>
        <time>2021-04-23T11:51:10.000Z</time>
      </trkpt>
      <trkpt lat="45.19783" lon="5.6421">
        <ele>901.4</ele>
        <time>2021-04-23T11:51:11.000Z</time>
      </trkpt>
      <trkpt lat="45.19783" lon="5.6421">
        <ele>901.2</ele>
        <time>2021-04-23T11:51:12.000Z</time>
      </trkpt>
      <trkpt lat="45.19783" lon="5.64212">
        <ele>900.8</ele>
        <time>2021-04-23T11:51:13.000Z</time>
      </trkpt>
      <trkpt lat="45.19787" lon="5.64213">
        <ele>899.6</ele>
        <time>2021-04-23T11:51:15.000Z</time>
      </trkpt>
      <trkpt lat="45.19794" lon="5.64209">
        <ele>898.2</ele>
        <time>2021-04-23T11:51:17.000Z</time>
      </trkpt>
      <trkpt lat="45.19797" lon="5.64208">
        <ele>897.6</ele>
        <time>2021-04-23T11:51:18.000Z</time>
      </trkpt>
      <trkpt lat="45.19805" lon="5.64209">
        <ele>896.2</ele>
        <time>2021-04-23T11:51:19.000Z</time>
      </trkpt>
      <trkpt lat="45.19809" lon="5.64209">
        <ele>895</ele>
        <time>2021-04-23T11:51:20.000Z</time>
      </trkpt>
      <trkpt lat="45.19812" lon="5.64206">
        <ele>893.8</ele>
        <time>2021-04-23T11:51:21.000Z</time>
      </trkpt>
      <trkpt lat="45.19818" lon="5.64196">
        <ele>891.4</ele>
        <time>2021-04-23T11:51:23.000Z</time>
      </trkpt>
      <trkpt lat="45.1982" lon="5.64194">
        <ele>890.4</ele>
        <time>2021-04-23T11:51:24.000Z</time>
      </trkpt>
      <trkpt lat="45.19822" lon="5.64191">
        <ele>889.8</ele>
        <time>2021-04-23T11:51:25.000Z</time>
      </trkpt>
      <trkpt lat="45.19827" lon="5.64187">
        <ele>888.2</ele>
        <time>2021-04-23T11:51:26.000Z</time>
      </trkpt>
      <trkpt lat="45.19832" lon="5.64186">
        <ele>887.4</ele>
        <time>2021-04-23T11:51:27.000Z</time>
      </trkpt>
      <trkpt lat="45.19835" lon="5.64188">
        <ele>886.8</ele>
        <time>2021-04-23T11:51:28.000Z</time>
      </trkpt>
      <trkpt lat="45.19836" lon="5.64188">
        <ele>886.2</ele>
        <time>2021-04-23T11:51:29.000Z</time>
      </trkpt>
      <trkpt lat="45.19837" lon="5.64189">
        <ele>885.2</ele>
        <time>2021-04-23T11:51:30.000Z</time>
      </trkpt>
      <trkpt lat="45.19837" lon="5.64189">
        <ele>884.6</ele>
        <time>2021-04-23T11:51:31.000Z</time>
      </trkpt>
      <trkpt lat="45.19838" lon="5.64189">
        <ele>884.2</ele>
        <time>2021-04-23T11:51:32.000Z</time>
      </trkpt>
      <trkpt lat="45.19839" lon="5.64188">
        <ele>883.8</ele>
        <time>2021-04-23T11:51:33.000Z</time>
      </trkpt>
      <trkpt lat="45.19845" lon="5.6418">
        <ele>881.6</ele>
        <time>2021-04-23T11:51:35.000Z</time>
      </trkpt>
      <trkpt lat="45.19853" lon="5.64179">
        <ele>880.4</ele>
        <time>2021-04-23T11:51:37.000Z</time>
      </trkpt>
      <trkpt lat="45.19856" lon="5.6418">
        <ele>879.8</ele>
        <time>2021-04-23T11:51:38.000Z</time>
      </trkpt>
      <trkpt lat="45.19859" lon="5.64183">
        <ele>879</ele>
        <time>2021-04-23T11:51:39.000Z</time>
      </trkpt>
      <trkpt lat="45.19861" lon="5.64183">
        <ele>878.6</ele>
        <time>2021-04-23T11:51:40.000Z</time>
      </trkpt>
      <trkpt lat="45.19864" lon="5.64183">
        <ele>878.4</ele>
        <time>2021-04-23T11:51:41.000Z</time>
      </trkpt>
      <trkpt lat="45.19867" lon="5.64183">
        <ele>878.2</ele>
        <time>2021-04-23T11:51:42.000Z</time>
      </trkpt>
      <trkpt lat="45.19871" lon="5.64182">
        <ele>877.6</ele>
        <time>2021-04-23T11:51:43.000Z</time>
      </trkpt>
      <trkpt lat="45.19874" lon="5.64183">
        <ele>877.4</ele>
        <time>2021-04-23T11:51:44.000Z</time>
      </trkpt>
      <trkpt lat="45.19876" lon="5.64185">
        <ele>877.2</ele>
        <time>2021-04-23T11:51:45.000Z</time>
      </trkpt>
      <trkpt lat="45.19878" lon="5.64186">
        <ele>877.2</ele>
        <time>2021-04-23T11:51:46.000Z</time>
      </trkpt>
      <trkpt lat="45.1988" lon="5.64188">
        <ele>877.2</ele>
        <time>2021-04-23T11:51:47.000Z</time>
      </trkpt>
      <trkpt lat="45.19883" lon="5.6419">
        <ele>877.4</ele>
        <time>2021-04-23T11:51:48.000Z</time>
      </trkpt>
      <trkpt lat="45.19886" lon="5.64191">
        <ele>877.6</ele>
        <time>2021-04-23T11:51:49.000Z</time>
      </trkpt>
      <trkpt lat="45.19889" lon="5.64192">
        <ele>877.6</ele>
        <time>2021-04-23T11:51:50.000Z</time>
      </trkpt>
      <trkpt lat="45.19892" lon="5.64194">
        <ele>877.6</ele>
        <time>2021-04-23T11:51:51.000Z</time>
      </trkpt>
      <trkpt lat="45.19894" lon="5.64195">
        <ele>877.8</ele>
        <time>2021-04-23T11:51:52.000Z</time>
      </trkpt>
      <trkpt lat="45.19896" lon="5.64196">
        <ele>877.8</ele>
        <time>2021-04-23T11:51:53.000Z</time>
      </trkpt>
      <trkpt lat="45.19898" lon="5.64197">
        <ele>877.8</ele>
        <time>2021-04-23T11:51:54.000Z</time>
      </trkpt>
      <trkpt lat="45.199" lon="5.64196">
        <ele>877.8</ele>
        <time>2021-04-23T11:51:55.000Z</time>
      </trkpt>
      <trkpt lat="45.199" lon="5.64196">
        <ele>877.6</ele>
        <time>2021-04-23T11:51:56.000Z</time>
      </trkpt>
      <trkpt lat="45.199" lon="5.64195">
        <ele>877.4</ele>
        <time>2021-04-23T11:51:57.000Z</time>
      </trkpt>
      <trkpt lat="45.199" lon="5.64193">
        <ele>877.2</ele>
        <time>2021-04-23T11:51:58.000Z</time>
      </trkpt>
      <trkpt lat="45.19901" lon="5.64193">
        <ele>876.6</ele>
        <time>2021-04-23T11:51:59.000Z</time>
      </trkpt>
      <trkpt lat="45.19903" lon="5.64192">
        <ele>876.2</ele>
        <time>2021-04-23T11:52:00.000Z</time>
      </trkpt>
      <trkpt lat="45.19909" lon="5.64194">
        <ele>875</ele>
        <time>2021-04-23T11:52:02.000Z</time>
      </trkpt>
      <trkpt lat="45.19909" lon="5.64194">
        <ele>874.6</ele>
        <time>2021-04-23T11:52:03.000Z</time>
      </trkpt>
      <trkpt lat="45.19909" lon="5.64194">
        <ele>874.4</ele>
        <time>2021-04-23T11:52:04.000Z</time>
      </trkpt>
      <trkpt lat="45.1991" lon="5.64193">
        <ele>874</ele>
        <time>2021-04-23T11:52:05.000Z</time>
      </trkpt>
      <trkpt lat="45.19911" lon="5.64192">
        <ele>873.2</ele>
        <time>2021-04-23T11:52:06.000Z</time>
      </trkpt>
      <trkpt lat="45.19912" lon="5.64191">
        <ele>872.6</ele>
        <time>2021-04-23T11:52:07.000Z</time>
      </trkpt>
      <trkpt lat="45.19912" lon="5.64189">
        <ele>872.2</ele>
        <time>2021-04-23T11:52:08.000Z</time>
      </trkpt>
      <trkpt lat="45.19911" lon="5.64185">
        <ele>871.8</ele>
        <time>2021-04-23T11:52:09.000Z</time>
      </trkpt>
      <trkpt lat="45.19911" lon="5.64183">
        <ele>871.4</ele>
        <time>2021-04-23T11:52:10.000Z</time>
      </trkpt>
      <trkpt lat="45.19911" lon="5.64181">
        <ele>871.2</ele>
        <time>2021-04-23T11:52:11.000Z</time>
      </trkpt>
      <trkpt lat="45.19913" lon="5.64181">
        <ele>870.8</ele>
        <time>2021-04-23T11:52:12.000Z</time>
      </trkpt>
      <trkpt lat="45.19918" lon="5.64183">
        <ele>870</ele>
        <time>2021-04-23T11:52:13.000Z</time>
      </trkpt>
      <trkpt lat="45.19922" lon="5.64185">
        <ele>869.2</ele>
        <time>2021-04-23T11:52:14.000Z</time>
      </trkpt>
      <trkpt lat="45.19923" lon="5.64187">
        <ele>868.8</ele>
        <time>2021-04-23T11:52:15.000Z</time>
      </trkpt>
      <trkpt lat="45.19924" lon="5.64187">
        <ele>868.6</ele>
        <time>2021-04-23T11:52:16.000Z</time>
      </trkpt>
      <trkpt lat="45.19925" lon="5.64186">
        <ele>868.2</ele>
        <time>2021-04-23T11:52:17.000Z</time>
      </trkpt>
      <trkpt lat="45.19925" lon="5.64185">
        <ele>867.8</ele>
        <time>2021-04-23T11:52:18.000Z</time>
      </trkpt>
      <trkpt lat="45.19925" lon="5.64183">
        <ele>867.4</ele>
        <time>2021-04-23T11:52:19.000Z</time>
      </trkpt>
      <trkpt lat="45.19925" lon="5.64182">
        <ele>867</ele>
        <time>2021-04-23T11:52:20.000Z</time>
      </trkpt>
      <trkpt lat="45.19926" lon="5.64181">
        <ele>866.6</ele>
        <time>2021-04-23T11:52:21.000Z</time>
      </trkpt>
      <trkpt lat="45.19927" lon="5.6418">
        <ele>866.2</ele>
        <time>2021-04-23T11:52:22.000Z</time>
      </trkpt>
      <trkpt lat="45.19928" lon="5.6418">
        <ele>865.8</ele>
        <time>2021-04-23T11:52:23.000Z</time>
      </trkpt>
      <trkpt lat="45.19929" lon="5.6418">
        <ele>865.4</ele>
        <time>2021-04-23T11:52:24.000Z</time>
      </trkpt>
      <trkpt lat="45.19931" lon="5.64181">
        <ele>864.8</ele>
        <time>2021-04-23T11:52:25.000Z</time>
      </trkpt>
      <trkpt lat="45.19932" lon="5.64182">
        <ele>864.4</ele>
        <time>2021-04-23T11:52:26.000Z</time>
      </trkpt>
      <trkpt lat="45.19933" lon="5.64183">
        <ele>863.4</ele>
        <time>2021-04-23T11:52:27.000Z</time>
      </trkpt>
      <trkpt lat="45.19935" lon="5.64185">
        <ele>863</ele>
        <time>2021-04-23T11:52:28.000Z</time>
      </trkpt>
      <trkpt lat="45.19936" lon="5.64186">
        <ele>862.6</ele>
        <time>2021-04-23T11:52:29.000Z</time>
      </trkpt>
      <trkpt lat="45.19937" lon="5.64185">
        <ele>862</ele>
        <time>2021-04-23T11:52:30.000Z</time>
      </trkpt>
      <trkpt lat="45.1994" lon="5.64182">
        <ele>860.6</ele>
        <time>2021-04-23T11:52:32.000Z</time>
      </trkpt>
      <trkpt lat="45.19942" lon="5.64181">
        <ele>859.8</ele>
        <time>2021-04-23T11:52:33.000Z</time>
      </trkpt>
      <trkpt lat="45.19943" lon="5.64182">
        <ele>859</ele>
        <time>2021-04-23T11:52:34.000Z</time>
      </trkpt>
      <trkpt lat="45.19944" lon="5.64183">
        <ele>858.4</ele>
        <time>2021-04-23T11:52:35.000Z</time>
      </trkpt>
      <trkpt lat="45.19948" lon="5.64191">
        <ele>858</ele>
        <time>2021-04-23T11:52:38.000Z</time>
      </trkpt>
      <trkpt lat="45.19949" lon="5.64195">
        <ele>857.6</ele>
        <time>2021-04-23T11:52:40.000Z</time>
      </trkpt>
      <trkpt lat="45.19949" lon="5.64197">
        <ele>856.6</ele>
        <time>2021-04-23T11:52:41.000Z</time>
      </trkpt>
      <trkpt lat="45.19949" lon="5.642">
        <ele>856</ele>
        <time>2021-04-23T11:52:42.000Z</time>
      </trkpt>
      <trkpt lat="45.1995" lon="5.64204">
        <ele>855.4</ele>
        <time>2021-04-23T11:52:43.000Z</time>
      </trkpt>
      <trkpt lat="45.19952" lon="5.64205">
        <ele>854.8</ele>
        <time>2021-04-23T11:52:44.000Z</time>
      </trkpt>
      <trkpt lat="45.19954" lon="5.64205">
        <ele>853.8</ele>
        <time>2021-04-23T11:52:45.000Z</time>
      </trkpt>
      <trkpt lat="45.19955" lon="5.64205">
        <ele>853.4</ele>
        <time>2021-04-23T11:52:46.000Z</time>
      </trkpt>
      <trkpt lat="45.19955" lon="5.64205">
        <ele>853</ele>
        <time>2021-04-23T11:52:47.000Z</time>
      </trkpt>
      <trkpt lat="45.19955" lon="5.64207">
        <ele>852.8</ele>
        <time>2021-04-23T11:52:48.000Z</time>
      </trkpt>
      <trkpt lat="45.19954" lon="5.64209">
        <ele>852.6</ele>
        <time>2021-04-23T11:52:49.000Z</time>
      </trkpt>
      <trkpt lat="45.19957" lon="5.64217">
        <ele>852.6</ele>
        <time>2021-04-23T11:52:51.000Z</time>
      </trkpt>
      <trkpt lat="45.19959" lon="5.64222">
        <ele>852.4</ele>
        <time>2021-04-23T11:52:52.000Z</time>
      </trkpt>
      <trkpt lat="45.1996" lon="5.64226">
        <ele>852.2</ele>
        <time>2021-04-23T11:52:53.000Z</time>
      </trkpt>
      <trkpt lat="45.19962" lon="5.6423">
        <ele>852.2</ele>
        <time>2021-04-23T11:52:54.000Z</time>
      </trkpt>
      <trkpt lat="45.19963" lon="5.64234">
        <ele>852</ele>
        <time>2021-04-23T11:52:55.000Z</time>
      </trkpt>
      <trkpt lat="45.19963" lon="5.64238">
        <ele>852.2</ele>
        <time>2021-04-23T11:52:56.000Z</time>
      </trkpt>
      <trkpt lat="45.19964" lon="5.64241">
        <ele>852.6</ele>
        <time>2021-04-23T11:52:57.000Z</time>
      </trkpt>
      <trkpt lat="45.19964" lon="5.64244">
        <ele>852.8</ele>
        <time>2021-04-23T11:52:58.000Z</time>
      </trkpt>
      <trkpt lat="45.19969" lon="5.64249">
        <ele>853</ele>
        <time>2021-04-23T11:52:59.000Z</time>
      </trkpt>
      <trkpt lat="45.19969" lon="5.6425">
        <ele>853.4</ele>
        <time>2021-04-23T11:53:00.000Z</time>
      </trkpt>
      <trkpt lat="45.19969" lon="5.64251">
        <ele>853.6</ele>
        <time>2021-04-23T11:53:04.000Z</time>
      </trkpt>
      <trkpt lat="45.19969" lon="5.64251">
        <ele>853.6</ele>
        <time>2021-04-23T11:53:09.000Z</time>
      </trkpt>
      <trkpt lat="45.19969" lon="5.64251">
        <ele>853.6</ele>
        <time>2021-04-23T11:53:11.000Z</time>
      </trkpt>
      <trkpt lat="45.19969" lon="5.64251">
        <ele>853.6</ele>
        <time>2021-04-23T11:53:14.000Z</time>
      </trkpt>
      <trkpt lat="45.19969" lon="5.64251">
        <ele>853.6</ele>
        <time>2021-04-23T11:53:16.000Z</time>
      </trkpt>
      <trkpt lat="45.19969" lon="5.64251">
        <ele>853.6</ele>
        <time>2021-04-23T11:53:18.000Z</time>
      </trkpt>
      <trkpt lat="45.19969" lon="5.64251">
        <ele>853.6</ele>
        <time>2021-04-23T11:53:20.000Z</time>
      </trkpt>
      <trkpt lat="45.19969" lon="5.64251">
        <ele>853.6</ele>
        <time>2021-04-23T11:53:23.000Z</time>
      </trkpt>
      <trkpt lat="45.19969" lon="5.64251">
        <ele>853.4</ele>
        <time>2021-04-23T11:53:25.000Z</time>
      </trkpt>
      <trkpt lat="45.19969" lon="5.64251">
        <ele>853.2</ele>
        <time>2021-04-23T11:53:37.000Z</time>
      </trkpt>
      <trkpt lat="45.19969" lon="5.64251">
        <ele>852.8</ele>
        <time>2021-04-23T11:53:44.000Z</time>
      </trkpt>
      <trkpt lat="45.1997" lon="5.6425">
        <ele>852.6</ele>
        <time>2021-04-23T11:53:54.000Z</time>
      </trkpt>
      <trkpt lat="45.1997" lon="5.6425">
        <ele>852.2</ele>
        <time>2021-04-23T11:54:01.000Z</time>
      </trkpt>
      <trkpt lat="45.1997" lon="5.6425">
        <ele>852.2</ele>
        <time>2021-04-23T11:54:05.000Z</time>
      </trkpt>
      <trkpt lat="45.1997" lon="5.6425">
        <ele>852</ele>
        <time>2021-04-23T11:54:08.000Z</time>
      </trkpt>
      <trkpt lat="45.1997" lon="5.6425">
        <ele>851.6</ele>
        <time>2021-04-23T11:54:25.000Z</time>
      </trkpt>
      <trkpt lat="45.1997" lon="5.6425">
        <ele>851.6</ele>
        <time>2021-04-23T11:54:32.000Z</time>
      </trkpt>
      <trkpt lat="45.1997" lon="5.6425">
        <ele>851.4</ele>
        <time>2021-04-23T11:54:39.000Z</time>
      </trkpt>
      <trkpt lat="45.19969" lon="5.6425">
        <ele>851</ele>
        <time>2021-04-23T11:54:53.000Z</time>
      </trkpt>
      <trkpt lat="45.19969" lon="5.6425">
        <ele>851</ele>
        <time>2021-04-23T11:54:56.000Z</time>
      </trkpt>
      <trkpt lat="45.19969" lon="5.6425">
        <ele>851</ele>
        <time>2021-04-23T11:55:00.000Z</time>
      </trkpt>
      <trkpt lat="45.19969" lon="5.6425">
        <ele>850.6</ele>
        <time>2021-04-23T11:55:10.000Z</time>
      </trkpt>
      <trkpt lat="45.19969" lon="5.6425">
        <ele>850.6</ele>
        <time>2021-04-23T11:55:15.000Z</time>
      </trkpt>
      <trkpt lat="45.19969" lon="5.6425">
        <ele>850.8</ele>
        <time>2021-04-23T11:55:19.000Z</time>
      </trkpt>
      <trkpt lat="45.19969" lon="5.6425">
        <ele>850.4</ele>
        <time>2021-04-23T11:55:22.000Z</time>
      </trkpt>
      <trkpt lat="45.19969" lon="5.64252">
        <ele>850.6</ele>
        <time>2021-04-23T11:55:28.000Z</time>
      </trkpt>
      <trkpt lat="45.1997" lon="5.64257">
        <ele>850.6</ele>
        <time>2021-04-23T11:55:30.000Z</time>
      </trkpt>
      <trkpt lat="45.19973" lon="5.64269">
        <ele>850.4</ele>
        <time>2021-04-23T11:55:33.000Z</time>
      </trkpt>
      <trkpt lat="45.19977" lon="5.64276">
        <ele>850.4</ele>
        <time>2021-04-23T11:55:35.000Z</time>
      </trkpt>
      <trkpt lat="45.19979" lon="5.64279">
        <ele>850.4</ele>
        <time>2021-04-23T11:55:36.000Z</time>
      </trkpt>
      <trkpt lat="45.19982" lon="5.64281">
        <ele>850.4</ele>
        <time>2021-04-23T11:55:37.000Z</time>
      </trkpt>
      <trkpt lat="45.19984" lon="5.64284">
        <ele>850.4</ele>
        <time>2021-04-23T11:55:38.000Z</time>
      </trkpt>
      <trkpt lat="45.19987" lon="5.64285">
        <ele>850.4</ele>
        <time>2021-04-23T11:55:39.000Z</time>
      </trkpt>
      <trkpt lat="45.19989" lon="5.64287">
        <ele>850.4</ele>
        <time>2021-04-23T11:55:40.000Z</time>
      </trkpt>
      <trkpt lat="45.20001" lon="5.64291">
        <ele>850.4</ele>
        <time>2021-04-23T11:55:44.000Z</time>
      </trkpt>
      <trkpt lat="45.20003" lon="5.64293">
        <ele>850.4</ele>
        <time>2021-04-23T11:55:45.000Z</time>
      </trkpt>
      <trkpt lat="45.20005" lon="5.64294">
        <ele>850.4</ele>
        <time>2021-04-23T11:55:46.000Z</time>
      </trkpt>
      <trkpt lat="45.20008" lon="5.64296">
        <ele>850.4</ele>
        <time>2021-04-23T11:55:47.000Z</time>
      </trkpt>
      <trkpt lat="45.2001" lon="5.64297">
        <ele>850.6</ele>
        <time>2021-04-23T11:55:48.000Z</time>
      </trkpt>
      <trkpt lat="45.20012" lon="5.64299">
        <ele>850.8</ele>
        <time>2021-04-23T11:55:49.000Z</time>
      </trkpt>
      <trkpt lat="45.20013" lon="5.64301">
        <ele>851</ele>
        <time>2021-04-23T11:55:50.000Z</time>
      </trkpt>
      <trkpt lat="45.20016" lon="5.64304">
        <ele>851.2</ele>
        <time>2021-04-23T11:55:51.000Z</time>
      </trkpt>
      <trkpt lat="45.20019" lon="5.64306">
        <ele>851.4</ele>
        <time>2021-04-23T11:55:52.000Z</time>
      </trkpt>
      <trkpt lat="45.20021" lon="5.64308">
        <ele>851.4</ele>
        <time>2021-04-23T11:55:53.000Z</time>
      </trkpt>
      <trkpt lat="45.20023" lon="5.6431">
        <ele>851.4</ele>
        <time>2021-04-23T11:55:54.000Z</time>
      </trkpt>
      <trkpt lat="45.2003" lon="5.64322">
        <ele>851.4</ele>
        <time>2021-04-23T11:55:58.000Z</time>
      </trkpt>
      <trkpt lat="45.20032" lon="5.64326">
        <ele>851.4</ele>
        <time>2021-04-23T11:55:59.000Z</time>
      </trkpt>
      <trkpt lat="45.20035" lon="5.64332">
        <ele>851.6</ele>
        <time>2021-04-23T11:56:01.000Z</time>
      </trkpt>
      <trkpt lat="45.20035" lon="5.64336">
        <ele>851.4</ele>
        <time>2021-04-23T11:56:02.000Z</time>
      </trkpt>
      <trkpt lat="45.20036" lon="5.6434">
        <ele>851.6</ele>
        <time>2021-04-23T11:56:03.000Z</time>
      </trkpt>
      <trkpt lat="45.20035" lon="5.64344">
        <ele>851.6</ele>
        <time>2021-04-23T11:56:04.000Z</time>
      </trkpt>
      <trkpt lat="45.20035" lon="5.64348">
        <ele>851.8</ele>
        <time>2021-04-23T11:56:05.000Z</time>
      </trkpt>
      <trkpt lat="45.20035" lon="5.64357">
        <ele>851.8</ele>
        <time>2021-04-23T11:56:07.000Z</time>
      </trkpt>
      <trkpt lat="45.2004" lon="5.64374">
        <ele>851.8</ele>
        <time>2021-04-23T11:56:11.000Z</time>
      </trkpt>
      <trkpt lat="45.2004" lon="5.64379">
        <ele>851.8</ele>
        <time>2021-04-23T11:56:12.000Z</time>
      </trkpt>
      <trkpt lat="45.20042" lon="5.64391">
        <ele>852.2</ele>
        <time>2021-04-23T11:56:15.000Z</time>
      </trkpt>
      <trkpt lat="45.20049" lon="5.64409">
        <ele>852.4</ele>
        <time>2021-04-23T11:56:19.000Z</time>
      </trkpt>
      <trkpt lat="45.20051" lon="5.64413">
        <ele>852.4</ele>
        <time>2021-04-23T11:56:20.000Z</time>
      </trkpt>
      <trkpt lat="45.20053" lon="5.64416">
        <ele>852.4</ele>
        <time>2021-04-23T11:56:21.000Z</time>
      </trkpt>
      <trkpt lat="45.20055" lon="5.64419">
        <ele>852.4</ele>
        <time>2021-04-23T11:56:22.000Z</time>
      </trkpt>
      <trkpt lat="45.20056" lon="5.6442">
        <ele>852.4</ele>
        <time>2021-04-23T11:56:23.000Z</time>
      </trkpt>
      <trkpt lat="45.2006" lon="5.64421">
        <ele>852.6</ele>
        <time>2021-04-23T11:56:24.000Z</time>
      </trkpt>
      <trkpt lat="45.20064" lon="5.64422">
        <ele>852.6</ele>
        <time>2021-04-23T11:56:25.000Z</time>
      </trkpt>
      <trkpt lat="45.20067" lon="5.64423">
        <ele>852.8</ele>
        <time>2021-04-23T11:56:26.000Z</time>
      </trkpt>
      <trkpt lat="45.2007" lon="5.64423">
        <ele>852.6</ele>
        <time>2021-04-23T11:56:27.000Z</time>
      </trkpt>
      <trkpt lat="45.20086" lon="5.64426">
        <ele>852.6</ele>
        <time>2021-04-23T11:56:32.000Z</time>
      </trkpt>
      <trkpt lat="45.20088" lon="5.64428">
        <ele>852.4</ele>
        <time>2021-04-23T11:56:33.000Z</time>
      </trkpt>
      <trkpt lat="45.20092" lon="5.64432">
        <ele>852.4</ele>
        <time>2021-04-23T11:56:34.000Z</time>
      </trkpt>
      <trkpt lat="45.20106" lon="5.64443">
        <ele>852</ele>
        <time>2021-04-23T11:56:38.000Z</time>
      </trkpt>
      <trkpt lat="45.2011" lon="5.64446">
        <ele>851.6</ele>
        <time>2021-04-23T11:56:39.000Z</time>
      </trkpt>
      <trkpt lat="45.20126" lon="5.64457">
        <ele>851</ele>
        <time>2021-04-23T11:56:42.000Z</time>
      </trkpt>
      <trkpt lat="45.20131" lon="5.6446">
        <ele>850</ele>
        <time>2021-04-23T11:56:43.000Z</time>
      </trkpt>
      <trkpt lat="45.20136" lon="5.64464">
        <ele>849.2</ele>
        <time>2021-04-23T11:56:44.000Z</time>
      </trkpt>
      <trkpt lat="45.20142" lon="5.64469">
        <ele>848.6</ele>
        <time>2021-04-23T11:56:45.000Z</time>
      </trkpt>
      <trkpt lat="45.20152" lon="5.64478">
        <ele>848.2</ele>
        <time>2021-04-23T11:56:47.000Z</time>
      </trkpt>
      <trkpt lat="45.20155" lon="5.64482">
        <ele>848.2</ele>
        <time>2021-04-23T11:56:48.000Z</time>
      </trkpt>
      <trkpt lat="45.20159" lon="5.64486">
        <ele>848.2</ele>
        <time>2021-04-23T11:56:49.000Z</time>
      </trkpt>
      <trkpt lat="45.20163" lon="5.6449">
        <ele>848.4</ele>
        <time>2021-04-23T11:56:50.000Z</time>
      </trkpt>
      <trkpt lat="45.20166" lon="5.64494">
        <ele>848.8</ele>
        <time>2021-04-23T11:56:51.000Z</time>
      </trkpt>
      <trkpt lat="45.20169" lon="5.64497">
        <ele>849.2</ele>
        <time>2021-04-23T11:56:52.000Z</time>
      </trkpt>
      <trkpt lat="45.20171" lon="5.645">
        <ele>849.8</ele>
        <time>2021-04-23T11:56:53.000Z</time>
      </trkpt>
      <trkpt lat="45.20175" lon="5.64503">
        <ele>850.2</ele>
        <time>2021-04-23T11:56:54.000Z</time>
      </trkpt>
      <trkpt lat="45.20179" lon="5.64505">
        <ele>850.4</ele>
        <time>2021-04-23T11:56:55.000Z</time>
      </trkpt>
      <trkpt lat="45.20183" lon="5.64509">
        <ele>850.6</ele>
        <time>2021-04-23T11:56:56.000Z</time>
      </trkpt>
      <trkpt lat="45.20185" lon="5.64512">
        <ele>850.8</ele>
        <time>2021-04-23T11:56:57.000Z</time>
      </trkpt>
      <trkpt lat="45.2019" lon="5.64519">
        <ele>851.2</ele>
        <time>2021-04-23T11:56:59.000Z</time>
      </trkpt>
      <trkpt lat="45.20191" lon="5.64521">
        <ele>851.4</ele>
        <time>2021-04-23T11:57:00.000Z</time>
      </trkpt>
      <trkpt lat="45.20193" lon="5.64523">
        <ele>851.8</ele>
        <time>2021-04-23T11:57:01.000Z</time>
      </trkpt>
      <trkpt lat="45.20195" lon="5.64524">
        <ele>852.2</ele>
        <time>2021-04-23T11:57:02.000Z</time>
      </trkpt>
      <trkpt lat="45.20196" lon="5.64525">
        <ele>852.4</ele>
        <time>2021-04-23T11:57:03.000Z</time>
      </trkpt>
      <trkpt lat="45.20196" lon="5.64525">
        <ele>852.6</ele>
        <time>2021-04-23T11:57:04.000Z</time>
      </trkpt>
      <trkpt lat="45.20198" lon="5.64529">
        <ele>852.8</ele>
        <time>2021-04-23T11:57:06.000Z</time>
      </trkpt>
      <trkpt lat="45.202" lon="5.64529">
        <ele>852.8</ele>
        <time>2021-04-23T11:57:07.000Z</time>
      </trkpt>
      <trkpt lat="45.20201" lon="5.6453">
        <ele>852.8</ele>
        <time>2021-04-23T11:57:08.000Z</time>
      </trkpt>
      <trkpt lat="45.20203" lon="5.64531">
        <ele>852.8</ele>
        <time>2021-04-23T11:57:09.000Z</time>
      </trkpt>
      <trkpt lat="45.20205" lon="5.64532">
        <ele>852.8</ele>
        <time>2021-04-23T11:57:10.000Z</time>
      </trkpt>
      <trkpt lat="45.20205" lon="5.64532">
        <ele>852.8</ele>
        <time>2021-04-23T11:57:11.000Z</time>
      </trkpt>
      <trkpt lat="45.20205" lon="5.64532">
        <ele>852.8</ele>
        <time>2021-04-23T11:57:12.000Z</time>
      </trkpt>
      <trkpt lat="45.20205" lon="5.64532">
        <ele>852.8</ele>
        <time>2021-04-23T11:57:13.000Z</time>
      </trkpt>
      <trkpt lat="45.20205" lon="5.64532">
        <ele>852.8</ele>
        <time>2021-04-23T11:57:14.000Z</time>
      </trkpt>
      <trkpt lat="45.20205" lon="5.64532">
        <ele>852.8</ele>
        <time>2021-04-23T11:57:15.000Z</time>
      </trkpt>
      <trkpt lat="45.20205" lon="5.64532">
        <ele>852.8</ele>
        <time>2021-04-23T11:57:16.000Z</time>
      </trkpt>
      <trkpt lat="45.20205" lon="5.64532">
        <ele>852.8</ele>
        <time>2021-04-23T11:57:19.000Z</time>
      </trkpt>
      <trkpt lat="45.20204" lon="5.64532">
        <ele>852.6</ele>
        <time>2021-04-23T11:57:21.000Z</time>
      </trkpt>
      <trkpt lat="45.20204" lon="5.64532">
        <ele>852.4</ele>
        <time>2021-04-23T11:57:32.000Z</time>
      </trkpt>
      <trkpt lat="45.20205" lon="5.64531">
        <ele>852</ele>
        <time>2021-04-23T11:57:49.000Z</time>
      </trkpt>
      <trkpt lat="45.20205" lon="5.64531">
        <ele>851.8</ele>
        <time>2021-04-23T11:57:51.000Z</time>
      </trkpt>
      <trkpt lat="45.20209" lon="5.64536">
        <ele>851.8</ele>
        <time>2021-04-23T11:57:53.000Z</time>
      </trkpt>
      <trkpt lat="45.20222" lon="5.64548">
        <ele>851</ele>
        <time>2021-04-23T11:57:58.000Z</time>
      </trkpt>
      <trkpt lat="45.20226" lon="5.64552">
        <ele>850.2</ele>
        <time>2021-04-23T11:57:59.000Z</time>
      </trkpt>
      <trkpt lat="45.2023" lon="5.64556">
        <ele>849.6</ele>
        <time>2021-04-23T11:58:00.000Z</time>
      </trkpt>
      <trkpt lat="45.20234" lon="5.6456">
        <ele>848.8</ele>
        <time>2021-04-23T11:58:01.000Z</time>
      </trkpt>
      <trkpt lat="45.20246" lon="5.64573">
        <ele>847.4</ele>
        <time>2021-04-23T11:58:03.000Z</time>
      </trkpt>
      <trkpt lat="45.20255" lon="5.64591">
        <ele>845.8</ele>
        <time>2021-04-23T11:58:05.000Z</time>
      </trkpt>
      <trkpt lat="45.2026" lon="5.64601">
        <ele>844.8</ele>
        <time>2021-04-23T11:58:06.000Z</time>
      </trkpt>
      <trkpt lat="45.20263" lon="5.64611">
        <ele>844.2</ele>
        <time>2021-04-23T11:58:07.000Z</time>
      </trkpt>
      <trkpt lat="45.20267" lon="5.64622">
        <ele>843.6</ele>
        <time>2021-04-23T11:58:08.000Z</time>
      </trkpt>
      <trkpt lat="45.2027" lon="5.64632">
        <ele>842.8</ele>
        <time>2021-04-23T11:58:09.000Z</time>
      </trkpt>
      <trkpt lat="45.20275" lon="5.64656">
        <ele>842.2</ele>
        <time>2021-04-23T11:58:11.000Z</time>
      </trkpt>
      <trkpt lat="45.20278" lon="5.64663">
        <ele>842.2</ele>
        <time>2021-04-23T11:58:12.000Z</time>
      </trkpt>
      <trkpt lat="45.2028" lon="5.64671">
        <ele>842</ele>
        <time>2021-04-23T11:58:13.000Z</time>
      </trkpt>
      <trkpt lat="45.20282" lon="5.64678">
        <ele>842.2</ele>
        <time>2021-04-23T11:58:14.000Z</time>
      </trkpt>
      <trkpt lat="45.20284" lon="5.64685">
        <ele>842.4</ele>
        <time>2021-04-23T11:58:15.000Z</time>
      </trkpt>
      <trkpt lat="45.20285" lon="5.64691">
        <ele>842.6</ele>
        <time>2021-04-23T11:58:16.000Z</time>
      </trkpt>
      <trkpt lat="45.20287" lon="5.64697">
        <ele>842.8</ele>
        <time>2021-04-23T11:58:17.000Z</time>
      </trkpt>
      <trkpt lat="45.20289" lon="5.64703">
        <ele>843</ele>
        <time>2021-04-23T11:58:18.000Z</time>
      </trkpt>
      <trkpt lat="45.20296" lon="5.6471">
        <ele>843.2</ele>
        <time>2021-04-23T11:58:19.000Z</time>
      </trkpt>
      <trkpt lat="45.20298" lon="5.64716">
        <ele>843.2</ele>
        <time>2021-04-23T11:58:20.000Z</time>
      </trkpt>
      <trkpt lat="45.203" lon="5.64722">
        <ele>843.2</ele>
        <time>2021-04-23T11:58:21.000Z</time>
      </trkpt>
      <trkpt lat="45.20302" lon="5.64729">
        <ele>843.2</ele>
        <time>2021-04-23T11:58:22.000Z</time>
      </trkpt>
      <trkpt lat="45.20304" lon="5.64735">
        <ele>843.2</ele>
        <time>2021-04-23T11:58:23.000Z</time>
      </trkpt>
      <trkpt lat="45.20306" lon="5.64742">
        <ele>843.2</ele>
        <time>2021-04-23T11:58:24.000Z</time>
      </trkpt>
      <trkpt lat="45.20307" lon="5.64748">
        <ele>843.4</ele>
        <time>2021-04-23T11:58:25.000Z</time>
      </trkpt>
      <trkpt lat="45.20307" lon="5.64754">
        <ele>843.8</ele>
        <time>2021-04-23T11:58:26.000Z</time>
      </trkpt>
      <trkpt lat="45.20308" lon="5.6476">
        <ele>844.6</ele>
        <time>2021-04-23T11:58:27.000Z</time>
      </trkpt>
      <trkpt lat="45.20309" lon="5.64764">
        <ele>845.2</ele>
        <time>2021-04-23T11:58:28.000Z</time>
      </trkpt>
      <trkpt lat="45.20309" lon="5.64768">
        <ele>846</ele>
        <time>2021-04-23T11:58:29.000Z</time>
      </trkpt>
      <trkpt lat="45.2031" lon="5.64773">
        <ele>846.6</ele>
        <time>2021-04-23T11:58:30.000Z</time>
      </trkpt>
      <trkpt lat="45.2031" lon="5.64777">
        <ele>847</ele>
        <time>2021-04-23T11:58:31.000Z</time>
      </trkpt>
      <trkpt lat="45.2031" lon="5.6478">
        <ele>847.2</ele>
        <time>2021-04-23T11:58:32.000Z</time>
      </trkpt>
      <trkpt lat="45.20311" lon="5.64783">
        <ele>847.4</ele>
        <time>2021-04-23T11:58:33.000Z</time>
      </trkpt>
      <trkpt lat="45.2031" lon="5.64786">
        <ele>847.6</ele>
        <time>2021-04-23T11:58:34.000Z</time>
      </trkpt>
      <trkpt lat="45.2031" lon="5.6479">
        <ele>847.8</ele>
        <time>2021-04-23T11:58:35.000Z</time>
      </trkpt>
      <trkpt lat="45.20309" lon="5.64797">
        <ele>848</ele>
        <time>2021-04-23T11:58:37.000Z</time>
      </trkpt>
      <trkpt lat="45.20309" lon="5.64801">
        <ele>848</ele>
        <time>2021-04-23T11:58:38.000Z</time>
      </trkpt>
      <trkpt lat="45.20309" lon="5.64804">
        <ele>848</ele>
        <time>2021-04-23T11:58:39.000Z</time>
      </trkpt>
      <trkpt lat="45.20309" lon="5.64809">
        <ele>848</ele>
        <time>2021-04-23T11:58:40.000Z</time>
      </trkpt>
      <trkpt lat="45.2031" lon="5.64813">
        <ele>848.2</ele>
        <time>2021-04-23T11:58:41.000Z</time>
      </trkpt>
      <trkpt lat="45.20309" lon="5.64817">
        <ele>848.4</ele>
        <time>2021-04-23T11:58:42.000Z</time>
      </trkpt>
      <trkpt lat="45.20309" lon="5.64821">
        <ele>848.6</ele>
        <time>2021-04-23T11:58:43.000Z</time>
      </trkpt>
      <trkpt lat="45.2031" lon="5.64824">
        <ele>848.6</ele>
        <time>2021-04-23T11:58:44.000Z</time>
      </trkpt>
      <trkpt lat="45.2031" lon="5.64828">
        <ele>849</ele>
        <time>2021-04-23T11:58:45.000Z</time>
      </trkpt>
      <trkpt lat="45.20309" lon="5.64831">
        <ele>849.4</ele>
        <time>2021-04-23T11:58:46.000Z</time>
      </trkpt>
      <trkpt lat="45.20309" lon="5.64835">
        <ele>849.6</ele>
        <time>2021-04-23T11:58:47.000Z</time>
      </trkpt>
      <trkpt lat="45.20309" lon="5.64838">
        <ele>849.6</ele>
        <time>2021-04-23T11:58:48.000Z</time>
      </trkpt>
      <trkpt lat="45.20308" lon="5.64841">
        <ele>849.6</ele>
        <time>2021-04-23T11:58:49.000Z</time>
      </trkpt>
      <trkpt lat="45.20307" lon="5.64845">
        <ele>849.8</ele>
        <time>2021-04-23T11:58:50.000Z</time>
      </trkpt>
      <trkpt lat="45.20308" lon="5.64848">
        <ele>849.8</ele>
        <time>2021-04-23T11:58:51.000Z</time>
      </trkpt>
      <trkpt lat="45.20309" lon="5.64853">
        <ele>849.8</ele>
        <time>2021-04-23T11:58:52.000Z</time>
      </trkpt>
      <trkpt lat="45.20309" lon="5.64857">
        <ele>850</ele>
        <time>2021-04-23T11:58:53.000Z</time>
      </trkpt>
      <trkpt lat="45.20309" lon="5.64861">
        <ele>850</ele>
        <time>2021-04-23T11:58:54.000Z</time>
      </trkpt>
      <trkpt lat="45.20309" lon="5.64865">
        <ele>850</ele>
        <time>2021-04-23T11:58:55.000Z</time>
      </trkpt>
      <trkpt lat="45.20309" lon="5.64869">
        <ele>850</ele>
        <time>2021-04-23T11:58:56.000Z</time>
      </trkpt>
      <trkpt lat="45.20309" lon="5.64872">
        <ele>850.2</ele>
        <time>2021-04-23T11:58:57.000Z</time>
      </trkpt>
      <trkpt lat="45.2031" lon="5.64876">
        <ele>850.2</ele>
        <time>2021-04-23T11:58:58.000Z</time>
      </trkpt>
      <trkpt lat="45.20309" lon="5.6488">
        <ele>850.2</ele>
        <time>2021-04-23T11:58:59.000Z</time>
      </trkpt>
      <trkpt lat="45.20309" lon="5.64885">
        <ele>850.4</ele>
        <time>2021-04-23T11:59:00.000Z</time>
      </trkpt>
      <trkpt lat="45.20309" lon="5.64889">
        <ele>850.4</ele>
        <time>2021-04-23T11:59:01.000Z</time>
      </trkpt>
      <trkpt lat="45.2031" lon="5.64893">
        <ele>850.6</ele>
        <time>2021-04-23T11:59:02.000Z</time>
      </trkpt>
      <trkpt lat="45.20311" lon="5.64896">
        <ele>850.6</ele>
        <time>2021-04-23T11:59:03.000Z</time>
      </trkpt>
      <trkpt lat="45.20311" lon="5.649">
        <ele>850.8</ele>
        <time>2021-04-23T11:59:04.000Z</time>
      </trkpt>
      <trkpt lat="45.20311" lon="5.64903">
        <ele>850.8</ele>
        <time>2021-04-23T11:59:05.000Z</time>
      </trkpt>
      <trkpt lat="45.20311" lon="5.64906">
        <ele>851</ele>
        <time>2021-04-23T11:59:06.000Z</time>
      </trkpt>
      <trkpt lat="45.2031" lon="5.6491">
        <ele>851.2</ele>
        <time>2021-04-23T11:59:07.000Z</time>
      </trkpt>
      <trkpt lat="45.2031" lon="5.64913">
        <ele>851.6</ele>
        <time>2021-04-23T11:59:08.000Z</time>
      </trkpt>
      <trkpt lat="45.2031" lon="5.64916">
        <ele>851.8</ele>
        <time>2021-04-23T11:59:09.000Z</time>
      </trkpt>
      <trkpt lat="45.20309" lon="5.64919">
        <ele>852</ele>
        <time>2021-04-23T11:59:10.000Z</time>
      </trkpt>
      <trkpt lat="45.20309" lon="5.64923">
        <ele>852.4</ele>
        <time>2021-04-23T11:59:11.000Z</time>
      </trkpt>
      <trkpt lat="45.20308" lon="5.64926">
        <ele>852.6</ele>
        <time>2021-04-23T11:59:12.000Z</time>
      </trkpt>
      <trkpt lat="45.20308" lon="5.64929">
        <ele>852.8</ele>
        <time>2021-04-23T11:59:13.000Z</time>
      </trkpt>
      <trkpt lat="45.20308" lon="5.64933">
        <ele>853</ele>
        <time>2021-04-23T11:59:14.000Z</time>
      </trkpt>
      <trkpt lat="45.20308" lon="5.64937">
        <ele>853.2</ele>
        <time>2021-04-23T11:59:15.000Z</time>
      </trkpt>
      <trkpt lat="45.20309" lon="5.6494">
        <ele>853.2</ele>
        <time>2021-04-23T11:59:16.000Z</time>
      </trkpt>
      <trkpt lat="45.2031" lon="5.64944">
        <ele>853.2</ele>
        <time>2021-04-23T11:59:17.000Z</time>
      </trkpt>
      <trkpt lat="45.20311" lon="5.64948">
        <ele>853.2</ele>
        <time>2021-04-23T11:59:18.000Z</time>
      </trkpt>
      <trkpt lat="45.20311" lon="5.64951">
        <ele>853.2</ele>
        <time>2021-04-23T11:59:19.000Z</time>
      </trkpt>
      <trkpt lat="45.20312" lon="5.64955">
        <ele>853.2</ele>
        <time>2021-04-23T11:59:20.000Z</time>
      </trkpt>
      <trkpt lat="45.20314" lon="5.64959">
        <ele>853.2</ele>
        <time>2021-04-23T11:59:21.000Z</time>
      </trkpt>
      <trkpt lat="45.20315" lon="5.64963">
        <ele>853.2</ele>
        <time>2021-04-23T11:59:22.000Z</time>
      </trkpt>
      <trkpt lat="45.20316" lon="5.64966">
        <ele>853.4</ele>
        <time>2021-04-23T11:59:23.000Z</time>
      </trkpt>
      <trkpt lat="45.20317" lon="5.6497">
        <ele>853.4</ele>
        <time>2021-04-23T11:59:24.000Z</time>
      </trkpt>
      <trkpt lat="45.20318" lon="5.64973">
        <ele>853.6</ele>
        <time>2021-04-23T11:59:25.000Z</time>
      </trkpt>
      <trkpt lat="45.20319" lon="5.64977">
        <ele>853.8</ele>
        <time>2021-04-23T11:59:26.000Z</time>
      </trkpt>
      <trkpt lat="45.2032" lon="5.6498">
        <ele>854</ele>
        <time>2021-04-23T11:59:27.000Z</time>
      </trkpt>
      <trkpt lat="45.20321" lon="5.64983">
        <ele>854.4</ele>
        <time>2021-04-23T11:59:28.000Z</time>
      </trkpt>
      <trkpt lat="45.20322" lon="5.64986">
        <ele>854.6</ele>
        <time>2021-04-23T11:59:29.000Z</time>
      </trkpt>
      <trkpt lat="45.20323" lon="5.64989">
        <ele>854.8</ele>
        <time>2021-04-23T11:59:30.000Z</time>
      </trkpt>
      <trkpt lat="45.20324" lon="5.64992">
        <ele>855</ele>
        <time>2021-04-23T11:59:31.000Z</time>
      </trkpt>
      <trkpt lat="45.20325" lon="5.64995">
        <ele>855.4</ele>
        <time>2021-04-23T11:59:32.000Z</time>
      </trkpt>
      <trkpt lat="45.20325" lon="5.64998">
        <ele>855.8</ele>
        <time>2021-04-23T11:59:33.000Z</time>
      </trkpt>
      <trkpt lat="45.20325" lon="5.65">
        <ele>856</ele>
        <time>2021-04-23T11:59:34.000Z</time>
      </trkpt>
      <trkpt lat="45.20325" lon="5.65003">
        <ele>856.4</ele>
        <time>2021-04-23T11:59:35.000Z</time>
      </trkpt>
      <trkpt lat="45.20325" lon="5.65006">
        <ele>856.6</ele>
        <time>2021-04-23T11:59:36.000Z</time>
      </trkpt>
      <trkpt lat="45.20325" lon="5.65009">
        <ele>856.8</ele>
        <time>2021-04-23T11:59:37.000Z</time>
      </trkpt>
      <trkpt lat="45.20325" lon="5.65012">
        <ele>857</ele>
        <time>2021-04-23T11:59:38.000Z</time>
      </trkpt>
      <trkpt lat="45.20325" lon="5.65015">
        <ele>857.2</ele>
        <time>2021-04-23T11:59:39.000Z</time>
      </trkpt>
      <trkpt lat="45.20325" lon="5.65018">
        <ele>857.2</ele>
        <time>2021-04-23T11:59:40.000Z</time>
      </trkpt>
      <trkpt lat="45.20326" lon="5.65021">
        <ele>857.4</ele>
        <time>2021-04-23T11:59:41.000Z</time>
      </trkpt>
      <trkpt lat="45.20327" lon="5.65024">
        <ele>857.6</ele>
        <time>2021-04-23T11:59:42.000Z</time>
      </trkpt>
      <trkpt lat="45.20327" lon="5.65026">
        <ele>857.8</ele>
        <time>2021-04-23T11:59:43.000Z</time>
      </trkpt>
      <trkpt lat="45.20328" lon="5.65029">
        <ele>858</ele>
        <time>2021-04-23T11:59:44.000Z</time>
      </trkpt>
      <trkpt lat="45.20328" lon="5.65032">
        <ele>858</ele>
        <time>2021-04-23T11:59:45.000Z</time>
      </trkpt>
      <trkpt lat="45.20329" lon="5.65035">
        <ele>858</ele>
        <time>2021-04-23T11:59:46.000Z</time>
      </trkpt>
      <trkpt lat="45.20329" lon="5.65037">
        <ele>858</ele>
        <time>2021-04-23T11:59:47.000Z</time>
      </trkpt>
      <trkpt lat="45.20328" lon="5.6504">
        <ele>858.2</ele>
        <time>2021-04-23T11:59:48.000Z</time>
      </trkpt>
      <trkpt lat="45.20328" lon="5.65043">
        <ele>858.2</ele>
        <time>2021-04-23T11:59:49.000Z</time>
      </trkpt>
      <trkpt lat="45.20328" lon="5.65046">
        <ele>858.2</ele>
        <time>2021-04-23T11:59:50.000Z</time>
      </trkpt>
      <trkpt lat="45.20327" lon="5.6505">
        <ele>858.4</ele>
        <time>2021-04-23T11:59:51.000Z</time>
      </trkpt>
      <trkpt lat="45.20326" lon="5.65053">
        <ele>858.4</ele>
        <time>2021-04-23T11:59:52.000Z</time>
      </trkpt>
      <trkpt lat="45.20324" lon="5.65056">
        <ele>858.2</ele>
        <time>2021-04-23T11:59:53.000Z</time>
      </trkpt>
      <trkpt lat="45.20322" lon="5.65058">
        <ele>858.2</ele>
        <time>2021-04-23T11:59:54.000Z</time>
      </trkpt>
      <trkpt lat="45.20321" lon="5.6506">
        <ele>858</ele>
        <time>2021-04-23T11:59:55.000Z</time>
      </trkpt>
      <trkpt lat="45.20319" lon="5.65063">
        <ele>858</ele>
        <time>2021-04-23T11:59:56.000Z</time>
      </trkpt>
      <trkpt lat="45.20318" lon="5.65065">
        <ele>858</ele>
        <time>2021-04-23T11:59:57.000Z</time>
      </trkpt>
      <trkpt lat="45.20317" lon="5.65068">
        <ele>857.8</ele>
        <time>2021-04-23T11:59:58.000Z</time>
      </trkpt>
      <trkpt lat="45.20316" lon="5.65069">
        <ele>857.8</ele>
        <time>2021-04-23T11:59:59.000Z</time>
      </trkpt>
      <trkpt lat="45.20315" lon="5.65071">
        <ele>858</ele>
        <time>2021-04-23T12:00:00.000Z</time>
      </trkpt>
      <trkpt lat="45.20314" lon="5.65072">
        <ele>858</ele>
        <time>2021-04-23T12:00:01.000Z</time>
      </trkpt>
      <trkpt lat="45.20312" lon="5.65076">
        <ele>858.2</ele>
        <time>2021-04-23T12:00:03.000Z</time>
      </trkpt>
      <trkpt lat="45.20268" lon="5.65109">
        <ele>858</ele>
      </trkpt>
      <trkpt lat="45.20248" lon="5.65152">
        <ele>857.7</ele>
      </trkpt>
      <trkpt lat="45.2023" lon="5.65227">
        <ele>851.1</ele>
      </trkpt>
      <trkpt lat="45.20203" lon="5.65225">
        <ele>859.2</ele>
      </trkpt>
      <trkpt lat="45.20213" lon="5.65178">
        <ele>867.3</ele>
      </trkpt>
      <trkpt lat="45.20195" lon="5.65088">
        <ele>889</ele>
      </trkpt>
      <trkpt lat="45.20199" lon="5.6494">
        <ele>885.4</ele>
      </trkpt>
      <trkpt lat="45.20178" lon="5.6491">
        <ele>891.1</ele>
      </trkpt>
      <trkpt lat="45.20163" lon="5.64955">
        <ele>901.2</ele>
      </trkpt>
      <trkpt lat="45.20148" lon="5.65086">
        <ele>909.3</ele>
      </trkpt>
      <trkpt lat="45.20129" lon="5.6509">
        <ele>915.5</ele>
      </trkpt>
      <trkpt lat="45.19995" lon="5.64762">
        <ele>968.1</ele>
      </trkpt>
      <trkpt lat="45.19955" lon="5.64708">
        <ele>971.1</ele>
      </trkpt>
      <trkpt lat="45.19926" lon="5.64719">
        <ele>982.1</ele>
      </trkpt>
      <trkpt lat="45.19758" lon="5.64607">
        <ele>1007.3</ele>
      </trkpt>
      <trkpt lat="45.19813" lon="5.647">
        <ele>1011.6</ele>
      </trkpt>
      <trkpt lat="45.19788" lon="5.64695">
        <ele>1015.8</ele>
      </trkpt>
      <trkpt lat="45.19623" lon="5.6475">
        <ele>1046.8</ele>
      </trkpt>
      <trkpt lat="45.19564" lon="5.64803">
        <ele>1061.8</ele>
      </trkpt>
      <trkpt lat="45.19391" lon="5.64761">
        <ele>1068.3</ele>
      </trkpt>
      <trkpt lat="45.19276" lon="5.64724">
        <ele>1073.2</ele>
      </trkpt>
      <trkpt lat="45.19086" lon="5.64757">
        <ele>1077.6</ele>
      </trkpt>
      <trkpt lat="45.18998" lon="5.64699">
        <ele>1089.3</ele>
      </trkpt>
      <trkpt lat="45.18888" lon="5.64714">
        <ele>1087.7</ele>
      </trkpt>
      <trkpt lat="45.18857" lon="5.64691">
        <ele>1089.5</ele>
      </trkpt>
      <trkpt lat="45.18833" lon="5.64636">
        <ele>1097.2</ele>
      </trkpt>
      <trkpt lat="45.18735" lon="5.64583">
        <ele>1094.8</ele>
      </trkpt>
      <trkpt lat="45.18542" lon="5.64484">
        <ele>1085.3</ele>
      </trkpt>
      <trkpt lat="45.18454" lon="5.64479">
        <ele>1081.7</ele>
      </trkpt>
      <trkpt lat="45.18086" lon="5.64405">
        <ele>1070.9</ele>
      </trkpt>
      <trkpt lat="45.1801" lon="5.64381">
        <ele>1068.9</ele>
      </trkpt>
      <trkpt lat="45.17956" lon="5.64321">
        <ele>1067</ele>
      </trkpt>
      <trkpt lat="45.17837" lon="5.64349">
        <ele>1058.4</ele>
      </trkpt>
      <trkpt lat="45.17717" lon="5.64304">
        <ele>1051.8</ele>
      </trkpt>
      <trkpt lat="45.17498" lon="5.64306">
        <ele>1042.9</ele>
      </trkpt>
      <trkpt lat="45.17443" lon="5.64301">
        <ele>1041.1</ele>
      </trkpt>
      <trkpt lat="45.17438" lon="5.6427">
        <ele>1043.7</ele>
      </trkpt>
      <trkpt lat="45.17428" lon="5.64275">
        <ele>1042.9</ele>
      </trkpt>
      <trkpt lat="45.17398" lon="5.64316">
        <ele>1039</ele>
      </trkpt>
      <trkpt lat="45.17306" lon="5.64365">
        <ele>1031.1</ele>
      </trkpt>
      <trkpt lat="45.17199" lon="5.64358">
        <ele>1033.3</ele>
      </trkpt>
      <trkpt lat="45.1717" lon="5.64322">
        <ele>1038.6</ele>
      </trkpt>
      <trkpt lat="45.17132" lon="5.643">
        <ele>1038.8</ele>
      </trkpt>
      <trkpt lat="45.17109" lon="5.64257">
        <ele>1042.4</ele>
      </trkpt>
      <trkpt lat="45.17051" lon="5.64221">
        <ele>1046.3</ele>
      </trkpt>
      <trkpt lat="45.16994" lon="5.64184">
        <ele>1054.3</ele>
      </trkpt>
      <trkpt lat="45.16959" lon="5.64197">
        <ele>1058.4</ele>
      </trkpt>
      <trkpt lat="45.1694" lon="5.64188">
        <ele>1062.9</ele>
      </trkpt>
      <trkpt lat="45.16949" lon="5.64163">
        <ele>1061.6</ele>
        <time>2021-04-23T08:26:44.000Z</time>
      </trkpt>
      <trkpt lat="45.1695" lon="5.6416">
        <ele>1061.8</ele>
        <time>2021-04-23T08:26:45.000Z</time>
      </trkpt>
      <trkpt lat="45.1695" lon="5.64158">
        <ele>1061.8</ele>
        <time>2021-04-23T08:26:46.000Z</time>
      </trkpt>
      <trkpt lat="45.16951" lon="5.64157">
        <ele>1062</ele>
        <time>2021-04-23T08:26:47.000Z</time>
      </trkpt>
      <trkpt lat="45.16952" lon="5.64155">
        <ele>1062</ele>
        <time>2021-04-23T08:26:48.000Z</time>
      </trkpt>
      <trkpt lat="45.16955" lon="5.64154">
        <ele>1062</ele>
        <time>2021-04-23T08:26:49.000Z</time>
      </trkpt>
      <trkpt lat="45.16958" lon="5.64152">
        <ele>1062.2</ele>
        <time>2021-04-23T08:26:50.000Z</time>
      </trkpt>
      <trkpt lat="45.16961" lon="5.6415">
        <ele>1062.2</ele>
        <time>2021-04-23T08:26:51.000Z</time>
      </trkpt>
      <trkpt lat="45.16964" lon="5.6415">
        <ele>1062.2</ele>
        <time>2021-04-23T08:26:52.000Z</time>
      </trkpt>
      <trkpt lat="45.16967" lon="5.64149">
        <ele>1062.4</ele>
        <time>2021-04-23T08:26:53.000Z</time>
      </trkpt>
      <trkpt lat="45.16969" lon="5.64148">
        <ele>1062.6</ele>
        <time>2021-04-23T08:26:54.000Z</time>
      </trkpt>
      <trkpt lat="45.16972" lon="5.64148">
        <ele>1062.6</ele>
        <time>2021-04-23T08:26:55.000Z</time>
      </trkpt>
      <trkpt lat="45.16976" lon="5.64147">
        <ele>1062.8</ele>
        <time>2021-04-23T08:26:56.000Z</time>
      </trkpt>
      <trkpt lat="45.16979" lon="5.64148">
        <ele>1063</ele>
        <time>2021-04-23T08:26:57.000Z</time>
      </trkpt>
      <trkpt lat="45.16982" lon="5.64147">
        <ele>1063.2</ele>
        <time>2021-04-23T08:26:58.000Z</time>
      </trkpt>
      <trkpt lat="45.16985" lon="5.64146">
        <ele>1063.2</ele>
        <time>2021-04-23T08:26:59.000Z</time>
      </trkpt>
      <trkpt lat="45.16988" lon="5.64147">
        <ele>1063.2</ele>
        <time>2021-04-23T08:27:00.000Z</time>
      </trkpt>
      <trkpt lat="45.16991" lon="5.64145">
        <ele>1063.4</ele>
        <time>2021-04-23T08:27:01.000Z</time>
      </trkpt>
      <trkpt lat="45.16994" lon="5.64144">
        <ele>1063.4</ele>
        <time>2021-04-23T08:27:02.000Z</time>
      </trkpt>
      <trkpt lat="45.16996" lon="5.64143">
        <ele>1063.6</ele>
        <time>2021-04-23T08:27:03.000Z</time>
      </trkpt>
      <trkpt lat="45.16999" lon="5.64142">
        <ele>1063.8</ele>
        <time>2021-04-23T08:27:04.000Z</time>
      </trkpt>
      <trkpt lat="45.17002" lon="5.64141">
        <ele>1063.8</ele>
        <time>2021-04-23T08:27:05.000Z</time>
      </trkpt>
      <trkpt lat="45.17004" lon="5.6414">
        <ele>1064</ele>
        <time>2021-04-23T08:27:06.000Z</time>
      </trkpt>
      <trkpt lat="45.17007" lon="5.64139">
        <ele>1064.2</ele>
        <time>2021-04-23T08:27:07.000Z</time>
      </trkpt>
      <trkpt lat="45.17009" lon="5.64139">
        <ele>1064.4</ele>
        <time>2021-04-23T08:27:08.000Z</time>
      </trkpt>
      <trkpt lat="45.17011" lon="5.64138">
        <ele>1064.6</ele>
        <time>2021-04-23T08:27:09.000Z</time>
      </trkpt>
      <trkpt lat="45.17013" lon="5.64138">
        <ele>1064.6</ele>
        <time>2021-04-23T08:27:10.000Z</time>
      </trkpt>
      <trkpt lat="45.17016" lon="5.64137">
        <ele>1064.8</ele>
        <time>2021-04-23T08:27:11.000Z</time>
      </trkpt>
      <trkpt lat="45.17018" lon="5.64137">
        <ele>1064.8</ele>
        <time>2021-04-23T08:27:12.000Z</time>
      </trkpt>
      <trkpt lat="45.1702" lon="5.64136">
        <ele>1065</ele>
        <time>2021-04-23T08:27:13.000Z</time>
      </trkpt>
      <trkpt lat="45.17023" lon="5.64135">
        <ele>1065.2</ele>
        <time>2021-04-23T08:27:14.000Z</time>
      </trkpt>
      <trkpt lat="45.17025" lon="5.64134">
        <ele>1065.4</ele>
        <time>2021-04-23T08:27:15.000Z</time>
      </trkpt>
      <trkpt lat="45.17028" lon="5.64133">
        <ele>1065.4</ele>
        <time>2021-04-23T08:27:16.000Z</time>
      </trkpt>
      <trkpt lat="45.1703" lon="5.64132">
        <ele>1065.6</ele>
        <time>2021-04-23T08:27:17.000Z</time>
      </trkpt>
      <trkpt lat="45.17033" lon="5.64131">
        <ele>1065.6</ele>
        <time>2021-04-23T08:27:18.000Z</time>
      </trkpt>
      <trkpt lat="45.17035" lon="5.6413">
        <ele>1065.8</ele>
        <time>2021-04-23T08:27:19.000Z</time>
      </trkpt>
      <trkpt lat="45.17037" lon="5.64129">
        <ele>1065.8</ele>
        <time>2021-04-23T08:27:20.000Z</time>
      </trkpt>
      <trkpt lat="45.17039" lon="5.64128">
        <ele>1066</ele>
        <time>2021-04-23T08:27:21.000Z</time>
      </trkpt>
      <trkpt lat="45.17041" lon="5.64127">
        <ele>1066.2</ele>
        <time>2021-04-23T08:27:22.000Z</time>
      </trkpt>
      <trkpt lat="45.17044" lon="5.64125">
        <ele>1066.4</ele>
        <time>2021-04-23T08:27:23.000Z</time>
      </trkpt>
      <trkpt lat="45.17046" lon="5.64124">
        <ele>1066.6</ele>
        <time>2021-04-23T08:27:24.000Z</time>
      </trkpt>
      <trkpt lat="45.17048" lon="5.64123">
        <ele>1066.8</ele>
        <time>2021-04-23T08:27:25.000Z</time>
      </trkpt>
      <trkpt lat="45.1705" lon="5.64121">
        <ele>1066.8</ele>
        <time>2021-04-23T08:27:26.000Z</time>
      </trkpt>
      <trkpt lat="45.17053" lon="5.6412">
        <ele>1067</ele>
        <time>2021-04-23T08:27:27.000Z</time>
      </trkpt>
      <trkpt lat="45.17055" lon="5.64118">
        <ele>1067.2</ele>
        <time>2021-04-23T08:27:28.000Z</time>
      </trkpt>
      <trkpt lat="45.17057" lon="5.64116">
        <ele>1067.2</ele>
        <time>2021-04-23T08:27:29.000Z</time>
      </trkpt>
      <trkpt lat="45.17059" lon="5.64114">
        <ele>1067.4</ele>
        <time>2021-04-23T08:27:30.000Z</time>
      </trkpt>
      <trkpt lat="45.17061" lon="5.64112">
        <ele>1067.4</ele>
        <time>2021-04-23T08:27:31.000Z</time>
      </trkpt>
      <trkpt lat="45.17063" lon="5.64109">
        <ele>1067.6</ele>
        <time>2021-04-23T08:27:32.000Z</time>
      </trkpt>
      <trkpt lat="45.17065" lon="5.64107">
        <ele>1067.6</ele>
        <time>2021-04-23T08:27:33.000Z</time>
      </trkpt>
      <trkpt lat="45.17067" lon="5.64105">
        <ele>1067.8</ele>
        <time>2021-04-23T08:27:34.000Z</time>
      </trkpt>
      <trkpt lat="45.17068" lon="5.64102">
        <ele>1067.8</ele>
        <time>2021-04-23T08:27:35.000Z</time>
      </trkpt>
      <trkpt lat="45.1707" lon="5.64099">
        <ele>1068</ele>
        <time>2021-04-23T08:27:36.000Z</time>
      </trkpt>
      <trkpt lat="45.17072" lon="5.64096">
        <ele>1068</ele>
        <time>2021-04-23T08:27:37.000Z</time>
      </trkpt>
      <trkpt lat="45.17073" lon="5.64092">
        <ele>1068.2</ele>
        <time>2021-04-23T08:27:38.000Z</time>
      </trkpt>
      <trkpt lat="45.17075" lon="5.64089">
        <ele>1068.2</ele>
        <time>2021-04-23T08:27:39.000Z</time>
      </trkpt>
      <trkpt lat="45.17076" lon="5.64086">
        <ele>1068.4</ele>
        <time>2021-04-23T08:27:40.000Z</time>
      </trkpt>
      <trkpt lat="45.17077" lon="5.64082">
        <ele>1068.4</ele>
        <time>2021-04-23T08:27:41.000Z</time>
      </trkpt>
      <trkpt lat="45.17079" lon="5.64079">
        <ele>1068.6</ele>
        <time>2021-04-23T08:27:42.000Z</time>
      </trkpt>
      <trkpt lat="45.1708" lon="5.64075">
        <ele>1068.8</ele>
        <time>2021-04-23T08:27:43.000Z</time>
      </trkpt>
      <trkpt lat="45.17081" lon="5.64072">
        <ele>1068.8</ele>
        <time>2021-04-23T08:27:44.000Z</time>
      </trkpt>
      <trkpt lat="45.17082" lon="5.64069">
        <ele>1069</ele>
        <time>2021-04-23T08:27:45.000Z</time>
      </trkpt>
      <trkpt lat="45.17083" lon="5.64066">
        <ele>1069.2</ele>
        <time>2021-04-23T08:27:46.000Z</time>
      </trkpt>
      <trkpt lat="45.17084" lon="5.64063">
        <ele>1069.4</ele>
        <time>2021-04-23T08:27:47.000Z</time>
      </trkpt>
      <trkpt lat="45.17086" lon="5.64059">
        <ele>1069.4</ele>
        <time>2021-04-23T08:27:48.000Z</time>
      </trkpt>
      <trkpt lat="45.17087" lon="5.64055">
        <ele>1069.6</ele>
        <time>2021-04-23T08:27:49.000Z</time>
      </trkpt>
      <trkpt lat="45.17089" lon="5.64051">
        <ele>1069.8</ele>
        <time>2021-04-23T08:27:50.000Z</time>
      </trkpt>
      <trkpt lat="45.1709" lon="5.64048">
        <ele>1070</ele>
        <time>2021-04-23T08:27:51.000Z</time>
      </trkpt>
      <trkpt lat="45.17091" lon="5.64045">
        <ele>1070.2</ele>
        <time>2021-04-23T08:27:52.000Z</time>
      </trkpt>
      <trkpt lat="45.17093" lon="5.64041">
        <ele>1070.2</ele>
        <time>2021-04-23T08:27:53.000Z</time>
      </trkpt>
      <trkpt lat="45.17094" lon="5.64037">
        <ele>1070.4</ele>
        <time>2021-04-23T08:27:54.000Z</time>
      </trkpt>
      <trkpt lat="45.17096" lon="5.64034">
        <ele>1070.6</ele>
        <time>2021-04-23T08:27:55.000Z</time>
      </trkpt>
      <trkpt lat="45.17097" lon="5.6403">
        <ele>1070.8</ele>
        <time>2021-04-23T08:27:56.000Z</time>
      </trkpt>
      <trkpt lat="45.17099" lon="5.64027">
        <ele>1071.2</ele>
        <time>2021-04-23T08:27:57.000Z</time>
      </trkpt>
      <trkpt lat="45.171" lon="5.64023">
        <ele>1071.4</ele>
        <time>2021-04-23T08:27:58.000Z</time>
      </trkpt>
      <trkpt lat="45.17101" lon="5.6402">
        <ele>1071.6</ele>
        <time>2021-04-23T08:27:59.000Z</time>
      </trkpt>
      <trkpt lat="45.17102" lon="5.64016">
        <ele>1071.6</ele>
        <time>2021-04-23T08:28:00.000Z</time>
      </trkpt>
      <trkpt lat="45.17104" lon="5.64012">
        <ele>1072</ele>
        <time>2021-04-23T08:28:01.000Z</time>
      </trkpt>
      <trkpt lat="45.17105" lon="5.64008">
        <ele>1072.2</ele>
        <time>2021-04-23T08:28:02.000Z</time>
      </trkpt>
      <trkpt lat="45.17107" lon="5.64005">
        <ele>1072.4</ele>
        <time>2021-04-23T08:28:03.000Z</time>
      </trkpt>
      <trkpt lat="45.17109" lon="5.64001">
        <ele>1072.4</ele>
        <time>2021-04-23T08:28:04.000Z</time>
      </trkpt>
      <trkpt lat="45.17111" lon="5.63998">
        <ele>1072.6</ele>
        <time>2021-04-23T08:28:05.000Z</time>
      </trkpt>
      <trkpt lat="45.17113" lon="5.63994">
        <ele>1073</ele>
        <time>2021-04-23T08:28:06.000Z</time>
      </trkpt>
      <trkpt lat="45.17115" lon="5.63991">
        <ele>1073.2</ele>
        <time>2021-04-23T08:28:07.000Z</time>
      </trkpt>
      <trkpt lat="45.17116" lon="5.63987">
        <ele>1073.4</ele>
        <time>2021-04-23T08:28:08.000Z</time>
      </trkpt>
      <trkpt lat="45.17118" lon="5.63984">
        <ele>1073.6</ele>
        <time>2021-04-23T08:28:09.000Z</time>
      </trkpt>
      <trkpt lat="45.1712" lon="5.63981">
        <ele>1073.8</ele>
        <time>2021-04-23T08:28:10.000Z</time>
      </trkpt>
      <trkpt lat="45.17121" lon="5.63978">
        <ele>1073.8</ele>
        <time>2021-04-23T08:28:11.000Z</time>
      </trkpt>
      <trkpt lat="45.17123" lon="5.63974">
        <ele>1074</ele>
        <time>2021-04-23T08:28:12.000Z</time>
      </trkpt>
      <trkpt lat="45.17125" lon="5.63971">
        <ele>1074.2</ele>
        <time>2021-04-23T08:28:13.000Z</time>
      </trkpt>
      <trkpt lat="45.17127" lon="5.63968">
        <ele>1074.6</ele>
        <time>2021-04-23T08:28:14.000Z</time>
      </trkpt>
      <trkpt lat="45.17129" lon="5.63966">
        <ele>1074.8</ele>
        <time>2021-04-23T08:28:15.000Z</time>
      </trkpt>
      <trkpt lat="45.17131" lon="5.63963">
        <ele>1075</ele>
        <time>2021-04-23T08:28:16.000Z</time>
      </trkpt>
      <trkpt lat="45.17132" lon="5.63962">
        <ele>1075.2</ele>
        <time>2021-04-23T08:28:17.000Z</time>
      </trkpt>
      <trkpt lat="45.17134" lon="5.63959">
        <ele>1075.4</ele>
        <time>2021-04-23T08:28:18.000Z</time>
      </trkpt>
      <trkpt lat="45.17136" lon="5.63957">
        <ele>1075.8</ele>
        <time>2021-04-23T08:28:19.000Z</time>
      </trkpt>
      <trkpt lat="45.17138" lon="5.63955">
        <ele>1076</ele>
        <time>2021-04-23T08:28:20.000Z</time>
      </trkpt>
      <trkpt lat="45.17139" lon="5.63954">
        <ele>1076</ele>
        <time>2021-04-23T08:28:21.000Z</time>
      </trkpt>
      <trkpt lat="45.17141" lon="5.63953">
        <ele>1076.4</ele>
        <time>2021-04-23T08:28:22.000Z</time>
      </trkpt>
      <trkpt lat="45.17143" lon="5.63951">
        <ele>1076.8</ele>
        <time>2021-04-23T08:28:23.000Z</time>
      </trkpt>
      <trkpt lat="45.17145" lon="5.63949">
        <ele>1076.8</ele>
        <time>2021-04-23T08:28:24.000Z</time>
      </trkpt>
      <trkpt lat="45.17147" lon="5.63947">
        <ele>1077.2</ele>
        <time>2021-04-23T08:28:25.000Z</time>
      </trkpt>
      <trkpt lat="45.17148" lon="5.63946">
        <ele>1077.4</ele>
        <time>2021-04-23T08:28:26.000Z</time>
      </trkpt>
      <trkpt lat="45.17151" lon="5.63944">
        <ele>1077.8</ele>
        <time>2021-04-23T08:28:27.000Z</time>
      </trkpt>
      <trkpt lat="45.17153" lon="5.63942">
        <ele>1078</ele>
        <time>2021-04-23T08:28:28.000Z</time>
      </trkpt>
      <trkpt lat="45.17155" lon="5.6394">
        <ele>1078.2</ele>
        <time>2021-04-23T08:28:29.000Z</time>
      </trkpt>
      <trkpt lat="45.17157" lon="5.63937">
        <ele>1078.6</ele>
        <time>2021-04-23T08:28:30.000Z</time>
      </trkpt>
      <trkpt lat="45.17159" lon="5.63935">
        <ele>1078.8</ele>
        <time>2021-04-23T08:28:31.000Z</time>
      </trkpt>
      <trkpt lat="45.17162" lon="5.63933">
        <ele>1079</ele>
        <time>2021-04-23T08:28:32.000Z</time>
      </trkpt>
      <trkpt lat="45.17164" lon="5.6393">
        <ele>1079.2</ele>
        <time>2021-04-23T08:28:33.000Z</time>
      </trkpt>
      <trkpt lat="45.17166" lon="5.63927">
        <ele>1079.4</ele>
        <time>2021-04-23T08:28:34.000Z</time>
      </trkpt>
      <trkpt lat="45.17168" lon="5.63925">
        <ele>1079.6</ele>
        <time>2021-04-23T08:28:35.000Z</time>
      </trkpt>
      <trkpt lat="45.1717" lon="5.63923">
        <ele>1079.8</ele>
        <time>2021-04-23T08:28:36.000Z</time>
      </trkpt>
      <trkpt lat="45.17171" lon="5.63921">
        <ele>1080</ele>
        <time>2021-04-23T08:28:37.000Z</time>
      </trkpt>
      <trkpt lat="45.17198" lon="5.63885">
        <ele>1075.4</ele>
      </trkpt>
      <trkpt lat="45.17159" lon="5.6388">
        <ele>1081.4</ele>
        <time>2021-04-23T08:38:52.000Z</time>
      </trkpt>
      <trkpt lat="45.17157" lon="5.6388">
        <ele>1081.6</ele>
        <time>2021-04-23T08:38:53.000Z</time>
      </trkpt>
      <trkpt lat="45.17154" lon="5.6388">
        <ele>1081.8</ele>
        <time>2021-04-23T08:38:54.000Z</time>
      </trkpt>
      <trkpt lat="45.17151" lon="5.63881">
        <ele>1082</ele>
        <time>2021-04-23T08:38:55.000Z</time>
      </trkpt>
      <trkpt lat="45.17149" lon="5.63881">
        <ele>1082</ele>
        <time>2021-04-23T08:38:56.000Z</time>
      </trkpt>
      <trkpt lat="45.17146" lon="5.63881">
        <ele>1082.2</ele>
        <time>2021-04-23T08:38:57.000Z</time>
      </trkpt>
      <trkpt lat="45.17143" lon="5.63881">
        <ele>1082.2</ele>
        <time>2021-04-23T08:38:58.000Z</time>
      </trkpt>
      <trkpt lat="45.17141" lon="5.63881">
        <ele>1082.4</ele>
        <time>2021-04-23T08:38:59.000Z</time>
      </trkpt>
      <trkpt lat="45.17138" lon="5.63881">
        <ele>1082.4</ele>
        <time>2021-04-23T08:39:00.000Z</time>
      </trkpt>
      <trkpt lat="45.17135" lon="5.63881">
        <ele>1082.6</ele>
        <time>2021-04-23T08:39:01.000Z</time>
      </trkpt>
      <trkpt lat="45.17132" lon="5.6388">
        <ele>1082.6</ele>
        <time>2021-04-23T08:39:02.000Z</time>
      </trkpt>
      <trkpt lat="45.1713" lon="5.63881">
        <ele>1083</ele>
        <time>2021-04-23T08:39:03.000Z</time>
      </trkpt>
      <trkpt lat="45.17127" lon="5.63881">
        <ele>1083.2</ele>
        <time>2021-04-23T08:39:04.000Z</time>
      </trkpt>
      <trkpt lat="45.17124" lon="5.63881">
        <ele>1083.4</ele>
        <time>2021-04-23T08:39:05.000Z</time>
      </trkpt>
      <trkpt lat="45.17122" lon="5.63881">
        <ele>1083.4</ele>
        <time>2021-04-23T08:39:06.000Z</time>
      </trkpt>
      <trkpt lat="45.17119" lon="5.63881">
        <ele>1083.6</ele>
        <time>2021-04-23T08:39:07.000Z</time>
      </trkpt>
      <trkpt lat="45.17117" lon="5.63881">
        <ele>1083.8</ele>
        <time>2021-04-23T08:39:08.000Z</time>
      </trkpt>
      <trkpt lat="45.17114" lon="5.63882">
        <ele>1084</ele>
        <time>2021-04-23T08:39:09.000Z</time>
      </trkpt>
      <trkpt lat="45.17112" lon="5.63882">
        <ele>1084.2</ele>
        <time>2021-04-23T08:39:10.000Z</time>
      </trkpt>
      <trkpt lat="45.17109" lon="5.63882">
        <ele>1084.4</ele>
        <time>2021-04-23T08:39:11.000Z</time>
      </trkpt>
      <trkpt lat="45.17106" lon="5.63882">
        <ele>1084.6</ele>
        <time>2021-04-23T08:39:12.000Z</time>
      </trkpt>
      <trkpt lat="45.17104" lon="5.63882">
        <ele>1084.6</ele>
        <time>2021-04-23T08:39:13.000Z</time>
      </trkpt>
      <trkpt lat="45.17101" lon="5.63883">
        <ele>1084.6</ele>
        <time>2021-04-23T08:39:14.000Z</time>
      </trkpt>
      <trkpt lat="45.17098" lon="5.63883">
        <ele>1084.8</ele>
        <time>2021-04-23T08:39:15.000Z</time>
      </trkpt>
      <trkpt lat="45.17096" lon="5.63884">
        <ele>1084.8</ele>
        <time>2021-04-23T08:39:16.000Z</time>
      </trkpt>
      <trkpt lat="45.17094" lon="5.63883">
        <ele>1085</ele>
        <time>2021-04-23T08:39:17.000Z</time>
      </trkpt>
      <trkpt lat="45.17091" lon="5.63883">
        <ele>1085.2</ele>
        <time>2021-04-23T08:39:18.000Z</time>
      </trkpt>
      <trkpt lat="45.17089" lon="5.63882">
        <ele>1085.4</ele>
        <time>2021-04-23T08:39:19.000Z</time>
      </trkpt>
      <trkpt lat="45.17087" lon="5.63883">
        <ele>1085.6</ele>
        <time>2021-04-23T08:39:20.000Z</time>
      </trkpt>
      <trkpt lat="45.17085" lon="5.63883">
        <ele>1085.8</ele>
        <time>2021-04-23T08:39:21.000Z</time>
      </trkpt>
      <trkpt lat="45.17083" lon="5.63884">
        <ele>1086</ele>
        <time>2021-04-23T08:39:22.000Z</time>
      </trkpt>
      <trkpt lat="45.1708" lon="5.63884">
        <ele>1086.2</ele>
        <time>2021-04-23T08:39:23.000Z</time>
      </trkpt>
      <trkpt lat="45.17078" lon="5.63885">
        <ele>1086.4</ele>
        <time>2021-04-23T08:39:24.000Z</time>
      </trkpt>
      <trkpt lat="45.17075" lon="5.63886">
        <ele>1086.6</ele>
        <time>2021-04-23T08:39:25.000Z</time>
      </trkpt>
      <trkpt lat="45.17073" lon="5.63886">
        <ele>1086.8</ele>
        <time>2021-04-23T08:39:26.000Z</time>
      </trkpt>
      <trkpt lat="45.17071" lon="5.63886">
        <ele>1086.8</ele>
        <time>2021-04-23T08:39:27.000Z</time>
      </trkpt>
      <trkpt lat="45.17069" lon="5.63887">
        <ele>1087</ele>
        <time>2021-04-23T08:39:28.000Z</time>
      </trkpt>
      <trkpt lat="45.17067" lon="5.63887">
        <ele>1087</ele>
        <time>2021-04-23T08:39:29.000Z</time>
      </trkpt>
      <trkpt lat="45.17065" lon="5.63888">
        <ele>1087.2</ele>
        <time>2021-04-23T08:39:30.000Z</time>
      </trkpt>
      <trkpt lat="45.17063" lon="5.63889">
        <ele>1087.4</ele>
        <time>2021-04-23T08:39:31.000Z</time>
      </trkpt>
      <trkpt lat="45.17061" lon="5.6389">
        <ele>1087.4</ele>
        <time>2021-04-23T08:39:32.000Z</time>
      </trkpt>
      <trkpt lat="45.17059" lon="5.63891">
        <ele>1087.4</ele>
        <time>2021-04-23T08:39:33.000Z</time>
      </trkpt>
      <trkpt lat="45.17057" lon="5.63891">
        <ele>1087.6</ele>
        <time>2021-04-23T08:39:34.000Z</time>
      </trkpt>
      <trkpt lat="45.17056" lon="5.6389">
        <ele>1087.6</ele>
        <time>2021-04-23T08:39:35.000Z</time>
      </trkpt>
      <trkpt lat="45.17054" lon="5.63889">
        <ele>1087.8</ele>
        <time>2021-04-23T08:39:36.000Z</time>
      </trkpt>
      <trkpt lat="45.17051" lon="5.63889">
        <ele>1088</ele>
        <time>2021-04-23T08:39:37.000Z</time>
      </trkpt>
      <trkpt lat="45.17048" lon="5.63889">
        <ele>1088</ele>
        <time>2021-04-23T08:39:38.000Z</time>
      </trkpt>
      <trkpt lat="45.17046" lon="5.63889">
        <ele>1088.2</ele>
        <time>2021-04-23T08:39:39.000Z</time>
      </trkpt>
      <trkpt lat="45.17043" lon="5.63889">
        <ele>1088.4</ele>
        <time>2021-04-23T08:39:40.000Z</time>
      </trkpt>
      <trkpt lat="45.17041" lon="5.63889">
        <ele>1088.4</ele>
        <time>2021-04-23T08:39:41.000Z</time>
      </trkpt>
      <trkpt lat="45.17038" lon="5.63889">
        <ele>1088.8</ele>
        <time>2021-04-23T08:39:42.000Z</time>
      </trkpt>
      <trkpt lat="45.17036" lon="5.6389">
        <ele>1088.8</ele>
        <time>2021-04-23T08:39:43.000Z</time>
      </trkpt>
      <trkpt lat="45.17033" lon="5.6389">
        <ele>1089</ele>
        <time>2021-04-23T08:39:44.000Z</time>
      </trkpt>
      <trkpt lat="45.17031" lon="5.63891">
        <ele>1089.2</ele>
        <time>2021-04-23T08:39:45.000Z</time>
      </trkpt>
      <trkpt lat="45.17029" lon="5.63891">
        <ele>1089.2</ele>
        <time>2021-04-23T08:39:46.000Z</time>
      </trkpt>
      <trkpt lat="45.17026" lon="5.63891">
        <ele>1089.4</ele>
        <time>2021-04-23T08:39:47.000Z</time>
      </trkpt>
      <trkpt lat="45.17024" lon="5.63892">
        <ele>1089.4</ele>
        <time>2021-04-23T08:39:48.000Z</time>
      </trkpt>
      <trkpt lat="45.17021" lon="5.63892">
        <ele>1089.6</ele>
        <time>2021-04-23T08:39:49.000Z</time>
      </trkpt>
      <trkpt lat="45.17019" lon="5.63892">
        <ele>1089.8</ele>
        <time>2021-04-23T08:39:50.000Z</time>
      </trkpt>
      <trkpt lat="45.17016" lon="5.63893">
        <ele>1089.8</ele>
        <time>2021-04-23T08:39:51.000Z</time>
      </trkpt>
      <trkpt lat="45.17013" lon="5.63893">
        <ele>1090.2</ele>
        <time>2021-04-23T08:39:52.000Z</time>
      </trkpt>
      <trkpt lat="45.17011" lon="5.63893">
        <ele>1090.4</ele>
        <time>2021-04-23T08:39:53.000Z</time>
      </trkpt>
      <trkpt lat="45.17008" lon="5.63894">
        <ele>1090.4</ele>
        <time>2021-04-23T08:39:54.000Z</time>
      </trkpt>
      <trkpt lat="45.17006" lon="5.63894">
        <ele>1090.6</ele>
        <time>2021-04-23T08:39:55.000Z</time>
      </trkpt>
      <trkpt lat="45.17004" lon="5.63895">
        <ele>1090.8</ele>
        <time>2021-04-23T08:39:56.000Z</time>
      </trkpt>
      <trkpt lat="45.17002" lon="5.63895">
        <ele>1090.8</ele>
        <time>2021-04-23T08:39:57.000Z</time>
      </trkpt>
      <trkpt lat="45.16999" lon="5.63896">
        <ele>1091.2</ele>
        <time>2021-04-23T08:39:58.000Z</time>
      </trkpt>
      <trkpt lat="45.16997" lon="5.63897">
        <ele>1091.4</ele>
        <time>2021-04-23T08:39:59.000Z</time>
      </trkpt>
      <trkpt lat="45.16995" lon="5.63898">
        <ele>1091.4</ele>
        <time>2021-04-23T08:40:00.000Z</time>
      </trkpt>
      <trkpt lat="45.16992" lon="5.63899">
        <ele>1091.4</ele>
        <time>2021-04-23T08:40:01.000Z</time>
      </trkpt>
      <trkpt lat="45.1699" lon="5.63899">
        <ele>1091.6</ele>
        <time>2021-04-23T08:40:02.000Z</time>
      </trkpt>
      <trkpt lat="45.16987" lon="5.639">
        <ele>1091.6</ele>
        <time>2021-04-23T08:40:03.000Z</time>
      </trkpt>
      <trkpt lat="45.16985" lon="5.639">
        <ele>1091.6</ele>
        <time>2021-04-23T08:40:04.000Z</time>
      </trkpt>
      <trkpt lat="45.16982" lon="5.63901">
        <ele>1092</ele>
        <time>2021-04-23T08:40:05.000Z</time>
      </trkpt>
      <trkpt lat="45.1698" lon="5.63902">
        <ele>1092</ele>
        <time>2021-04-23T08:40:06.000Z</time>
      </trkpt>
      <trkpt lat="45.16977" lon="5.63903">
        <ele>1092.2</ele>
        <time>2021-04-23T08:40:07.000Z</time>
      </trkpt>
      <trkpt lat="45.16975" lon="5.63904">
        <ele>1092.4</ele>
        <time>2021-04-23T08:40:08.000Z</time>
      </trkpt>
      <trkpt lat="45.16973" lon="5.63906">
        <ele>1092.6</ele>
        <time>2021-04-23T08:40:09.000Z</time>
      </trkpt>
      <trkpt lat="45.1697" lon="5.63906">
        <ele>1092.6</ele>
        <time>2021-04-23T08:40:10.000Z</time>
      </trkpt>
      <trkpt lat="45.16968" lon="5.63907">
        <ele>1092.8</ele>
        <time>2021-04-23T08:40:11.000Z</time>
      </trkpt>
      <trkpt lat="45.16965" lon="5.63908">
        <ele>1093</ele>
        <time>2021-04-23T08:40:12.000Z</time>
      </trkpt>
      <trkpt lat="45.16962" lon="5.63909">
        <ele>1093</ele>
        <time>2021-04-23T08:40:13.000Z</time>
      </trkpt>
      <trkpt lat="45.1696" lon="5.63911">
        <ele>1093.2</ele>
        <time>2021-04-23T08:40:14.000Z</time>
      </trkpt>
      <trkpt lat="45.16957" lon="5.63912">
        <ele>1093.2</ele>
        <time>2021-04-23T08:40:15.000Z</time>
      </trkpt>
      <trkpt lat="45.16954" lon="5.63914">
        <ele>1093.4</ele>
        <time>2021-04-23T08:40:16.000Z</time>
      </trkpt>
      <trkpt lat="45.16952" lon="5.63915">
        <ele>1093.6</ele>
        <time>2021-04-23T08:40:17.000Z</time>
      </trkpt>
      <trkpt lat="45.16949" lon="5.63917">
        <ele>1093.6</ele>
        <time>2021-04-23T08:40:18.000Z</time>
      </trkpt>
      <trkpt lat="45.16946" lon="5.63918">
        <ele>1093.8</ele>
        <time>2021-04-23T08:40:19.000Z</time>
      </trkpt>
      <trkpt lat="45.16943" lon="5.63919">
        <ele>1094</ele>
        <time>2021-04-23T08:40:20.000Z</time>
      </trkpt>
      <trkpt lat="45.16941" lon="5.63921">
        <ele>1094</ele>
        <time>2021-04-23T08:40:21.000Z</time>
      </trkpt>
      <trkpt lat="45.16938" lon="5.63922">
        <ele>1094.2</ele>
        <time>2021-04-23T08:40:22.000Z</time>
      </trkpt>
      <trkpt lat="45.16935" lon="5.63924">
        <ele>1094.4</ele>
        <time>2021-04-23T08:40:23.000Z</time>
      </trkpt>
      <trkpt lat="45.16933" lon="5.63925">
        <ele>1094.4</ele>
        <time>2021-04-23T08:40:24.000Z</time>
      </trkpt>
      <trkpt lat="45.1693" lon="5.63926">
        <ele>1094.6</ele>
        <time>2021-04-23T08:40:25.000Z</time>
      </trkpt>
      <trkpt lat="45.16928" lon="5.63928">
        <ele>1094.6</ele>
        <time>2021-04-23T08:40:26.000Z</time>
      </trkpt>
      <trkpt lat="45.16925" lon="5.6393">
        <ele>1094.8</ele>
        <time>2021-04-23T08:40:27.000Z</time>
      </trkpt>
      <trkpt lat="45.16923" lon="5.63932">
        <ele>1095</ele>
        <time>2021-04-23T08:40:28.000Z</time>
      </trkpt>
      <trkpt lat="45.16921" lon="5.63933">
        <ele>1095.2</ele>
        <time>2021-04-23T08:40:29.000Z</time>
      </trkpt>
      <trkpt lat="45.16918" lon="5.63935">
        <ele>1095.2</ele>
        <time>2021-04-23T08:40:30.000Z</time>
      </trkpt>
      <trkpt lat="45.16916" lon="5.63936">
        <ele>1095.4</ele>
        <time>2021-04-23T08:40:31.000Z</time>
      </trkpt>
      <trkpt lat="45.16913" lon="5.63937">
        <ele>1095.4</ele>
        <time>2021-04-23T08:40:32.000Z</time>
      </trkpt>
      <trkpt lat="45.16911" lon="5.63938">
        <ele>1095.6</ele>
        <time>2021-04-23T08:40:33.000Z</time>
      </trkpt>
      <trkpt lat="45.16908" lon="5.6394">
        <ele>1095.6</ele>
        <time>2021-04-23T08:40:34.000Z</time>
      </trkpt>
      <trkpt lat="45.16904" lon="5.63942">
        <ele>1095.6</ele>
        <time>2021-04-23T08:40:35.000Z</time>
      </trkpt>
      <trkpt lat="45.16901" lon="5.63943">
        <ele>1095.6</ele>
        <time>2021-04-23T08:40:36.000Z</time>
      </trkpt>
      <trkpt lat="45.16898" lon="5.63945">
        <ele>1095.6</ele>
        <time>2021-04-23T08:40:37.000Z</time>
      </trkpt>
      <trkpt lat="45.16896" lon="5.63947">
        <ele>1095.8</ele>
        <time>2021-04-23T08:40:38.000Z</time>
      </trkpt>
      <trkpt lat="45.16893" lon="5.63948">
        <ele>1095.8</ele>
        <time>2021-04-23T08:40:39.000Z</time>
      </trkpt>
      <trkpt lat="45.1689" lon="5.6395">
        <ele>1095.8</ele>
        <time>2021-04-23T08:40:40.000Z</time>
      </trkpt>
      <trkpt lat="45.16886" lon="5.63951">
        <ele>1095.8</ele>
        <time>2021-04-23T08:40:41.000Z</time>
      </trkpt>
      <trkpt lat="45.16883" lon="5.63952">
        <ele>1096</ele>
        <time>2021-04-23T08:40:42.000Z</time>
      </trkpt>
      <trkpt lat="45.1688" lon="5.63953">
        <ele>1096</ele>
        <time>2021-04-23T08:40:43.000Z</time>
      </trkpt>
      <trkpt lat="45.16877" lon="5.63954">
        <ele>1096</ele>
        <time>2021-04-23T08:40:44.000Z</time>
      </trkpt>
      <trkpt lat="45.16869" lon="5.63958">
        <ele>1096</ele>
        <time>2021-04-23T08:40:47.000Z</time>
      </trkpt>
      <trkpt lat="45.16866" lon="5.63959">
        <ele>1096</ele>
        <time>2021-04-23T08:40:48.000Z</time>
      </trkpt>
      <trkpt lat="45.16863" lon="5.63961">
        <ele>1096.2</ele>
        <time>2021-04-23T08:40:49.000Z</time>
      </trkpt>
      <trkpt lat="45.16858" lon="5.63962">
        <ele>1096.2</ele>
        <time>2021-04-23T08:40:51.000Z</time>
      </trkpt>
      <trkpt lat="45.16855" lon="5.63962">
        <ele>1096.4</ele>
        <time>2021-04-23T08:40:52.000Z</time>
      </trkpt>
      <trkpt lat="45.16852" lon="5.63961">
        <ele>1096.4</ele>
        <time>2021-04-23T08:40:53.000Z</time>
      </trkpt>
      <trkpt lat="45.1685" lon="5.6396">
        <ele>1096.6</ele>
        <time>2021-04-23T08:40:54.000Z</time>
      </trkpt>
      <trkpt lat="45.16848" lon="5.63958">
        <ele>1096.6</ele>
        <time>2021-04-23T08:40:55.000Z</time>
      </trkpt>
      <trkpt lat="45.16846" lon="5.63956">
        <ele>1096.8</ele>
        <time>2021-04-23T08:40:56.000Z</time>
      </trkpt>
      <trkpt lat="45.16843" lon="5.63953">
        <ele>1096.8</ele>
        <time>2021-04-23T08:40:57.000Z</time>
      </trkpt>
      <trkpt lat="45.16838" lon="5.63947">
        <ele>1096.8</ele>
        <time>2021-04-23T08:40:59.000Z</time>
      </trkpt>
      <trkpt lat="45.16835" lon="5.63944">
        <ele>1097</ele>
        <time>2021-04-23T08:41:00.000Z</time>
      </trkpt>
      <trkpt lat="45.16833" lon="5.63942">
        <ele>1097.2</ele>
        <time>2021-04-23T08:41:01.000Z</time>
      </trkpt>
      <trkpt lat="45.16831" lon="5.63941">
        <ele>1097.6</ele>
        <time>2021-04-23T08:41:02.000Z</time>
      </trkpt>
      <trkpt lat="45.16828" lon="5.6394">
        <ele>1097.8</ele>
        <time>2021-04-23T08:41:03.000Z</time>
      </trkpt>
      <trkpt lat="45.16825" lon="5.63941">
        <ele>1098</ele>
        <time>2021-04-23T08:41:04.000Z</time>
      </trkpt>
      <trkpt lat="45.16822" lon="5.63942">
        <ele>1098.2</ele>
        <time>2021-04-23T08:41:05.000Z</time>
      </trkpt>
      <trkpt lat="45.16819" lon="5.63943">
        <ele>1098.4</ele>
        <time>2021-04-23T08:41:06.000Z</time>
      </trkpt>
      <trkpt lat="45.16817" lon="5.63944">
        <ele>1098.4</ele>
        <time>2021-04-23T08:41:07.000Z</time>
      </trkpt>
      <trkpt lat="45.16812" lon="5.63947">
        <ele>1098.8</ele>
        <time>2021-04-23T08:41:09.000Z</time>
      </trkpt>
      <trkpt lat="45.1681" lon="5.63949">
        <ele>1099</ele>
        <time>2021-04-23T08:41:10.000Z</time>
      </trkpt>
      <trkpt lat="45.16808" lon="5.6395">
        <ele>1099.2</ele>
        <time>2021-04-23T08:41:11.000Z</time>
      </trkpt>
      <trkpt lat="45.16806" lon="5.63952">
        <ele>1099.4</ele>
        <time>2021-04-23T08:41:12.000Z</time>
      </trkpt>
      <trkpt lat="45.16804" lon="5.63953">
        <ele>1099.6</ele>
        <time>2021-04-23T08:41:13.000Z</time>
      </trkpt>
      <trkpt lat="45.16802" lon="5.63955">
        <ele>1100</ele>
        <time>2021-04-23T08:41:14.000Z</time>
      </trkpt>
      <trkpt lat="45.16799" lon="5.63958">
        <ele>1100.2</ele>
        <time>2021-04-23T08:41:15.000Z</time>
      </trkpt>
      <trkpt lat="45.16798" lon="5.6396">
        <ele>1100.4</ele>
        <time>2021-04-23T08:41:16.000Z</time>
      </trkpt>
      <trkpt lat="45.16796" lon="5.63962">
        <ele>1100.6</ele>
        <time>2021-04-23T08:41:17.000Z</time>
      </trkpt>
      <trkpt lat="45.16794" lon="5.63964">
        <ele>1100.8</ele>
        <time>2021-04-23T08:41:18.000Z</time>
      </trkpt>
      <trkpt lat="45.16792" lon="5.63967">
        <ele>1101</ele>
        <time>2021-04-23T08:41:19.000Z</time>
      </trkpt>
      <trkpt lat="45.1679" lon="5.6397">
        <ele>1101.4</ele>
        <time>2021-04-23T08:41:20.000Z</time>
      </trkpt>
      <trkpt lat="45.16788" lon="5.63973">
        <ele>1101.6</ele>
        <time>2021-04-23T08:41:21.000Z</time>
      </trkpt>
      <trkpt lat="45.16786" lon="5.63976">
        <ele>1101.6</ele>
        <time>2021-04-23T08:41:22.000Z</time>
      </trkpt>
      <trkpt lat="45.16785" lon="5.6398">
        <ele>1101.8</ele>
        <time>2021-04-23T08:41:23.000Z</time>
      </trkpt>
      <trkpt lat="45.16784" lon="5.63984">
        <ele>1102</ele>
        <time>2021-04-23T08:41:24.000Z</time>
      </trkpt>
      <trkpt lat="45.16782" lon="5.63986">
        <ele>1102.2</ele>
        <time>2021-04-23T08:41:25.000Z</time>
      </trkpt>
      <trkpt lat="45.16781" lon="5.63989">
        <ele>1102.4</ele>
        <time>2021-04-23T08:41:26.000Z</time>
      </trkpt>
      <trkpt lat="45.1678" lon="5.63992">
        <ele>1102.6</ele>
        <time>2021-04-23T08:41:27.000Z</time>
      </trkpt>
      <trkpt lat="45.16778" lon="5.63996">
        <ele>1102.6</ele>
        <time>2021-04-23T08:41:28.000Z</time>
      </trkpt>
      <trkpt lat="45.16777" lon="5.63998">
        <ele>1102.8</ele>
        <time>2021-04-23T08:41:29.000Z</time>
      </trkpt>
      <trkpt lat="45.16775" lon="5.64001">
        <ele>1102.8</ele>
        <time>2021-04-23T08:41:30.000Z</time>
      </trkpt>
      <trkpt lat="45.16773" lon="5.64004">
        <ele>1103</ele>
        <time>2021-04-23T08:41:31.000Z</time>
      </trkpt>
      <trkpt lat="45.16772" lon="5.64007">
        <ele>1103.4</ele>
        <time>2021-04-23T08:41:32.000Z</time>
      </trkpt>
      <trkpt lat="45.1677" lon="5.64009">
        <ele>1103.6</ele>
        <time>2021-04-23T08:41:33.000Z</time>
      </trkpt>
      <trkpt lat="45.16769" lon="5.64011">
        <ele>1103.8</ele>
        <time>2021-04-23T08:41:34.000Z</time>
      </trkpt>
      <trkpt lat="45.16768" lon="5.64014">
        <ele>1104</ele>
        <time>2021-04-23T08:41:35.000Z</time>
      </trkpt>
      <trkpt lat="45.16766" lon="5.64016">
        <ele>1104.2</ele>
        <time>2021-04-23T08:41:36.000Z</time>
      </trkpt>
      <trkpt lat="45.16764" lon="5.64019">
        <ele>1104.4</ele>
        <time>2021-04-23T08:41:37.000Z</time>
      </trkpt>
      <trkpt lat="45.16762" lon="5.64021">
        <ele>1104.6</ele>
        <time>2021-04-23T08:41:38.000Z</time>
      </trkpt>
      <trkpt lat="45.16761" lon="5.64024">
        <ele>1104.8</ele>
        <time>2021-04-23T08:41:39.000Z</time>
      </trkpt>
      <trkpt lat="45.16759" lon="5.64026">
        <ele>1105</ele>
        <time>2021-04-23T08:41:40.000Z</time>
      </trkpt>
      <trkpt lat="45.16757" lon="5.64029">
        <ele>1105</ele>
        <time>2021-04-23T08:41:41.000Z</time>
      </trkpt>
      <trkpt lat="45.16756" lon="5.64031">
        <ele>1105.2</ele>
        <time>2021-04-23T08:41:42.000Z</time>
      </trkpt>
      <trkpt lat="45.16754" lon="5.64033">
        <ele>1105.4</ele>
        <time>2021-04-23T08:41:43.000Z</time>
      </trkpt>
      <trkpt lat="45.16752" lon="5.64035">
        <ele>1105.8</ele>
        <time>2021-04-23T08:41:44.000Z</time>
      </trkpt>
      <trkpt lat="45.1675" lon="5.64037">
        <ele>1106</ele>
        <time>2021-04-23T08:41:45.000Z</time>
      </trkpt>
      <trkpt lat="45.16748" lon="5.64038">
        <ele>1106.2</ele>
        <time>2021-04-23T08:41:46.000Z</time>
      </trkpt>
      <trkpt lat="45.16745" lon="5.64039">
        <ele>1106.2</ele>
        <time>2021-04-23T08:41:47.000Z</time>
      </trkpt>
      <trkpt lat="45.16742" lon="5.6404">
        <ele>1106.4</ele>
        <time>2021-04-23T08:41:48.000Z</time>
      </trkpt>
      <trkpt lat="45.1674" lon="5.64042">
        <ele>1106.8</ele>
        <time>2021-04-23T08:41:49.000Z</time>
      </trkpt>
      <trkpt lat="45.16737" lon="5.64043">
        <ele>1107</ele>
        <time>2021-04-23T08:41:50.000Z</time>
      </trkpt>
      <trkpt lat="45.16734" lon="5.64044">
        <ele>1107.2</ele>
        <time>2021-04-23T08:41:51.000Z</time>
      </trkpt>
      <trkpt lat="45.16732" lon="5.64045">
        <ele>1107.4</ele>
        <time>2021-04-23T08:41:52.000Z</time>
      </trkpt>
      <trkpt lat="45.16729" lon="5.64046">
        <ele>1107.6</ele>
        <time>2021-04-23T08:41:53.000Z</time>
      </trkpt>
      <trkpt lat="45.16727" lon="5.64047">
        <ele>1107.8</ele>
        <time>2021-04-23T08:41:54.000Z</time>
      </trkpt>
      <trkpt lat="45.16723" lon="5.64047">
        <ele>1108</ele>
        <time>2021-04-23T08:41:55.000Z</time>
      </trkpt>
      <trkpt lat="45.16721" lon="5.64047">
        <ele>1108.2</ele>
        <time>2021-04-23T08:41:56.000Z</time>
      </trkpt>
      <trkpt lat="45.16718" lon="5.64048">
        <ele>1108.4</ele>
        <time>2021-04-23T08:41:57.000Z</time>
      </trkpt>
      <trkpt lat="45.16715" lon="5.64049">
        <ele>1108.6</ele>
        <time>2021-04-23T08:41:58.000Z</time>
      </trkpt>
      <trkpt lat="45.16712" lon="5.6405">
        <ele>1108.8</ele>
        <time>2021-04-23T08:41:59.000Z</time>
      </trkpt>
      <trkpt lat="45.1671" lon="5.64051">
        <ele>1109</ele>
        <time>2021-04-23T08:42:00.000Z</time>
      </trkpt>
      <trkpt lat="45.16707" lon="5.6405">
        <ele>1109</ele>
        <time>2021-04-23T08:42:01.000Z</time>
      </trkpt>
      <trkpt lat="45.16704" lon="5.64049">
        <ele>1109.4</ele>
        <time>2021-04-23T08:42:02.000Z</time>
      </trkpt>
      <trkpt lat="45.16702" lon="5.64048">
        <ele>1109.6</ele>
        <time>2021-04-23T08:42:03.000Z</time>
      </trkpt>
      <trkpt lat="45.167" lon="5.64047">
        <ele>1109.8</ele>
        <time>2021-04-23T08:42:04.000Z</time>
      </trkpt>
      <trkpt lat="45.16698" lon="5.64046">
        <ele>1110</ele>
        <time>2021-04-23T08:42:05.000Z</time>
      </trkpt>
      <trkpt lat="45.16695" lon="5.64045">
        <ele>1110</ele>
        <time>2021-04-23T08:42:06.000Z</time>
      </trkpt>
      <trkpt lat="45.16693" lon="5.64043">
        <ele>1110.2</ele>
        <time>2021-04-23T08:42:07.000Z</time>
      </trkpt>
      <trkpt lat="45.16691" lon="5.64042">
        <ele>1110.4</ele>
        <time>2021-04-23T08:42:08.000Z</time>
      </trkpt>
      <trkpt lat="45.16688" lon="5.6404">
        <ele>1110.6</ele>
        <time>2021-04-23T08:42:09.000Z</time>
      </trkpt>
      <trkpt lat="45.16687" lon="5.64038">
        <ele>1110.8</ele>
        <time>2021-04-23T08:42:10.000Z</time>
      </trkpt>
      <trkpt lat="45.16685" lon="5.64035">
        <ele>1110.8</ele>
        <time>2021-04-23T08:42:11.000Z</time>
      </trkpt>
      <trkpt lat="45.16683" lon="5.64033">
        <ele>1110.8</ele>
        <time>2021-04-23T08:42:12.000Z</time>
      </trkpt>
      <trkpt lat="45.16681" lon="5.6403">
        <ele>1111.2</ele>
        <time>2021-04-23T08:42:13.000Z</time>
      </trkpt>
      <trkpt lat="45.16679" lon="5.64028">
        <ele>1111.4</ele>
        <time>2021-04-23T08:42:14.000Z</time>
      </trkpt>
      <trkpt lat="45.16678" lon="5.64025">
        <ele>1111.4</ele>
        <time>2021-04-23T08:42:15.000Z</time>
      </trkpt>
      <trkpt lat="45.16677" lon="5.64022">
        <ele>1111.6</ele>
        <time>2021-04-23T08:42:16.000Z</time>
      </trkpt>
      <trkpt lat="45.16675" lon="5.6402">
        <ele>1111.6</ele>
        <time>2021-04-23T08:42:17.000Z</time>
      </trkpt>
      <trkpt lat="45.16674" lon="5.64016">
        <ele>1111.8</ele>
        <time>2021-04-23T08:42:18.000Z</time>
      </trkpt>
      <trkpt lat="45.16672" lon="5.64013">
        <ele>1112</ele>
        <time>2021-04-23T08:42:19.000Z</time>
      </trkpt>
      <trkpt lat="45.16671" lon="5.64009">
        <ele>1112.2</ele>
        <time>2021-04-23T08:42:20.000Z</time>
      </trkpt>
      <trkpt lat="45.1667" lon="5.64005">
        <ele>1112.4</ele>
        <time>2021-04-23T08:42:21.000Z</time>
      </trkpt>
      <trkpt lat="45.1667" lon="5.64001">
        <ele>1112.6</ele>
        <time>2021-04-23T08:42:22.000Z</time>
      </trkpt>
      <trkpt lat="45.16669" lon="5.63998">
        <ele>1113</ele>
        <time>2021-04-23T08:42:23.000Z</time>
      </trkpt>
      <trkpt lat="45.16668" lon="5.63995">
        <ele>1113.2</ele>
        <time>2021-04-23T08:42:24.000Z</time>
      </trkpt>
      <trkpt lat="45.16666" lon="5.63992">
        <ele>1113.4</ele>
        <time>2021-04-23T08:42:25.000Z</time>
      </trkpt>
      <trkpt lat="45.16666" lon="5.63989">
        <ele>1113.4</ele>
        <time>2021-04-23T08:42:26.000Z</time>
      </trkpt>
      <trkpt lat="45.16665" lon="5.63985">
        <ele>1113.6</ele>
        <time>2021-04-23T08:42:27.000Z</time>
      </trkpt>
      <trkpt lat="45.16665" lon="5.63982">
        <ele>1113.6</ele>
        <time>2021-04-23T08:42:28.000Z</time>
      </trkpt>
      <trkpt lat="45.16664" lon="5.63979">
        <ele>1113.6</ele>
        <time>2021-04-23T08:42:29.000Z</time>
      </trkpt>
      <trkpt lat="45.16664" lon="5.63975">
        <ele>1113.8</ele>
        <time>2021-04-23T08:42:30.000Z</time>
      </trkpt>
      <trkpt lat="45.16663" lon="5.63972">
        <ele>1114.2</ele>
        <time>2021-04-23T08:42:31.000Z</time>
      </trkpt>
      <trkpt lat="45.16663" lon="5.63968">
        <ele>1114.4</ele>
        <time>2021-04-23T08:42:32.000Z</time>
      </trkpt>
      <trkpt lat="45.16663" lon="5.63965">
        <ele>1114.6</ele>
        <time>2021-04-23T08:42:33.000Z</time>
      </trkpt>
      <trkpt lat="45.16663" lon="5.63961">
        <ele>1114.8</ele>
        <time>2021-04-23T08:42:34.000Z</time>
      </trkpt>
      <trkpt lat="45.16663" lon="5.63958">
        <ele>1115</ele>
        <time>2021-04-23T08:42:35.000Z</time>
      </trkpt>
      <trkpt lat="45.16663" lon="5.63954">
        <ele>1115</ele>
        <time>2021-04-23T08:42:36.000Z</time>
      </trkpt>
      <trkpt lat="45.16663" lon="5.63951">
        <ele>1115</ele>
        <time>2021-04-23T08:42:37.000Z</time>
      </trkpt>
      <trkpt lat="45.16663" lon="5.63947">
        <ele>1115</ele>
        <time>2021-04-23T08:42:38.000Z</time>
      </trkpt>
      <trkpt lat="45.16663" lon="5.63944">
        <ele>1115.2</ele>
        <time>2021-04-23T08:42:39.000Z</time>
      </trkpt>
      <trkpt lat="45.16664" lon="5.6394">
        <ele>1115.4</ele>
        <time>2021-04-23T08:42:40.000Z</time>
      </trkpt>
      <trkpt lat="45.16664" lon="5.63936">
        <ele>1115.4</ele>
        <time>2021-04-23T08:42:41.000Z</time>
      </trkpt>
      <trkpt lat="45.16664" lon="5.63933">
        <ele>1115.6</ele>
        <time>2021-04-23T08:42:42.000Z</time>
      </trkpt>
      <trkpt lat="45.16664" lon="5.63929">
        <ele>1115.8</ele>
        <time>2021-04-23T08:42:43.000Z</time>
      </trkpt>
      <trkpt lat="45.16664" lon="5.63926">
        <ele>1116</ele>
        <time>2021-04-23T08:42:44.000Z</time>
      </trkpt>
      <trkpt lat="45.16664" lon="5.63922">
        <ele>1116</ele>
        <time>2021-04-23T08:42:45.000Z</time>
      </trkpt>
      <trkpt lat="45.16664" lon="5.63919">
        <ele>1116.2</ele>
        <time>2021-04-23T08:42:46.000Z</time>
      </trkpt>
      <trkpt lat="45.16664" lon="5.63915">
        <ele>1116.4</ele>
        <time>2021-04-23T08:42:47.000Z</time>
      </trkpt>
      <trkpt lat="45.16664" lon="5.63912">
        <ele>1116.6</ele>
        <time>2021-04-23T08:42:48.000Z</time>
      </trkpt>
      <trkpt lat="45.16664" lon="5.63908">
        <ele>1116.8</ele>
        <time>2021-04-23T08:42:49.000Z</time>
      </trkpt>
      <trkpt lat="45.16665" lon="5.63905">
        <ele>1117</ele>
        <time>2021-04-23T08:42:50.000Z</time>
      </trkpt>
      <trkpt lat="45.16666" lon="5.63902">
        <ele>1117</ele>
        <time>2021-04-23T08:42:51.000Z</time>
      </trkpt>
      <trkpt lat="45.16666" lon="5.63898">
        <ele>1117.2</ele>
        <time>2021-04-23T08:42:52.000Z</time>
      </trkpt>
      <trkpt lat="45.16667" lon="5.63894">
        <ele>1117.4</ele>
        <time>2021-04-23T08:42:53.000Z</time>
      </trkpt>
      <trkpt lat="45.16667" lon="5.63891">
        <ele>1117.4</ele>
        <time>2021-04-23T08:42:54.000Z</time>
      </trkpt>
      <trkpt lat="45.16667" lon="5.63888">
        <ele>1117.6</ele>
        <time>2021-04-23T08:42:55.000Z</time>
      </trkpt>
      <trkpt lat="45.16668" lon="5.63885">
        <ele>1117.8</ele>
        <time>2021-04-23T08:42:56.000Z</time>
      </trkpt>
      <trkpt lat="45.16668" lon="5.63882">
        <ele>1118</ele>
        <time>2021-04-23T08:42:57.000Z</time>
      </trkpt>
      <trkpt lat="45.16668" lon="5.63878">
        <ele>1118.2</ele>
        <time>2021-04-23T08:42:58.000Z</time>
      </trkpt>
      <trkpt lat="45.16669" lon="5.63875">
        <ele>1118.4</ele>
        <time>2021-04-23T08:42:59.000Z</time>
      </trkpt>
      <trkpt lat="45.16669" lon="5.63872">
        <ele>1118.6</ele>
        <time>2021-04-23T08:43:00.000Z</time>
      </trkpt>
      <trkpt lat="45.1667" lon="5.63869">
        <ele>1118.8</ele>
        <time>2021-04-23T08:43:01.000Z</time>
      </trkpt>
      <trkpt lat="45.1667" lon="5.63865">
        <ele>1119</ele>
        <time>2021-04-23T08:43:02.000Z</time>
      </trkpt>
      <trkpt lat="45.1667" lon="5.63862">
        <ele>1119.2</ele>
        <time>2021-04-23T08:43:03.000Z</time>
      </trkpt>
      <trkpt lat="45.1667" lon="5.63858">
        <ele>1119.4</ele>
        <time>2021-04-23T08:43:04.000Z</time>
      </trkpt>
      <trkpt lat="45.1667" lon="5.63854">
        <ele>1119.6</ele>
        <time>2021-04-23T08:43:05.000Z</time>
      </trkpt>
      <trkpt lat="45.16671" lon="5.63851">
        <ele>1119.8</ele>
        <time>2021-04-23T08:43:06.000Z</time>
      </trkpt>
      <trkpt lat="45.16671" lon="5.63847">
        <ele>1120</ele>
        <time>2021-04-23T08:43:07.000Z</time>
      </trkpt>
      <trkpt lat="45.16672" lon="5.63844">
        <ele>1120.2</ele>
        <time>2021-04-23T08:43:08.000Z</time>
      </trkpt>
      <trkpt lat="45.16673" lon="5.63841">
        <ele>1120.4</ele>
        <time>2021-04-23T08:43:09.000Z</time>
      </trkpt>
      <trkpt lat="45.16675" lon="5.63837">
        <ele>1120.6</ele>
        <time>2021-04-23T08:43:10.000Z</time>
      </trkpt>
      <trkpt lat="45.16677" lon="5.63834">
        <ele>1120.8</ele>
        <time>2021-04-23T08:43:11.000Z</time>
      </trkpt>
      <trkpt lat="45.16678" lon="5.63831">
        <ele>1121</ele>
        <time>2021-04-23T08:43:12.000Z</time>
      </trkpt>
      <trkpt lat="45.16678" lon="5.63827">
        <ele>1121.4</ele>
        <time>2021-04-23T08:43:13.000Z</time>
      </trkpt>
      <trkpt lat="45.16679" lon="5.63824">
        <ele>1121.4</ele>
        <time>2021-04-23T08:43:14.000Z</time>
      </trkpt>
      <trkpt lat="45.16679" lon="5.63821">
        <ele>1121.6</ele>
        <time>2021-04-23T08:43:15.000Z</time>
      </trkpt>
      <trkpt lat="45.1668" lon="5.63818">
        <ele>1121.8</ele>
        <time>2021-04-23T08:43:16.000Z</time>
      </trkpt>
      <trkpt lat="45.16682" lon="5.63815">
        <ele>1122</ele>
        <time>2021-04-23T08:43:17.000Z</time>
      </trkpt>
      <trkpt lat="45.16683" lon="5.63812">
        <ele>1122.4</ele>
        <time>2021-04-23T08:43:18.000Z</time>
      </trkpt>
      <trkpt lat="45.16684" lon="5.63809">
        <ele>1122.6</ele>
        <time>2021-04-23T08:43:19.000Z</time>
      </trkpt>
      <trkpt lat="45.16685" lon="5.63805">
        <ele>1122.8</ele>
        <time>2021-04-23T08:43:20.000Z</time>
      </trkpt>
      <trkpt lat="45.16686" lon="5.63802">
        <ele>1122.8</ele>
        <time>2021-04-23T08:43:21.000Z</time>
      </trkpt>
      <trkpt lat="45.16686" lon="5.63799">
        <ele>1123</ele>
        <time>2021-04-23T08:43:22.000Z</time>
      </trkpt>
      <trkpt lat="45.16687" lon="5.63795">
        <ele>1123</ele>
        <time>2021-04-23T08:43:23.000Z</time>
      </trkpt>
      <trkpt lat="45.16688" lon="5.63792">
        <ele>1123.2</ele>
        <time>2021-04-23T08:43:24.000Z</time>
      </trkpt>
      <trkpt lat="45.16689" lon="5.63789">
        <ele>1123.4</ele>
        <time>2021-04-23T08:43:25.000Z</time>
      </trkpt>
      <trkpt lat="45.16689" lon="5.63786">
        <ele>1123.6</ele>
        <time>2021-04-23T08:43:26.000Z</time>
      </trkpt>
      <trkpt lat="45.1669" lon="5.63783">
        <ele>1123.8</ele>
        <time>2021-04-23T08:43:27.000Z</time>
      </trkpt>
      <trkpt lat="45.16691" lon="5.63779">
        <ele>1123.8</ele>
        <time>2021-04-23T08:43:28.000Z</time>
      </trkpt>
      <trkpt lat="45.16692" lon="5.63776">
        <ele>1123.8</ele>
        <time>2021-04-23T08:43:29.000Z</time>
      </trkpt>
      <trkpt lat="45.16693" lon="5.63773">
        <ele>1124.2</ele>
        <time>2021-04-23T08:43:30.000Z</time>
      </trkpt>
      <trkpt lat="45.16694" lon="5.63769">
        <ele>1124.4</ele>
        <time>2021-04-23T08:43:31.000Z</time>
      </trkpt>
      <trkpt lat="45.16695" lon="5.63766">
        <ele>1124.6</ele>
        <time>2021-04-23T08:43:32.000Z</time>
      </trkpt>
      <trkpt lat="45.16696" lon="5.63762">
        <ele>1125</ele>
        <time>2021-04-23T08:43:33.000Z</time>
      </trkpt>
      <trkpt lat="45.16698" lon="5.63759">
        <ele>1125.2</ele>
        <time>2021-04-23T08:43:34.000Z</time>
      </trkpt>
      <trkpt lat="45.16699" lon="5.63756">
        <ele>1125.4</ele>
        <time>2021-04-23T08:43:35.000Z</time>
      </trkpt>
      <trkpt lat="45.167" lon="5.63753">
        <ele>1125.8</ele>
        <time>2021-04-23T08:43:36.000Z</time>
      </trkpt>
      <trkpt lat="45.16702" lon="5.6375">
        <ele>1126</ele>
        <time>2021-04-23T08:43:37.000Z</time>
      </trkpt>
      <trkpt lat="45.16703" lon="5.63747">
        <ele>1126.2</ele>
        <time>2021-04-23T08:43:38.000Z</time>
      </trkpt>
      <trkpt lat="45.16705" lon="5.63744">
        <ele>1126.2</ele>
        <time>2021-04-23T08:43:39.000Z</time>
      </trkpt>
      <trkpt lat="45.16707" lon="5.63741">
        <ele>1126.4</ele>
        <time>2021-04-23T08:43:40.000Z</time>
      </trkpt>
      <trkpt lat="45.16708" lon="5.63739">
        <ele>1126.4</ele>
        <time>2021-04-23T08:43:41.000Z</time>
      </trkpt>
      <trkpt lat="45.1671" lon="5.63736">
        <ele>1126.6</ele>
        <time>2021-04-23T08:43:42.000Z</time>
      </trkpt>
      <trkpt lat="45.16711" lon="5.63734">
        <ele>1126.8</ele>
        <time>2021-04-23T08:43:43.000Z</time>
      </trkpt>
      <trkpt lat="45.16712" lon="5.63732">
        <ele>1127</ele>
        <time>2021-04-23T08:43:44.000Z</time>
      </trkpt>
      <trkpt lat="45.16714" lon="5.6373">
        <ele>1127</ele>
        <time>2021-04-23T08:43:45.000Z</time>
      </trkpt>
      <trkpt lat="45.16715" lon="5.63728">
        <ele>1127.2</ele>
        <time>2021-04-23T08:43:46.000Z</time>
      </trkpt>
      <trkpt lat="45.16717" lon="5.63726">
        <ele>1127.4</ele>
        <time>2021-04-23T08:43:47.000Z</time>
      </trkpt>
      <trkpt lat="45.16718" lon="5.63724">
        <ele>1127.6</ele>
        <time>2021-04-23T08:43:48.000Z</time>
      </trkpt>
      <trkpt lat="45.1672" lon="5.63722">
        <ele>1127.6</ele>
        <time>2021-04-23T08:43:49.000Z</time>
      </trkpt>
      <trkpt lat="45.16722" lon="5.63721">
        <ele>1127.8</ele>
        <time>2021-04-23T08:43:50.000Z</time>
      </trkpt>
      <trkpt lat="45.16724" lon="5.63719">
        <ele>1127.8</ele>
        <time>2021-04-23T08:43:51.000Z</time>
      </trkpt>
      <trkpt lat="45.16726" lon="5.63717">
        <ele>1128</ele>
        <time>2021-04-23T08:43:52.000Z</time>
      </trkpt>
      <trkpt lat="45.16728" lon="5.63716">
        <ele>1128</ele>
        <time>2021-04-23T08:43:53.000Z</time>
      </trkpt>
      <trkpt lat="45.16729" lon="5.63714">
        <ele>1128</ele>
        <time>2021-04-23T08:43:54.000Z</time>
      </trkpt>
      <trkpt lat="45.16731" lon="5.63713">
        <ele>1128</ele>
        <time>2021-04-23T08:43:55.000Z</time>
      </trkpt>
      <trkpt lat="45.16733" lon="5.63713">
        <ele>1128.2</ele>
        <time>2021-04-23T08:43:56.000Z</time>
      </trkpt>
      <trkpt lat="45.16735" lon="5.63713">
        <ele>1128.2</ele>
        <time>2021-04-23T08:43:57.000Z</time>
      </trkpt>
      <trkpt lat="45.16738" lon="5.63712">
        <ele>1128.2</ele>
        <time>2021-04-23T08:43:58.000Z</time>
      </trkpt>
      <trkpt lat="45.1674" lon="5.63712">
        <ele>1128.2</ele>
        <time>2021-04-23T08:43:59.000Z</time>
      </trkpt>
      <trkpt lat="45.16742" lon="5.63713">
        <ele>1128.4</ele>
        <time>2021-04-23T08:44:00.000Z</time>
      </trkpt>
      <trkpt lat="45.16744" lon="5.63713">
        <ele>1128.6</ele>
        <time>2021-04-23T08:44:01.000Z</time>
      </trkpt>
      <trkpt lat="45.16746" lon="5.63713">
        <ele>1128.6</ele>
        <time>2021-04-23T08:44:02.000Z</time>
      </trkpt>
      <trkpt lat="45.16749" lon="5.63714">
        <ele>1128.8</ele>
        <time>2021-04-23T08:44:03.000Z</time>
      </trkpt>
      <trkpt lat="45.16751" lon="5.63714">
        <ele>1129</ele>
        <time>2021-04-23T08:44:04.000Z</time>
      </trkpt>
      <trkpt lat="45.16754" lon="5.63715">
        <ele>1129.2</ele>
        <time>2021-04-23T08:44:05.000Z</time>
      </trkpt>
      <trkpt lat="45.16757" lon="5.63716">
        <ele>1129.4</ele>
        <time>2021-04-23T08:44:06.000Z</time>
      </trkpt>
      <trkpt lat="45.1676" lon="5.63717">
        <ele>1129.4</ele>
        <time>2021-04-23T08:44:07.000Z</time>
      </trkpt>
      <trkpt lat="45.16763" lon="5.63719">
        <ele>1129.6</ele>
        <time>2021-04-23T08:44:08.000Z</time>
      </trkpt>
      <trkpt lat="45.16766" lon="5.63721">
        <ele>1129.8</ele>
        <time>2021-04-23T08:44:09.000Z</time>
      </trkpt>
      <trkpt lat="45.16769" lon="5.63724">
        <ele>1130</ele>
        <time>2021-04-23T08:44:10.000Z</time>
      </trkpt>
      <trkpt lat="45.16772" lon="5.63728">
        <ele>1130.2</ele>
        <time>2021-04-23T08:44:11.000Z</time>
      </trkpt>
      <trkpt lat="45.16775" lon="5.63731">
        <ele>1130.4</ele>
        <time>2021-04-23T08:44:12.000Z</time>
      </trkpt>
      <trkpt lat="45.16778" lon="5.63733">
        <ele>1130.4</ele>
        <time>2021-04-23T08:44:13.000Z</time>
      </trkpt>
      <trkpt lat="45.16782" lon="5.63736">
        <ele>1130.4</ele>
        <time>2021-04-23T08:44:14.000Z</time>
      </trkpt>
      <trkpt lat="45.16785" lon="5.63739">
        <ele>1130.8</ele>
        <time>2021-04-23T08:44:15.000Z</time>
      </trkpt>
      <trkpt lat="45.16788" lon="5.63742">
        <ele>1131</ele>
        <time>2021-04-23T08:44:16.000Z</time>
      </trkpt>
      <trkpt lat="45.16791" lon="5.63745">
        <ele>1131.2</ele>
        <time>2021-04-23T08:44:17.000Z</time>
      </trkpt>
      <trkpt lat="45.16793" lon="5.63748">
        <ele>1131.2</ele>
        <time>2021-04-23T08:44:18.000Z</time>
      </trkpt>
      <trkpt lat="45.16796" lon="5.63751">
        <ele>1131.4</ele>
        <time>2021-04-23T08:44:19.000Z</time>
      </trkpt>
      <trkpt lat="45.16799" lon="5.63754">
        <ele>1131.6</ele>
        <time>2021-04-23T08:44:20.000Z</time>
      </trkpt>
      <trkpt lat="45.16802" lon="5.63757">
        <ele>1131.8</ele>
        <time>2021-04-23T08:44:21.000Z</time>
      </trkpt>
      <trkpt lat="45.16804" lon="5.63759">
        <ele>1132</ele>
        <time>2021-04-23T08:44:22.000Z</time>
      </trkpt>
      <trkpt lat="45.16807" lon="5.63762">
        <ele>1132</ele>
        <time>2021-04-23T08:44:23.000Z</time>
      </trkpt>
      <trkpt lat="45.1681" lon="5.63764">
        <ele>1132.2</ele>
        <time>2021-04-23T08:44:24.000Z</time>
      </trkpt>
      <trkpt lat="45.16813" lon="5.63766">
        <ele>1132.4</ele>
        <time>2021-04-23T08:44:25.000Z</time>
      </trkpt>
      <trkpt lat="45.16815" lon="5.63767">
        <ele>1132.4</ele>
        <time>2021-04-23T08:44:26.000Z</time>
      </trkpt>
      <trkpt lat="45.16817" lon="5.63767">
        <ele>1132.4</ele>
        <time>2021-04-23T08:44:27.000Z</time>
      </trkpt>
      <trkpt lat="45.16819" lon="5.63767">
        <ele>1132.4</ele>
        <time>2021-04-23T08:44:28.000Z</time>
      </trkpt>
      <trkpt lat="45.16823" lon="5.63766">
        <ele>1132.4</ele>
        <time>2021-04-23T08:44:29.000Z</time>
      </trkpt>
      <trkpt lat="45.16826" lon="5.63766">
        <ele>1132.6</ele>
        <time>2021-04-23T08:44:30.000Z</time>
      </trkpt>
      <trkpt lat="45.16829" lon="5.63765">
        <ele>1132.6</ele>
        <time>2021-04-23T08:44:31.000Z</time>
      </trkpt>
      <trkpt lat="45.16832" lon="5.63764">
        <ele>1132.6</ele>
        <time>2021-04-23T08:44:32.000Z</time>
      </trkpt>
      <trkpt lat="45.16835" lon="5.63762">
        <ele>1132.6</ele>
        <time>2021-04-23T08:44:33.000Z</time>
      </trkpt>
      <trkpt lat="45.16837" lon="5.63761">
        <ele>1132.8</ele>
        <time>2021-04-23T08:44:34.000Z</time>
      </trkpt>
      <trkpt lat="45.16839" lon="5.63759">
        <ele>1133</ele>
        <time>2021-04-23T08:44:35.000Z</time>
      </trkpt>
      <trkpt lat="45.16842" lon="5.63758">
        <ele>1133</ele>
        <time>2021-04-23T08:44:36.000Z</time>
      </trkpt>
      <trkpt lat="45.16845" lon="5.63756">
        <ele>1133.2</ele>
        <time>2021-04-23T08:44:37.000Z</time>
      </trkpt>
      <trkpt lat="45.16847" lon="5.63755">
        <ele>1133.4</ele>
        <time>2021-04-23T08:44:38.000Z</time>
      </trkpt>
      <trkpt lat="45.16849" lon="5.63753">
        <ele>1133.6</ele>
        <time>2021-04-23T08:44:39.000Z</time>
      </trkpt>
      <trkpt lat="45.16851" lon="5.6375">
        <ele>1134</ele>
        <time>2021-04-23T08:44:40.000Z</time>
      </trkpt>
      <trkpt lat="45.16853" lon="5.63749">
        <ele>1134</ele>
        <time>2021-04-23T08:44:41.000Z</time>
      </trkpt>
      <trkpt lat="45.16856" lon="5.63747">
        <ele>1134.2</ele>
        <time>2021-04-23T08:44:42.000Z</time>
      </trkpt>
      <trkpt lat="45.16858" lon="5.63746">
        <ele>1134.4</ele>
        <time>2021-04-23T08:44:43.000Z</time>
      </trkpt>
      <trkpt lat="45.1686" lon="5.63744">
        <ele>1134.6</ele>
        <time>2021-04-23T08:44:44.000Z</time>
      </trkpt>
      <trkpt lat="45.16862" lon="5.63743">
        <ele>1134.8</ele>
        <time>2021-04-23T08:44:45.000Z</time>
      </trkpt>
      <trkpt lat="45.16865" lon="5.63741">
        <ele>1135</ele>
        <time>2021-04-23T08:44:46.000Z</time>
      </trkpt>
      <trkpt lat="45.16867" lon="5.6374">
        <ele>1135.2</ele>
        <time>2021-04-23T08:44:47.000Z</time>
      </trkpt>
      <trkpt lat="45.1687" lon="5.63738">
        <ele>1135.4</ele>
        <time>2021-04-23T08:44:48.000Z</time>
      </trkpt>
      <trkpt lat="45.16873" lon="5.63737">
        <ele>1135.6</ele>
        <time>2021-04-23T08:44:49.000Z</time>
      </trkpt>
      <trkpt lat="45.16875" lon="5.63736">
        <ele>1135.6</ele>
        <time>2021-04-23T08:44:50.000Z</time>
      </trkpt>
      <trkpt lat="45.16878" lon="5.63735">
        <ele>1136</ele>
        <time>2021-04-23T08:44:51.000Z</time>
      </trkpt>
      <trkpt lat="45.1688" lon="5.63733">
        <ele>1136.2</ele>
        <time>2021-04-23T08:44:52.000Z</time>
      </trkpt>
      <trkpt lat="45.16884" lon="5.63731">
        <ele>1136.4</ele>
        <time>2021-04-23T08:44:53.000Z</time>
      </trkpt>
      <trkpt lat="45.16888" lon="5.6373">
        <ele>1136.4</ele>
        <time>2021-04-23T08:44:54.000Z</time>
      </trkpt>
      <trkpt lat="45.16891" lon="5.63729">
        <ele>1136.6</ele>
        <time>2021-04-23T08:44:55.000Z</time>
      </trkpt>
      <trkpt lat="45.16893" lon="5.63728">
        <ele>1136.8</ele>
        <time>2021-04-23T08:44:56.000Z</time>
      </trkpt>
      <trkpt lat="45.16895" lon="5.63726">
        <ele>1137</ele>
        <time>2021-04-23T08:44:57.000Z</time>
      </trkpt>
      <trkpt lat="45.16897" lon="5.63724">
        <ele>1137.2</ele>
        <time>2021-04-23T08:44:58.000Z</time>
      </trkpt>
      <trkpt lat="45.16899" lon="5.63723">
        <ele>1137.4</ele>
        <time>2021-04-23T08:44:59.000Z</time>
      </trkpt>
      <trkpt lat="45.16901" lon="5.63721">
        <ele>1137.6</ele>
        <time>2021-04-23T08:45:00.000Z</time>
      </trkpt>
      <trkpt lat="45.16906" lon="5.6372">
        <ele>1137.6</ele>
        <time>2021-04-23T08:45:01.000Z</time>
      </trkpt>
      <trkpt lat="45.1691" lon="5.63718">
        <ele>1137.8</ele>
        <time>2021-04-23T08:45:02.000Z</time>
      </trkpt>
      <trkpt lat="45.16912" lon="5.63717">
        <ele>1138</ele>
        <time>2021-04-23T08:45:03.000Z</time>
      </trkpt>
      <trkpt lat="45.16915" lon="5.63715">
        <ele>1138.2</ele>
        <time>2021-04-23T08:45:04.000Z</time>
      </trkpt>
      <trkpt lat="45.16918" lon="5.63715">
        <ele>1138.4</ele>
        <time>2021-04-23T08:45:05.000Z</time>
      </trkpt>
      <trkpt lat="45.1692" lon="5.63715">
        <ele>1138.6</ele>
        <time>2021-04-23T08:45:06.000Z</time>
      </trkpt>
      <trkpt lat="45.16923" lon="5.63714">
        <ele>1138.6</ele>
        <time>2021-04-23T08:45:07.000Z</time>
      </trkpt>
      <trkpt lat="45.16928" lon="5.63714">
        <ele>1138.8</ele>
        <time>2021-04-23T08:45:08.000Z</time>
      </trkpt>
      <trkpt lat="45.1693" lon="5.63713">
        <ele>1139</ele>
        <time>2021-04-23T08:45:09.000Z</time>
      </trkpt>
      <trkpt lat="45.16932" lon="5.63712">
        <ele>1139.2</ele>
        <time>2021-04-23T08:45:10.000Z</time>
      </trkpt>
      <trkpt lat="45.16933" lon="5.63711">
        <ele>1139.4</ele>
        <time>2021-04-23T08:45:11.000Z</time>
      </trkpt>
      <trkpt lat="45.16935" lon="5.63711">
        <ele>1139.6</ele>
        <time>2021-04-23T08:45:12.000Z</time>
      </trkpt>
      <trkpt lat="45.16936" lon="5.6371">
        <ele>1139.8</ele>
        <time>2021-04-23T08:45:13.000Z</time>
      </trkpt>
      <trkpt lat="45.16938" lon="5.63709">
        <ele>1139.8</ele>
        <time>2021-04-23T08:45:14.000Z</time>
      </trkpt>
      <trkpt lat="45.16941" lon="5.63707">
        <ele>1139.8</ele>
        <time>2021-04-23T08:45:15.000Z</time>
      </trkpt>
      <trkpt lat="45.16943" lon="5.63705">
        <ele>1140</ele>
        <time>2021-04-23T08:45:16.000Z</time>
      </trkpt>
      <trkpt lat="45.16946" lon="5.63703">
        <ele>1140.2</ele>
        <time>2021-04-23T08:45:17.000Z</time>
      </trkpt>
      <trkpt lat="45.1695" lon="5.63702">
        <ele>1140.4</ele>
        <time>2021-04-23T08:45:18.000Z</time>
      </trkpt>
      <trkpt lat="45.16953" lon="5.63701">
        <ele>1140.6</ele>
        <time>2021-04-23T08:45:19.000Z</time>
      </trkpt>
      <trkpt lat="45.16955" lon="5.63699">
        <ele>1140.8</ele>
        <time>2021-04-23T08:45:20.000Z</time>
      </trkpt>
      <trkpt lat="45.16957" lon="5.63698">
        <ele>1141</ele>
        <time>2021-04-23T08:45:21.000Z</time>
      </trkpt>
      <trkpt lat="45.16959" lon="5.63697">
        <ele>1141</ele>
        <time>2021-04-23T08:45:22.000Z</time>
      </trkpt>
      <trkpt lat="45.16963" lon="5.63694">
        <ele>1141.2</ele>
        <time>2021-04-23T08:45:23.000Z</time>
      </trkpt>
      <trkpt lat="45.16966" lon="5.63692">
        <ele>1141.4</ele>
        <time>2021-04-23T08:45:24.000Z</time>
      </trkpt>
      <trkpt lat="45.16967" lon="5.63691">
        <ele>1141.6</ele>
        <time>2021-04-23T08:45:25.000Z</time>
      </trkpt>
      <trkpt lat="45.1697" lon="5.63688">
        <ele>1141.8</ele>
        <time>2021-04-23T08:45:26.000Z</time>
      </trkpt>
      <trkpt lat="45.16972" lon="5.63685">
        <ele>1142</ele>
        <time>2021-04-23T08:45:27.000Z</time>
      </trkpt>
      <trkpt lat="45.16975" lon="5.63682">
        <ele>1142.2</ele>
        <time>2021-04-23T08:45:28.000Z</time>
      </trkpt>
      <trkpt lat="45.16978" lon="5.63679">
        <ele>1142.4</ele>
        <time>2021-04-23T08:45:29.000Z</time>
      </trkpt>
      <trkpt lat="45.1698" lon="5.63677">
        <ele>1142.4</ele>
        <time>2021-04-23T08:45:30.000Z</time>
      </trkpt>
      <trkpt lat="45.16982" lon="5.63673">
        <ele>1142.6</ele>
        <time>2021-04-23T08:45:31.000Z</time>
      </trkpt>
      <trkpt lat="45.16983" lon="5.6367">
        <ele>1142.6</ele>
        <time>2021-04-23T08:45:32.000Z</time>
      </trkpt>
      <trkpt lat="45.16985" lon="5.63668">
        <ele>1142.8</ele>
        <time>2021-04-23T08:45:33.000Z</time>
      </trkpt>
      <trkpt lat="45.16987" lon="5.63665">
        <ele>1142.8</ele>
        <time>2021-04-23T08:45:34.000Z</time>
      </trkpt>
      <trkpt lat="45.16991" lon="5.63663">
        <ele>1143.2</ele>
        <time>2021-04-23T08:45:35.000Z</time>
      </trkpt>
      <trkpt lat="45.16994" lon="5.6366">
        <ele>1143.2</ele>
        <time>2021-04-23T08:45:36.000Z</time>
      </trkpt>
      <trkpt lat="45.16996" lon="5.63657">
        <ele>1143.4</ele>
        <time>2021-04-23T08:45:37.000Z</time>
      </trkpt>
      <trkpt lat="45.16997" lon="5.63655">
        <ele>1143.6</ele>
        <time>2021-04-23T08:45:38.000Z</time>
      </trkpt>
      <trkpt lat="45.16998" lon="5.63652">
        <ele>1143.8</ele>
        <time>2021-04-23T08:45:39.000Z</time>
      </trkpt>
      <trkpt lat="45.17" lon="5.63648">
        <ele>1143.8</ele>
        <time>2021-04-23T08:45:40.000Z</time>
      </trkpt>
      <trkpt lat="45.17002" lon="5.63645">
        <ele>1144</ele>
        <time>2021-04-23T08:45:41.000Z</time>
      </trkpt>
      <trkpt lat="45.17003" lon="5.63643">
        <ele>1144</ele>
        <time>2021-04-23T08:45:42.000Z</time>
      </trkpt>
      <trkpt lat="45.17004" lon="5.6364">
        <ele>1144</ele>
        <time>2021-04-23T08:45:43.000Z</time>
      </trkpt>
      <trkpt lat="45.17006" lon="5.63637">
        <ele>1144.2</ele>
        <time>2021-04-23T08:45:44.000Z</time>
      </trkpt>
      <trkpt lat="45.17008" lon="5.63634">
        <ele>1144.4</ele>
        <time>2021-04-23T08:45:45.000Z</time>
      </trkpt>
      <trkpt lat="45.1701" lon="5.63631">
        <ele>1144.6</ele>
        <time>2021-04-23T08:45:46.000Z</time>
      </trkpt>
      <trkpt lat="45.17011" lon="5.63628">
        <ele>1144.8</ele>
        <time>2021-04-23T08:45:47.000Z</time>
      </trkpt>
      <trkpt lat="45.17012" lon="5.63625">
        <ele>1145</ele>
        <time>2021-04-23T08:45:48.000Z</time>
      </trkpt>
      <trkpt lat="45.17014" lon="5.63623">
        <ele>1145.2</ele>
        <time>2021-04-23T08:45:49.000Z</time>
      </trkpt>
      <trkpt lat="45.17015" lon="5.6362">
        <ele>1145.2</ele>
        <time>2021-04-23T08:45:50.000Z</time>
      </trkpt>
      <trkpt lat="45.17017" lon="5.63617">
        <ele>1145.4</ele>
        <time>2021-04-23T08:45:51.000Z</time>
      </trkpt>
      <trkpt lat="45.17019" lon="5.63616">
        <ele>1145.6</ele>
        <time>2021-04-23T08:45:52.000Z</time>
      </trkpt>
      <trkpt lat="45.17022" lon="5.63613">
        <ele>1145.6</ele>
        <time>2021-04-23T08:45:53.000Z</time>
      </trkpt>
      <trkpt lat="45.17023" lon="5.63611">
        <ele>1145.8</ele>
        <time>2021-04-23T08:45:54.000Z</time>
      </trkpt>
      <trkpt lat="45.17025" lon="5.63609">
        <ele>1146</ele>
        <time>2021-04-23T08:45:55.000Z</time>
      </trkpt>
      <trkpt lat="45.17025" lon="5.63607">
        <ele>1146</ele>
        <time>2021-04-23T08:45:56.000Z</time>
      </trkpt>
      <trkpt lat="45.17026" lon="5.63604">
        <ele>1146.4</ele>
        <time>2021-04-23T08:45:57.000Z</time>
      </trkpt>
      <trkpt lat="45.17027" lon="5.63602">
        <ele>1146.6</ele>
        <time>2021-04-23T08:45:58.000Z</time>
      </trkpt>
      <trkpt lat="45.17027" lon="5.63599">
        <ele>1146.6</ele>
        <time>2021-04-23T08:45:59.000Z</time>
      </trkpt>
      <trkpt lat="45.17028" lon="5.63597">
        <ele>1146.8</ele>
        <time>2021-04-23T08:46:00.000Z</time>
      </trkpt>
      <trkpt lat="45.17029" lon="5.63595">
        <ele>1146.8</ele>
        <time>2021-04-23T08:46:01.000Z</time>
      </trkpt>
      <trkpt lat="45.1703" lon="5.63593">
        <ele>1147</ele>
        <time>2021-04-23T08:46:02.000Z</time>
      </trkpt>
      <trkpt lat="45.17032" lon="5.63591">
        <ele>1147.2</ele>
        <time>2021-04-23T08:46:03.000Z</time>
      </trkpt>
      <trkpt lat="45.17033" lon="5.63588">
        <ele>1147.2</ele>
        <time>2021-04-23T08:46:04.000Z</time>
      </trkpt>
      <trkpt lat="45.17035" lon="5.63586">
        <ele>1147.4</ele>
        <time>2021-04-23T08:46:05.000Z</time>
      </trkpt>
      <trkpt lat="45.17037" lon="5.63584">
        <ele>1147.6</ele>
        <time>2021-04-23T08:46:06.000Z</time>
      </trkpt>
      <trkpt lat="45.17038" lon="5.63582">
        <ele>1147.8</ele>
        <time>2021-04-23T08:46:07.000Z</time>
      </trkpt>
      <trkpt lat="45.1704" lon="5.6358">
        <ele>1148</ele>
        <time>2021-04-23T08:46:08.000Z</time>
      </trkpt>
      <trkpt lat="45.17042" lon="5.63579">
        <ele>1148.2</ele>
        <time>2021-04-23T08:46:09.000Z</time>
      </trkpt>
      <trkpt lat="45.17043" lon="5.63576">
        <ele>1148.4</ele>
        <time>2021-04-23T08:46:10.000Z</time>
      </trkpt>
      <trkpt lat="45.17045" lon="5.63574">
        <ele>1148.4</ele>
        <time>2021-04-23T08:46:11.000Z</time>
      </trkpt>
      <trkpt lat="45.17046" lon="5.63573">
        <ele>1148.6</ele>
        <time>2021-04-23T08:46:12.000Z</time>
      </trkpt>
      <trkpt lat="45.17049" lon="5.63571">
        <ele>1148.8</ele>
        <time>2021-04-23T08:46:13.000Z</time>
      </trkpt>
      <trkpt lat="45.17053" lon="5.63569">
        <ele>1149</ele>
        <time>2021-04-23T08:46:14.000Z</time>
      </trkpt>
      <trkpt lat="45.17057" lon="5.63567">
        <ele>1149.2</ele>
        <time>2021-04-23T08:46:15.000Z</time>
      </trkpt>
      <trkpt lat="45.1706" lon="5.63564">
        <ele>1149.4</ele>
        <time>2021-04-23T08:46:16.000Z</time>
      </trkpt>
      <trkpt lat="45.17061" lon="5.63563">
        <ele>1149.6</ele>
        <time>2021-04-23T08:46:17.000Z</time>
      </trkpt>
      <trkpt lat="45.17063" lon="5.63562">
        <ele>1149.6</ele>
        <time>2021-04-23T08:46:18.000Z</time>
      </trkpt>
      <trkpt lat="45.17065" lon="5.63561">
        <ele>1149.6</ele>
        <time>2021-04-23T08:46:19.000Z</time>
      </trkpt>
      <trkpt lat="45.17065" lon="5.63561">
        <ele>1149.8</ele>
        <time>2021-04-23T08:46:20.000Z</time>
      </trkpt>
      <trkpt lat="45.17066" lon="5.6356">
        <ele>1150</ele>
        <time>2021-04-23T08:46:21.000Z</time>
      </trkpt>
      <trkpt lat="45.17067" lon="5.6356">
        <ele>1150.2</ele>
        <time>2021-04-23T08:46:22.000Z</time>
      </trkpt>
      <trkpt lat="45.17069" lon="5.6356">
        <ele>1150.2</ele>
        <time>2021-04-23T08:46:23.000Z</time>
      </trkpt>
      <trkpt lat="45.17073" lon="5.63559">
        <ele>1150.4</ele>
        <time>2021-04-23T08:46:24.000Z</time>
      </trkpt>
      <trkpt lat="45.17076" lon="5.63558">
        <ele>1150.4</ele>
        <time>2021-04-23T08:46:25.000Z</time>
      </trkpt>
      <trkpt lat="45.17079" lon="5.63558">
        <ele>1150.6</ele>
        <time>2021-04-23T08:46:26.000Z</time>
      </trkpt>
      <trkpt lat="45.17083" lon="5.63556">
        <ele>1150.6</ele>
        <time>2021-04-23T08:46:27.000Z</time>
      </trkpt>
      <trkpt lat="45.17086" lon="5.63554">
        <ele>1150.8</ele>
        <time>2021-04-23T08:46:28.000Z</time>
      </trkpt>
      <trkpt lat="45.17089" lon="5.63555">
        <ele>1151</ele>
        <time>2021-04-23T08:46:29.000Z</time>
      </trkpt>
      <trkpt lat="45.17092" lon="5.63554">
        <ele>1151.2</ele>
        <time>2021-04-23T08:46:30.000Z</time>
      </trkpt>
      <trkpt lat="45.17096" lon="5.63555">
        <ele>1151.4</ele>
        <time>2021-04-23T08:46:31.000Z</time>
      </trkpt>
      <trkpt lat="45.171" lon="5.63556">
        <ele>1151.4</ele>
        <time>2021-04-23T08:46:32.000Z</time>
      </trkpt>
      <trkpt lat="45.17102" lon="5.63556">
        <ele>1151.6</ele>
        <time>2021-04-23T08:46:33.000Z</time>
      </trkpt>
      <trkpt lat="45.17104" lon="5.63555">
        <ele>1151.8</ele>
        <time>2021-04-23T08:46:34.000Z</time>
      </trkpt>
      <trkpt lat="45.17108" lon="5.63555">
        <ele>1152</ele>
        <time>2021-04-23T08:46:35.000Z</time>
      </trkpt>
      <trkpt lat="45.17111" lon="5.63555">
        <ele>1152.2</ele>
        <time>2021-04-23T08:46:36.000Z</time>
      </trkpt>
      <trkpt lat="45.17113" lon="5.63556">
        <ele>1152.2</ele>
        <time>2021-04-23T08:46:37.000Z</time>
      </trkpt>
      <trkpt lat="45.17115" lon="5.63556">
        <ele>1152.4</ele>
        <time>2021-04-23T08:46:38.000Z</time>
      </trkpt>
      <trkpt lat="45.17116" lon="5.63556">
        <ele>1152.6</ele>
        <time>2021-04-23T08:46:39.000Z</time>
      </trkpt>
      <trkpt lat="45.17117" lon="5.63556">
        <ele>1152.8</ele>
        <time>2021-04-23T08:46:40.000Z</time>
      </trkpt>
      <trkpt lat="45.17121" lon="5.63556">
        <ele>1153</ele>
        <time>2021-04-23T08:46:41.000Z</time>
      </trkpt>
      <trkpt lat="45.17125" lon="5.63555">
        <ele>1153</ele>
        <time>2021-04-23T08:46:42.000Z</time>
      </trkpt>
      <trkpt lat="45.17126" lon="5.63554">
        <ele>1153.4</ele>
        <time>2021-04-23T08:46:43.000Z</time>
      </trkpt>
      <trkpt lat="45.17128" lon="5.63553">
        <ele>1153.6</ele>
        <time>2021-04-23T08:46:44.000Z</time>
      </trkpt>
      <trkpt lat="45.1713" lon="5.63552">
        <ele>1153.8</ele>
        <time>2021-04-23T08:46:45.000Z</time>
      </trkpt>
      <trkpt lat="45.17136" lon="5.63552">
        <ele>1154.2</ele>
        <time>2021-04-23T08:46:46.000Z</time>
      </trkpt>
      <trkpt lat="45.17139" lon="5.63552">
        <ele>1154.4</ele>
        <time>2021-04-23T08:46:47.000Z</time>
      </trkpt>
      <trkpt lat="45.17144" lon="5.63551">
        <ele>1154.6</ele>
        <time>2021-04-23T08:46:48.000Z</time>
      </trkpt>
      <trkpt lat="45.17146" lon="5.63551">
        <ele>1154.8</ele>
        <time>2021-04-23T08:46:49.000Z</time>
      </trkpt>
      <trkpt lat="45.17151" lon="5.63551">
        <ele>1155</ele>
        <time>2021-04-23T08:46:50.000Z</time>
      </trkpt>
      <trkpt lat="45.17154" lon="5.63551">
        <ele>1155.2</ele>
        <time>2021-04-23T08:46:51.000Z</time>
      </trkpt>
      <trkpt lat="45.17157" lon="5.63549">
        <ele>1155.4</ele>
        <time>2021-04-23T08:46:52.000Z</time>
      </trkpt>
      <trkpt lat="45.17159" lon="5.63547">
        <ele>1155.4</ele>
        <time>2021-04-23T08:46:53.000Z</time>
      </trkpt>
      <trkpt lat="45.17161" lon="5.63545">
        <ele>1155.6</ele>
        <time>2021-04-23T08:46:54.000Z</time>
      </trkpt>
      <trkpt lat="45.17163" lon="5.63543">
        <ele>1155.8</ele>
        <time>2021-04-23T08:46:55.000Z</time>
      </trkpt>
      <trkpt lat="45.17166" lon="5.63543">
        <ele>1156</ele>
        <time>2021-04-23T08:46:56.000Z</time>
      </trkpt>
      <trkpt lat="45.17168" lon="5.63541">
        <ele>1156</ele>
        <time>2021-04-23T08:46:57.000Z</time>
      </trkpt>
      <trkpt lat="45.17172" lon="5.63538">
        <ele>1156.2</ele>
        <time>2021-04-23T08:46:58.000Z</time>
      </trkpt>
      <trkpt lat="45.17175" lon="5.63534">
        <ele>1156.4</ele>
        <time>2021-04-23T08:46:59.000Z</time>
      </trkpt>
      <trkpt lat="45.17179" lon="5.6353">
        <ele>1156.6</ele>
        <time>2021-04-23T08:47:00.000Z</time>
      </trkpt>
      <trkpt lat="45.17181" lon="5.63527">
        <ele>1156.6</ele>
        <time>2021-04-23T08:47:01.000Z</time>
      </trkpt>
      <trkpt lat="45.17183" lon="5.63524">
        <ele>1156.8</ele>
        <time>2021-04-23T08:47:02.000Z</time>
      </trkpt>
      <trkpt lat="45.17184" lon="5.63522">
        <ele>1157</ele>
        <time>2021-04-23T08:47:03.000Z</time>
      </trkpt>
      <trkpt lat="45.17185" lon="5.63519">
        <ele>1157.2</ele>
        <time>2021-04-23T08:47:04.000Z</time>
      </trkpt>
      <trkpt lat="45.17187" lon="5.63516">
        <ele>1157.4</ele>
        <time>2021-04-23T08:47:05.000Z</time>
      </trkpt>
      <trkpt lat="45.17188" lon="5.63513">
        <ele>1157.6</ele>
        <time>2021-04-23T08:47:06.000Z</time>
      </trkpt>
      <trkpt lat="45.1719" lon="5.63511">
        <ele>1157.8</ele>
        <time>2021-04-23T08:47:07.000Z</time>
      </trkpt>
      <trkpt lat="45.17191" lon="5.63507">
        <ele>1158</ele>
        <time>2021-04-23T08:47:08.000Z</time>
      </trkpt>
      <trkpt lat="45.17192" lon="5.63504">
        <ele>1158</ele>
        <time>2021-04-23T08:47:09.000Z</time>
      </trkpt>
      <trkpt lat="45.17193" lon="5.635">
        <ele>1158.2</ele>
        <time>2021-04-23T08:47:10.000Z</time>
      </trkpt>
      <trkpt lat="45.17194" lon="5.63496">
        <ele>1158.2</ele>
        <time>2021-04-23T08:47:11.000Z</time>
      </trkpt>
      <trkpt lat="45.17195" lon="5.63492">
        <ele>1158.4</ele>
        <time>2021-04-23T08:47:12.000Z</time>
      </trkpt>
      <trkpt lat="45.17195" lon="5.63489">
        <ele>1158.6</ele>
        <time>2021-04-23T08:47:13.000Z</time>
      </trkpt>
      <trkpt lat="45.17196" lon="5.63486">
        <ele>1158.8</ele>
        <time>2021-04-23T08:47:14.000Z</time>
      </trkpt>
      <trkpt lat="45.17196" lon="5.63482">
        <ele>1159</ele>
        <time>2021-04-23T08:47:15.000Z</time>
      </trkpt>
      <trkpt lat="45.17197" lon="5.63479">
        <ele>1159.2</ele>
        <time>2021-04-23T08:47:16.000Z</time>
      </trkpt>
      <trkpt lat="45.17198" lon="5.63476">
        <ele>1159.4</ele>
        <time>2021-04-23T08:47:17.000Z</time>
      </trkpt>
      <trkpt lat="45.17199" lon="5.63473">
        <ele>1159.4</ele>
        <time>2021-04-23T08:47:18.000Z</time>
      </trkpt>
      <trkpt lat="45.17199" lon="5.6347">
        <ele>1159.6</ele>
        <time>2021-04-23T08:47:19.000Z</time>
      </trkpt>
      <trkpt lat="45.17199" lon="5.63467">
        <ele>1159.8</ele>
        <time>2021-04-23T08:47:20.000Z</time>
      </trkpt>
      <trkpt lat="45.172" lon="5.63463">
        <ele>1160</ele>
        <time>2021-04-23T08:47:21.000Z</time>
      </trkpt>
      <trkpt lat="45.17199" lon="5.6346">
        <ele>1160</ele>
        <time>2021-04-23T08:47:22.000Z</time>
      </trkpt>
      <trkpt lat="45.17198" lon="5.63456">
        <ele>1160.2</ele>
        <time>2021-04-23T08:47:23.000Z</time>
      </trkpt>
      <trkpt lat="45.17197" lon="5.63452">
        <ele>1160.2</ele>
        <time>2021-04-23T08:47:24.000Z</time>
      </trkpt>
      <trkpt lat="45.17196" lon="5.63448">
        <ele>1160.2</ele>
        <time>2021-04-23T08:47:25.000Z</time>
      </trkpt>
      <trkpt lat="45.17195" lon="5.63444">
        <ele>1160.6</ele>
        <time>2021-04-23T08:47:26.000Z</time>
      </trkpt>
      <trkpt lat="45.17194" lon="5.6344">
        <ele>1160.6</ele>
        <time>2021-04-23T08:47:27.000Z</time>
      </trkpt>
      <trkpt lat="45.17193" lon="5.63436">
        <ele>1160.8</ele>
        <time>2021-04-23T08:47:28.000Z</time>
      </trkpt>
      <trkpt lat="45.17192" lon="5.63432">
        <ele>1160.8</ele>
        <time>2021-04-23T08:47:29.000Z</time>
      </trkpt>
      <trkpt lat="45.17191" lon="5.63428">
        <ele>1161</ele>
        <time>2021-04-23T08:47:30.000Z</time>
      </trkpt>
      <trkpt lat="45.1719" lon="5.63424">
        <ele>1161.4</ele>
        <time>2021-04-23T08:47:31.000Z</time>
      </trkpt>
      <trkpt lat="45.17189" lon="5.6342">
        <ele>1161.6</ele>
        <time>2021-04-23T08:47:32.000Z</time>
      </trkpt>
      <trkpt lat="45.17188" lon="5.63416">
        <ele>1161.6</ele>
        <time>2021-04-23T08:47:33.000Z</time>
      </trkpt>
      <trkpt lat="45.17187" lon="5.63412">
        <ele>1161.8</ele>
        <time>2021-04-23T08:47:34.000Z</time>
      </trkpt>
      <trkpt lat="45.17186" lon="5.63408">
        <ele>1161.8</ele>
        <time>2021-04-23T08:47:35.000Z</time>
      </trkpt>
      <trkpt lat="45.17185" lon="5.63405">
        <ele>1162</ele>
        <time>2021-04-23T08:47:36.000Z</time>
      </trkpt>
      <trkpt lat="45.17183" lon="5.63401">
        <ele>1162.2</ele>
        <time>2021-04-23T08:47:37.000Z</time>
      </trkpt>
      <trkpt lat="45.17182" lon="5.63398">
        <ele>1162.2</ele>
        <time>2021-04-23T08:47:38.000Z</time>
      </trkpt>
      <trkpt lat="45.17181" lon="5.63395">
        <ele>1162.6</ele>
        <time>2021-04-23T08:47:39.000Z</time>
      </trkpt>
      <trkpt lat="45.1718" lon="5.63392">
        <ele>1162.8</ele>
        <time>2021-04-23T08:47:40.000Z</time>
      </trkpt>
      <trkpt lat="45.1718" lon="5.63389">
        <ele>1162.8</ele>
        <time>2021-04-23T08:47:41.000Z</time>
      </trkpt>
      <trkpt lat="45.17178" lon="5.63386">
        <ele>1163</ele>
        <time>2021-04-23T08:47:42.000Z</time>
      </trkpt>
      <trkpt lat="45.17177" lon="5.63382">
        <ele>1163.2</ele>
        <time>2021-04-23T08:47:43.000Z</time>
      </trkpt>
      <trkpt lat="45.17177" lon="5.63378">
        <ele>1163.2</ele>
        <time>2021-04-23T08:47:44.000Z</time>
      </trkpt>
      <trkpt lat="45.17176" lon="5.63374">
        <ele>1163.4</ele>
        <time>2021-04-23T08:47:45.000Z</time>
      </trkpt>
      <trkpt lat="45.17176" lon="5.63369">
        <ele>1163.6</ele>
        <time>2021-04-23T08:47:46.000Z</time>
      </trkpt>
      <trkpt lat="45.17175" lon="5.63365">
        <ele>1163.8</ele>
        <time>2021-04-23T08:47:47.000Z</time>
      </trkpt>
      <trkpt lat="45.17175" lon="5.63361">
        <ele>1163.8</ele>
        <time>2021-04-23T08:47:48.000Z</time>
      </trkpt>
      <trkpt lat="45.17174" lon="5.63356">
        <ele>1164</ele>
        <time>2021-04-23T08:47:49.000Z</time>
      </trkpt>
      <trkpt lat="45.17175" lon="5.63352">
        <ele>1164.2</ele>
        <time>2021-04-23T08:47:50.000Z</time>
      </trkpt>
      <trkpt lat="45.17175" lon="5.63347">
        <ele>1164.2</ele>
        <time>2021-04-23T08:47:51.000Z</time>
      </trkpt>
      <trkpt lat="45.17175" lon="5.63343">
        <ele>1164.4</ele>
        <time>2021-04-23T08:47:52.000Z</time>
      </trkpt>
      <trkpt lat="45.17174" lon="5.63337">
        <ele>1164.6</ele>
        <time>2021-04-23T08:47:53.000Z</time>
      </trkpt>
      <trkpt lat="45.17173" lon="5.63332">
        <ele>1164.6</ele>
        <time>2021-04-23T08:47:54.000Z</time>
      </trkpt>
      <trkpt lat="45.17173" lon="5.63327">
        <ele>1164.8</ele>
        <time>2021-04-23T08:47:55.000Z</time>
      </trkpt>
      <trkpt lat="45.17174" lon="5.63322">
        <ele>1164.8</ele>
        <time>2021-04-23T08:47:56.000Z</time>
      </trkpt>
      <trkpt lat="45.17174" lon="5.63317">
        <ele>1165</ele>
        <time>2021-04-23T08:47:57.000Z</time>
      </trkpt>
      <trkpt lat="45.17175" lon="5.63314">
        <ele>1165</ele>
        <time>2021-04-23T08:47:58.000Z</time>
      </trkpt>
      <trkpt lat="45.17176" lon="5.6331">
        <ele>1165.2</ele>
        <time>2021-04-23T08:47:59.000Z</time>
      </trkpt>
      <trkpt lat="45.17175" lon="5.63306">
        <ele>1165.4</ele>
        <time>2021-04-23T08:48:00.000Z</time>
      </trkpt>
      <trkpt lat="45.17175" lon="5.63302">
        <ele>1165.6</ele>
        <time>2021-04-23T08:48:01.000Z</time>
      </trkpt>
      <trkpt lat="45.17176" lon="5.63299">
        <ele>1165.6</ele>
        <time>2021-04-23T08:48:02.000Z</time>
      </trkpt>
      <trkpt lat="45.17176" lon="5.63295">
        <ele>1165.8</ele>
        <time>2021-04-23T08:48:03.000Z</time>
      </trkpt>
      <trkpt lat="45.17177" lon="5.63289">
        <ele>1166</ele>
        <time>2021-04-23T08:48:04.000Z</time>
      </trkpt>
      <trkpt lat="45.17177" lon="5.63285">
        <ele>1166.2</ele>
        <time>2021-04-23T08:48:05.000Z</time>
      </trkpt>
      <trkpt lat="45.17177" lon="5.63281">
        <ele>1166.4</ele>
        <time>2021-04-23T08:48:06.000Z</time>
      </trkpt>
      <trkpt lat="45.17178" lon="5.63277">
        <ele>1166.6</ele>
        <time>2021-04-23T08:48:07.000Z</time>
      </trkpt>
      <trkpt lat="45.17178" lon="5.63273">
        <ele>1166.8</ele>
        <time>2021-04-23T08:48:08.000Z</time>
      </trkpt>
      <trkpt lat="45.17179" lon="5.63268">
        <ele>1166.8</ele>
        <time>2021-04-23T08:48:09.000Z</time>
      </trkpt>
      <trkpt lat="45.17179" lon="5.63264">
        <ele>1167</ele>
        <time>2021-04-23T08:48:10.000Z</time>
      </trkpt>
      <trkpt lat="45.17179" lon="5.63261">
        <ele>1167.2</ele>
        <time>2021-04-23T08:48:11.000Z</time>
      </trkpt>
      <trkpt lat="45.17179" lon="5.63257">
        <ele>1167.2</ele>
        <time>2021-04-23T08:48:12.000Z</time>
      </trkpt>
      <trkpt lat="45.17179" lon="5.63253">
        <ele>1167.4</ele>
        <time>2021-04-23T08:48:13.000Z</time>
      </trkpt>
      <trkpt lat="45.1718" lon="5.63249">
        <ele>1167.6</ele>
        <time>2021-04-23T08:48:14.000Z</time>
      </trkpt>
      <trkpt lat="45.1718" lon="5.63246">
        <ele>1167.8</ele>
        <time>2021-04-23T08:48:15.000Z</time>
      </trkpt>
      <trkpt lat="45.17181" lon="5.63242">
        <ele>1167.8</ele>
        <time>2021-04-23T08:48:16.000Z</time>
      </trkpt>
      <trkpt lat="45.17181" lon="5.63238">
        <ele>1168</ele>
        <time>2021-04-23T08:48:17.000Z</time>
      </trkpt>
      <trkpt lat="45.17181" lon="5.63234">
        <ele>1168.2</ele>
        <time>2021-04-23T08:48:18.000Z</time>
      </trkpt>
      <trkpt lat="45.17181" lon="5.63231">
        <ele>1168.2</ele>
        <time>2021-04-23T08:48:19.000Z</time>
      </trkpt>
      <trkpt lat="45.17182" lon="5.63227">
        <ele>1168.4</ele>
        <time>2021-04-23T08:48:20.000Z</time>
      </trkpt>
      <trkpt lat="45.17182" lon="5.63223">
        <ele>1168.4</ele>
        <time>2021-04-23T08:48:21.000Z</time>
      </trkpt>
      <trkpt lat="45.17182" lon="5.63219">
        <ele>1168.4</ele>
        <time>2021-04-23T08:48:22.000Z</time>
      </trkpt>
      <trkpt lat="45.17182" lon="5.63216">
        <ele>1168.6</ele>
        <time>2021-04-23T08:48:23.000Z</time>
      </trkpt>
      <trkpt lat="45.17182" lon="5.63211">
        <ele>1168.6</ele>
        <time>2021-04-23T08:48:24.000Z</time>
      </trkpt>
      <trkpt lat="45.17182" lon="5.63208">
        <ele>1168.8</ele>
        <time>2021-04-23T08:48:25.000Z</time>
      </trkpt>
      <trkpt lat="45.17182" lon="5.63204">
        <ele>1168.8</ele>
        <time>2021-04-23T08:48:26.000Z</time>
      </trkpt>
      <trkpt lat="45.17181" lon="5.632">
        <ele>1169</ele>
        <time>2021-04-23T08:48:27.000Z</time>
      </trkpt>
      <trkpt lat="45.17181" lon="5.63196">
        <ele>1169</ele>
        <time>2021-04-23T08:48:28.000Z</time>
      </trkpt>
      <trkpt lat="45.17181" lon="5.63193">
        <ele>1169</ele>
        <time>2021-04-23T08:48:29.000Z</time>
      </trkpt>
      <trkpt lat="45.1718" lon="5.63189">
        <ele>1169.2</ele>
        <time>2021-04-23T08:48:30.000Z</time>
      </trkpt>
      <trkpt lat="45.1718" lon="5.63187">
        <ele>1169.2</ele>
        <time>2021-04-23T08:48:31.000Z</time>
      </trkpt>
      <trkpt lat="45.1718" lon="5.63184">
        <ele>1169.4</ele>
        <time>2021-04-23T08:48:32.000Z</time>
      </trkpt>
      <trkpt lat="45.1718" lon="5.6318">
        <ele>1169.4</ele>
        <time>2021-04-23T08:48:33.000Z</time>
      </trkpt>
      <trkpt lat="45.17179" lon="5.63177">
        <ele>1169.4</ele>
        <time>2021-04-23T08:48:34.000Z</time>
      </trkpt>
      <trkpt lat="45.17179" lon="5.63173">
        <ele>1169.4</ele>
        <time>2021-04-23T08:48:35.000Z</time>
      </trkpt>
      <trkpt lat="45.17178" lon="5.63169">
        <ele>1169.6</ele>
        <time>2021-04-23T08:48:36.000Z</time>
      </trkpt>
      <trkpt lat="45.17178" lon="5.63165">
        <ele>1169.6</ele>
        <time>2021-04-23T08:48:37.000Z</time>
      </trkpt>
      <trkpt lat="45.17177" lon="5.63161">
        <ele>1169.8</ele>
        <time>2021-04-23T08:48:38.000Z</time>
      </trkpt>
      <trkpt lat="45.17177" lon="5.63157">
        <ele>1169.8</ele>
        <time>2021-04-23T08:48:39.000Z</time>
      </trkpt>
      <trkpt lat="45.17176" lon="5.63153">
        <ele>1170</ele>
        <time>2021-04-23T08:48:40.000Z</time>
      </trkpt>
      <trkpt lat="45.17174" lon="5.63141">
        <ele>1170.4</ele>
        <time>2021-04-23T08:48:43.000Z</time>
      </trkpt>
      <trkpt lat="45.17172" lon="5.63129">
        <ele>1170.6</ele>
        <time>2021-04-23T08:48:46.000Z</time>
      </trkpt>
      <trkpt lat="45.17171" lon="5.63125">
        <ele>1170.6</ele>
        <time>2021-04-23T08:48:47.000Z</time>
      </trkpt>
      <trkpt lat="45.17169" lon="5.63121">
        <ele>1170.8</ele>
        <time>2021-04-23T08:48:48.000Z</time>
      </trkpt>
      <trkpt lat="45.17168" lon="5.63119">
        <ele>1170.8</ele>
        <time>2021-04-23T08:48:49.000Z</time>
      </trkpt>
      <trkpt lat="45.17165" lon="5.63113">
        <ele>1171.2</ele>
        <time>2021-04-23T08:48:51.000Z</time>
      </trkpt>
      <trkpt lat="45.17164" lon="5.6311">
        <ele>1171.4</ele>
        <time>2021-04-23T08:48:52.000Z</time>
      </trkpt>
      <trkpt lat="45.17162" lon="5.63107">
        <ele>1171.4</ele>
        <time>2021-04-23T08:48:53.000Z</time>
      </trkpt>
      <trkpt lat="45.1716" lon="5.63104">
        <ele>1171.4</ele>
        <time>2021-04-23T08:48:54.000Z</time>
      </trkpt>
      <trkpt lat="45.17159" lon="5.63102">
        <ele>1171.4</ele>
        <time>2021-04-23T08:48:55.000Z</time>
      </trkpt>
      <trkpt lat="45.17157" lon="5.631">
        <ele>1171.4</ele>
        <time>2021-04-23T08:48:56.000Z</time>
      </trkpt>
      <trkpt lat="45.17152" lon="5.63096">
        <ele>1171.4</ele>
        <time>2021-04-23T08:48:58.000Z</time>
      </trkpt>
      <trkpt lat="45.1715" lon="5.63094">
        <ele>1171.4</ele>
        <time>2021-04-23T08:48:59.000Z</time>
      </trkpt>
      <trkpt lat="45.17149" lon="5.63093">
        <ele>1171.2</ele>
        <time>2021-04-23T08:49:00.000Z</time>
      </trkpt>
      <trkpt lat="45.17147" lon="5.63092">
        <ele>1171.2</ele>
        <time>2021-04-23T08:49:01.000Z</time>
      </trkpt>
      <trkpt lat="45.17145" lon="5.63091">
        <ele>1171.2</ele>
        <time>2021-04-23T08:49:02.000Z</time>
      </trkpt>
      <trkpt lat="45.17135" lon="5.63087">
        <ele>1171</ele>
        <time>2021-04-23T08:49:07.000Z</time>
      </trkpt>
      <trkpt lat="45.17133" lon="5.63084">
        <ele>1170.8</ele>
        <time>2021-04-23T08:49:08.000Z</time>
      </trkpt>
      <trkpt lat="45.17131" lon="5.63083">
        <ele>1170.8</ele>
        <time>2021-04-23T08:49:09.000Z</time>
      </trkpt>
      <trkpt lat="45.1713" lon="5.63083">
        <ele>1170.6</ele>
        <time>2021-04-23T08:49:10.000Z</time>
      </trkpt>
      <trkpt lat="45.17128" lon="5.63083">
        <ele>1170.6</ele>
        <time>2021-04-23T08:49:11.000Z</time>
      </trkpt>
      <trkpt lat="45.17127" lon="5.63083">
        <ele>1170.6</ele>
        <time>2021-04-23T08:49:12.000Z</time>
      </trkpt>
      <trkpt lat="45.17121" lon="5.6308">
        <ele>1170.6</ele>
        <time>2021-04-23T08:49:16.000Z</time>
      </trkpt>
      <trkpt lat="45.17118" lon="5.63078">
        <ele>1170.8</ele>
        <time>2021-04-23T08:49:18.000Z</time>
      </trkpt>
      <trkpt lat="45.17115" lon="5.63078">
        <ele>1170.8</ele>
        <time>2021-04-23T08:49:20.000Z</time>
      </trkpt>
      <trkpt lat="45.17107" lon="5.63077">
        <ele>1170.8</ele>
        <time>2021-04-23T08:49:25.000Z</time>
      </trkpt>
      <trkpt lat="45.17104" lon="5.63077">
        <ele>1170.8</ele>
        <time>2021-04-23T08:49:26.000Z</time>
      </trkpt>
      <trkpt lat="45.17093" lon="5.63074">
        <ele>1170.4</ele>
        <time>2021-04-23T08:49:31.000Z</time>
      </trkpt>
      <trkpt lat="45.17085" lon="5.6307">
        <ele>1170.4</ele>
        <time>2021-04-23T08:49:34.000Z</time>
      </trkpt>
      <trkpt lat="45.1708" lon="5.63067">
        <ele>1170.4</ele>
        <time>2021-04-23T08:49:36.000Z</time>
      </trkpt>
      <trkpt lat="45.17073" lon="5.63061">
        <ele>1170.4</ele>
        <time>2021-04-23T08:49:39.000Z</time>
      </trkpt>
      <trkpt lat="45.17071" lon="5.63059">
        <ele>1170.4</ele>
        <time>2021-04-23T08:49:40.000Z</time>
      </trkpt>
      <trkpt lat="45.17069" lon="5.63055">
        <ele>1170.4</ele>
        <time>2021-04-23T08:49:41.000Z</time>
      </trkpt>
      <trkpt lat="45.17068" lon="5.63052">
        <ele>1170.4</ele>
        <time>2021-04-23T08:49:42.000Z</time>
      </trkpt>
      <trkpt lat="45.17067" lon="5.63048">
        <ele>1170.6</ele>
        <time>2021-04-23T08:49:43.000Z</time>
      </trkpt>
      <trkpt lat="45.17067" lon="5.63045">
        <ele>1170.4</ele>
        <time>2021-04-23T08:49:44.000Z</time>
      </trkpt>
      <trkpt lat="45.17065" lon="5.63037">
        <ele>1170.8</ele>
        <time>2021-04-23T08:49:46.000Z</time>
      </trkpt>
      <trkpt lat="45.17062" lon="5.6303">
        <ele>1170.8</ele>
        <time>2021-04-23T08:49:48.000Z</time>
      </trkpt>
      <trkpt lat="45.1706" lon="5.63026">
        <ele>1170.8</ele>
        <time>2021-04-23T08:49:49.000Z</time>
      </trkpt>
      <trkpt lat="45.17058" lon="5.63023">
        <ele>1170.8</ele>
        <time>2021-04-23T08:49:50.000Z</time>
      </trkpt>
      <trkpt lat="45.17054" lon="5.63018">
        <ele>1170.8</ele>
        <time>2021-04-23T08:49:52.000Z</time>
      </trkpt>
      <trkpt lat="45.17051" lon="5.63014">
        <ele>1170.8</ele>
        <time>2021-04-23T08:49:54.000Z</time>
      </trkpt>
      <trkpt lat="45.17037" lon="5.63005">
        <ele>1171.2</ele>
        <time>2021-04-23T08:49:59.000Z</time>
      </trkpt>
      <trkpt lat="45.17034" lon="5.63005">
        <ele>1171.2</ele>
        <time>2021-04-23T08:50:00.000Z</time>
      </trkpt>
      <trkpt lat="45.17031" lon="5.63005">
        <ele>1171.2</ele>
        <time>2021-04-23T08:50:01.000Z</time>
      </trkpt>
      <trkpt lat="45.17012" lon="5.63008">
        <ele>1171.4</ele>
        <time>2021-04-23T08:50:07.000Z</time>
      </trkpt>
      <trkpt lat="45.17003" lon="5.63011">
        <ele>1171.6</ele>
        <time>2021-04-23T08:50:10.000Z</time>
      </trkpt>
      <trkpt lat="45.17" lon="5.63012">
        <ele>1171.8</ele>
        <time>2021-04-23T08:50:11.000Z</time>
      </trkpt>
      <trkpt lat="45.16996" lon="5.63012">
        <ele>1172</ele>
        <time>2021-04-23T08:50:12.000Z</time>
      </trkpt>
      <trkpt lat="45.16991" lon="5.63013">
        <ele>1172.4</ele>
        <time>2021-04-23T08:50:14.000Z</time>
      </trkpt>
      <trkpt lat="45.16988" lon="5.63013">
        <ele>1172.4</ele>
        <time>2021-04-23T08:50:15.000Z</time>
      </trkpt>
      <trkpt lat="45.16985" lon="5.63013">
        <ele>1172.6</ele>
        <time>2021-04-23T08:50:16.000Z</time>
      </trkpt>
      <trkpt lat="45.16983" lon="5.63013">
        <ele>1172.6</ele>
        <time>2021-04-23T08:50:17.000Z</time>
      </trkpt>
      <trkpt lat="45.1698" lon="5.63013">
        <ele>1172.8</ele>
        <time>2021-04-23T08:50:18.000Z</time>
      </trkpt>
      <trkpt lat="45.16978" lon="5.63013">
        <ele>1173</ele>
        <time>2021-04-23T08:50:19.000Z</time>
      </trkpt>
      <trkpt lat="45.16975" lon="5.63014">
        <ele>1173</ele>
        <time>2021-04-23T08:50:20.000Z</time>
      </trkpt>
      <trkpt lat="45.16972" lon="5.63014">
        <ele>1173</ele>
        <time>2021-04-23T08:50:21.000Z</time>
      </trkpt>
      <trkpt lat="45.1697" lon="5.63015">
        <ele>1173.2</ele>
        <time>2021-04-23T08:50:22.000Z</time>
      </trkpt>
      <trkpt lat="45.16967" lon="5.63016">
        <ele>1173.4</ele>
        <time>2021-04-23T08:50:23.000Z</time>
      </trkpt>
      <trkpt lat="45.16965" lon="5.63016">
        <ele>1173.4</ele>
        <time>2021-04-23T08:50:24.000Z</time>
      </trkpt>
      <trkpt lat="45.16962" lon="5.63016">
        <ele>1173.6</ele>
        <time>2021-04-23T08:50:25.000Z</time>
      </trkpt>
      <trkpt lat="45.16959" lon="5.63016">
        <ele>1173.8</ele>
        <time>2021-04-23T08:50:26.000Z</time>
      </trkpt>
      <trkpt lat="45.16958" lon="5.63016">
        <ele>1173.8</ele>
        <time>2021-04-23T08:50:27.000Z</time>
      </trkpt>
      <trkpt lat="45.16956" lon="5.63016">
        <ele>1174</ele>
        <time>2021-04-23T08:50:28.000Z</time>
      </trkpt>
      <trkpt lat="45.16953" lon="5.63017">
        <ele>1174.2</ele>
        <time>2021-04-23T08:50:30.000Z</time>
      </trkpt>
      <trkpt lat="45.16952" lon="5.63016">
        <ele>1174.2</ele>
        <time>2021-04-23T08:50:31.000Z</time>
      </trkpt>
      <trkpt lat="45.1695" lon="5.63016">
        <ele>1174.2</ele>
        <time>2021-04-23T08:50:32.000Z</time>
      </trkpt>
      <trkpt lat="45.16948" lon="5.63015">
        <ele>1174.2</ele>
        <time>2021-04-23T08:50:33.000Z</time>
      </trkpt>
      <trkpt lat="45.16947" lon="5.63012">
        <ele>1174.2</ele>
        <time>2021-04-23T08:50:34.000Z</time>
      </trkpt>
      <trkpt lat="45.16946" lon="5.63009">
        <ele>1174.2</ele>
        <time>2021-04-23T08:50:35.000Z</time>
      </trkpt>
      <trkpt lat="45.16945" lon="5.63006">
        <ele>1174.2</ele>
        <time>2021-04-23T08:50:36.000Z</time>
      </trkpt>
      <trkpt lat="45.16944" lon="5.63003">
        <ele>1174</ele>
        <time>2021-04-23T08:50:37.000Z</time>
      </trkpt>
      <trkpt lat="45.16942" lon="5.63001">
        <ele>1174</ele>
        <time>2021-04-23T08:50:38.000Z</time>
      </trkpt>
      <trkpt lat="45.16941" lon="5.63">
        <ele>1174</ele>
        <time>2021-04-23T08:50:39.000Z</time>
      </trkpt>
      <trkpt lat="45.16939" lon="5.62998">
        <ele>1174.2</ele>
        <time>2021-04-23T08:50:40.000Z</time>
      </trkpt>
      <trkpt lat="45.16937" lon="5.62997">
        <ele>1174.4</ele>
        <time>2021-04-23T08:50:41.000Z</time>
      </trkpt>
      <trkpt lat="45.16935" lon="5.62997">
        <ele>1174.6</ele>
        <time>2021-04-23T08:50:42.000Z</time>
      </trkpt>
      <trkpt lat="45.16933" lon="5.62996">
        <ele>1174.6</ele>
        <time>2021-04-23T08:50:43.000Z</time>
      </trkpt>
      <trkpt lat="45.16931" lon="5.62997">
        <ele>1174.6</ele>
        <time>2021-04-23T08:50:44.000Z</time>
      </trkpt>
      <trkpt lat="45.16928" lon="5.62998">
        <ele>1174.8</ele>
        <time>2021-04-23T08:50:46.000Z</time>
      </trkpt>
      <trkpt lat="45.16927" lon="5.63">
        <ele>1174.8</ele>
        <time>2021-04-23T08:50:47.000Z</time>
      </trkpt>
      <trkpt lat="45.16927" lon="5.63003">
        <ele>1174.8</ele>
        <time>2021-04-23T08:50:48.000Z</time>
      </trkpt>
      <trkpt lat="45.16927" lon="5.63006">
        <ele>1174.8</ele>
        <time>2021-04-23T08:50:49.000Z</time>
      </trkpt>
      <trkpt lat="45.16926" lon="5.63008">
        <ele>1175</ele>
        <time>2021-04-23T08:50:50.000Z</time>
      </trkpt>
      <trkpt lat="45.16925" lon="5.63009">
        <ele>1175</ele>
        <time>2021-04-23T08:50:51.000Z</time>
      </trkpt>
      <trkpt lat="45.16923" lon="5.6301">
        <ele>1175</ele>
        <time>2021-04-23T08:50:52.000Z</time>
      </trkpt>
      <trkpt lat="45.16921" lon="5.6301">
        <ele>1175</ele>
        <time>2021-04-23T08:50:53.000Z</time>
      </trkpt>
      <trkpt lat="45.1692" lon="5.6301">
        <ele>1175</ele>
        <time>2021-04-23T08:50:54.000Z</time>
      </trkpt>
      <trkpt lat="45.16918" lon="5.63009">
        <ele>1175</ele>
        <time>2021-04-23T08:50:55.000Z</time>
      </trkpt>
      <trkpt lat="45.16918" lon="5.63009">
        <ele>1175</ele>
        <time>2021-04-23T08:50:56.000Z</time>
      </trkpt>
      <trkpt lat="45.16918" lon="5.63009">
        <ele>1175</ele>
        <time>2021-04-23T08:50:58.000Z</time>
      </trkpt>
      <trkpt lat="45.16916" lon="5.6301">
        <ele>1175.2</ele>
        <time>2021-04-23T08:51:02.000Z</time>
      </trkpt>
      <trkpt lat="45.16916" lon="5.63011">
        <ele>1175.2</ele>
        <time>2021-04-23T08:51:03.000Z</time>
      </trkpt>
      <trkpt lat="45.16916" lon="5.63011">
        <ele>1175</ele>
        <time>2021-04-23T08:51:04.000Z</time>
      </trkpt>
      <trkpt lat="45.16916" lon="5.63011">
        <ele>1175</ele>
        <time>2021-04-23T08:51:05.000Z</time>
      </trkpt>
      <trkpt lat="45.16916" lon="5.63011">
        <ele>1174.4</ele>
        <time>2021-04-23T08:51:14.000Z</time>
      </trkpt>
      <trkpt lat="45.16916" lon="5.63011">
        <ele>1174.2</ele>
        <time>2021-04-23T08:51:20.000Z</time>
      </trkpt>
      <trkpt lat="45.16916" lon="5.63011">
        <ele>1174.2</ele>
        <time>2021-04-23T08:51:22.000Z</time>
      </trkpt>
      <trkpt lat="45.16914" lon="5.63007">
        <ele>1174.4</ele>
        <time>2021-04-23T08:51:29.000Z</time>
      </trkpt>
      <trkpt lat="45.16914" lon="5.63007">
        <ele>1174.4</ele>
        <time>2021-04-23T08:51:30.000Z</time>
      </trkpt>
      <trkpt lat="45.16914" lon="5.63005">
        <ele>1173.8</ele>
        <time>2021-04-23T08:51:45.000Z</time>
      </trkpt>
      <trkpt lat="45.16914" lon="5.63002">
        <ele>1173.8</ele>
        <time>2021-04-23T08:51:47.000Z</time>
      </trkpt>
      <trkpt lat="45.16913" lon="5.63001">
        <ele>1173.8</ele>
        <time>2021-04-23T08:51:48.000Z</time>
      </trkpt>
      <trkpt lat="45.16912" lon="5.63">
        <ele>1173.8</ele>
        <time>2021-04-23T08:51:49.000Z</time>
      </trkpt>
      <trkpt lat="45.16912" lon="5.63">
        <ele>1173.8</ele>
        <time>2021-04-23T08:51:55.000Z</time>
      </trkpt>
      <trkpt lat="45.16912" lon="5.63">
        <ele>1173.6</ele>
        <time>2021-04-23T08:51:56.000Z</time>
      </trkpt>
      <trkpt lat="45.16912" lon="5.63">
        <ele>1173.6</ele>
        <time>2021-04-23T08:52:01.000Z</time>
      </trkpt>
      <trkpt lat="45.16912" lon="5.62998">
        <ele>1173.2</ele>
        <time>2021-04-23T08:52:07.000Z</time>
      </trkpt>
      <trkpt lat="45.16912" lon="5.62998">
        <ele>1173.2</ele>
        <time>2021-04-23T08:52:08.000Z</time>
      </trkpt>
      <trkpt lat="45.16912" lon="5.62998">
        <ele>1173.2</ele>
        <time>2021-04-23T08:52:11.000Z</time>
      </trkpt>
      <trkpt lat="45.16913" lon="5.62998">
        <ele>1172.8</ele>
        <time>2021-04-23T08:52:24.000Z</time>
      </trkpt>
      <trkpt lat="45.16913" lon="5.62997">
        <ele>1172.4</ele>
        <time>2021-04-23T08:52:32.000Z</time>
      </trkpt>
      <trkpt lat="45.16913" lon="5.62997">
        <ele>1172.6</ele>
        <time>2021-04-23T08:52:39.000Z</time>
      </trkpt>
      <trkpt lat="45.16913" lon="5.62997">
        <ele>1172.8</ele>
        <time>2021-04-23T08:52:43.000Z</time>
      </trkpt>
      <trkpt lat="45.16913" lon="5.62998">
        <ele>1172.6</ele>
        <time>2021-04-23T08:52:53.000Z</time>
      </trkpt>
      <trkpt lat="45.16912" lon="5.62999">
        <ele>1172.2</ele>
        <time>2021-04-23T08:53:01.000Z</time>
      </trkpt>
      <trkpt lat="45.16912" lon="5.62999">
        <ele>1172</ele>
        <time>2021-04-23T08:53:09.000Z</time>
      </trkpt>
      <trkpt lat="45.16912" lon="5.62999">
        <ele>1172</ele>
        <time>2021-04-23T08:53:25.000Z</time>
      </trkpt>
      <trkpt lat="45.16912" lon="5.62999">
        <ele>1172</ele>
        <time>2021-04-23T08:53:34.000Z</time>
      </trkpt>
      <trkpt lat="45.16912" lon="5.62999">
        <ele>1172</ele>
        <time>2021-04-23T08:53:38.000Z</time>
      </trkpt>
      <trkpt lat="45.16912" lon="5.62999">
        <ele>1172</ele>
        <time>2021-04-23T08:53:40.000Z</time>
      </trkpt>
      <trkpt lat="45.16912" lon="5.62999">
        <ele>1172</ele>
        <time>2021-04-23T08:53:42.000Z</time>
      </trkpt>
      <trkpt lat="45.16912" lon="5.62999">
        <ele>1172</ele>
        <time>2021-04-23T08:53:43.000Z</time>
      </trkpt>
      <trkpt lat="45.16912" lon="5.62999">
        <ele>1172</ele>
        <time>2021-04-23T08:53:44.000Z</time>
      </trkpt>
      <trkpt lat="45.16912" lon="5.62999">
        <ele>1172</ele>
        <time>2021-04-23T08:53:45.000Z</time>
      </trkpt>
      <trkpt lat="45.16912" lon="5.62999">
        <ele>1172.2</ele>
        <time>2021-04-23T08:53:54.000Z</time>
      </trkpt>
      <trkpt lat="45.16912" lon="5.62999">
        <ele>1172.2</ele>
        <time>2021-04-23T08:53:56.000Z</time>
      </trkpt>
      <trkpt lat="45.16912" lon="5.62999">
        <ele>1172</ele>
        <time>2021-04-23T08:53:58.000Z</time>
      </trkpt>
      <trkpt lat="45.16912" lon="5.62999">
        <ele>1172</ele>
        <time>2021-04-23T08:54:00.000Z</time>
      </trkpt>
      <trkpt lat="45.16912" lon="5.62999">
        <ele>1171.8</ele>
        <time>2021-04-23T08:54:02.000Z</time>
      </trkpt>
      <trkpt lat="45.16912" lon="5.62999">
        <ele>1171.8</ele>
        <time>2021-04-23T08:54:14.000Z</time>
      </trkpt>
      <trkpt lat="45.16912" lon="5.62999">
        <ele>1171.8</ele>
        <time>2021-04-23T08:54:20.000Z</time>
      </trkpt>
      <trkpt lat="45.16911" lon="5.62999">
        <ele>1171.8</ele>
        <time>2021-04-23T08:54:23.000Z</time>
      </trkpt>
      <trkpt lat="45.16911" lon="5.62999">
        <ele>1171.8</ele>
        <time>2021-04-23T08:54:26.000Z</time>
      </trkpt>
      <trkpt lat="45.16911" lon="5.62999">
        <ele>1171.8</ele>
        <time>2021-04-23T08:54:30.000Z</time>
      </trkpt>
      <trkpt lat="45.16911" lon="5.62999">
        <ele>1171.8</ele>
        <time>2021-04-23T08:54:42.000Z</time>
      </trkpt>
      <trkpt lat="45.16911" lon="5.62999">
        <ele>1171.8</ele>
        <time>2021-04-23T08:54:44.000Z</time>
      </trkpt>
      <trkpt lat="45.16911" lon="5.62999">
        <ele>1171.8</ele>
        <time>2021-04-23T08:54:48.000Z</time>
      </trkpt>
      <trkpt lat="45.16911" lon="5.62998">
        <ele>1171.8</ele>
        <time>2021-04-23T08:55:14.000Z</time>
      </trkpt>
      <trkpt lat="45.16911" lon="5.62998">
        <ele>1171.8</ele>
        <time>2021-04-23T08:55:26.000Z</time>
      </trkpt>
      <trkpt lat="45.16911" lon="5.62998">
        <ele>1171.8</ele>
        <time>2021-04-23T08:55:31.000Z</time>
      </trkpt>
      <trkpt lat="45.16911" lon="5.62998">
        <ele>1171.8</ele>
        <time>2021-04-23T08:55:50.000Z</time>
      </trkpt>
      <trkpt lat="45.16911" lon="5.62998">
        <ele>1171.8</ele>
        <time>2021-04-23T08:55:56.000Z</time>
      </trkpt>
      <trkpt lat="45.16911" lon="5.62998">
        <ele>1171.8</ele>
        <time>2021-04-23T08:56:04.000Z</time>
      </trkpt>
      <trkpt lat="45.16911" lon="5.62998">
        <ele>1171.8</ele>
        <time>2021-04-23T08:56:08.000Z</time>
      </trkpt>
      <trkpt lat="45.16911" lon="5.62998">
        <ele>1171.8</ele>
        <time>2021-04-23T08:56:10.000Z</time>
      </trkpt>
      <trkpt lat="45.16911" lon="5.62998">
        <ele>1171.8</ele>
        <time>2021-04-23T08:56:20.000Z</time>
      </trkpt>
      <trkpt lat="45.16911" lon="5.62998">
        <ele>1171.8</ele>
        <time>2021-04-23T08:56:33.000Z</time>
      </trkpt>
      <trkpt lat="45.16911" lon="5.62998">
        <ele>1171.8</ele>
        <time>2021-04-23T08:56:52.000Z</time>
      </trkpt>
      <trkpt lat="45.16911" lon="5.62998">
        <ele>1171.8</ele>
        <time>2021-04-23T08:57:11.000Z</time>
      </trkpt>
      <trkpt lat="45.16911" lon="5.62998">
        <ele>1171.8</ele>
        <time>2021-04-23T08:57:15.000Z</time>
      </trkpt>
      <trkpt lat="45.16911" lon="5.62998">
        <ele>1171.8</ele>
        <time>2021-04-23T08:57:23.000Z</time>
      </trkpt>
      <trkpt lat="45.16911" lon="5.62998">
        <ele>1171.8</ele>
        <time>2021-04-23T08:57:26.000Z</time>
      </trkpt>
      <trkpt lat="45.16911" lon="5.62998">
        <ele>1171.8</ele>
        <time>2021-04-23T08:57:59.000Z</time>
      </trkpt>
      <trkpt lat="45.16911" lon="5.62998">
        <ele>1171.8</ele>
        <time>2021-04-23T08:58:12.000Z</time>
      </trkpt>
      <trkpt lat="45.16911" lon="5.62998">
        <ele>1171.8</ele>
        <time>2021-04-23T08:58:15.000Z</time>
      </trkpt>
      <trkpt lat="45.16911" lon="5.62998">
        <ele>1171.8</ele>
        <time>2021-04-23T08:58:17.000Z</time>
      </trkpt>
      <trkpt lat="45.16912" lon="5.62999">
        <ele>1171.8</ele>
        <time>2021-04-23T08:58:32.000Z</time>
      </trkpt>
      <trkpt lat="45.16912" lon="5.62999">
        <ele>1171.8</ele>
        <time>2021-04-23T08:58:37.000Z</time>
      </trkpt>
      <trkpt lat="45.16912" lon="5.62999">
        <ele>1171.8</ele>
        <time>2021-04-23T08:58:47.000Z</time>
      </trkpt>
      <trkpt lat="45.16912" lon="5.62999">
        <ele>1171.8</ele>
        <time>2021-04-23T08:59:09.000Z</time>
      </trkpt>
      <trkpt lat="45.16912" lon="5.62999">
        <ele>1171.8</ele>
        <time>2021-04-23T08:59:17.000Z</time>
      </trkpt>
      <trkpt lat="45.16912" lon="5.62999">
        <ele>1171.8</ele>
        <time>2021-04-23T08:59:40.000Z</time>
      </trkpt>
      <trkpt lat="45.16912" lon="5.62999">
        <ele>1171.8</ele>
        <time>2021-04-23T08:59:44.000Z</time>
      </trkpt>
      <trkpt lat="45.16912" lon="5.62999">
        <ele>1171.8</ele>
        <time>2021-04-23T08:59:53.000Z</time>
      </trkpt>
      <trkpt lat="45.16912" lon="5.62999">
        <ele>1171.8</ele>
        <time>2021-04-23T09:00:37.000Z</time>
      </trkpt>
      <trkpt lat="45.16912" lon="5.62999">
        <ele>1171.8</ele>
        <time>2021-04-23T09:01:04.000Z</time>
      </trkpt>
      <trkpt lat="45.16912" lon="5.62999">
        <ele>1171.8</ele>
        <time>2021-04-23T09:01:07.000Z</time>
      </trkpt>
      <trkpt lat="45.16912" lon="5.62999">
        <ele>1171.8</ele>
        <time>2021-04-23T09:01:12.000Z</time>
      </trkpt>
      <trkpt lat="45.16912" lon="5.62999">
        <ele>1171.8</ele>
        <time>2021-04-23T09:01:14.000Z</time>
      </trkpt>
      <trkpt lat="45.16912" lon="5.62999">
        <ele>1171.8</ele>
        <time>2021-04-23T09:01:16.000Z</time>
      </trkpt>
      <trkpt lat="45.16912" lon="5.62999">
        <ele>1171.8</ele>
        <time>2021-04-23T09:01:23.000Z</time>
      </trkpt>
      <trkpt lat="45.16912" lon="5.62999">
        <ele>1171.8</ele>
        <time>2021-04-23T09:01:30.000Z</time>
      </trkpt>
      <trkpt lat="45.16912" lon="5.62999">
        <ele>1171.8</ele>
        <time>2021-04-23T09:01:32.000Z</time>
      </trkpt>
      <trkpt lat="45.16912" lon="5.62999">
        <ele>1171.8</ele>
        <time>2021-04-23T09:01:37.000Z</time>
      </trkpt>
      <trkpt lat="45.16912" lon="5.62999">
        <ele>1171.8</ele>
        <time>2021-04-23T09:01:41.000Z</time>
      </trkpt>
      <trkpt lat="45.16912" lon="5.62999">
        <ele>1171.8</ele>
        <time>2021-04-23T09:01:53.000Z</time>
      </trkpt>
      <trkpt lat="45.16912" lon="5.62999">
        <ele>1171.8</ele>
        <time>2021-04-23T09:02:00.000Z</time>
      </trkpt>
      <trkpt lat="45.16912" lon="5.62999">
        <ele>1171.8</ele>
        <time>2021-04-23T09:02:02.000Z</time>
      </trkpt>
      <trkpt lat="45.16912" lon="5.62999">
        <ele>1171.8</ele>
        <time>2021-04-23T09:02:04.000Z</time>
      </trkpt>
      <trkpt lat="45.16912" lon="5.62999">
        <ele>1171.8</ele>
        <time>2021-04-23T09:02:06.000Z</time>
      </trkpt>
      <trkpt lat="45.16912" lon="5.62999">
        <ele>1171.8</ele>
        <time>2021-04-23T09:02:08.000Z</time>
      </trkpt>
      <trkpt lat="45.16912" lon="5.62999">
        <ele>1171.8</ele>
        <time>2021-04-23T09:02:41.000Z</time>
      </trkpt>
      <trkpt lat="45.16912" lon="5.62999">
        <ele>1171.8</ele>
        <time>2021-04-23T09:02:42.000Z</time>
      </trkpt>
      <trkpt lat="45.16912" lon="5.62999">
        <ele>1171.8</ele>
        <time>2021-04-23T09:02:51.000Z</time>
      </trkpt>
      <trkpt lat="45.16912" lon="5.62999">
        <ele>1171.8</ele>
        <time>2021-04-23T09:02:56.000Z</time>
      </trkpt>
      <trkpt lat="45.16912" lon="5.62999">
        <ele>1171.8</ele>
        <time>2021-04-23T09:03:30.000Z</time>
      </trkpt>
      <trkpt lat="45.16912" lon="5.62999">
        <ele>1171.8</ele>
        <time>2021-04-23T09:03:40.000Z</time>
      </trkpt>
      <trkpt lat="45.16912" lon="5.62999">
        <ele>1171.8</ele>
        <time>2021-04-23T09:03:50.000Z</time>
      </trkpt>
      <trkpt lat="45.16912" lon="5.62999">
        <ele>1171.8</ele>
        <time>2021-04-23T09:03:53.000Z</time>
      </trkpt>
      <trkpt lat="45.16912" lon="5.62999">
        <ele>1171.8</ele>
        <time>2021-04-23T09:03:54.000Z</time>
      </trkpt>
      <trkpt lat="45.16912" lon="5.62999">
        <ele>1171.8</ele>
        <time>2021-04-23T09:03:57.000Z</time>
      </trkpt>
      <trkpt lat="45.16912" lon="5.62999">
        <ele>1171.8</ele>
        <time>2021-04-23T09:04:35.000Z</time>
      </trkpt>
      <trkpt lat="45.16912" lon="5.62999">
        <ele>1171.8</ele>
        <time>2021-04-23T09:04:36.000Z</time>
      </trkpt>
      <trkpt lat="45.16912" lon="5.62999">
        <ele>1171.8</ele>
        <time>2021-04-23T09:04:54.000Z</time>
      </trkpt>
      <trkpt lat="45.16912" lon="5.62999">
        <ele>1171.8</ele>
        <time>2021-04-23T09:05:09.000Z</time>
      </trkpt>
      <trkpt lat="45.16912" lon="5.62999">
        <ele>1171.8</ele>
        <time>2021-04-23T09:05:26.000Z</time>
      </trkpt>
      <trkpt lat="45.16912" lon="5.62999">
        <ele>1171.8</ele>
        <time>2021-04-23T09:05:42.000Z</time>
      </trkpt>
      <trkpt lat="45.16912" lon="5.62999">
        <ele>1171.8</ele>
        <time>2021-04-23T09:05:47.000Z</time>
      </trkpt>
      <trkpt lat="45.16912" lon="5.62999">
        <ele>1171.8</ele>
        <time>2021-04-23T09:05:58.000Z</time>
      </trkpt>
      <trkpt lat="45.16912" lon="5.62999">
        <ele>1171.8</ele>
        <time>2021-04-23T09:06:17.000Z</time>
      </trkpt>
      <trkpt lat="45.16912" lon="5.62999">
        <ele>1171.8</ele>
        <time>2021-04-23T09:06:30.000Z</time>
      </trkpt>
      <trkpt lat="45.16912" lon="5.62999">
        <ele>1171.8</ele>
        <time>2021-04-23T09:07:00.000Z</time>
      </trkpt>
      <trkpt lat="45.16912" lon="5.62999">
        <ele>1171.8</ele>
        <time>2021-04-23T09:07:09.000Z</time>
      </trkpt>
      <trkpt lat="45.16912" lon="5.62999">
        <ele>1171.8</ele>
        <time>2021-04-23T09:07:19.000Z</time>
      </trkpt>
      <trkpt lat="45.16912" lon="5.62999">
        <ele>1171.8</ele>
        <time>2021-04-23T09:07:22.000Z</time>
      </trkpt>
      <trkpt lat="45.16912" lon="5.62999">
        <ele>1171.8</ele>
        <time>2021-04-23T09:07:26.000Z</time>
      </trkpt>
      <trkpt lat="45.16912" lon="5.62999">
        <ele>1171.8</ele>
        <time>2021-04-23T09:07:38.000Z</time>
      </trkpt>
      <trkpt lat="45.16912" lon="5.62999">
        <ele>1171.8</ele>
        <time>2021-04-23T09:07:40.000Z</time>
      </trkpt>
      <trkpt lat="45.16912" lon="5.62999">
        <ele>1171.8</ele>
        <time>2021-04-23T09:07:42.000Z</time>
      </trkpt>
      <trkpt lat="45.16912" lon="5.62999">
        <ele>1171.8</ele>
        <time>2021-04-23T09:07:44.000Z</time>
      </trkpt>
      <trkpt lat="45.16912" lon="5.62999">
        <ele>1171.8</ele>
        <time>2021-04-23T09:07:46.000Z</time>
      </trkpt>
      <trkpt lat="45.16912" lon="5.62999">
        <ele>1171.8</ele>
        <time>2021-04-23T09:07:52.000Z</time>
      </trkpt>
      <trkpt lat="45.16912" lon="5.62999">
        <ele>1168.2</ele>
        <time>2021-04-23T09:08:16.000Z</time>
      </trkpt>
      <trkpt lat="45.16912" lon="5.62999">
        <ele>1168.2</ele>
        <time>2021-04-23T09:08:22.000Z</time>
      </trkpt>
      <trkpt lat="45.16912" lon="5.62999">
        <ele>1167.8</ele>
        <time>2021-04-23T09:08:40.000Z</time>
      </trkpt>
      <trkpt lat="45.16912" lon="5.62999">
        <ele>1167.4</ele>
        <time>2021-04-23T09:08:52.000Z</time>
      </trkpt>
      <trkpt lat="45.16912" lon="5.62999">
        <ele>1167.4</ele>
        <time>2021-04-23T09:09:02.000Z</time>
      </trkpt>
      <trkpt lat="45.16912" lon="5.62999">
        <ele>1167.4</ele>
        <time>2021-04-23T09:09:25.000Z</time>
      </trkpt>
      <trkpt lat="45.16912" lon="5.62999">
        <ele>1167.2</ele>
        <time>2021-04-23T09:09:33.000Z</time>
      </trkpt>
      <trkpt lat="45.16912" lon="5.62999">
        <ele>1167.2</ele>
        <time>2021-04-23T09:09:40.000Z</time>
      </trkpt>
      <trkpt lat="45.16912" lon="5.62999">
        <ele>1167.2</ele>
        <time>2021-04-23T09:09:46.000Z</time>
      </trkpt>
      <trkpt lat="45.16912" lon="5.62999">
        <ele>1167</ele>
        <time>2021-04-23T09:09:52.000Z</time>
      </trkpt>
      <trkpt lat="45.16912" lon="5.62999">
        <ele>1167</ele>
        <time>2021-04-23T09:09:58.000Z</time>
      </trkpt>
      <trkpt lat="45.16912" lon="5.62999">
        <ele>1167</ele>
        <time>2021-04-23T09:10:11.000Z</time>
      </trkpt>
      <trkpt lat="45.16912" lon="5.62999">
        <ele>1167</ele>
        <time>2021-04-23T09:10:13.000Z</time>
      </trkpt>
      <trkpt lat="45.16912" lon="5.62999">
        <ele>1167</ele>
        <time>2021-04-23T09:10:20.000Z</time>
      </trkpt>
      <trkpt lat="45.16912" lon="5.62999">
        <ele>1167</ele>
        <time>2021-04-23T09:10:22.000Z</time>
      </trkpt>
      <trkpt lat="45.16912" lon="5.62999">
        <ele>1167</ele>
        <time>2021-04-23T09:10:39.000Z</time>
      </trkpt>
      <trkpt lat="45.16912" lon="5.62999">
        <ele>1167</ele>
        <time>2021-04-23T09:10:43.000Z</time>
      </trkpt>
      <trkpt lat="45.16912" lon="5.62999">
        <ele>1167</ele>
        <time>2021-04-23T09:10:44.000Z</time>
      </trkpt>
      <trkpt lat="45.16912" lon="5.62999">
        <ele>1167</ele>
        <time>2021-04-23T09:10:53.000Z</time>
      </trkpt>
      <trkpt lat="45.16912" lon="5.62999">
        <ele>1167</ele>
        <time>2021-04-23T09:10:56.000Z</time>
      </trkpt>
      <trkpt lat="45.16912" lon="5.62999">
        <ele>1167</ele>
        <time>2021-04-23T09:10:59.000Z</time>
      </trkpt>
      <trkpt lat="45.16912" lon="5.62999">
        <ele>1167</ele>
        <time>2021-04-23T09:11:01.000Z</time>
      </trkpt>
      <trkpt lat="45.16912" lon="5.62999">
        <ele>1167</ele>
        <time>2021-04-23T09:11:02.000Z</time>
      </trkpt>
      <trkpt lat="45.16912" lon="5.62999">
        <ele>1167</ele>
        <time>2021-04-23T09:11:04.000Z</time>
      </trkpt>
      <trkpt lat="45.16912" lon="5.62999">
        <ele>1167</ele>
        <time>2021-04-23T09:11:06.000Z</time>
      </trkpt>
      <trkpt lat="45.16912" lon="5.62999">
        <ele>1167</ele>
        <time>2021-04-23T09:11:18.000Z</time>
      </trkpt>
      <trkpt lat="45.16912" lon="5.62999">
        <ele>1167</ele>
        <time>2021-04-23T09:11:23.000Z</time>
      </trkpt>
      <trkpt lat="45.16912" lon="5.62999">
        <ele>1167</ele>
        <time>2021-04-23T09:11:25.000Z</time>
      </trkpt>
      <trkpt lat="45.16912" lon="5.62999">
        <ele>1167</ele>
        <time>2021-04-23T09:11:45.000Z</time>
      </trkpt>
      <trkpt lat="45.16912" lon="5.62999">
        <ele>1167</ele>
        <time>2021-04-23T09:12:30.000Z</time>
      </trkpt>
      <trkpt lat="45.16912" lon="5.62999">
        <ele>1167</ele>
        <time>2021-04-23T09:12:32.000Z</time>
      </trkpt>
      <trkpt lat="45.16912" lon="5.62999">
        <ele>1167</ele>
        <time>2021-04-23T09:12:39.000Z</time>
      </trkpt>
      <trkpt lat="45.16912" lon="5.62999">
        <ele>1167</ele>
        <time>2021-04-23T09:12:57.000Z</time>
      </trkpt>
      <trkpt lat="45.16912" lon="5.62999">
        <ele>1167</ele>
        <time>2021-04-23T09:13:00.000Z</time>
      </trkpt>
      <trkpt lat="45.16912" lon="5.62999">
        <ele>1167</ele>
        <time>2021-04-23T09:13:31.000Z</time>
      </trkpt>
      <trkpt lat="45.16912" lon="5.62999">
        <ele>1167</ele>
        <time>2021-04-23T09:13:33.000Z</time>
      </trkpt>
      <trkpt lat="45.16912" lon="5.62999">
        <ele>1167</ele>
        <time>2021-04-23T09:13:45.000Z</time>
      </trkpt>
      <trkpt lat="45.16912" lon="5.62999">
        <ele>1167</ele>
        <time>2021-04-23T09:14:02.000Z</time>
      </trkpt>
      <trkpt lat="45.16912" lon="5.62999">
        <ele>1167</ele>
        <time>2021-04-23T09:14:10.000Z</time>
      </trkpt>
      <trkpt lat="45.16912" lon="5.62999">
        <ele>1167</ele>
        <time>2021-04-23T09:14:15.000Z</time>
      </trkpt>
      <trkpt lat="45.16912" lon="5.62999">
        <ele>1167</ele>
        <time>2021-04-23T09:14:22.000Z</time>
      </trkpt>
      <trkpt lat="45.16912" lon="5.62999">
        <ele>1167</ele>
        <time>2021-04-23T09:14:38.000Z</time>
      </trkpt>
      <trkpt lat="45.16912" lon="5.62999">
        <ele>1167</ele>
        <time>2021-04-23T09:14:41.000Z</time>
      </trkpt>
      <trkpt lat="45.16912" lon="5.62999">
        <ele>1167</ele>
        <time>2021-04-23T09:14:43.000Z</time>
      </trkpt>
      <trkpt lat="45.16912" lon="5.62999">
        <ele>1167</ele>
        <time>2021-04-23T09:14:46.000Z</time>
      </trkpt>
      <trkpt lat="45.16912" lon="5.62999">
        <ele>1167</ele>
        <time>2021-04-23T09:15:02.000Z</time>
      </trkpt>
      <trkpt lat="45.16912" lon="5.62999">
        <ele>1167</ele>
        <time>2021-04-23T09:15:21.000Z</time>
      </trkpt>
      <trkpt lat="45.16912" lon="5.62999">
        <ele>1167</ele>
        <time>2021-04-23T09:15:31.000Z</time>
      </trkpt>
      <trkpt lat="45.16912" lon="5.62999">
        <ele>1167</ele>
        <time>2021-04-23T09:15:45.000Z</time>
      </trkpt>
      <trkpt lat="45.16912" lon="5.62999">
        <ele>1167</ele>
        <time>2021-04-23T09:15:59.000Z</time>
      </trkpt>
      <trkpt lat="45.16912" lon="5.62999">
        <ele>1167</ele>
        <time>2021-04-23T09:16:25.000Z</time>
      </trkpt>
      <trkpt lat="45.16912" lon="5.62999">
        <ele>1167</ele>
        <time>2021-04-23T09:16:34.000Z</time>
      </trkpt>
      <trkpt lat="45.16912" lon="5.62999">
        <ele>1167</ele>
        <time>2021-04-23T09:16:42.000Z</time>
      </trkpt>
      <trkpt lat="45.16912" lon="5.62999">
        <ele>1167</ele>
        <time>2021-04-23T09:16:56.000Z</time>
      </trkpt>
      <trkpt lat="45.16912" lon="5.62999">
        <ele>1167</ele>
        <time>2021-04-23T09:17:01.000Z</time>
      </trkpt>
      <trkpt lat="45.16912" lon="5.62999">
        <ele>1167</ele>
        <time>2021-04-23T09:17:19.000Z</time>
      </trkpt>
      <trkpt lat="45.16912" lon="5.62999">
        <ele>1167</ele>
        <time>2021-04-23T09:17:23.000Z</time>
      </trkpt>
      <trkpt lat="45.16912" lon="5.62999">
        <ele>1167</ele>
        <time>2021-04-23T09:17:30.000Z</time>
      </trkpt>
      <trkpt lat="45.16912" lon="5.62999">
        <ele>1167</ele>
        <time>2021-04-23T09:17:59.000Z</time>
      </trkpt>
      <trkpt lat="45.16912" lon="5.62999">
        <ele>1167</ele>
        <time>2021-04-23T09:18:18.000Z</time>
      </trkpt>
      <trkpt lat="45.16912" lon="5.62999">
        <ele>1167</ele>
        <time>2021-04-23T09:18:25.000Z</time>
      </trkpt>
      <trkpt lat="45.16912" lon="5.62999">
        <ele>1167</ele>
        <time>2021-04-23T09:18:29.000Z</time>
      </trkpt>
      <trkpt lat="45.16912" lon="5.62999">
        <ele>1167</ele>
        <time>2021-04-23T09:18:37.000Z</time>
      </trkpt>
      <trkpt lat="45.16912" lon="5.62999">
        <ele>1167</ele>
        <time>2021-04-23T09:18:48.000Z</time>
      </trkpt>
      <trkpt lat="45.16912" lon="5.62999">
        <ele>1167</ele>
        <time>2021-04-23T09:19:18.000Z</time>
      </trkpt>
      <trkpt lat="45.16912" lon="5.62999">
        <ele>1167</ele>
        <time>2021-04-23T09:19:32.000Z</time>
      </trkpt>
      <trkpt lat="45.16912" lon="5.62999">
        <ele>1167</ele>
        <time>2021-04-23T09:19:55.000Z</time>
      </trkpt>
      <trkpt lat="45.16912" lon="5.62999">
        <ele>1167</ele>
        <time>2021-04-23T09:20:28.000Z</time>
      </trkpt>
      <trkpt lat="45.16912" lon="5.62999">
        <ele>1167</ele>
        <time>2021-04-23T09:20:30.000Z</time>
      </trkpt>
      <trkpt lat="45.16912" lon="5.62999">
        <ele>1167</ele>
        <time>2021-04-23T09:20:32.000Z</time>
      </trkpt>
      <trkpt lat="45.16912" lon="5.62999">
        <ele>1167</ele>
        <time>2021-04-23T09:20:51.000Z</time>
      </trkpt>
      <trkpt lat="45.16912" lon="5.62999">
        <ele>1167</ele>
        <time>2021-04-23T09:20:58.000Z</time>
      </trkpt>
      <trkpt lat="45.16912" lon="5.62999">
        <ele>1167</ele>
        <time>2021-04-23T09:21:01.000Z</time>
      </trkpt>
      <trkpt lat="45.16912" lon="5.62999">
        <ele>1167</ele>
        <time>2021-04-23T09:21:24.000Z</time>
      </trkpt>
      <trkpt lat="45.16912" lon="5.62999">
        <ele>1167</ele>
        <time>2021-04-23T09:21:35.000Z</time>
      </trkpt>
      <trkpt lat="45.16912" lon="5.62999">
        <ele>1167</ele>
        <time>2021-04-23T09:21:54.000Z</time>
      </trkpt>
      <trkpt lat="45.16912" lon="5.62999">
        <ele>1167</ele>
        <time>2021-04-23T09:22:04.000Z</time>
      </trkpt>
      <trkpt lat="45.16912" lon="5.62999">
        <ele>1167</ele>
        <time>2021-04-23T09:22:06.000Z</time>
      </trkpt>
      <trkpt lat="45.16912" lon="5.62999">
        <ele>1167</ele>
        <time>2021-04-23T09:22:08.000Z</time>
      </trkpt>
      <trkpt lat="45.16912" lon="5.62999">
        <ele>1167</ele>
        <time>2021-04-23T09:22:10.000Z</time>
      </trkpt>
      <trkpt lat="45.16912" lon="5.62999">
        <ele>1167</ele>
        <time>2021-04-23T09:22:17.000Z</time>
      </trkpt>
      <trkpt lat="45.16912" lon="5.62999">
        <ele>1167</ele>
        <time>2021-04-23T09:22:33.000Z</time>
      </trkpt>
      <trkpt lat="45.16912" lon="5.62999">
        <ele>1167</ele>
        <time>2021-04-23T09:22:36.000Z</time>
      </trkpt>
      <trkpt lat="45.16912" lon="5.62999">
        <ele>1167</ele>
        <time>2021-04-23T09:22:44.000Z</time>
      </trkpt>
      <trkpt lat="45.16912" lon="5.62999">
        <ele>1167</ele>
        <time>2021-04-23T09:22:48.000Z</time>
      </trkpt>
      <trkpt lat="45.16912" lon="5.62999">
        <ele>1167</ele>
        <time>2021-04-23T09:23:11.000Z</time>
      </trkpt>
      <trkpt lat="45.16912" lon="5.62999">
        <ele>1167</ele>
        <time>2021-04-23T09:23:15.000Z</time>
      </trkpt>
      <trkpt lat="45.16912" lon="5.62999">
        <ele>1167</ele>
        <time>2021-04-23T09:23:26.000Z</time>
      </trkpt>
      <trkpt lat="45.16912" lon="5.62999">
        <ele>1167</ele>
        <time>2021-04-23T09:23:31.000Z</time>
      </trkpt>
      <trkpt lat="45.16912" lon="5.62999">
        <ele>1167</ele>
        <time>2021-04-23T09:23:32.000Z</time>
      </trkpt>
      <trkpt lat="45.16912" lon="5.62999">
        <ele>1167</ele>
        <time>2021-04-23T09:23:33.000Z</time>
      </trkpt>
      <trkpt lat="45.16912" lon="5.62999">
        <ele>1167</ele>
        <time>2021-04-23T09:23:34.000Z</time>
      </trkpt>
      <trkpt lat="45.16912" lon="5.62999">
        <ele>1167</ele>
        <time>2021-04-23T09:23:38.000Z</time>
      </trkpt>
      <trkpt lat="45.16912" lon="5.62999">
        <ele>1167</ele>
        <time>2021-04-23T09:23:49.000Z</time>
      </trkpt>
      <trkpt lat="45.16912" lon="5.62999">
        <ele>1167</ele>
        <time>2021-04-23T09:24:30.000Z</time>
      </trkpt>
      <trkpt lat="45.16912" lon="5.62999">
        <ele>1167</ele>
        <time>2021-04-23T09:24:50.000Z</time>
      </trkpt>
      <trkpt lat="45.16912" lon="5.62999">
        <ele>1167</ele>
        <time>2021-04-23T09:25:10.000Z</time>
      </trkpt>
      <trkpt lat="45.16912" lon="5.62999">
        <ele>1167</ele>
        <time>2021-04-23T09:25:15.000Z</time>
      </trkpt>
      <trkpt lat="45.16912" lon="5.62999">
        <ele>1167</ele>
        <time>2021-04-23T09:25:37.000Z</time>
      </trkpt>
      <trkpt lat="45.16912" lon="5.62999">
        <ele>1167</ele>
        <time>2021-04-23T09:25:43.000Z</time>
      </trkpt>
      <trkpt lat="45.16912" lon="5.62999">
        <ele>1167</ele>
        <time>2021-04-23T09:25:45.000Z</time>
      </trkpt>
      <trkpt lat="45.16912" lon="5.62999">
        <ele>1167</ele>
        <time>2021-04-23T09:25:46.000Z</time>
      </trkpt>
      <trkpt lat="45.16912" lon="5.62999">
        <ele>1167</ele>
        <time>2021-04-23T09:25:59.000Z</time>
      </trkpt>
      <trkpt lat="45.16912" lon="5.62999">
        <ele>1167</ele>
        <time>2021-04-23T09:26:20.000Z</time>
      </trkpt>
      <trkpt lat="45.16912" lon="5.62999">
        <ele>1167</ele>
        <time>2021-04-23T09:26:27.000Z</time>
      </trkpt>
      <trkpt lat="45.16912" lon="5.62999">
        <ele>1167</ele>
        <time>2021-04-23T09:26:39.000Z</time>
      </trkpt>
      <trkpt lat="45.16912" lon="5.62999">
        <ele>1167</ele>
        <time>2021-04-23T09:26:44.000Z</time>
      </trkpt>
      <trkpt lat="45.16912" lon="5.62999">
        <ele>1167</ele>
        <time>2021-04-23T09:26:56.000Z</time>
      </trkpt>
      <trkpt lat="45.16912" lon="5.62999">
        <ele>1167</ele>
        <time>2021-04-23T09:26:58.000Z</time>
      </trkpt>
      <trkpt lat="45.16912" lon="5.62999">
        <ele>1167</ele>
        <time>2021-04-23T09:27:01.000Z</time>
      </trkpt>
      <trkpt lat="45.16912" lon="5.62999">
        <ele>1167</ele>
        <time>2021-04-23T09:27:05.000Z</time>
      </trkpt>
      <trkpt lat="45.16912" lon="5.62999">
        <ele>1167</ele>
        <time>2021-04-23T09:27:23.000Z</time>
      </trkpt>
      <trkpt lat="45.16912" lon="5.62999">
        <ele>1167</ele>
        <time>2021-04-23T09:27:29.000Z</time>
      </trkpt>
      <trkpt lat="45.16912" lon="5.62999">
        <ele>1167</ele>
        <time>2021-04-23T09:27:31.000Z</time>
      </trkpt>
      <trkpt lat="45.16912" lon="5.62999">
        <ele>1167</ele>
        <time>2021-04-23T09:27:37.000Z</time>
      </trkpt>
      <trkpt lat="45.16912" lon="5.62999">
        <ele>1167</ele>
        <time>2021-04-23T09:27:40.000Z</time>
      </trkpt>
      <trkpt lat="45.16912" lon="5.62999">
        <ele>1167</ele>
        <time>2021-04-23T09:28:08.000Z</time>
      </trkpt>
      <trkpt lat="45.16912" lon="5.62999">
        <ele>1167</ele>
        <time>2021-04-23T09:28:17.000Z</time>
      </trkpt>
      <trkpt lat="45.16912" lon="5.62999">
        <ele>1167</ele>
        <time>2021-04-23T09:28:36.000Z</time>
      </trkpt>
      <trkpt lat="45.16912" lon="5.62999">
        <ele>1167</ele>
        <time>2021-04-23T09:28:38.000Z</time>
      </trkpt>
      <trkpt lat="45.16912" lon="5.62999">
        <ele>1167</ele>
        <time>2021-04-23T09:28:43.000Z</time>
      </trkpt>
      <trkpt lat="45.16912" lon="5.62999">
        <ele>1167</ele>
        <time>2021-04-23T09:28:45.000Z</time>
      </trkpt>
      <trkpt lat="45.16912" lon="5.62999">
        <ele>1167</ele>
        <time>2021-04-23T09:28:49.000Z</time>
      </trkpt>
      <trkpt lat="45.16912" lon="5.62999">
        <ele>1167</ele>
        <time>2021-04-23T09:29:19.000Z</time>
      </trkpt>
      <trkpt lat="45.16912" lon="5.62999">
        <ele>1167</ele>
        <time>2021-04-23T09:29:31.000Z</time>
      </trkpt>
      <trkpt lat="45.16912" lon="5.62999">
        <ele>1169.6</ele>
        <time>2021-04-23T09:29:37.000Z</time>
      </trkpt>
      <trkpt lat="45.16912" lon="5.62999">
        <ele>1169.6</ele>
        <time>2021-04-23T09:29:42.000Z</time>
      </trkpt>
      <trkpt lat="45.16912" lon="5.62999">
        <ele>1170</ele>
        <time>2021-04-23T09:29:43.000Z</time>
      </trkpt>
      <trkpt lat="45.16912" lon="5.62999">
        <ele>1170.6</ele>
        <time>2021-04-23T09:29:47.000Z</time>
      </trkpt>
      <trkpt lat="45.16912" lon="5.62999">
        <ele>1170.6</ele>
        <time>2021-04-23T09:29:57.000Z</time>
      </trkpt>
      <trkpt lat="45.16912" lon="5.62999">
        <ele>1171</ele>
        <time>2021-04-23T09:30:02.000Z</time>
      </trkpt>
      <trkpt lat="45.16912" lon="5.62999">
        <ele>1171.2</ele>
        <time>2021-04-23T09:30:06.000Z</time>
      </trkpt>
      <trkpt lat="45.16912" lon="5.62999">
        <ele>1171.2</ele>
        <time>2021-04-23T09:30:08.000Z</time>
      </trkpt>
      <trkpt lat="45.16912" lon="5.62999">
        <ele>1171.2</ele>
        <time>2021-04-23T09:30:10.000Z</time>
      </trkpt>
      <trkpt lat="45.16912" lon="5.62999">
        <ele>1171.4</ele>
        <time>2021-04-23T09:30:11.000Z</time>
      </trkpt>
      <trkpt lat="45.16912" lon="5.62999">
        <ele>1171.6</ele>
        <time>2021-04-23T09:30:12.000Z</time>
      </trkpt>
      <trkpt lat="45.16912" lon="5.62999">
        <ele>1172</ele>
        <time>2021-04-23T09:30:23.000Z</time>
      </trkpt>
      <trkpt lat="45.16912" lon="5.62999">
        <ele>1172.2</ele>
        <time>2021-04-23T09:30:26.000Z</time>
      </trkpt>
      <trkpt lat="45.16912" lon="5.62999">
        <ele>1172.2</ele>
        <time>2021-04-23T09:30:35.000Z</time>
      </trkpt>
      <trkpt lat="45.16912" lon="5.62999">
        <ele>1172.2</ele>
        <time>2021-04-23T09:30:37.000Z</time>
      </trkpt>
      <trkpt lat="45.16912" lon="5.62999">
        <ele>1172.2</ele>
        <time>2021-04-23T09:30:39.000Z</time>
      </trkpt>
      <trkpt lat="45.16912" lon="5.62999">
        <ele>1172.6</ele>
        <time>2021-04-23T09:30:43.000Z</time>
      </trkpt>
      <trkpt lat="45.16912" lon="5.62999">
        <ele>1172.8</ele>
        <time>2021-04-23T09:30:48.000Z</time>
      </trkpt>
      <trkpt lat="45.16912" lon="5.62999">
        <ele>1172.8</ele>
        <time>2021-04-23T09:30:53.000Z</time>
      </trkpt>
      <trkpt lat="45.16912" lon="5.62999">
        <ele>1172.6</ele>
        <time>2021-04-23T09:30:57.000Z</time>
      </trkpt>
      <trkpt lat="45.16912" lon="5.62999">
        <ele>1172.8</ele>
        <time>2021-04-23T09:31:01.000Z</time>
      </trkpt>
      <trkpt lat="45.16912" lon="5.62999">
        <ele>1172.6</ele>
        <time>2021-04-23T09:31:08.000Z</time>
      </trkpt>
      <trkpt lat="45.16912" lon="5.62999">
        <ele>1172.8</ele>
        <time>2021-04-23T09:31:09.000Z</time>
      </trkpt>
      <trkpt lat="45.16911" lon="5.62999">
        <ele>1173</ele>
        <time>2021-04-23T09:31:13.000Z</time>
      </trkpt>
      <trkpt lat="45.16911" lon="5.62999">
        <ele>1173.2</ele>
        <time>2021-04-23T09:31:16.000Z</time>
      </trkpt>
      <trkpt lat="45.16911" lon="5.62999">
        <ele>1173.2</ele>
        <time>2021-04-23T09:31:20.000Z</time>
      </trkpt>
      <trkpt lat="45.16911" lon="5.62999">
        <ele>1173</ele>
        <time>2021-04-23T09:31:35.000Z</time>
      </trkpt>
      <trkpt lat="45.16911" lon="5.62998">
        <ele>1173</ele>
        <time>2021-04-23T09:31:51.000Z</time>
      </trkpt>
      <trkpt lat="45.16911" lon="5.62998">
        <ele>1173</ele>
        <time>2021-04-23T09:31:59.000Z</time>
      </trkpt>
      <trkpt lat="45.16911" lon="5.62998">
        <ele>1173</ele>
        <time>2021-04-23T09:32:01.000Z</time>
      </trkpt>
      <trkpt lat="45.16911" lon="5.62998">
        <ele>1173</ele>
        <time>2021-04-23T09:32:03.000Z</time>
      </trkpt>
      <trkpt lat="45.16911" lon="5.62997">
        <ele>1173</ele>
        <time>2021-04-23T09:32:05.000Z</time>
      </trkpt>
      <trkpt lat="45.16911" lon="5.62997">
        <ele>1173</ele>
        <time>2021-04-23T09:32:06.000Z</time>
      </trkpt>
      <trkpt lat="45.16911" lon="5.62997">
        <ele>1173</ele>
        <time>2021-04-23T09:32:08.000Z</time>
      </trkpt>
      <trkpt lat="45.16911" lon="5.62997">
        <ele>1173</ele>
        <time>2021-04-23T09:32:10.000Z</time>
      </trkpt>
      <trkpt lat="45.16912" lon="5.62997">
        <ele>1173</ele>
        <time>2021-04-23T09:32:23.000Z</time>
      </trkpt>
      <trkpt lat="45.16912" lon="5.62997">
        <ele>1173</ele>
        <time>2021-04-23T09:32:31.000Z</time>
      </trkpt>
      <trkpt lat="45.16912" lon="5.62997">
        <ele>1173</ele>
        <time>2021-04-23T09:32:36.000Z</time>
      </trkpt>
      <trkpt lat="45.16912" lon="5.62997">
        <ele>1173</ele>
        <time>2021-04-23T09:32:50.000Z</time>
      </trkpt>
      <trkpt lat="45.16912" lon="5.62997">
        <ele>1173</ele>
        <time>2021-04-23T09:32:55.000Z</time>
      </trkpt>
      <trkpt lat="45.16912" lon="5.62997">
        <ele>1173</ele>
        <time>2021-04-23T09:32:58.000Z</time>
      </trkpt>
      <trkpt lat="45.16912" lon="5.62996">
        <ele>1173</ele>
        <time>2021-04-23T09:33:17.000Z</time>
      </trkpt>
      <trkpt lat="45.16912" lon="5.62996">
        <ele>1173</ele>
        <time>2021-04-23T09:33:20.000Z</time>
      </trkpt>
      <trkpt lat="45.16912" lon="5.62996">
        <ele>1173</ele>
        <time>2021-04-23T09:33:23.000Z</time>
      </trkpt>
      <trkpt lat="45.16912" lon="5.62996">
        <ele>1173</ele>
        <time>2021-04-23T09:33:25.000Z</time>
      </trkpt>
      <trkpt lat="45.16912" lon="5.62996">
        <ele>1173</ele>
        <time>2021-04-23T09:33:27.000Z</time>
      </trkpt>
      <trkpt lat="45.16912" lon="5.62996">
        <ele>1173</ele>
        <time>2021-04-23T09:33:37.000Z</time>
      </trkpt>
      <trkpt lat="45.16912" lon="5.62996">
        <ele>1173</ele>
        <time>2021-04-23T09:33:42.000Z</time>
      </trkpt>
      <trkpt lat="45.16912" lon="5.62996">
        <ele>1173</ele>
        <time>2021-04-23T09:34:04.000Z</time>
      </trkpt>
      <trkpt lat="45.16912" lon="5.62996">
        <ele>1173</ele>
        <time>2021-04-23T09:34:06.000Z</time>
      </trkpt>
      <trkpt lat="45.16912" lon="5.62996">
        <ele>1173</ele>
        <time>2021-04-23T09:34:08.000Z</time>
      </trkpt>
      <trkpt lat="45.16912" lon="5.62996">
        <ele>1173</ele>
        <time>2021-04-23T09:34:10.000Z</time>
      </trkpt>
      <trkpt lat="45.16912" lon="5.62996">
        <ele>1173</ele>
        <time>2021-04-23T09:34:13.000Z</time>
      </trkpt>
      <trkpt lat="45.16912" lon="5.62996">
        <ele>1173</ele>
        <time>2021-04-23T09:34:15.000Z</time>
      </trkpt>
      <trkpt lat="45.16912" lon="5.62996">
        <ele>1173</ele>
        <time>2021-04-23T09:34:17.000Z</time>
      </trkpt>
      <trkpt lat="45.16912" lon="5.62996">
        <ele>1173</ele>
        <time>2021-04-23T09:34:19.000Z</time>
      </trkpt>
      <trkpt lat="45.16912" lon="5.62996">
        <ele>1173</ele>
        <time>2021-04-23T09:34:39.000Z</time>
      </trkpt>
      <trkpt lat="45.16912" lon="5.62996">
        <ele>1173</ele>
        <time>2021-04-23T09:34:41.000Z</time>
      </trkpt>
      <trkpt lat="45.16912" lon="5.62996">
        <ele>1173</ele>
        <time>2021-04-23T09:34:48.000Z</time>
      </trkpt>
      <trkpt lat="45.16912" lon="5.62996">
        <ele>1173</ele>
        <time>2021-04-23T09:34:59.000Z</time>
      </trkpt>
      <trkpt lat="45.16912" lon="5.62996">
        <ele>1173</ele>
        <time>2021-04-23T09:35:05.000Z</time>
      </trkpt>
      <trkpt lat="45.16912" lon="5.62996">
        <ele>1173</ele>
        <time>2021-04-23T09:35:08.000Z</time>
      </trkpt>
      <trkpt lat="45.16912" lon="5.62996">
        <ele>1173</ele>
        <time>2021-04-23T09:35:17.000Z</time>
      </trkpt>
      <trkpt lat="45.16912" lon="5.62996">
        <ele>1173</ele>
        <time>2021-04-23T09:35:23.000Z</time>
      </trkpt>
      <trkpt lat="45.16912" lon="5.62996">
        <ele>1173</ele>
        <time>2021-04-23T09:35:39.000Z</time>
      </trkpt>
      <trkpt lat="45.16912" lon="5.62996">
        <ele>1173</ele>
        <time>2021-04-23T09:35:43.000Z</time>
      </trkpt>
      <trkpt lat="45.16912" lon="5.62996">
        <ele>1173</ele>
        <time>2021-04-23T09:36:00.000Z</time>
      </trkpt>
      <trkpt lat="45.16912" lon="5.62996">
        <ele>1173</ele>
        <time>2021-04-23T09:36:06.000Z</time>
      </trkpt>
      <trkpt lat="45.16912" lon="5.62996">
        <ele>1173</ele>
        <time>2021-04-23T09:36:12.000Z</time>
      </trkpt>
      <trkpt lat="45.16912" lon="5.62996">
        <ele>1173</ele>
        <time>2021-04-23T09:36:16.000Z</time>
      </trkpt>
      <trkpt lat="45.16912" lon="5.62996">
        <ele>1173</ele>
        <time>2021-04-23T09:36:18.000Z</time>
      </trkpt>
      <trkpt lat="45.16912" lon="5.62996">
        <ele>1173</ele>
        <time>2021-04-23T09:36:21.000Z</time>
      </trkpt>
      <trkpt lat="45.16912" lon="5.62996">
        <ele>1173</ele>
        <time>2021-04-23T09:36:25.000Z</time>
      </trkpt>
      <trkpt lat="45.16912" lon="5.62996">
        <ele>1173</ele>
        <time>2021-04-23T09:36:27.000Z</time>
      </trkpt>
      <trkpt lat="45.16912" lon="5.62996">
        <ele>1173</ele>
        <time>2021-04-23T09:36:28.000Z</time>
      </trkpt>
      <trkpt lat="45.16912" lon="5.62996">
        <ele>1173</ele>
        <time>2021-04-23T09:36:29.000Z</time>
      </trkpt>
      <trkpt lat="45.16912" lon="5.62996">
        <ele>1173</ele>
        <time>2021-04-23T09:36:30.000Z</time>
      </trkpt>
      <trkpt lat="45.16912" lon="5.62996">
        <ele>1173</ele>
        <time>2021-04-23T09:36:34.000Z</time>
      </trkpt>
      <trkpt lat="45.16912" lon="5.62996">
        <ele>1173</ele>
        <time>2021-04-23T09:36:39.000Z</time>
      </trkpt>
      <trkpt lat="45.16912" lon="5.62996">
        <ele>1173</ele>
        <time>2021-04-23T09:36:41.000Z</time>
      </trkpt>
      <trkpt lat="45.16912" lon="5.62996">
        <ele>1173</ele>
        <time>2021-04-23T09:36:44.000Z</time>
      </trkpt>
      <trkpt lat="45.16912" lon="5.62996">
        <ele>1173</ele>
        <time>2021-04-23T09:36:50.000Z</time>
      </trkpt>
      <trkpt lat="45.16912" lon="5.62996">
        <ele>1173</ele>
        <time>2021-04-23T09:37:00.000Z</time>
      </trkpt>
      <trkpt lat="45.16912" lon="5.62996">
        <ele>1173</ele>
        <time>2021-04-23T09:37:16.000Z</time>
      </trkpt>
      <trkpt lat="45.16912" lon="5.62996">
        <ele>1173</ele>
        <time>2021-04-23T09:37:20.000Z</time>
      </trkpt>
      <trkpt lat="45.16912" lon="5.62996">
        <ele>1173</ele>
        <time>2021-04-23T09:37:23.000Z</time>
      </trkpt>
      <trkpt lat="45.16912" lon="5.62996">
        <ele>1173</ele>
        <time>2021-04-23T09:37:26.000Z</time>
      </trkpt>
      <trkpt lat="45.16912" lon="5.62996">
        <ele>1173</ele>
        <time>2021-04-23T09:37:30.000Z</time>
      </trkpt>
      <trkpt lat="45.16911" lon="5.62996">
        <ele>1173</ele>
        <time>2021-04-23T09:37:54.000Z</time>
      </trkpt>
      <trkpt lat="45.16911" lon="5.62996">
        <ele>1173</ele>
        <time>2021-04-23T09:37:56.000Z</time>
      </trkpt>
      <trkpt lat="45.16911" lon="5.62996">
        <ele>1173</ele>
        <time>2021-04-23T09:37:58.000Z</time>
      </trkpt>
      <trkpt lat="45.16911" lon="5.62996">
        <ele>1173</ele>
        <time>2021-04-23T09:38:00.000Z</time>
      </trkpt>
      <trkpt lat="45.16911" lon="5.62996">
        <ele>1173</ele>
        <time>2021-04-23T09:38:02.000Z</time>
      </trkpt>
      <trkpt lat="45.16911" lon="5.62996">
        <ele>1173</ele>
        <time>2021-04-23T09:38:06.000Z</time>
      </trkpt>
      <trkpt lat="45.16911" lon="5.62996">
        <ele>1173</ele>
        <time>2021-04-23T09:38:32.000Z</time>
      </trkpt>
      <trkpt lat="45.16911" lon="5.62996">
        <ele>1173</ele>
        <time>2021-04-23T09:38:37.000Z</time>
      </trkpt>
      <trkpt lat="45.16911" lon="5.62996">
        <ele>1173</ele>
        <time>2021-04-23T09:38:40.000Z</time>
      </trkpt>
      <trkpt lat="45.16911" lon="5.62996">
        <ele>1173</ele>
        <time>2021-04-23T09:38:50.000Z</time>
      </trkpt>
      <trkpt lat="45.16911" lon="5.62996">
        <ele>1173</ele>
        <time>2021-04-23T09:38:53.000Z</time>
      </trkpt>
      <trkpt lat="45.16911" lon="5.62996">
        <ele>1173</ele>
        <time>2021-04-23T09:39:03.000Z</time>
      </trkpt>
      <trkpt lat="45.16911" lon="5.62996">
        <ele>1173</ele>
        <time>2021-04-23T09:39:04.000Z</time>
      </trkpt>
      <trkpt lat="45.16911" lon="5.62996">
        <ele>1173</ele>
        <time>2021-04-23T09:39:06.000Z</time>
      </trkpt>
      <trkpt lat="45.16911" lon="5.62996">
        <ele>1173</ele>
        <time>2021-04-23T09:39:10.000Z</time>
      </trkpt>
      <trkpt lat="45.16911" lon="5.62996">
        <ele>1173</ele>
        <time>2021-04-23T09:39:12.000Z</time>
      </trkpt>
      <trkpt lat="45.16911" lon="5.62996">
        <ele>1173</ele>
        <time>2021-04-23T09:39:14.000Z</time>
      </trkpt>
      <trkpt lat="45.16911" lon="5.62996">
        <ele>1173</ele>
        <time>2021-04-23T09:39:16.000Z</time>
      </trkpt>
      <trkpt lat="45.16911" lon="5.62996">
        <ele>1173</ele>
        <time>2021-04-23T09:39:18.000Z</time>
      </trkpt>
      <trkpt lat="45.16911" lon="5.62996">
        <ele>1173</ele>
        <time>2021-04-23T09:39:19.000Z</time>
      </trkpt>
      <trkpt lat="45.16911" lon="5.62996">
        <ele>1173</ele>
        <time>2021-04-23T09:39:20.000Z</time>
      </trkpt>
      <trkpt lat="45.16911" lon="5.62996">
        <ele>1173</ele>
        <time>2021-04-23T09:39:21.000Z</time>
      </trkpt>
      <trkpt lat="45.16911" lon="5.62996">
        <ele>1173</ele>
        <time>2021-04-23T09:39:46.000Z</time>
      </trkpt>
      <trkpt lat="45.16911" lon="5.62996">
        <ele>1173</ele>
        <time>2021-04-23T09:39:51.000Z</time>
      </trkpt>
      <trkpt lat="45.1691" lon="5.62996">
        <ele>1173</ele>
        <time>2021-04-23T09:39:58.000Z</time>
      </trkpt>
      <trkpt lat="45.16908" lon="5.62997">
        <ele>1173</ele>
        <time>2021-04-23T09:40:10.000Z</time>
      </trkpt>
      <trkpt lat="45.16908" lon="5.62998">
        <ele>1173</ele>
        <time>2021-04-23T09:40:18.000Z</time>
      </trkpt>
      <trkpt lat="45.16908" lon="5.62998">
        <ele>1173</ele>
        <time>2021-04-23T09:40:24.000Z</time>
      </trkpt>
      <trkpt lat="45.16908" lon="5.62998">
        <ele>1173</ele>
        <time>2021-04-23T09:40:42.000Z</time>
      </trkpt>
      <trkpt lat="45.16908" lon="5.62998">
        <ele>1173</ele>
        <time>2021-04-23T09:40:44.000Z</time>
      </trkpt>
      <trkpt lat="45.16908" lon="5.62998">
        <ele>1173</ele>
        <time>2021-04-23T09:40:46.000Z</time>
      </trkpt>
      <trkpt lat="45.16908" lon="5.62998">
        <ele>1173</ele>
        <time>2021-04-23T09:40:48.000Z</time>
      </trkpt>
      <trkpt lat="45.16908" lon="5.62998">
        <ele>1173</ele>
        <time>2021-04-23T09:41:01.000Z</time>
      </trkpt>
      <trkpt lat="45.16908" lon="5.62998">
        <ele>1173</ele>
        <time>2021-04-23T09:41:08.000Z</time>
      </trkpt>
      <trkpt lat="45.16908" lon="5.62998">
        <ele>1173</ele>
        <time>2021-04-23T09:41:20.000Z</time>
      </trkpt>
      <trkpt lat="45.16908" lon="5.62998">
        <ele>1173</ele>
        <time>2021-04-23T09:41:23.000Z</time>
      </trkpt>
      <trkpt lat="45.16908" lon="5.62998">
        <ele>1173</ele>
        <time>2021-04-23T09:41:25.000Z</time>
      </trkpt>
      <trkpt lat="45.16908" lon="5.62998">
        <ele>1173</ele>
        <time>2021-04-23T09:41:26.000Z</time>
      </trkpt>
      <trkpt lat="45.16908" lon="5.62998">
        <ele>1173</ele>
        <time>2021-04-23T09:41:30.000Z</time>
      </trkpt>
      <trkpt lat="45.16908" lon="5.62998">
        <ele>1173</ele>
        <time>2021-04-23T09:41:34.000Z</time>
      </trkpt>
      <trkpt lat="45.16908" lon="5.62998">
        <ele>1173</ele>
        <time>2021-04-23T09:41:36.000Z</time>
      </trkpt>
      <trkpt lat="45.16908" lon="5.62998">
        <ele>1170.4</ele>
        <time>2021-04-23T09:41:49.000Z</time>
      </trkpt>
      <trkpt lat="45.16908" lon="5.62998">
        <ele>1170.2</ele>
        <time>2021-04-23T09:42:12.000Z</time>
      </trkpt>
      <trkpt lat="45.16908" lon="5.62998">
        <ele>1170.2</ele>
        <time>2021-04-23T09:42:15.000Z</time>
      </trkpt>
      <trkpt lat="45.16908" lon="5.62997">
        <ele>1170</ele>
        <time>2021-04-23T09:42:18.000Z</time>
      </trkpt>
      <trkpt lat="45.16908" lon="5.62997">
        <ele>1169.8</ele>
        <time>2021-04-23T09:42:30.000Z</time>
      </trkpt>
      <trkpt lat="45.16908" lon="5.62997">
        <ele>1169.4</ele>
        <time>2021-04-23T09:42:42.000Z</time>
      </trkpt>
      <trkpt lat="45.16908" lon="5.62997">
        <ele>1169.4</ele>
        <time>2021-04-23T09:42:44.000Z</time>
      </trkpt>
      <trkpt lat="45.16908" lon="5.62997">
        <ele>1169.4</ele>
        <time>2021-04-23T09:42:47.000Z</time>
      </trkpt>
      <trkpt lat="45.16908" lon="5.62997">
        <ele>1169.2</ele>
        <time>2021-04-23T09:42:51.000Z</time>
      </trkpt>
      <trkpt lat="45.16908" lon="5.62997">
        <ele>1169.2</ele>
        <time>2021-04-23T09:42:54.000Z</time>
      </trkpt>
      <trkpt lat="45.16908" lon="5.62997">
        <ele>1169</ele>
        <time>2021-04-23T09:43:07.000Z</time>
      </trkpt>
      <trkpt lat="45.16908" lon="5.62997">
        <ele>1169.2</ele>
        <time>2021-04-23T09:43:15.000Z</time>
      </trkpt>
      <trkpt lat="45.16908" lon="5.62997">
        <ele>1169.8</ele>
        <time>2021-04-23T09:43:22.000Z</time>
      </trkpt>
      <trkpt lat="45.16909" lon="5.62996">
        <ele>1170.2</ele>
        <time>2021-04-23T09:43:27.000Z</time>
      </trkpt>
      <trkpt lat="45.16909" lon="5.62996">
        <ele>1170.2</ele>
        <time>2021-04-23T09:43:30.000Z</time>
      </trkpt>
      <trkpt lat="45.16909" lon="5.62996">
        <ele>1170.2</ele>
        <time>2021-04-23T09:43:32.000Z</time>
      </trkpt>
      <trkpt lat="45.1691" lon="5.62996">
        <ele>1170.4</ele>
        <time>2021-04-23T09:43:34.000Z</time>
      </trkpt>
      <trkpt lat="45.16913" lon="5.62995">
        <ele>1168.2</ele>
        <time>2021-04-23T09:43:36.000Z</time>
      </trkpt>
      <trkpt lat="45.16915" lon="5.62994">
        <ele>1168.2</ele>
        <time>2021-04-23T09:43:37.000Z</time>
      </trkpt>
      <trkpt lat="45.16916" lon="5.62993">
        <ele>1168.2</ele>
        <time>2021-04-23T09:43:38.000Z</time>
      </trkpt>
      <trkpt lat="45.16918" lon="5.62993">
        <ele>1168.2</ele>
        <time>2021-04-23T09:43:39.000Z</time>
      </trkpt>
      <trkpt lat="45.16923" lon="5.62991">
        <ele>1168.2</ele>
        <time>2021-04-23T09:43:42.000Z</time>
      </trkpt>
      <trkpt lat="45.16925" lon="5.62991">
        <ele>1168.4</ele>
        <time>2021-04-23T09:43:44.000Z</time>
      </trkpt>
      <trkpt lat="45.16926" lon="5.62991">
        <ele>1168.6</ele>
        <time>2021-04-23T09:43:45.000Z</time>
      </trkpt>
      <trkpt lat="45.16927" lon="5.6299">
        <ele>1168.6</ele>
        <time>2021-04-23T09:43:46.000Z</time>
      </trkpt>
      <trkpt lat="45.16927" lon="5.6299">
        <ele>1168.6</ele>
        <time>2021-04-23T09:43:47.000Z</time>
      </trkpt>
      <trkpt lat="45.1693" lon="5.62989">
        <ele>1168.8</ele>
        <time>2021-04-23T09:43:49.000Z</time>
      </trkpt>
      <trkpt lat="45.1693" lon="5.62989">
        <ele>1168.8</ele>
        <time>2021-04-23T09:43:50.000Z</time>
      </trkpt>
      <trkpt lat="45.16931" lon="5.62989">
        <ele>1168.8</ele>
        <time>2021-04-23T09:43:51.000Z</time>
      </trkpt>
      <trkpt lat="45.16932" lon="5.62988">
        <ele>1169</ele>
        <time>2021-04-23T09:43:53.000Z</time>
      </trkpt>
      <trkpt lat="45.16932" lon="5.62988">
        <ele>1169</ele>
        <time>2021-04-23T09:43:54.000Z</time>
      </trkpt>
      <trkpt lat="45.16932" lon="5.62988">
        <ele>1169</ele>
        <time>2021-04-23T09:43:55.000Z</time>
      </trkpt>
      <trkpt lat="45.16932" lon="5.62988">
        <ele>1169.2</ele>
        <time>2021-04-23T09:44:00.000Z</time>
      </trkpt>
      <trkpt lat="45.1693" lon="5.62988">
        <ele>1169.2</ele>
        <time>2021-04-23T09:44:03.000Z</time>
      </trkpt>
      <trkpt lat="45.1693" lon="5.62988">
        <ele>1169.2</ele>
        <time>2021-04-23T09:44:04.000Z</time>
      </trkpt>
      <trkpt lat="45.1693" lon="5.62988">
        <ele>1169.2</ele>
        <time>2021-04-23T09:44:06.000Z</time>
      </trkpt>
      <trkpt lat="45.1693" lon="5.62988">
        <ele>1169.2</ele>
        <time>2021-04-23T09:44:08.000Z</time>
      </trkpt>
      <trkpt lat="45.1693" lon="5.62988">
        <ele>1169.2</ele>
        <time>2021-04-23T09:44:10.000Z</time>
      </trkpt>
      <trkpt lat="45.1693" lon="5.62988">
        <ele>1169.2</ele>
        <time>2021-04-23T09:44:13.000Z</time>
      </trkpt>
      <trkpt lat="45.1693" lon="5.62988">
        <ele>1169.2</ele>
        <time>2021-04-23T09:44:15.000Z</time>
      </trkpt>
      <trkpt lat="45.1693" lon="5.62988">
        <ele>1169.2</ele>
        <time>2021-04-23T09:44:19.000Z</time>
      </trkpt>
      <trkpt lat="45.16927" lon="5.62989">
        <ele>1169.2</ele>
        <time>2021-04-23T09:44:24.000Z</time>
      </trkpt>
      <trkpt lat="45.16926" lon="5.62989">
        <ele>1169.2</ele>
        <time>2021-04-23T09:44:25.000Z</time>
      </trkpt>
      <trkpt lat="45.16924" lon="5.6299">
        <ele>1169.2</ele>
        <time>2021-04-23T09:44:26.000Z</time>
      </trkpt>
      <trkpt lat="45.16921" lon="5.62992">
        <ele>1169.2</ele>
        <time>2021-04-23T09:44:29.000Z</time>
      </trkpt>
      <trkpt lat="45.1692" lon="5.62993">
        <ele>1169.2</ele>
        <time>2021-04-23T09:44:30.000Z</time>
      </trkpt>
      <trkpt lat="45.16919" lon="5.62993">
        <ele>1168.8</ele>
        <time>2021-04-23T09:44:33.000Z</time>
      </trkpt>
      <trkpt lat="45.16918" lon="5.62993">
        <ele>1168.8</ele>
        <time>2021-04-23T09:44:37.000Z</time>
      </trkpt>
      <trkpt lat="45.16917" lon="5.62994">
        <ele>1169.2</ele>
        <time>2021-04-23T09:44:42.000Z</time>
      </trkpt>
      <trkpt lat="45.16917" lon="5.62994">
        <ele>1169.2</ele>
        <time>2021-04-23T09:44:47.000Z</time>
      </trkpt>
      <trkpt lat="45.16917" lon="5.62994">
        <ele>1169.2</ele>
        <time>2021-04-23T09:44:49.000Z</time>
      </trkpt>
      <trkpt lat="45.16917" lon="5.62994">
        <ele>1169.4</ele>
        <time>2021-04-23T09:44:54.000Z</time>
      </trkpt>
      <trkpt lat="45.16917" lon="5.62994">
        <ele>1169.6</ele>
        <time>2021-04-23T09:45:06.000Z</time>
      </trkpt>
      <trkpt lat="45.16917" lon="5.62996">
        <ele>1170</ele>
        <time>2021-04-23T09:45:11.000Z</time>
      </trkpt>
      <trkpt lat="45.16917" lon="5.62998">
        <ele>1170</ele>
        <time>2021-04-23T09:45:12.000Z</time>
      </trkpt>
      <trkpt lat="45.16918" lon="5.63">
        <ele>1170</ele>
        <time>2021-04-23T09:45:13.000Z</time>
      </trkpt>
      <trkpt lat="45.16918" lon="5.63002">
        <ele>1170</ele>
        <time>2021-04-23T09:45:14.000Z</time>
      </trkpt>
      <trkpt lat="45.16918" lon="5.63003">
        <ele>1170</ele>
        <time>2021-04-23T09:45:15.000Z</time>
      </trkpt>
      <trkpt lat="45.16918" lon="5.63005">
        <ele>1170</ele>
        <time>2021-04-23T09:45:16.000Z</time>
      </trkpt>
      <trkpt lat="45.16918" lon="5.63006">
        <ele>1169.8</ele>
        <time>2021-04-23T09:45:17.000Z</time>
      </trkpt>
      <trkpt lat="45.16918" lon="5.63006">
        <ele>1169.8</ele>
        <time>2021-04-23T09:45:18.000Z</time>
      </trkpt>
      <trkpt lat="45.16918" lon="5.63006">
        <ele>1169.8</ele>
        <time>2021-04-23T09:45:19.000Z</time>
      </trkpt>
      <trkpt lat="45.16919" lon="5.63006">
        <ele>1169.8</ele>
        <time>2021-04-23T09:45:20.000Z</time>
      </trkpt>
      <trkpt lat="45.16919" lon="5.63006">
        <ele>1169.8</ele>
        <time>2021-04-23T09:45:21.000Z</time>
      </trkpt>
      <trkpt lat="45.16919" lon="5.63006">
        <ele>1169.6</ele>
        <time>2021-04-23T09:45:24.000Z</time>
      </trkpt>
      <trkpt lat="45.16919" lon="5.63006">
        <ele>1169.4</ele>
        <time>2021-04-23T09:45:26.000Z</time>
      </trkpt>
      <trkpt lat="45.16919" lon="5.63006">
        <ele>1169.4</ele>
        <time>2021-04-23T09:45:28.000Z</time>
      </trkpt>
      <trkpt lat="45.16919" lon="5.63006">
        <ele>1169.4</ele>
        <time>2021-04-23T09:45:31.000Z</time>
      </trkpt>
      <trkpt lat="45.16919" lon="5.63006">
        <ele>1169.8</ele>
        <time>2021-04-23T09:45:42.000Z</time>
      </trkpt>
      <trkpt lat="45.16922" lon="5.63007">
        <ele>1169.8</ele>
        <time>2021-04-23T09:45:44.000Z</time>
      </trkpt>
      <trkpt lat="45.16922" lon="5.63008">
        <ele>1169.8</ele>
        <time>2021-04-23T09:45:45.000Z</time>
      </trkpt>
      <trkpt lat="45.16922" lon="5.6301">
        <ele>1169.8</ele>
        <time>2021-04-23T09:45:46.000Z</time>
      </trkpt>
      <trkpt lat="45.16922" lon="5.63011">
        <ele>1169.8</ele>
        <time>2021-04-23T09:45:47.000Z</time>
      </trkpt>
      <trkpt lat="45.16922" lon="5.63012">
        <ele>1169.8</ele>
        <time>2021-04-23T09:45:48.000Z</time>
      </trkpt>
      <trkpt lat="45.16922" lon="5.63014">
        <ele>1169.8</ele>
        <time>2021-04-23T09:45:49.000Z</time>
      </trkpt>
      <trkpt lat="45.16922" lon="5.63016">
        <ele>1169.8</ele>
        <time>2021-04-23T09:45:50.000Z</time>
      </trkpt>
      <trkpt lat="45.16921" lon="5.63017">
        <ele>1169.8</ele>
        <time>2021-04-23T09:45:51.000Z</time>
      </trkpt>
      <trkpt lat="45.1692" lon="5.63018">
        <ele>1170</ele>
        <time>2021-04-23T09:45:52.000Z</time>
      </trkpt>
      <trkpt lat="45.16918" lon="5.63018">
        <ele>1170.2</ele>
        <time>2021-04-23T09:45:53.000Z</time>
      </trkpt>
      <trkpt lat="45.16916" lon="5.63018">
        <ele>1170.4</ele>
        <time>2021-04-23T09:45:55.000Z</time>
      </trkpt>
      <trkpt lat="45.16915" lon="5.63018">
        <ele>1170.4</ele>
        <time>2021-04-23T09:45:56.000Z</time>
      </trkpt>
      <trkpt lat="45.16914" lon="5.63019">
        <ele>1170.4</ele>
        <time>2021-04-23T09:45:57.000Z</time>
      </trkpt>
      <trkpt lat="45.16913" lon="5.63022">
        <ele>1170.4</ele>
        <time>2021-04-23T09:45:59.000Z</time>
      </trkpt>
      <trkpt lat="45.16914" lon="5.63027">
        <ele>1170.4</ele>
        <time>2021-04-23T09:46:01.000Z</time>
      </trkpt>
      <trkpt lat="45.16913" lon="5.63029">
        <ele>1170.4</ele>
        <time>2021-04-23T09:46:02.000Z</time>
      </trkpt>
      <trkpt lat="45.1691" lon="5.63033">
        <ele>1170.4</ele>
        <time>2021-04-23T09:46:04.000Z</time>
      </trkpt>
      <trkpt lat="45.16908" lon="5.63035">
        <ele>1170.6</ele>
        <time>2021-04-23T09:46:05.000Z</time>
      </trkpt>
      <trkpt lat="45.16906" lon="5.63036">
        <ele>1170.8</ele>
        <time>2021-04-23T09:46:06.000Z</time>
      </trkpt>
      <trkpt lat="45.16903" lon="5.63037">
        <ele>1170.8</ele>
        <time>2021-04-23T09:46:07.000Z</time>
      </trkpt>
      <trkpt lat="45.16901" lon="5.63037">
        <ele>1170.8</ele>
        <time>2021-04-23T09:46:08.000Z</time>
      </trkpt>
      <trkpt lat="45.16898" lon="5.63037">
        <ele>1171.2</ele>
        <time>2021-04-23T09:46:10.000Z</time>
      </trkpt>
      <trkpt lat="45.16892" lon="5.63038">
        <ele>1171.4</ele>
        <time>2021-04-23T09:46:13.000Z</time>
      </trkpt>
      <trkpt lat="45.1689" lon="5.63038">
        <ele>1171.6</ele>
        <time>2021-04-23T09:46:14.000Z</time>
      </trkpt>
      <trkpt lat="45.16888" lon="5.63038">
        <ele>1171.8</ele>
        <time>2021-04-23T09:46:15.000Z</time>
      </trkpt>
      <trkpt lat="45.1688" lon="5.63037">
        <ele>1171.8</ele>
        <time>2021-04-23T09:46:19.000Z</time>
      </trkpt>
      <trkpt lat="45.1687" lon="5.63038">
        <ele>1172.6</ele>
        <time>2021-04-23T09:46:24.000Z</time>
      </trkpt>
      <trkpt lat="45.16859" lon="5.63037">
        <ele>1173</ele>
        <time>2021-04-23T09:46:29.000Z</time>
      </trkpt>
      <trkpt lat="45.16848" lon="5.63038">
        <ele>1173.6</ele>
        <time>2021-04-23T09:46:34.000Z</time>
      </trkpt>
      <trkpt lat="45.16845" lon="5.63038">
        <ele>1173.6</ele>
        <time>2021-04-23T09:46:35.000Z</time>
      </trkpt>
      <trkpt lat="45.16839" lon="5.63038">
        <ele>1174</ele>
        <time>2021-04-23T09:46:38.000Z</time>
      </trkpt>
      <trkpt lat="45.16837" lon="5.63039">
        <ele>1174</ele>
        <time>2021-04-23T09:46:39.000Z</time>
      </trkpt>
      <trkpt lat="45.16829" lon="5.63039">
        <ele>1174.4</ele>
        <time>2021-04-23T09:46:42.000Z</time>
      </trkpt>
      <trkpt lat="45.16827" lon="5.63039">
        <ele>1174.6</ele>
        <time>2021-04-23T09:46:43.000Z</time>
      </trkpt>
      <trkpt lat="45.16825" lon="5.63039">
        <ele>1174.8</ele>
        <time>2021-04-23T09:46:44.000Z</time>
      </trkpt>
      <trkpt lat="45.16823" lon="5.6304">
        <ele>1175</ele>
        <time>2021-04-23T09:46:45.000Z</time>
      </trkpt>
      <trkpt lat="45.1682" lon="5.63041">
        <ele>1175.2</ele>
        <time>2021-04-23T09:46:46.000Z</time>
      </trkpt>
      <trkpt lat="45.16817" lon="5.63041">
        <ele>1175.4</ele>
        <time>2021-04-23T09:46:47.000Z</time>
      </trkpt>
      <trkpt lat="45.16815" lon="5.63041">
        <ele>1175.4</ele>
        <time>2021-04-23T09:46:48.000Z</time>
      </trkpt>
      <trkpt lat="45.16812" lon="5.63041">
        <ele>1175.6</ele>
        <time>2021-04-23T09:46:49.000Z</time>
      </trkpt>
      <trkpt lat="45.1681" lon="5.63042">
        <ele>1175.6</ele>
        <time>2021-04-23T09:46:50.000Z</time>
      </trkpt>
      <trkpt lat="45.16807" lon="5.63042">
        <ele>1175.6</ele>
        <time>2021-04-23T09:46:51.000Z</time>
      </trkpt>
      <trkpt lat="45.16805" lon="5.63042">
        <ele>1175.6</ele>
        <time>2021-04-23T09:46:52.000Z</time>
      </trkpt>
      <trkpt lat="45.16802" lon="5.63042">
        <ele>1175.8</ele>
        <time>2021-04-23T09:46:53.000Z</time>
      </trkpt>
      <trkpt lat="45.168" lon="5.63042">
        <ele>1176</ele>
        <time>2021-04-23T09:46:54.000Z</time>
      </trkpt>
      <trkpt lat="45.16797" lon="5.63042">
        <ele>1176</ele>
        <time>2021-04-23T09:46:55.000Z</time>
      </trkpt>
      <trkpt lat="45.16794" lon="5.63042">
        <ele>1176.2</ele>
        <time>2021-04-23T09:46:56.000Z</time>
      </trkpt>
      <trkpt lat="45.16792" lon="5.63042">
        <ele>1176.4</ele>
        <time>2021-04-23T09:46:57.000Z</time>
      </trkpt>
      <trkpt lat="45.16789" lon="5.63042">
        <ele>1176.4</ele>
        <time>2021-04-23T09:46:58.000Z</time>
      </trkpt>
      <trkpt lat="45.16787" lon="5.63043">
        <ele>1176.6</ele>
        <time>2021-04-23T09:46:59.000Z</time>
      </trkpt>
      <trkpt lat="45.16785" lon="5.63043">
        <ele>1176.8</ele>
        <time>2021-04-23T09:47:00.000Z</time>
      </trkpt>
      <trkpt lat="45.16783" lon="5.63044">
        <ele>1177</ele>
        <time>2021-04-23T09:47:01.000Z</time>
      </trkpt>
      <trkpt lat="45.1678" lon="5.63044">
        <ele>1177.4</ele>
        <time>2021-04-23T09:47:02.000Z</time>
      </trkpt>
      <trkpt lat="45.16778" lon="5.63044">
        <ele>1177.6</ele>
        <time>2021-04-23T09:47:03.000Z</time>
      </trkpt>
      <trkpt lat="45.16776" lon="5.63045">
        <ele>1177.8</ele>
        <time>2021-04-23T09:47:04.000Z</time>
      </trkpt>
      <trkpt lat="45.16774" lon="5.63046">
        <ele>1177.8</ele>
        <time>2021-04-23T09:47:05.000Z</time>
      </trkpt>
      <trkpt lat="45.16771" lon="5.63046">
        <ele>1178</ele>
        <time>2021-04-23T09:47:06.000Z</time>
      </trkpt>
      <trkpt lat="45.16769" lon="5.63047">
        <ele>1178.2</ele>
        <time>2021-04-23T09:47:07.000Z</time>
      </trkpt>
      <trkpt lat="45.16767" lon="5.63047">
        <ele>1178.4</ele>
        <time>2021-04-23T09:47:08.000Z</time>
      </trkpt>
      <trkpt lat="45.16765" lon="5.63048">
        <ele>1178.6</ele>
        <time>2021-04-23T09:47:09.000Z</time>
      </trkpt>
      <trkpt lat="45.16763" lon="5.63048">
        <ele>1178.8</ele>
        <time>2021-04-23T09:47:10.000Z</time>
      </trkpt>
      <trkpt lat="45.1676" lon="5.6305">
        <ele>1179</ele>
        <time>2021-04-23T09:47:11.000Z</time>
      </trkpt>
      <trkpt lat="45.16758" lon="5.63051">
        <ele>1179.2</ele>
        <time>2021-04-23T09:47:12.000Z</time>
      </trkpt>
      <trkpt lat="45.16756" lon="5.63052">
        <ele>1179.2</ele>
        <time>2021-04-23T09:47:13.000Z</time>
      </trkpt>
      <trkpt lat="45.16753" lon="5.63053">
        <ele>1179.4</ele>
        <time>2021-04-23T09:47:14.000Z</time>
      </trkpt>
      <trkpt lat="45.16751" lon="5.63054">
        <ele>1179.4</ele>
        <time>2021-04-23T09:47:15.000Z</time>
      </trkpt>
      <trkpt lat="45.16748" lon="5.63055">
        <ele>1179.8</ele>
        <time>2021-04-23T09:47:16.000Z</time>
      </trkpt>
      <trkpt lat="45.16746" lon="5.63056">
        <ele>1180</ele>
        <time>2021-04-23T09:47:17.000Z</time>
      </trkpt>
      <trkpt lat="45.16744" lon="5.63057">
        <ele>1180.2</ele>
        <time>2021-04-23T09:47:18.000Z</time>
      </trkpt>
      <trkpt lat="45.16741" lon="5.63057">
        <ele>1180.2</ele>
        <time>2021-04-23T09:47:19.000Z</time>
      </trkpt>
      <trkpt lat="45.16739" lon="5.63058">
        <ele>1180.4</ele>
        <time>2021-04-23T09:47:20.000Z</time>
      </trkpt>
      <trkpt lat="45.16737" lon="5.63059">
        <ele>1180.4</ele>
        <time>2021-04-23T09:47:21.000Z</time>
      </trkpt>
      <trkpt lat="45.16734" lon="5.6306">
        <ele>1180.6</ele>
        <time>2021-04-23T09:47:22.000Z</time>
      </trkpt>
      <trkpt lat="45.16732" lon="5.63061">
        <ele>1180.8</ele>
        <time>2021-04-23T09:47:23.000Z</time>
      </trkpt>
      <trkpt lat="45.1673" lon="5.63061">
        <ele>1181</ele>
        <time>2021-04-23T09:47:24.000Z</time>
      </trkpt>
      <trkpt lat="45.16728" lon="5.63062">
        <ele>1181.2</ele>
        <time>2021-04-23T09:47:25.000Z</time>
      </trkpt>
      <trkpt lat="45.16725" lon="5.63063">
        <ele>1181.4</ele>
        <time>2021-04-23T09:47:26.000Z</time>
      </trkpt>
      <trkpt lat="45.16723" lon="5.63063">
        <ele>1181.4</ele>
        <time>2021-04-23T09:47:27.000Z</time>
      </trkpt>
      <trkpt lat="45.16722" lon="5.63064">
        <ele>1181.4</ele>
        <time>2021-04-23T09:47:28.000Z</time>
      </trkpt>
      <trkpt lat="45.1672" lon="5.63065">
        <ele>1181.6</ele>
        <time>2021-04-23T09:47:29.000Z</time>
      </trkpt>
      <trkpt lat="45.16717" lon="5.63065">
        <ele>1181.8</ele>
        <time>2021-04-23T09:47:30.000Z</time>
      </trkpt>
      <trkpt lat="45.16715" lon="5.63066">
        <ele>1182</ele>
        <time>2021-04-23T09:47:31.000Z</time>
      </trkpt>
      <trkpt lat="45.16713" lon="5.63067">
        <ele>1182.6</ele>
        <time>2021-04-23T09:47:32.000Z</time>
      </trkpt>
      <trkpt lat="45.16711" lon="5.63067">
        <ele>1182.8</ele>
        <time>2021-04-23T09:47:33.000Z</time>
      </trkpt>
      <trkpt lat="45.16709" lon="5.63068">
        <ele>1183.2</ele>
        <time>2021-04-23T09:47:34.000Z</time>
      </trkpt>
      <trkpt lat="45.16707" lon="5.63069">
        <ele>1183.4</ele>
        <time>2021-04-23T09:47:35.000Z</time>
      </trkpt>
      <trkpt lat="45.16705" lon="5.6307">
        <ele>1183.6</ele>
        <time>2021-04-23T09:47:36.000Z</time>
      </trkpt>
      <trkpt lat="45.16703" lon="5.6307">
        <ele>1183.8</ele>
        <time>2021-04-23T09:47:37.000Z</time>
      </trkpt>
      <trkpt lat="45.16701" lon="5.63071">
        <ele>1183.8</ele>
        <time>2021-04-23T09:47:38.000Z</time>
      </trkpt>
      <trkpt lat="45.16699" lon="5.63071">
        <ele>1184</ele>
        <time>2021-04-23T09:47:39.000Z</time>
      </trkpt>
      <trkpt lat="45.16697" lon="5.63071">
        <ele>1184.2</ele>
        <time>2021-04-23T09:47:40.000Z</time>
      </trkpt>
      <trkpt lat="45.16694" lon="5.63071">
        <ele>1184.2</ele>
        <time>2021-04-23T09:47:41.000Z</time>
      </trkpt>
      <trkpt lat="45.16692" lon="5.63072">
        <ele>1184.6</ele>
        <time>2021-04-23T09:47:42.000Z</time>
      </trkpt>
      <trkpt lat="45.1669" lon="5.63073">
        <ele>1184.8</ele>
        <time>2021-04-23T09:47:43.000Z</time>
      </trkpt>
      <trkpt lat="45.16687" lon="5.63073">
        <ele>1185</ele>
        <time>2021-04-23T09:47:44.000Z</time>
      </trkpt>
      <trkpt lat="45.16685" lon="5.63074">
        <ele>1185.2</ele>
        <time>2021-04-23T09:47:45.000Z</time>
      </trkpt>
      <trkpt lat="45.16682" lon="5.63075">
        <ele>1185.4</ele>
        <time>2021-04-23T09:47:46.000Z</time>
      </trkpt>
      <trkpt lat="45.1668" lon="5.63075">
        <ele>1185.6</ele>
        <time>2021-04-23T09:47:47.000Z</time>
      </trkpt>
      <trkpt lat="45.16677" lon="5.63075">
        <ele>1185.8</ele>
        <time>2021-04-23T09:47:48.000Z</time>
      </trkpt>
      <trkpt lat="45.16675" lon="5.63075">
        <ele>1186</ele>
        <time>2021-04-23T09:47:49.000Z</time>
      </trkpt>
      <trkpt lat="45.16673" lon="5.63075">
        <ele>1186</ele>
        <time>2021-04-23T09:47:50.000Z</time>
      </trkpt>
      <trkpt lat="45.16671" lon="5.63074">
        <ele>1186.2</ele>
        <time>2021-04-23T09:47:51.000Z</time>
      </trkpt>
      <trkpt lat="45.16668" lon="5.63073">
        <ele>1186.4</ele>
        <time>2021-04-23T09:47:52.000Z</time>
      </trkpt>
      <trkpt lat="45.16666" lon="5.63072">
        <ele>1186.6</ele>
        <time>2021-04-23T09:47:53.000Z</time>
      </trkpt>
      <trkpt lat="45.16664" lon="5.63071">
        <ele>1186.8</ele>
        <time>2021-04-23T09:47:54.000Z</time>
      </trkpt>
      <trkpt lat="45.16662" lon="5.63069">
        <ele>1186.8</ele>
        <time>2021-04-23T09:47:55.000Z</time>
      </trkpt>
      <trkpt lat="45.16661" lon="5.63067">
        <ele>1187.2</ele>
        <time>2021-04-23T09:47:56.000Z</time>
      </trkpt>
      <trkpt lat="45.16659" lon="5.63065">
        <ele>1187.4</ele>
        <time>2021-04-23T09:47:57.000Z</time>
      </trkpt>
      <trkpt lat="45.16658" lon="5.63062">
        <ele>1187.6</ele>
        <time>2021-04-23T09:47:58.000Z</time>
      </trkpt>
      <trkpt lat="45.16657" lon="5.63058">
        <ele>1187.8</ele>
        <time>2021-04-23T09:47:59.000Z</time>
      </trkpt>
      <trkpt lat="45.16656" lon="5.63055">
        <ele>1188</ele>
        <time>2021-04-23T09:48:00.000Z</time>
      </trkpt>
      <trkpt lat="45.16655" lon="5.63051">
        <ele>1188.2</ele>
        <time>2021-04-23T09:48:01.000Z</time>
      </trkpt>
      <trkpt lat="45.16655" lon="5.63048">
        <ele>1188.4</ele>
        <time>2021-04-23T09:48:02.000Z</time>
      </trkpt>
      <trkpt lat="45.16654" lon="5.63045">
        <ele>1188.6</ele>
        <time>2021-04-23T09:48:03.000Z</time>
      </trkpt>
      <trkpt lat="45.16654" lon="5.63041">
        <ele>1189</ele>
        <time>2021-04-23T09:48:04.000Z</time>
      </trkpt>
      <trkpt lat="45.16654" lon="5.63038">
        <ele>1189.2</ele>
        <time>2021-04-23T09:48:05.000Z</time>
      </trkpt>
      <trkpt lat="45.16654" lon="5.63034">
        <ele>1189.2</ele>
        <time>2021-04-23T09:48:06.000Z</time>
      </trkpt>
      <trkpt lat="45.16654" lon="5.63031">
        <ele>1189.4</ele>
        <time>2021-04-23T09:48:07.000Z</time>
      </trkpt>
      <trkpt lat="45.16655" lon="5.63028">
        <ele>1189.6</ele>
        <time>2021-04-23T09:48:08.000Z</time>
      </trkpt>
      <trkpt lat="45.16655" lon="5.63024">
        <ele>1189.8</ele>
        <time>2021-04-23T09:48:09.000Z</time>
      </trkpt>
      <trkpt lat="45.16655" lon="5.63021">
        <ele>1190</ele>
        <time>2021-04-23T09:48:10.000Z</time>
      </trkpt>
      <trkpt lat="45.16655" lon="5.63018">
        <ele>1190.2</ele>
        <time>2021-04-23T09:48:11.000Z</time>
      </trkpt>
      <trkpt lat="45.16655" lon="5.63014">
        <ele>1190.4</ele>
        <time>2021-04-23T09:48:12.000Z</time>
      </trkpt>
      <trkpt lat="45.16656" lon="5.63011">
        <ele>1190.6</ele>
        <time>2021-04-23T09:48:13.000Z</time>
      </trkpt>
      <trkpt lat="45.16656" lon="5.63007">
        <ele>1190.8</ele>
        <time>2021-04-23T09:48:14.000Z</time>
      </trkpt>
      <trkpt lat="45.16656" lon="5.63004">
        <ele>1190.8</ele>
        <time>2021-04-23T09:48:15.000Z</time>
      </trkpt>
      <trkpt lat="45.16657" lon="5.63001">
        <ele>1191</ele>
        <time>2021-04-23T09:48:16.000Z</time>
      </trkpt>
      <trkpt lat="45.16657" lon="5.62998">
        <ele>1191.2</ele>
        <time>2021-04-23T09:48:17.000Z</time>
      </trkpt>
      <trkpt lat="45.16657" lon="5.62995">
        <ele>1191.6</ele>
        <time>2021-04-23T09:48:18.000Z</time>
      </trkpt>
      <trkpt lat="45.16657" lon="5.62992">
        <ele>1191.8</ele>
        <time>2021-04-23T09:48:19.000Z</time>
      </trkpt>
      <trkpt lat="45.16657" lon="5.62989">
        <ele>1191.8</ele>
        <time>2021-04-23T09:48:20.000Z</time>
      </trkpt>
      <trkpt lat="45.16657" lon="5.62986">
        <ele>1192</ele>
        <time>2021-04-23T09:48:21.000Z</time>
      </trkpt>
      <trkpt lat="45.16657" lon="5.62983">
        <ele>1192.4</ele>
        <time>2021-04-23T09:48:22.000Z</time>
      </trkpt>
      <trkpt lat="45.16657" lon="5.6298">
        <ele>1192.6</ele>
        <time>2021-04-23T09:48:23.000Z</time>
      </trkpt>
      <trkpt lat="45.16658" lon="5.62976">
        <ele>1192.8</ele>
        <time>2021-04-23T09:48:24.000Z</time>
      </trkpt>
      <trkpt lat="45.16658" lon="5.62973">
        <ele>1193.2</ele>
        <time>2021-04-23T09:48:25.000Z</time>
      </trkpt>
      <trkpt lat="45.16658" lon="5.6297">
        <ele>1193.2</ele>
        <time>2021-04-23T09:48:26.000Z</time>
      </trkpt>
      <trkpt lat="45.16658" lon="5.62966">
        <ele>1193.4</ele>
        <time>2021-04-23T09:48:27.000Z</time>
      </trkpt>
      <trkpt lat="45.16659" lon="5.62963">
        <ele>1193.4</ele>
        <time>2021-04-23T09:48:28.000Z</time>
      </trkpt>
      <trkpt lat="45.16659" lon="5.6296">
        <ele>1193.4</ele>
        <time>2021-04-23T09:48:29.000Z</time>
      </trkpt>
      <trkpt lat="45.16659" lon="5.62956">
        <ele>1193.8</ele>
        <time>2021-04-23T09:48:30.000Z</time>
      </trkpt>
      <trkpt lat="45.16659" lon="5.62953">
        <ele>1194.2</ele>
        <time>2021-04-23T09:48:31.000Z</time>
      </trkpt>
      <trkpt lat="45.16659" lon="5.62949">
        <ele>1194.4</ele>
        <time>2021-04-23T09:48:32.000Z</time>
      </trkpt>
      <trkpt lat="45.16659" lon="5.62946">
        <ele>1194.6</ele>
        <time>2021-04-23T09:48:33.000Z</time>
      </trkpt>
      <trkpt lat="45.16659" lon="5.62942">
        <ele>1194.8</ele>
        <time>2021-04-23T09:48:34.000Z</time>
      </trkpt>
      <trkpt lat="45.1666" lon="5.62939">
        <ele>1195</ele>
        <time>2021-04-23T09:48:35.000Z</time>
      </trkpt>
      <trkpt lat="45.1666" lon="5.62935">
        <ele>1195.2</ele>
        <time>2021-04-23T09:48:36.000Z</time>
      </trkpt>
      <trkpt lat="45.1666" lon="5.62932">
        <ele>1195.4</ele>
        <time>2021-04-23T09:48:37.000Z</time>
      </trkpt>
      <trkpt lat="45.1666" lon="5.62929">
        <ele>1195.4</ele>
        <time>2021-04-23T09:48:38.000Z</time>
      </trkpt>
      <trkpt lat="45.16661" lon="5.62925">
        <ele>1195.4</ele>
        <time>2021-04-23T09:48:39.000Z</time>
      </trkpt>
      <trkpt lat="45.16661" lon="5.62922">
        <ele>1195.6</ele>
        <time>2021-04-23T09:48:40.000Z</time>
      </trkpt>
      <trkpt lat="45.16661" lon="5.62919">
        <ele>1195.6</ele>
        <time>2021-04-23T09:48:41.000Z</time>
      </trkpt>
      <trkpt lat="45.16662" lon="5.62916">
        <ele>1195.8</ele>
        <time>2021-04-23T09:48:42.000Z</time>
      </trkpt>
      <trkpt lat="45.16661" lon="5.62912">
        <ele>1196</ele>
        <time>2021-04-23T09:48:43.000Z</time>
      </trkpt>
      <trkpt lat="45.16661" lon="5.62909">
        <ele>1196.2</ele>
        <time>2021-04-23T09:48:44.000Z</time>
      </trkpt>
      <trkpt lat="45.16659" lon="5.62907">
        <ele>1196.4</ele>
        <time>2021-04-23T09:48:45.000Z</time>
      </trkpt>
      <trkpt lat="45.16657" lon="5.62905">
        <ele>1196.4</ele>
        <time>2021-04-23T09:48:46.000Z</time>
      </trkpt>
      <trkpt lat="45.16655" lon="5.62905">
        <ele>1196.6</ele>
        <time>2021-04-23T09:48:47.000Z</time>
      </trkpt>
      <trkpt lat="45.16653" lon="5.62905">
        <ele>1196.8</ele>
        <time>2021-04-23T09:48:48.000Z</time>
      </trkpt>
      <trkpt lat="45.1665" lon="5.62906">
        <ele>1197</ele>
        <time>2021-04-23T09:48:49.000Z</time>
      </trkpt>
      <trkpt lat="45.16649" lon="5.62909">
        <ele>1197</ele>
        <time>2021-04-23T09:48:50.000Z</time>
      </trkpt>
      <trkpt lat="45.16647" lon="5.62911">
        <ele>1197</ele>
        <time>2021-04-23T09:48:51.000Z</time>
      </trkpt>
      <trkpt lat="45.16645" lon="5.62914">
        <ele>1197.2</ele>
        <time>2021-04-23T09:48:52.000Z</time>
      </trkpt>
      <trkpt lat="45.16644" lon="5.62916">
        <ele>1197.2</ele>
        <time>2021-04-23T09:48:53.000Z</time>
      </trkpt>
      <trkpt lat="45.16642" lon="5.62919">
        <ele>1197.2</ele>
        <time>2021-04-23T09:48:54.000Z</time>
      </trkpt>
      <trkpt lat="45.16641" lon="5.62922">
        <ele>1197.4</ele>
        <time>2021-04-23T09:48:55.000Z</time>
      </trkpt>
      <trkpt lat="45.1664" lon="5.62926">
        <ele>1197.4</ele>
        <time>2021-04-23T09:48:56.000Z</time>
      </trkpt>
      <trkpt lat="45.16639" lon="5.62929">
        <ele>1197.4</ele>
        <time>2021-04-23T09:48:57.000Z</time>
      </trkpt>
      <trkpt lat="45.16638" lon="5.62932">
        <ele>1197.4</ele>
        <time>2021-04-23T09:48:58.000Z</time>
      </trkpt>
      <trkpt lat="45.16637" lon="5.62935">
        <ele>1197.6</ele>
        <time>2021-04-23T09:48:59.000Z</time>
      </trkpt>
      <trkpt lat="45.16636" lon="5.62939">
        <ele>1197.6</ele>
        <time>2021-04-23T09:49:00.000Z</time>
      </trkpt>
      <trkpt lat="45.16635" lon="5.62942">
        <ele>1197.8</ele>
        <time>2021-04-23T09:49:01.000Z</time>
      </trkpt>
      <trkpt lat="45.16634" lon="5.62946">
        <ele>1197.8</ele>
        <time>2021-04-23T09:49:02.000Z</time>
      </trkpt>
      <trkpt lat="45.16634" lon="5.6295">
        <ele>1198</ele>
        <time>2021-04-23T09:49:03.000Z</time>
      </trkpt>
      <trkpt lat="45.16633" lon="5.62953">
        <ele>1198</ele>
        <time>2021-04-23T09:49:04.000Z</time>
      </trkpt>
      <trkpt lat="45.16633" lon="5.62957">
        <ele>1198</ele>
        <time>2021-04-23T09:49:05.000Z</time>
      </trkpt>
      <trkpt lat="45.16632" lon="5.62961">
        <ele>1198.2</ele>
        <time>2021-04-23T09:49:06.000Z</time>
      </trkpt>
      <trkpt lat="45.16632" lon="5.62965">
        <ele>1198.2</ele>
        <time>2021-04-23T09:49:07.000Z</time>
      </trkpt>
      <trkpt lat="45.16632" lon="5.62969">
        <ele>1198.4</ele>
        <time>2021-04-23T09:49:08.000Z</time>
      </trkpt>
      <trkpt lat="45.16632" lon="5.62973">
        <ele>1198.4</ele>
        <time>2021-04-23T09:49:09.000Z</time>
      </trkpt>
      <trkpt lat="45.16632" lon="5.62977">
        <ele>1198.4</ele>
        <time>2021-04-23T09:49:10.000Z</time>
      </trkpt>
      <trkpt lat="45.16632" lon="5.62981">
        <ele>1198.8</ele>
        <time>2021-04-23T09:49:11.000Z</time>
      </trkpt>
      <trkpt lat="45.16632" lon="5.62985">
        <ele>1198.8</ele>
        <time>2021-04-23T09:49:12.000Z</time>
      </trkpt>
      <trkpt lat="45.16631" lon="5.62993">
        <ele>1199</ele>
        <time>2021-04-23T09:49:14.000Z</time>
      </trkpt>
      <trkpt lat="45.1663" lon="5.62996">
        <ele>1199</ele>
        <time>2021-04-23T09:49:15.000Z</time>
      </trkpt>
      <trkpt lat="45.16629" lon="5.63">
        <ele>1199.4</ele>
        <time>2021-04-23T09:49:16.000Z</time>
      </trkpt>
      <trkpt lat="45.16626" lon="5.63006">
        <ele>1199.8</ele>
        <time>2021-04-23T09:49:18.000Z</time>
      </trkpt>
      <trkpt lat="45.16624" lon="5.63009">
        <ele>1199.8</ele>
        <time>2021-04-23T09:49:19.000Z</time>
      </trkpt>
      <trkpt lat="45.16622" lon="5.63012">
        <ele>1200</ele>
        <time>2021-04-23T09:49:20.000Z</time>
      </trkpt>
      <trkpt lat="45.1662" lon="5.63015">
        <ele>1200.2</ele>
        <time>2021-04-23T09:49:21.000Z</time>
      </trkpt>
      <trkpt lat="45.16618" lon="5.63017">
        <ele>1200.4</ele>
        <time>2021-04-23T09:49:22.000Z</time>
      </trkpt>
      <trkpt lat="45.16616" lon="5.6302">
        <ele>1200.4</ele>
        <time>2021-04-23T09:49:23.000Z</time>
      </trkpt>
      <trkpt lat="45.16614" lon="5.63023">
        <ele>1200.6</ele>
        <time>2021-04-23T09:49:24.000Z</time>
      </trkpt>
      <trkpt lat="45.16613" lon="5.63026">
        <ele>1200.8</ele>
        <time>2021-04-23T09:49:25.000Z</time>
      </trkpt>
      <trkpt lat="45.16611" lon="5.63028">
        <ele>1201</ele>
        <time>2021-04-23T09:49:26.000Z</time>
      </trkpt>
      <trkpt lat="45.16609" lon="5.63031">
        <ele>1201.2</ele>
        <time>2021-04-23T09:49:27.000Z</time>
      </trkpt>
      <trkpt lat="45.16607" lon="5.63033">
        <ele>1201.4</ele>
        <time>2021-04-23T09:49:28.000Z</time>
      </trkpt>
      <trkpt lat="45.16605" lon="5.63036">
        <ele>1201.8</ele>
        <time>2021-04-23T09:49:29.000Z</time>
      </trkpt>
      <trkpt lat="45.16603" lon="5.63039">
        <ele>1201.8</ele>
        <time>2021-04-23T09:49:30.000Z</time>
      </trkpt>
      <trkpt lat="45.16601" lon="5.63042">
        <ele>1202</ele>
        <time>2021-04-23T09:49:31.000Z</time>
      </trkpt>
      <trkpt lat="45.166" lon="5.63044">
        <ele>1202.2</ele>
        <time>2021-04-23T09:49:32.000Z</time>
      </trkpt>
      <trkpt lat="45.16598" lon="5.63047">
        <ele>1202.4</ele>
        <time>2021-04-23T09:49:33.000Z</time>
      </trkpt>
      <trkpt lat="45.16596" lon="5.63049">
        <ele>1202.4</ele>
        <time>2021-04-23T09:49:34.000Z</time>
      </trkpt>
      <trkpt lat="45.16594" lon="5.63052">
        <ele>1202.6</ele>
        <time>2021-04-23T09:49:35.000Z</time>
      </trkpt>
      <trkpt lat="45.16593" lon="5.63054">
        <ele>1202.8</ele>
        <time>2021-04-23T09:49:36.000Z</time>
      </trkpt>
      <trkpt lat="45.16591" lon="5.63057">
        <ele>1203</ele>
        <time>2021-04-23T09:49:37.000Z</time>
      </trkpt>
      <trkpt lat="45.1659" lon="5.6306">
        <ele>1203.2</ele>
        <time>2021-04-23T09:49:38.000Z</time>
      </trkpt>
      <trkpt lat="45.16588" lon="5.63062">
        <ele>1203.4</ele>
        <time>2021-04-23T09:49:39.000Z</time>
      </trkpt>
      <trkpt lat="45.16587" lon="5.63065">
        <ele>1203.4</ele>
        <time>2021-04-23T09:49:40.000Z</time>
      </trkpt>
      <trkpt lat="45.16585" lon="5.63068">
        <ele>1203.6</ele>
        <time>2021-04-23T09:49:41.000Z</time>
      </trkpt>
      <trkpt lat="45.16584" lon="5.63071">
        <ele>1203.8</ele>
        <time>2021-04-23T09:49:42.000Z</time>
      </trkpt>
      <trkpt lat="45.16583" lon="5.63074">
        <ele>1204.2</ele>
        <time>2021-04-23T09:49:43.000Z</time>
      </trkpt>
      <trkpt lat="45.16582" lon="5.63077">
        <ele>1204.4</ele>
        <time>2021-04-23T09:49:44.000Z</time>
      </trkpt>
      <trkpt lat="45.16581" lon="5.6308">
        <ele>1204.6</ele>
        <time>2021-04-23T09:49:45.000Z</time>
      </trkpt>
      <trkpt lat="45.1658" lon="5.63083">
        <ele>1204.8</ele>
        <time>2021-04-23T09:49:46.000Z</time>
      </trkpt>
      <trkpt lat="45.16579" lon="5.63087">
        <ele>1205</ele>
        <time>2021-04-23T09:49:47.000Z</time>
      </trkpt>
      <trkpt lat="45.16579" lon="5.6309">
        <ele>1205.2</ele>
        <time>2021-04-23T09:49:48.000Z</time>
      </trkpt>
      <trkpt lat="45.16579" lon="5.63093">
        <ele>1205.4</ele>
        <time>2021-04-23T09:49:49.000Z</time>
      </trkpt>
      <trkpt lat="45.16578" lon="5.63097">
        <ele>1205.6</ele>
        <time>2021-04-23T09:49:50.000Z</time>
      </trkpt>
      <trkpt lat="45.16578" lon="5.631">
        <ele>1205.8</ele>
        <time>2021-04-23T09:49:51.000Z</time>
      </trkpt>
      <trkpt lat="45.16578" lon="5.63103">
        <ele>1206</ele>
        <time>2021-04-23T09:49:52.000Z</time>
      </trkpt>
      <trkpt lat="45.16578" lon="5.63106">
        <ele>1206.2</ele>
        <time>2021-04-23T09:49:53.000Z</time>
      </trkpt>
      <trkpt lat="45.16579" lon="5.6311">
        <ele>1206.4</ele>
        <time>2021-04-23T09:49:54.000Z</time>
      </trkpt>
      <trkpt lat="45.1658" lon="5.63113">
        <ele>1206.6</ele>
        <time>2021-04-23T09:49:55.000Z</time>
      </trkpt>
      <trkpt lat="45.16582" lon="5.63117">
        <ele>1206.6</ele>
        <time>2021-04-23T09:49:56.000Z</time>
      </trkpt>
      <trkpt lat="45.16584" lon="5.6312">
        <ele>1207</ele>
        <time>2021-04-23T09:49:57.000Z</time>
      </trkpt>
      <trkpt lat="45.16586" lon="5.63123">
        <ele>1207.4</ele>
        <time>2021-04-23T09:49:58.000Z</time>
      </trkpt>
      <trkpt lat="45.16589" lon="5.63125">
        <ele>1207.6</ele>
        <time>2021-04-23T09:49:59.000Z</time>
      </trkpt>
      <trkpt lat="45.16591" lon="5.63128">
        <ele>1208</ele>
        <time>2021-04-23T09:50:00.000Z</time>
      </trkpt>
      <trkpt lat="45.16592" lon="5.6313">
        <ele>1208</ele>
        <time>2021-04-23T09:50:01.000Z</time>
      </trkpt>
      <trkpt lat="45.16594" lon="5.63133">
        <ele>1208.2</ele>
        <time>2021-04-23T09:50:02.000Z</time>
      </trkpt>
      <trkpt lat="45.16597" lon="5.63135">
        <ele>1208.2</ele>
        <time>2021-04-23T09:50:03.000Z</time>
      </trkpt>
      <trkpt lat="45.16599" lon="5.63137">
        <ele>1208.4</ele>
        <time>2021-04-23T09:50:04.000Z</time>
      </trkpt>
      <trkpt lat="45.16602" lon="5.6314">
        <ele>1208.4</ele>
        <time>2021-04-23T09:50:05.000Z</time>
      </trkpt>
      <trkpt lat="45.16605" lon="5.63142">
        <ele>1208.4</ele>
        <time>2021-04-23T09:50:06.000Z</time>
      </trkpt>
      <trkpt lat="45.16608" lon="5.63144">
        <ele>1208.4</ele>
        <time>2021-04-23T09:50:07.000Z</time>
      </trkpt>
      <trkpt lat="45.1661" lon="5.63146">
        <ele>1208.2</ele>
        <time>2021-04-23T09:50:08.000Z</time>
      </trkpt>
      <trkpt lat="45.16613" lon="5.63149">
        <ele>1208</ele>
        <time>2021-04-23T09:50:09.000Z</time>
      </trkpt>
      <trkpt lat="45.16615" lon="5.63152">
        <ele>1207.8</ele>
        <time>2021-04-23T09:50:10.000Z</time>
      </trkpt>
      <trkpt lat="45.16618" lon="5.63154">
        <ele>1207.6</ele>
        <time>2021-04-23T09:50:11.000Z</time>
      </trkpt>
      <trkpt lat="45.1662" lon="5.63156">
        <ele>1207.4</ele>
        <time>2021-04-23T09:50:12.000Z</time>
      </trkpt>
      <trkpt lat="45.16623" lon="5.63159">
        <ele>1207.4</ele>
        <time>2021-04-23T09:50:13.000Z</time>
      </trkpt>
      <trkpt lat="45.16625" lon="5.63161">
        <ele>1207.2</ele>
        <time>2021-04-23T09:50:14.000Z</time>
      </trkpt>
      <trkpt lat="45.16628" lon="5.63164">
        <ele>1207</ele>
        <time>2021-04-23T09:50:15.000Z</time>
      </trkpt>
      <trkpt lat="45.1663" lon="5.63166">
        <ele>1207</ele>
        <time>2021-04-23T09:50:16.000Z</time>
      </trkpt>
      <trkpt lat="45.16641" lon="5.63175">
        <ele>1207.4</ele>
        <time>2021-04-23T09:50:20.000Z</time>
      </trkpt>
      <trkpt lat="45.16649" lon="5.63183">
        <ele>1207.4</ele>
        <time>2021-04-23T09:50:23.000Z</time>
      </trkpt>
      <trkpt lat="45.16652" lon="5.63185">
        <ele>1207.4</ele>
        <time>2021-04-23T09:50:24.000Z</time>
      </trkpt>
      <trkpt lat="45.16658" lon="5.6319">
        <ele>1207.6</ele>
        <time>2021-04-23T09:50:26.000Z</time>
      </trkpt>
      <trkpt lat="45.16661" lon="5.63192">
        <ele>1207.8</ele>
        <time>2021-04-23T09:50:27.000Z</time>
      </trkpt>
      <trkpt lat="45.16666" lon="5.63196">
        <ele>1208.2</ele>
        <time>2021-04-23T09:50:29.000Z</time>
      </trkpt>
      <trkpt lat="45.16672" lon="5.63201">
        <ele>1208.4</ele>
        <time>2021-04-23T09:50:31.000Z</time>
      </trkpt>
      <trkpt lat="45.16675" lon="5.63204">
        <ele>1208.6</ele>
        <time>2021-04-23T09:50:32.000Z</time>
      </trkpt>
      <trkpt lat="45.16686" lon="5.63213">
        <ele>1208.6</ele>
        <time>2021-04-23T09:50:36.000Z</time>
      </trkpt>
      <trkpt lat="45.167" lon="5.63225">
        <ele>1209.4</ele>
        <time>2021-04-23T09:50:41.000Z</time>
      </trkpt>
      <trkpt lat="45.16703" lon="5.63227">
        <ele>1209.4</ele>
        <time>2021-04-23T09:50:42.000Z</time>
      </trkpt>
      <trkpt lat="45.16709" lon="5.6323">
        <ele>1209.6</ele>
        <time>2021-04-23T09:50:44.000Z</time>
      </trkpt>
      <trkpt lat="45.16717" lon="5.63237">
        <ele>1209.4</ele>
        <time>2021-04-23T09:50:47.000Z</time>
      </trkpt>
      <trkpt lat="45.16734" lon="5.63249">
        <ele>1210.6</ele>
        <time>2021-04-23T09:50:53.000Z</time>
      </trkpt>
      <trkpt lat="45.1674" lon="5.63253">
        <ele>1211.4</ele>
        <time>2021-04-23T09:50:55.000Z</time>
      </trkpt>
      <trkpt lat="45.16742" lon="5.63255">
        <ele>1211.6</ele>
        <time>2021-04-23T09:50:56.000Z</time>
      </trkpt>
      <trkpt lat="45.16745" lon="5.63257">
        <ele>1211.8</ele>
        <time>2021-04-23T09:50:57.000Z</time>
      </trkpt>
      <trkpt lat="45.16748" lon="5.63258">
        <ele>1212.2</ele>
        <time>2021-04-23T09:50:58.000Z</time>
      </trkpt>
      <trkpt lat="45.1675" lon="5.6326">
        <ele>1212.2</ele>
        <time>2021-04-23T09:50:59.000Z</time>
      </trkpt>
      <trkpt lat="45.16753" lon="5.63262">
        <ele>1212.4</ele>
        <time>2021-04-23T09:51:00.000Z</time>
      </trkpt>
      <trkpt lat="45.16756" lon="5.63263">
        <ele>1212.6</ele>
        <time>2021-04-23T09:51:01.000Z</time>
      </trkpt>
      <trkpt lat="45.16759" lon="5.63265">
        <ele>1212.6</ele>
        <time>2021-04-23T09:51:02.000Z</time>
      </trkpt>
      <trkpt lat="45.16761" lon="5.63267">
        <ele>1212.8</ele>
        <time>2021-04-23T09:51:03.000Z</time>
      </trkpt>
      <trkpt lat="45.16764" lon="5.63268">
        <ele>1212.8</ele>
        <time>2021-04-23T09:51:04.000Z</time>
      </trkpt>
      <trkpt lat="45.16767" lon="5.6327">
        <ele>1213</ele>
        <time>2021-04-23T09:51:05.000Z</time>
      </trkpt>
      <trkpt lat="45.16769" lon="5.63272">
        <ele>1213.2</ele>
        <time>2021-04-23T09:51:06.000Z</time>
      </trkpt>
      <trkpt lat="45.16771" lon="5.63273">
        <ele>1213.6</ele>
        <time>2021-04-23T09:51:07.000Z</time>
      </trkpt>
      <trkpt lat="45.16774" lon="5.63275">
        <ele>1214</ele>
        <time>2021-04-23T09:51:08.000Z</time>
      </trkpt>
      <trkpt lat="45.16776" lon="5.63277">
        <ele>1214.2</ele>
        <time>2021-04-23T09:51:09.000Z</time>
      </trkpt>
      <trkpt lat="45.16779" lon="5.63278">
        <ele>1214.4</ele>
        <time>2021-04-23T09:51:10.000Z</time>
      </trkpt>
      <trkpt lat="45.16781" lon="5.6328">
        <ele>1214.6</ele>
        <time>2021-04-23T09:51:11.000Z</time>
      </trkpt>
      <trkpt lat="45.16783" lon="5.63282">
        <ele>1214.8</ele>
        <time>2021-04-23T09:51:12.000Z</time>
      </trkpt>
      <trkpt lat="45.16786" lon="5.63284">
        <ele>1215</ele>
        <time>2021-04-23T09:51:13.000Z</time>
      </trkpt>
      <trkpt lat="45.16788" lon="5.63286">
        <ele>1215.4</ele>
        <time>2021-04-23T09:51:14.000Z</time>
      </trkpt>
      <trkpt lat="45.16791" lon="5.63287">
        <ele>1215.6</ele>
        <time>2021-04-23T09:51:15.000Z</time>
      </trkpt>
      <trkpt lat="45.16794" lon="5.6329">
        <ele>1216</ele>
        <time>2021-04-23T09:51:16.000Z</time>
      </trkpt>
      <trkpt lat="45.16796" lon="5.63292">
        <ele>1216.4</ele>
        <time>2021-04-23T09:51:17.000Z</time>
      </trkpt>
      <trkpt lat="45.16799" lon="5.63294">
        <ele>1216.4</ele>
        <time>2021-04-23T09:51:18.000Z</time>
      </trkpt>
      <trkpt lat="45.16801" lon="5.63296">
        <ele>1216.6</ele>
        <time>2021-04-23T09:51:19.000Z</time>
      </trkpt>
      <trkpt lat="45.16803" lon="5.63298">
        <ele>1216.6</ele>
        <time>2021-04-23T09:51:20.000Z</time>
      </trkpt>
      <trkpt lat="45.16806" lon="5.63301">
        <ele>1216.6</ele>
        <time>2021-04-23T09:51:21.000Z</time>
      </trkpt>
      <trkpt lat="45.16808" lon="5.63303">
        <ele>1216.6</ele>
        <time>2021-04-23T09:51:22.000Z</time>
      </trkpt>
      <trkpt lat="45.1681" lon="5.63306">
        <ele>1216.8</ele>
        <time>2021-04-23T09:51:23.000Z</time>
      </trkpt>
      <trkpt lat="45.16812" lon="5.63309">
        <ele>1217</ele>
        <time>2021-04-23T09:51:24.000Z</time>
      </trkpt>
      <trkpt lat="45.16813" lon="5.63312">
        <ele>1217</ele>
        <time>2021-04-23T09:51:25.000Z</time>
      </trkpt>
      <trkpt lat="45.16816" lon="5.63315">
        <ele>1217.2</ele>
        <time>2021-04-23T09:51:26.000Z</time>
      </trkpt>
      <trkpt lat="45.16818" lon="5.63318">
        <ele>1217.4</ele>
        <time>2021-04-23T09:51:27.000Z</time>
      </trkpt>
      <trkpt lat="45.1682" lon="5.63322">
        <ele>1217.4</ele>
        <time>2021-04-23T09:51:28.000Z</time>
      </trkpt>
      <trkpt lat="45.16821" lon="5.63325">
        <ele>1217.6</ele>
        <time>2021-04-23T09:51:29.000Z</time>
      </trkpt>
      <trkpt lat="45.16823" lon="5.63328">
        <ele>1217.6</ele>
        <time>2021-04-23T09:51:30.000Z</time>
      </trkpt>
      <trkpt lat="45.16825" lon="5.63332">
        <ele>1217.8</ele>
        <time>2021-04-23T09:51:31.000Z</time>
      </trkpt>
      <trkpt lat="45.16827" lon="5.63335">
        <ele>1218</ele>
        <time>2021-04-23T09:51:32.000Z</time>
      </trkpt>
      <trkpt lat="45.16828" lon="5.63338">
        <ele>1218</ele>
        <time>2021-04-23T09:51:33.000Z</time>
      </trkpt>
      <trkpt lat="45.16829" lon="5.63341">
        <ele>1218.2</ele>
        <time>2021-04-23T09:51:34.000Z</time>
      </trkpt>
      <trkpt lat="45.1683" lon="5.63343">
        <ele>1218.2</ele>
        <time>2021-04-23T09:51:35.000Z</time>
      </trkpt>
      <trkpt lat="45.16831" lon="5.63346">
        <ele>1218.4</ele>
        <time>2021-04-23T09:51:36.000Z</time>
      </trkpt>
      <trkpt lat="45.16832" lon="5.6335">
        <ele>1218.6</ele>
        <time>2021-04-23T09:51:37.000Z</time>
      </trkpt>
      <trkpt lat="45.16832" lon="5.63353">
        <ele>1218.8</ele>
        <time>2021-04-23T09:51:38.000Z</time>
      </trkpt>
      <trkpt lat="45.1683" lon="5.63357">
        <ele>1219</ele>
        <time>2021-04-23T09:51:39.000Z</time>
      </trkpt>
      <trkpt lat="45.16828" lon="5.63359">
        <ele>1219.2</ele>
        <time>2021-04-23T09:51:40.000Z</time>
      </trkpt>
      <trkpt lat="45.16825" lon="5.6336">
        <ele>1219.6</ele>
        <time>2021-04-23T09:51:41.000Z</time>
      </trkpt>
      <trkpt lat="45.16822" lon="5.6336">
        <ele>1219.8</ele>
        <time>2021-04-23T09:51:42.000Z</time>
      </trkpt>
      <trkpt lat="45.1682" lon="5.63359">
        <ele>1220.2</ele>
        <time>2021-04-23T09:51:43.000Z</time>
      </trkpt>
      <trkpt lat="45.16818" lon="5.63359">
        <ele>1220.6</ele>
        <time>2021-04-23T09:51:44.000Z</time>
      </trkpt>
      <trkpt lat="45.16816" lon="5.63358">
        <ele>1221</ele>
        <time>2021-04-23T09:51:45.000Z</time>
      </trkpt>
      <trkpt lat="45.16814" lon="5.63357">
        <ele>1221.4</ele>
        <time>2021-04-23T09:51:46.000Z</time>
      </trkpt>
      <trkpt lat="45.16812" lon="5.63357">
        <ele>1221.6</ele>
        <time>2021-04-23T09:51:47.000Z</time>
      </trkpt>
      <trkpt lat="45.1681" lon="5.63356">
        <ele>1221.8</ele>
        <time>2021-04-23T09:51:48.000Z</time>
      </trkpt>
      <trkpt lat="45.16807" lon="5.63356">
        <ele>1222</ele>
        <time>2021-04-23T09:51:49.000Z</time>
      </trkpt>
      <trkpt lat="45.16805" lon="5.63355">
        <ele>1222.4</ele>
        <time>2021-04-23T09:51:50.000Z</time>
      </trkpt>
      <trkpt lat="45.16803" lon="5.63355">
        <ele>1222.6</ele>
        <time>2021-04-23T09:51:51.000Z</time>
      </trkpt>
      <trkpt lat="45.16801" lon="5.63354">
        <ele>1223</ele>
        <time>2021-04-23T09:51:52.000Z</time>
      </trkpt>
      <trkpt lat="45.16799" lon="5.63354">
        <ele>1223.2</ele>
        <time>2021-04-23T09:51:53.000Z</time>
      </trkpt>
      <trkpt lat="45.16796" lon="5.63353">
        <ele>1223.6</ele>
        <time>2021-04-23T09:51:54.000Z</time>
      </trkpt>
      <trkpt lat="45.16794" lon="5.63353">
        <ele>1223.8</ele>
        <time>2021-04-23T09:51:55.000Z</time>
      </trkpt>
      <trkpt lat="45.16792" lon="5.63352">
        <ele>1223.8</ele>
        <time>2021-04-23T09:51:56.000Z</time>
      </trkpt>
      <trkpt lat="45.1679" lon="5.63351">
        <ele>1224.2</ele>
        <time>2021-04-23T09:51:57.000Z</time>
      </trkpt>
      <trkpt lat="45.16787" lon="5.63351">
        <ele>1224.4</ele>
        <time>2021-04-23T09:51:58.000Z</time>
      </trkpt>
      <trkpt lat="45.16784" lon="5.63349">
        <ele>1224.4</ele>
        <time>2021-04-23T09:51:59.000Z</time>
      </trkpt>
      <trkpt lat="45.16782" lon="5.63348">
        <ele>1224.8</ele>
        <time>2021-04-23T09:52:00.000Z</time>
      </trkpt>
      <trkpt lat="45.16779" lon="5.63348">
        <ele>1225</ele>
        <time>2021-04-23T09:52:01.000Z</time>
      </trkpt>
      <trkpt lat="45.16777" lon="5.63348">
        <ele>1225.2</ele>
        <time>2021-04-23T09:52:02.000Z</time>
      </trkpt>
      <trkpt lat="45.16775" lon="5.63347">
        <ele>1225.4</ele>
        <time>2021-04-23T09:52:03.000Z</time>
      </trkpt>
      <trkpt lat="45.16772" lon="5.63346">
        <ele>1225.6</ele>
        <time>2021-04-23T09:52:04.000Z</time>
      </trkpt>
      <trkpt lat="45.1677" lon="5.63346">
        <ele>1226</ele>
        <time>2021-04-23T09:52:05.000Z</time>
      </trkpt>
      <trkpt lat="45.16767" lon="5.63345">
        <ele>1226</ele>
        <time>2021-04-23T09:52:06.000Z</time>
      </trkpt>
      <trkpt lat="45.16765" lon="5.63344">
        <ele>1226.2</ele>
        <time>2021-04-23T09:52:07.000Z</time>
      </trkpt>
      <trkpt lat="45.16762" lon="5.63344">
        <ele>1226.4</ele>
        <time>2021-04-23T09:52:08.000Z</time>
      </trkpt>
      <trkpt lat="45.16761" lon="5.63343">
        <ele>1226.6</ele>
        <time>2021-04-23T09:52:09.000Z</time>
      </trkpt>
      <trkpt lat="45.16759" lon="5.63342">
        <ele>1226.8</ele>
        <time>2021-04-23T09:52:10.000Z</time>
      </trkpt>
      <trkpt lat="45.16756" lon="5.63341">
        <ele>1227</ele>
        <time>2021-04-23T09:52:11.000Z</time>
      </trkpt>
      <trkpt lat="45.16754" lon="5.63341">
        <ele>1227.2</ele>
        <time>2021-04-23T09:52:12.000Z</time>
      </trkpt>
      <trkpt lat="45.16752" lon="5.6334">
        <ele>1227.4</ele>
        <time>2021-04-23T09:52:13.000Z</time>
      </trkpt>
      <trkpt lat="45.1675" lon="5.63339">
        <ele>1227.6</ele>
        <time>2021-04-23T09:52:14.000Z</time>
      </trkpt>
      <trkpt lat="45.16748" lon="5.63338">
        <ele>1227.6</ele>
        <time>2021-04-23T09:52:15.000Z</time>
      </trkpt>
      <trkpt lat="45.16746" lon="5.63337">
        <ele>1228</ele>
        <time>2021-04-23T09:52:16.000Z</time>
      </trkpt>
      <trkpt lat="45.16744" lon="5.63337">
        <ele>1228</ele>
        <time>2021-04-23T09:52:17.000Z</time>
      </trkpt>
      <trkpt lat="45.16742" lon="5.63336">
        <ele>1228.2</ele>
        <time>2021-04-23T09:52:18.000Z</time>
      </trkpt>
      <trkpt lat="45.16739" lon="5.63335">
        <ele>1228.4</ele>
        <time>2021-04-23T09:52:19.000Z</time>
      </trkpt>
      <trkpt lat="45.16737" lon="5.63335">
        <ele>1228.8</ele>
        <time>2021-04-23T09:52:20.000Z</time>
      </trkpt>
      <trkpt lat="45.16736" lon="5.63334">
        <ele>1229</ele>
        <time>2021-04-23T09:52:21.000Z</time>
      </trkpt>
      <trkpt lat="45.16734" lon="5.63332">
        <ele>1229</ele>
        <time>2021-04-23T09:52:22.000Z</time>
      </trkpt>
      <trkpt lat="45.16732" lon="5.63331">
        <ele>1229.2</ele>
        <time>2021-04-23T09:52:23.000Z</time>
      </trkpt>
      <trkpt lat="45.1673" lon="5.6333">
        <ele>1229.4</ele>
        <time>2021-04-23T09:52:24.000Z</time>
      </trkpt>
      <trkpt lat="45.16727" lon="5.63329">
        <ele>1229.6</ele>
        <time>2021-04-23T09:52:25.000Z</time>
      </trkpt>
      <trkpt lat="45.16725" lon="5.63329">
        <ele>1229.8</ele>
        <time>2021-04-23T09:52:26.000Z</time>
      </trkpt>
      <trkpt lat="45.16723" lon="5.63328">
        <ele>1230</ele>
        <time>2021-04-23T09:52:27.000Z</time>
      </trkpt>
      <trkpt lat="45.1672" lon="5.63327">
        <ele>1230.2</ele>
        <time>2021-04-23T09:52:28.000Z</time>
      </trkpt>
      <trkpt lat="45.16717" lon="5.63327">
        <ele>1230.4</ele>
        <time>2021-04-23T09:52:29.000Z</time>
      </trkpt>
      <trkpt lat="45.16715" lon="5.63326">
        <ele>1230.4</ele>
        <time>2021-04-23T09:52:30.000Z</time>
      </trkpt>
      <trkpt lat="45.16712" lon="5.63325">
        <ele>1230.4</ele>
        <time>2021-04-23T09:52:31.000Z</time>
      </trkpt>
      <trkpt lat="45.1671" lon="5.63324">
        <ele>1230.6</ele>
        <time>2021-04-23T09:52:32.000Z</time>
      </trkpt>
      <trkpt lat="45.16707" lon="5.63324">
        <ele>1230.8</ele>
        <time>2021-04-23T09:52:33.000Z</time>
      </trkpt>
      <trkpt lat="45.16705" lon="5.63323">
        <ele>1230.8</ele>
        <time>2021-04-23T09:52:34.000Z</time>
      </trkpt>
      <trkpt lat="45.16703" lon="5.63322">
        <ele>1231</ele>
        <time>2021-04-23T09:52:35.000Z</time>
      </trkpt>
      <trkpt lat="45.167" lon="5.63321">
        <ele>1231.2</ele>
        <time>2021-04-23T09:52:36.000Z</time>
      </trkpt>
      <trkpt lat="45.16698" lon="5.6332">
        <ele>1231.4</ele>
        <time>2021-04-23T09:52:37.000Z</time>
      </trkpt>
      <trkpt lat="45.16696" lon="5.63319">
        <ele>1231.4</ele>
        <time>2021-04-23T09:52:38.000Z</time>
      </trkpt>
      <trkpt lat="45.16694" lon="5.63318">
        <ele>1231.6</ele>
        <time>2021-04-23T09:52:39.000Z</time>
      </trkpt>
      <trkpt lat="45.16691" lon="5.63318">
        <ele>1231.8</ele>
        <time>2021-04-23T09:52:40.000Z</time>
      </trkpt>
      <trkpt lat="45.16689" lon="5.63317">
        <ele>1232</ele>
        <time>2021-04-23T09:52:41.000Z</time>
      </trkpt>
      <trkpt lat="45.16686" lon="5.63316">
        <ele>1232</ele>
        <time>2021-04-23T09:52:42.000Z</time>
      </trkpt>
      <trkpt lat="45.16684" lon="5.63316">
        <ele>1232</ele>
        <time>2021-04-23T09:52:43.000Z</time>
      </trkpt>
      <trkpt lat="45.16682" lon="5.63315">
        <ele>1232.2</ele>
        <time>2021-04-23T09:52:44.000Z</time>
      </trkpt>
      <trkpt lat="45.1668" lon="5.63314">
        <ele>1232.4</ele>
        <time>2021-04-23T09:52:45.000Z</time>
      </trkpt>
      <trkpt lat="45.16677" lon="5.63313">
        <ele>1232.6</ele>
        <time>2021-04-23T09:52:46.000Z</time>
      </trkpt>
      <trkpt lat="45.16675" lon="5.63312">
        <ele>1232.8</ele>
        <time>2021-04-23T09:52:47.000Z</time>
      </trkpt>
      <trkpt lat="45.16673" lon="5.63311">
        <ele>1233</ele>
        <time>2021-04-23T09:52:48.000Z</time>
      </trkpt>
      <trkpt lat="45.16671" lon="5.6331">
        <ele>1233.2</ele>
        <time>2021-04-23T09:52:49.000Z</time>
      </trkpt>
      <trkpt lat="45.16668" lon="5.63308">
        <ele>1233.2</ele>
        <time>2021-04-23T09:52:50.000Z</time>
      </trkpt>
      <trkpt lat="45.16666" lon="5.63307">
        <ele>1233.4</ele>
        <time>2021-04-23T09:52:51.000Z</time>
      </trkpt>
      <trkpt lat="45.16664" lon="5.63306">
        <ele>1233.6</ele>
        <time>2021-04-23T09:52:52.000Z</time>
      </trkpt>
      <trkpt lat="45.16662" lon="5.63305">
        <ele>1233.6</ele>
        <time>2021-04-23T09:52:53.000Z</time>
      </trkpt>
      <trkpt lat="45.1666" lon="5.63304">
        <ele>1233.6</ele>
        <time>2021-04-23T09:52:54.000Z</time>
      </trkpt>
      <trkpt lat="45.16658" lon="5.63302">
        <ele>1233.8</ele>
        <time>2021-04-23T09:52:55.000Z</time>
      </trkpt>
      <trkpt lat="45.16656" lon="5.63301">
        <ele>1233.8</ele>
        <time>2021-04-23T09:52:56.000Z</time>
      </trkpt>
      <trkpt lat="45.16653" lon="5.633">
        <ele>1234</ele>
        <time>2021-04-23T09:52:57.000Z</time>
      </trkpt>
      <trkpt lat="45.16651" lon="5.63299">
        <ele>1234.2</ele>
        <time>2021-04-23T09:52:58.000Z</time>
      </trkpt>
      <trkpt lat="45.16649" lon="5.63298">
        <ele>1234.4</ele>
        <time>2021-04-23T09:52:59.000Z</time>
      </trkpt>
      <trkpt lat="45.16647" lon="5.63298">
        <ele>1234.4</ele>
        <time>2021-04-23T09:53:00.000Z</time>
      </trkpt>
      <trkpt lat="45.16644" lon="5.63297">
        <ele>1234.6</ele>
        <time>2021-04-23T09:53:01.000Z</time>
      </trkpt>
      <trkpt lat="45.16642" lon="5.63296">
        <ele>1234.6</ele>
        <time>2021-04-23T09:53:02.000Z</time>
      </trkpt>
      <trkpt lat="45.1664" lon="5.63295">
        <ele>1234.8</ele>
        <time>2021-04-23T09:53:03.000Z</time>
      </trkpt>
      <trkpt lat="45.16638" lon="5.63294">
        <ele>1235</ele>
        <time>2021-04-23T09:53:04.000Z</time>
      </trkpt>
      <trkpt lat="45.16635" lon="5.63293">
        <ele>1235</ele>
        <time>2021-04-23T09:53:05.000Z</time>
      </trkpt>
      <trkpt lat="45.16633" lon="5.63292">
        <ele>1235.2</ele>
        <time>2021-04-23T09:53:06.000Z</time>
      </trkpt>
      <trkpt lat="45.16631" lon="5.63291">
        <ele>1235.4</ele>
        <time>2021-04-23T09:53:07.000Z</time>
      </trkpt>
      <trkpt lat="45.16629" lon="5.63291">
        <ele>1235.4</ele>
        <time>2021-04-23T09:53:08.000Z</time>
      </trkpt>
      <trkpt lat="45.16627" lon="5.6329">
        <ele>1235.4</ele>
        <time>2021-04-23T09:53:09.000Z</time>
      </trkpt>
      <trkpt lat="45.16625" lon="5.63289">
        <ele>1235.4</ele>
        <time>2021-04-23T09:53:10.000Z</time>
      </trkpt>
      <trkpt lat="45.16623" lon="5.63288">
        <ele>1235.6</ele>
        <time>2021-04-23T09:53:11.000Z</time>
      </trkpt>
      <trkpt lat="45.16621" lon="5.63287">
        <ele>1235.6</ele>
        <time>2021-04-23T09:53:12.000Z</time>
      </trkpt>
      <trkpt lat="45.16619" lon="5.63287">
        <ele>1235.6</ele>
        <time>2021-04-23T09:53:13.000Z</time>
      </trkpt>
      <trkpt lat="45.16616" lon="5.63286">
        <ele>1235.6</ele>
        <time>2021-04-23T09:53:14.000Z</time>
      </trkpt>
      <trkpt lat="45.16614" lon="5.63286">
        <ele>1235.8</ele>
        <time>2021-04-23T09:53:15.000Z</time>
      </trkpt>
      <trkpt lat="45.16611" lon="5.63285">
        <ele>1235.8</ele>
        <time>2021-04-23T09:53:16.000Z</time>
      </trkpt>
      <trkpt lat="45.16609" lon="5.63285">
        <ele>1236</ele>
        <time>2021-04-23T09:53:17.000Z</time>
      </trkpt>
      <trkpt lat="45.16607" lon="5.63284">
        <ele>1236.2</ele>
        <time>2021-04-23T09:53:18.000Z</time>
      </trkpt>
      <trkpt lat="45.16605" lon="5.63283">
        <ele>1236.2</ele>
        <time>2021-04-23T09:53:19.000Z</time>
      </trkpt>
      <trkpt lat="45.16603" lon="5.63283">
        <ele>1236.4</ele>
        <time>2021-04-23T09:53:20.000Z</time>
      </trkpt>
      <trkpt lat="45.166" lon="5.63282">
        <ele>1236.4</ele>
        <time>2021-04-23T09:53:21.000Z</time>
      </trkpt>
      <trkpt lat="45.16598" lon="5.63281">
        <ele>1236.6</ele>
        <time>2021-04-23T09:53:22.000Z</time>
      </trkpt>
      <trkpt lat="45.16596" lon="5.6328">
        <ele>1236.8</ele>
        <time>2021-04-23T09:53:23.000Z</time>
      </trkpt>
      <trkpt lat="45.16594" lon="5.63279">
        <ele>1237</ele>
        <time>2021-04-23T09:53:24.000Z</time>
      </trkpt>
      <trkpt lat="45.16591" lon="5.63278">
        <ele>1237.2</ele>
        <time>2021-04-23T09:53:25.000Z</time>
      </trkpt>
      <trkpt lat="45.16589" lon="5.63277">
        <ele>1237.4</ele>
        <time>2021-04-23T09:53:26.000Z</time>
      </trkpt>
      <trkpt lat="45.16586" lon="5.63277">
        <ele>1237.6</ele>
        <time>2021-04-23T09:53:27.000Z</time>
      </trkpt>
      <trkpt lat="45.16584" lon="5.63276">
        <ele>1237.8</ele>
        <time>2021-04-23T09:53:28.000Z</time>
      </trkpt>
      <trkpt lat="45.16581" lon="5.63275">
        <ele>1238</ele>
        <time>2021-04-23T09:53:29.000Z</time>
      </trkpt>
      <trkpt lat="45.16579" lon="5.63274">
        <ele>1238.4</ele>
        <time>2021-04-23T09:53:30.000Z</time>
      </trkpt>
      <trkpt lat="45.16577" lon="5.63274">
        <ele>1238.6</ele>
        <time>2021-04-23T09:53:31.000Z</time>
      </trkpt>
      <trkpt lat="45.16575" lon="5.63273">
        <ele>1238.8</ele>
        <time>2021-04-23T09:53:32.000Z</time>
      </trkpt>
      <trkpt lat="45.16572" lon="5.63272">
        <ele>1239</ele>
        <time>2021-04-23T09:53:33.000Z</time>
      </trkpt>
      <trkpt lat="45.1657" lon="5.63272">
        <ele>1239.2</ele>
        <time>2021-04-23T09:53:34.000Z</time>
      </trkpt>
      <trkpt lat="45.16567" lon="5.63271">
        <ele>1239.2</ele>
        <time>2021-04-23T09:53:35.000Z</time>
      </trkpt>
      <trkpt lat="45.16565" lon="5.6327">
        <ele>1239.4</ele>
        <time>2021-04-23T09:53:36.000Z</time>
      </trkpt>
      <trkpt lat="45.16563" lon="5.63269">
        <ele>1239.6</ele>
        <time>2021-04-23T09:53:37.000Z</time>
      </trkpt>
      <trkpt lat="45.16561" lon="5.63268">
        <ele>1239.8</ele>
        <time>2021-04-23T09:53:38.000Z</time>
      </trkpt>
      <trkpt lat="45.16559" lon="5.63267">
        <ele>1240</ele>
        <time>2021-04-23T09:53:39.000Z</time>
      </trkpt>
      <trkpt lat="45.16557" lon="5.63266">
        <ele>1240.2</ele>
        <time>2021-04-23T09:53:40.000Z</time>
      </trkpt>
      <trkpt lat="45.16555" lon="5.63265">
        <ele>1240.2</ele>
        <time>2021-04-23T09:53:41.000Z</time>
      </trkpt>
      <trkpt lat="45.16553" lon="5.63264">
        <ele>1240.4</ele>
        <time>2021-04-23T09:53:42.000Z</time>
      </trkpt>
      <trkpt lat="45.16551" lon="5.63263">
        <ele>1240.8</ele>
        <time>2021-04-23T09:53:43.000Z</time>
      </trkpt>
      <trkpt lat="45.16549" lon="5.63262">
        <ele>1241.2</ele>
        <time>2021-04-23T09:53:44.000Z</time>
      </trkpt>
      <trkpt lat="45.16546" lon="5.63261">
        <ele>1241.6</ele>
        <time>2021-04-23T09:53:45.000Z</time>
      </trkpt>
      <trkpt lat="45.16544" lon="5.6326">
        <ele>1241.8</ele>
        <time>2021-04-23T09:53:46.000Z</time>
      </trkpt>
      <trkpt lat="45.16542" lon="5.63259">
        <ele>1242</ele>
        <time>2021-04-23T09:53:47.000Z</time>
      </trkpt>
      <trkpt lat="45.1654" lon="5.63258">
        <ele>1242.2</ele>
        <time>2021-04-23T09:53:48.000Z</time>
      </trkpt>
      <trkpt lat="45.16538" lon="5.63258">
        <ele>1242.2</ele>
        <time>2021-04-23T09:53:49.000Z</time>
      </trkpt>
      <trkpt lat="45.16536" lon="5.63257">
        <ele>1242.4</ele>
        <time>2021-04-23T09:53:50.000Z</time>
      </trkpt>
      <trkpt lat="45.16534" lon="5.63257">
        <ele>1242.6</ele>
        <time>2021-04-23T09:53:51.000Z</time>
      </trkpt>
      <trkpt lat="45.16533" lon="5.63257">
        <ele>1243</ele>
        <time>2021-04-23T09:53:52.000Z</time>
      </trkpt>
      <trkpt lat="45.16531" lon="5.63257">
        <ele>1243.2</ele>
        <time>2021-04-23T09:53:53.000Z</time>
      </trkpt>
      <trkpt lat="45.1653" lon="5.63256">
        <ele>1243.4</ele>
        <time>2021-04-23T09:53:54.000Z</time>
      </trkpt>
      <trkpt lat="45.16529" lon="5.63255">
        <ele>1243.8</ele>
        <time>2021-04-23T09:53:55.000Z</time>
      </trkpt>
      <trkpt lat="45.16527" lon="5.63255">
        <ele>1244</ele>
        <time>2021-04-23T09:53:56.000Z</time>
      </trkpt>
      <trkpt lat="45.16526" lon="5.63254">
        <ele>1244.4</ele>
        <time>2021-04-23T09:53:57.000Z</time>
      </trkpt>
      <trkpt lat="45.16524" lon="5.63253">
        <ele>1244.6</ele>
        <time>2021-04-23T09:53:58.000Z</time>
      </trkpt>
      <trkpt lat="45.16522" lon="5.63253">
        <ele>1244.8</ele>
        <time>2021-04-23T09:53:59.000Z</time>
      </trkpt>
      <trkpt lat="45.1652" lon="5.63252">
        <ele>1245</ele>
        <time>2021-04-23T09:54:00.000Z</time>
      </trkpt>
      <trkpt lat="45.16519" lon="5.63251">
        <ele>1245.2</ele>
        <time>2021-04-23T09:54:01.000Z</time>
      </trkpt>
      <trkpt lat="45.16517" lon="5.6325">
        <ele>1245.4</ele>
        <time>2021-04-23T09:54:02.000Z</time>
      </trkpt>
      <trkpt lat="45.16515" lon="5.6325">
        <ele>1245.6</ele>
        <time>2021-04-23T09:54:03.000Z</time>
      </trkpt>
      <trkpt lat="45.16514" lon="5.63249">
        <ele>1245.8</ele>
        <time>2021-04-23T09:54:04.000Z</time>
      </trkpt>
      <trkpt lat="45.16512" lon="5.63247">
        <ele>1246</ele>
        <time>2021-04-23T09:54:05.000Z</time>
      </trkpt>
      <trkpt lat="45.1651" lon="5.63247">
        <ele>1246.2</ele>
        <time>2021-04-23T09:54:06.000Z</time>
      </trkpt>
      <trkpt lat="45.16509" lon="5.63246">
        <ele>1246.4</ele>
        <time>2021-04-23T09:54:07.000Z</time>
      </trkpt>
      <trkpt lat="45.16507" lon="5.63246">
        <ele>1246.6</ele>
        <time>2021-04-23T09:54:08.000Z</time>
      </trkpt>
      <trkpt lat="45.16505" lon="5.63245">
        <ele>1246.8</ele>
        <time>2021-04-23T09:54:09.000Z</time>
      </trkpt>
      <trkpt lat="45.16503" lon="5.63245">
        <ele>1247.2</ele>
        <time>2021-04-23T09:54:10.000Z</time>
      </trkpt>
      <trkpt lat="45.16502" lon="5.63244">
        <ele>1247.6</ele>
        <time>2021-04-23T09:54:11.000Z</time>
      </trkpt>
      <trkpt lat="45.165" lon="5.63244">
        <ele>1248</ele>
        <time>2021-04-23T09:54:12.000Z</time>
      </trkpt>
      <trkpt lat="45.16497" lon="5.63243">
        <ele>1248.2</ele>
        <time>2021-04-23T09:54:13.000Z</time>
      </trkpt>
      <trkpt lat="45.16496" lon="5.63243">
        <ele>1248.4</ele>
        <time>2021-04-23T09:54:14.000Z</time>
      </trkpt>
      <trkpt lat="45.16494" lon="5.63242">
        <ele>1248.6</ele>
        <time>2021-04-23T09:54:15.000Z</time>
      </trkpt>
      <trkpt lat="45.16492" lon="5.63241">
        <ele>1249</ele>
        <time>2021-04-23T09:54:16.000Z</time>
      </trkpt>
      <trkpt lat="45.16491" lon="5.6324">
        <ele>1249.2</ele>
        <time>2021-04-23T09:54:17.000Z</time>
      </trkpt>
      <trkpt lat="45.16489" lon="5.63239">
        <ele>1249.4</ele>
        <time>2021-04-23T09:54:18.000Z</time>
      </trkpt>
      <trkpt lat="45.16487" lon="5.63239">
        <ele>1249.8</ele>
        <time>2021-04-23T09:54:19.000Z</time>
      </trkpt>
      <trkpt lat="45.16485" lon="5.63238">
        <ele>1250.2</ele>
        <time>2021-04-23T09:54:20.000Z</time>
      </trkpt>
      <trkpt lat="45.16483" lon="5.63238">
        <ele>1250.4</ele>
        <time>2021-04-23T09:54:21.000Z</time>
      </trkpt>
      <trkpt lat="45.16481" lon="5.63238">
        <ele>1250.4</ele>
        <time>2021-04-23T09:54:22.000Z</time>
      </trkpt>
      <trkpt lat="45.16479" lon="5.63237">
        <ele>1250.6</ele>
        <time>2021-04-23T09:54:23.000Z</time>
      </trkpt>
      <trkpt lat="45.16477" lon="5.63236">
        <ele>1250.8</ele>
        <time>2021-04-23T09:54:24.000Z</time>
      </trkpt>
      <trkpt lat="45.16476" lon="5.63235">
        <ele>1251</ele>
        <time>2021-04-23T09:54:25.000Z</time>
      </trkpt>
      <trkpt lat="45.16474" lon="5.63234">
        <ele>1251.2</ele>
        <time>2021-04-23T09:54:26.000Z</time>
      </trkpt>
      <trkpt lat="45.16472" lon="5.63232">
        <ele>1251.4</ele>
        <time>2021-04-23T09:54:27.000Z</time>
      </trkpt>
      <trkpt lat="45.1647" lon="5.6323">
        <ele>1251.6</ele>
        <time>2021-04-23T09:54:28.000Z</time>
      </trkpt>
      <trkpt lat="45.16469" lon="5.63228">
        <ele>1251.8</ele>
        <time>2021-04-23T09:54:29.000Z</time>
      </trkpt>
      <trkpt lat="45.16467" lon="5.63227">
        <ele>1251.8</ele>
        <time>2021-04-23T09:54:30.000Z</time>
      </trkpt>
      <trkpt lat="45.16466" lon="5.63225">
        <ele>1252</ele>
        <time>2021-04-23T09:54:31.000Z</time>
      </trkpt>
      <trkpt lat="45.16465" lon="5.63222">
        <ele>1252.2</ele>
        <time>2021-04-23T09:54:32.000Z</time>
      </trkpt>
      <trkpt lat="45.16464" lon="5.63221">
        <ele>1252.4</ele>
        <time>2021-04-23T09:54:33.000Z</time>
      </trkpt>
      <trkpt lat="45.16462" lon="5.63219">
        <ele>1252.4</ele>
        <time>2021-04-23T09:54:34.000Z</time>
      </trkpt>
      <trkpt lat="45.16461" lon="5.63217">
        <ele>1252.8</ele>
        <time>2021-04-23T09:54:35.000Z</time>
      </trkpt>
      <trkpt lat="45.16461" lon="5.63215">
        <ele>1253</ele>
        <time>2021-04-23T09:54:36.000Z</time>
      </trkpt>
      <trkpt lat="45.1646" lon="5.63214">
        <ele>1253.2</ele>
        <time>2021-04-23T09:54:37.000Z</time>
      </trkpt>
      <trkpt lat="45.16459" lon="5.63212">
        <ele>1253.4</ele>
        <time>2021-04-23T09:54:38.000Z</time>
      </trkpt>
      <trkpt lat="45.16457" lon="5.6321">
        <ele>1253.4</ele>
        <time>2021-04-23T09:54:39.000Z</time>
      </trkpt>
      <trkpt lat="45.16456" lon="5.63209">
        <ele>1253.4</ele>
        <time>2021-04-23T09:54:40.000Z</time>
      </trkpt>
      <trkpt lat="45.16455" lon="5.63207">
        <ele>1253.8</ele>
        <time>2021-04-23T09:54:41.000Z</time>
      </trkpt>
      <trkpt lat="45.16454" lon="5.63206">
        <ele>1254</ele>
        <time>2021-04-23T09:54:42.000Z</time>
      </trkpt>
      <trkpt lat="45.16453" lon="5.63205">
        <ele>1254</ele>
        <time>2021-04-23T09:54:43.000Z</time>
      </trkpt>
      <trkpt lat="45.16453" lon="5.63204">
        <ele>1254.2</ele>
        <time>2021-04-23T09:54:44.000Z</time>
      </trkpt>
      <trkpt lat="45.16452" lon="5.63204">
        <ele>1254.2</ele>
        <time>2021-04-23T09:54:45.000Z</time>
      </trkpt>
      <trkpt lat="45.1645" lon="5.63204">
        <ele>1254.4</ele>
        <time>2021-04-23T09:54:46.000Z</time>
      </trkpt>
      <trkpt lat="45.16449" lon="5.63204">
        <ele>1254.4</ele>
        <time>2021-04-23T09:54:47.000Z</time>
      </trkpt>
      <trkpt lat="45.16448" lon="5.63204">
        <ele>1254.6</ele>
        <time>2021-04-23T09:54:48.000Z</time>
      </trkpt>
      <trkpt lat="45.16446" lon="5.63203">
        <ele>1255</ele>
        <time>2021-04-23T09:54:49.000Z</time>
      </trkpt>
      <trkpt lat="45.16445" lon="5.63202">
        <ele>1255.2</ele>
        <time>2021-04-23T09:54:50.000Z</time>
      </trkpt>
      <trkpt lat="45.16444" lon="5.632">
        <ele>1255.4</ele>
        <time>2021-04-23T09:54:51.000Z</time>
      </trkpt>
      <trkpt lat="45.16444" lon="5.63197">
        <ele>1255.6</ele>
        <time>2021-04-23T09:54:52.000Z</time>
      </trkpt>
      <trkpt lat="45.16443" lon="5.63194">
        <ele>1255.8</ele>
        <time>2021-04-23T09:54:53.000Z</time>
      </trkpt>
      <trkpt lat="45.16442" lon="5.63192">
        <ele>1255.8</ele>
        <time>2021-04-23T09:54:54.000Z</time>
      </trkpt>
      <trkpt lat="45.1644" lon="5.63191">
        <ele>1256</ele>
        <time>2021-04-23T09:54:55.000Z</time>
      </trkpt>
      <trkpt lat="45.16439" lon="5.6319">
        <ele>1256.4</ele>
        <time>2021-04-23T09:54:56.000Z</time>
      </trkpt>
      <trkpt lat="45.16437" lon="5.63188">
        <ele>1256.6</ele>
        <time>2021-04-23T09:54:57.000Z</time>
      </trkpt>
      <trkpt lat="45.16435" lon="5.63187">
        <ele>1256.8</ele>
        <time>2021-04-23T09:54:58.000Z</time>
      </trkpt>
      <trkpt lat="45.16434" lon="5.63185">
        <ele>1257.2</ele>
        <time>2021-04-23T09:54:59.000Z</time>
      </trkpt>
      <trkpt lat="45.16432" lon="5.63184">
        <ele>1257.6</ele>
        <time>2021-04-23T09:55:00.000Z</time>
      </trkpt>
      <trkpt lat="45.16431" lon="5.63183">
        <ele>1257.8</ele>
        <time>2021-04-23T09:55:01.000Z</time>
      </trkpt>
      <trkpt lat="45.16429" lon="5.63181">
        <ele>1258.4</ele>
        <time>2021-04-23T09:55:02.000Z</time>
      </trkpt>
      <trkpt lat="45.16428" lon="5.6318">
        <ele>1258.6</ele>
        <time>2021-04-23T09:55:03.000Z</time>
      </trkpt>
      <trkpt lat="45.16426" lon="5.6318">
        <ele>1258.8</ele>
        <time>2021-04-23T09:55:04.000Z</time>
      </trkpt>
      <trkpt lat="45.16424" lon="5.63179">
        <ele>1259</ele>
        <time>2021-04-23T09:55:05.000Z</time>
      </trkpt>
      <trkpt lat="45.16423" lon="5.63178">
        <ele>1259</ele>
        <time>2021-04-23T09:55:06.000Z</time>
      </trkpt>
      <trkpt lat="45.16422" lon="5.63177">
        <ele>1259.2</ele>
        <time>2021-04-23T09:55:07.000Z</time>
      </trkpt>
      <trkpt lat="45.1642" lon="5.63176">
        <ele>1259.4</ele>
        <time>2021-04-23T09:55:08.000Z</time>
      </trkpt>
      <trkpt lat="45.16419" lon="5.63175">
        <ele>1259.6</ele>
        <time>2021-04-23T09:55:09.000Z</time>
      </trkpt>
      <trkpt lat="45.16418" lon="5.63174">
        <ele>1260</ele>
        <time>2021-04-23T09:55:10.000Z</time>
      </trkpt>
      <trkpt lat="45.16416" lon="5.63174">
        <ele>1260.2</ele>
        <time>2021-04-23T09:55:11.000Z</time>
      </trkpt>
      <trkpt lat="45.16414" lon="5.63173">
        <ele>1260.4</ele>
        <time>2021-04-23T09:55:12.000Z</time>
      </trkpt>
      <trkpt lat="45.16413" lon="5.63172">
        <ele>1260.8</ele>
        <time>2021-04-23T09:55:13.000Z</time>
      </trkpt>
      <trkpt lat="45.16411" lon="5.63171">
        <ele>1261</ele>
        <time>2021-04-23T09:55:14.000Z</time>
      </trkpt>
      <trkpt lat="45.1641" lon="5.63171">
        <ele>1261.2</ele>
        <time>2021-04-23T09:55:15.000Z</time>
      </trkpt>
      <trkpt lat="45.16408" lon="5.63171">
        <ele>1261.6</ele>
        <time>2021-04-23T09:55:16.000Z</time>
      </trkpt>
      <trkpt lat="45.16406" lon="5.6317">
        <ele>1261.8</ele>
        <time>2021-04-23T09:55:17.000Z</time>
      </trkpt>
      <trkpt lat="45.16405" lon="5.63169">
        <ele>1262</ele>
        <time>2021-04-23T09:55:18.000Z</time>
      </trkpt>
      <trkpt lat="45.16403" lon="5.63168">
        <ele>1262.2</ele>
        <time>2021-04-23T09:55:19.000Z</time>
      </trkpt>
      <trkpt lat="45.16402" lon="5.63167">
        <ele>1262.4</ele>
        <time>2021-04-23T09:55:20.000Z</time>
      </trkpt>
      <trkpt lat="45.164" lon="5.63166">
        <ele>1262.4</ele>
        <time>2021-04-23T09:55:21.000Z</time>
      </trkpt>
      <trkpt lat="45.16399" lon="5.63164">
        <ele>1262.6</ele>
        <time>2021-04-23T09:55:22.000Z</time>
      </trkpt>
      <trkpt lat="45.16397" lon="5.63162">
        <ele>1262.8</ele>
        <time>2021-04-23T09:55:23.000Z</time>
      </trkpt>
      <trkpt lat="45.16396" lon="5.63161">
        <ele>1263.2</ele>
        <time>2021-04-23T09:55:24.000Z</time>
      </trkpt>
      <trkpt lat="45.16395" lon="5.6316">
        <ele>1263.6</ele>
        <time>2021-04-23T09:55:25.000Z</time>
      </trkpt>
      <trkpt lat="45.16394" lon="5.63159">
        <ele>1263.8</ele>
        <time>2021-04-23T09:55:26.000Z</time>
      </trkpt>
      <trkpt lat="45.16392" lon="5.63158">
        <ele>1263.8</ele>
        <time>2021-04-23T09:55:27.000Z</time>
      </trkpt>
      <trkpt lat="45.16391" lon="5.63157">
        <ele>1264</ele>
        <time>2021-04-23T09:55:28.000Z</time>
      </trkpt>
      <trkpt lat="45.1639" lon="5.63155">
        <ele>1264</ele>
        <time>2021-04-23T09:55:29.000Z</time>
      </trkpt>
      <trkpt lat="45.16388" lon="5.63153">
        <ele>1264</ele>
        <time>2021-04-23T09:55:30.000Z</time>
      </trkpt>
      <trkpt lat="45.16387" lon="5.63152">
        <ele>1264</ele>
        <time>2021-04-23T09:55:31.000Z</time>
      </trkpt>
      <trkpt lat="45.16385" lon="5.6315">
        <ele>1264</ele>
        <time>2021-04-23T09:55:32.000Z</time>
      </trkpt>
      <trkpt lat="45.16384" lon="5.63149">
        <ele>1264.2</ele>
        <time>2021-04-23T09:55:33.000Z</time>
      </trkpt>
      <trkpt lat="45.16382" lon="5.63148">
        <ele>1264.4</ele>
        <time>2021-04-23T09:55:34.000Z</time>
      </trkpt>
      <trkpt lat="45.1638" lon="5.63146">
        <ele>1264.6</ele>
        <time>2021-04-23T09:55:35.000Z</time>
      </trkpt>
      <trkpt lat="45.16379" lon="5.63145">
        <ele>1264.6</ele>
        <time>2021-04-23T09:55:36.000Z</time>
      </trkpt>
      <trkpt lat="45.16377" lon="5.63143">
        <ele>1264.8</ele>
        <time>2021-04-23T09:55:37.000Z</time>
      </trkpt>
      <trkpt lat="45.16376" lon="5.63141">
        <ele>1264.8</ele>
        <time>2021-04-23T09:55:38.000Z</time>
      </trkpt>
      <trkpt lat="45.16375" lon="5.63139">
        <ele>1265</ele>
        <time>2021-04-23T09:55:39.000Z</time>
      </trkpt>
      <trkpt lat="45.16374" lon="5.63136">
        <ele>1265</ele>
        <time>2021-04-23T09:55:40.000Z</time>
      </trkpt>
      <trkpt lat="45.16372" lon="5.63135">
        <ele>1265</ele>
        <time>2021-04-23T09:55:41.000Z</time>
      </trkpt>
      <trkpt lat="45.1637" lon="5.63133">
        <ele>1265</ele>
        <time>2021-04-23T09:55:42.000Z</time>
      </trkpt>
      <trkpt lat="45.16369" lon="5.63132">
        <ele>1265</ele>
        <time>2021-04-23T09:55:43.000Z</time>
      </trkpt>
      <trkpt lat="45.16367" lon="5.63131">
        <ele>1265.2</ele>
        <time>2021-04-23T09:55:44.000Z</time>
      </trkpt>
      <trkpt lat="45.16365" lon="5.63129">
        <ele>1265.4</ele>
        <time>2021-04-23T09:55:45.000Z</time>
      </trkpt>
      <trkpt lat="45.16363" lon="5.63127">
        <ele>1265.6</ele>
        <time>2021-04-23T09:55:46.000Z</time>
      </trkpt>
      <trkpt lat="45.16361" lon="5.63126">
        <ele>1265.8</ele>
        <time>2021-04-23T09:55:47.000Z</time>
      </trkpt>
      <trkpt lat="45.1636" lon="5.63125">
        <ele>1265.8</ele>
        <time>2021-04-23T09:55:48.000Z</time>
      </trkpt>
      <trkpt lat="45.16358" lon="5.63123">
        <ele>1265.8</ele>
        <time>2021-04-23T09:55:49.000Z</time>
      </trkpt>
      <trkpt lat="45.16357" lon="5.63122">
        <ele>1266</ele>
        <time>2021-04-23T09:55:50.000Z</time>
      </trkpt>
      <trkpt lat="45.16356" lon="5.63121">
        <ele>1266.2</ele>
        <time>2021-04-23T09:55:51.000Z</time>
      </trkpt>
      <trkpt lat="45.16354" lon="5.63119">
        <ele>1266.4</ele>
        <time>2021-04-23T09:55:52.000Z</time>
      </trkpt>
      <trkpt lat="45.16352" lon="5.63118">
        <ele>1266.6</ele>
        <time>2021-04-23T09:55:53.000Z</time>
      </trkpt>
      <trkpt lat="45.16351" lon="5.63116">
        <ele>1266.8</ele>
        <time>2021-04-23T09:55:54.000Z</time>
      </trkpt>
      <trkpt lat="45.16349" lon="5.63115">
        <ele>1267.2</ele>
        <time>2021-04-23T09:55:55.000Z</time>
      </trkpt>
      <trkpt lat="45.16348" lon="5.63114">
        <ele>1267.2</ele>
        <time>2021-04-23T09:55:56.000Z</time>
      </trkpt>
      <trkpt lat="45.16346" lon="5.63113">
        <ele>1267.6</ele>
        <time>2021-04-23T09:55:57.000Z</time>
      </trkpt>
      <trkpt lat="45.16345" lon="5.63111">
        <ele>1267.8</ele>
        <time>2021-04-23T09:55:58.000Z</time>
      </trkpt>
      <trkpt lat="45.16344" lon="5.6311">
        <ele>1268</ele>
        <time>2021-04-23T09:55:59.000Z</time>
      </trkpt>
      <trkpt lat="45.16342" lon="5.63109">
        <ele>1268.4</ele>
        <time>2021-04-23T09:56:00.000Z</time>
      </trkpt>
      <trkpt lat="45.16341" lon="5.63108">
        <ele>1268.4</ele>
        <time>2021-04-23T09:56:01.000Z</time>
      </trkpt>
      <trkpt lat="45.1634" lon="5.63106">
        <ele>1268.8</ele>
        <time>2021-04-23T09:56:02.000Z</time>
      </trkpt>
      <trkpt lat="45.16338" lon="5.63105">
        <ele>1269.2</ele>
        <time>2021-04-23T09:56:03.000Z</time>
      </trkpt>
      <trkpt lat="45.16337" lon="5.63104">
        <ele>1269.4</ele>
        <time>2021-04-23T09:56:04.000Z</time>
      </trkpt>
      <trkpt lat="45.16335" lon="5.63103">
        <ele>1269.6</ele>
        <time>2021-04-23T09:56:05.000Z</time>
      </trkpt>
      <trkpt lat="45.16333" lon="5.63103">
        <ele>1269.8</ele>
        <time>2021-04-23T09:56:06.000Z</time>
      </trkpt>
      <trkpt lat="45.16332" lon="5.63102">
        <ele>1270.4</ele>
        <time>2021-04-23T09:56:07.000Z</time>
      </trkpt>
      <trkpt lat="45.1633" lon="5.63101">
        <ele>1270.8</ele>
        <time>2021-04-23T09:56:08.000Z</time>
      </trkpt>
      <trkpt lat="45.16329" lon="5.631">
        <ele>1271</ele>
        <time>2021-04-23T09:56:09.000Z</time>
      </trkpt>
      <trkpt lat="45.16328" lon="5.63099">
        <ele>1271.2</ele>
        <time>2021-04-23T09:56:10.000Z</time>
      </trkpt>
      <trkpt lat="45.16326" lon="5.63098">
        <ele>1271.4</ele>
        <time>2021-04-23T09:56:11.000Z</time>
      </trkpt>
      <trkpt lat="45.16325" lon="5.63098">
        <ele>1271.6</ele>
        <time>2021-04-23T09:56:12.000Z</time>
      </trkpt>
      <trkpt lat="45.16323" lon="5.63097">
        <ele>1271.8</ele>
        <time>2021-04-23T09:56:13.000Z</time>
      </trkpt>
      <trkpt lat="45.16321" lon="5.63097">
        <ele>1272</ele>
        <time>2021-04-23T09:56:14.000Z</time>
      </trkpt>
      <trkpt lat="45.16319" lon="5.63096">
        <ele>1272.2</ele>
        <time>2021-04-23T09:56:15.000Z</time>
      </trkpt>
      <trkpt lat="45.16317" lon="5.63095">
        <ele>1272.4</ele>
        <time>2021-04-23T09:56:16.000Z</time>
      </trkpt>
      <trkpt lat="45.16316" lon="5.63094">
        <ele>1272.8</ele>
        <time>2021-04-23T09:56:17.000Z</time>
      </trkpt>
      <trkpt lat="45.16315" lon="5.63093">
        <ele>1273</ele>
        <time>2021-04-23T09:56:18.000Z</time>
      </trkpt>
      <trkpt lat="45.16313" lon="5.63092">
        <ele>1273.2</ele>
        <time>2021-04-23T09:56:19.000Z</time>
      </trkpt>
      <trkpt lat="45.16311" lon="5.63091">
        <ele>1273.4</ele>
        <time>2021-04-23T09:56:20.000Z</time>
      </trkpt>
      <trkpt lat="45.1631" lon="5.63091">
        <ele>1273.6</ele>
        <time>2021-04-23T09:56:21.000Z</time>
      </trkpt>
      <trkpt lat="45.16308" lon="5.6309">
        <ele>1273.8</ele>
        <time>2021-04-23T09:56:22.000Z</time>
      </trkpt>
      <trkpt lat="45.16307" lon="5.63089">
        <ele>1274</ele>
        <time>2021-04-23T09:56:23.000Z</time>
      </trkpt>
      <trkpt lat="45.16305" lon="5.63089">
        <ele>1274.2</ele>
        <time>2021-04-23T09:56:24.000Z</time>
      </trkpt>
      <trkpt lat="45.16303" lon="5.63088">
        <ele>1274.4</ele>
        <time>2021-04-23T09:56:25.000Z</time>
      </trkpt>
      <trkpt lat="45.16302" lon="5.63087">
        <ele>1274.6</ele>
        <time>2021-04-23T09:56:26.000Z</time>
      </trkpt>
      <trkpt lat="45.163" lon="5.63086">
        <ele>1274.6</ele>
        <time>2021-04-23T09:56:27.000Z</time>
      </trkpt>
      <trkpt lat="45.16298" lon="5.63086">
        <ele>1274.8</ele>
        <time>2021-04-23T09:56:28.000Z</time>
      </trkpt>
      <trkpt lat="45.16296" lon="5.63085">
        <ele>1275.2</ele>
        <time>2021-04-23T09:56:29.000Z</time>
      </trkpt>
      <trkpt lat="45.16294" lon="5.63084">
        <ele>1275.4</ele>
        <time>2021-04-23T09:56:30.000Z</time>
      </trkpt>
      <trkpt lat="45.16292" lon="5.63084">
        <ele>1275.4</ele>
        <time>2021-04-23T09:56:31.000Z</time>
      </trkpt>
      <trkpt lat="45.1629" lon="5.63084">
        <ele>1275.6</ele>
        <time>2021-04-23T09:56:32.000Z</time>
      </trkpt>
      <trkpt lat="45.16289" lon="5.63084">
        <ele>1275.6</ele>
        <time>2021-04-23T09:56:33.000Z</time>
      </trkpt>
      <trkpt lat="45.16286" lon="5.63083">
        <ele>1275.6</ele>
        <time>2021-04-23T09:56:34.000Z</time>
      </trkpt>
      <trkpt lat="45.16284" lon="5.63083">
        <ele>1275.8</ele>
        <time>2021-04-23T09:56:35.000Z</time>
      </trkpt>
      <trkpt lat="45.16282" lon="5.63082">
        <ele>1275.8</ele>
        <time>2021-04-23T09:56:36.000Z</time>
      </trkpt>
      <trkpt lat="45.16281" lon="5.63081">
        <ele>1275.8</ele>
        <time>2021-04-23T09:56:37.000Z</time>
      </trkpt>
      <trkpt lat="45.16279" lon="5.6308">
        <ele>1275.8</ele>
        <time>2021-04-23T09:56:38.000Z</time>
      </trkpt>
      <trkpt lat="45.16278" lon="5.63079">
        <ele>1275.8</ele>
        <time>2021-04-23T09:56:39.000Z</time>
      </trkpt>
      <trkpt lat="45.16276" lon="5.63079">
        <ele>1275.8</ele>
        <time>2021-04-23T09:56:40.000Z</time>
      </trkpt>
      <trkpt lat="45.16274" lon="5.63078">
        <ele>1275.8</ele>
        <time>2021-04-23T09:56:41.000Z</time>
      </trkpt>
      <trkpt lat="45.16272" lon="5.63077">
        <ele>1275.6</ele>
        <time>2021-04-23T09:56:42.000Z</time>
      </trkpt>
      <trkpt lat="45.16269" lon="5.63076">
        <ele>1275.4</ele>
        <time>2021-04-23T09:56:43.000Z</time>
      </trkpt>
      <trkpt lat="45.16266" lon="5.63075">
        <ele>1275.4</ele>
        <time>2021-04-23T09:56:44.000Z</time>
      </trkpt>
      <trkpt lat="45.16264" lon="5.63075">
        <ele>1275.2</ele>
        <time>2021-04-23T09:56:45.000Z</time>
      </trkpt>
      <trkpt lat="45.16261" lon="5.63073">
        <ele>1275.2</ele>
        <time>2021-04-23T09:56:46.000Z</time>
      </trkpt>
      <trkpt lat="45.16258" lon="5.63072">
        <ele>1275.2</ele>
        <time>2021-04-23T09:56:47.000Z</time>
      </trkpt>
      <trkpt lat="45.16249" lon="5.63069">
        <ele>1275</ele>
        <time>2021-04-23T09:56:50.000Z</time>
      </trkpt>
      <trkpt lat="45.16247" lon="5.63068">
        <ele>1275</ele>
        <time>2021-04-23T09:56:51.000Z</time>
      </trkpt>
      <trkpt lat="45.1624" lon="5.63066">
        <ele>1274.8</ele>
        <time>2021-04-23T09:56:54.000Z</time>
      </trkpt>
      <trkpt lat="45.16237" lon="5.63065">
        <ele>1274.8</ele>
        <time>2021-04-23T09:56:55.000Z</time>
      </trkpt>
      <trkpt lat="45.16235" lon="5.63064">
        <ele>1274.8</ele>
        <time>2021-04-23T09:56:56.000Z</time>
      </trkpt>
      <trkpt lat="45.16233" lon="5.63062">
        <ele>1274.8</ele>
        <time>2021-04-23T09:56:57.000Z</time>
      </trkpt>
      <trkpt lat="45.1623" lon="5.63061">
        <ele>1274.8</ele>
        <time>2021-04-23T09:56:58.000Z</time>
      </trkpt>
      <trkpt lat="45.16228" lon="5.6306">
        <ele>1274.8</ele>
        <time>2021-04-23T09:56:59.000Z</time>
      </trkpt>
      <trkpt lat="45.16225" lon="5.63059">
        <ele>1274.8</ele>
        <time>2021-04-23T09:57:00.000Z</time>
      </trkpt>
      <trkpt lat="45.16222" lon="5.63058">
        <ele>1274.8</ele>
        <time>2021-04-23T09:57:01.000Z</time>
      </trkpt>
      <trkpt lat="45.1622" lon="5.63057">
        <ele>1274.8</ele>
        <time>2021-04-23T09:57:02.000Z</time>
      </trkpt>
      <trkpt lat="45.16218" lon="5.63056">
        <ele>1274.8</ele>
        <time>2021-04-23T09:57:03.000Z</time>
      </trkpt>
      <trkpt lat="45.16216" lon="5.63054">
        <ele>1275</ele>
        <time>2021-04-23T09:57:04.000Z</time>
      </trkpt>
      <trkpt lat="45.16213" lon="5.63053">
        <ele>1275</ele>
        <time>2021-04-23T09:57:05.000Z</time>
      </trkpt>
      <trkpt lat="45.16198" lon="5.63046">
        <ele>1274.4</ele>
        <time>2021-04-23T09:57:10.000Z</time>
      </trkpt>
      <trkpt lat="45.16194" lon="5.63043">
        <ele>1274.2</ele>
        <time>2021-04-23T09:57:11.000Z</time>
      </trkpt>
      <trkpt lat="45.16175" lon="5.63035">
        <ele>1273</ele>
        <time>2021-04-23T09:57:17.000Z</time>
      </trkpt>
      <trkpt lat="45.16169" lon="5.63032">
        <ele>1273</ele>
        <time>2021-04-23T09:57:19.000Z</time>
      </trkpt>
      <trkpt lat="45.16163" lon="5.63027">
        <ele>1272.8</ele>
        <time>2021-04-23T09:57:21.000Z</time>
      </trkpt>
      <trkpt lat="45.16156" lon="5.63019">
        <ele>1271.6</ele>
        <time>2021-04-23T09:57:23.000Z</time>
      </trkpt>
      <trkpt lat="45.16153" lon="5.63014">
        <ele>1271.4</ele>
        <time>2021-04-23T09:57:24.000Z</time>
      </trkpt>
      <trkpt lat="45.16145" lon="5.63006">
        <ele>1271</ele>
        <time>2021-04-23T09:57:26.000Z</time>
      </trkpt>
      <trkpt lat="45.16141" lon="5.63002">
        <ele>1270.8</ele>
        <time>2021-04-23T09:57:27.000Z</time>
      </trkpt>
      <trkpt lat="45.16137" lon="5.62999">
        <ele>1270.6</ele>
        <time>2021-04-23T09:57:28.000Z</time>
      </trkpt>
      <trkpt lat="45.16134" lon="5.62996">
        <ele>1270.4</ele>
        <time>2021-04-23T09:57:29.000Z</time>
      </trkpt>
      <trkpt lat="45.16128" lon="5.62988">
        <ele>1270.4</ele>
        <time>2021-04-23T09:57:31.000Z</time>
      </trkpt>
      <trkpt lat="45.16119" lon="5.62973">
        <ele>1270</ele>
        <time>2021-04-23T09:57:34.000Z</time>
      </trkpt>
      <trkpt lat="45.16112" lon="5.6296">
        <ele>1269.8</ele>
        <time>2021-04-23T09:57:36.000Z</time>
      </trkpt>
      <trkpt lat="45.16109" lon="5.62953">
        <ele>1269.2</ele>
        <time>2021-04-23T09:57:37.000Z</time>
      </trkpt>
      <trkpt lat="45.16107" lon="5.62946">
        <ele>1268.8</ele>
        <time>2021-04-23T09:57:38.000Z</time>
      </trkpt>
      <trkpt lat="45.16106" lon="5.62939">
        <ele>1268.6</ele>
        <time>2021-04-23T09:57:39.000Z</time>
      </trkpt>
      <trkpt lat="45.16106" lon="5.62933">
        <ele>1268.8</ele>
        <time>2021-04-23T09:57:40.000Z</time>
      </trkpt>
      <trkpt lat="45.16106" lon="5.62927">
        <ele>1268.8</ele>
        <time>2021-04-23T09:57:41.000Z</time>
      </trkpt>
      <trkpt lat="45.16106" lon="5.62921">
        <ele>1269</ele>
        <time>2021-04-23T09:57:42.000Z</time>
      </trkpt>
      <trkpt lat="45.16106" lon="5.62916">
        <ele>1269.2</ele>
        <time>2021-04-23T09:57:43.000Z</time>
      </trkpt>
      <trkpt lat="45.16106" lon="5.62912">
        <ele>1269.4</ele>
        <time>2021-04-23T09:57:44.000Z</time>
      </trkpt>
      <trkpt lat="45.16106" lon="5.62907">
        <ele>1269.6</ele>
        <time>2021-04-23T09:57:45.000Z</time>
      </trkpt>
      <trkpt lat="45.16105" lon="5.62896">
        <ele>1270</ele>
        <time>2021-04-23T09:57:47.000Z</time>
      </trkpt>
      <trkpt lat="45.16105" lon="5.62891">
        <ele>1270.4</ele>
        <time>2021-04-23T09:57:48.000Z</time>
      </trkpt>
      <trkpt lat="45.16105" lon="5.62872">
        <ele>1271.6</ele>
        <time>2021-04-23T09:57:52.000Z</time>
      </trkpt>
      <trkpt lat="45.16105" lon="5.62868">
        <ele>1272.2</ele>
        <time>2021-04-23T09:57:53.000Z</time>
      </trkpt>
      <trkpt lat="45.16105" lon="5.62864">
        <ele>1272.6</ele>
        <time>2021-04-23T09:57:54.000Z</time>
      </trkpt>
      <trkpt lat="45.16105" lon="5.6286">
        <ele>1273</ele>
        <time>2021-04-23T09:57:55.000Z</time>
      </trkpt>
      <trkpt lat="45.16104" lon="5.62856">
        <ele>1273.2</ele>
        <time>2021-04-23T09:57:56.000Z</time>
      </trkpt>
      <trkpt lat="45.16103" lon="5.62849">
        <ele>1274</ele>
        <time>2021-04-23T09:57:58.000Z</time>
      </trkpt>
      <trkpt lat="45.16102" lon="5.62846">
        <ele>1274.2</ele>
        <time>2021-04-23T09:57:59.000Z</time>
      </trkpt>
      <trkpt lat="45.16102" lon="5.62842">
        <ele>1274.8</ele>
        <time>2021-04-23T09:58:00.000Z</time>
      </trkpt>
      <trkpt lat="45.16101" lon="5.62838">
        <ele>1275</ele>
        <time>2021-04-23T09:58:01.000Z</time>
      </trkpt>
      <trkpt lat="45.161" lon="5.62835">
        <ele>1275.2</ele>
        <time>2021-04-23T09:58:02.000Z</time>
      </trkpt>
      <trkpt lat="45.16098" lon="5.62831">
        <ele>1275.4</ele>
        <time>2021-04-23T09:58:03.000Z</time>
      </trkpt>
      <trkpt lat="45.16097" lon="5.62828">
        <ele>1275.4</ele>
        <time>2021-04-23T09:58:04.000Z</time>
      </trkpt>
      <trkpt lat="45.16096" lon="5.62825">
        <ele>1275.6</ele>
        <time>2021-04-23T09:58:05.000Z</time>
      </trkpt>
      <trkpt lat="45.16095" lon="5.62821">
        <ele>1275.6</ele>
        <time>2021-04-23T09:58:06.000Z</time>
      </trkpt>
      <trkpt lat="45.16094" lon="5.62818">
        <ele>1275.8</ele>
        <time>2021-04-23T09:58:07.000Z</time>
      </trkpt>
      <trkpt lat="45.16093" lon="5.62815">
        <ele>1275.8</ele>
        <time>2021-04-23T09:58:08.000Z</time>
      </trkpt>
      <trkpt lat="45.16092" lon="5.62811">
        <ele>1276</ele>
        <time>2021-04-23T09:58:09.000Z</time>
      </trkpt>
      <trkpt lat="45.16091" lon="5.62808">
        <ele>1276</ele>
        <time>2021-04-23T09:58:10.000Z</time>
      </trkpt>
      <trkpt lat="45.1609" lon="5.62804">
        <ele>1276.2</ele>
        <time>2021-04-23T09:58:11.000Z</time>
      </trkpt>
      <trkpt lat="45.16089" lon="5.62801">
        <ele>1276.2</ele>
        <time>2021-04-23T09:58:12.000Z</time>
      </trkpt>
      <trkpt lat="45.16088" lon="5.62797">
        <ele>1276.2</ele>
        <time>2021-04-23T09:58:13.000Z</time>
      </trkpt>
      <trkpt lat="45.16087" lon="5.62793">
        <ele>1276.4</ele>
        <time>2021-04-23T09:58:14.000Z</time>
      </trkpt>
      <trkpt lat="45.16086" lon="5.62788">
        <ele>1276.4</ele>
        <time>2021-04-23T09:58:15.000Z</time>
      </trkpt>
      <trkpt lat="45.16085" lon="5.62784">
        <ele>1276.4</ele>
        <time>2021-04-23T09:58:16.000Z</time>
      </trkpt>
      <trkpt lat="45.16084" lon="5.62779">
        <ele>1276.4</ele>
        <time>2021-04-23T09:58:17.000Z</time>
      </trkpt>
      <trkpt lat="45.16083" lon="5.62774">
        <ele>1276.4</ele>
        <time>2021-04-23T09:58:18.000Z</time>
      </trkpt>
      <trkpt lat="45.16083" lon="5.6277">
        <ele>1276.4</ele>
        <time>2021-04-23T09:58:19.000Z</time>
      </trkpt>
      <trkpt lat="45.16082" lon="5.62765">
        <ele>1276.2</ele>
        <time>2021-04-23T09:58:20.000Z</time>
      </trkpt>
      <trkpt lat="45.16081" lon="5.6276">
        <ele>1276.2</ele>
        <time>2021-04-23T09:58:21.000Z</time>
      </trkpt>
      <trkpt lat="45.1608" lon="5.62754">
        <ele>1275.8</ele>
        <time>2021-04-23T09:58:22.000Z</time>
      </trkpt>
      <trkpt lat="45.16079" lon="5.62748">
        <ele>1275.6</ele>
        <time>2021-04-23T09:58:23.000Z</time>
      </trkpt>
      <trkpt lat="45.16079" lon="5.62743">
        <ele>1275.4</ele>
        <time>2021-04-23T09:58:24.000Z</time>
      </trkpt>
      <trkpt lat="45.16078" lon="5.62737">
        <ele>1275.4</ele>
        <time>2021-04-23T09:58:25.000Z</time>
      </trkpt>
      <trkpt lat="45.16078" lon="5.62732">
        <ele>1275.2</ele>
        <time>2021-04-23T09:58:26.000Z</time>
      </trkpt>
      <trkpt lat="45.16077" lon="5.62727">
        <ele>1275</ele>
        <time>2021-04-23T09:58:27.000Z</time>
      </trkpt>
      <trkpt lat="45.16077" lon="5.62722">
        <ele>1274.8</ele>
        <time>2021-04-23T09:58:28.000Z</time>
      </trkpt>
      <trkpt lat="45.16076" lon="5.62712">
        <ele>1274.8</ele>
        <time>2021-04-23T09:58:30.000Z</time>
      </trkpt>
      <trkpt lat="45.16075" lon="5.62702">
        <ele>1275</ele>
        <time>2021-04-23T09:58:32.000Z</time>
      </trkpt>
      <trkpt lat="45.16071" lon="5.62676">
        <ele>1275.2</ele>
        <time>2021-04-23T09:58:37.000Z</time>
      </trkpt>
      <trkpt lat="45.16069" lon="5.62667">
        <ele>1275.2</ele>
        <time>2021-04-23T09:58:39.000Z</time>
      </trkpt>
      <trkpt lat="45.16064" lon="5.62634">
        <ele>1274.2</ele>
        <time>2021-04-23T09:58:45.000Z</time>
      </trkpt>
      <trkpt lat="45.16065" lon="5.62602">
        <ele>1271.8</ele>
        <time>2021-04-23T10:00:37.000Z</time>
      </trkpt>
      <trkpt lat="45.16067" lon="5.62603">
        <ele>1271.6</ele>
        <time>2021-04-23T10:00:39.000Z</time>
      </trkpt>
      <trkpt lat="45.16069" lon="5.62607">
        <ele>1270.2</ele>
        <time>2021-04-23T10:00:41.000Z</time>
      </trkpt>
      <trkpt lat="45.1607" lon="5.6261">
        <ele>1269.6</ele>
        <time>2021-04-23T10:00:42.000Z</time>
      </trkpt>
      <trkpt lat="45.16071" lon="5.62612">
        <ele>1268.8</ele>
        <time>2021-04-23T10:00:43.000Z</time>
      </trkpt>
      <trkpt lat="45.16072" lon="5.62612">
        <ele>1267.6</ele>
        <time>2021-04-23T10:00:45.000Z</time>
      </trkpt>
      <trkpt lat="45.16072" lon="5.62611">
        <ele>1267</ele>
        <time>2021-04-23T10:00:46.000Z</time>
      </trkpt>
      <trkpt lat="45.16072" lon="5.6261">
        <ele>1266.6</ele>
        <time>2021-04-23T10:00:47.000Z</time>
      </trkpt>
      <trkpt lat="45.16072" lon="5.62608">
        <ele>1266</ele>
        <time>2021-04-23T10:00:48.000Z</time>
      </trkpt>
      <trkpt lat="45.16071" lon="5.62604">
        <ele>1265.2</ele>
        <time>2021-04-23T10:00:50.000Z</time>
      </trkpt>
      <trkpt lat="45.16071" lon="5.62602">
        <ele>1265</ele>
        <time>2021-04-23T10:00:51.000Z</time>
      </trkpt>
      <trkpt lat="45.16071" lon="5.62601">
        <ele>1264.8</ele>
        <time>2021-04-23T10:00:52.000Z</time>
      </trkpt>
      <trkpt lat="45.16071" lon="5.626">
        <ele>1264.6</ele>
        <time>2021-04-23T10:00:53.000Z</time>
      </trkpt>
      <trkpt lat="45.16071" lon="5.62598">
        <ele>1264.2</ele>
        <time>2021-04-23T10:00:54.000Z</time>
      </trkpt>
      <trkpt lat="45.16071" lon="5.62597">
        <ele>1264</ele>
        <time>2021-04-23T10:00:55.000Z</time>
      </trkpt>
      <trkpt lat="45.16071" lon="5.62595">
        <ele>1263.6</ele>
        <time>2021-04-23T10:00:56.000Z</time>
      </trkpt>
      <trkpt lat="45.16072" lon="5.62594">
        <ele>1263</ele>
        <time>2021-04-23T10:00:57.000Z</time>
      </trkpt>
      <trkpt lat="45.16072" lon="5.62594">
        <ele>1262.4</ele>
        <time>2021-04-23T10:00:58.000Z</time>
      </trkpt>
      <trkpt lat="45.16073" lon="5.62596">
        <ele>1261.2</ele>
        <time>2021-04-23T10:01:01.000Z</time>
      </trkpt>
      <trkpt lat="45.16074" lon="5.62598">
        <ele>1261</ele>
        <time>2021-04-23T10:01:02.000Z</time>
      </trkpt>
      <trkpt lat="45.16074" lon="5.62599">
        <ele>1260.6</ele>
        <time>2021-04-23T10:01:03.000Z</time>
      </trkpt>
      <trkpt lat="45.16074" lon="5.62601">
        <ele>1260.4</ele>
        <time>2021-04-23T10:01:04.000Z</time>
      </trkpt>
      <trkpt lat="45.16075" lon="5.62602">
        <ele>1260.4</ele>
        <time>2021-04-23T10:01:05.000Z</time>
      </trkpt>
      <trkpt lat="45.16075" lon="5.62603">
        <ele>1260.4</ele>
        <time>2021-04-23T10:01:06.000Z</time>
      </trkpt>
      <trkpt lat="45.16075" lon="5.62603">
        <ele>1260.2</ele>
        <time>2021-04-23T10:01:07.000Z</time>
      </trkpt>
      <trkpt lat="45.16075" lon="5.62603">
        <ele>1259.8</ele>
        <time>2021-04-23T10:01:08.000Z</time>
      </trkpt>
      <trkpt lat="45.16075" lon="5.62598">
        <ele>1259.2</ele>
        <time>2021-04-23T10:01:10.000Z</time>
      </trkpt>
      <trkpt lat="45.16075" lon="5.62595">
        <ele>1258.8</ele>
        <time>2021-04-23T10:01:11.000Z</time>
      </trkpt>
      <trkpt lat="45.16075" lon="5.62589">
        <ele>1257.2</ele>
        <time>2021-04-23T10:01:13.000Z</time>
      </trkpt>
      <trkpt lat="45.16074" lon="5.62586">
        <ele>1256.6</ele>
        <time>2021-04-23T10:01:14.000Z</time>
      </trkpt>
      <trkpt lat="45.16074" lon="5.62582">
        <ele>1255.8</ele>
        <time>2021-04-23T10:01:15.000Z</time>
      </trkpt>
      <trkpt lat="45.16073" lon="5.62579">
        <ele>1255.4</ele>
        <time>2021-04-23T10:01:16.000Z</time>
      </trkpt>
      <trkpt lat="45.16074" lon="5.62576">
        <ele>1254.6</ele>
        <time>2021-04-23T10:01:17.000Z</time>
      </trkpt>
      <trkpt lat="45.16074" lon="5.62573">
        <ele>1254.2</ele>
        <time>2021-04-23T10:01:18.000Z</time>
      </trkpt>
      <trkpt lat="45.16075" lon="5.62568">
        <ele>1253.4</ele>
        <time>2021-04-23T10:01:19.000Z</time>
      </trkpt>
      <trkpt lat="45.16076" lon="5.62561">
        <ele>1251.6</ele>
        <time>2021-04-23T10:01:21.000Z</time>
      </trkpt>
      <trkpt lat="45.16077" lon="5.62558">
        <ele>1251.2</ele>
        <time>2021-04-23T10:01:22.000Z</time>
      </trkpt>
      <trkpt lat="45.16078" lon="5.62556">
        <ele>1250.8</ele>
        <time>2021-04-23T10:01:23.000Z</time>
      </trkpt>
      <trkpt lat="45.1608" lon="5.62556">
        <ele>1250.4</ele>
        <time>2021-04-23T10:01:24.000Z</time>
      </trkpt>
      <trkpt lat="45.16081" lon="5.62557">
        <ele>1248.8</ele>
        <time>2021-04-23T10:01:25.000Z</time>
      </trkpt>
      <trkpt lat="45.16083" lon="5.62559">
        <ele>1248</ele>
        <time>2021-04-23T10:01:26.000Z</time>
      </trkpt>
      <trkpt lat="45.16084" lon="5.62561">
        <ele>1247.4</ele>
        <time>2021-04-23T10:01:27.000Z</time>
      </trkpt>
      <trkpt lat="45.16087" lon="5.62562">
        <ele>1247</ele>
        <time>2021-04-23T10:01:28.000Z</time>
      </trkpt>
      <trkpt lat="45.16088" lon="5.62562">
        <ele>1246.4</ele>
        <time>2021-04-23T10:01:29.000Z</time>
      </trkpt>
      <trkpt lat="45.16088" lon="5.62564">
        <ele>1246</ele>
        <time>2021-04-23T10:01:30.000Z</time>
      </trkpt>
      <trkpt lat="45.16089" lon="5.62564">
        <ele>1245.8</ele>
        <time>2021-04-23T10:01:31.000Z</time>
      </trkpt>
      <trkpt lat="45.16089" lon="5.62565">
        <ele>1245.6</ele>
        <time>2021-04-23T10:01:32.000Z</time>
      </trkpt>
      <trkpt lat="45.16089" lon="5.62565">
        <ele>1245.6</ele>
        <time>2021-04-23T10:01:33.000Z</time>
      </trkpt>
      <trkpt lat="45.16089" lon="5.62565">
        <ele>1245.6</ele>
        <time>2021-04-23T10:01:34.000Z</time>
      </trkpt>
      <trkpt lat="45.16089" lon="5.62565">
        <ele>1245.4</ele>
        <time>2021-04-23T10:01:35.000Z</time>
      </trkpt>
      <trkpt lat="45.1609" lon="5.62564">
        <ele>1245.4</ele>
        <time>2021-04-23T10:01:36.000Z</time>
      </trkpt>
      <trkpt lat="45.16091" lon="5.62563">
        <ele>1245.4</ele>
        <time>2021-04-23T10:01:37.000Z</time>
      </trkpt>
      <trkpt lat="45.16092" lon="5.62561">
        <ele>1245</ele>
        <time>2021-04-23T10:01:38.000Z</time>
      </trkpt>
      <trkpt lat="45.16093" lon="5.62559">
        <ele>1244.6</ele>
        <time>2021-04-23T10:01:39.000Z</time>
      </trkpt>
      <trkpt lat="45.16092" lon="5.62556">
        <ele>1244.2</ele>
        <time>2021-04-23T10:01:40.000Z</time>
      </trkpt>
      <trkpt lat="45.16091" lon="5.6255">
        <ele>1243.8</ele>
        <time>2021-04-23T10:01:42.000Z</time>
      </trkpt>
      <trkpt lat="45.16092" lon="5.62549">
        <ele>1243.6</ele>
        <time>2021-04-23T10:01:43.000Z</time>
      </trkpt>
      <trkpt lat="45.16091" lon="5.62546">
        <ele>1243</ele>
        <time>2021-04-23T10:01:44.000Z</time>
      </trkpt>
      <trkpt lat="45.16091" lon="5.62543">
        <ele>1242.2</ele>
        <time>2021-04-23T10:01:45.000Z</time>
      </trkpt>
      <trkpt lat="45.16091" lon="5.62536">
        <ele>1241.2</ele>
        <time>2021-04-23T10:01:48.000Z</time>
      </trkpt>
      <trkpt lat="45.16092" lon="5.62535">
        <ele>1240.8</ele>
        <time>2021-04-23T10:01:49.000Z</time>
      </trkpt>
      <trkpt lat="45.16094" lon="5.62535">
        <ele>1240.4</ele>
        <time>2021-04-23T10:01:50.000Z</time>
      </trkpt>
      <trkpt lat="45.16096" lon="5.62536">
        <ele>1239.6</ele>
        <time>2021-04-23T10:01:52.000Z</time>
      </trkpt>
      <trkpt lat="45.16099" lon="5.6254">
        <ele>1238.4</ele>
        <time>2021-04-23T10:01:54.000Z</time>
      </trkpt>
      <trkpt lat="45.161" lon="5.62543">
        <ele>1238</ele>
        <time>2021-04-23T10:01:55.000Z</time>
      </trkpt>
      <trkpt lat="45.16102" lon="5.62544">
        <ele>1237.8</ele>
        <time>2021-04-23T10:01:56.000Z</time>
      </trkpt>
      <trkpt lat="45.16105" lon="5.62547">
        <ele>1237.2</ele>
        <time>2021-04-23T10:01:58.000Z</time>
      </trkpt>
      <trkpt lat="45.16108" lon="5.62553">
        <ele>1236.6</ele>
        <time>2021-04-23T10:02:00.000Z</time>
      </trkpt>
      <trkpt lat="45.16108" lon="5.62554">
        <ele>1236.4</ele>
        <time>2021-04-23T10:02:01.000Z</time>
      </trkpt>
      <trkpt lat="45.16109" lon="5.62554">
        <ele>1236.2</ele>
        <time>2021-04-23T10:02:02.000Z</time>
      </trkpt>
      <trkpt lat="45.16109" lon="5.62554">
        <ele>1236.2</ele>
        <time>2021-04-23T10:02:03.000Z</time>
      </trkpt>
      <trkpt lat="45.16109" lon="5.62551">
        <ele>1236</ele>
        <time>2021-04-23T10:02:04.000Z</time>
      </trkpt>
      <trkpt lat="45.16109" lon="5.62548">
        <ele>1235.8</ele>
        <time>2021-04-23T10:02:05.000Z</time>
      </trkpt>
      <trkpt lat="45.16109" lon="5.62541">
        <ele>1235.2</ele>
        <time>2021-04-23T10:02:08.000Z</time>
      </trkpt>
      <trkpt lat="45.16109" lon="5.6254">
        <ele>1235</ele>
        <time>2021-04-23T10:02:09.000Z</time>
      </trkpt>
      <trkpt lat="45.16109" lon="5.6254">
        <ele>1234.8</ele>
        <time>2021-04-23T10:02:10.000Z</time>
      </trkpt>
      <trkpt lat="45.16109" lon="5.6254">
        <ele>1234.6</ele>
        <time>2021-04-23T10:02:11.000Z</time>
      </trkpt>
      <trkpt lat="45.16109" lon="5.6254">
        <ele>1234.2</ele>
        <time>2021-04-23T10:02:16.000Z</time>
      </trkpt>
      <trkpt lat="45.1611" lon="5.62542">
        <ele>1233.6</ele>
        <time>2021-04-23T10:02:18.000Z</time>
      </trkpt>
      <trkpt lat="45.16111" lon="5.62546">
        <ele>1232.8</ele>
        <time>2021-04-23T10:02:20.000Z</time>
      </trkpt>
      <trkpt lat="45.16112" lon="5.62547">
        <ele>1232.6</ele>
        <time>2021-04-23T10:02:21.000Z</time>
      </trkpt>
      <trkpt lat="45.16114" lon="5.62547">
        <ele>1232.2</ele>
        <time>2021-04-23T10:02:22.000Z</time>
      </trkpt>
      <trkpt lat="45.16114" lon="5.62548">
        <ele>1232</ele>
        <time>2021-04-23T10:02:23.000Z</time>
      </trkpt>
      <trkpt lat="45.16114" lon="5.62548">
        <ele>1232</ele>
        <time>2021-04-23T10:02:24.000Z</time>
      </trkpt>
      <trkpt lat="45.16114" lon="5.62547">
        <ele>1231.6</ele>
        <time>2021-04-23T10:02:25.000Z</time>
      </trkpt>
      <trkpt lat="45.16115" lon="5.62545">
        <ele>1231.4</ele>
        <time>2021-04-23T10:02:26.000Z</time>
      </trkpt>
      <trkpt lat="45.16114" lon="5.62539">
        <ele>1230.4</ele>
        <time>2021-04-23T10:02:29.000Z</time>
      </trkpt>
      <trkpt lat="45.16114" lon="5.62538">
        <ele>1230</ele>
        <time>2021-04-23T10:02:31.000Z</time>
      </trkpt>
      <trkpt lat="45.16114" lon="5.62538">
        <ele>1230</ele>
        <time>2021-04-23T10:02:32.000Z</time>
      </trkpt>
      <trkpt lat="45.16115" lon="5.6253">
        <ele>1229.6</ele>
        <time>2021-04-23T10:02:35.000Z</time>
      </trkpt>
      <trkpt lat="45.16112" lon="5.62521">
        <ele>1228.6</ele>
        <time>2021-04-23T10:02:37.000Z</time>
      </trkpt>
      <trkpt lat="45.16112" lon="5.62517">
        <ele>1228</ele>
        <time>2021-04-23T10:02:38.000Z</time>
      </trkpt>
      <trkpt lat="45.16111" lon="5.62511">
        <ele>1227.6</ele>
        <time>2021-04-23T10:02:39.000Z</time>
      </trkpt>
      <trkpt lat="45.16107" lon="5.62491">
        <ele>1226.6</ele>
        <time>2021-04-23T10:02:43.000Z</time>
      </trkpt>
      <trkpt lat="45.16106" lon="5.62488">
        <ele>1226.4</ele>
        <time>2021-04-23T10:02:44.000Z</time>
      </trkpt>
      <trkpt lat="45.16103" lon="5.62483">
        <ele>1225.8</ele>
        <time>2021-04-23T10:02:45.000Z</time>
      </trkpt>
      <trkpt lat="45.16103" lon="5.62479">
        <ele>1225.2</ele>
        <time>2021-04-23T10:02:46.000Z</time>
      </trkpt>
      <trkpt lat="45.16103" lon="5.62476">
        <ele>1225</ele>
        <time>2021-04-23T10:02:47.000Z</time>
      </trkpt>
      <trkpt lat="45.16102" lon="5.62474">
        <ele>1224.8</ele>
        <time>2021-04-23T10:02:48.000Z</time>
      </trkpt>
      <trkpt lat="45.16102" lon="5.62472">
        <ele>1224.6</ele>
        <time>2021-04-23T10:02:49.000Z</time>
      </trkpt>
      <trkpt lat="45.16101" lon="5.6247">
        <ele>1224.6</ele>
        <time>2021-04-23T10:02:50.000Z</time>
      </trkpt>
      <trkpt lat="45.16098" lon="5.62469">
        <ele>1224.4</ele>
        <time>2021-04-23T10:02:51.000Z</time>
      </trkpt>
      <trkpt lat="45.16094" lon="5.62464">
        <ele>1224.2</ele>
        <time>2021-04-23T10:02:53.000Z</time>
      </trkpt>
      <trkpt lat="45.16091" lon="5.62462">
        <ele>1224.2</ele>
        <time>2021-04-23T10:02:54.000Z</time>
      </trkpt>
      <trkpt lat="45.1609" lon="5.6246">
        <ele>1224</ele>
        <time>2021-04-23T10:02:55.000Z</time>
      </trkpt>
      <trkpt lat="45.16088" lon="5.62458">
        <ele>1224</ele>
        <time>2021-04-23T10:02:56.000Z</time>
      </trkpt>
      <trkpt lat="45.16089" lon="5.62456">
        <ele>1223.8</ele>
        <time>2021-04-23T10:02:57.000Z</time>
      </trkpt>
      <trkpt lat="45.1609" lon="5.62454">
        <ele>1223.4</ele>
        <time>2021-04-23T10:02:58.000Z</time>
      </trkpt>
      <trkpt lat="45.16092" lon="5.62454">
        <ele>1223.2</ele>
        <time>2021-04-23T10:02:59.000Z</time>
      </trkpt>
      <trkpt lat="45.16094" lon="5.62455">
        <ele>1222.4</ele>
        <time>2021-04-23T10:03:00.000Z</time>
      </trkpt>
      <trkpt lat="45.16097" lon="5.62456">
        <ele>1221.2</ele>
        <time>2021-04-23T10:03:02.000Z</time>
      </trkpt>
      <trkpt lat="45.16098" lon="5.62454">
        <ele>1221</ele>
        <time>2021-04-23T10:03:03.000Z</time>
      </trkpt>
      <trkpt lat="45.161" lon="5.62453">
        <ele>1220.4</ele>
        <time>2021-04-23T10:03:04.000Z</time>
      </trkpt>
      <trkpt lat="45.16103" lon="5.62452">
        <ele>1220</ele>
        <time>2021-04-23T10:03:05.000Z</time>
      </trkpt>
      <trkpt lat="45.16105" lon="5.62453">
        <ele>1219.4</ele>
        <time>2021-04-23T10:03:06.000Z</time>
      </trkpt>
      <trkpt lat="45.16107" lon="5.62453">
        <ele>1218.6</ele>
        <time>2021-04-23T10:03:07.000Z</time>
      </trkpt>
      <trkpt lat="45.16109" lon="5.62454">
        <ele>1217.8</ele>
        <time>2021-04-23T10:03:08.000Z</time>
      </trkpt>
      <trkpt lat="45.16112" lon="5.62457">
        <ele>1217.2</ele>
        <time>2021-04-23T10:03:09.000Z</time>
      </trkpt>
      <trkpt lat="45.16114" lon="5.6246">
        <ele>1216.8</ele>
        <time>2021-04-23T10:03:10.000Z</time>
      </trkpt>
      <trkpt lat="45.16114" lon="5.62464">
        <ele>1216.4</ele>
        <time>2021-04-23T10:03:11.000Z</time>
      </trkpt>
      <trkpt lat="45.16115" lon="5.62466">
        <ele>1216</ele>
        <time>2021-04-23T10:03:12.000Z</time>
      </trkpt>
      <trkpt lat="45.16115" lon="5.62466">
        <ele>1215.8</ele>
        <time>2021-04-23T10:03:13.000Z</time>
      </trkpt>
      <trkpt lat="45.16116" lon="5.62465">
        <ele>1215.8</ele>
        <time>2021-04-23T10:03:14.000Z</time>
      </trkpt>
      <trkpt lat="45.16116" lon="5.62462">
        <ele>1215.2</ele>
        <time>2021-04-23T10:03:16.000Z</time>
      </trkpt>
      <trkpt lat="45.16115" lon="5.62458">
        <ele>1215</ele>
        <time>2021-04-23T10:03:17.000Z</time>
      </trkpt>
      <trkpt lat="45.16114" lon="5.62454">
        <ele>1214</ele>
        <time>2021-04-23T10:03:18.000Z</time>
      </trkpt>
      <trkpt lat="45.16115" lon="5.6245">
        <ele>1213.4</ele>
        <time>2021-04-23T10:03:19.000Z</time>
      </trkpt>
      <trkpt lat="45.16115" lon="5.62445">
        <ele>1212.8</ele>
        <time>2021-04-23T10:03:20.000Z</time>
      </trkpt>
      <trkpt lat="45.16114" lon="5.62442">
        <ele>1212</ele>
        <time>2021-04-23T10:03:21.000Z</time>
      </trkpt>
      <trkpt lat="45.16114" lon="5.62439">
        <ele>1211.2</ele>
        <time>2021-04-23T10:03:22.000Z</time>
      </trkpt>
      <trkpt lat="45.16112" lon="5.62435">
        <ele>1210.6</ele>
        <time>2021-04-23T10:03:23.000Z</time>
      </trkpt>
      <trkpt lat="45.16111" lon="5.62431">
        <ele>1210.2</ele>
        <time>2021-04-23T10:03:24.000Z</time>
      </trkpt>
      <trkpt lat="45.1611" lon="5.62428">
        <ele>1210</ele>
        <time>2021-04-23T10:03:25.000Z</time>
      </trkpt>
      <trkpt lat="45.16109" lon="5.62425">
        <ele>1209.6</ele>
        <time>2021-04-23T10:03:26.000Z</time>
      </trkpt>
      <trkpt lat="45.16108" lon="5.62419">
        <ele>1209</ele>
        <time>2021-04-23T10:03:28.000Z</time>
      </trkpt>
      <trkpt lat="45.16107" lon="5.62417">
        <ele>1208.4</ele>
        <time>2021-04-23T10:03:29.000Z</time>
      </trkpt>
      <trkpt lat="45.16105" lon="5.62415">
        <ele>1208.2</ele>
        <time>2021-04-23T10:03:30.000Z</time>
      </trkpt>
      <trkpt lat="45.16103" lon="5.62412">
        <ele>1207.6</ele>
        <time>2021-04-23T10:03:31.000Z</time>
      </trkpt>
      <trkpt lat="45.16103" lon="5.62407">
        <ele>1207.4</ele>
        <time>2021-04-23T10:03:32.000Z</time>
      </trkpt>
      <trkpt lat="45.16104" lon="5.62404">
        <ele>1207.2</ele>
        <time>2021-04-23T10:03:33.000Z</time>
      </trkpt>
      <trkpt lat="45.16104" lon="5.62404">
        <ele>1206.8</ele>
        <time>2021-04-23T10:03:34.000Z</time>
      </trkpt>
      <trkpt lat="45.16104" lon="5.62404">
        <ele>1206.4</ele>
        <time>2021-04-23T10:03:35.000Z</time>
      </trkpt>
      <trkpt lat="45.16105" lon="5.62404">
        <ele>1205.8</ele>
        <time>2021-04-23T10:03:36.000Z</time>
      </trkpt>
      <trkpt lat="45.16107" lon="5.62404">
        <ele>1205.4</ele>
        <time>2021-04-23T10:03:37.000Z</time>
      </trkpt>
      <trkpt lat="45.16109" lon="5.62403">
        <ele>1205</ele>
        <time>2021-04-23T10:03:38.000Z</time>
      </trkpt>
      <trkpt lat="45.16111" lon="5.62399">
        <ele>1204</ele>
        <time>2021-04-23T10:03:39.000Z</time>
      </trkpt>
      <trkpt lat="45.16113" lon="5.62396">
        <ele>1202.8</ele>
        <time>2021-04-23T10:03:40.000Z</time>
      </trkpt>
      <trkpt lat="45.16114" lon="5.62393">
        <ele>1202.2</ele>
        <time>2021-04-23T10:03:41.000Z</time>
      </trkpt>
      <trkpt lat="45.16115" lon="5.62391">
        <ele>1201.4</ele>
        <time>2021-04-23T10:03:42.000Z</time>
      </trkpt>
      <trkpt lat="45.16117" lon="5.6239">
        <ele>1200.6</ele>
        <time>2021-04-23T10:03:43.000Z</time>
      </trkpt>
      <trkpt lat="45.16118" lon="5.62389">
        <ele>1199.6</ele>
        <time>2021-04-23T10:03:44.000Z</time>
      </trkpt>
      <trkpt lat="45.16119" lon="5.62388">
        <ele>1199</ele>
        <time>2021-04-23T10:03:45.000Z</time>
      </trkpt>
      <trkpt lat="45.16118" lon="5.62387">
        <ele>1198.2</ele>
        <time>2021-04-23T10:03:47.000Z</time>
      </trkpt>
      <trkpt lat="45.16119" lon="5.62387">
        <ele>1198</ele>
        <time>2021-04-23T10:03:48.000Z</time>
      </trkpt>
      <trkpt lat="45.16119" lon="5.62387">
        <ele>1197.6</ele>
        <time>2021-04-23T10:03:54.000Z</time>
      </trkpt>
      <trkpt lat="45.16119" lon="5.62387">
        <ele>1197.6</ele>
        <time>2021-04-23T10:03:58.000Z</time>
      </trkpt>
      <trkpt lat="45.16119" lon="5.62387">
        <ele>1197.6</ele>
        <time>2021-04-23T10:04:05.000Z</time>
      </trkpt>
      <trkpt lat="45.16119" lon="5.62387">
        <ele>1197.6</ele>
        <time>2021-04-23T10:04:09.000Z</time>
      </trkpt>
      <trkpt lat="45.16119" lon="5.62387">
        <ele>1197.2</ele>
        <time>2021-04-23T10:04:25.000Z</time>
      </trkpt>
      <trkpt lat="45.16119" lon="5.62387">
        <ele>1197</ele>
        <time>2021-04-23T10:04:31.000Z</time>
      </trkpt>
      <trkpt lat="45.16121" lon="5.62387">
        <ele>1196.6</ele>
        <time>2021-04-23T10:04:32.000Z</time>
      </trkpt>
      <trkpt lat="45.16123" lon="5.62387">
        <ele>1195.6</ele>
        <time>2021-04-23T10:04:33.000Z</time>
      </trkpt>
      <trkpt lat="45.16126" lon="5.62388">
        <ele>1194.6</ele>
        <time>2021-04-23T10:04:35.000Z</time>
      </trkpt>
      <trkpt lat="45.16127" lon="5.62388">
        <ele>1194</ele>
        <time>2021-04-23T10:04:36.000Z</time>
      </trkpt>
      <trkpt lat="45.16127" lon="5.62388">
        <ele>1193.8</ele>
        <time>2021-04-23T10:04:37.000Z</time>
      </trkpt>
      <trkpt lat="45.16128" lon="5.62387">
        <ele>1193.4</ele>
        <time>2021-04-23T10:04:38.000Z</time>
      </trkpt>
      <trkpt lat="45.16129" lon="5.62386">
        <ele>1193.2</ele>
        <time>2021-04-23T10:04:40.000Z</time>
      </trkpt>
      <trkpt lat="45.16129" lon="5.62386">
        <ele>1193</ele>
        <time>2021-04-23T10:04:41.000Z</time>
      </trkpt>
      <trkpt lat="45.1613" lon="5.62384">
        <ele>1192.2</ele>
        <time>2021-04-23T10:04:43.000Z</time>
      </trkpt>
      <trkpt lat="45.16131" lon="5.62383">
        <ele>1191.6</ele>
        <time>2021-04-23T10:04:44.000Z</time>
      </trkpt>
      <trkpt lat="45.16131" lon="5.62379">
        <ele>1190.4</ele>
        <time>2021-04-23T10:04:46.000Z</time>
      </trkpt>
      <trkpt lat="45.1613" lon="5.62378">
        <ele>1190</ele>
        <time>2021-04-23T10:04:47.000Z</time>
      </trkpt>
      <trkpt lat="45.16129" lon="5.62374">
        <ele>1189.6</ele>
        <time>2021-04-23T10:04:48.000Z</time>
      </trkpt>
      <trkpt lat="45.16128" lon="5.62371">
        <ele>1189.2</ele>
        <time>2021-04-23T10:04:49.000Z</time>
      </trkpt>
      <trkpt lat="45.16128" lon="5.62369">
        <ele>1189</ele>
        <time>2021-04-23T10:04:50.000Z</time>
      </trkpt>
      <trkpt lat="45.16127" lon="5.62367">
        <ele>1188.6</ele>
        <time>2021-04-23T10:04:51.000Z</time>
      </trkpt>
      <trkpt lat="45.16127" lon="5.62365">
        <ele>1188.2</ele>
        <time>2021-04-23T10:04:52.000Z</time>
      </trkpt>
      <trkpt lat="45.16126" lon="5.62361">
        <ele>1187.8</ele>
        <time>2021-04-23T10:04:53.000Z</time>
      </trkpt>
      <trkpt lat="45.16126" lon="5.62359">
        <ele>1187.4</ele>
        <time>2021-04-23T10:04:54.000Z</time>
      </trkpt>
      <trkpt lat="45.16127" lon="5.62357">
        <ele>1187</ele>
        <time>2021-04-23T10:04:55.000Z</time>
      </trkpt>
      <trkpt lat="45.16129" lon="5.62357">
        <ele>1186.4</ele>
        <time>2021-04-23T10:04:56.000Z</time>
      </trkpt>
      <trkpt lat="45.1613" lon="5.62357">
        <ele>1185.8</ele>
        <time>2021-04-23T10:04:57.000Z</time>
      </trkpt>
      <trkpt lat="45.16131" lon="5.62357">
        <ele>1185.4</ele>
        <time>2021-04-23T10:04:58.000Z</time>
      </trkpt>
      <trkpt lat="45.16132" lon="5.62355">
        <ele>1185</ele>
        <time>2021-04-23T10:04:59.000Z</time>
      </trkpt>
      <trkpt lat="45.16133" lon="5.62353">
        <ele>1184.4</ele>
        <time>2021-04-23T10:05:00.000Z</time>
      </trkpt>
      <trkpt lat="45.16134" lon="5.6235">
        <ele>1184.2</ele>
        <time>2021-04-23T10:05:01.000Z</time>
      </trkpt>
      <trkpt lat="45.16134" lon="5.62348">
        <ele>1184</ele>
        <time>2021-04-23T10:05:02.000Z</time>
      </trkpt>
      <trkpt lat="45.16137" lon="5.6235">
        <ele>1182.8</ele>
        <time>2021-04-23T10:05:04.000Z</time>
      </trkpt>
      <trkpt lat="45.16143" lon="5.62357">
        <ele>1181.6</ele>
        <time>2021-04-23T10:05:06.000Z</time>
      </trkpt>
      <trkpt lat="45.16145" lon="5.62355">
        <ele>1181.4</ele>
        <time>2021-04-23T10:05:07.000Z</time>
      </trkpt>
      <trkpt lat="45.16144" lon="5.62352">
        <ele>1181.2</ele>
        <time>2021-04-23T10:05:08.000Z</time>
      </trkpt>
      <trkpt lat="45.16144" lon="5.62348">
        <ele>1180.8</ele>
        <time>2021-04-23T10:05:09.000Z</time>
      </trkpt>
      <trkpt lat="45.16143" lon="5.62344">
        <ele>1180.6</ele>
        <time>2021-04-23T10:05:10.000Z</time>
      </trkpt>
      <trkpt lat="45.16139" lon="5.62325">
        <ele>1180.4</ele>
        <time>2021-04-23T10:05:15.000Z</time>
      </trkpt>
      <trkpt lat="45.16137" lon="5.62325">
        <ele>1180.6</ele>
        <time>2021-04-23T10:05:16.000Z</time>
      </trkpt>
      <trkpt lat="45.16137" lon="5.62323">
        <ele>1180.8</ele>
        <time>2021-04-23T10:05:17.000Z</time>
      </trkpt>
      <trkpt lat="45.16135" lon="5.62317">
        <ele>1180.8</ele>
        <time>2021-04-23T10:05:19.000Z</time>
      </trkpt>
      <trkpt lat="45.16132" lon="5.62314">
        <ele>1180.8</ele>
        <time>2021-04-23T10:05:20.000Z</time>
      </trkpt>
      <trkpt lat="45.16132" lon="5.62312">
        <ele>1181</ele>
        <time>2021-04-23T10:05:21.000Z</time>
      </trkpt>
      <trkpt lat="45.1613" lon="5.62307">
        <ele>1181.6</ele>
        <time>2021-04-23T10:05:24.000Z</time>
      </trkpt>
      <trkpt lat="45.16129" lon="5.62305">
        <ele>1181.6</ele>
        <time>2021-04-23T10:05:25.000Z</time>
      </trkpt>
      <trkpt lat="45.16128" lon="5.62304">
        <ele>1181.8</ele>
        <time>2021-04-23T10:05:26.000Z</time>
      </trkpt>
      <trkpt lat="45.16127" lon="5.62302">
        <ele>1182</ele>
        <time>2021-04-23T10:05:27.000Z</time>
      </trkpt>
      <trkpt lat="45.16126" lon="5.623">
        <ele>1182</ele>
        <time>2021-04-23T10:05:28.000Z</time>
      </trkpt>
      <trkpt lat="45.16125" lon="5.62298">
        <ele>1182.2</ele>
        <time>2021-04-23T10:05:29.000Z</time>
      </trkpt>
      <trkpt lat="45.16124" lon="5.62297">
        <ele>1182.6</ele>
        <time>2021-04-23T10:05:31.000Z</time>
      </trkpt>
      <trkpt lat="45.16124" lon="5.62295">
        <ele>1182.8</ele>
        <time>2021-04-23T10:05:32.000Z</time>
      </trkpt>
      <trkpt lat="45.16123" lon="5.62294">
        <ele>1183.2</ele>
        <time>2021-04-23T10:05:33.000Z</time>
      </trkpt>
      <trkpt lat="45.16123" lon="5.62293">
        <ele>1183.4</ele>
        <time>2021-04-23T10:05:34.000Z</time>
      </trkpt>
      <trkpt lat="45.16122" lon="5.62291">
        <ele>1183.6</ele>
        <time>2021-04-23T10:05:35.000Z</time>
      </trkpt>
      <trkpt lat="45.1612" lon="5.6229">
        <ele>1184</ele>
        <time>2021-04-23T10:05:36.000Z</time>
      </trkpt>
      <trkpt lat="45.16119" lon="5.62289">
        <ele>1184</ele>
        <time>2021-04-23T10:05:37.000Z</time>
      </trkpt>
      <trkpt lat="45.16117" lon="5.62288">
        <ele>1184.4</ele>
        <time>2021-04-23T10:05:38.000Z</time>
      </trkpt>
      <trkpt lat="45.16116" lon="5.62287">
        <ele>1184.6</ele>
        <time>2021-04-23T10:05:39.000Z</time>
      </trkpt>
      <trkpt lat="45.16114" lon="5.62285">
        <ele>1184.8</ele>
        <time>2021-04-23T10:05:41.000Z</time>
      </trkpt>
      <trkpt lat="45.16113" lon="5.62284">
        <ele>1185.2</ele>
        <time>2021-04-23T10:05:42.000Z</time>
      </trkpt>
      <trkpt lat="45.16112" lon="5.62283">
        <ele>1185.2</ele>
        <time>2021-04-23T10:05:43.000Z</time>
      </trkpt>
      <trkpt lat="45.16111" lon="5.62282">
        <ele>1185.4</ele>
        <time>2021-04-23T10:05:44.000Z</time>
      </trkpt>
      <trkpt lat="45.16109" lon="5.62281">
        <ele>1185.6</ele>
        <time>2021-04-23T10:05:45.000Z</time>
      </trkpt>
      <trkpt lat="45.16109" lon="5.62278">
        <ele>1185.6</ele>
        <time>2021-04-23T10:05:46.000Z</time>
      </trkpt>
      <trkpt lat="45.16108" lon="5.62277">
        <ele>1185.8</ele>
        <time>2021-04-23T10:05:47.000Z</time>
      </trkpt>
      <trkpt lat="45.16107" lon="5.62277">
        <ele>1186</ele>
        <time>2021-04-23T10:05:48.000Z</time>
      </trkpt>
      <trkpt lat="45.16106" lon="5.62275">
        <ele>1186.2</ele>
        <time>2021-04-23T10:05:49.000Z</time>
      </trkpt>
      <trkpt lat="45.16104" lon="5.62274">
        <ele>1186.2</ele>
        <time>2021-04-23T10:05:50.000Z</time>
      </trkpt>
      <trkpt lat="45.16104" lon="5.62273">
        <ele>1186.6</ele>
        <time>2021-04-23T10:05:51.000Z</time>
      </trkpt>
      <trkpt lat="45.16103" lon="5.62272">
        <ele>1186.6</ele>
        <time>2021-04-23T10:05:52.000Z</time>
      </trkpt>
      <trkpt lat="45.16103" lon="5.62271">
        <ele>1186.8</ele>
        <time>2021-04-23T10:05:53.000Z</time>
      </trkpt>
      <trkpt lat="45.16102" lon="5.62271">
        <ele>1186.8</ele>
        <time>2021-04-23T10:05:54.000Z</time>
      </trkpt>
      <trkpt lat="45.16099" lon="5.62269">
        <ele>1186.8</ele>
        <time>2021-04-23T10:05:55.000Z</time>
      </trkpt>
      <trkpt lat="45.16098" lon="5.62267">
        <ele>1187</ele>
        <time>2021-04-23T10:05:56.000Z</time>
      </trkpt>
      <trkpt lat="45.16097" lon="5.62266">
        <ele>1187</ele>
        <time>2021-04-23T10:05:57.000Z</time>
      </trkpt>
      <trkpt lat="45.16096" lon="5.62264">
        <ele>1187.2</ele>
        <time>2021-04-23T10:05:58.000Z</time>
      </trkpt>
      <trkpt lat="45.16095" lon="5.62262">
        <ele>1187.2</ele>
        <time>2021-04-23T10:05:59.000Z</time>
      </trkpt>
      <trkpt lat="45.16093" lon="5.62261">
        <ele>1187.2</ele>
        <time>2021-04-23T10:06:00.000Z</time>
      </trkpt>
      <trkpt lat="45.16092" lon="5.6226">
        <ele>1187.2</ele>
        <time>2021-04-23T10:06:01.000Z</time>
      </trkpt>
      <trkpt lat="45.16091" lon="5.62257">
        <ele>1187.2</ele>
        <time>2021-04-23T10:06:02.000Z</time>
      </trkpt>
      <trkpt lat="45.1609" lon="5.62255">
        <ele>1187.2</ele>
        <time>2021-04-23T10:06:03.000Z</time>
      </trkpt>
      <trkpt lat="45.16089" lon="5.62254">
        <ele>1187.2</ele>
        <time>2021-04-23T10:06:04.000Z</time>
      </trkpt>
      <trkpt lat="45.16087" lon="5.62252">
        <ele>1187.2</ele>
        <time>2021-04-23T10:06:05.000Z</time>
      </trkpt>
      <trkpt lat="45.16087" lon="5.6225">
        <ele>1187.4</ele>
        <time>2021-04-23T10:06:06.000Z</time>
      </trkpt>
      <trkpt lat="45.16086" lon="5.62248">
        <ele>1187.2</ele>
        <time>2021-04-23T10:06:07.000Z</time>
      </trkpt>
      <trkpt lat="45.16085" lon="5.62246">
        <ele>1187.2</ele>
        <time>2021-04-23T10:06:08.000Z</time>
      </trkpt>
      <trkpt lat="45.16085" lon="5.62244">
        <ele>1187.2</ele>
        <time>2021-04-23T10:06:09.000Z</time>
      </trkpt>
      <trkpt lat="45.16084" lon="5.62243">
        <ele>1187.2</ele>
        <time>2021-04-23T10:06:10.000Z</time>
      </trkpt>
      <trkpt lat="45.16082" lon="5.62239">
        <ele>1187</ele>
        <time>2021-04-23T10:06:12.000Z</time>
      </trkpt>
      <trkpt lat="45.1608" lon="5.62238">
        <ele>1186.8</ele>
        <time>2021-04-23T10:06:13.000Z</time>
      </trkpt>
      <trkpt lat="45.16079" lon="5.62236">
        <ele>1186.8</ele>
        <time>2021-04-23T10:06:14.000Z</time>
      </trkpt>
      <trkpt lat="45.16077" lon="5.62233">
        <ele>1186.8</ele>
        <time>2021-04-23T10:06:15.000Z</time>
      </trkpt>
      <trkpt lat="45.16069" lon="5.62225">
        <ele>1187</ele>
        <time>2021-04-23T10:06:19.000Z</time>
      </trkpt>
      <trkpt lat="45.16064" lon="5.62217">
        <ele>1187.8</ele>
        <time>2021-04-23T10:06:23.000Z</time>
      </trkpt>
      <trkpt lat="45.16063" lon="5.62216">
        <ele>1188</ele>
        <time>2021-04-23T10:06:24.000Z</time>
      </trkpt>
      <trkpt lat="45.16062" lon="5.62216">
        <ele>1188</ele>
        <time>2021-04-23T10:06:25.000Z</time>
      </trkpt>
      <trkpt lat="45.1606" lon="5.62216">
        <ele>1188.2</ele>
        <time>2021-04-23T10:06:26.000Z</time>
      </trkpt>
      <trkpt lat="45.1606" lon="5.62215">
        <ele>1188.2</ele>
        <time>2021-04-23T10:06:27.000Z</time>
      </trkpt>
      <trkpt lat="45.1606" lon="5.62215">
        <ele>1188.2</ele>
        <time>2021-04-23T10:06:28.000Z</time>
      </trkpt>
      <trkpt lat="45.1606" lon="5.62215">
        <ele>1188</ele>
        <time>2021-04-23T10:06:29.000Z</time>
      </trkpt>
      <trkpt lat="45.1606" lon="5.62215">
        <ele>1188</ele>
        <time>2021-04-23T10:06:30.000Z</time>
      </trkpt>
      <trkpt lat="45.1606" lon="5.62215">
        <ele>1187.8</ele>
        <time>2021-04-23T10:06:31.000Z</time>
      </trkpt>
      <trkpt lat="45.1606" lon="5.62215">
        <ele>1187.8</ele>
        <time>2021-04-23T10:06:32.000Z</time>
      </trkpt>
      <trkpt lat="45.1606" lon="5.62215">
        <ele>1188</ele>
        <time>2021-04-23T10:06:33.000Z</time>
      </trkpt>
      <trkpt lat="45.16058" lon="5.6221">
        <ele>1188.2</ele>
        <time>2021-04-23T10:06:36.000Z</time>
      </trkpt>
      <trkpt lat="45.16056" lon="5.62207">
        <ele>1187.8</ele>
        <time>2021-04-23T10:06:37.000Z</time>
      </trkpt>
      <trkpt lat="45.16054" lon="5.62202">
        <ele>1187.6</ele>
        <time>2021-04-23T10:06:38.000Z</time>
      </trkpt>
      <trkpt lat="45.16051" lon="5.62196">
        <ele>1187.4</ele>
        <time>2021-04-23T10:06:39.000Z</time>
      </trkpt>
      <trkpt lat="45.16049" lon="5.62181">
        <ele>1187.2</ele>
        <time>2021-04-23T10:06:41.000Z</time>
      </trkpt>
      <trkpt lat="45.16049" lon="5.62177">
        <ele>1187.2</ele>
        <time>2021-04-23T10:06:42.000Z</time>
      </trkpt>
      <trkpt lat="45.16048" lon="5.62172">
        <ele>1187</ele>
        <time>2021-04-23T10:06:43.000Z</time>
      </trkpt>
      <trkpt lat="45.16046" lon="5.62169">
        <ele>1187.2</ele>
        <time>2021-04-23T10:06:44.000Z</time>
      </trkpt>
      <trkpt lat="45.16045" lon="5.62167">
        <ele>1187.2</ele>
        <time>2021-04-23T10:06:45.000Z</time>
      </trkpt>
      <trkpt lat="45.16043" lon="5.62166">
        <ele>1187.2</ele>
        <time>2021-04-23T10:06:46.000Z</time>
      </trkpt>
      <trkpt lat="45.16041" lon="5.62165">
        <ele>1187.4</ele>
        <time>2021-04-23T10:06:47.000Z</time>
      </trkpt>
      <trkpt lat="45.16042" lon="5.62165">
        <ele>1187.6</ele>
        <time>2021-04-23T10:06:48.000Z</time>
      </trkpt>
      <trkpt lat="45.16042" lon="5.62165">
        <ele>1187.6</ele>
        <time>2021-04-23T10:06:49.000Z</time>
      </trkpt>
      <trkpt lat="45.16042" lon="5.62165">
        <ele>1187.8</ele>
        <time>2021-04-23T10:06:50.000Z</time>
      </trkpt>
      <trkpt lat="45.16042" lon="5.62165">
        <ele>1187.8</ele>
        <time>2021-04-23T10:06:51.000Z</time>
      </trkpt>
      <trkpt lat="45.16042" lon="5.62165">
        <ele>1187.8</ele>
        <time>2021-04-23T10:06:52.000Z</time>
      </trkpt>
      <trkpt lat="45.1604" lon="5.62164">
        <ele>1188</ele>
        <time>2021-04-23T10:06:55.000Z</time>
      </trkpt>
      <trkpt lat="45.16039" lon="5.62163">
        <ele>1188.4</ele>
        <time>2021-04-23T10:06:57.000Z</time>
      </trkpt>
      <trkpt lat="45.16039" lon="5.62161">
        <ele>1188.4</ele>
        <time>2021-04-23T10:06:58.000Z</time>
      </trkpt>
      <trkpt lat="45.16039" lon="5.6216">
        <ele>1188.6</ele>
        <time>2021-04-23T10:06:59.000Z</time>
      </trkpt>
      <trkpt lat="45.16039" lon="5.6216">
        <ele>1188.6</ele>
        <time>2021-04-23T10:07:00.000Z</time>
      </trkpt>
      <trkpt lat="45.16039" lon="5.6216">
        <ele>1188.8</ele>
        <time>2021-04-23T10:07:01.000Z</time>
      </trkpt>
      <trkpt lat="45.16039" lon="5.6216">
        <ele>1189</ele>
        <time>2021-04-23T10:07:02.000Z</time>
      </trkpt>
      <trkpt lat="45.16039" lon="5.6216">
        <ele>1189.6</ele>
        <time>2021-04-23T10:07:05.000Z</time>
      </trkpt>
      <trkpt lat="45.16039" lon="5.6216">
        <ele>1190</ele>
        <time>2021-04-23T10:07:08.000Z</time>
      </trkpt>
      <trkpt lat="45.16038" lon="5.62156">
        <ele>1190.2</ele>
        <time>2021-04-23T10:07:12.000Z</time>
      </trkpt>
      <trkpt lat="45.16038" lon="5.62153">
        <ele>1190.2</ele>
        <time>2021-04-23T10:07:13.000Z</time>
      </trkpt>
      <trkpt lat="45.16038" lon="5.62149">
        <ele>1190.2</ele>
        <time>2021-04-23T10:07:14.000Z</time>
      </trkpt>
      <trkpt lat="45.16038" lon="5.62137">
        <ele>1188.8</ele>
        <time>2021-04-23T10:07:17.000Z</time>
      </trkpt>
      <trkpt lat="45.16037" lon="5.62133">
        <ele>1188.4</ele>
        <time>2021-04-23T10:07:18.000Z</time>
      </trkpt>
      <trkpt lat="45.16036" lon="5.62129">
        <ele>1188.2</ele>
        <time>2021-04-23T10:07:19.000Z</time>
      </trkpt>
      <trkpt lat="45.16034" lon="5.62127">
        <ele>1188.2</ele>
        <time>2021-04-23T10:07:20.000Z</time>
      </trkpt>
      <trkpt lat="45.16034" lon="5.62127">
        <ele>1188.2</ele>
        <time>2021-04-23T10:07:21.000Z</time>
      </trkpt>
      <trkpt lat="45.16034" lon="5.62127">
        <ele>1188.2</ele>
        <time>2021-04-23T10:07:22.000Z</time>
      </trkpt>
      <trkpt lat="45.16032" lon="5.62122">
        <ele>1188.8</ele>
        <time>2021-04-23T10:07:25.000Z</time>
      </trkpt>
      <trkpt lat="45.16032" lon="5.62118">
        <ele>1188.8</ele>
        <time>2021-04-23T10:07:27.000Z</time>
      </trkpt>
      <trkpt lat="45.16031" lon="5.62115">
        <ele>1188.8</ele>
        <time>2021-04-23T10:07:28.000Z</time>
      </trkpt>
      <trkpt lat="45.16029" lon="5.62109">
        <ele>1188.6</ele>
        <time>2021-04-23T10:07:29.000Z</time>
      </trkpt>
      <trkpt lat="45.1603" lon="5.621">
        <ele>1188.4</ele>
        <time>2021-04-23T10:07:31.000Z</time>
      </trkpt>
      <trkpt lat="45.16031" lon="5.62098">
        <ele>1188.2</ele>
        <time>2021-04-23T10:07:32.000Z</time>
      </trkpt>
      <trkpt lat="45.16031" lon="5.62094">
        <ele>1187</ele>
        <time>2021-04-23T10:07:33.000Z</time>
      </trkpt>
      <trkpt lat="45.1603" lon="5.6209">
        <ele>1186</ele>
        <time>2021-04-23T10:07:34.000Z</time>
      </trkpt>
      <trkpt lat="45.16028" lon="5.62086">
        <ele>1185.6</ele>
        <time>2021-04-23T10:07:35.000Z</time>
      </trkpt>
      <trkpt lat="45.16025" lon="5.62083">
        <ele>1185</ele>
        <time>2021-04-23T10:07:36.000Z</time>
      </trkpt>
      <trkpt lat="45.16021" lon="5.62078">
        <ele>1184.8</ele>
        <time>2021-04-23T10:07:38.000Z</time>
      </trkpt>
      <trkpt lat="45.16016" lon="5.62068">
        <ele>1185</ele>
        <time>2021-04-23T10:07:41.000Z</time>
      </trkpt>
      <trkpt lat="45.16014" lon="5.62062">
        <ele>1185.2</ele>
        <time>2021-04-23T10:07:42.000Z</time>
      </trkpt>
      <trkpt lat="45.16013" lon="5.6206">
        <ele>1185.2</ele>
        <time>2021-04-23T10:07:43.000Z</time>
      </trkpt>
      <trkpt lat="45.16011" lon="5.62057">
        <ele>1185.2</ele>
        <time>2021-04-23T10:07:44.000Z</time>
      </trkpt>
      <trkpt lat="45.16008" lon="5.62055">
        <ele>1185.4</ele>
        <time>2021-04-23T10:07:45.000Z</time>
      </trkpt>
      <trkpt lat="45.16006" lon="5.62052">
        <ele>1185.6</ele>
        <time>2021-04-23T10:07:46.000Z</time>
      </trkpt>
      <trkpt lat="45.16005" lon="5.62049">
        <ele>1185.8</ele>
        <time>2021-04-23T10:07:47.000Z</time>
      </trkpt>
      <trkpt lat="45.16005" lon="5.62049">
        <ele>1185.8</ele>
        <time>2021-04-23T10:07:48.000Z</time>
      </trkpt>
      <trkpt lat="45.16005" lon="5.62049">
        <ele>1186</ele>
        <time>2021-04-23T10:07:49.000Z</time>
      </trkpt>
      <trkpt lat="45.16006" lon="5.62048">
        <ele>1186</ele>
        <time>2021-04-23T10:07:50.000Z</time>
      </trkpt>
      <trkpt lat="45.16006" lon="5.62047">
        <ele>1186</ele>
        <time>2021-04-23T10:07:51.000Z</time>
      </trkpt>
      <trkpt lat="45.16004" lon="5.62046">
        <ele>1185.6</ele>
        <time>2021-04-23T10:07:55.000Z</time>
      </trkpt>
      <trkpt lat="45.16003" lon="5.62042">
        <ele>1185.4</ele>
        <time>2021-04-23T10:07:58.000Z</time>
      </trkpt>
      <trkpt lat="45.16003" lon="5.62026">
        <ele>1185.2</ele>
        <time>2021-04-23T10:08:03.000Z</time>
      </trkpt>
      <trkpt lat="45.16001" lon="5.62023">
        <ele>1185.4</ele>
        <time>2021-04-23T10:08:04.000Z</time>
      </trkpt>
      <trkpt lat="45.15998" lon="5.62023">
        <ele>1185.4</ele>
        <time>2021-04-23T10:08:05.000Z</time>
      </trkpt>
      <trkpt lat="45.15995" lon="5.62023">
        <ele>1185.4</ele>
        <time>2021-04-23T10:08:06.000Z</time>
      </trkpt>
      <trkpt lat="45.15994" lon="5.62022">
        <ele>1185.4</ele>
        <time>2021-04-23T10:08:07.000Z</time>
      </trkpt>
      <trkpt lat="45.15994" lon="5.6202">
        <ele>1185.4</ele>
        <time>2021-04-23T10:08:08.000Z</time>
      </trkpt>
      <trkpt lat="45.15995" lon="5.62016">
        <ele>1185.4</ele>
        <time>2021-04-23T10:08:09.000Z</time>
      </trkpt>
      <trkpt lat="45.15998" lon="5.62006">
        <ele>1185</ele>
        <time>2021-04-23T10:08:12.000Z</time>
      </trkpt>
      <trkpt lat="45.16" lon="5.62004">
        <ele>1184.4</ele>
        <time>2021-04-23T10:08:14.000Z</time>
      </trkpt>
      <trkpt lat="45.16" lon="5.62003">
        <ele>1184</ele>
        <time>2021-04-23T10:08:15.000Z</time>
      </trkpt>
      <trkpt lat="45.15999" lon="5.62002">
        <ele>1183.8</ele>
        <time>2021-04-23T10:08:16.000Z</time>
      </trkpt>
      <trkpt lat="45.15999" lon="5.61999">
        <ele>1183.4</ele>
        <time>2021-04-23T10:08:17.000Z</time>
      </trkpt>
      <trkpt lat="45.16" lon="5.61997">
        <ele>1183.2</ele>
        <time>2021-04-23T10:08:18.000Z</time>
      </trkpt>
      <trkpt lat="45.15999" lon="5.61996">
        <ele>1183</ele>
        <time>2021-04-23T10:08:19.000Z</time>
      </trkpt>
      <trkpt lat="45.15999" lon="5.61993">
        <ele>1182.6</ele>
        <time>2021-04-23T10:08:20.000Z</time>
      </trkpt>
      <trkpt lat="45.16" lon="5.61991">
        <ele>1182.4</ele>
        <time>2021-04-23T10:08:21.000Z</time>
      </trkpt>
      <trkpt lat="45.16" lon="5.6199">
        <ele>1182</ele>
        <time>2021-04-23T10:08:22.000Z</time>
      </trkpt>
      <trkpt lat="45.16001" lon="5.61987">
        <ele>1181.6</ele>
        <time>2021-04-23T10:08:23.000Z</time>
      </trkpt>
      <trkpt lat="45.16001" lon="5.61984">
        <ele>1181.4</ele>
        <time>2021-04-23T10:08:24.000Z</time>
      </trkpt>
      <trkpt lat="45.16" lon="5.61981">
        <ele>1181.4</ele>
        <time>2021-04-23T10:08:25.000Z</time>
      </trkpt>
      <trkpt lat="45.15999" lon="5.61977">
        <ele>1181</ele>
        <time>2021-04-23T10:08:27.000Z</time>
      </trkpt>
      <trkpt lat="45.15999" lon="5.61976">
        <ele>1180.8</ele>
        <time>2021-04-23T10:08:28.000Z</time>
      </trkpt>
      <trkpt lat="45.16" lon="5.61975">
        <ele>1180.6</ele>
        <time>2021-04-23T10:08:29.000Z</time>
      </trkpt>
      <trkpt lat="45.16001" lon="5.61975">
        <ele>1180.6</ele>
        <time>2021-04-23T10:08:30.000Z</time>
      </trkpt>
      <trkpt lat="45.16001" lon="5.61975">
        <ele>1180.4</ele>
        <time>2021-04-23T10:08:31.000Z</time>
      </trkpt>
      <trkpt lat="45.16002" lon="5.61974">
        <ele>1180.4</ele>
        <time>2021-04-23T10:08:32.000Z</time>
      </trkpt>
      <trkpt lat="45.16003" lon="5.6197">
        <ele>1179.8</ele>
        <time>2021-04-23T10:08:33.000Z</time>
      </trkpt>
      <trkpt lat="45.16004" lon="5.61966">
        <ele>1179.4</ele>
        <time>2021-04-23T10:08:34.000Z</time>
      </trkpt>
      <trkpt lat="45.16005" lon="5.61963">
        <ele>1178.8</ele>
        <time>2021-04-23T10:08:35.000Z</time>
      </trkpt>
      <trkpt lat="45.16006" lon="5.6196">
        <ele>1178.2</ele>
        <time>2021-04-23T10:08:36.000Z</time>
      </trkpt>
      <trkpt lat="45.16006" lon="5.61957">
        <ele>1177.8</ele>
        <time>2021-04-23T10:08:37.000Z</time>
      </trkpt>
      <trkpt lat="45.16005" lon="5.6195">
        <ele>1177.4</ele>
        <time>2021-04-23T10:08:38.000Z</time>
      </trkpt>
      <trkpt lat="45.16004" lon="5.6194">
        <ele>1177.2</ele>
        <time>2021-04-23T10:08:40.000Z</time>
      </trkpt>
      <trkpt lat="45.16006" lon="5.61934">
        <ele>1177.2</ele>
        <time>2021-04-23T10:08:41.000Z</time>
      </trkpt>
      <trkpt lat="45.16009" lon="5.61926">
        <ele>1177.2</ele>
        <time>2021-04-23T10:08:42.000Z</time>
      </trkpt>
      <trkpt lat="45.16011" lon="5.61921">
        <ele>1177</ele>
        <time>2021-04-23T10:08:43.000Z</time>
      </trkpt>
      <trkpt lat="45.16014" lon="5.61916">
        <ele>1176.6</ele>
        <time>2021-04-23T10:08:44.000Z</time>
      </trkpt>
      <trkpt lat="45.16018" lon="5.6191">
        <ele>1176</ele>
        <time>2021-04-23T10:08:45.000Z</time>
      </trkpt>
      <trkpt lat="45.16022" lon="5.61906">
        <ele>1175.6</ele>
        <time>2021-04-23T10:08:46.000Z</time>
      </trkpt>
      <trkpt lat="45.16026" lon="5.61903">
        <ele>1174.8</ele>
        <time>2021-04-23T10:08:47.000Z</time>
      </trkpt>
      <trkpt lat="45.1603" lon="5.61898">
        <ele>1174.2</ele>
        <time>2021-04-23T10:08:48.000Z</time>
      </trkpt>
      <trkpt lat="45.16034" lon="5.61894">
        <ele>1173.6</ele>
        <time>2021-04-23T10:08:49.000Z</time>
      </trkpt>
      <trkpt lat="45.16037" lon="5.61892">
        <ele>1172.8</ele>
        <time>2021-04-23T10:08:50.000Z</time>
      </trkpt>
      <trkpt lat="45.16042" lon="5.61891">
        <ele>1172.4</ele>
        <time>2021-04-23T10:08:51.000Z</time>
      </trkpt>
      <trkpt lat="45.16047" lon="5.61889">
        <ele>1172.2</ele>
        <time>2021-04-23T10:08:52.000Z</time>
      </trkpt>
      <trkpt lat="45.16055" lon="5.61881">
        <ele>1172</ele>
        <time>2021-04-23T10:08:54.000Z</time>
      </trkpt>
      <trkpt lat="45.16069" lon="5.61837">
        <ele>1160.2</ele>
      </trkpt>
      <trkpt lat="45.16071" lon="5.61812">
        <ele>1157.7</ele>
      </trkpt>
      <trkpt lat="45.16066" lon="5.61782">
        <ele>1154.2</ele>
      </trkpt>
      <trkpt lat="45.16012" lon="5.61766">
        <ele>1150.9</ele>
      </trkpt>
      <trkpt lat="45.15958" lon="5.61781">
        <ele>1149</ele>
      </trkpt>
      <trkpt lat="45.15859" lon="5.61814">
        <ele>1139.2</ele>
      </trkpt>
      <trkpt lat="45.158" lon="5.61951">
        <ele>1154.4</ele>
      </trkpt>
      <trkpt lat="45.1575" lon="5.61932">
        <ele>1141.7</ele>
      </trkpt>
      <trkpt lat="45.15699" lon="5.61936">
        <ele>1141.8</ele>
      </trkpt>
      <trkpt lat="45.15628" lon="5.61911">
        <ele>1134.8</ele>
      </trkpt>
      <trkpt lat="45.1561" lon="5.61897">
        <ele>1133.6</ele>
      </trkpt>
      <trkpt lat="45.15494" lon="5.61931">
        <ele>1124.2</ele>
      </trkpt>
      <trkpt lat="45.15472" lon="5.61941">
        <ele>1122.5</ele>
      </trkpt>
      <trkpt lat="45.15415" lon="5.61928">
        <ele>1115.2</ele>
      </trkpt>
      <trkpt lat="45.15381" lon="5.61893">
        <ele>1108.4</ele>
      </trkpt>
      <trkpt lat="45.15313" lon="5.61861">
        <ele>1100</ele>
      </trkpt>
      <trkpt lat="45.15074" lon="5.61945">
        <ele>1082</ele>
      </trkpt>
      <trkpt lat="45.15028" lon="5.6198">
        <ele>1084.9</ele>
      </trkpt>
      <trkpt lat="45.14922" lon="5.61967">
        <ele>1068.4</ele>
      </trkpt>
      <trkpt lat="45.14787" lon="5.61993">
        <ele>1062.7</ele>
      </trkpt>
      <trkpt lat="45.14745" lon="5.62004">
        <ele>1063.7</ele>
      </trkpt>
      <trkpt lat="45.14682" lon="5.61962">
        <ele>1056.3</ele>
      </trkpt>
      <trkpt lat="45.14567" lon="5.61938">
        <ele>1062.1</ele>
      </trkpt>
      <trkpt lat="45.14516" lon="5.61833">
        <ele>1059.8</ele>
      </trkpt>
      <trkpt lat="45.14527" lon="5.61775">
        <ele>1055.3</ele>
      </trkpt>
      <trkpt lat="45.1452" lon="5.61665">
        <ele>1052.8</ele>
      </trkpt>
      <trkpt lat="45.14451" lon="5.61446">
        <ele>1063.7</ele>
      </trkpt>
      <trkpt lat="45.14488" lon="5.61377">
        <ele>1062.6</ele>
      </trkpt>
      <trkpt lat="45.14569" lon="5.61233">
        <ele>1071.2</ele>
      </trkpt>
      <trkpt lat="45.14591" lon="5.61127">
        <ele>1081.9</ele>
      </trkpt>
      <trkpt lat="45.14628" lon="5.61099">
        <ele>1075</ele>
      </trkpt>
      <trkpt lat="45.14612" lon="5.61063">
        <ele>1078.2</ele>
      </trkpt>
      <trkpt lat="45.14503" lon="5.61041">
        <ele>1095.9</ele>
      </trkpt>
      <trkpt lat="45.14462" lon="5.61011">
        <ele>1099.2</ele>
      </trkpt>
      <trkpt lat="45.14397" lon="5.61022">
        <ele>1116.1</ele>
      </trkpt>
      <trkpt lat="45.14397" lon="5.61">
        <ele>1111.7</ele>
      </trkpt>
      <trkpt lat="45.14422" lon="5.60912">
        <ele>1117.8</ele>
      </trkpt>
      <trkpt lat="45.14523" lon="5.60818">
        <ele>1109.9</ele>
      </trkpt>
      <trkpt lat="45.14526" lon="5.60802">
        <ele>1109.8</ele>
      </trkpt>
      <trkpt lat="45.14547" lon="5.60765">
        <ele>1111.9</ele>
      </trkpt>
      <trkpt lat="45.14541" lon="5.60751">
        <ele>1112.4</ele>
      </trkpt>
      <trkpt lat="45.14404" lon="5.6067">
        <ele>1104</ele>
      </trkpt>
      <trkpt lat="45.14358" lon="5.60661">
        <ele>1099.3</ele>
      </trkpt>
      <trkpt lat="45.1429" lon="5.60699">
        <ele>1105.5</ele>
      </trkpt>
      <trkpt lat="45.14182" lon="5.60707">
        <ele>1108.2</ele>
      </trkpt>
      <trkpt lat="45.14166" lon="5.60679">
        <ele>1101.8</ele>
      </trkpt>
      <trkpt lat="45.14159" lon="5.60634">
        <ele>1095.3</ele>
      </trkpt>
      <trkpt lat="45.14172" lon="5.60573">
        <ele>1085.4</ele>
      </trkpt>
      <trkpt lat="45.14125" lon="5.60456">
        <ele>1078.2</ele>
      </trkpt>
      <trkpt lat="45.14077" lon="5.60399">
        <ele>1072.1</ele>
      </trkpt>
      <trkpt lat="45.14016" lon="5.60307">
        <ele>1061.2</ele>
      </trkpt>
      <trkpt lat="45.13939" lon="5.60131">
        <ele>1047.8</ele>
      </trkpt>
      <trkpt lat="45.13797" lon="5.60074">
        <ele>1025.6</ele>
      </trkpt>
      <trkpt lat="45.13716" lon="5.60055">
        <ele>1021.2</ele>
      </trkpt>
      <trkpt lat="45.1365" lon="5.59938">
        <ele>1022.8</ele>
      </trkpt>
      <trkpt lat="45.13613" lon="5.59901">
        <ele>1027.6</ele>
      </trkpt>
      <trkpt lat="45.13601" lon="5.5985">
        <ele>1028</ele>
      </trkpt>
      <trkpt lat="45.13432" lon="5.59698">
        <ele>1020.9</ele>
      </trkpt>
      <trkpt lat="45.13331" lon="5.59681">
        <ele>1017.3</ele>
      </trkpt>
      <trkpt lat="45.13316" lon="5.59657">
        <ele>1017.8</ele>
      </trkpt>
      <trkpt lat="45.13217" lon="5.59557">
        <ele>1023.9</ele>
      </trkpt>
      <trkpt lat="45.13024" lon="5.59534">
        <ele>1019.9</ele>
      </trkpt>
      <trkpt lat="45.12906" lon="5.59486">
        <ele>1022</ele>
      </trkpt>
      <trkpt lat="45.12966" lon="5.59317">
        <ele>1015.2</ele>
      </trkpt>
      <trkpt lat="45.12956" lon="5.5927">
        <ele>1011.7</ele>
      </trkpt>
      <trkpt lat="45.12928" lon="5.59302">
        <ele>1009.9</ele>
      </trkpt>
      <trkpt lat="45.12904" lon="5.59273">
        <ele>1008.9</ele>
      </trkpt>
      <trkpt lat="45.12883" lon="5.59216">
        <ele>1013.3</ele>
      </trkpt>
      <trkpt lat="45.1288" lon="5.59162">
        <ele>1015.4</ele>
      </trkpt>
      <trkpt lat="45.12806" lon="5.59066">
        <ele>1019.3</ele>
      </trkpt>
      <trkpt lat="45.12794" lon="5.59052">
        <ele>1019.6</ele>
      </trkpt>
      <trkpt lat="45.12814" lon="5.58891">
        <ele>1016.9</ele>
      </trkpt>
      <trkpt lat="45.1273" lon="5.58909">
        <ele>1019.6</ele>
      </trkpt>
      <trkpt lat="45.12635" lon="5.5899">
        <ele>1019.8</ele>
      </trkpt>
      <trkpt lat="45.12432" lon="5.59062">
        <ele>1013.3</ele>
      </trkpt>
      <trkpt lat="45.12388" lon="5.5907">
        <ele>1012.9</ele>
      </trkpt>
      <trkpt lat="45.12358" lon="5.59058">
        <ele>1018.2</ele>
        <time>2018-04-18T12:57:15Z</time>
      </trkpt>
      <trkpt lat="45.12321" lon="5.59028">
        <ele>1020.9</ele>
        <time>2018-04-18T12:57:25Z</time>
      </trkpt>
      <trkpt lat="45.12301" lon="5.59004">
        <ele>1022.7</ele>
        <time>2018-04-18T12:57:31Z</time>
      </trkpt>
      <trkpt lat="45.12267" lon="5.5895">
        <ele>1024.5</ele>
        <time>2018-04-18T12:57:43Z</time>
      </trkpt>
      <trkpt lat="45.12259" lon="5.58936">
        <ele>1024.4</ele>
        <time>2018-04-18T12:57:46Z</time>
      </trkpt>
      <trkpt lat="45.12227" lon="5.58878">
        <ele>1023.8</ele>
        <time>2018-04-18T12:57:58Z</time>
      </trkpt>
      <trkpt lat="45.12202" lon="5.58832">
        <ele>1022.9</ele>
        <time>2018-04-18T12:58:08Z</time>
      </trkpt>
      <trkpt lat="45.1218" lon="5.588">
        <ele>1022.2</ele>
        <time>2018-04-18T12:58:16Z</time>
      </trkpt>
      <trkpt lat="45.12156" lon="5.58775">
        <ele>1022.1</ele>
        <time>2018-04-18T12:58:24Z</time>
      </trkpt>
      <trkpt lat="45.12117" lon="5.58754">
        <ele>1022.1</ele>
        <time>2018-04-18T12:58:35Z</time>
      </trkpt>
      <trkpt lat="45.12073" lon="5.58742">
        <ele>1022.4</ele>
        <time>2018-04-18T12:58:46Z</time>
      </trkpt>
      <trkpt lat="45.12069" lon="5.58742">
        <ele>1022.5</ele>
        <time>2018-04-18T12:58:47Z</time>
      </trkpt>
      <trkpt lat="45.1204" lon="5.58741">
        <ele>1022.8</ele>
        <time>2018-04-18T12:58:55Z</time>
      </trkpt>
      <trkpt lat="45.12017" lon="5.58741">
        <ele>1023.3</ele>
        <time>2018-04-18T12:59:03Z</time>
      </trkpt>
      <trkpt lat="45.11993" lon="5.58742">
        <ele>1024.2</ele>
        <time>2018-04-18T12:59:11Z</time>
      </trkpt>
      <trkpt lat="45.11971" lon="5.58742">
        <ele>1025.2</ele>
        <time>2018-04-18T12:59:18Z</time>
      </trkpt>
      <trkpt lat="45.11954" lon="5.5873">
        <ele>1025.9</ele>
        <time>2018-04-18T12:59:24Z</time>
      </trkpt>
      <trkpt lat="45.11945" lon="5.58705">
        <ele>1025.7</ele>
        <time>2018-04-18T12:59:30Z</time>
      </trkpt>
      <trkpt lat="45.11938" lon="5.58669">
        <ele>1025.6</ele>
        <time>2018-04-18T12:59:37Z</time>
      </trkpt>
      <trkpt lat="45.11938" lon="5.58634">
        <ele>1025.5</ele>
        <time>2018-04-18T12:59:44Z</time>
      </trkpt>
      <trkpt lat="45.11939" lon="5.58594">
        <ele>1025.5</ele>
        <time>2018-04-18T12:59:53Z</time>
      </trkpt>
      <trkpt lat="45.11934" lon="5.58568">
        <ele>1025.5</ele>
        <time>2018-04-18T13:00:00Z</time>
      </trkpt>
      <trkpt lat="45.11927" lon="5.58543">
        <ele>1025.2</ele>
        <time>2018-04-18T13:00:07Z</time>
      </trkpt>
      <trkpt lat="45.1191" lon="5.58472">
        <ele>1023.4</ele>
        <time>2018-04-18T13:01:30Z</time>
      </trkpt>
      <trkpt lat="45.11909" lon="5.5846">
        <ele>1022.7</ele>
        <time>2018-04-18T13:01:32Z</time>
      </trkpt>
      <trkpt lat="45.11915" lon="5.58438">
        <ele>1021.9</ele>
        <time>2018-04-18T13:01:35Z</time>
      </trkpt>
      <trkpt lat="45.11934" lon="5.58397">
        <ele>1020.7</ele>
        <time>2018-04-18T13:01:40Z</time>
      </trkpt>
      <trkpt lat="45.11944" lon="5.58377">
        <ele>1019.6</ele>
        <time>2018-04-18T13:01:42Z</time>
      </trkpt>
      <trkpt lat="45.1196" lon="5.58342">
        <ele>1017.1</ele>
        <time>2018-04-18T13:01:45Z</time>
      </trkpt>
      <trkpt lat="45.11977" lon="5.58303">
        <ele>1014.1</ele>
        <time>2018-04-18T13:01:48Z</time>
      </trkpt>
      <trkpt lat="45.11995" lon="5.5826">
        <ele>1010.8</ele>
        <time>2018-04-18T13:01:51Z</time>
      </trkpt>
      <trkpt lat="45.12003" lon="5.58194">
        <ele>1008.1</ele>
        <time>2018-04-18T13:01:55Z</time>
      </trkpt>
      <trkpt lat="45.12001" lon="5.58145">
        <ele>1006.5</ele>
        <time>2018-04-18T13:01:58Z</time>
      </trkpt>
      <trkpt lat="45.12012" lon="5.58062">
        <ele>1003.8</ele>
        <time>2018-04-18T13:02:04Z</time>
      </trkpt>
      <trkpt lat="45.1202" lon="5.5803">
        <ele>1002.6</ele>
        <time>2018-04-18T13:02:07Z</time>
      </trkpt>
      <trkpt lat="45.12013" lon="5.58009">
        <ele>1002.1</ele>
        <time>2018-04-18T13:02:11Z</time>
      </trkpt>
      <trkpt lat="45.11966" lon="5.5798">
        <ele>1001.8</ele>
        <time>2018-04-18T13:02:23Z</time>
      </trkpt>
      <trkpt lat="45.11918" lon="5.57946">
        <ele>1001.3</ele>
        <time>2018-04-18T13:02:35Z</time>
      </trkpt>
      <trkpt lat="45.11886" lon="5.57923">
        <ele>1001.5</ele>
        <time>2018-04-18T13:02:43Z</time>
      </trkpt>
      <trkpt lat="45.11827" lon="5.57883">
        <ele>1001.3</ele>
        <time>2018-04-18T13:02:57Z</time>
      </trkpt>
      <trkpt lat="45.11771" lon="5.57843">
        <ele>1000.6</ele>
        <time>2018-04-18T13:03:10Z</time>
      </trkpt>
      <trkpt lat="45.11718" lon="5.57804">
        <ele>998</ele>
        <time>2018-04-18T13:03:22Z</time>
      </trkpt>
      <trkpt lat="45.11667" lon="5.5777">
        <ele>996</ele>
        <time>2018-04-18T13:03:33Z</time>
      </trkpt>
      <trkpt lat="45.11608" lon="5.57727">
        <ele>996.1</ele>
        <time>2018-04-18T13:03:45Z</time>
      </trkpt>
      <trkpt lat="45.11547" lon="5.57687">
        <ele>996</ele>
        <time>2018-04-18T13:03:57Z</time>
      </trkpt>
      <trkpt lat="45.1149" lon="5.57646">
        <ele>994.8</ele>
        <time>2018-04-18T13:04:08Z</time>
      </trkpt>
      <trkpt lat="45.1144" lon="5.57609">
        <ele>994</ele>
        <time>2018-04-18T13:04:18Z</time>
      </trkpt>
      <trkpt lat="45.11387" lon="5.57574">
        <ele>994</ele>
        <time>2018-04-18T13:04:28Z</time>
      </trkpt>
      <trkpt lat="45.11336" lon="5.5754">
        <ele>994</ele>
        <time>2018-04-18T13:04:38Z</time>
      </trkpt>
      <trkpt lat="45.11279" lon="5.57499">
        <ele>994</ele>
        <time>2018-04-18T13:04:49Z</time>
      </trkpt>
      <trkpt lat="45.11214" lon="5.57456">
        <ele>993</ele>
        <time>2018-04-18T13:05:01Z</time>
      </trkpt>
      <trkpt lat="45.11157" lon="5.57416">
        <ele>993</ele>
        <time>2018-04-18T13:05:12Z</time>
      </trkpt>
      <trkpt lat="45.11115" lon="5.57379">
        <ele>993</ele>
        <time>2018-04-18T13:05:21Z</time>
      </trkpt>
      <trkpt lat="45.11074" lon="5.57334">
        <ele>993</ele>
        <time>2018-04-18T13:05:30Z</time>
      </trkpt>
      <trkpt lat="45.11019" lon="5.57271">
        <ele>992</ele>
        <time>2018-04-18T13:05:42Z</time>
      </trkpt>
      <trkpt lat="45.10963" lon="5.57204">
        <ele>992</ele>
        <time>2018-04-18T13:05:55Z</time>
      </trkpt>
      <trkpt lat="45.10916" lon="5.57153">
        <ele>991.7</ele>
        <time>2018-04-18T13:06:06Z</time>
      </trkpt>
      <trkpt lat="45.10894" lon="5.57128">
        <ele>991.7</ele>
        <time>2018-04-18T13:06:12Z</time>
      </trkpt>
      <trkpt lat="45.10848" lon="5.57073">
        <ele>991.5</ele>
        <time>2018-04-18T13:06:24Z</time>
      </trkpt>
      <trkpt lat="45.10801" lon="5.57019">
        <ele>991.2</ele>
        <time>2018-04-18T13:06:36Z</time>
      </trkpt>
      <trkpt lat="45.10753" lon="5.56964">
        <ele>990.9</ele>
        <time>2018-04-18T13:06:48Z</time>
      </trkpt>
      <trkpt lat="45.10714" lon="5.5692">
        <ele>991</ele>
        <time>2018-04-18T13:06:58Z</time>
      </trkpt>
      <trkpt lat="45.1066" lon="5.56859">
        <ele>990</ele>
        <time>2018-04-18T13:07:12Z</time>
      </trkpt>
      <trkpt lat="45.10614" lon="5.56806">
        <ele>989</ele>
        <time>2018-04-18T13:07:24Z</time>
      </trkpt>
      <trkpt lat="45.1057" lon="5.56758">
        <ele>989.8</ele>
        <time>2018-04-18T13:07:35Z</time>
      </trkpt>
      <trkpt lat="45.10539" lon="5.56722">
        <ele>990.6</ele>
        <time>2018-04-18T13:07:43Z</time>
      </trkpt>
      <trkpt lat="45.10507" lon="5.56686">
        <ele>990.7</ele>
        <time>2018-04-18T13:07:51Z</time>
      </trkpt>
      <trkpt lat="45.10462" lon="5.56637">
        <ele>990.1</ele>
        <time>2018-04-18T13:08:02Z</time>
      </trkpt>
      <trkpt lat="45.10454" lon="5.56629">
        <ele>989.9</ele>
        <time>2018-04-18T13:08:04Z</time>
      </trkpt>
      <trkpt lat="45.10418" lon="5.56596">
        <ele>989.6</ele>
        <time>2018-04-18T13:08:13Z</time>
      </trkpt>
      <trkpt lat="45.10376" lon="5.56559">
        <ele>989</ele>
        <time>2018-04-18T13:08:22Z</time>
      </trkpt>
      <trkpt lat="45.10329" lon="5.56516">
        <ele>989.2</ele>
        <time>2018-04-18T13:08:33Z</time>
      </trkpt>
      <trkpt lat="45.10287" lon="5.56477">
        <ele>990.6</ele>
        <time>2018-04-18T13:08:44Z</time>
      </trkpt>
      <trkpt lat="45.10279" lon="5.5647">
        <ele>991</ele>
        <time>2018-04-18T13:08:46Z</time>
      </trkpt>
      <trkpt lat="45.10243" lon="5.5644">
        <ele>991.4</ele>
        <time>2018-04-18T13:08:55Z</time>
      </trkpt>
      <trkpt lat="45.10204" lon="5.56407">
        <ele>990.9</ele>
        <time>2018-04-18T13:09:04Z</time>
      </trkpt>
      <trkpt lat="45.10164" lon="5.5637">
        <ele>989.3</ele>
        <time>2018-04-18T13:09:13Z</time>
      </trkpt>
      <trkpt lat="45.10159" lon="5.56366">
        <ele>988.9</ele>
        <time>2018-04-18T13:09:14Z</time>
      </trkpt>
      <trkpt lat="45.10109" lon="5.5632">
        <ele>986.7</ele>
        <time>2018-04-18T13:09:24Z</time>
      </trkpt>
      <trkpt lat="45.10067" lon="5.56283">
        <ele>986</ele>
        <time>2018-04-18T13:09:33Z</time>
      </trkpt>
      <trkpt lat="45.10005" lon="5.56228">
        <ele>985</ele>
        <time>2018-04-18T13:09:46Z</time>
      </trkpt>
      <trkpt lat="45.09958" lon="5.56186">
        <ele>984.4</ele>
        <time>2018-04-18T13:09:56Z</time>
      </trkpt>
      <trkpt lat="45.0989" lon="5.56126">
        <ele>984</ele>
        <time>2018-04-18T13:10:10Z</time>
      </trkpt>
      <trkpt lat="45.09838" lon="5.5608">
        <ele>984</ele>
        <time>2018-04-18T13:10:21Z</time>
      </trkpt>
      <trkpt lat="45.09802" lon="5.56048">
        <ele>982.9</ele>
        <time>2018-04-18T13:10:29Z</time>
      </trkpt>
      <trkpt lat="45.09749" lon="5.56001">
        <ele>982</ele>
        <time>2018-04-18T13:10:41Z</time>
      </trkpt>
      <trkpt lat="45.09696" lon="5.55953">
        <ele>981.5</ele>
        <time>2018-04-18T13:10:53Z</time>
      </trkpt>
      <trkpt lat="45.09645" lon="5.55908">
        <ele>981.7</ele>
        <time>2018-04-18T13:11:04Z</time>
      </trkpt>
      <trkpt lat="45.0964" lon="5.55905">
        <ele>981.6</ele>
        <time>2018-04-18T13:11:05Z</time>
      </trkpt>
      <trkpt lat="45.09624" lon="5.55906">
        <ele>982.3</ele>
        <time>2018-04-18T13:11:09Z</time>
      </trkpt>
      <trkpt lat="45.09614" lon="5.55926">
        <ele>983.5</ele>
        <time>2018-04-18T13:11:14Z</time>
      </trkpt>
      <trkpt lat="45.09603" lon="5.55935">
        <ele>984.6</ele>
        <time>2018-04-18T13:11:21Z</time>
      </trkpt>
      <trkpt lat="45.09592" lon="5.55936">
        <ele>985.5</ele>
        <time>2018-04-18T13:11:26Z</time>
      </trkpt>
      <trkpt lat="45.09574" lon="5.5594">
        <ele>987.3</ele>
        <time>2018-04-18T13:11:36Z</time>
      </trkpt>
      <trkpt lat="45.09555" lon="5.55945">
        <ele>989.4</ele>
        <time>2018-04-18T13:11:48Z</time>
      </trkpt>
      <trkpt lat="45.09549" lon="5.55947">
        <ele>989.9</ele>
        <time>2018-04-18T13:11:51Z</time>
      </trkpt>
      <trkpt lat="45.09538" lon="5.55959">
        <ele>991.2</ele>
        <time>2018-04-18T13:12:01Z</time>
      </trkpt>
      <trkpt lat="45.0953" lon="5.55975">
        <ele>992</ele>
        <time>2018-04-18T13:12:11Z</time>
      </trkpt>
      <trkpt lat="45.09525" lon="5.55993">
        <ele>992.2</ele>
        <time>2018-04-18T13:12:20Z</time>
      </trkpt>
      <trkpt lat="45.09519" lon="5.56014">
        <ele>992.8</ele>
        <time>2018-04-18T13:12:30Z</time>
      </trkpt>
      <trkpt lat="45.09513" lon="5.56038">
        <ele>993</ele>
        <time>2018-04-18T13:12:42Z</time>
      </trkpt>
      <trkpt lat="45.09508" lon="5.56054">
        <ele>993.1</ele>
        <time>2018-04-18T13:12:52Z</time>
      </trkpt>
      <trkpt lat="45.09501" lon="5.56068">
        <ele>993.6</ele>
        <time>2018-04-18T13:13:00Z</time>
      </trkpt>
      <trkpt lat="45.09491" lon="5.56081">
        <ele>994.1</ele>
        <time>2018-04-18T13:13:09Z</time>
      </trkpt>
      <trkpt lat="45.09479" lon="5.56094">
        <ele>994.5</ele>
        <time>2018-04-18T13:13:18Z</time>
      </trkpt>
      <trkpt lat="45.09461" lon="5.5611">
        <ele>995.2</ele>
        <time>2018-04-18T13:13:31Z</time>
      </trkpt>
      <trkpt lat="45.09448" lon="5.5612">
        <ele>995.5</ele>
        <time>2018-04-18T13:13:40Z</time>
      </trkpt>
      <trkpt lat="45.09435" lon="5.56134">
        <ele>996.1</ele>
        <time>2018-04-18T13:13:50Z</time>
      </trkpt>
      <trkpt lat="45.09423" lon="5.56147">
        <ele>996.9</ele>
        <time>2018-04-18T13:13:58Z</time>
      </trkpt>
      <trkpt lat="45.09405" lon="5.5617">
        <ele>998.3</ele>
        <time>2018-04-18T13:14:09Z</time>
      </trkpt>
      <trkpt lat="45.09391" lon="5.56188">
        <ele>999</ele>
        <time>2018-04-18T13:14:18Z</time>
      </trkpt>
      <trkpt lat="45.09377" lon="5.56211">
        <ele>999.8</ele>
        <time>2018-04-18T13:14:28Z</time>
      </trkpt>
      <trkpt lat="45.09363" lon="5.56235">
        <ele>1000.6</ele>
        <time>2018-04-18T13:14:39Z</time>
      </trkpt>
      <trkpt lat="45.09352" lon="5.56263">
        <ele>1001.2</ele>
        <time>2018-04-18T13:14:51Z</time>
      </trkpt>
      <trkpt lat="45.09343" lon="5.56284">
        <ele>1001.6</ele>
        <time>2018-04-18T13:15:00Z</time>
      </trkpt>
      <trkpt lat="45.0933" lon="5.56313">
        <ele>1002.3</ele>
        <time>2018-04-18T13:15:13Z</time>
      </trkpt>
      <trkpt lat="45.09323" lon="5.56334">
        <ele>1002.8</ele>
        <time>2018-04-18T13:15:22Z</time>
      </trkpt>
      <trkpt lat="45.0932" lon="5.56353">
        <ele>1003.3</ele>
        <time>2018-04-18T13:15:31Z</time>
      </trkpt>
      <trkpt lat="45.09319" lon="5.56355">
        <ele>1003.4</ele>
        <time>2018-04-18T13:15:32Z</time>
      </trkpt>
      <trkpt lat="45.09314" lon="5.5637">
        <ele>1004.1</ele>
        <time>2018-04-18T13:15:40Z</time>
      </trkpt>
      <trkpt lat="45.09307" lon="5.5638">
        <ele>1004.8</ele>
        <time>2018-04-18T13:15:47Z</time>
      </trkpt>
      <trkpt lat="45.09299" lon="5.56394">
        <ele>1005.2</ele>
        <time>2018-04-18T13:15:55Z</time>
      </trkpt>
      <trkpt lat="45.09291" lon="5.56406">
        <ele>1005.7</ele>
        <time>2018-04-18T13:16:03Z</time>
      </trkpt>
      <trkpt lat="45.09284" lon="5.5642">
        <ele>1006.7</ele>
        <time>2018-04-18T13:16:11Z</time>
      </trkpt>
      <trkpt lat="45.09276" lon="5.56435">
        <ele>1007.4</ele>
        <time>2018-04-18T13:16:19Z</time>
      </trkpt>
      <trkpt lat="45.09267" lon="5.56457">
        <ele>1008.3</ele>
        <time>2018-04-18T13:16:28Z</time>
      </trkpt>
      <trkpt lat="45.09264" lon="5.56474">
        <ele>1009.5</ele>
        <time>2018-04-18T13:16:35Z</time>
      </trkpt>
      <trkpt lat="45.09256" lon="5.56493">
        <ele>1010.9</ele>
        <time>2018-04-18T13:16:43Z</time>
      </trkpt>
      <trkpt lat="45.09246" lon="5.56515">
        <ele>1012.7</ele>
        <time>2018-04-18T13:16:51Z</time>
      </trkpt>
      <trkpt lat="45.09233" lon="5.56533">
        <ele>1014.5</ele>
        <time>2018-04-18T13:16:59Z</time>
      </trkpt>
      <trkpt lat="45.09219" lon="5.56555">
        <ele>1016.2</ele>
        <time>2018-04-18T13:17:08Z</time>
      </trkpt>
      <trkpt lat="45.09205" lon="5.56573">
        <ele>1017.5</ele>
        <time>2018-04-18T13:17:17Z</time>
      </trkpt>
      <trkpt lat="45.09193" lon="5.56587">
        <ele>1018.7</ele>
        <time>2018-04-18T13:17:24Z</time>
      </trkpt>
      <trkpt lat="45.09177" lon="5.56611">
        <ele>1020.2</ele>
        <time>2018-04-18T13:17:35Z</time>
      </trkpt>
      <trkpt lat="45.09164" lon="5.56627">
        <ele>1020.7</ele>
        <time>2018-04-18T13:17:44Z</time>
      </trkpt>
      <trkpt lat="45.09152" lon="5.56644">
        <ele>1021.6</ele>
        <time>2018-04-18T13:17:53Z</time>
      </trkpt>
      <trkpt lat="45.09142" lon="5.56658">
        <ele>1022.8</ele>
        <time>2018-04-18T13:18:00Z</time>
      </trkpt>
      <trkpt lat="45.09127" lon="5.56676">
        <ele>1022.8</ele>
        <time>2018-04-18T13:18:09Z</time>
      </trkpt>
      <trkpt lat="45.09115" lon="5.56694">
        <ele>1023.2</ele>
        <time>2018-04-18T13:18:18Z</time>
      </trkpt>
      <trkpt lat="45.09098" lon="5.56714">
        <ele>1023.9</ele>
        <time>2018-04-18T13:18:28Z</time>
      </trkpt>
      <trkpt lat="45.09085" lon="5.56727">
        <ele>1024.4</ele>
        <time>2018-04-18T13:18:35Z</time>
      </trkpt>
      <trkpt lat="45.09068" lon="5.56746">
        <ele>1025.1</ele>
        <time>2018-04-18T13:18:45Z</time>
      </trkpt>
      <trkpt lat="45.09053" lon="5.56762">
        <ele>1025.8</ele>
        <time>2018-04-18T13:18:53Z</time>
      </trkpt>
      <trkpt lat="45.09036" lon="5.5678">
        <ele>1026.8</ele>
        <time>2018-04-18T13:19:02Z</time>
      </trkpt>
      <trkpt lat="45.09023" lon="5.568">
        <ele>1027.3</ele>
        <time>2018-04-18T13:19:11Z</time>
      </trkpt>
      <trkpt lat="45.09018" lon="5.56807">
        <ele>1027.7</ele>
        <time>2018-04-18T13:19:14Z</time>
      </trkpt>
      <trkpt lat="45.09005" lon="5.56829">
        <ele>1028.9</ele>
        <time>2018-04-18T13:19:23Z</time>
      </trkpt>
      <trkpt lat="45.08997" lon="5.56835">
        <ele>1029</ele>
        <time>2018-04-18T13:19:27Z</time>
      </trkpt>
      <trkpt lat="45.08977" lon="5.56834">
        <ele>1029</ele>
        <time>2018-04-18T13:19:35Z</time>
      </trkpt>
      <trkpt lat="45.08957" lon="5.56826">
        <ele>1029.6</ele>
        <time>2018-04-18T13:19:44Z</time>
      </trkpt>
      <trkpt lat="45.08952" lon="5.56825">
        <ele>1029.7</ele>
        <time>2018-04-18T13:19:51Z</time>
      </trkpt>
      <trkpt lat="45.08951" lon="5.56827">
        <ele>1029.8</ele>
        <time>2018-04-18T13:20:03Z</time>
      </trkpt>
      <trkpt lat="45.0895" lon="5.56826">
        <ele>1029.9</ele>
        <time>2018-04-18T13:20:18Z</time>
      </trkpt>
      <trkpt lat="45.08949" lon="5.56826">
        <ele>1029.9</ele>
        <time>2018-04-18T13:20:25Z</time>
      </trkpt>
      <trkpt lat="45.08949" lon="5.56828">
        <ele>1029.9</ele>
        <time>2018-04-18T13:20:39Z</time>
      </trkpt>
      <trkpt lat="45.08947" lon="5.56827">
        <ele>1030</ele>
        <time>2018-04-18T13:20:58Z</time>
      </trkpt>
      <trkpt lat="45.08934" lon="5.56824">
        <ele>1029.9</ele>
        <time>2018-04-18T13:21:04Z</time>
      </trkpt>
      <trkpt lat="45.08908" lon="5.56821">
        <ele>1030</ele>
        <time>2018-04-18T13:21:13Z</time>
      </trkpt>
      <trkpt lat="45.08875" lon="5.56821">
        <ele>1030</ele>
        <time>2018-04-18T13:21:23Z</time>
      </trkpt>
      <trkpt lat="45.08843" lon="5.56818">
        <ele>1029.7</ele>
        <time>2018-04-18T13:21:33Z</time>
      </trkpt>
      <trkpt lat="45.08815" lon="5.56821">
        <ele>1029</ele>
        <time>2018-04-18T13:21:42Z</time>
      </trkpt>
      <trkpt lat="45.0879" lon="5.56819">
        <ele>1027.6</ele>
        <time>2018-04-18T13:21:50Z</time>
      </trkpt>
      <trkpt lat="45.08784" lon="5.56817">
        <ele>1027.2</ele>
        <time>2018-04-18T13:21:52Z</time>
      </trkpt>
      <trkpt lat="45.08771" lon="5.56831">
        <ele>1026.8</ele>
        <time>2018-04-18T13:21:57Z</time>
      </trkpt>
      <trkpt lat="45.08754" lon="5.56877">
        <ele>1026.9</ele>
        <time>2018-04-18T13:22:08Z</time>
      </trkpt>
      <trkpt lat="45.0873" lon="5.56918">
        <ele>1025.6</ele>
        <time>2018-04-18T13:22:19Z</time>
      </trkpt>
      <trkpt lat="45.08723" lon="5.56936">
        <ele>1025.7</ele>
        <time>2018-04-18T13:22:23Z</time>
      </trkpt>
      <trkpt lat="45.08712" lon="5.56937">
        <ele>1024.6</ele>
        <time>2018-04-18T13:22:28Z</time>
      </trkpt>
      <trkpt lat="45.0871" lon="5.56939">
        <ele>1024.4</ele>
        <time>2018-04-18T13:22:29Z</time>
      </trkpt>
      <trkpt lat="45.08691" lon="5.56953">
        <ele>1023.1</ele>
        <time>2018-04-18T13:22:33Z</time>
      </trkpt>
      <trkpt lat="45.08685" lon="5.56961">
        <ele>1022.9</ele>
        <time>2018-04-18T13:22:34Z</time>
      </trkpt>
      <trkpt lat="45.08666" lon="5.56988">
        <ele>1022.5</ele>
        <time>2018-04-18T13:22:37Z</time>
      </trkpt>
      <trkpt lat="45.08632" lon="5.57014">
        <ele>1021.4</ele>
        <time>2018-04-18T13:22:41Z</time>
      </trkpt>
      <trkpt lat="45.08595" lon="5.57022">
        <ele>1021</ele>
        <time>2018-04-18T13:22:45Z</time>
      </trkpt>
      <trkpt lat="45.08587" lon="5.57021">
        <ele>1020.9</ele>
        <time>2018-04-18T13:22:46Z</time>
      </trkpt>
      <trkpt lat="45.08542" lon="5.57013">
        <ele>1021.3</ele>
        <time>2018-04-18T13:22:53Z</time>
      </trkpt>
      <trkpt lat="45.08522" lon="5.57001">
        <ele>1022</ele>
        <time>2018-04-18T13:22:57Z</time>
      </trkpt>
      <trkpt lat="45.08494" lon="5.56966">
        <ele>1022.6</ele>
        <time>2018-04-18T13:23:06Z</time>
      </trkpt>
      <trkpt lat="45.08477" lon="5.56943">
        <ele>1023</ele>
        <time>2018-04-18T13:23:14Z</time>
      </trkpt>
      <trkpt lat="45.08465" lon="5.5692">
        <ele>1023.1</ele>
        <time>2018-04-18T13:23:24Z</time>
      </trkpt>
      <trkpt lat="45.0846" lon="5.56899">
        <ele>1023.1</ele>
        <time>2018-04-18T13:23:32Z</time>
      </trkpt>
      <trkpt lat="45.08456" lon="5.56882">
        <ele>1023.4</ele>
        <time>2018-04-18T13:23:40Z</time>
      </trkpt>
      <trkpt lat="45.08453" lon="5.5687">
        <ele>1023.6</ele>
        <time>2018-04-18T13:23:46Z</time>
      </trkpt>
      <trkpt lat="45.08449" lon="5.56857">
        <ele>1023.9</ele>
        <time>2018-04-18T13:23:53Z</time>
      </trkpt>
      <trkpt lat="45.08441" lon="5.56839">
        <ele>1024.4</ele>
        <time>2018-04-18T13:24:02Z</time>
      </trkpt>
      <trkpt lat="45.08428" lon="5.56818">
        <ele>1024.7</ele>
        <time>2018-04-18T13:24:11Z</time>
      </trkpt>
      <trkpt lat="45.08409" lon="5.56808">
        <ele>1025.4</ele>
        <time>2018-04-18T13:24:20Z</time>
      </trkpt>
      <trkpt lat="45.08389" lon="5.56808">
        <ele>1026</ele>
        <time>2018-04-18T13:24:28Z</time>
      </trkpt>
      <trkpt lat="45.08369" lon="5.56813">
        <ele>1026.4</ele>
        <time>2018-04-18T13:24:33Z</time>
      </trkpt>
      <trkpt lat="45.08338" lon="5.56805">
        <ele>1027.1</ele>
        <time>2018-04-18T13:24:37Z</time>
      </trkpt>
      <trkpt lat="45.08326" lon="5.56789">
        <ele>1026.2</ele>
        <time>2018-04-18T13:24:39Z</time>
      </trkpt>
      <trkpt lat="45.08319" lon="5.56771">
        <ele>1024.9</ele>
        <time>2018-04-18T13:24:41Z</time>
      </trkpt>
      <trkpt lat="45.08315" lon="5.5675">
        <ele>1023.6</ele>
        <time>2018-04-18T13:24:43Z</time>
      </trkpt>
      <trkpt lat="45.08297" lon="5.56714">
        <ele>1021.9</ele>
        <time>2018-04-18T13:24:47Z</time>
      </trkpt>
      <trkpt lat="45.0829" lon="5.56706">
        <ele>1021.5</ele>
        <time>2018-04-18T13:24:48Z</time>
      </trkpt>
      <trkpt lat="45.08262" lon="5.56655">
        <ele>1020.7</ele>
        <time>2018-04-18T13:24:55Z</time>
      </trkpt>
      <trkpt lat="45.08245" lon="5.56612">
        <ele>1022.2</ele>
        <time>2018-04-18T13:25:02Z</time>
      </trkpt>
      <trkpt lat="45.08237" lon="5.56587">
        <ele>1022.6</ele>
        <time>2018-04-18T13:25:09Z</time>
      </trkpt>
      <trkpt lat="45.08229" lon="5.56573">
        <ele>1022.9</ele>
        <time>2018-04-18T13:25:15Z</time>
      </trkpt>
      <trkpt lat="45.08215" lon="5.56552">
        <ele>1023.4</ele>
        <time>2018-04-18T13:25:22Z</time>
      </trkpt>
      <trkpt lat="45.08199" lon="5.56527">
        <ele>1023.2</ele>
        <time>2018-04-18T13:25:26Z</time>
      </trkpt>
      <trkpt lat="45.0819" lon="5.56497">
        <ele>1021.8</ele>
        <time>2018-04-18T13:25:29Z</time>
      </trkpt>
      <trkpt lat="45.08194" lon="5.56449">
        <ele>1019.7</ele>
        <time>2018-04-18T13:25:33Z</time>
      </trkpt>
      <trkpt lat="45.082" lon="5.56428">
        <ele>1019.1</ele>
        <time>2018-04-18T13:25:35Z</time>
      </trkpt>
      <trkpt lat="45.08203" lon="5.56381">
        <ele>1018.2</ele>
        <time>2018-04-18T13:25:39Z</time>
      </trkpt>
      <trkpt lat="45.08196" lon="5.56311">
        <ele>1018.1</ele>
        <time>2018-04-18T13:25:46Z</time>
      </trkpt>
      <trkpt lat="45.08194" lon="5.56297">
        <ele>1018.2</ele>
        <time>2018-04-18T13:25:48Z</time>
      </trkpt>
      <trkpt lat="45.08191" lon="5.56275">
        <ele>1019.2</ele>
        <time>2018-04-18T13:25:53Z</time>
      </trkpt>
      <trkpt lat="45.08189" lon="5.56257">
        <ele>1019.8</ele>
        <time>2018-04-18T13:26:00Z</time>
      </trkpt>
      <trkpt lat="45.08189" lon="5.56242">
        <ele>1020.4</ele>
        <time>2018-04-18T13:26:07Z</time>
      </trkpt>
      <trkpt lat="45.08182" lon="5.5622">
        <ele>1021.1</ele>
        <time>2018-04-18T13:26:17Z</time>
      </trkpt>
      <trkpt lat="45.0817" lon="5.56199">
        <ele>1022</ele>
        <time>2018-04-18T13:26:28Z</time>
      </trkpt>
      <trkpt lat="45.08154" lon="5.56183">
        <ele>1022.5</ele>
        <time>2018-04-18T13:26:37Z</time>
      </trkpt>
      <trkpt lat="45.08128" lon="5.56162">
        <ele>1023.5</ele>
        <time>2018-04-18T13:26:46Z</time>
      </trkpt>
      <trkpt lat="45.08094" lon="5.56137">
        <ele>1024.5</ele>
        <time>2018-04-18T13:26:56Z</time>
      </trkpt>
      <trkpt lat="45.08079" lon="5.56125">
        <ele>1025.3</ele>
        <time>2018-04-18T13:27:02Z</time>
      </trkpt>
      <trkpt lat="45.08061" lon="5.56111">
        <ele>1025.9</ele>
        <time>2018-04-18T13:27:10Z</time>
      </trkpt>
      <trkpt lat="45.08038" lon="5.56095">
        <ele>1026.8</ele>
        <time>2018-04-18T13:27:20Z</time>
      </trkpt>
      <trkpt lat="45.08018" lon="5.56072">
        <ele>1027.3</ele>
        <time>2018-04-18T13:27:28Z</time>
      </trkpt>
      <trkpt lat="45.07998" lon="5.56038">
        <ele>1027.2</ele>
        <time>2018-04-18T13:27:37Z</time>
      </trkpt>
      <trkpt lat="45.07977" lon="5.56">
        <ele>1027.2</ele>
        <time>2018-04-18T13:27:47Z</time>
      </trkpt>
      <trkpt lat="45.07965" lon="5.55975">
        <ele>1026.3</ele>
        <time>2018-04-18T13:27:54Z</time>
      </trkpt>
      <trkpt lat="45.07954" lon="5.55975">
        <ele>1026.3</ele>
        <time>2018-04-18T13:27:58Z</time>
      </trkpt>
      <trkpt lat="45.07952" lon="5.5598">
        <ele>1026.5</ele>
        <time>2018-04-18T13:27:59Z</time>
      </trkpt>
      <trkpt lat="45.07935" lon="5.56023">
        <ele>1027.6</ele>
        <time>2018-04-18T13:28:09Z</time>
      </trkpt>
      <trkpt lat="45.07915" lon="5.56067">
        <ele>1028.4</ele>
        <time>2018-04-18T13:28:20Z</time>
      </trkpt>
      <trkpt lat="45.07899" lon="5.56108">
        <ele>1030.1</ele>
        <time>2018-04-18T13:28:30Z</time>
      </trkpt>
      <trkpt lat="45.07885" lon="5.56142">
        <ele>1030.8</ele>
        <time>2018-04-18T13:28:39Z</time>
      </trkpt>
      <trkpt lat="45.07871" lon="5.56174">
        <ele>1031.8</ele>
        <time>2018-04-18T13:28:47Z</time>
      </trkpt>
      <trkpt lat="45.07852" lon="5.56223">
        <ele>1032.3</ele>
        <time>2018-04-18T13:28:59Z</time>
      </trkpt>
      <trkpt lat="45.07833" lon="5.56268">
        <ele>1031.7</ele>
        <time>2018-04-18T13:29:10Z</time>
      </trkpt>
      <trkpt lat="45.07818" lon="5.56315">
        <ele>1032.2</ele>
        <time>2018-04-18T13:29:21Z</time>
      </trkpt>
      <trkpt lat="45.07806" lon="5.56363">
        <ele>1033.1</ele>
        <time>2018-04-18T13:29:32Z</time>
      </trkpt>
      <trkpt lat="45.07795" lon="5.56409">
        <ele>1034.4</ele>
        <time>2018-04-18T13:29:42Z</time>
      </trkpt>
      <trkpt lat="45.0778" lon="5.56446">
        <ele>1034.1</ele>
        <time>2018-04-18T13:29:51Z</time>
      </trkpt>
      <trkpt lat="45.07766" lon="5.56488">
        <ele>1034.1</ele>
        <time>2018-04-18T13:30:01Z</time>
      </trkpt>
      <trkpt lat="45.07754" lon="5.56519">
        <ele>1034</ele>
        <time>2018-04-18T13:30:10Z</time>
      </trkpt>
      <trkpt lat="45.0774" lon="5.56519">
        <ele>1032.5</ele>
        <time>2018-04-18T13:30:16Z</time>
      </trkpt>
      <trkpt lat="45.07724" lon="5.56512">
        <ele>1030.2</ele>
        <time>2018-04-18T13:30:20Z</time>
      </trkpt>
      <trkpt lat="45.07711" lon="5.56533">
        <ele>1029.3</ele>
        <time>2018-04-18T13:30:24Z</time>
      </trkpt>
      <trkpt lat="45.07709" lon="5.5654">
        <ele>1029.7</ele>
        <time>2018-04-18T13:30:25Z</time>
      </trkpt>
      <trkpt lat="45.07706" lon="5.56556">
        <ele>1030.8</ele>
        <time>2018-04-18T13:30:27Z</time>
      </trkpt>
      <trkpt lat="45.0769" lon="5.56589">
        <ele>1032</ele>
        <time>2018-04-18T13:30:32Z</time>
      </trkpt>
      <trkpt lat="45.0768" lon="5.56596">
        <ele>1031.5</ele>
        <time>2018-04-18T13:30:34Z</time>
      </trkpt>
      <trkpt lat="45.0764" lon="5.5662">
        <ele>1029.6</ele>
        <time>2018-04-18T13:30:42Z</time>
      </trkpt>
      <trkpt lat="45.07626" lon="5.56627">
        <ele>1028.3</ele>
        <time>2018-04-18T13:30:44Z</time>
      </trkpt>
      <trkpt lat="45.07602" lon="5.56633">
        <ele>1025.2</ele>
        <time>2018-04-18T13:30:47Z</time>
      </trkpt>
      <trkpt lat="45.07577" lon="5.56639">
        <ele>1022.5</ele>
        <time>2018-04-18T13:30:50Z</time>
      </trkpt>
      <trkpt lat="45.0757" lon="5.5664">
        <ele>1021.8</ele>
        <time>2018-04-18T13:30:51Z</time>
      </trkpt>
      <trkpt lat="45.07556" lon="5.5664">
        <ele>1020.1</ele>
        <time>2018-04-18T13:30:53Z</time>
      </trkpt>
      <trkpt lat="45.0753" lon="5.56628">
        <ele>1016.8</ele>
        <time>2018-04-18T13:30:57Z</time>
      </trkpt>
      <trkpt lat="45.07506" lon="5.56602">
        <ele>1014.9</ele>
        <time>2018-04-18T13:31:01Z</time>
      </trkpt>
      <trkpt lat="45.07479" lon="5.56563">
        <ele>1014.4</ele>
        <time>2018-04-18T13:31:07Z</time>
      </trkpt>
      <trkpt lat="45.07474" lon="5.56554">
        <ele>1015.1</ele>
        <time>2018-04-18T13:31:09Z</time>
      </trkpt>
      <trkpt lat="45.07463" lon="5.56537">
        <ele>1017.5</ele>
        <time>2018-04-18T13:31:16Z</time>
      </trkpt>
      <trkpt lat="45.07458" lon="5.56521">
        <ele>1019.3</ele>
        <time>2018-04-18T13:31:24Z</time>
      </trkpt>
      <trkpt lat="45.07452" lon="5.56502">
        <ele>1021.6</ele>
        <time>2018-04-18T13:31:33Z</time>
      </trkpt>
      <trkpt lat="45.07442" lon="5.56482">
        <ele>1024</ele>
        <time>2018-04-18T13:31:42Z</time>
      </trkpt>
      <trkpt lat="45.07426" lon="5.56468">
        <ele>1026.2</ele>
        <time>2018-04-18T13:31:51Z</time>
      </trkpt>
      <trkpt lat="45.07413" lon="5.56458">
        <ele>1027.3</ele>
        <time>2018-04-18T13:31:59Z</time>
      </trkpt>
      <trkpt lat="45.07393" lon="5.56448">
        <ele>1028.5</ele>
        <time>2018-04-18T13:32:08Z</time>
      </trkpt>
      <trkpt lat="45.07372" lon="5.56437">
        <ele>1029.2</ele>
        <time>2018-04-18T13:32:18Z</time>
      </trkpt>
      <trkpt lat="45.07353" lon="5.56429">
        <ele>1031.2</ele>
        <time>2018-04-18T13:32:27Z</time>
      </trkpt>
      <trkpt lat="45.07337" lon="5.56425">
        <ele>1032.5</ele>
        <time>2018-04-18T13:32:35Z</time>
      </trkpt>
      <trkpt lat="45.07333" lon="5.56425">
        <ele>1032.6</ele>
        <time>2018-04-18T13:32:37Z</time>
      </trkpt>
      <trkpt lat="45.07331" lon="5.56433">
        <ele>1033</ele>
        <time>2018-04-18T13:32:41Z</time>
      </trkpt>
      <trkpt lat="45.07312" lon="5.5643">
        <ele>1032</ele>
      </trkpt>
      <trkpt lat="45.07279" lon="5.56413">
        <ele>1034.3</ele>
      </trkpt>
      <trkpt lat="45.07401" lon="5.56348">
        <ele>1032.6</ele>
      </trkpt>
      <trkpt lat="45.07402" lon="5.56155">
        <ele>1033.8</ele>
      </trkpt>
      <trkpt lat="45.07385" lon="5.56051">
        <ele>1033.4</ele>
      </trkpt>
      <trkpt lat="45.07396" lon="5.56051">
        <ele>1033.4</ele>
      </trkpt>
    </trkseg>
  </trk>
</gpx>